<?xml version='1.0' encoding='UTF-8'?><gpx version="1.1" creator="JPX - https://github.com/jenetics/jpx" xmlns="http://www.topografix.com/GPX/1/1"><trk><trkseg><trkpt lat="42.4725951" lon="-7.2810354"><ele>234.0</ele><time>2026-04-25T14:30:57.058Z</time></trkpt><trkpt lat="42.472518" lon="-7.2810443"><ele>234.0</ele><time>2026-04-25T14:30:58.05Z</time></trkpt><trkpt lat="42.4723931" lon="-7.2810459"><ele>234.0</ele><time>2026-04-25T14:30:59.058Z</time></trkpt><trkpt lat="42.4722695" lon="-7.2810414"><ele>234.0</ele><time>2026-04-25T14:31:00.065Z</time></trkpt><trkpt lat="42.4721361" lon="-7.2810267"><ele>233.25</ele><time>2026-04-25T14:31:01.053Z</time></trkpt><trkpt lat="42.4720116" lon="-7.2810286"><ele>232.5</ele><time>2026-04-25T14:31:02.058Z</time></trkpt><trkpt lat="42.4718768" lon="-7.2810314"><ele>231.75</ele><time>2026-04-25T14:31:03.062Z</time></trkpt><trkpt lat="42.4717333" lon="-7.2810303"><ele>231.0</ele><time>2026-04-25T14:31:04.06Z</time></trkpt><trkpt lat="42.4715968" lon="-7.2810335"><ele>231.0</ele><time>2026-04-25T14:31:05.067Z</time></trkpt><trkpt lat="42.4714655" lon="-7.2810402"><ele>231.0</ele><time>2026-04-25T14:31:06.059Z</time></trkpt><trkpt lat="42.4713297" lon="-7.2810415"><ele>231.0</ele><time>2026-04-25T14:31:07.061Z</time></trkpt><trkpt lat="42.4711888" lon="-7.2810403"><ele>231.0</ele><time>2026-04-25T14:31:08.046Z</time></trkpt><trkpt lat="42.4710506" lon="-7.2810366"><ele>232.25</ele><time>2026-04-25T14:31:09.062Z</time></trkpt><trkpt lat="42.470922" lon="-7.2810333"><ele>233.5</ele><time>2026-04-25T14:31:10.066Z</time></trkpt><trkpt lat="42.4707973" lon="-7.2810323"><ele>234.75</ele><time>2026-04-25T14:31:11.058Z</time></trkpt><trkpt lat="42.4706739" lon="-7.2810346"><ele>236.0</ele><time>2026-04-25T14:31:12.052Z</time></trkpt><trkpt lat="42.4705535" lon="-7.281052"><ele>235.75</ele><time>2026-04-25T14:31:13.052Z</time></trkpt><trkpt lat="42.4704326" lon="-7.281091"><ele>235.5</ele><time>2026-04-25T14:31:14.061Z</time></trkpt><trkpt lat="42.4703116" lon="-7.2811535"><ele>235.25</ele><time>2026-04-25T14:31:15.05Z</time></trkpt><trkpt lat="42.4701988" lon="-7.2812304"><ele>235.0</ele><time>2026-04-25T14:31:16.055Z</time></trkpt><trkpt lat="42.4700959" lon="-7.2813198"><ele>235.0</ele><time>2026-04-25T14:31:17.05Z</time></trkpt><trkpt lat="42.4699952" lon="-7.2814271"><ele>235.0</ele><time>2026-04-25T14:31:18.053Z</time></trkpt><trkpt lat="42.4698963" lon="-7.2815456"><ele>235.0</ele><time>2026-04-25T14:31:19.054Z</time></trkpt><trkpt lat="42.4697985" lon="-7.2816724"><ele>235.0</ele><time>2026-04-25T14:31:20.049Z</time></trkpt><trkpt lat="42.4697024" lon="-7.2818042"><ele>235.25</ele><time>2026-04-25T14:31:21.061Z</time></trkpt><trkpt lat="42.4696067" lon="-7.2819342"><ele>235.5</ele><time>2026-04-25T14:31:22.052Z</time></trkpt><trkpt lat="42.4695168" lon="-7.2820534"><ele>235.75</ele><time>2026-04-25T14:31:23.054Z</time></trkpt><trkpt lat="42.4694332" lon="-7.282167"><ele>236.0</ele><time>2026-04-25T14:31:24.054Z</time></trkpt><trkpt lat="42.4693476" lon="-7.2822819"><ele>236.25</ele><time>2026-04-25T14:31:25.049Z</time></trkpt><trkpt lat="42.4692627" lon="-7.2823959"><ele>236.5</ele><time>2026-04-25T14:31:26.065Z</time></trkpt><trkpt lat="42.4691787" lon="-7.2825045"><ele>236.75</ele><time>2026-04-25T14:31:27.055Z</time></trkpt><trkpt lat="42.4690945" lon="-7.2826138"><ele>237.0</ele><time>2026-04-25T14:31:28.065Z</time></trkpt><trkpt lat="42.4690125" lon="-7.2827231"><ele>237.0</ele><time>2026-04-25T14:31:29.059Z</time></trkpt><trkpt lat="42.4689304" lon="-7.2828347"><ele>237.0</ele><time>2026-04-25T14:31:30.052Z</time></trkpt><trkpt lat="42.4688484" lon="-7.2829456"><ele>237.0</ele><time>2026-04-25T14:31:31.052Z</time></trkpt><trkpt lat="42.4687671" lon="-7.2830591"><ele>237.0</ele><time>2026-04-25T14:31:32.065Z</time></trkpt><trkpt lat="42.4686855" lon="-7.2831728"><ele>236.5</ele><time>2026-04-25T14:31:33.062Z</time></trkpt><trkpt lat="42.4686036" lon="-7.2832876"><ele>236.0</ele><time>2026-04-25T14:31:34.06Z</time></trkpt><trkpt lat="42.4685194" lon="-7.2834012"><ele>235.5</ele><time>2026-04-25T14:31:35.052Z</time></trkpt><trkpt lat="42.4684348" lon="-7.283516"><ele>235.0</ele><time>2026-04-25T14:31:36.057Z</time></trkpt><trkpt lat="42.4683494" lon="-7.2836324"><ele>235.0</ele><time>2026-04-25T14:31:37.058Z</time></trkpt><trkpt lat="42.4682632" lon="-7.2837488"><ele>235.0</ele><time>2026-04-25T14:31:38.061Z</time></trkpt><trkpt lat="42.4681764" lon="-7.283863"><ele>235.0</ele><time>2026-04-25T14:31:39.05Z</time></trkpt><trkpt lat="42.4680934" lon="-7.2839742"><ele>235.0</ele><time>2026-04-25T14:31:40.061Z</time></trkpt><trkpt lat="42.4680141" lon="-7.2840855"><ele>235.25</ele><time>2026-04-25T14:31:41.058Z</time></trkpt><trkpt lat="42.4679349" lon="-7.2841961"><ele>235.5</ele><time>2026-04-25T14:31:42.061Z</time></trkpt><trkpt lat="42.4678531" lon="-7.284306"><ele>235.75</ele><time>2026-04-25T14:31:43.06Z</time></trkpt><trkpt lat="42.4677705" lon="-7.2844181"><ele>236.0</ele><time>2026-04-25T14:31:44.061Z</time></trkpt><trkpt lat="42.4676873" lon="-7.2845338"><ele>236.0</ele><time>2026-04-25T14:31:45.064Z</time></trkpt><trkpt lat="42.4676019" lon="-7.2846503"><ele>236.0</ele><time>2026-04-25T14:31:46.049Z</time></trkpt><trkpt lat="42.4675149" lon="-7.2847688"><ele>236.0</ele><time>2026-04-25T14:31:47.059Z</time></trkpt><trkpt lat="42.4674268" lon="-7.2848875"><ele>236.0</ele><time>2026-04-25T14:31:48.053Z</time></trkpt><trkpt lat="42.4673427" lon="-7.285"><ele>236.0</ele><time>2026-04-25T14:31:49.056Z</time></trkpt><trkpt lat="42.4672655" lon="-7.2851041"><ele>236.00000000000003</ele><time>2026-04-25T14:31:50.066Z</time></trkpt><trkpt lat="42.4671925" lon="-7.2852024"><ele>236.00000000000003</ele><time>2026-04-25T14:31:51.056Z</time></trkpt><trkpt lat="42.4671211" lon="-7.2852995"><ele>236.0</ele><time>2026-04-25T14:31:52.056Z</time></trkpt><trkpt lat="42.4670506" lon="-7.2853977"><ele>236.0</ele><time>2026-04-25T14:31:53.053Z</time></trkpt><trkpt lat="42.466979" lon="-7.2854946"><ele>236.20000000000002</ele><time>2026-04-25T14:31:54.05Z</time></trkpt><trkpt lat="42.4669075" lon="-7.2855923"><ele>236.40000000000003</ele><time>2026-04-25T14:31:55.054Z</time></trkpt><trkpt lat="42.4668361" lon="-7.2856901"><ele>236.6</ele><time>2026-04-25T14:31:56.052Z</time></trkpt><trkpt lat="42.466762" lon="-7.2857876"><ele>236.8</ele><time>2026-04-25T14:31:57.057Z</time></trkpt><trkpt lat="42.4666851" lon="-7.2858866"><ele>237.0</ele><time>2026-04-25T14:31:58.06Z</time></trkpt><trkpt lat="42.4666048" lon="-7.2859874"><ele>237.25</ele><time>2026-04-25T14:31:59.06Z</time></trkpt><trkpt lat="42.4665215" lon="-7.2860899"><ele>237.5</ele><time>2026-04-25T14:32:00.062Z</time></trkpt><trkpt lat="42.4664365" lon="-7.2861935"><ele>237.75</ele><time>2026-04-25T14:32:01.05Z</time></trkpt><trkpt lat="42.466359" lon="-7.2863147"><ele>238.0</ele><time>2026-04-25T14:32:02.057Z</time></trkpt><trkpt lat="42.4662838" lon="-7.2864364"><ele>238.2</ele><time>2026-04-25T14:32:03.054Z</time></trkpt><trkpt lat="42.4662385" lon="-7.2865713"><ele>238.4</ele><time>2026-04-25T14:32:04.05Z</time></trkpt><trkpt lat="42.4662131" lon="-7.2867035"><ele>238.59999999999997</ele><time>2026-04-25T14:32:05.055Z</time></trkpt><trkpt lat="42.4662065" lon="-7.2868296"><ele>238.79999999999998</ele><time>2026-04-25T14:32:06.062Z</time></trkpt><trkpt lat="42.4662148" lon="-7.2869375"><ele>239.0</ele><time>2026-04-25T14:32:07.053Z</time></trkpt><trkpt lat="42.4662402" lon="-7.2870739"><ele>239.00000000000003</ele><time>2026-04-25T14:32:09.052Z</time></trkpt><trkpt lat="42.4662111" lon="-7.2872151"><ele>239.0</ele><time>2026-04-25T14:32:12.061Z</time></trkpt><trkpt lat="42.4661563" lon="-7.2872878"><ele>239.0</ele><time>2026-04-25T14:32:13.056Z</time></trkpt><trkpt lat="42.4660907" lon="-7.2873433"><ele>239.0</ele><time>2026-04-25T14:32:14.053Z</time></trkpt><trkpt lat="42.4660184" lon="-7.2874024"><ele>239.00000000000003</ele><time>2026-04-25T14:32:15.052Z</time></trkpt><trkpt lat="42.4659405" lon="-7.2874646"><ele>239.0</ele><time>2026-04-25T14:32:16.055Z</time></trkpt><trkpt lat="42.4658599" lon="-7.2875287"><ele>239.6</ele><time>2026-04-25T14:32:17.059Z</time></trkpt><trkpt lat="42.4657766" lon="-7.2875892"><ele>240.2</ele><time>2026-04-25T14:32:18.057Z</time></trkpt><trkpt lat="42.465695" lon="-7.2876567"><ele>240.79999999999998</ele><time>2026-04-25T14:32:19.06Z</time></trkpt><trkpt lat="42.4656093" lon="-7.287727"><ele>241.39999999999998</ele><time>2026-04-25T14:32:20.053Z</time></trkpt><trkpt lat="42.4655212" lon="-7.287801"><ele>242.0</ele><time>2026-04-25T14:32:21.058Z</time></trkpt><trkpt lat="42.4654299" lon="-7.2878815"><ele>242.25</ele><time>2026-04-25T14:32:22.059Z</time></trkpt><trkpt lat="42.4653764" lon="-7.2880096"><ele>242.5</ele><time>2026-04-25T14:32:23.052Z</time></trkpt><trkpt lat="42.4653599" lon="-7.2881471"><ele>242.75</ele><time>2026-04-25T14:32:24.055Z</time></trkpt><trkpt lat="42.4653677" lon="-7.2883141"><ele>243.0</ele><time>2026-04-25T14:32:25.054Z</time></trkpt><trkpt lat="42.4653881" lon="-7.2884894"><ele>243.2</ele><time>2026-04-25T14:32:26.053Z</time></trkpt><trkpt lat="42.4654031" lon="-7.2886415"><ele>243.4</ele><time>2026-04-25T14:32:27.058Z</time></trkpt><trkpt lat="42.4654146" lon="-7.2887793"><ele>243.59999999999997</ele><time>2026-04-25T14:32:28.049Z</time></trkpt><trkpt lat="42.4654235" lon="-7.2889196"><ele>243.79999999999998</ele><time>2026-04-25T14:32:29.053Z</time></trkpt><trkpt lat="42.4654328" lon="-7.2890541"><ele>244.0</ele><time>2026-04-25T14:32:30.054Z</time></trkpt><trkpt lat="42.4654464" lon="-7.2891818"><ele>244.0</ele><time>2026-04-25T14:32:31.056Z</time></trkpt><trkpt lat="42.4654621" lon="-7.2892987"><ele>243.99999999999997</ele><time>2026-04-25T14:32:32.053Z</time></trkpt><trkpt lat="42.4654772" lon="-7.2894009"><ele>243.99999999999997</ele><time>2026-04-25T14:32:33.056Z</time></trkpt><trkpt lat="42.4654751" lon="-7.2894882"><ele>244.0</ele><time>2026-04-25T14:32:34.051Z</time></trkpt><trkpt lat="42.4654247" lon="-7.2895962"><ele>244.0</ele><time>2026-04-25T14:32:36.059Z</time></trkpt><trkpt lat="42.4652993" lon="-7.2896258"><ele>244.39999999999998</ele><time>2026-04-25T14:32:38.055Z</time></trkpt><trkpt lat="42.4652199" lon="-7.2896315"><ele>244.79999999999998</ele><time>2026-04-25T14:32:39.05Z</time></trkpt><trkpt lat="42.4651253" lon="-7.2896493"><ele>245.20000000000002</ele><time>2026-04-25T14:32:40.057Z</time></trkpt><trkpt lat="42.465031" lon="-7.2896804"><ele>245.60000000000002</ele><time>2026-04-25T14:32:41.061Z</time></trkpt><trkpt lat="42.4649362" lon="-7.2897213"><ele>246.0</ele><time>2026-04-25T14:32:42.06Z</time></trkpt><trkpt lat="42.4648387" lon="-7.2897625"><ele>246.8</ele><time>2026-04-25T14:32:43.051Z</time></trkpt><trkpt lat="42.4647293" lon="-7.2898066"><ele>247.60000000000002</ele><time>2026-04-25T14:32:44.056Z</time></trkpt><trkpt lat="42.4646153" lon="-7.2898194"><ele>248.4</ele><time>2026-04-25T14:32:45.06Z</time></trkpt><trkpt lat="42.4645096" lon="-7.2897919"><ele>249.2</ele><time>2026-04-25T14:32:46.053Z</time></trkpt><trkpt lat="42.4644229" lon="-7.2897404"><ele>250.0</ele><time>2026-04-25T14:32:47.056Z</time></trkpt><trkpt lat="42.4643445" lon="-7.2897016"><ele>250.2</ele><time>2026-04-25T14:32:48.059Z</time></trkpt><trkpt lat="42.4642566" lon="-7.2897077"><ele>250.4</ele><time>2026-04-25T14:32:49.057Z</time></trkpt><trkpt lat="42.4641645" lon="-7.2897222"><ele>250.60000000000002</ele><time>2026-04-25T14:32:50.063Z</time></trkpt><trkpt lat="42.4640864" lon="-7.2898351"><ele>250.8</ele><time>2026-04-25T14:32:51.058Z</time></trkpt><trkpt lat="42.4639863" lon="-7.2899735"><ele>251.0</ele><time>2026-04-25T14:32:52.054Z</time></trkpt><trkpt lat="42.463861" lon="-7.2901136"><ele>253.0</ele><time>2026-04-25T14:32:53.054Z</time></trkpt><trkpt lat="42.4637385" lon="-7.2902275"><ele>255.0</ele><time>2026-04-25T14:32:54.056Z</time></trkpt><trkpt lat="42.4636296" lon="-7.2903308"><ele>257.0</ele><time>2026-04-25T14:32:55.063Z</time></trkpt><trkpt lat="42.4635285" lon="-7.2903582"><ele>259.0</ele><time>2026-04-25T14:32:56.05Z</time></trkpt><trkpt lat="42.4634238" lon="-7.290379"><ele>259.0</ele><time>2026-04-25T14:32:57.049Z</time></trkpt><trkpt lat="42.4633094" lon="-7.2903081"><ele>259.0</ele><time>2026-04-25T14:32:58.066Z</time></trkpt><trkpt lat="42.463205" lon="-7.2902055"><ele>259.0</ele><time>2026-04-25T14:32:59.061Z</time></trkpt><trkpt lat="42.4631242" lon="-7.2900959"><ele>259.0</ele><time>2026-04-25T14:33:00.05Z</time></trkpt><trkpt lat="42.4630504" lon="-7.2900038"><ele>259.0</ele><time>2026-04-25T14:33:01.053Z</time></trkpt><trkpt lat="42.4629769" lon="-7.2899427"><ele>259.0</ele><time>2026-04-25T14:33:02.058Z</time></trkpt><trkpt lat="42.462888" lon="-7.289944"><ele>259.0</ele><time>2026-04-25T14:33:03.051Z</time></trkpt><trkpt lat="42.462789" lon="-7.2899889"><ele>259.0</ele><time>2026-04-25T14:33:04.047Z</time></trkpt><trkpt lat="42.4626958" lon="-7.2901482"><ele>259.0</ele><time>2026-04-25T14:33:05.045Z</time></trkpt><trkpt lat="42.4626349" lon="-7.2902964"><ele>261.0</ele><time>2026-04-25T14:33:06.05Z</time></trkpt><trkpt lat="42.4625824" lon="-7.2904285"><ele>263.0</ele><time>2026-04-25T14:33:07.051Z</time></trkpt><trkpt lat="42.4625242" lon="-7.2905627"><ele>265.0</ele><time>2026-04-25T14:33:08.051Z</time></trkpt><trkpt lat="42.4624443" lon="-7.2906817"><ele>267.0</ele><time>2026-04-25T14:33:09.058Z</time></trkpt><trkpt lat="42.4623518" lon="-7.2907505"><ele>267.75</ele><time>2026-04-25T14:33:10.061Z</time></trkpt><trkpt lat="42.4622443" lon="-7.2907624"><ele>268.5</ele><time>2026-04-25T14:33:11.05Z</time></trkpt><trkpt lat="42.4621194" lon="-7.2907213"><ele>269.25</ele><time>2026-04-25T14:33:12.049Z</time></trkpt><trkpt lat="42.4619841" lon="-7.2906733"><ele>270.0</ele><time>2026-04-25T14:33:13.052Z</time></trkpt><trkpt lat="42.4618415" lon="-7.2905388"><ele>272.0</ele><time>2026-04-25T14:33:14.05Z</time></trkpt><trkpt lat="42.4617203" lon="-7.2903942"><ele>274.0</ele><time>2026-04-25T14:33:15.061Z</time></trkpt><trkpt lat="42.461629" lon="-7.2902613"><ele>276.0</ele><time>2026-04-25T14:33:16.06Z</time></trkpt><trkpt lat="42.461558" lon="-7.2901407"><ele>278.0</ele><time>2026-04-25T14:33:17.049Z</time></trkpt><trkpt lat="42.4615036" lon="-7.290021"><ele>278.0</ele><time>2026-04-25T14:33:18.044Z</time></trkpt><trkpt lat="42.461469" lon="-7.2898792"><ele>278.0</ele><time>2026-04-25T14:33:19.054Z</time></trkpt><trkpt lat="42.461458" lon="-7.2897264"><ele>278.0</ele><time>2026-04-25T14:33:20.051Z</time></trkpt><trkpt lat="42.461465" lon="-7.2896036"><ele>278.0</ele><time>2026-04-25T14:33:21.056Z</time></trkpt><trkpt lat="42.4614659" lon="-7.2895101"><ele>278.0</ele><time>2026-04-25T14:33:22.057Z</time></trkpt><trkpt lat="42.4614641" lon="-7.289415"><ele>279.4</ele><time>2026-04-25T14:33:23.048Z</time></trkpt><trkpt lat="42.4614623" lon="-7.2893125"><ele>280.8</ele><time>2026-04-25T14:33:24.048Z</time></trkpt><trkpt lat="42.4614638" lon="-7.2891902"><ele>282.2</ele><time>2026-04-25T14:33:25.059Z</time></trkpt><trkpt lat="42.461468" lon="-7.2890533"><ele>283.6</ele><time>2026-04-25T14:33:26.053Z</time></trkpt><trkpt lat="42.4614649" lon="-7.2889026"><ele>285.0</ele><time>2026-04-25T14:33:27.049Z</time></trkpt><trkpt lat="42.4614354" lon="-7.2887537"><ele>287.2</ele><time>2026-04-25T14:33:28.053Z</time></trkpt><trkpt lat="42.4614012" lon="-7.2886292"><ele>289.4</ele><time>2026-04-25T14:33:29.048Z</time></trkpt><trkpt lat="42.4613141" lon="-7.288562"><ele>291.6</ele><time>2026-04-25T14:33:30.051Z</time></trkpt><trkpt lat="42.46119" lon="-7.2885371"><ele>293.8</ele><time>2026-04-25T14:33:31.062Z</time></trkpt><trkpt lat="42.4610842" lon="-7.2885958"><ele>296.0</ele><time>2026-04-25T14:33:32.049Z</time></trkpt><trkpt lat="42.4610023" lon="-7.2887123"><ele>299.25</ele><time>2026-04-25T14:33:33.049Z</time></trkpt><trkpt lat="42.4609404" lon="-7.2888811"><ele>302.5</ele><time>2026-04-25T14:33:34.052Z</time></trkpt><trkpt lat="42.4608731" lon="-7.2890684"><ele>305.75</ele><time>2026-04-25T14:33:35.051Z</time></trkpt><trkpt lat="42.4608072" lon="-7.2892609"><ele>309.0</ele><time>2026-04-25T14:33:36.051Z</time></trkpt><trkpt lat="42.46073" lon="-7.2894171"><ele>309.0</ele><time>2026-04-25T14:33:37.057Z</time></trkpt><trkpt lat="42.4606367" lon="-7.2895541"><ele>309.0</ele><time>2026-04-25T14:33:38.054Z</time></trkpt><trkpt lat="42.4605123" lon="-7.2896805"><ele>309.0</ele><time>2026-04-25T14:33:39.049Z</time></trkpt><trkpt lat="42.4603648" lon="-7.2897914"><ele>310.0</ele><time>2026-04-25T14:33:40.061Z</time></trkpt><trkpt lat="42.4601813" lon="-7.2898715"><ele>311.0</ele><time>2026-04-25T14:33:41.049Z</time></trkpt><trkpt lat="42.4599651" lon="-7.2899321"><ele>312.0</ele><time>2026-04-25T14:33:42.061Z</time></trkpt><trkpt lat="42.4597511" lon="-7.2899758"><ele>316.3333333333333</ele><time>2026-04-25T14:33:43.055Z</time></trkpt><trkpt lat="42.4595367" lon="-7.2900249"><ele>320.66666666666663</ele><time>2026-04-25T14:33:44.055Z</time></trkpt><trkpt lat="42.4593366" lon="-7.2900604"><ele>325.0</ele><time>2026-04-25T14:33:45.054Z</time></trkpt><trkpt lat="42.4591541" lon="-7.2900744"><ele>325.0</ele><time>2026-04-25T14:33:46.047Z</time></trkpt><trkpt lat="42.4589942" lon="-7.2900415"><ele>325.0</ele><time>2026-04-25T14:33:47.055Z</time></trkpt><trkpt lat="42.4588629" lon="-7.2899577"><ele>325.0</ele><time>2026-04-25T14:33:48.056Z</time></trkpt><trkpt lat="42.458738" lon="-7.2898557"><ele>332.3333333333333</ele><time>2026-04-25T14:33:49.057Z</time></trkpt><trkpt lat="42.4586706" lon="-7.2896579"><ele>339.6666666666667</ele><time>2026-04-25T14:33:50.051Z</time></trkpt><trkpt lat="42.4586233" lon="-7.2894362"><ele>347.0</ele><time>2026-04-25T14:33:51.047Z</time></trkpt><trkpt lat="42.458652" lon="-7.2891785"><ele>349.33333333333337</ele><time>2026-04-25T14:33:52.048Z</time></trkpt><trkpt lat="42.4587032" lon="-7.2888978"><ele>351.6666666666667</ele><time>2026-04-25T14:33:53.052Z</time></trkpt><trkpt lat="42.4587463" lon="-7.2886003"><ele>354.0</ele><time>2026-04-25T14:33:54.061Z</time></trkpt><trkpt lat="42.4587546" lon="-7.2882953"><ele>358.5</ele><time>2026-04-25T14:33:55.049Z</time></trkpt><trkpt lat="42.4587349" lon="-7.2879762"><ele>363.0</ele><time>2026-04-25T14:33:56.046Z</time></trkpt><trkpt lat="42.4586862" lon="-7.2876368"><ele>363.0</ele><time>2026-04-25T14:33:57.049Z</time></trkpt><trkpt lat="42.4586078" lon="-7.2873101"><ele>363.0</ele><time>2026-04-25T14:33:58.051Z</time></trkpt><trkpt lat="42.4585148" lon="-7.2870277"><ele>363.3333333333333</ele><time>2026-04-25T14:33:59.044Z</time></trkpt><trkpt lat="42.4584133" lon="-7.2867846"><ele>363.66666666666663</ele><time>2026-04-25T14:34:00.049Z</time></trkpt><trkpt lat="42.4582936" lon="-7.2865763"><ele>364.0</ele><time>2026-04-25T14:34:01.053Z</time></trkpt><trkpt lat="42.4581434" lon="-7.2864232"><ele>364.66666666666663</ele><time>2026-04-25T14:34:02.052Z</time></trkpt><trkpt lat="42.4579643" lon="-7.2863179"><ele>365.3333333333333</ele><time>2026-04-25T14:34:03.049Z</time></trkpt><trkpt lat="42.4577887" lon="-7.2862526"><ele>366.0</ele><time>2026-04-25T14:34:04.055Z</time></trkpt><trkpt lat="42.4576467" lon="-7.2862549"><ele>368.75</ele><time>2026-04-25T14:34:05.054Z</time></trkpt><trkpt lat="42.4575185" lon="-7.2863027"><ele>371.5</ele><time>2026-04-25T14:34:06.052Z</time></trkpt><trkpt lat="42.4573827" lon="-7.2863719"><ele>374.25</ele><time>2026-04-25T14:34:07.05Z</time></trkpt><trkpt lat="42.4572374" lon="-7.286464"><ele>377.0</ele><time>2026-04-25T14:34:08.06Z</time></trkpt><trkpt lat="42.4571019" lon="-7.2866367"><ele>377.0</ele><time>2026-04-25T14:34:09.055Z</time></trkpt><trkpt lat="42.4569567" lon="-7.2868143"><ele>377.0</ele><time>2026-04-25T14:34:10.057Z</time></trkpt><trkpt lat="42.4568566" lon="-7.2870736"><ele>377.0</ele><time>2026-04-25T14:34:11.05Z</time></trkpt><trkpt lat="42.4567454" lon="-7.2873597"><ele>383.5</ele><time>2026-04-25T14:34:12.058Z</time></trkpt><trkpt lat="42.4566375" lon="-7.2876539"><ele>390.0</ele><time>2026-04-25T14:34:13.057Z</time></trkpt><trkpt lat="42.4565114" lon="-7.2878949"><ele>389.0</ele><time>2026-04-25T14:34:14.053Z</time></trkpt><trkpt lat="42.4563873" lon="-7.2881431"><ele>388.0</ele><time>2026-04-25T14:34:15.051Z</time></trkpt><trkpt lat="42.4562334" lon="-7.2883687"><ele>387.0</ele><time>2026-04-25T14:34:16.057Z</time></trkpt><trkpt lat="42.4560561" lon="-7.2885898"><ele>386.0</ele><time>2026-04-25T14:34:17.055Z</time></trkpt><trkpt lat="42.4558721" lon="-7.2888142"><ele>385.0</ele><time>2026-04-25T14:34:18.047Z</time></trkpt><trkpt lat="42.4556939" lon="-7.2890233"><ele>385.0</ele><time>2026-04-25T14:34:19.049Z</time></trkpt><trkpt lat="42.4555182" lon="-7.2892295"><ele>385.0</ele><time>2026-04-25T14:34:20.053Z</time></trkpt><trkpt lat="42.4553429" lon="-7.2894413"><ele>385.0</ele><time>2026-04-25T14:34:21.054Z</time></trkpt><trkpt lat="42.4551715" lon="-7.2896617"><ele>385.0</ele><time>2026-04-25T14:34:22.05Z</time></trkpt><trkpt lat="42.4549982" lon="-7.2898798"><ele>385.0</ele><time>2026-04-25T14:34:23.052Z</time></trkpt><trkpt lat="42.4548113" lon="-7.2900766"><ele>385.0</ele><time>2026-04-25T14:34:24.054Z</time></trkpt><trkpt lat="42.4546075" lon="-7.290231"><ele>386.0</ele><time>2026-04-25T14:34:25.047Z</time></trkpt><trkpt lat="42.4543899" lon="-7.2903414"><ele>387.0</ele><time>2026-04-25T14:34:26.053Z</time></trkpt><trkpt lat="42.4541845" lon="-7.2904235"><ele>388.0</ele><time>2026-04-25T14:34:27.052Z</time></trkpt><trkpt lat="42.4539944" lon="-7.2905005"><ele>388.0</ele><time>2026-04-25T14:34:28.059Z</time></trkpt><trkpt lat="42.4538141" lon="-7.2905853"><ele>388.0</ele><time>2026-04-25T14:34:29.06Z</time></trkpt><trkpt lat="42.4536164" lon="-7.2906568"><ele>388.0</ele><time>2026-04-25T14:34:30.058Z</time></trkpt><trkpt lat="42.453424" lon="-7.2907136"><ele>391.33333333333337</ele><time>2026-04-25T14:34:31.053Z</time></trkpt><trkpt lat="42.4532403" lon="-7.2907512"><ele>394.66666666666663</ele><time>2026-04-25T14:34:32.056Z</time></trkpt><trkpt lat="42.4530639" lon="-7.2907625"><ele>398.0</ele><time>2026-04-25T14:34:33.05Z</time></trkpt><trkpt lat="42.4528789" lon="-7.2907396"><ele>397.0</ele><time>2026-04-25T14:34:34.054Z</time></trkpt><trkpt lat="42.4526919" lon="-7.2906824"><ele>396.0</ele><time>2026-04-25T14:34:35.052Z</time></trkpt><trkpt lat="42.4525159" lon="-7.2906082"><ele>395.0</ele><time>2026-04-25T14:34:36.055Z</time></trkpt><trkpt lat="42.4523483" lon="-7.2905194"><ele>395.0</ele><time>2026-04-25T14:34:37.058Z</time></trkpt><trkpt lat="42.4521805" lon="-7.2904227"><ele>395.0</ele><time>2026-04-25T14:34:38.052Z</time></trkpt><trkpt lat="42.4520259" lon="-7.290334"><ele>395.0</ele><time>2026-04-25T14:34:39.058Z</time></trkpt><trkpt lat="42.4518873" lon="-7.2902759"><ele>398.75</ele><time>2026-04-25T14:34:40.046Z</time></trkpt><trkpt lat="42.4517631" lon="-7.2902509"><ele>402.5</ele><time>2026-04-25T14:34:41.053Z</time></trkpt><trkpt lat="42.4516354" lon="-7.2902785"><ele>406.25</ele><time>2026-04-25T14:34:42.056Z</time></trkpt><trkpt lat="42.4514966" lon="-7.2903285"><ele>410.0</ele><time>2026-04-25T14:34:43.06Z</time></trkpt><trkpt lat="42.4513379" lon="-7.2904448"><ele>411.0</ele><time>2026-04-25T14:34:44.047Z</time></trkpt><trkpt lat="42.451186" lon="-7.2905634"><ele>412.0</ele><time>2026-04-25T14:34:45.07Z</time></trkpt><trkpt lat="42.451036" lon="-7.2907122"><ele>413.0</ele><time>2026-04-25T14:34:46.052Z</time></trkpt><trkpt lat="42.4509083" lon="-7.2908582"><ele>415.5</ele><time>2026-04-25T14:34:47.065Z</time></trkpt><trkpt lat="42.4508039" lon="-7.2910089"><ele>418.0</ele><time>2026-04-25T14:34:48.065Z</time></trkpt><trkpt lat="42.4507271" lon="-7.2911678"><ele>420.5</ele><time>2026-04-25T14:34:49.055Z</time></trkpt><trkpt lat="42.4506692" lon="-7.2913436"><ele>423.0</ele><time>2026-04-25T14:34:50.063Z</time></trkpt><trkpt lat="42.4506043" lon="-7.2915199"><ele>425.33333333333337</ele><time>2026-04-25T14:34:51.053Z</time></trkpt><trkpt lat="42.4505181" lon="-7.2916838"><ele>427.6666666666667</ele><time>2026-04-25T14:34:52.056Z</time></trkpt><trkpt lat="42.4503901" lon="-7.2917961"><ele>430.0</ele><time>2026-04-25T14:34:53.056Z</time></trkpt><trkpt lat="42.45024" lon="-7.2919112"><ele>431.33333333333337</ele><time>2026-04-25T14:34:54.052Z</time></trkpt><trkpt lat="42.4500656" lon="-7.2920011"><ele>432.66666666666663</ele><time>2026-04-25T14:34:55.051Z</time></trkpt><trkpt lat="42.4498901" lon="-7.2920846"><ele>434.0</ele><time>2026-04-25T14:34:56.054Z</time></trkpt><trkpt lat="42.4497305" lon="-7.2921554"><ele>437.75</ele><time>2026-04-25T14:34:57.057Z</time></trkpt><trkpt lat="42.4495791" lon="-7.2922096"><ele>441.5</ele><time>2026-04-25T14:34:58.05Z</time></trkpt><trkpt lat="42.4494469" lon="-7.292225"><ele>445.25</ele><time>2026-04-25T14:34:59.053Z</time></trkpt><trkpt lat="42.4493205" lon="-7.2921797"><ele>449.0</ele><time>2026-04-25T14:35:00.056Z</time></trkpt><trkpt lat="42.4491938" lon="-7.2920768"><ele>449.0</ele><time>2026-04-25T14:35:01.051Z</time></trkpt><trkpt lat="42.4490644" lon="-7.2919262"><ele>449.0</ele><time>2026-04-25T14:35:02.049Z</time></trkpt><trkpt lat="42.44894" lon="-7.2917542"><ele>449.0</ele><time>2026-04-25T14:35:03.051Z</time></trkpt><trkpt lat="42.4488222" lon="-7.2915781"><ele>452.66666666666663</ele><time>2026-04-25T14:35:04.053Z</time></trkpt><trkpt lat="42.4487278" lon="-7.2913443"><ele>456.33333333333337</ele><time>2026-04-25T14:35:05.053Z</time></trkpt><trkpt lat="42.4486684" lon="-7.2911356"><ele>460.0</ele><time>2026-04-25T14:35:06.051Z</time></trkpt><trkpt lat="42.4485818" lon="-7.290931"><ele>460.0</ele><time>2026-04-25T14:35:07.053Z</time></trkpt><trkpt lat="42.4485058" lon="-7.2907914"><ele>460.0</ele><time>2026-04-25T14:35:08.049Z</time></trkpt><trkpt lat="42.4483977" lon="-7.2906841"><ele>460.0</ele><time>2026-04-25T14:35:09.057Z</time></trkpt><trkpt lat="42.4483147" lon="-7.2906382"><ele>460.0</ele><time>2026-04-25T14:35:10.049Z</time></trkpt><trkpt lat="42.4482153" lon="-7.2906875"><ele>460.0</ele><time>2026-04-25T14:35:11.056Z</time></trkpt><trkpt lat="42.4481668" lon="-7.2908071"><ele>460.0</ele><time>2026-04-25T14:35:12.054Z</time></trkpt><trkpt lat="42.4481486" lon="-7.2909239"><ele>460.0</ele><time>2026-04-25T14:35:13.057Z</time></trkpt><trkpt lat="42.4481814" lon="-7.2910903"><ele>460.0</ele><time>2026-04-25T14:35:14.052Z</time></trkpt><trkpt lat="42.4482541" lon="-7.2912875"><ele>465.33333333333337</ele><time>2026-04-25T14:35:15.059Z</time></trkpt><trkpt lat="42.4483311" lon="-7.2914992"><ele>470.66666666666663</ele><time>2026-04-25T14:35:16.053Z</time></trkpt><trkpt lat="42.4483977" lon="-7.2917299"><ele>476.0</ele><time>2026-04-25T14:35:17.056Z</time></trkpt><trkpt lat="42.4484296" lon="-7.2919522"><ele>476.0</ele><time>2026-04-25T14:35:18.049Z</time></trkpt><trkpt lat="42.4484483" lon="-7.2921974"><ele>476.0</ele><time>2026-04-25T14:35:19.053Z</time></trkpt><trkpt lat="42.4484111" lon="-7.2923655"><ele>476.0</ele><time>2026-04-25T14:35:20.059Z</time></trkpt><trkpt lat="42.4483547" lon="-7.2925228"><ele>476.0</ele><time>2026-04-25T14:35:21.057Z</time></trkpt><trkpt lat="42.4482582" lon="-7.292697"><ele>476.0</ele><time>2026-04-25T14:35:22.056Z</time></trkpt><trkpt lat="42.4481501" lon="-7.2928807"><ele>476.0</ele><time>2026-04-25T14:35:23.062Z</time></trkpt><trkpt lat="42.4480419" lon="-7.2930753"><ele>476.0</ele><time>2026-04-25T14:35:24.05Z</time></trkpt><trkpt lat="42.4479658" lon="-7.2933195"><ele>485.66666666666663</ele><time>2026-04-25T14:35:25.057Z</time></trkpt><trkpt lat="42.4479227" lon="-7.2935973"><ele>495.33333333333337</ele><time>2026-04-25T14:35:26.06Z</time></trkpt><trkpt lat="42.4478868" lon="-7.2938848"><ele>505.0</ele><time>2026-04-25T14:35:27.053Z</time></trkpt><trkpt lat="42.4478494" lon="-7.2941632"><ele>505.6666666666667</ele><time>2026-04-25T14:35:28.051Z</time></trkpt><trkpt lat="42.4478168" lon="-7.2944107"><ele>506.33333333333337</ele><time>2026-04-25T14:35:29.059Z</time></trkpt><trkpt lat="42.4478012" lon="-7.2946267"><ele>507.0</ele><time>2026-04-25T14:35:30.066Z</time></trkpt><trkpt lat="42.4478018" lon="-7.2947974"><ele>507.0</ele><time>2026-04-25T14:35:31.054Z</time></trkpt><trkpt lat="42.447786" lon="-7.294933"><ele>507.0</ele><time>2026-04-25T14:35:32.055Z</time></trkpt><trkpt lat="42.4477365" lon="-7.2950255"><ele>507.0</ele><time>2026-04-25T14:35:33.061Z</time></trkpt><trkpt lat="42.4476686" lon="-7.2950507"><ele>507.0</ele><time>2026-04-25T14:35:34.055Z</time></trkpt><trkpt lat="42.4475992" lon="-7.2950047"><ele>507.0</ele><time>2026-04-25T14:35:35.061Z</time></trkpt><trkpt lat="42.4475527" lon="-7.2948945"><ele>507.0</ele><time>2026-04-25T14:35:36.059Z</time></trkpt><trkpt lat="42.4475319" lon="-7.2947326"><ele>507.0</ele><time>2026-04-25T14:35:37.087Z</time></trkpt><trkpt lat="42.4475221" lon="-7.2945355"><ele>507.0</ele><time>2026-04-25T14:35:38.074Z</time></trkpt><trkpt lat="42.4475036" lon="-7.2943062"><ele>507.0</ele><time>2026-04-25T14:35:39.054Z</time></trkpt><trkpt lat="42.4474641" lon="-7.2940506"><ele>506.0</ele><time>2026-04-25T14:35:40.082Z</time></trkpt><trkpt lat="42.4473996" lon="-7.2937683"><ele>505.0</ele><time>2026-04-25T14:35:41.061Z</time></trkpt><trkpt lat="42.4473184" lon="-7.2934719"><ele>505.0</ele><time>2026-04-25T14:35:42.046Z</time></trkpt><trkpt lat="42.4472241" lon="-7.2931737"><ele>505.0</ele><time>2026-04-25T14:35:43.073Z</time></trkpt><trkpt lat="42.4471199" lon="-7.2928937"><ele>508.33333333333337</ele><time>2026-04-25T14:35:44.059Z</time></trkpt><trkpt lat="42.4470076" lon="-7.2926265"><ele>511.66666666666663</ele><time>2026-04-25T14:35:45.055Z</time></trkpt><trkpt lat="42.4469029" lon="-7.2923974"><ele>515.0</ele><time>2026-04-25T14:35:46.078Z</time></trkpt><trkpt lat="42.4468011" lon="-7.2921959"><ele>515.0</ele><time>2026-04-25T14:35:47.06Z</time></trkpt><trkpt lat="42.4467123" lon="-7.2920426"><ele>515.0</ele><time>2026-04-25T14:35:48.045Z</time></trkpt><trkpt lat="42.4466278" lon="-7.2919624"><ele>515.0</ele><time>2026-04-25T14:35:49.061Z</time></trkpt><trkpt lat="42.4465426" lon="-7.2919537"><ele>515.0</ele><time>2026-04-25T14:35:50.058Z</time></trkpt><trkpt lat="42.4464639" lon="-7.2919809"><ele>515.0</ele><time>2026-04-25T14:35:51.052Z</time></trkpt><trkpt lat="42.44639" lon="-7.2920959"><ele>515.0</ele><time>2026-04-25T14:35:52.047Z</time></trkpt><trkpt lat="42.4463365" lon="-7.2922536"><ele>515.0</ele><time>2026-04-25T14:35:53.046Z</time></trkpt><trkpt lat="42.4462855" lon="-7.2924401"><ele>515.0</ele><time>2026-04-25T14:35:54.065Z</time></trkpt><trkpt lat="42.4462435" lon="-7.2926585"><ele>515.0</ele><time>2026-04-25T14:35:55.064Z</time></trkpt><trkpt lat="42.4462122" lon="-7.2929142"><ele>521.3333333333333</ele><time>2026-04-25T14:35:56.057Z</time></trkpt><trkpt lat="42.4461884" lon="-7.2931743"><ele>527.6666666666666</ele><time>2026-04-25T14:35:57.046Z</time></trkpt><trkpt lat="42.4461878" lon="-7.2934391"><ele>534.0</ele><time>2026-04-25T14:35:58.057Z</time></trkpt><trkpt lat="42.4462258" lon="-7.293707"><ele>534.3333333333334</ele><time>2026-04-25T14:35:59.054Z</time></trkpt><trkpt lat="42.4462719" lon="-7.2939705"><ele>534.6666666666667</ele><time>2026-04-25T14:36:00.056Z</time></trkpt><trkpt lat="42.4463121" lon="-7.2941968"><ele>535.0</ele><time>2026-04-25T14:36:01.066Z</time></trkpt><trkpt lat="42.4463536" lon="-7.2943629"><ele>535.0</ele><time>2026-04-25T14:36:02.049Z</time></trkpt><trkpt lat="42.4463741" lon="-7.2944924"><ele>535.0</ele><time>2026-04-25T14:36:03.051Z</time></trkpt><trkpt lat="42.4463788" lon="-7.2946007"><ele>535.0</ele><time>2026-04-25T14:36:04.056Z</time></trkpt><trkpt lat="42.4463723" lon="-7.2947015"><ele>535.0</ele><time>2026-04-25T14:36:05.05Z</time></trkpt><trkpt lat="42.446357" lon="-7.2948122"><ele>535.0</ele><time>2026-04-25T14:36:06.056Z</time></trkpt><trkpt lat="42.4463274" lon="-7.2949281"><ele>535.0</ele><time>2026-04-25T14:36:07.049Z</time></trkpt><trkpt lat="42.446281" lon="-7.2950456"><ele>539.8</ele><time>2026-04-25T14:36:08.056Z</time></trkpt><trkpt lat="42.4462222" lon="-7.295169"><ele>544.6</ele><time>2026-04-25T14:36:09.054Z</time></trkpt><trkpt lat="42.4461524" lon="-7.2952949"><ele>549.4</ele><time>2026-04-25T14:36:10.07Z</time></trkpt><trkpt lat="42.4460898" lon="-7.2954024"><ele>554.2</ele><time>2026-04-25T14:36:11.063Z</time></trkpt><trkpt lat="42.4460403" lon="-7.2954757"><ele>559.0</ele><time>2026-04-25T14:36:12.056Z</time></trkpt><trkpt lat="42.4459823" lon="-7.2955519"><ele>559.0</ele><time>2026-04-25T14:36:14.054Z</time></trkpt><trkpt lat="42.446014" lon="-7.295458"><ele>559.0</ele><time>2026-04-25T14:36:23.074Z</time></trkpt><trkpt lat="42.4460801" lon="-7.2953642"><ele>559.0</ele><time>2026-04-25T14:36:24.052Z</time></trkpt><trkpt lat="42.4461521" lon="-7.2952341"><ele>559.0</ele><time>2026-04-25T14:36:25.048Z</time></trkpt><trkpt lat="42.4462191" lon="-7.2950992"><ele>559.0</ele><time>2026-04-25T14:36:26.064Z</time></trkpt><trkpt lat="42.4462766" lon="-7.2949656"><ele>553.25</ele><time>2026-04-25T14:36:27.06Z</time></trkpt><trkpt lat="42.4463181" lon="-7.2948283"><ele>547.5</ele><time>2026-04-25T14:36:28.047Z</time></trkpt><trkpt lat="42.4463366" lon="-7.2946822"><ele>541.75</ele><time>2026-04-25T14:36:29.046Z</time></trkpt><trkpt lat="42.4463333" lon="-7.294525"><ele>536.0</ele><time>2026-04-25T14:36:30.059Z</time></trkpt><trkpt lat="42.446315" lon="-7.2943558"><ele>535.5</ele><time>2026-04-25T14:36:31.054Z</time></trkpt><trkpt lat="42.4462902" lon="-7.294176"><ele>535.0</ele><time>2026-04-25T14:36:32.055Z</time></trkpt><trkpt lat="42.4462587" lon="-7.2939875"><ele>534.5</ele><time>2026-04-25T14:36:33.064Z</time></trkpt><trkpt lat="42.446225" lon="-7.2938062"><ele>534.0</ele><time>2026-04-25T14:36:34.056Z</time></trkpt><trkpt lat="42.4461967" lon="-7.2936329"><ele>534.0</ele><time>2026-04-25T14:36:35.051Z</time></trkpt><trkpt lat="42.4461786" lon="-7.2934642"><ele>534.0</ele><time>2026-04-25T14:36:36.052Z</time></trkpt><trkpt lat="42.4461744" lon="-7.2933033"><ele>534.0</ele><time>2026-04-25T14:36:37.064Z</time></trkpt><trkpt lat="42.4461853" lon="-7.2931424"><ele>534.0</ele><time>2026-04-25T14:36:38.056Z</time></trkpt><trkpt lat="42.4462053" lon="-7.2929786"><ele>532.0</ele><time>2026-04-25T14:36:39.056Z</time></trkpt><trkpt lat="42.4462292" lon="-7.292825"><ele>530.0</ele><time>2026-04-25T14:36:40.055Z</time></trkpt><trkpt lat="42.4462516" lon="-7.2926782"><ele>528.0</ele><time>2026-04-25T14:36:41.056Z</time></trkpt><trkpt lat="42.4462725" lon="-7.2925327"><ele>526.0</ele><time>2026-04-25T14:36:42.062Z</time></trkpt><trkpt lat="42.4462979" lon="-7.2923953"><ele>524.0</ele><time>2026-04-25T14:36:43.053Z</time></trkpt><trkpt lat="42.4463296" lon="-7.292278"><ele>522.7142857142858</ele><time>2026-04-25T14:36:44.049Z</time></trkpt><trkpt lat="42.4463666" lon="-7.2921789"><ele>521.4285714285714</ele><time>2026-04-25T14:36:45.05Z</time></trkpt><trkpt lat="42.446406" lon="-7.2920916"><ele>520.1428571428571</ele><time>2026-04-25T14:36:46.052Z</time></trkpt><trkpt lat="42.4464447" lon="-7.2920172"><ele>518.8571428571429</ele><time>2026-04-25T14:36:47.061Z</time></trkpt><trkpt lat="42.446496" lon="-7.2919248"><ele>517.5714285714286</ele><time>2026-04-25T14:36:49.056Z</time></trkpt><trkpt lat="42.4464334" lon="-7.2919092"><ele>516.2857142857143</ele><time>2026-04-25T14:36:53.055Z</time></trkpt><trkpt lat="42.4463925" lon="-7.2919842"><ele>515.0</ele><time>2026-04-25T14:36:55.056Z</time></trkpt><trkpt lat="42.4463275" lon="-7.2920828"><ele>514.0</ele><time>2026-04-25T14:36:57.058Z</time></trkpt><trkpt lat="42.4462403" lon="-7.2921834"><ele>513.0</ele><time>2026-04-25T14:36:59.064Z</time></trkpt><trkpt lat="42.4461408" lon="-7.2922919"><ele>512.0</ele><time>2026-04-25T14:37:01.046Z</time></trkpt><trkpt lat="42.4460895" lon="-7.2923431"><ele>511.0</ele><time>2026-04-25T14:37:02.052Z</time></trkpt><trkpt lat="42.4459957" lon="-7.2924337"><ele>510.0</ele><time>2026-04-25T14:37:04.053Z</time></trkpt><trkpt lat="42.4459144" lon="-7.2925294"><ele>510.0</ele><time>2026-04-25T14:37:06.058Z</time></trkpt><trkpt lat="42.4458306" lon="-7.292617"><ele>510.0</ele><time>2026-04-25T14:37:08.058Z</time></trkpt><trkpt lat="42.4457744" lon="-7.2926912"><ele>510.0</ele><time>2026-04-25T14:37:09.061Z</time></trkpt><trkpt lat="42.4457046" lon="-7.2927911"><ele>510.0</ele><time>2026-04-25T14:37:10.066Z</time></trkpt><trkpt lat="42.445625" lon="-7.2928873"><ele>510.0</ele><time>2026-04-25T14:37:11.045Z</time></trkpt><trkpt lat="42.4455433" lon="-7.2929814"><ele>511.75</ele><time>2026-04-25T14:37:12.049Z</time></trkpt><trkpt lat="42.4454416" lon="-7.2930754"><ele>513.5</ele><time>2026-04-25T14:37:13.051Z</time></trkpt><trkpt lat="42.4453401" lon="-7.2931613"><ele>515.25</ele><time>2026-04-25T14:37:14.052Z</time></trkpt><trkpt lat="42.4452464" lon="-7.2932456"><ele>517.0</ele><time>2026-04-25T14:37:15.055Z</time></trkpt><trkpt lat="42.4451565" lon="-7.2933237"><ele>517.0</ele><time>2026-04-25T14:37:16.057Z</time></trkpt><trkpt lat="42.4450738" lon="-7.2933822"><ele>517.0</ele><time>2026-04-25T14:37:17.064Z</time></trkpt><trkpt lat="42.4449986" lon="-7.2934147"><ele>517.0</ele><time>2026-04-25T14:37:18.053Z</time></trkpt><trkpt lat="42.4449308" lon="-7.2934193"><ele>517.0</ele><time>2026-04-25T14:37:19.052Z</time></trkpt><trkpt lat="42.4448489" lon="-7.2933834"><ele>517.0</ele><time>2026-04-25T14:37:20.053Z</time></trkpt><trkpt lat="42.4447469" lon="-7.2933339"><ele>517.0</ele><time>2026-04-25T14:37:21.048Z</time></trkpt><trkpt lat="42.4446316" lon="-7.2932755"><ele>517.0</ele><time>2026-04-25T14:37:22.056Z</time></trkpt><trkpt lat="42.4445239" lon="-7.2932249"><ele>517.0</ele><time>2026-04-25T14:37:23.047Z</time></trkpt><trkpt lat="42.4444153" lon="-7.2931934"><ele>517.0</ele><time>2026-04-25T14:37:24.049Z</time></trkpt><trkpt lat="42.4442954" lon="-7.2931878"><ele>517.0</ele><time>2026-04-25T14:37:25.06Z</time></trkpt><trkpt lat="42.4441632" lon="-7.2932048"><ele>517.0</ele><time>2026-04-25T14:37:26.052Z</time></trkpt><trkpt lat="42.4440345" lon="-7.2932299"><ele>517.0</ele><time>2026-04-25T14:37:27.055Z</time></trkpt><trkpt lat="42.4439087" lon="-7.2932592"><ele>517.0</ele><time>2026-04-25T14:37:28.055Z</time></trkpt><trkpt lat="42.4437916" lon="-7.293291"><ele>517.0</ele><time>2026-04-25T14:37:29.055Z</time></trkpt><trkpt lat="42.4436849" lon="-7.2933318"><ele>515.75</ele><time>2026-04-25T14:37:30.048Z</time></trkpt><trkpt lat="42.4435643" lon="-7.2933981"><ele>514.5</ele><time>2026-04-25T14:37:31.047Z</time></trkpt><trkpt lat="42.4434438" lon="-7.2934779"><ele>513.25</ele><time>2026-04-25T14:37:32.047Z</time></trkpt><trkpt lat="42.443319" lon="-7.2935418"><ele>512.0</ele><time>2026-04-25T14:37:33.048Z</time></trkpt><trkpt lat="42.4431884" lon="-7.2935975"><ele>512.0</ele><time>2026-04-25T14:37:34.049Z</time></trkpt><trkpt lat="42.4430605" lon="-7.2936515"><ele>512.0</ele><time>2026-04-25T14:37:35.049Z</time></trkpt><trkpt lat="42.4429403" lon="-7.2937119"><ele>512.0</ele><time>2026-04-25T14:37:36.05Z</time></trkpt><trkpt lat="42.4428517" lon="-7.2937886"><ele>512.0</ele><time>2026-04-25T14:37:37.065Z</time></trkpt><trkpt lat="42.442752" lon="-7.2938856"><ele>516.4</ele><time>2026-04-25T14:37:38.053Z</time></trkpt><trkpt lat="42.4426691" lon="-7.2939746"><ele>520.8000000000001</ele><time>2026-04-25T14:37:39.046Z</time></trkpt><trkpt lat="42.4426032" lon="-7.2940526"><ele>525.2</ele><time>2026-04-25T14:37:40.052Z</time></trkpt><trkpt lat="42.4425113" lon="-7.2941082"><ele>529.6</ele><time>2026-04-25T14:37:42.045Z</time></trkpt><trkpt lat="42.4424226" lon="-7.2940406"><ele>534.0</ele><time>2026-04-25T14:37:44.052Z</time></trkpt><trkpt lat="42.442373" lon="-7.293973"><ele>533.0</ele><time>2026-04-25T14:37:45.051Z</time></trkpt><trkpt lat="42.4423009" lon="-7.2938403"><ele>532.0</ele><time>2026-04-25T14:37:47.049Z</time></trkpt><trkpt lat="42.4423051" lon="-7.2937264"><ele>531.0</ele><time>2026-04-25T14:37:48.048Z</time></trkpt><trkpt lat="42.4423489" lon="-7.293624"><ele>530.0</ele><time>2026-04-25T14:37:49.052Z</time></trkpt><trkpt lat="42.4424059" lon="-7.2935008"><ele>529.0</ele><time>2026-04-25T14:37:50.047Z</time></trkpt><trkpt lat="42.4424649" lon="-7.2933605"><ele>529.0</ele><time>2026-04-25T14:37:51.052Z</time></trkpt><trkpt lat="42.4425331" lon="-7.2932106"><ele>529.0</ele><time>2026-04-25T14:37:52.049Z</time></trkpt><trkpt lat="42.4426131" lon="-7.2930594"><ele>529.0</ele><time>2026-04-25T14:37:53.052Z</time></trkpt><trkpt lat="42.442692" lon="-7.2929057"><ele>529.0</ele><time>2026-04-25T14:37:54.056Z</time></trkpt><trkpt lat="42.4427815" lon="-7.2927491"><ele>531.6666666666667</ele><time>2026-04-25T14:37:55.053Z</time></trkpt><trkpt lat="42.4428595" lon="-7.292571"><ele>534.3333333333334</ele><time>2026-04-25T14:37:56.05Z</time></trkpt><trkpt lat="42.4429218" lon="-7.292391"><ele>537.0</ele><time>2026-04-25T14:37:57.052Z</time></trkpt><trkpt lat="42.4429896" lon="-7.2922034"><ele>537.0</ele><time>2026-04-25T14:37:58.053Z</time></trkpt><trkpt lat="42.4430563" lon="-7.2920194"><ele>537.0</ele><time>2026-04-25T14:37:59.058Z</time></trkpt><trkpt lat="42.4431289" lon="-7.29185"><ele>537.0</ele><time>2026-04-25T14:38:00.049Z</time></trkpt><trkpt lat="42.4432022" lon="-7.291686"><ele>537.0</ele><time>2026-04-25T14:38:01.052Z</time></trkpt><trkpt lat="42.4432512" lon="-7.2915495"><ele>539.5</ele><time>2026-04-25T14:38:02.056Z</time></trkpt><trkpt lat="42.4432878" lon="-7.2914107"><ele>542.0</ele><time>2026-04-25T14:38:03.059Z</time></trkpt><trkpt lat="42.4433184" lon="-7.2912678"><ele>544.5</ele><time>2026-04-25T14:38:04.057Z</time></trkpt><trkpt lat="42.4433114" lon="-7.2910969"><ele>547.0</ele><time>2026-04-25T14:38:05.058Z</time></trkpt><trkpt lat="42.4432922" lon="-7.2909409"><ele>547.0</ele><time>2026-04-25T14:38:06.059Z</time></trkpt><trkpt lat="42.4432629" lon="-7.2908004"><ele>547.0</ele><time>2026-04-25T14:38:07.053Z</time></trkpt><trkpt lat="42.4432278" lon="-7.2906969"><ele>547.0</ele><time>2026-04-25T14:38:08.05Z</time></trkpt><trkpt lat="42.4431698" lon="-7.2906136"><ele>547.0</ele><time>2026-04-25T14:38:09.053Z</time></trkpt><trkpt lat="42.4431054" lon="-7.2905277"><ele>547.0</ele><time>2026-04-25T14:38:10.05Z</time></trkpt><trkpt lat="42.4430086" lon="-7.2904527"><ele>550.75</ele><time>2026-04-25T14:38:11.051Z</time></trkpt><trkpt lat="42.4429025" lon="-7.2903964"><ele>554.5</ele><time>2026-04-25T14:38:12.053Z</time></trkpt><trkpt lat="42.4427952" lon="-7.2903457"><ele>558.25</ele><time>2026-04-25T14:38:13.057Z</time></trkpt><trkpt lat="42.442665" lon="-7.2903347"><ele>562.0</ele><time>2026-04-25T14:38:14.049Z</time></trkpt><trkpt lat="42.4425379" lon="-7.2903219"><ele>562.0</ele><time>2026-04-25T14:38:15.063Z</time></trkpt><trkpt lat="42.442423" lon="-7.2903126"><ele>562.0</ele><time>2026-04-25T14:38:16.046Z</time></trkpt><trkpt lat="42.4423465" lon="-7.2903139"><ele>562.0</ele><time>2026-04-25T14:38:17.059Z</time></trkpt><trkpt lat="42.4422477" lon="-7.2902903"><ele>562.0</ele><time>2026-04-25T14:38:19.058Z</time></trkpt><trkpt lat="42.4421758" lon="-7.290157"><ele>562.0</ele><time>2026-04-25T14:38:21.061Z</time></trkpt><trkpt lat="42.4421621" lon="-7.2900265"><ele>562.0</ele><time>2026-04-25T14:38:22.054Z</time></trkpt><trkpt lat="42.4421435" lon="-7.2898548"><ele>562.0</ele><time>2026-04-25T14:38:23.057Z</time></trkpt><trkpt lat="42.442136" lon="-7.2896404"><ele>562.0</ele><time>2026-04-25T14:38:24.056Z</time></trkpt><trkpt lat="42.4421327" lon="-7.2894168"><ele>560.5</ele><time>2026-04-25T14:38:25.047Z</time></trkpt><trkpt lat="42.4421347" lon="-7.2892209"><ele>559.0</ele><time>2026-04-25T14:38:26.056Z</time></trkpt><trkpt lat="42.4421335" lon="-7.2890449"><ele>557.5</ele><time>2026-04-25T14:38:27.065Z</time></trkpt><trkpt lat="42.4421395" lon="-7.2888875"><ele>556.0</ele><time>2026-04-25T14:38:28.055Z</time></trkpt><trkpt lat="42.4421401" lon="-7.288745"><ele>562.0</ele><time>2026-04-25T14:38:29.054Z</time></trkpt><trkpt lat="42.4421301" lon="-7.2886228"><ele>568.0</ele><time>2026-04-25T14:38:30.059Z</time></trkpt><trkpt lat="42.4421212" lon="-7.288514"><ele>574.0</ele><time>2026-04-25T14:38:31.054Z</time></trkpt><trkpt lat="42.4420797" lon="-7.2884139"><ele>580.0</ele><time>2026-04-25T14:38:32.057Z</time></trkpt><trkpt lat="42.4420316" lon="-7.2882915"><ele>586.0</ele><time>2026-04-25T14:38:33.051Z</time></trkpt><trkpt lat="42.4419528" lon="-7.2881609"><ele>579.75</ele><time>2026-04-25T14:38:34.05Z</time></trkpt><trkpt lat="42.441843" lon="-7.2880231"><ele>573.5</ele><time>2026-04-25T14:38:35.053Z</time></trkpt><trkpt lat="42.4417387" lon="-7.2878887"><ele>567.25</ele><time>2026-04-25T14:38:36.061Z</time></trkpt><trkpt lat="42.4416404" lon="-7.2877623"><ele>561.0</ele><time>2026-04-25T14:38:37.058Z</time></trkpt><trkpt lat="42.4415187" lon="-7.2876318"><ele>561.0</ele><time>2026-04-25T14:38:38.059Z</time></trkpt><trkpt lat="42.4413959" lon="-7.2875175"><ele>561.0</ele><time>2026-04-25T14:38:39.057Z</time></trkpt><trkpt lat="42.4412561" lon="-7.2874067"><ele>561.0</ele><time>2026-04-25T14:38:40.05Z</time></trkpt><trkpt lat="42.441124" lon="-7.2872958"><ele>561.25</ele><time>2026-04-25T14:38:41.049Z</time></trkpt><trkpt lat="42.4410052" lon="-7.2872071"><ele>561.5</ele><time>2026-04-25T14:38:42.047Z</time></trkpt><trkpt lat="42.4408838" lon="-7.2871297"><ele>561.75</ele><time>2026-04-25T14:38:43.057Z</time></trkpt><trkpt lat="42.4407497" lon="-7.2870493"><ele>562.0</ele><time>2026-04-25T14:38:44.054Z</time></trkpt><trkpt lat="42.4406221" lon="-7.2869768"><ele>562.0</ele><time>2026-04-25T14:38:45.048Z</time></trkpt><trkpt lat="42.4405082" lon="-7.2869138"><ele>562.0</ele><time>2026-04-25T14:38:46.053Z</time></trkpt><trkpt lat="42.4404134" lon="-7.2868578"><ele>562.0</ele><time>2026-04-25T14:38:47.057Z</time></trkpt><trkpt lat="42.4403404" lon="-7.2868169"><ele>562.0</ele><time>2026-04-25T14:38:48.057Z</time></trkpt><trkpt lat="42.4402277" lon="-7.2868121"><ele>562.0</ele><time>2026-04-25T14:38:50.054Z</time></trkpt><trkpt lat="42.4401143" lon="-7.2869024"><ele>565.2</ele><time>2026-04-25T14:38:52.054Z</time></trkpt><trkpt lat="42.4400636" lon="-7.2869914"><ele>568.4000000000001</ele><time>2026-04-25T14:38:53.058Z</time></trkpt><trkpt lat="42.4400115" lon="-7.2870745"><ele>571.5999999999999</ele><time>2026-04-25T14:38:54.057Z</time></trkpt><trkpt lat="42.4398858" lon="-7.2870963"><ele>574.8</ele><time>2026-04-25T14:38:56.05Z</time></trkpt><trkpt lat="42.4398158" lon="-7.2870479"><ele>578.0</ele><time>2026-04-25T14:38:57.054Z</time></trkpt><trkpt lat="42.4397546" lon="-7.2869399"><ele>578.0</ele><time>2026-04-25T14:38:58.051Z</time></trkpt><trkpt lat="42.4396913" lon="-7.2868165"><ele>578.0</ele><time>2026-04-25T14:38:59.046Z</time></trkpt><trkpt lat="42.4396012" lon="-7.2867061"><ele>578.0</ele><time>2026-04-25T14:39:00.052Z</time></trkpt><trkpt lat="42.4394883" lon="-7.2865876"><ele>578.0</ele><time>2026-04-25T14:39:01.046Z</time></trkpt><trkpt lat="42.4393559" lon="-7.2864841"><ele>578.75</ele><time>2026-04-25T14:39:02.049Z</time></trkpt><trkpt lat="42.4392217" lon="-7.2864017"><ele>579.5</ele><time>2026-04-25T14:39:03.054Z</time></trkpt><trkpt lat="42.4391003" lon="-7.2863432"><ele>580.25</ele><time>2026-04-25T14:39:04.049Z</time></trkpt><trkpt lat="42.4389787" lon="-7.2863052"><ele>581.0</ele><time>2026-04-25T14:39:05.05Z</time></trkpt><trkpt lat="42.4388362" lon="-7.2862974"><ele>582.6666666666666</ele><time>2026-04-25T14:39:06.057Z</time></trkpt><trkpt lat="42.4386808" lon="-7.2863094"><ele>584.3333333333334</ele><time>2026-04-25T14:39:07.043Z</time></trkpt><trkpt lat="42.438523" lon="-7.2863289"><ele>586.0</ele><time>2026-04-25T14:39:08.054Z</time></trkpt><trkpt lat="42.4383563" lon="-7.2863711"><ele>586.0</ele><time>2026-04-25T14:39:09.056Z</time></trkpt><trkpt lat="42.438197" lon="-7.2864042"><ele>586.0</ele><time>2026-04-25T14:39:10.047Z</time></trkpt><trkpt lat="42.4380636" lon="-7.2864444"><ele>586.0</ele><time>2026-04-25T14:39:11.052Z</time></trkpt><trkpt lat="42.4379417" lon="-7.2864674"><ele>586.0</ele><time>2026-04-25T14:39:12.041Z</time></trkpt><trkpt lat="42.4378454" lon="-7.2864721"><ele>589.0</ele><time>2026-04-25T14:39:13.046Z</time></trkpt><trkpt lat="42.4377692" lon="-7.28646"><ele>592.0</ele><time>2026-04-25T14:39:14.053Z</time></trkpt><trkpt lat="42.4376573" lon="-7.286403"><ele>595.0</ele><time>2026-04-25T14:39:16.049Z</time></trkpt><trkpt lat="42.4376898" lon="-7.2862259"><ele>598.0</ele><time>2026-04-25T14:39:18.056Z</time></trkpt><trkpt lat="42.4377363" lon="-7.2861038"><ele>601.0</ele><time>2026-04-25T14:39:19.05Z</time></trkpt><trkpt lat="42.437736" lon="-7.2859776"><ele>601.0</ele><time>2026-04-25T14:39:20.061Z</time></trkpt><trkpt lat="42.4377218" lon="-7.28586"><ele>601.0</ele><time>2026-04-25T14:39:21.059Z</time></trkpt><trkpt lat="42.4377043" lon="-7.2857483"><ele>601.0</ele><time>2026-04-25T14:39:22.051Z</time></trkpt><trkpt lat="42.4376425" lon="-7.2856683"><ele>601.0</ele><time>2026-04-25T14:39:23.052Z</time></trkpt><trkpt lat="42.4375747" lon="-7.2856181"><ele>601.0</ele><time>2026-04-25T14:39:24.049Z</time></trkpt><trkpt lat="42.4374875" lon="-7.285577"><ele>601.0</ele><time>2026-04-25T14:39:25.06Z</time></trkpt><trkpt lat="42.4374056" lon="-7.2855529"><ele>599.0</ele><time>2026-04-25T14:39:26.047Z</time></trkpt><trkpt lat="42.4373382" lon="-7.2855489"><ele>597.0</ele><time>2026-04-25T14:39:27.047Z</time></trkpt><trkpt lat="42.4372789" lon="-7.2854499"><ele>595.0</ele><time>2026-04-25T14:39:29.051Z</time></trkpt><trkpt lat="42.4372863" lon="-7.2853554"><ele>593.0</ele><time>2026-04-25T14:39:30.062Z</time></trkpt><trkpt lat="42.4372881" lon="-7.2851779"><ele>591.0</ele><time>2026-04-25T14:39:31.052Z</time></trkpt><trkpt lat="42.4372707" lon="-7.2850459"><ele>591.0</ele><time>2026-04-25T14:39:32.062Z</time></trkpt><trkpt lat="42.4372284" lon="-7.2849241"><ele>591.0</ele><time>2026-04-25T14:39:33.051Z</time></trkpt><trkpt lat="42.4371597" lon="-7.2848158"><ele>591.0</ele><time>2026-04-25T14:39:34.053Z</time></trkpt><trkpt lat="42.4370548" lon="-7.2846965"><ele>591.0</ele><time>2026-04-25T14:39:35.052Z</time></trkpt><trkpt lat="42.4369474" lon="-7.2846013"><ele>591.6666666666666</ele><time>2026-04-25T14:39:36.056Z</time></trkpt><trkpt lat="42.4368219" lon="-7.2845296"><ele>592.3333333333333</ele><time>2026-04-25T14:39:37.053Z</time></trkpt><trkpt lat="42.4366733" lon="-7.2844711"><ele>593.0</ele><time>2026-04-25T14:39:38.051Z</time></trkpt><trkpt lat="42.4365001" lon="-7.2844113"><ele>598.6666666666666</ele><time>2026-04-25T14:39:39.058Z</time></trkpt><trkpt lat="42.4363023" lon="-7.284337"><ele>604.3333333333334</ele><time>2026-04-25T14:39:40.058Z</time></trkpt><trkpt lat="42.4360912" lon="-7.2842498"><ele>610.0</ele><time>2026-04-25T14:39:41.055Z</time></trkpt><trkpt lat="42.4358762" lon="-7.2841567"><ele>610.0</ele><time>2026-04-25T14:39:42.052Z</time></trkpt><trkpt lat="42.4356764" lon="-7.2840698"><ele>610.0</ele><time>2026-04-25T14:39:43.056Z</time></trkpt><trkpt lat="42.4354792" lon="-7.2839876"><ele>610.0</ele><time>2026-04-25T14:39:44.053Z</time></trkpt><trkpt lat="42.4352963" lon="-7.2839137"><ele>604.3333333333334</ele><time>2026-04-25T14:39:45.046Z</time></trkpt><trkpt lat="42.4351246" lon="-7.2838444"><ele>598.6666666666666</ele><time>2026-04-25T14:39:46.053Z</time></trkpt><trkpt lat="42.4349684" lon="-7.2837704"><ele>593.0</ele><time>2026-04-25T14:39:47.056Z</time></trkpt><trkpt lat="42.4348115" lon="-7.283679"><ele>593.0</ele><time>2026-04-25T14:39:48.06Z</time></trkpt><trkpt lat="42.4346705" lon="-7.2835829"><ele>593.0</ele><time>2026-04-25T14:39:49.064Z</time></trkpt><trkpt lat="42.4345526" lon="-7.2834913"><ele>593.0</ele><time>2026-04-25T14:39:50.06Z</time></trkpt><trkpt lat="42.4344545" lon="-7.2834181"><ele>593.0</ele><time>2026-04-25T14:39:51.056Z</time></trkpt><trkpt lat="42.4343604" lon="-7.2833693"><ele>595.6</ele><time>2026-04-25T14:39:52.051Z</time></trkpt><trkpt lat="42.4342524" lon="-7.2833427"><ele>598.1999999999999</ele><time>2026-04-25T14:39:53.057Z</time></trkpt><trkpt lat="42.4341346" lon="-7.2833348"><ele>600.8</ele><time>2026-04-25T14:39:54.062Z</time></trkpt><trkpt lat="42.4340258" lon="-7.2833431"><ele>603.4</ele><time>2026-04-25T14:39:55.054Z</time></trkpt><trkpt lat="42.4339166" lon="-7.2833668"><ele>606.0</ele><time>2026-04-25T14:39:56.045Z</time></trkpt><trkpt lat="42.4338213" lon="-7.2833996"><ele>603.0</ele><time>2026-04-25T14:39:57.055Z</time></trkpt><trkpt lat="42.4337408" lon="-7.283471"><ele>600.0</ele><time>2026-04-25T14:39:58.056Z</time></trkpt><trkpt lat="42.4336467" lon="-7.2835532"><ele>597.0</ele><time>2026-04-25T14:39:59.054Z</time></trkpt><trkpt lat="42.4335545" lon="-7.2837058"><ele>594.0</ele><time>2026-04-25T14:40:00.051Z</time></trkpt><trkpt lat="42.433462" lon="-7.2838697"><ele>598.6666666666666</ele><time>2026-04-25T14:40:01.047Z</time></trkpt><trkpt lat="42.4333781" lon="-7.2840379"><ele>603.3333333333333</ele><time>2026-04-25T14:40:02.057Z</time></trkpt><trkpt lat="42.433312" lon="-7.2842496"><ele>608.0</ele><time>2026-04-25T14:40:03.053Z</time></trkpt><trkpt lat="42.4332547" lon="-7.2844695"><ele>608.0</ele><time>2026-04-25T14:40:04.058Z</time></trkpt><trkpt lat="42.4332169" lon="-7.2846638"><ele>608.0</ele><time>2026-04-25T14:40:05.051Z</time></trkpt><trkpt lat="42.4331901" lon="-7.2848168"><ele>608.0</ele><time>2026-04-25T14:40:06.049Z</time></trkpt><trkpt lat="42.4331707" lon="-7.2849372"><ele>608.0</ele><time>2026-04-25T14:40:07.046Z</time></trkpt><trkpt lat="42.4331488" lon="-7.2850264"><ele>608.0</ele><time>2026-04-25T14:40:08.047Z</time></trkpt><trkpt lat="42.4330689" lon="-7.2850947"><ele>611.25</ele><time>2026-04-25T14:40:10.05Z</time></trkpt><trkpt lat="42.4329558" lon="-7.2850525"><ele>614.5</ele><time>2026-04-25T14:40:12.052Z</time></trkpt><trkpt lat="42.4328926" lon="-7.2849419"><ele>617.75</ele><time>2026-04-25T14:40:13.05Z</time></trkpt><trkpt lat="42.4328388" lon="-7.284799"><ele>621.0</ele><time>2026-04-25T14:40:14.047Z</time></trkpt><trkpt lat="42.4327914" lon="-7.2846132"><ele>621.0</ele><time>2026-04-25T14:40:15.057Z</time></trkpt><trkpt lat="42.4327481" lon="-7.2844236"><ele>621.0</ele><time>2026-04-25T14:40:16.049Z</time></trkpt><trkpt lat="42.4327173" lon="-7.2842589"><ele>621.0</ele><time>2026-04-25T14:40:17.05Z</time></trkpt><trkpt lat="42.4326937" lon="-7.2841144"><ele>621.0</ele><time>2026-04-25T14:40:18.048Z</time></trkpt><trkpt lat="42.4326571" lon="-7.2840182"><ele>621.0</ele><time>2026-04-25T14:40:19.05Z</time></trkpt><trkpt lat="42.4325996" lon="-7.2839616"><ele>621.0</ele><time>2026-04-25T14:40:20.057Z</time></trkpt><trkpt lat="42.4325164" lon="-7.2839301"><ele>621.0</ele><time>2026-04-25T14:40:21.05Z</time></trkpt><trkpt lat="42.4323931" lon="-7.283906"><ele>621.0</ele><time>2026-04-25T14:40:22.051Z</time></trkpt><trkpt lat="42.432243" lon="-7.2838645"><ele>621.0</ele><time>2026-04-25T14:40:23.057Z</time></trkpt><trkpt lat="42.4320888" lon="-7.2837992"><ele>621.0</ele><time>2026-04-25T14:40:24.057Z</time></trkpt><trkpt lat="42.4319402" lon="-7.2837009"><ele>621.0</ele><time>2026-04-25T14:40:25.058Z</time></trkpt><trkpt lat="42.4317899" lon="-7.283551"><ele>621.0</ele><time>2026-04-25T14:40:26.057Z</time></trkpt><trkpt lat="42.431655" lon="-7.2834078"><ele>621.0</ele><time>2026-04-25T14:40:27.057Z</time></trkpt><trkpt lat="42.4315232" lon="-7.2832836"><ele>621.0</ele><time>2026-04-25T14:40:28.057Z</time></trkpt><trkpt lat="42.4314051" lon="-7.2831899"><ele>621.0</ele><time>2026-04-25T14:40:29.064Z</time></trkpt><trkpt lat="42.4313117" lon="-7.2831308"><ele>621.0</ele><time>2026-04-25T14:40:30.058Z</time></trkpt><trkpt lat="42.4312322" lon="-7.2830992"><ele>623.5</ele><time>2026-04-25T14:40:31.051Z</time></trkpt><trkpt lat="42.431129" lon="-7.283122"><ele>626.0</ele><time>2026-04-25T14:40:32.059Z</time></trkpt><trkpt lat="42.4309993" lon="-7.2831639"><ele>628.5</ele><time>2026-04-25T14:40:33.056Z</time></trkpt><trkpt lat="42.4308822" lon="-7.2832163"><ele>631.0</ele><time>2026-04-25T14:40:34.055Z</time></trkpt><trkpt lat="42.4307577" lon="-7.2832891"><ele>631.0</ele><time>2026-04-25T14:40:35.048Z</time></trkpt><trkpt lat="42.4306339" lon="-7.2833669"><ele>631.0</ele><time>2026-04-25T14:40:36.053Z</time></trkpt><trkpt lat="42.4305153" lon="-7.2834306"><ele>631.0</ele><time>2026-04-25T14:40:37.057Z</time></trkpt><trkpt lat="42.4304277" lon="-7.2834739"><ele>631.0</ele><time>2026-04-25T14:40:38.053Z</time></trkpt><trkpt lat="42.430359" lon="-7.2835201"><ele>631.0</ele><time>2026-04-25T14:40:39.053Z</time></trkpt><trkpt lat="42.4302663" lon="-7.2835404"><ele>634.0</ele><time>2026-04-25T14:40:40.046Z</time></trkpt><trkpt lat="42.4301948" lon="-7.2835194"><ele>637.0</ele><time>2026-04-25T14:40:41.052Z</time></trkpt><trkpt lat="42.4301114" lon="-7.2834477"><ele>640.0</ele><time>2026-04-25T14:40:43.05Z</time></trkpt><trkpt lat="42.4301732" lon="-7.283278"><ele>643.0</ele><time>2026-04-25T14:40:45.058Z</time></trkpt><trkpt lat="42.4302688" lon="-7.2831735"><ele>646.0</ele><time>2026-04-25T14:40:46.051Z</time></trkpt><trkpt lat="42.4303586" lon="-7.2830488"><ele>642.5</ele><time>2026-04-25T14:40:47.057Z</time></trkpt><trkpt lat="42.430422" lon="-7.2829107"><ele>639.0</ele><time>2026-04-25T14:40:48.05Z</time></trkpt><trkpt lat="42.430481" lon="-7.2827324"><ele>635.5</ele><time>2026-04-25T14:40:49.055Z</time></trkpt><trkpt lat="42.4305206" lon="-7.2825587"><ele>632.0</ele><time>2026-04-25T14:40:50.058Z</time></trkpt><trkpt lat="42.4306216" lon="-7.2824118"><ele>641.3333333333333</ele><time>2026-04-25T14:40:51.046Z</time></trkpt><trkpt lat="42.4307476" lon="-7.2822647"><ele>650.6666666666666</ele><time>2026-04-25T14:40:52.057Z</time></trkpt><trkpt lat="42.4308733" lon="-7.2821326"><ele>660.0</ele><time>2026-04-25T14:40:53.051Z</time></trkpt><trkpt lat="42.4310181" lon="-7.2820297"><ele>660.0</ele><time>2026-04-25T14:40:54.052Z</time></trkpt><trkpt lat="42.4311807" lon="-7.2819646"><ele>660.0</ele><time>2026-04-25T14:40:55.045Z</time></trkpt><trkpt lat="42.4313602" lon="-7.2819233"><ele>660.0</ele><time>2026-04-25T14:40:56.061Z</time></trkpt><trkpt lat="42.4315385" lon="-7.2818914"><ele>656.5</ele><time>2026-04-25T14:40:57.053Z</time></trkpt><trkpt lat="42.4316947" lon="-7.2818589"><ele>653.0</ele><time>2026-04-25T14:40:58.059Z</time></trkpt><trkpt lat="42.4318284" lon="-7.28182"><ele>649.5</ele><time>2026-04-25T14:40:59.052Z</time></trkpt><trkpt lat="42.4319665" lon="-7.2817778"><ele>646.0</ele><time>2026-04-25T14:41:00.05Z</time></trkpt><trkpt lat="42.432106" lon="-7.2816953"><ele>640.6666666666667</ele><time>2026-04-25T14:41:01.056Z</time></trkpt><trkpt lat="42.4322524" lon="-7.2815811"><ele>635.3333333333334</ele><time>2026-04-25T14:41:02.052Z</time></trkpt><trkpt lat="42.4324268" lon="-7.2814477"><ele>630.0</ele><time>2026-04-25T14:41:03.065Z</time></trkpt><trkpt lat="42.4326188" lon="-7.2812923"><ele>631.6666666666666</ele><time>2026-04-25T14:41:04.045Z</time></trkpt><trkpt lat="42.4328012" lon="-7.2811489"><ele>633.3333333333333</ele><time>2026-04-25T14:41:05.046Z</time></trkpt><trkpt lat="42.4329639" lon="-7.2810226"><ele>635.0</ele><time>2026-04-25T14:41:06.056Z</time></trkpt><trkpt lat="42.4331054" lon="-7.2809036"><ele>635.0</ele><time>2026-04-25T14:41:07.057Z</time></trkpt><trkpt lat="42.433244" lon="-7.2807823"><ele>635.0</ele><time>2026-04-25T14:41:08.046Z</time></trkpt><trkpt lat="42.4334039" lon="-7.2806549"><ele>635.0</ele><time>2026-04-25T14:41:09.058Z</time></trkpt><trkpt lat="42.4335688" lon="-7.2805477"><ele>633.75</ele><time>2026-04-25T14:41:10.05Z</time></trkpt><trkpt lat="42.4337068" lon="-7.2804582"><ele>632.5</ele><time>2026-04-25T14:41:11.052Z</time></trkpt><trkpt lat="42.4338162" lon="-7.2803832"><ele>631.25</ele><time>2026-04-25T14:41:12.046Z</time></trkpt><trkpt lat="42.4338925" lon="-7.2803135"><ele>630.0</ele><time>2026-04-25T14:41:13.051Z</time></trkpt><trkpt lat="42.4339529" lon="-7.280204"><ele>630.0</ele><time>2026-04-25T14:41:15.058Z</time></trkpt><trkpt lat="42.4339007" lon="-7.2801548"><ele>630.0</ele><time>2026-04-25T14:41:17.058Z</time></trkpt><trkpt lat="42.4338093" lon="-7.2802534"><ele>630.0</ele><time>2026-04-25T14:41:19.054Z</time></trkpt><trkpt lat="42.4337395" lon="-7.2803029"><ele>630.0</ele><time>2026-04-25T14:41:20.057Z</time></trkpt><trkpt lat="42.4336533" lon="-7.2803362"><ele>630.0</ele><time>2026-04-25T14:41:21.059Z</time></trkpt><trkpt lat="42.4335466" lon="-7.280364"><ele>634.0</ele><time>2026-04-25T14:41:22.057Z</time></trkpt><trkpt lat="42.4334116" lon="-7.2804035"><ele>638.0</ele><time>2026-04-25T14:41:23.061Z</time></trkpt><trkpt lat="42.4332648" lon="-7.280452"><ele>642.0</ele><time>2026-04-25T14:41:24.058Z</time></trkpt><trkpt lat="42.433133" lon="-7.2805168"><ele>646.0</ele><time>2026-04-25T14:41:25.06Z</time></trkpt><trkpt lat="42.4330271" lon="-7.2805804"><ele>650.5</ele><time>2026-04-25T14:41:26.057Z</time></trkpt><trkpt lat="42.4329307" lon="-7.2806373"><ele>655.0</ele><time>2026-04-25T14:41:27.055Z</time></trkpt><trkpt lat="42.4328153" lon="-7.2806907"><ele>659.5</ele><time>2026-04-25T14:41:28.052Z</time></trkpt><trkpt lat="42.4326702" lon="-7.2807604"><ele>664.0</ele><time>2026-04-25T14:41:29.066Z</time></trkpt><trkpt lat="42.4325097" lon="-7.2808416"><ele>664.0</ele><time>2026-04-25T14:41:30.058Z</time></trkpt><trkpt lat="42.4323482" lon="-7.2809174"><ele>664.0</ele><time>2026-04-25T14:41:31.05Z</time></trkpt><trkpt lat="42.4321882" lon="-7.2809684"><ele>664.0</ele><time>2026-04-25T14:41:32.058Z</time></trkpt><trkpt lat="42.4320097" lon="-7.2810125"><ele>670.3333333333334</ele><time>2026-04-25T14:41:33.059Z</time></trkpt><trkpt lat="42.431842" lon="-7.2810474"><ele>676.6666666666666</ele><time>2026-04-25T14:41:34.048Z</time></trkpt><trkpt lat="42.4316673" lon="-7.2810716"><ele>683.0</ele><time>2026-04-25T14:41:35.057Z</time></trkpt><trkpt lat="42.4314802" lon="-7.2810853"><ele>683.0</ele><time>2026-04-25T14:41:36.056Z</time></trkpt><trkpt lat="42.4312772" lon="-7.2810933"><ele>683.0</ele><time>2026-04-25T14:41:37.054Z</time></trkpt><trkpt lat="42.4310837" lon="-7.2811066"><ele>683.0</ele><time>2026-04-25T14:41:38.056Z</time></trkpt><trkpt lat="42.4308932" lon="-7.2811304"><ele>683.0</ele><time>2026-04-25T14:41:39.056Z</time></trkpt><trkpt lat="42.4307157" lon="-7.281159"><ele>683.0</ele><time>2026-04-25T14:41:40.049Z</time></trkpt><trkpt lat="42.4305581" lon="-7.2811978"><ele>683.0</ele><time>2026-04-25T14:41:41.061Z</time></trkpt><trkpt lat="42.43042" lon="-7.2812619"><ele>683.0</ele><time>2026-04-25T14:41:42.05Z</time></trkpt><trkpt lat="42.43027" lon="-7.2813527"><ele>683.0</ele><time>2026-04-25T14:41:43.053Z</time></trkpt><trkpt lat="42.4301415" lon="-7.2814809"><ele>683.0</ele><time>2026-04-25T14:41:44.053Z</time></trkpt><trkpt lat="42.4300077" lon="-7.2816046"><ele>683.0</ele><time>2026-04-25T14:41:45.05Z</time></trkpt><trkpt lat="42.4298653" lon="-7.2817054"><ele>683.0</ele><time>2026-04-25T14:41:46.054Z</time></trkpt><trkpt lat="42.4297485" lon="-7.28179"><ele>683.0</ele><time>2026-04-25T14:41:47.055Z</time></trkpt><trkpt lat="42.4296608" lon="-7.2818649"><ele>683.0</ele><time>2026-04-25T14:41:48.067Z</time></trkpt><trkpt lat="42.4295651" lon="-7.281927"><ele>683.5</ele><time>2026-04-25T14:41:49.052Z</time></trkpt><trkpt lat="42.4294435" lon="-7.281979"><ele>684.0</ele><time>2026-04-25T14:41:50.062Z</time></trkpt><trkpt lat="42.4293138" lon="-7.2820172"><ele>684.5</ele><time>2026-04-25T14:41:51.055Z</time></trkpt><trkpt lat="42.4291941" lon="-7.2820543"><ele>685.0</ele><time>2026-04-25T14:41:52.049Z</time></trkpt><trkpt lat="42.4290875" lon="-7.2821346"><ele>685.0</ele><time>2026-04-25T14:41:53.066Z</time></trkpt><trkpt lat="42.4289716" lon="-7.2822336"><ele>685.0</ele><time>2026-04-25T14:41:54.051Z</time></trkpt><trkpt lat="42.4288453" lon="-7.2823728"><ele>685.0</ele><time>2026-04-25T14:41:55.077Z</time></trkpt><trkpt lat="42.4287176" lon="-7.2825345"><ele>694.6666666666667</ele><time>2026-04-25T14:41:56.051Z</time></trkpt><trkpt lat="42.4285902" lon="-7.2827111"><ele>704.3333333333334</ele><time>2026-04-25T14:41:57.057Z</time></trkpt><trkpt lat="42.4284698" lon="-7.2828786"><ele>714.0</ele><time>2026-04-25T14:41:58.051Z</time></trkpt><trkpt lat="42.4283623" lon="-7.2830356"><ele>711.5</ele><time>2026-04-25T14:41:59.063Z</time></trkpt><trkpt lat="42.4282608" lon="-7.2831695"><ele>709.0</ele><time>2026-04-25T14:42:00.054Z</time></trkpt><trkpt lat="42.4281479" lon="-7.2832991"><ele>706.5</ele><time>2026-04-25T14:42:01.05Z</time></trkpt><trkpt lat="42.4280303" lon="-7.2834208"><ele>704.0</ele><time>2026-04-25T14:42:02.054Z</time></trkpt><trkpt lat="42.4278862" lon="-7.28355"><ele>713.0</ele><time>2026-04-25T14:42:03.059Z</time></trkpt><trkpt lat="42.4277569" lon="-7.2836811"><ele>722.0</ele><time>2026-04-25T14:42:04.049Z</time></trkpt><trkpt lat="42.4276435" lon="-7.2837972"><ele>731.0</ele><time>2026-04-25T14:42:05.052Z</time></trkpt><trkpt lat="42.4275328" lon="-7.2839329"><ele>731.0</ele><time>2026-04-25T14:42:06.051Z</time></trkpt><trkpt lat="42.4274591" lon="-7.2840888"><ele>731.0</ele><time>2026-04-25T14:42:07.051Z</time></trkpt><trkpt lat="42.4274016" lon="-7.2842718"><ele>731.0</ele><time>2026-04-25T14:42:08.045Z</time></trkpt><trkpt lat="42.4273901" lon="-7.2844384"><ele>731.0</ele><time>2026-04-25T14:42:09.049Z</time></trkpt><trkpt lat="42.4273879" lon="-7.2845932"><ele>731.0</ele><time>2026-04-25T14:42:10.055Z</time></trkpt><trkpt lat="42.4273725" lon="-7.2847554"><ele>731.0</ele><time>2026-04-25T14:42:11.054Z</time></trkpt><trkpt lat="42.4273192" lon="-7.2849245"><ele>731.0</ele><time>2026-04-25T14:42:12.052Z</time></trkpt><trkpt lat="42.4272555" lon="-7.2851075"><ele>731.0</ele><time>2026-04-25T14:42:13.057Z</time></trkpt><trkpt lat="42.4271849" lon="-7.2852976"><ele>741.6666666666666</ele><time>2026-04-25T14:42:14.061Z</time></trkpt><trkpt lat="42.4271061" lon="-7.2855118"><ele>752.3333333333334</ele><time>2026-04-25T14:42:15.053Z</time></trkpt><trkpt lat="42.4270357" lon="-7.2856975"><ele>763.0</ele><time>2026-04-25T14:42:16.05Z</time></trkpt><trkpt lat="42.4270045" lon="-7.2859004"><ele>763.0</ele><time>2026-04-25T14:42:17.053Z</time></trkpt><trkpt lat="42.4269899" lon="-7.2860798"><ele>763.0</ele><time>2026-04-25T14:42:18.051Z</time></trkpt><trkpt lat="42.4269539" lon="-7.2862139"><ele>763.0</ele><time>2026-04-25T14:42:19.056Z</time></trkpt><trkpt lat="42.4269133" lon="-7.2863038"><ele>763.0</ele><time>2026-04-25T14:42:20.049Z</time></trkpt><trkpt lat="42.4268599" lon="-7.2863987"><ele>763.0</ele><time>2026-04-25T14:42:21.055Z</time></trkpt><trkpt lat="42.4267667" lon="-7.2864803"><ele>759.25</ele><time>2026-04-25T14:42:22.047Z</time></trkpt><trkpt lat="42.4266464" lon="-7.2865896"><ele>755.5</ele><time>2026-04-25T14:42:23.062Z</time></trkpt><trkpt lat="42.4265222" lon="-7.2866907"><ele>751.75</ele><time>2026-04-25T14:42:24.067Z</time></trkpt><trkpt lat="42.426418" lon="-7.286806"><ele>748.0</ele><time>2026-04-25T14:42:25.048Z</time></trkpt><trkpt lat="42.4263065" lon="-7.2869392"><ele>755.5</ele><time>2026-04-25T14:42:26.051Z</time></trkpt><trkpt lat="42.4261974" lon="-7.2870849"><ele>763.0</ele><time>2026-04-25T14:42:27.069Z</time></trkpt><trkpt lat="42.426111" lon="-7.2872419"><ele>770.5</ele><time>2026-04-25T14:42:28.052Z</time></trkpt><trkpt lat="42.4260474" lon="-7.2874099"><ele>778.0</ele><time>2026-04-25T14:42:29.066Z</time></trkpt><trkpt lat="42.4259827" lon="-7.2875787"><ele>778.0</ele><time>2026-04-25T14:42:30.057Z</time></trkpt><trkpt lat="42.4259237" lon="-7.2877573"><ele>778.0</ele><time>2026-04-25T14:42:31.048Z</time></trkpt><trkpt lat="42.4258834" lon="-7.2879519"><ele>778.0</ele><time>2026-04-25T14:42:32.047Z</time></trkpt><trkpt lat="42.4258528" lon="-7.2881233"><ele>778.0</ele><time>2026-04-25T14:42:33.054Z</time></trkpt><trkpt lat="42.4258213" lon="-7.2882557"><ele>776.8333333333333</ele><time>2026-04-25T14:42:34.053Z</time></trkpt><trkpt lat="42.4258122" lon="-7.2883469"><ele>775.6666666666666</ele><time>2026-04-25T14:42:35.048Z</time></trkpt><trkpt lat="42.4258181" lon="-7.2884732"><ele>774.5</ele><time>2026-04-25T14:42:41.051Z</time></trkpt><trkpt lat="42.4258757" lon="-7.2885457"><ele>773.3333333333333</ele><time>2026-04-25T14:42:42.061Z</time></trkpt><trkpt lat="42.4259481" lon="-7.2886048"><ele>772.1666666666666</ele><time>2026-04-25T14:42:44.049Z</time></trkpt><trkpt lat="42.4258712" lon="-7.2885395"><ele>771.0</ele><time>2026-04-25T14:42:49.06Z</time></trkpt><trkpt lat="42.4258276" lon="-7.288437"><ele>771.0</ele><time>2026-04-25T14:42:50.056Z</time></trkpt><trkpt lat="42.4257911" lon="-7.288346"><ele>771.0</ele><time>2026-04-25T14:42:51.052Z</time></trkpt><trkpt lat="42.4257725" lon="-7.2882338"><ele>771.0</ele><time>2026-04-25T14:42:52.048Z</time></trkpt><trkpt lat="42.4258546" lon="-7.288141"><ele>771.0</ele><time>2026-04-25T14:42:53.054Z</time></trkpt><trkpt lat="42.4258815" lon="-7.2880159"><ele>771.0</ele><time>2026-04-25T14:42:54.049Z</time></trkpt><trkpt lat="42.4258801" lon="-7.2878485"><ele>772.75</ele><time>2026-04-25T14:42:55.057Z</time></trkpt><trkpt lat="42.4258992" lon="-7.2877028"><ele>774.5</ele><time>2026-04-25T14:42:56.05Z</time></trkpt><trkpt lat="42.42594" lon="-7.2875785"><ele>776.25</ele><time>2026-04-25T14:42:57.051Z</time></trkpt><trkpt lat="42.4259623" lon="-7.2874143"><ele>778.0</ele><time>2026-04-25T14:42:58.043Z</time></trkpt><trkpt lat="42.4259535" lon="-7.2872465"><ele>780.4</ele><time>2026-04-25T14:42:59.052Z</time></trkpt><trkpt lat="42.4259599" lon="-7.2870768"><ele>782.8</ele><time>2026-04-25T14:43:00.046Z</time></trkpt><trkpt lat="42.4259813" lon="-7.2869646"><ele>785.2</ele><time>2026-04-25T14:43:01.047Z</time></trkpt><trkpt lat="42.4259559" lon="-7.2868601"><ele>787.6</ele><time>2026-04-25T14:43:02.049Z</time></trkpt><trkpt lat="42.4259911" lon="-7.2867295"><ele>790.0</ele><time>2026-04-25T14:43:03.049Z</time></trkpt><trkpt lat="42.426062" lon="-7.2866042"><ele>790.0</ele><time>2026-04-25T14:43:04.052Z</time></trkpt><trkpt lat="42.4261419" lon="-7.2864687"><ele>790.0</ele><time>2026-04-25T14:43:05.043Z</time></trkpt><trkpt lat="42.4261843" lon="-7.2862821"><ele>790.0</ele><time>2026-04-25T14:43:06.046Z</time></trkpt><trkpt lat="42.4262238" lon="-7.2861082"><ele>790.0</ele><time>2026-04-25T14:43:07.052Z</time></trkpt><trkpt lat="42.4262416" lon="-7.2859526"><ele>792.25</ele><time>2026-04-25T14:43:08.054Z</time></trkpt><trkpt lat="42.4262639" lon="-7.2858129"><ele>794.5</ele><time>2026-04-25T14:43:09.048Z</time></trkpt><trkpt lat="42.4262548" lon="-7.2856567"><ele>796.75</ele><time>2026-04-25T14:43:10.052Z</time></trkpt><trkpt lat="42.4262515" lon="-7.2854841"><ele>799.0</ele><time>2026-04-25T14:43:11.045Z</time></trkpt><trkpt lat="42.4262483" lon="-7.2853289"><ele>799.0</ele><time>2026-04-25T14:43:12.052Z</time></trkpt><trkpt lat="42.4262156" lon="-7.285179"><ele>799.0</ele><time>2026-04-25T14:43:13.052Z</time></trkpt><trkpt lat="42.4261917" lon="-7.2850256"><ele>799.0</ele><time>2026-04-25T14:43:14.06Z</time></trkpt><trkpt lat="42.426176" lon="-7.2848728"><ele>799.0</ele><time>2026-04-25T14:43:15.045Z</time></trkpt><trkpt lat="42.4261884" lon="-7.2846927"><ele>799.0</ele><time>2026-04-25T14:43:16.059Z</time></trkpt><trkpt lat="42.4261924" lon="-7.2845374"><ele>799.0</ele><time>2026-04-25T14:43:17.047Z</time></trkpt><trkpt lat="42.4262216" lon="-7.2843507"><ele>799.0</ele><time>2026-04-25T14:43:18.05Z</time></trkpt><trkpt lat="42.4262399" lon="-7.2841878"><ele>799.0</ele><time>2026-04-25T14:43:19.046Z</time></trkpt><trkpt lat="42.4262593" lon="-7.2840671"><ele>799.0</ele><time>2026-04-25T14:43:20.06Z</time></trkpt><trkpt lat="42.4262745" lon="-7.2839734"><ele>799.0</ele><time>2026-04-25T14:43:21.056Z</time></trkpt><trkpt lat="42.4262227" lon="-7.2838956"><ele>799.0</ele><time>2026-04-25T14:43:23.066Z</time></trkpt><trkpt lat="42.4261444" lon="-7.2839556"><ele>799.0</ele><time>2026-04-25T14:43:25.066Z</time></trkpt><trkpt lat="42.4260593" lon="-7.2840992"><ele>799.0</ele><time>2026-04-25T14:43:27.064Z</time></trkpt><trkpt lat="42.4259976" lon="-7.2842014"><ele>798.9999999999999</ele><time>2026-04-25T14:43:28.061Z</time></trkpt><trkpt lat="42.4259465" lon="-7.2843063"><ele>799.0</ele><time>2026-04-25T14:43:29.069Z</time></trkpt><trkpt lat="42.4258933" lon="-7.284407"><ele>799.0</ele><time>2026-04-25T14:43:30.063Z</time></trkpt><trkpt lat="42.4258409" lon="-7.2844997"><ele>799.0</ele><time>2026-04-25T14:43:31.06Z</time></trkpt><trkpt lat="42.4257905" lon="-7.2845878"><ele>798.9999999999999</ele><time>2026-04-25T14:43:32.059Z</time></trkpt><trkpt lat="42.4257473" lon="-7.2846692"><ele>799.0</ele><time>2026-04-25T14:43:33.064Z</time></trkpt><trkpt lat="42.4257149" lon="-7.284754"><ele>798.9999999999999</ele><time>2026-04-25T14:43:34.064Z</time></trkpt><trkpt lat="42.4256688" lon="-7.2848394"><ele>799.0</ele><time>2026-04-25T14:43:35.067Z</time></trkpt><trkpt lat="42.425612" lon="-7.2849245"><ele>799.0</ele><time>2026-04-25T14:43:36.063Z</time></trkpt><trkpt lat="42.4255529" lon="-7.2850063"><ele>799.0</ele><time>2026-04-25T14:43:37.053Z</time></trkpt><trkpt lat="42.4254926" lon="-7.2850917"><ele>798.9999999999999</ele><time>2026-04-25T14:43:38.054Z</time></trkpt><trkpt lat="42.4254329" lon="-7.2851703"><ele>799.0</ele><time>2026-04-25T14:43:39.062Z</time></trkpt><trkpt lat="42.4253743" lon="-7.2852379"><ele>795.6</ele><time>2026-04-25T14:43:40.054Z</time></trkpt><trkpt lat="42.4253052" lon="-7.2853022"><ele>792.2</ele><time>2026-04-25T14:43:41.052Z</time></trkpt><trkpt lat="42.4252266" lon="-7.2853661"><ele>788.8000000000001</ele><time>2026-04-25T14:43:42.053Z</time></trkpt><trkpt lat="42.425144" lon="-7.2854229"><ele>785.4000000000001</ele><time>2026-04-25T14:43:43.053Z</time></trkpt><trkpt lat="42.4250637" lon="-7.2854791"><ele>782.0</ele><time>2026-04-25T14:43:44.061Z</time></trkpt><trkpt lat="42.4249765" lon="-7.2855245"><ele>782.0</ele><time>2026-04-25T14:43:45.053Z</time></trkpt><trkpt lat="42.4248781" lon="-7.2855542"><ele>782.0</ele><time>2026-04-25T14:43:46.055Z</time></trkpt><trkpt lat="42.4247701" lon="-7.2855817"><ele>782.0</ele><time>2026-04-25T14:43:47.055Z</time></trkpt><trkpt lat="42.4246746" lon="-7.2855961"><ele>782.0</ele><time>2026-04-25T14:43:48.048Z</time></trkpt><trkpt lat="42.4245689" lon="-7.2856064"><ele>782.0</ele><time>2026-04-25T14:43:49.048Z</time></trkpt><trkpt lat="42.4244539" lon="-7.2856204"><ele>783.6</ele><time>2026-04-25T14:43:50.047Z</time></trkpt><trkpt lat="42.4243646" lon="-7.2856559"><ele>785.2</ele><time>2026-04-25T14:43:51.053Z</time></trkpt><trkpt lat="42.4242813" lon="-7.2856964"><ele>786.8</ele><time>2026-04-25T14:43:52.053Z</time></trkpt><trkpt lat="42.424208" lon="-7.2857343"><ele>788.4</ele><time>2026-04-25T14:43:53.056Z</time></trkpt><trkpt lat="42.4241428" lon="-7.2857639"><ele>790.0</ele><time>2026-04-25T14:43:54.055Z</time></trkpt><trkpt lat="42.42401" lon="-7.285794"><ele>790.0</ele><time>2026-04-25T14:43:56.051Z</time></trkpt><trkpt lat="42.4239385" lon="-7.2857951"><ele>790.0</ele><time>2026-04-25T14:43:57.058Z</time></trkpt><trkpt lat="42.4238717" lon="-7.2857941"><ele>790.0</ele><time>2026-04-25T14:43:58.064Z</time></trkpt><trkpt lat="42.4238061" lon="-7.2857897"><ele>790.0</ele><time>2026-04-25T14:43:59.054Z</time></trkpt><trkpt lat="42.4237409" lon="-7.2857777"><ele>790.0</ele><time>2026-04-25T14:44:00.052Z</time></trkpt><trkpt lat="42.4236651" lon="-7.2857946"><ele>790.0</ele><time>2026-04-25T14:44:01.052Z</time></trkpt><trkpt lat="42.4235915" lon="-7.2857924"><ele>790.0</ele><time>2026-04-25T14:44:02.059Z</time></trkpt><trkpt lat="42.423488" lon="-7.2858065"><ele>788.4</ele><time>2026-04-25T14:44:03.054Z</time></trkpt><trkpt lat="42.4233956" lon="-7.2858154"><ele>786.8</ele><time>2026-04-25T14:44:04.053Z</time></trkpt><trkpt lat="42.4233029" lon="-7.2858256"><ele>785.2</ele><time>2026-04-25T14:44:05.055Z</time></trkpt><trkpt lat="42.423215" lon="-7.2858173"><ele>783.6</ele><time>2026-04-25T14:44:06.054Z</time></trkpt><trkpt lat="42.4231517" lon="-7.2858156"><ele>782.0</ele><time>2026-04-25T14:44:07.057Z</time></trkpt><trkpt lat="42.4230295" lon="-7.2858513"><ele>783.0</ele><time>2026-04-25T14:44:09.055Z</time></trkpt><trkpt lat="42.4229485" lon="-7.2858424"><ele>784.0</ele><time>2026-04-25T14:44:11.049Z</time></trkpt><trkpt lat="42.4229126" lon="-7.2857453"><ele>785.0</ele><time>2026-04-25T14:44:14.06Z</time></trkpt><trkpt lat="42.4229445" lon="-7.2856278"><ele>786.0</ele><time>2026-04-25T14:44:16.047Z</time></trkpt><trkpt lat="42.4229743" lon="-7.285471"><ele>787.0</ele><time>2026-04-25T14:44:18.051Z</time></trkpt><trkpt lat="42.4229935" lon="-7.2853571"><ele>785.0</ele><time>2026-04-25T14:44:19.058Z</time></trkpt><trkpt lat="42.4230098" lon="-7.285239"><ele>783.0</ele><time>2026-04-25T14:44:20.053Z</time></trkpt><trkpt lat="42.4230458" lon="-7.285098"><ele>781.0</ele><time>2026-04-25T14:44:21.046Z</time></trkpt><trkpt lat="42.4230868" lon="-7.2849469"><ele>779.0</ele><time>2026-04-25T14:44:22.048Z</time></trkpt><trkpt lat="42.4231376" lon="-7.2847864"><ele>777.0</ele><time>2026-04-25T14:44:23.046Z</time></trkpt><trkpt lat="42.4231982" lon="-7.2846131"><ele>777.0</ele><time>2026-04-25T14:44:24.044Z</time></trkpt><trkpt lat="42.4232084" lon="-7.284492"><ele>777.0</ele><time>2026-04-25T14:44:25.053Z</time></trkpt><trkpt lat="42.4231791" lon="-7.2843341"><ele>777.0</ele><time>2026-04-25T14:44:27.048Z</time></trkpt><trkpt lat="42.4231244" lon="-7.2842765"><ele>777.0</ele><time>2026-04-25T14:44:29.057Z</time></trkpt><trkpt lat="42.4230372" lon="-7.2842878"><ele>777.0</ele><time>2026-04-25T14:44:31.047Z</time></trkpt><trkpt lat="42.4229378" lon="-7.2843915"><ele>782.0</ele><time>2026-04-25T14:44:33.062Z</time></trkpt><trkpt lat="42.4228822" lon="-7.2844478"><ele>787.0</ele><time>2026-04-25T14:44:34.056Z</time></trkpt><trkpt lat="42.4228199" lon="-7.2844875"><ele>792.0</ele><time>2026-04-25T14:44:35.06Z</time></trkpt><trkpt lat="42.422754" lon="-7.2845168"><ele>797.0</ele><time>2026-04-25T14:44:36.049Z</time></trkpt><trkpt lat="42.4226818" lon="-7.2845356"><ele>802.0</ele><time>2026-04-25T14:44:37.054Z</time></trkpt><trkpt lat="42.4226045" lon="-7.284542"><ele>807.0</ele><time>2026-04-25T14:44:38.057Z</time></trkpt><trkpt lat="42.4225252" lon="-7.2845508"><ele>812.0</ele><time>2026-04-25T14:44:39.051Z</time></trkpt><trkpt lat="42.4224394" lon="-7.2845696"><ele>812.0000000000001</ele><time>2026-04-25T14:44:40.055Z</time></trkpt><trkpt lat="42.4223584" lon="-7.2845885"><ele>812.0</ele><time>2026-04-25T14:44:41.054Z</time></trkpt><trkpt lat="42.4222856" lon="-7.2846"><ele>812.0</ele><time>2026-04-25T14:44:42.052Z</time></trkpt><trkpt lat="42.4222191" lon="-7.2845958"><ele>812.0</ele><time>2026-04-25T14:44:43.069Z</time></trkpt><trkpt lat="42.4220962" lon="-7.2845526"><ele>812.0000000000001</ele><time>2026-04-25T14:44:45.054Z</time></trkpt><trkpt lat="42.4220243" lon="-7.2845402"><ele>812.0</ele><time>2026-04-25T14:44:46.05Z</time></trkpt><trkpt lat="42.4219474" lon="-7.284532"><ele>816.6666666666667</ele><time>2026-04-25T14:44:47.059Z</time></trkpt><trkpt lat="42.4218439" lon="-7.2845176"><ele>821.3333333333334</ele><time>2026-04-25T14:44:49.058Z</time></trkpt><trkpt lat="42.4217657" lon="-7.2845075"><ele>826.0</ele><time>2026-04-25T14:44:50.048Z</time></trkpt><trkpt lat="42.4216934" lon="-7.2844989"><ele>830.6666666666667</ele><time>2026-04-25T14:44:51.052Z</time></trkpt><trkpt lat="42.4216277" lon="-7.2844915"><ele>835.3333333333334</ele><time>2026-04-25T14:44:52.058Z</time></trkpt><trkpt lat="42.4215507" lon="-7.2844846"><ele>840.0</ele><time>2026-04-25T14:44:53.056Z</time></trkpt><trkpt lat="42.4214557" lon="-7.2844787"><ele>840.0</ele><time>2026-04-25T14:44:54.05Z</time></trkpt><trkpt lat="42.4213534" lon="-7.2844822"><ele>840.0</ele><time>2026-04-25T14:44:55.061Z</time></trkpt><trkpt lat="42.4212477" lon="-7.2844791"><ele>840.0</ele><time>2026-04-25T14:44:56.057Z</time></trkpt><trkpt lat="42.4211306" lon="-7.2844748"><ele>840.0</ele><time>2026-04-25T14:44:57.049Z</time></trkpt><trkpt lat="42.4210124" lon="-7.2844756"><ele>840.0</ele><time>2026-04-25T14:44:58.057Z</time></trkpt><trkpt lat="42.4208944" lon="-7.2844787"><ele>844.0</ele><time>2026-04-25T14:44:59.06Z</time></trkpt><trkpt lat="42.4207948" lon="-7.2844702"><ele>848.0</ele><time>2026-04-25T14:45:00.049Z</time></trkpt><trkpt lat="42.4206854" lon="-7.284454"><ele>852.0</ele><time>2026-04-25T14:45:01.056Z</time></trkpt><trkpt lat="42.4205722" lon="-7.2844398"><ele>856.0</ele><time>2026-04-25T14:45:02.06Z</time></trkpt><trkpt lat="42.4204795" lon="-7.2844424"><ele>860.0</ele><time>2026-04-25T14:45:03.05Z</time></trkpt><trkpt lat="42.4203908" lon="-7.2844491"><ele>863.8333333333334</ele><time>2026-04-25T14:45:04.054Z</time></trkpt><trkpt lat="42.4203108" lon="-7.2844591"><ele>867.6666666666667</ele><time>2026-04-25T14:45:05.049Z</time></trkpt><trkpt lat="42.4202224" lon="-7.2844971"><ele>871.5</ele><time>2026-04-25T14:45:06.059Z</time></trkpt><trkpt lat="42.4201402" lon="-7.2845392"><ele>875.3333333333333</ele><time>2026-04-25T14:45:07.052Z</time></trkpt><trkpt lat="42.4200704" lon="-7.2845705"><ele>879.1666666666666</ele><time>2026-04-25T14:45:08.048Z</time></trkpt><trkpt lat="42.4199956" lon="-7.2846103"><ele>883.0</ele><time>2026-04-25T14:45:09.055Z</time></trkpt><trkpt lat="42.4199045" lon="-7.2846656"><ele>882.9999999999999</ele><time>2026-04-25T14:45:10.06Z</time></trkpt><trkpt lat="42.4198367" lon="-7.2847249"><ele>883.0</ele><time>2026-04-25T14:45:11.055Z</time></trkpt><trkpt lat="42.4197777" lon="-7.2847909"><ele>883.0</ele><time>2026-04-25T14:45:12.056Z</time></trkpt><trkpt lat="42.4197296" lon="-7.2848556"><ele>883.0</ele><time>2026-04-25T14:45:13.053Z</time></trkpt><trkpt lat="42.4196754" lon="-7.2849015"><ele>882.9999999999999</ele><time>2026-04-25T14:45:14.051Z</time></trkpt><trkpt lat="42.4196072" lon="-7.2849136"><ele>883.0</ele><time>2026-04-25T14:45:15.054Z</time></trkpt><trkpt lat="42.4195144" lon="-7.2849417"><ele>884.6666666666666</ele><time>2026-04-25T14:45:16.049Z</time></trkpt><trkpt lat="42.4194428" lon="-7.2849752"><ele>886.3333333333333</ele><time>2026-04-25T14:45:17.056Z</time></trkpt><trkpt lat="42.4193835" lon="-7.2850322"><ele>888.0</ele><time>2026-04-25T14:45:18.048Z</time></trkpt><trkpt lat="42.4193085" lon="-7.2851027"><ele>889.6666666666667</ele><time>2026-04-25T14:45:19.048Z</time></trkpt><trkpt lat="42.4192446" lon="-7.285189"><ele>891.3333333333334</ele><time>2026-04-25T14:45:20.06Z</time></trkpt><trkpt lat="42.4191732" lon="-7.2852776"><ele>893.0</ele><time>2026-04-25T14:45:21.049Z</time></trkpt><trkpt lat="42.4190979" lon="-7.2853629"><ele>893.0</ele><time>2026-04-25T14:45:22.056Z</time></trkpt><trkpt lat="42.4190414" lon="-7.2854421"><ele>893.0</ele><time>2026-04-25T14:45:23.055Z</time></trkpt><trkpt lat="42.4189899" lon="-7.2855377"><ele>893.0</ele><time>2026-04-25T14:45:24.051Z</time></trkpt><trkpt lat="42.4189642" lon="-7.2856761"><ele>893.0</ele><time>2026-04-25T14:45:25.048Z</time></trkpt><trkpt lat="42.4189664" lon="-7.2858161"><ele>893.0</ele><time>2026-04-25T14:45:26.047Z</time></trkpt><trkpt lat="42.4189786" lon="-7.2859497"><ele>891.0</ele><time>2026-04-25T14:45:27.048Z</time></trkpt><trkpt lat="42.4189986" lon="-7.2860629"><ele>889.0</ele><time>2026-04-25T14:45:28.051Z</time></trkpt><trkpt lat="42.4190134" lon="-7.2861705"><ele>887.0</ele><time>2026-04-25T14:45:29.047Z</time></trkpt><trkpt lat="42.4190333" lon="-7.2863045"><ele>885.0</ele><time>2026-04-25T14:45:30.054Z</time></trkpt><trkpt lat="42.4190402" lon="-7.2864394"><ele>883.0</ele><time>2026-04-25T14:45:31.062Z</time></trkpt><trkpt lat="42.4190343" lon="-7.2865511"><ele>882.5999999999999</ele><time>2026-04-25T14:45:32.057Z</time></trkpt><trkpt lat="42.4190057" lon="-7.2866689"><ele>882.1999999999999</ele><time>2026-04-25T14:45:33.048Z</time></trkpt><trkpt lat="42.4189494" lon="-7.2867687"><ele>881.8</ele><time>2026-04-25T14:45:34.058Z</time></trkpt><trkpt lat="42.4188715" lon="-7.2868959"><ele>881.4</ele><time>2026-04-25T14:45:35.05Z</time></trkpt><trkpt lat="42.4187918" lon="-7.2870176"><ele>881.0</ele><time>2026-04-25T14:45:36.051Z</time></trkpt><trkpt lat="42.418708" lon="-7.2871327"><ele>890.5</ele><time>2026-04-25T14:45:37.049Z</time></trkpt><trkpt lat="42.4186137" lon="-7.2872481"><ele>900.0</ele><time>2026-04-25T14:45:38.056Z</time></trkpt><trkpt lat="42.4185178" lon="-7.2873639"><ele>909.5</ele><time>2026-04-25T14:45:39.064Z</time></trkpt><trkpt lat="42.4184202" lon="-7.2874845"><ele>919.0</ele><time>2026-04-25T14:45:40.062Z</time></trkpt><trkpt lat="42.4183207" lon="-7.2876093"><ele>919.0</ele><time>2026-04-25T14:45:41.059Z</time></trkpt><trkpt lat="42.4182227" lon="-7.2877253"><ele>919.0</ele><time>2026-04-25T14:45:42.057Z</time></trkpt><trkpt lat="42.4181271" lon="-7.2878351"><ele>919.0</ele><time>2026-04-25T14:45:43.051Z</time></trkpt><trkpt lat="42.4180436" lon="-7.2879565"><ele>919.0</ele><time>2026-04-25T14:45:44.062Z</time></trkpt><trkpt lat="42.4179754" lon="-7.288087"><ele>925.0</ele><time>2026-04-25T14:45:45.054Z</time></trkpt><trkpt lat="42.4179088" lon="-7.2882056"><ele>931.0000000000001</ele><time>2026-04-25T14:45:46.063Z</time></trkpt><trkpt lat="42.41785" lon="-7.2883084"><ele>937.0000000000001</ele><time>2026-04-25T14:45:47.054Z</time></trkpt><trkpt lat="42.4177835" lon="-7.2884081"><ele>943.0</ele><time>2026-04-25T14:45:48.061Z</time></trkpt><trkpt lat="42.4177071" lon="-7.2885137"><ele>949.0</ele><time>2026-04-25T14:45:49.054Z</time></trkpt><trkpt lat="42.4176284" lon="-7.2886203"><ele>949.0</ele><time>2026-04-25T14:45:50.056Z</time></trkpt><trkpt lat="42.4175817" lon="-7.2887057"><ele>949.0000000000001</ele><time>2026-04-25T14:45:51.056Z</time></trkpt><trkpt lat="42.4175383" lon="-7.2887808"><ele>949.0000000000001</ele><time>2026-04-25T14:45:52.059Z</time></trkpt><trkpt lat="42.417459" lon="-7.288859"><ele>949.0</ele><time>2026-04-25T14:45:53.051Z</time></trkpt><trkpt lat="42.4173687" lon="-7.2889319"><ele>949.0</ele><time>2026-04-25T14:45:54.052Z</time></trkpt><trkpt lat="42.4172668" lon="-7.2889875"><ele>950.6</ele><time>2026-04-25T14:45:55.067Z</time></trkpt><trkpt lat="42.4171493" lon="-7.2890331"><ele>952.2</ele><time>2026-04-25T14:45:56.063Z</time></trkpt><trkpt lat="42.4170359" lon="-7.2890766"><ele>953.8000000000001</ele><time>2026-04-25T14:45:57.056Z</time></trkpt><trkpt lat="42.4169283" lon="-7.2891221"><ele>955.4000000000001</ele><time>2026-04-25T14:45:58.054Z</time></trkpt><trkpt lat="42.4168413" lon="-7.2891781"><ele>957.0</ele><time>2026-04-25T14:45:59.054Z</time></trkpt><trkpt lat="42.4167701" lon="-7.2892319"><ele>957.0</ele><time>2026-04-25T14:46:00.056Z</time></trkpt><trkpt lat="42.416708" lon="-7.2892797"><ele>957.0</ele><time>2026-04-25T14:46:01.057Z</time></trkpt><trkpt lat="42.4166458" lon="-7.2893348"><ele>957.0</ele><time>2026-04-25T14:46:03.052Z</time></trkpt><trkpt lat="42.4166387" lon="-7.2894338"><ele>957.0</ele><time>2026-04-25T14:48:27.058Z</time></trkpt><trkpt lat="42.4166273" lon="-7.2895548"><ele>957.0</ele><time>2026-04-25T14:48:33.05Z</time></trkpt><trkpt lat="42.4166365" lon="-7.2896678"><ele>957.0</ele><time>2026-04-25T14:48:35.052Z</time></trkpt><trkpt lat="42.4167083" lon="-7.2897286"><ele>958.5</ele><time>2026-04-25T14:48:57.052Z</time></trkpt><trkpt lat="42.4167702" lon="-7.2897783"><ele>960.0</ele><time>2026-04-25T14:48:58.047Z</time></trkpt><trkpt lat="42.4168389" lon="-7.2898326"><ele>961.5</ele><time>2026-04-25T14:48:59.068Z</time></trkpt><trkpt lat="42.4168944" lon="-7.2898801"><ele>963.0</ele><time>2026-04-25T14:49:00.06Z</time></trkpt><trkpt lat="42.4169551" lon="-7.2899375"><ele>964.5</ele><time>2026-04-25T14:49:01.054Z</time></trkpt><trkpt lat="42.4170254" lon="-7.2900154"><ele>966.0</ele><time>2026-04-25T14:49:02.058Z</time></trkpt><trkpt lat="42.4170924" lon="-7.2901022"><ele>966.0</ele><time>2026-04-25T14:49:03.048Z</time></trkpt><trkpt lat="42.4171319" lon="-7.2901712"><ele>965.9999999999999</ele><time>2026-04-25T14:49:04.058Z</time></trkpt><trkpt lat="42.417181" lon="-7.2903226"><ele>965.9999999999999</ele><time>2026-04-25T14:49:06.052Z</time></trkpt><trkpt lat="42.4171841" lon="-7.2904357"><ele>966.0</ele><time>2026-04-25T14:49:07.05Z</time></trkpt><trkpt lat="42.4171987" lon="-7.2905722"><ele>966.0</ele><time>2026-04-25T14:49:08.056Z</time></trkpt><trkpt lat="42.4172241" lon="-7.2907003"><ele>966.6666666666666</ele><time>2026-04-25T14:49:09.047Z</time></trkpt><trkpt lat="42.4172442" lon="-7.2908092"><ele>967.3333333333333</ele><time>2026-04-25T14:49:10.043Z</time></trkpt><trkpt lat="42.4172716" lon="-7.2909687"><ele>968.0</ele><time>2026-04-25T14:49:12.058Z</time></trkpt><trkpt lat="42.4173239" lon="-7.2910792"><ele>968.6666666666666</ele><time>2026-04-25T14:49:14.046Z</time></trkpt><trkpt lat="42.4173837" lon="-7.291106"><ele>969.3333333333333</ele><time>2026-04-25T14:49:15.048Z</time></trkpt><trkpt lat="42.4174676" lon="-7.2910877"><ele>970.0</ele><time>2026-04-25T14:49:16.046Z</time></trkpt><trkpt lat="42.4175674" lon="-7.291068"><ele>970.0</ele><time>2026-04-25T14:49:17.049Z</time></trkpt><trkpt lat="42.4176817" lon="-7.2910228"><ele>970.0</ele><time>2026-04-25T14:49:18.046Z</time></trkpt><trkpt lat="42.4177794" lon="-7.2909808"><ele>970.0</ele><time>2026-04-25T14:49:19.05Z</time></trkpt><trkpt lat="42.4178794" lon="-7.2909723"><ele>970.0</ele><time>2026-04-25T14:49:20.05Z</time></trkpt><trkpt lat="42.4179861" lon="-7.2909732"><ele>970.0</ele><time>2026-04-25T14:49:21.051Z</time></trkpt><trkpt lat="42.4180779" lon="-7.2909778"><ele>969.9999999999999</ele><time>2026-04-25T14:49:22.058Z</time></trkpt><trkpt lat="42.418147" lon="-7.2909737"><ele>970.0</ele><time>2026-04-25T14:49:23.047Z</time></trkpt><trkpt lat="42.4182097" lon="-7.2909558"><ele>970.0</ele><time>2026-04-25T14:49:25.049Z</time></trkpt><trkpt lat="42.4182216" lon="-7.2910404"><ele>970.0</ele><time>2026-04-25T14:49:29.057Z</time></trkpt><trkpt lat="42.4181151" lon="-7.2911458"><ele>969.9999999999999</ele><time>2026-04-25T14:49:31.053Z</time></trkpt><trkpt lat="42.4180487" lon="-7.2912183"><ele>970.0</ele><time>2026-04-25T14:49:32.059Z</time></trkpt><trkpt lat="42.4179743" lon="-7.2912977"><ele>970.0</ele><time>2026-04-25T14:49:33.052Z</time></trkpt><trkpt lat="42.4178914" lon="-7.2913956"><ele>970.0</ele><time>2026-04-25T14:49:34.06Z</time></trkpt><trkpt lat="42.4178073" lon="-7.2915136"><ele>970.0</ele><time>2026-04-25T14:49:35.052Z</time></trkpt><trkpt lat="42.4177205" lon="-7.2916321"><ele>970.0</ele><time>2026-04-25T14:49:36.054Z</time></trkpt><trkpt lat="42.4176356" lon="-7.2917538"><ele>975.6</ele><time>2026-04-25T14:49:37.055Z</time></trkpt><trkpt lat="42.4175655" lon="-7.2918549"><ele>981.2</ele><time>2026-04-25T14:49:38.043Z</time></trkpt><trkpt lat="42.4174939" lon="-7.2919519"><ele>986.8</ele><time>2026-04-25T14:49:39.049Z</time></trkpt><trkpt lat="42.4174118" lon="-7.2920123"><ele>992.4</ele><time>2026-04-25T14:49:40.047Z</time></trkpt><trkpt lat="42.417325" lon="-7.2920491"><ele>998.0</ele><time>2026-04-25T14:49:41.053Z</time></trkpt><trkpt lat="42.4172463" lon="-7.2920625"><ele>998.0</ele><time>2026-04-25T14:49:42.054Z</time></trkpt><trkpt lat="42.4171526" lon="-7.2920061"><ele>998.0</ele><time>2026-04-25T14:49:43.05Z</time></trkpt><trkpt lat="42.4170502" lon="-7.2919068"><ele>998.0</ele><time>2026-04-25T14:49:44.049Z</time></trkpt><trkpt lat="42.4169327" lon="-7.2918252"><ele>998.0</ele><time>2026-04-25T14:49:45.051Z</time></trkpt><trkpt lat="42.4168109" lon="-7.2917495"><ele>1000.8</ele><time>2026-04-25T14:49:46.059Z</time></trkpt><trkpt lat="42.4167189" lon="-7.2917138"><ele>1003.5999999999999</ele><time>2026-04-25T14:49:47.053Z</time></trkpt><trkpt lat="42.416649" lon="-7.291713"><ele>1006.4000000000001</ele><time>2026-04-25T14:49:48.06Z</time></trkpt><trkpt lat="42.4165775" lon="-7.2917451"><ele>1009.2</ele><time>2026-04-25T14:49:49.067Z</time></trkpt><trkpt lat="42.4165065" lon="-7.2918187"><ele>1012.0</ele><time>2026-04-25T14:49:50.052Z</time></trkpt><trkpt lat="42.416436" lon="-7.2919665"><ele>1012.0</ele><time>2026-04-25T14:49:51.061Z</time></trkpt><trkpt lat="42.4163567" lon="-7.2921468"><ele>1012.0</ele><time>2026-04-25T14:49:52.059Z</time></trkpt><trkpt lat="42.4162784" lon="-7.2923215"><ele>1012.0</ele><time>2026-04-25T14:49:53.056Z</time></trkpt><trkpt lat="42.4162304" lon="-7.292478"><ele>1012.0</ele><time>2026-04-25T14:49:54.064Z</time></trkpt><trkpt lat="42.4161945" lon="-7.2925875"><ele>1013.5</ele><time>2026-04-25T14:49:55.052Z</time></trkpt><trkpt lat="42.4161274" lon="-7.292702"><ele>1015.0</ele><time>2026-04-25T14:49:57.065Z</time></trkpt><trkpt lat="42.4159813" lon="-7.2926391"><ele>1016.5</ele><time>2026-04-25T14:49:59.064Z</time></trkpt><trkpt lat="42.4158674" lon="-7.2925495"><ele>1018.0</ele><time>2026-04-25T14:50:00.054Z</time></trkpt><trkpt lat="42.415732" lon="-7.2924447"><ele>1018.0</ele><time>2026-04-25T14:50:01.055Z</time></trkpt><trkpt lat="42.4155714" lon="-7.2923251"><ele>1018.0</ele><time>2026-04-25T14:50:02.059Z</time></trkpt><trkpt lat="42.415411" lon="-7.2922125"><ele>1018.0</ele><time>2026-04-25T14:50:03.066Z</time></trkpt><trkpt lat="42.4152694" lon="-7.2920945"><ele>1020.75</ele><time>2026-04-25T14:50:04.064Z</time></trkpt><trkpt lat="42.4151479" lon="-7.291981"><ele>1023.5</ele><time>2026-04-25T14:50:05.058Z</time></trkpt><trkpt lat="42.4150734" lon="-7.2918686"><ele>1026.25</ele><time>2026-04-25T14:50:06.068Z</time></trkpt><trkpt lat="42.4149956" lon="-7.2917779"><ele>1029.0</ele><time>2026-04-25T14:50:07.054Z</time></trkpt><trkpt lat="42.4149022" lon="-7.2916571"><ele>1029.0</ele><time>2026-04-25T14:50:08.059Z</time></trkpt><trkpt lat="42.4147991" lon="-7.2915219"><ele>1029.0</ele><time>2026-04-25T14:50:09.054Z</time></trkpt><trkpt lat="42.4146978" lon="-7.2913803"><ele>1029.0</ele><time>2026-04-25T14:50:10.053Z</time></trkpt><trkpt lat="42.4146056" lon="-7.2912234"><ele>1029.0</ele><time>2026-04-25T14:50:11.053Z</time></trkpt><trkpt lat="42.4145203" lon="-7.2910602"><ele>1030.6000000000001</ele><time>2026-04-25T14:50:12.056Z</time></trkpt><trkpt lat="42.4144592" lon="-7.290912"><ele>1032.2</ele><time>2026-04-25T14:50:13.052Z</time></trkpt><trkpt lat="42.4144121" lon="-7.2907829"><ele>1033.8000000000002</ele><time>2026-04-25T14:50:14.06Z</time></trkpt><trkpt lat="42.4143722" lon="-7.2906772"><ele>1035.4</ele><time>2026-04-25T14:50:15.061Z</time></trkpt><trkpt lat="42.4143302" lon="-7.2905922"><ele>1037.0</ele><time>2026-04-25T14:50:16.054Z</time></trkpt><trkpt lat="42.4142883" lon="-7.2905251"><ele>1037.0</ele><time>2026-04-25T14:50:17.057Z</time></trkpt><trkpt lat="42.4143576" lon="-7.2906511"><ele>1037.0</ele><time>2026-04-25T14:50:38.061Z</time></trkpt><trkpt lat="42.4144" lon="-7.2907726"><ele>1037.0</ele><time>2026-04-25T14:50:39.066Z</time></trkpt><trkpt lat="42.4144521" lon="-7.2909082"><ele>1037.0</ele><time>2026-04-25T14:50:40.065Z</time></trkpt><trkpt lat="42.4145042" lon="-7.2910323"><ele>1037.0</ele><time>2026-04-25T14:50:41.054Z</time></trkpt><trkpt lat="42.4145574" lon="-7.291147"><ele>1037.0</ele><time>2026-04-25T14:50:42.06Z</time></trkpt><trkpt lat="42.4146133" lon="-7.2912523"><ele>1037.0</ele><time>2026-04-25T14:50:43.052Z</time></trkpt><trkpt lat="42.4146766" lon="-7.2913556"><ele>1037.0</ele><time>2026-04-25T14:50:44.054Z</time></trkpt><trkpt lat="42.414747" lon="-7.2914594"><ele>1037.0</ele><time>2026-04-25T14:50:45.058Z</time></trkpt><trkpt lat="42.4148186" lon="-7.2915555"><ele>1037.0</ele><time>2026-04-25T14:50:46.061Z</time></trkpt><trkpt lat="42.4148887" lon="-7.2916459"><ele>1035.6666666666667</ele><time>2026-04-25T14:50:47.057Z</time></trkpt><trkpt lat="42.4149585" lon="-7.2917316"><ele>1034.3333333333335</ele><time>2026-04-25T14:50:48.062Z</time></trkpt><trkpt lat="42.4150247" lon="-7.2918132"><ele>1033.0</ele><time>2026-04-25T14:50:49.058Z</time></trkpt><trkpt lat="42.4150777" lon="-7.2918809"><ele>1031.6666666666667</ele><time>2026-04-25T14:50:50.057Z</time></trkpt><trkpt lat="42.4151303" lon="-7.2919658"><ele>1030.3333333333333</ele><time>2026-04-25T14:50:52.056Z</time></trkpt><trkpt lat="42.4150538" lon="-7.2920296"><ele>1029.0</ele><time>2026-04-25T14:50:56.088Z</time></trkpt><trkpt lat="42.4149658" lon="-7.2919769"><ele>1029.0</ele><time>2026-04-25T14:50:58.068Z</time></trkpt><trkpt lat="42.4148975" lon="-7.2919547"><ele>1029.0</ele><time>2026-04-25T14:50:59.055Z</time></trkpt><trkpt lat="42.414833" lon="-7.2919402"><ele>1029.0</ele><time>2026-04-25T14:51:00.075Z</time></trkpt><trkpt lat="42.4147627" lon="-7.2919289"><ele>1029.0</ele><time>2026-04-25T14:51:01.066Z</time></trkpt><trkpt lat="42.4146784" lon="-7.2918951"><ele>1029.0</ele><time>2026-04-25T14:51:02.064Z</time></trkpt><trkpt lat="42.414589" lon="-7.2918441"><ele>1029.0</ele><time>2026-04-25T14:51:03.062Z</time></trkpt><trkpt lat="42.4145142" lon="-7.2917794"><ele>1029.142857142857</ele><time>2026-04-25T14:51:04.053Z</time></trkpt><trkpt lat="42.414444" lon="-7.2917083"><ele>1029.2857142857142</ele><time>2026-04-25T14:51:05.062Z</time></trkpt><trkpt lat="42.4143844" lon="-7.2916576"><ele>1029.4285714285716</ele><time>2026-04-25T14:51:06.068Z</time></trkpt><trkpt lat="42.4143216" lon="-7.2915974"><ele>1029.5714285714284</ele><time>2026-04-25T14:51:08.06Z</time></trkpt><trkpt lat="42.4142516" lon="-7.2915953"><ele>1029.7142857142858</ele><time>2026-04-25T14:51:19.066Z</time></trkpt><trkpt lat="42.4141807" lon="-7.2915931"><ele>1029.857142857143</ele><time>2026-04-25T14:51:20.058Z</time></trkpt><trkpt lat="42.4141111" lon="-7.2915786"><ele>1030.0</ele><time>2026-04-25T14:51:21.055Z</time></trkpt><trkpt lat="42.4140269" lon="-7.2915538"><ele>1030.0</ele><time>2026-04-25T14:51:23.055Z</time></trkpt><trkpt lat="42.4139452" lon="-7.2915324"><ele>1030.0</ele><time>2026-04-25T14:51:25.046Z</time></trkpt><trkpt lat="42.4138743" lon="-7.2915182"><ele>1030.0</ele><time>2026-04-25T14:51:27.067Z</time></trkpt><trkpt lat="42.4137755" lon="-7.2914833"><ele>1030.0</ele><time>2026-04-25T14:51:29.055Z</time></trkpt><trkpt lat="42.413667" lon="-7.2914105"><ele>1030.0</ele><time>2026-04-25T14:51:31.059Z</time></trkpt><trkpt lat="42.4136124" lon="-7.2913579"><ele>1030.0</ele><time>2026-04-25T14:51:32.07Z</time></trkpt><trkpt lat="42.4135624" lon="-7.2913011"><ele>1029.6</ele><time>2026-04-25T14:51:33.073Z</time></trkpt><trkpt lat="42.4135148" lon="-7.2912341"><ele>1029.2</ele><time>2026-04-25T14:51:34.059Z</time></trkpt><trkpt lat="42.4134339" lon="-7.2911067"><ele>1028.8</ele><time>2026-04-25T14:51:36.058Z</time></trkpt><trkpt lat="42.4133429" lon="-7.2909815"><ele>1028.4</ele><time>2026-04-25T14:51:38.057Z</time></trkpt><trkpt lat="42.4132865" lon="-7.2909137"><ele>1028.0</ele><time>2026-04-25T14:51:39.059Z</time></trkpt><trkpt lat="42.413231" lon="-7.2908442"><ele>1028.0</ele><time>2026-04-25T14:51:40.07Z</time></trkpt><trkpt lat="42.4131808" lon="-7.2907663"><ele>1028.0</ele><time>2026-04-25T14:51:41.056Z</time></trkpt><trkpt lat="42.4131217" lon="-7.2906613"><ele>1028.0</ele><time>2026-04-25T14:51:43.059Z</time></trkpt><trkpt lat="42.41306" lon="-7.2906237"><ele>1028.0</ele><time>2026-04-25T14:51:45.064Z</time></trkpt><trkpt lat="42.4129914" lon="-7.2906241"><ele>1028.0</ele><time>2026-04-25T14:52:42.054Z</time></trkpt><trkpt lat="42.4129345" lon="-7.2906659"><ele>1028.0</ele><time>2026-04-25T14:52:48.054Z</time></trkpt><trkpt lat="42.4128642" lon="-7.2906642"><ele>1028.0</ele><time>2026-04-25T14:52:51.067Z</time></trkpt><trkpt lat="42.4127985" lon="-7.2906906"><ele>1028.6666666666667</ele><time>2026-04-25T14:52:54.058Z</time></trkpt><trkpt lat="42.4127706" lon="-7.2907702"><ele>1029.3333333333335</ele><time>2026-04-25T14:52:59.082Z</time></trkpt><trkpt lat="42.4127219" lon="-7.2908687"><ele>1030.0</ele><time>2026-04-25T14:53:09.061Z</time></trkpt><trkpt lat="42.4126776" lon="-7.2909382"><ele>1030.6666666666667</ele><time>2026-04-25T14:53:10.058Z</time></trkpt><trkpt lat="42.4126007" lon="-7.2910638"><ele>1031.3333333333333</ele><time>2026-04-25T14:53:12.057Z</time></trkpt><trkpt lat="42.4125602" lon="-7.2911745"><ele>1032.0</ele><time>2026-04-25T14:53:14.056Z</time></trkpt><trkpt lat="42.4125084" lon="-7.2913042"><ele>1032.0</ele><time>2026-04-25T14:53:16.054Z</time></trkpt><trkpt lat="42.4124273" lon="-7.2914172"><ele>1032.0</ele><time>2026-04-25T14:53:18.055Z</time></trkpt><trkpt lat="42.4123717" lon="-7.2914649"><ele>1032.0</ele><time>2026-04-25T14:53:19.059Z</time></trkpt><trkpt lat="42.4123061" lon="-7.2915114"><ele>1032.0</ele><time>2026-04-25T14:53:20.068Z</time></trkpt><trkpt lat="42.4122332" lon="-7.2915544"><ele>1032.0</ele><time>2026-04-25T14:53:21.063Z</time></trkpt><trkpt lat="42.4121492" lon="-7.2915979"><ele>1032.0</ele><time>2026-04-25T14:53:22.063Z</time></trkpt><trkpt lat="42.4120717" lon="-7.2916356"><ele>1033.0</ele><time>2026-04-25T14:53:23.062Z</time></trkpt><trkpt lat="42.4119954" lon="-7.2916748"><ele>1034.0</ele><time>2026-04-25T14:53:24.057Z</time></trkpt><trkpt lat="42.4119111" lon="-7.2917095"><ele>1035.0</ele><time>2026-04-25T14:53:25.057Z</time></trkpt><trkpt lat="42.4118062" lon="-7.2917453"><ele>1036.0</ele><time>2026-04-25T14:53:26.054Z</time></trkpt><trkpt lat="42.4116972" lon="-7.2917807"><ele>1037.0</ele><time>2026-04-25T14:53:27.057Z</time></trkpt><trkpt lat="42.411602" lon="-7.2918015"><ele>1037.0</ele><time>2026-04-25T14:53:28.063Z</time></trkpt><trkpt lat="42.4115042" lon="-7.2918071"><ele>1037.0</ele><time>2026-04-25T14:53:29.053Z</time></trkpt><trkpt lat="42.4113987" lon="-7.2918033"><ele>1037.0</ele><time>2026-04-25T14:53:30.061Z</time></trkpt><trkpt lat="42.4113062" lon="-7.291796"><ele>1037.0</ele><time>2026-04-25T14:53:31.055Z</time></trkpt><trkpt lat="42.411209" lon="-7.2917893"><ele>1037.0</ele><time>2026-04-25T14:53:32.054Z</time></trkpt><trkpt lat="42.4111066" lon="-7.291783"><ele>1037.2</ele><time>2026-04-25T14:53:33.059Z</time></trkpt><trkpt lat="42.4109973" lon="-7.2917965"><ele>1037.4</ele><time>2026-04-25T14:53:34.055Z</time></trkpt><trkpt lat="42.4109" lon="-7.2918042"><ele>1037.6</ele><time>2026-04-25T14:53:35.057Z</time></trkpt><trkpt lat="42.4108047" lon="-7.2918094"><ele>1037.8</ele><time>2026-04-25T14:53:36.052Z</time></trkpt><trkpt lat="42.4107002" lon="-7.291817"><ele>1038.0</ele><time>2026-04-25T14:53:37.057Z</time></trkpt><trkpt lat="42.4105996" lon="-7.2918254"><ele>1038.0</ele><time>2026-04-25T14:53:38.061Z</time></trkpt><trkpt lat="42.4105131" lon="-7.2918337"><ele>1038.0</ele><time>2026-04-25T14:53:39.053Z</time></trkpt><trkpt lat="42.410437" lon="-7.2918349"><ele>1038.0</ele><time>2026-04-25T14:53:40.058Z</time></trkpt><trkpt lat="42.4103686" lon="-7.2918328"><ele>1038.0</ele><time>2026-04-25T14:53:41.055Z</time></trkpt><trkpt lat="42.410295" lon="-7.2918239"><ele>1038.0</ele><time>2026-04-25T14:53:42.051Z</time></trkpt><trkpt lat="42.4102225" lon="-7.2918073"><ele>1038.0</ele><time>2026-04-25T14:53:43.064Z</time></trkpt><trkpt lat="42.4101525" lon="-7.2917917"><ele>1036.8333333333333</ele><time>2026-04-25T14:53:44.055Z</time></trkpt><trkpt lat="42.4100842" lon="-7.2917741"><ele>1035.6666666666667</ele><time>2026-04-25T14:53:45.051Z</time></trkpt><trkpt lat="42.4100034" lon="-7.2917473"><ele>1034.5</ele><time>2026-04-25T14:53:46.053Z</time></trkpt><trkpt lat="42.4099221" lon="-7.2917143"><ele>1033.3333333333335</ele><time>2026-04-25T14:53:47.06Z</time></trkpt><trkpt lat="42.4098371" lon="-7.291679"><ele>1032.1666666666667</ele><time>2026-04-25T14:53:48.051Z</time></trkpt><trkpt lat="42.4097535" lon="-7.2916452"><ele>1031.0</ele><time>2026-04-25T14:53:49.053Z</time></trkpt><trkpt lat="42.4096785" lon="-7.2916105"><ele>1030.1666666666667</ele><time>2026-04-25T14:53:50.051Z</time></trkpt><trkpt lat="42.4096088" lon="-7.2915794"><ele>1029.3333333333335</ele><time>2026-04-25T14:53:51.049Z</time></trkpt><trkpt lat="42.4095406" lon="-7.291547"><ele>1028.5</ele><time>2026-04-25T14:53:52.057Z</time></trkpt><trkpt lat="42.4094695" lon="-7.2915042"><ele>1027.6666666666667</ele><time>2026-04-25T14:53:53.059Z</time></trkpt><trkpt lat="42.4093985" lon="-7.2914436"><ele>1026.8333333333333</ele><time>2026-04-25T14:53:54.047Z</time></trkpt><trkpt lat="42.4093333" lon="-7.2913708"><ele>1026.0</ele><time>2026-04-25T14:53:55.049Z</time></trkpt><trkpt lat="42.4092745" lon="-7.2913023"><ele>1026.0</ele><time>2026-04-25T14:53:56.054Z</time></trkpt><trkpt lat="42.4092223" lon="-7.2912394"><ele>1026.0</ele><time>2026-04-25T14:53:57.056Z</time></trkpt><trkpt lat="42.4091361" lon="-7.2911292"><ele>1026.0</ele><time>2026-04-25T14:53:59.056Z</time></trkpt><trkpt lat="42.409078" lon="-7.2910506"><ele>1026.0</ele><time>2026-04-25T14:54:01.049Z</time></trkpt><trkpt lat="42.4090336" lon="-7.2909463"><ele>1026.0</ele><time>2026-04-25T14:54:04.05Z</time></trkpt><trkpt lat="42.4090006" lon="-7.2908442"><ele>1026.0</ele><time>2026-04-25T14:54:06.06Z</time></trkpt><trkpt lat="42.408975" lon="-7.2907502"><ele>1026.0000000000002</ele><time>2026-04-25T14:54:08.055Z</time></trkpt><trkpt lat="42.4089434" lon="-7.2906704"><ele>1026.0</ele><time>2026-04-25T14:54:10.059Z</time></trkpt><trkpt lat="42.4088816" lon="-7.2906315"><ele>1026.0</ele><time>2026-04-25T14:54:12.053Z</time></trkpt><trkpt lat="42.4088073" lon="-7.2906323"><ele>1026.0</ele><time>2026-04-25T14:55:24.049Z</time></trkpt><trkpt lat="42.40873" lon="-7.2906508"><ele>1026.0</ele><time>2026-04-25T14:56:39.059Z</time></trkpt><trkpt lat="42.4086572" lon="-7.2907061"><ele>1026.0000000000002</ele><time>2026-04-25T14:56:41.058Z</time></trkpt><trkpt lat="42.4086039" lon="-7.290771"><ele>1026.0</ele><time>2026-04-25T14:56:42.053Z</time></trkpt><trkpt lat="42.4085559" lon="-7.2908289"><ele>1025.8333333333333</ele><time>2026-04-25T14:56:43.047Z</time></trkpt><trkpt lat="42.4085048" lon="-7.2908827"><ele>1025.6666666666667</ele><time>2026-04-25T14:56:44.062Z</time></trkpt><trkpt lat="42.4084478" lon="-7.2909268"><ele>1025.5</ele><time>2026-04-25T14:56:45.06Z</time></trkpt><trkpt lat="42.4083846" lon="-7.2909588"><ele>1025.3333333333335</ele><time>2026-04-25T14:56:46.052Z</time></trkpt><trkpt lat="42.4082748" lon="-7.2909887"><ele>1025.1666666666667</ele><time>2026-04-25T14:56:48.061Z</time></trkpt><trkpt lat="42.4081593" lon="-7.2909726"><ele>1025.0</ele><time>2026-04-25T14:56:50.057Z</time></trkpt><trkpt lat="42.4080328" lon="-7.290943"><ele>1026.1666666666667</ele><time>2026-04-25T14:56:52.052Z</time></trkpt><trkpt lat="42.4079647" lon="-7.2909242"><ele>1027.3333333333335</ele><time>2026-04-25T14:56:53.06Z</time></trkpt><trkpt lat="42.4078933" lon="-7.2909015"><ele>1028.5</ele><time>2026-04-25T14:56:54.067Z</time></trkpt><trkpt lat="42.4078182" lon="-7.2908785"><ele>1029.6666666666667</ele><time>2026-04-25T14:56:55.058Z</time></trkpt><trkpt lat="42.4077403" lon="-7.2908437"><ele>1030.8333333333333</ele><time>2026-04-25T14:56:56.056Z</time></trkpt><trkpt lat="42.407662" lon="-7.2908115"><ele>1032.0</ele><time>2026-04-25T14:56:57.056Z</time></trkpt><trkpt lat="42.4075892" lon="-7.2907721"><ele>1032.0</ele><time>2026-04-25T14:56:58.055Z</time></trkpt><trkpt lat="42.4074707" lon="-7.2907233"><ele>1032.0</ele><time>2026-04-25T14:57:00.054Z</time></trkpt><trkpt lat="42.4073759" lon="-7.2907362"><ele>1032.0</ele><time>2026-04-25T14:57:02.064Z</time></trkpt><trkpt lat="42.407263" lon="-7.2907848"><ele>1032.0</ele><time>2026-04-25T14:57:04.061Z</time></trkpt><trkpt lat="42.4072007" lon="-7.290813"><ele>1032.0</ele><time>2026-04-25T14:57:05.058Z</time></trkpt><trkpt lat="42.4071349" lon="-7.2908322"><ele>1033.0</ele><time>2026-04-25T14:57:06.058Z</time></trkpt><trkpt lat="42.407069" lon="-7.2908434"><ele>1034.0</ele><time>2026-04-25T14:57:07.066Z</time></trkpt><trkpt lat="42.4069663" lon="-7.2908757"><ele>1035.0</ele><time>2026-04-25T14:57:09.062Z</time></trkpt><trkpt lat="42.4068448" lon="-7.2909095"><ele>1036.0</ele><time>2026-04-25T14:57:11.072Z</time></trkpt><trkpt lat="42.4067786" lon="-7.2909212"><ele>1037.0</ele><time>2026-04-25T14:57:12.072Z</time></trkpt><trkpt lat="42.4067114" lon="-7.2909282"><ele>1038.0</ele><time>2026-04-25T14:57:13.051Z</time></trkpt><trkpt lat="42.4066369" lon="-7.2909157"><ele>1038.0</ele><time>2026-04-25T14:57:14.049Z</time></trkpt><trkpt lat="42.4065621" lon="-7.2909107"><ele>1038.0</ele><time>2026-04-25T14:57:15.061Z</time></trkpt><trkpt lat="42.4064941" lon="-7.2909093"><ele>1038.0</ele><time>2026-04-25T14:57:16.057Z</time></trkpt><trkpt lat="42.4064254" lon="-7.2909074"><ele>1038.0</ele><time>2026-04-25T14:57:17.062Z</time></trkpt><trkpt lat="42.4063566" lon="-7.2909075"><ele>1038.0</ele><time>2026-04-25T14:57:18.062Z</time></trkpt><trkpt lat="42.4062863" lon="-7.2909094"><ele>1038.0</ele><time>2026-04-25T14:57:19.05Z</time></trkpt><trkpt lat="42.4062136" lon="-7.2909139"><ele>1038.0</ele><time>2026-04-25T14:57:20.047Z</time></trkpt><trkpt lat="42.4061457" lon="-7.2909131"><ele>1038.6666666666667</ele><time>2026-04-25T14:57:21.055Z</time></trkpt><trkpt lat="42.4060763" lon="-7.2909073"><ele>1039.3333333333333</ele><time>2026-04-25T14:57:22.046Z</time></trkpt><trkpt lat="42.4060069" lon="-7.2908969"><ele>1040.0</ele><time>2026-04-25T14:57:23.048Z</time></trkpt><trkpt lat="42.4059042" lon="-7.2908714"><ele>1040.6666666666665</ele><time>2026-04-25T14:57:25.049Z</time></trkpt><trkpt lat="42.4058427" lon="-7.2908314"><ele>1041.3333333333333</ele><time>2026-04-25T14:57:28.078Z</time></trkpt><trkpt lat="42.4057642" lon="-7.2908011"><ele>1042.0</ele><time>2026-04-25T14:57:37.065Z</time></trkpt><trkpt lat="42.4056793" lon="-7.2907843"><ele>1042.0</ele><time>2026-04-25T14:57:39.06Z</time></trkpt><trkpt lat="42.405582" lon="-7.2907682"><ele>1042.0</ele><time>2026-04-25T14:57:41.051Z</time></trkpt><trkpt lat="42.4054691" lon="-7.2907345"><ele>1042.0</ele><time>2026-04-25T14:57:43.053Z</time></trkpt><trkpt lat="42.4054096" lon="-7.2906934"><ele>1042.0</ele><time>2026-04-25T14:57:44.064Z</time></trkpt><trkpt lat="42.405353" lon="-7.2906528"><ele>1042.0</ele><time>2026-04-25T14:57:45.061Z</time></trkpt><trkpt lat="42.4052977" lon="-7.2906097"><ele>1042.0</ele><time>2026-04-25T14:57:46.049Z</time></trkpt><trkpt lat="42.4052496" lon="-7.2905497"><ele>1040.6</ele><time>2026-04-25T14:57:47.062Z</time></trkpt><trkpt lat="42.4051771" lon="-7.2904286"><ele>1039.2</ele><time>2026-04-25T14:57:49.049Z</time></trkpt><trkpt lat="42.4051268" lon="-7.2903204"><ele>1037.8</ele><time>2026-04-25T14:57:51.045Z</time></trkpt><trkpt lat="42.4050753" lon="-7.2902149"><ele>1036.4</ele><time>2026-04-25T14:57:53.049Z</time></trkpt><trkpt lat="42.4050295" lon="-7.2901256"><ele>1035.0</ele><time>2026-04-25T14:57:55.046Z</time></trkpt><trkpt lat="42.4049907" lon="-7.290049"><ele>1035.0</ele><time>2026-04-25T14:57:59.054Z</time></trkpt><trkpt lat="42.4049469" lon="-7.289962"><ele>1035.0</ele><time>2026-04-25T14:58:07.056Z</time></trkpt><trkpt lat="42.4049169" lon="-7.2898768"><ele>1035.0</ele><time>2026-04-25T14:58:09.049Z</time></trkpt><trkpt lat="42.4048758" lon="-7.2897714"><ele>1035.0</ele><time>2026-04-25T14:58:11.048Z</time></trkpt><trkpt lat="42.4048407" lon="-7.2896582"><ele>1035.0</ele><time>2026-04-25T14:58:13.056Z</time></trkpt><trkpt lat="42.4047855" lon="-7.2895612"><ele>1035.0</ele><time>2026-04-25T14:58:15.052Z</time></trkpt><trkpt lat="42.4047184" lon="-7.2895275"><ele>1033.0</ele><time>2026-04-25T14:58:17.049Z</time></trkpt><trkpt lat="42.4046382" lon="-7.2895712"><ele>1031.0</ele><time>2026-04-25T14:58:20.062Z</time></trkpt><trkpt lat="42.4046404" lon="-7.2896802"><ele>1029.0</ele><time>2026-04-25T14:58:22.047Z</time></trkpt><trkpt lat="42.4046271" lon="-7.2898309"><ele>1027.0</ele><time>2026-04-25T14:58:24.043Z</time></trkpt><trkpt lat="42.4046215" lon="-7.2899172"><ele>1025.0</ele><time>2026-04-25T14:58:25.055Z</time></trkpt><trkpt lat="42.404625" lon="-7.2900033"><ele>1023.0</ele><time>2026-04-25T14:58:26.055Z</time></trkpt><trkpt lat="42.4046046" lon="-7.2901694"><ele>1023.0</ele><time>2026-04-25T14:58:28.053Z</time></trkpt><trkpt lat="42.4044992" lon="-7.2902481"><ele>1023.0</ele><time>2026-04-25T14:58:30.047Z</time></trkpt><trkpt lat="42.4044325" lon="-7.2902604"><ele>1023.0</ele><time>2026-04-25T14:58:31.056Z</time></trkpt><trkpt lat="42.404358" lon="-7.2902609"><ele>1023.0</ele><time>2026-04-25T14:58:32.056Z</time></trkpt><trkpt lat="42.404283" lon="-7.2902723"><ele>1023.0</ele><time>2026-04-25T14:58:33.055Z</time></trkpt><trkpt lat="42.4042116" lon="-7.2903065"><ele>1023.0</ele><time>2026-04-25T14:58:34.051Z</time></trkpt><trkpt lat="42.4041496" lon="-7.2903585"><ele>1023.0</ele><time>2026-04-25T14:58:35.052Z</time></trkpt><trkpt lat="42.4040952" lon="-7.2904061"><ele>1023.0</ele><time>2026-04-25T14:58:36.051Z</time></trkpt><trkpt lat="42.4039817" lon="-7.290491"><ele>1023.0</ele><time>2026-04-25T14:58:38.047Z</time></trkpt><trkpt lat="42.4039144" lon="-7.2905272"><ele>1023.0</ele><time>2026-04-25T14:58:39.054Z</time></trkpt><trkpt lat="42.4038433" lon="-7.2905564"><ele>1023.0</ele><time>2026-04-25T14:58:40.053Z</time></trkpt><trkpt lat="42.4037702" lon="-7.2905786"><ele>1023.0</ele><time>2026-04-25T14:58:41.044Z</time></trkpt><trkpt lat="42.4036957" lon="-7.2905882"><ele>1021.7142857142858</ele><time>2026-04-25T14:58:42.05Z</time></trkpt><trkpt lat="42.4036191" lon="-7.2905888"><ele>1020.4285714285713</ele><time>2026-04-25T14:58:43.051Z</time></trkpt><trkpt lat="42.4035434" lon="-7.2905821"><ele>1019.1428571428571</ele><time>2026-04-25T14:58:44.051Z</time></trkpt><trkpt lat="42.4034694" lon="-7.2905711"><ele>1017.8571428571429</ele><time>2026-04-25T14:58:45.049Z</time></trkpt><trkpt lat="42.4033967" lon="-7.2905561"><ele>1016.5714285714287</ele><time>2026-04-25T14:58:46.053Z</time></trkpt><trkpt lat="42.4033264" lon="-7.2905404"><ele>1015.2857142857142</ele><time>2026-04-25T14:58:47.047Z</time></trkpt><trkpt lat="42.4032613" lon="-7.2905176"><ele>1014.0</ele><time>2026-04-25T14:58:48.047Z</time></trkpt><trkpt lat="42.4031938" lon="-7.2905012"><ele>1014.0</ele><time>2026-04-25T14:58:49.047Z</time></trkpt><trkpt lat="42.4031314" lon="-7.2904859"><ele>1014.0</ele><time>2026-04-25T14:58:50.049Z</time></trkpt><trkpt lat="42.4030678" lon="-7.2904722"><ele>1014.0</ele><time>2026-04-25T14:58:51.047Z</time></trkpt><trkpt lat="42.4030047" lon="-7.2904596"><ele>1014.0</ele><time>2026-04-25T14:58:52.05Z</time></trkpt><trkpt lat="42.4029414" lon="-7.2904395"><ele>1014.0</ele><time>2026-04-25T14:58:53.051Z</time></trkpt><trkpt lat="42.4028788" lon="-7.2904152"><ele>1014.0</ele><time>2026-04-25T14:58:54.052Z</time></trkpt><trkpt lat="42.402815" lon="-7.2903889"><ele>1014.0</ele><time>2026-04-25T14:58:55.049Z</time></trkpt><trkpt lat="42.4027494" lon="-7.2903664"><ele>1013.3333333333334</ele><time>2026-04-25T14:58:56.05Z</time></trkpt><trkpt lat="42.4026851" lon="-7.2903507"><ele>1012.6666666666667</ele><time>2026-04-25T14:58:57.052Z</time></trkpt><trkpt lat="42.4026208" lon="-7.290341"><ele>1012.0</ele><time>2026-04-25T14:58:58.05Z</time></trkpt><trkpt lat="42.4025575" lon="-7.2903321"><ele>1011.3333333333334</ele><time>2026-04-25T14:58:59.043Z</time></trkpt><trkpt lat="42.4024336" lon="-7.2903148"><ele>1010.6666666666667</ele><time>2026-04-25T14:59:01.053Z</time></trkpt><trkpt lat="42.4023098" lon="-7.2902956"><ele>1010.0</ele><time>2026-04-25T14:59:03.045Z</time></trkpt><trkpt lat="42.4022463" lon="-7.2902769"><ele>1010.0000000000001</ele><time>2026-04-25T14:59:04.058Z</time></trkpt><trkpt lat="42.4021845" lon="-7.2902572"><ele>1010.0</ele><time>2026-04-25T14:59:05.057Z</time></trkpt><trkpt lat="42.4021229" lon="-7.2902352"><ele>1010.0</ele><time>2026-04-25T14:59:06.049Z</time></trkpt><trkpt lat="42.4019949" lon="-7.2901964"><ele>1010.0</ele><time>2026-04-25T14:59:08.055Z</time></trkpt><trkpt lat="42.4019268" lon="-7.290182"><ele>1010.0000000000001</ele><time>2026-04-25T14:59:09.057Z</time></trkpt><trkpt lat="42.4018116" lon="-7.2901459"><ele>1010.0</ele><time>2026-04-25T14:59:11.055Z</time></trkpt><trkpt lat="42.4017103" lon="-7.2901168"><ele>1008.0</ele><time>2026-04-25T14:59:13.055Z</time></trkpt><trkpt lat="42.4015989" lon="-7.2901258"><ele>1006.0</ele><time>2026-04-25T14:59:15.057Z</time></trkpt><trkpt lat="42.4014792" lon="-7.2901428"><ele>1004.0</ele><time>2026-04-25T14:59:17.051Z</time></trkpt><trkpt lat="42.4013832" lon="-7.29018"><ele>1002.0</ele><time>2026-04-25T14:59:19.052Z</time></trkpt><trkpt lat="42.4012732" lon="-7.2902339"><ele>1000.0</ele><time>2026-04-25T14:59:21.045Z</time></trkpt><trkpt lat="42.4012169" lon="-7.2902755"><ele>997.8333333333333</ele><time>2026-04-25T14:59:22.055Z</time></trkpt><trkpt lat="42.401161" lon="-7.2903157"><ele>995.6666666666666</ele><time>2026-04-25T14:59:23.052Z</time></trkpt><trkpt lat="42.4011005" lon="-7.2903653"><ele>993.5</ele><time>2026-04-25T14:59:24.048Z</time></trkpt><trkpt lat="42.4010422" lon="-7.290409"><ele>991.3333333333333</ele><time>2026-04-25T14:59:25.048Z</time></trkpt><trkpt lat="42.4009216" lon="-7.2904478"><ele>989.1666666666666</ele><time>2026-04-25T14:59:27.045Z</time></trkpt><trkpt lat="42.4008546" lon="-7.2904696"><ele>987.0</ele><time>2026-04-25T14:59:28.051Z</time></trkpt><trkpt lat="42.4007497" lon="-7.2904899"><ele>987.0</ele><time>2026-04-25T14:59:30.061Z</time></trkpt><trkpt lat="42.4006426" lon="-7.2905146"><ele>987.0</ele><time>2026-04-25T14:59:32.047Z</time></trkpt><trkpt lat="42.4005582" lon="-7.2905471"><ele>987.0</ele><time>2026-04-25T14:59:34.056Z</time></trkpt><trkpt lat="42.4004578" lon="-7.2905742"><ele>987.0</ele><time>2026-04-25T14:59:36.056Z</time></trkpt><trkpt lat="42.4003369" lon="-7.2906055"><ele>987.0</ele><time>2026-04-25T14:59:38.045Z</time></trkpt><trkpt lat="42.4002236" lon="-7.2906327"><ele>984.5</ele><time>2026-04-25T14:59:40.055Z</time></trkpt><trkpt lat="42.4001097" lon="-7.2906407"><ele>982.0</ele><time>2026-04-25T14:59:42.055Z</time></trkpt><trkpt lat="42.3999906" lon="-7.2906251"><ele>979.5</ele><time>2026-04-25T14:59:44.054Z</time></trkpt><trkpt lat="42.3998747" lon="-7.2905995"><ele>977.0</ele><time>2026-04-25T14:59:46.056Z</time></trkpt><trkpt lat="42.3997689" lon="-7.2905783"><ele>975.0000000000001</ele><time>2026-04-25T14:59:48.056Z</time></trkpt><trkpt lat="42.3996586" lon="-7.2905204"><ele>973.0</ele><time>2026-04-25T14:59:50.051Z</time></trkpt><trkpt lat="42.3995624" lon="-7.2904193"><ele>971.0</ele><time>2026-04-25T14:59:52.051Z</time></trkpt><trkpt lat="42.3995159" lon="-7.2903496"><ele>969.0</ele><time>2026-04-25T14:59:53.05Z</time></trkpt><trkpt lat="42.3994713" lon="-7.2902802"><ele>967.0000000000001</ele><time>2026-04-25T14:59:54.049Z</time></trkpt><trkpt lat="42.3994268" lon="-7.2902139"><ele>965.0</ele><time>2026-04-25T14:59:55.05Z</time></trkpt><trkpt lat="42.3993863" lon="-7.2901467"><ele>965.0</ele><time>2026-04-25T14:59:56.063Z</time></trkpt><trkpt lat="42.3993135" lon="-7.2900201"><ele>965.0</ele><time>2026-04-25T14:59:58.051Z</time></trkpt><trkpt lat="42.3992614" lon="-7.2899355"><ele>965.0</ele><time>2026-04-25T15:00:00.045Z</time></trkpt><trkpt lat="42.3991752" lon="-7.2898892"><ele>965.0</ele><time>2026-04-25T15:00:02.065Z</time></trkpt><trkpt lat="42.3990717" lon="-7.2898596"><ele>965.0</ele><time>2026-04-25T15:00:04.062Z</time></trkpt><trkpt lat="42.3990089" lon="-7.2898535"><ele>965.0</ele><time>2026-04-25T15:00:05.051Z</time></trkpt><trkpt lat="42.3988874" lon="-7.2898377"><ele>965.0</ele><time>2026-04-25T15:00:07.046Z</time></trkpt><trkpt lat="42.3987802" lon="-7.2898261"><ele>965.0</ele><time>2026-04-25T15:00:09.056Z</time></trkpt><trkpt lat="42.3986681" lon="-7.2898465"><ele>965.0</ele><time>2026-04-25T15:00:11.05Z</time></trkpt><trkpt lat="42.3985715" lon="-7.289898"><ele>965.0</ele><time>2026-04-25T15:00:13.062Z</time></trkpt><trkpt lat="42.3985166" lon="-7.2899916"><ele>962.8333333333334</ele><time>2026-04-25T15:00:15.051Z</time></trkpt><trkpt lat="42.3985022" lon="-7.2901081"><ele>960.6666666666667</ele><time>2026-04-25T15:00:17.059Z</time></trkpt><trkpt lat="42.3985234" lon="-7.2902088"><ele>958.5</ele><time>2026-04-25T15:00:19.05Z</time></trkpt><trkpt lat="42.398505" lon="-7.2903063"><ele>956.3333333333333</ele><time>2026-04-25T15:00:33.06Z</time></trkpt><trkpt lat="42.3984408" lon="-7.2902407"><ele>954.1666666666666</ele><time>2026-04-25T15:00:36.047Z</time></trkpt><trkpt lat="42.3983721" lon="-7.2901525"><ele>952.0</ele><time>2026-04-25T15:00:38.054Z</time></trkpt><trkpt lat="42.3983103" lon="-7.2900658"><ele>951.9999999999999</ele><time>2026-04-25T15:00:40.044Z</time></trkpt><trkpt lat="42.3982385" lon="-7.2899815"><ele>952.0</ele><time>2026-04-25T15:00:42.052Z</time></trkpt><trkpt lat="42.3981639" lon="-7.2898898"><ele>952.0</ele><time>2026-04-25T15:00:44.049Z</time></trkpt><trkpt lat="42.3981079" lon="-7.2898021"><ele>952.0</ele><time>2026-04-25T15:00:46.062Z</time></trkpt><trkpt lat="42.3980588" lon="-7.2897417"><ele>951.9999999999999</ele><time>2026-04-25T15:00:48.056Z</time></trkpt><trkpt lat="42.3980022" lon="-7.2896711"><ele>952.0</ele><time>2026-04-25T15:00:51.048Z</time></trkpt><trkpt lat="42.3980565" lon="-7.2897699"><ele>951.9999999999999</ele><time>2026-04-25T15:01:19.057Z</time></trkpt><trkpt lat="42.3981022" lon="-7.2898447"><ele>952.0</ele><time>2026-04-25T15:01:20.056Z</time></trkpt><trkpt lat="42.3981596" lon="-7.2899329"><ele>952.0</ele><time>2026-04-25T15:01:21.045Z</time></trkpt><trkpt lat="42.3982275" lon="-7.2900219"><ele>952.0</ele><time>2026-04-25T15:01:22.048Z</time></trkpt><trkpt lat="42.3982967" lon="-7.2901162"><ele>951.9999999999999</ele><time>2026-04-25T15:01:23.055Z</time></trkpt><trkpt lat="42.3983674" lon="-7.2901927"><ele>952.0</ele><time>2026-04-25T15:01:24.047Z</time></trkpt><trkpt lat="42.398425" lon="-7.2902536"><ele>951.9999999999999</ele><time>2026-04-25T15:01:25.053Z</time></trkpt><trkpt lat="42.3984861" lon="-7.2903117"><ele>952.0</ele><time>2026-04-25T15:01:26.058Z</time></trkpt><trkpt lat="42.3985448" lon="-7.2903707"><ele>952.0</ele><time>2026-04-25T15:01:27.047Z</time></trkpt><trkpt lat="42.3985959" lon="-7.2904465"><ele>952.0</ele><time>2026-04-25T15:01:28.054Z</time></trkpt><trkpt lat="42.3986421" lon="-7.2905151"><ele>951.9999999999999</ele><time>2026-04-25T15:01:29.044Z</time></trkpt><trkpt lat="42.3986994" lon="-7.2906484"><ele>952.0</ele><time>2026-04-25T15:01:31.045Z</time></trkpt><trkpt lat="42.3986955" lon="-7.2907912"><ele>951.4999999999999</ele><time>2026-04-25T15:01:33.043Z</time></trkpt><trkpt lat="42.3986758" lon="-7.2908783"><ele>951.0</ele><time>2026-04-25T15:01:34.055Z</time></trkpt><trkpt lat="42.3986479" lon="-7.2909818"><ele>950.5</ele><time>2026-04-25T15:01:35.049Z</time></trkpt><trkpt lat="42.3986166" lon="-7.2910972"><ele>950.0</ele><time>2026-04-25T15:01:36.051Z</time></trkpt><trkpt lat="42.3985917" lon="-7.291216"><ele>949.4999999999999</ele><time>2026-04-25T15:01:37.047Z</time></trkpt><trkpt lat="42.3985765" lon="-7.2913232"><ele>949.0</ele><time>2026-04-25T15:01:38.054Z</time></trkpt><trkpt lat="42.3985478" lon="-7.2914093"><ele>949.6666666666666</ele><time>2026-04-25T15:01:39.048Z</time></trkpt><trkpt lat="42.398471" lon="-7.2915331"><ele>950.3333333333333</ele><time>2026-04-25T15:01:41.057Z</time></trkpt><trkpt lat="42.3983817" lon="-7.2915706"><ele>951.0</ele><time>2026-04-25T15:01:43.052Z</time></trkpt><trkpt lat="42.3983154" lon="-7.2915533"><ele>951.6666666666667</ele><time>2026-04-25T15:01:44.047Z</time></trkpt><trkpt lat="42.3982497" lon="-7.2915351"><ele>952.3333333333334</ele><time>2026-04-25T15:01:45.05Z</time></trkpt><trkpt lat="42.3981777" lon="-7.2914956"><ele>953.0</ele><time>2026-04-25T15:01:46.044Z</time></trkpt><trkpt lat="42.3981092" lon="-7.2914586"><ele>953.0000000000001</ele><time>2026-04-25T15:01:47.045Z</time></trkpt><trkpt lat="42.3980341" lon="-7.2914308"><ele>953.0</ele><time>2026-04-25T15:01:48.051Z</time></trkpt><trkpt lat="42.3979588" lon="-7.2914034"><ele>953.0</ele><time>2026-04-25T15:01:49.049Z</time></trkpt><trkpt lat="42.3978843" lon="-7.291377"><ele>953.0</ele><time>2026-04-25T15:01:50.056Z</time></trkpt><trkpt lat="42.3978005" lon="-7.2913558"><ele>953.0000000000001</ele><time>2026-04-25T15:01:51.059Z</time></trkpt><trkpt lat="42.3977204" lon="-7.291343"><ele>953.0</ele><time>2026-04-25T15:01:52.058Z</time></trkpt><trkpt lat="42.39765" lon="-7.291333"><ele>952.8333333333334</ele><time>2026-04-25T15:01:53.049Z</time></trkpt><trkpt lat="42.3975664" lon="-7.2913433"><ele>952.6666666666667</ele><time>2026-04-25T15:01:54.057Z</time></trkpt><trkpt lat="42.3974763" lon="-7.2913614"><ele>952.5</ele><time>2026-04-25T15:01:55.05Z</time></trkpt><trkpt lat="42.3973827" lon="-7.2913758"><ele>952.3333333333333</ele><time>2026-04-25T15:01:56.054Z</time></trkpt><trkpt lat="42.3972846" lon="-7.2913958"><ele>952.1666666666666</ele><time>2026-04-25T15:01:57.047Z</time></trkpt><trkpt lat="42.3972099" lon="-7.2914154"><ele>952.0</ele><time>2026-04-25T15:01:58.047Z</time></trkpt><trkpt lat="42.3971375" lon="-7.2914375"><ele>954.6</ele><time>2026-04-25T15:01:59.061Z</time></trkpt><trkpt lat="42.3970582" lon="-7.2914727"><ele>957.2</ele><time>2026-04-25T15:02:00.059Z</time></trkpt><trkpt lat="42.3969674" lon="-7.2915048"><ele>959.8</ele><time>2026-04-25T15:02:01.063Z</time></trkpt><trkpt lat="42.396868" lon="-7.2915141"><ele>962.4</ele><time>2026-04-25T15:02:02.051Z</time></trkpt><trkpt lat="42.3967614" lon="-7.2914989"><ele>965.0</ele><time>2026-04-25T15:02:03.059Z</time></trkpt><trkpt lat="42.3966439" lon="-7.2914554"><ele>965.5</ele><time>2026-04-25T15:02:04.05Z</time></trkpt><trkpt lat="42.3965182" lon="-7.2913822"><ele>966.0</ele><time>2026-04-25T15:02:05.048Z</time></trkpt><trkpt lat="42.3963893" lon="-7.2912869"><ele>966.5</ele><time>2026-04-25T15:02:06.053Z</time></trkpt><trkpt lat="42.3962837" lon="-7.2911829"><ele>967.0</ele><time>2026-04-25T15:02:07.048Z</time></trkpt><trkpt lat="42.3961926" lon="-7.2910809"><ele>967.0</ele><time>2026-04-25T15:02:08.048Z</time></trkpt><trkpt lat="42.3961096" lon="-7.2909954"><ele>967.0</ele><time>2026-04-25T15:02:09.051Z</time></trkpt><trkpt lat="42.3960153" lon="-7.2909155"><ele>967.0</ele><time>2026-04-25T15:02:10.056Z</time></trkpt><trkpt lat="42.3959169" lon="-7.2908332"><ele>967.0</ele><time>2026-04-25T15:02:11.048Z</time></trkpt><trkpt lat="42.3958138" lon="-7.2907602"><ele>967.0</ele><time>2026-04-25T15:02:12.053Z</time></trkpt><trkpt lat="42.3957234" lon="-7.2906952"><ele>966.9999999999999</ele><time>2026-04-25T15:02:13.062Z</time></trkpt><trkpt lat="42.3956481" lon="-7.2906413"><ele>967.0</ele><time>2026-04-25T15:02:14.048Z</time></trkpt><trkpt lat="42.3955528" lon="-7.2905632"><ele>967.0</ele><time>2026-04-25T15:02:16.048Z</time></trkpt><trkpt lat="42.3954973" lon="-7.2904981"><ele>967.0</ele><time>2026-04-25T15:02:18.061Z</time></trkpt><trkpt lat="42.3954388" lon="-7.2904251"><ele>966.9999999999999</ele><time>2026-04-25T15:02:25.052Z</time></trkpt><trkpt lat="42.3953558" lon="-7.290392"><ele>967.0</ele><time>2026-04-25T15:02:28.049Z</time></trkpt><trkpt lat="42.3953014" lon="-7.2903224"><ele>965.8333333333333</ele><time>2026-04-25T15:06:59.049Z</time></trkpt><trkpt lat="42.3953474" lon="-7.2901677"><ele>964.6666666666666</ele><time>2026-04-25T15:07:01.051Z</time></trkpt><trkpt lat="42.3953723" lon="-7.2900715"><ele>963.5</ele><time>2026-04-25T15:07:02.051Z</time></trkpt><trkpt lat="42.3953885" lon="-7.2899765"><ele>962.3333333333333</ele><time>2026-04-25T15:07:03.047Z</time></trkpt><trkpt lat="42.3954046" lon="-7.2898752"><ele>961.1666666666666</ele><time>2026-04-25T15:07:04.045Z</time></trkpt><trkpt lat="42.3954247" lon="-7.2897715"><ele>960.0</ele><time>2026-04-25T15:07:05.052Z</time></trkpt><trkpt lat="42.3954446" lon="-7.289672"><ele>959.0</ele><time>2026-04-25T15:07:06.057Z</time></trkpt><trkpt lat="42.3954665" lon="-7.2895772"><ele>958.0</ele><time>2026-04-25T15:07:07.054Z</time></trkpt><trkpt lat="42.3955039" lon="-7.2894284"><ele>957.0</ele><time>2026-04-25T15:07:09.05Z</time></trkpt><trkpt lat="42.3955092" lon="-7.2892832"><ele>956.0</ele><time>2026-04-25T15:07:11.053Z</time></trkpt><trkpt lat="42.395494" lon="-7.2891369"><ele>955.0</ele><time>2026-04-25T15:07:13.053Z</time></trkpt><trkpt lat="42.3954453" lon="-7.2890078"><ele>954.2</ele><time>2026-04-25T15:07:15.049Z</time></trkpt><trkpt lat="42.3953565" lon="-7.2889147"><ele>953.4</ele><time>2026-04-25T15:07:17.058Z</time></trkpt><trkpt lat="42.3952586" lon="-7.2888169"><ele>952.5999999999999</ele><time>2026-04-25T15:07:19.053Z</time></trkpt><trkpt lat="42.3951711" lon="-7.2887324"><ele>951.8</ele><time>2026-04-25T15:07:21.046Z</time></trkpt><trkpt lat="42.3950906" lon="-7.2886596"><ele>951.0</ele><time>2026-04-25T15:07:23.046Z</time></trkpt><trkpt lat="42.3950207" lon="-7.2885902"><ele>951.0</ele><time>2026-04-25T15:07:25.059Z</time></trkpt><trkpt lat="42.3949421" lon="-7.288554"><ele>951.0</ele><time>2026-04-25T15:07:27.06Z</time></trkpt><trkpt lat="42.3948609" lon="-7.2885287"><ele>951.0</ele><time>2026-04-25T15:07:29.049Z</time></trkpt><trkpt lat="42.3947752" lon="-7.2884922"><ele>951.0</ele><time>2026-04-25T15:07:31.046Z</time></trkpt><trkpt lat="42.3946928" lon="-7.2885028"><ele>951.0</ele><time>2026-04-25T15:07:33.042Z</time></trkpt><trkpt lat="42.3946393" lon="-7.2885719"><ele>951.0</ele><time>2026-04-25T15:07:35.058Z</time></trkpt><trkpt lat="42.3946028" lon="-7.288704"><ele>951.1666666666666</ele><time>2026-04-25T15:07:37.046Z</time></trkpt><trkpt lat="42.3945887" lon="-7.2887874"><ele>951.3333333333333</ele><time>2026-04-25T15:07:38.041Z</time></trkpt><trkpt lat="42.3945676" lon="-7.2888747"><ele>951.5</ele><time>2026-04-25T15:07:39.063Z</time></trkpt><trkpt lat="42.3945351" lon="-7.2889516"><ele>951.6666666666666</ele><time>2026-04-25T15:07:40.055Z</time></trkpt><trkpt lat="42.3944574" lon="-7.2890442"><ele>951.8333333333333</ele><time>2026-04-25T15:07:42.053Z</time></trkpt><trkpt lat="42.3943736" lon="-7.2890983"><ele>952.0</ele><time>2026-04-25T15:07:44.056Z</time></trkpt><trkpt lat="42.3943134" lon="-7.2891276"><ele>951.9999999999999</ele><time>2026-04-25T15:07:45.045Z</time></trkpt><trkpt lat="42.3942499" lon="-7.2891504"><ele>952.0</ele><time>2026-04-25T15:07:46.065Z</time></trkpt><trkpt lat="42.3941838" lon="-7.2891709"><ele>952.0</ele><time>2026-04-25T15:07:47.063Z</time></trkpt><trkpt lat="42.3941114" lon="-7.2891908"><ele>952.0</ele><time>2026-04-25T15:07:48.049Z</time></trkpt><trkpt lat="42.3940329" lon="-7.289217"><ele>951.9999999999999</ele><time>2026-04-25T15:07:49.05Z</time></trkpt><trkpt lat="42.3939485" lon="-7.2892477"><ele>952.0</ele><time>2026-04-25T15:07:50.048Z</time></trkpt><trkpt lat="42.3938744" lon="-7.2892734"><ele>952.4285714285714</ele><time>2026-04-25T15:07:51.056Z</time></trkpt><trkpt lat="42.3938049" lon="-7.2892958"><ele>952.8571428571429</ele><time>2026-04-25T15:07:52.048Z</time></trkpt><trkpt lat="42.3937358" lon="-7.2893164"><ele>953.2857142857142</ele><time>2026-04-25T15:07:53.056Z</time></trkpt><trkpt lat="42.3936658" lon="-7.2893341"><ele>953.7142857142857</ele><time>2026-04-25T15:07:54.051Z</time></trkpt><trkpt lat="42.3935949" lon="-7.2893465"><ele>954.1428571428571</ele><time>2026-04-25T15:07:55.058Z</time></trkpt><trkpt lat="42.393523" lon="-7.2893527"><ele>954.5714285714284</ele><time>2026-04-25T15:07:56.05Z</time></trkpt><trkpt lat="42.3934497" lon="-7.2893544"><ele>954.9999999999999</ele><time>2026-04-25T15:07:57.05Z</time></trkpt><trkpt lat="42.3933747" lon="-7.2893481"><ele>954.9999999999999</ele><time>2026-04-25T15:07:58.048Z</time></trkpt><trkpt lat="42.3932982" lon="-7.2893346"><ele>955.0</ele><time>2026-04-25T15:07:59.052Z</time></trkpt><trkpt lat="42.3932191" lon="-7.2893161"><ele>955.0</ele><time>2026-04-25T15:08:00.045Z</time></trkpt><trkpt lat="42.3931395" lon="-7.2892972"><ele>955.0</ele><time>2026-04-25T15:08:01.048Z</time></trkpt><trkpt lat="42.3930604" lon="-7.2892661"><ele>954.9999999999999</ele><time>2026-04-25T15:08:02.054Z</time></trkpt><trkpt lat="42.3929803" lon="-7.2892365"><ele>955.0</ele><time>2026-04-25T15:08:03.046Z</time></trkpt><trkpt lat="42.3928957" lon="-7.2892057"><ele>957.6</ele><time>2026-04-25T15:08:04.048Z</time></trkpt><trkpt lat="42.3928131" lon="-7.2891736"><ele>960.2</ele><time>2026-04-25T15:08:05.058Z</time></trkpt><trkpt lat="42.3927301" lon="-7.2891377"><ele>962.8</ele><time>2026-04-25T15:08:06.057Z</time></trkpt><trkpt lat="42.3926426" lon="-7.2891051"><ele>965.4</ele><time>2026-04-25T15:08:07.047Z</time></trkpt><trkpt lat="42.3925494" lon="-7.2890797"><ele>968.0</ele><time>2026-04-25T15:08:08.062Z</time></trkpt><trkpt lat="42.3924556" lon="-7.2890554"><ele>968.0</ele><time>2026-04-25T15:08:09.05Z</time></trkpt><trkpt lat="42.3923557" lon="-7.2890557"><ele>968.0</ele><time>2026-04-25T15:08:10.047Z</time></trkpt><trkpt lat="42.3922563" lon="-7.2890761"><ele>968.0</ele><time>2026-04-25T15:08:11.049Z</time></trkpt><trkpt lat="42.3921627" lon="-7.2891167"><ele>968.0</ele><time>2026-04-25T15:08:12.05Z</time></trkpt><trkpt lat="42.392068" lon="-7.2891556"><ele>968.0</ele><time>2026-04-25T15:08:13.044Z</time></trkpt><trkpt lat="42.3919677" lon="-7.2891818"><ele>969.5999999999999</ele><time>2026-04-25T15:08:14.061Z</time></trkpt><trkpt lat="42.3918616" lon="-7.2891926"><ele>971.1999999999999</ele><time>2026-04-25T15:08:15.048Z</time></trkpt><trkpt lat="42.3917524" lon="-7.2891898"><ele>972.8</ele><time>2026-04-25T15:08:16.041Z</time></trkpt><trkpt lat="42.3916434" lon="-7.2891725"><ele>974.4</ele><time>2026-04-25T15:08:17.054Z</time></trkpt><trkpt lat="42.3915342" lon="-7.2891418"><ele>976.0</ele><time>2026-04-25T15:08:18.055Z</time></trkpt><trkpt lat="42.3914252" lon="-7.2891039"><ele>976.5999999999999</ele><time>2026-04-25T15:08:19.051Z</time></trkpt><trkpt lat="42.3913201" lon="-7.2890621"><ele>977.1999999999999</ele><time>2026-04-25T15:08:20.057Z</time></trkpt><trkpt lat="42.391215" lon="-7.2890187"><ele>977.8000000000001</ele><time>2026-04-25T15:08:21.056Z</time></trkpt><trkpt lat="42.3911083" lon="-7.2889786"><ele>978.4000000000001</ele><time>2026-04-25T15:08:22.045Z</time></trkpt><trkpt lat="42.391008" lon="-7.2889603"><ele>979.0</ele><time>2026-04-25T15:08:23.059Z</time></trkpt><trkpt lat="42.3909167" lon="-7.2889644"><ele>978.9999999999999</ele><time>2026-04-25T15:08:24.061Z</time></trkpt><trkpt lat="42.3908339" lon="-7.2889803"><ele>979.0</ele><time>2026-04-25T15:08:25.047Z</time></trkpt><trkpt lat="42.3907595" lon="-7.2890013"><ele>979.0</ele><time>2026-04-25T15:08:26.055Z</time></trkpt><trkpt lat="42.390691" lon="-7.2890241"><ele>979.0</ele><time>2026-04-25T15:08:27.046Z</time></trkpt><trkpt lat="42.3906276" lon="-7.2890449"><ele>978.9999999999999</ele><time>2026-04-25T15:08:28.048Z</time></trkpt><trkpt lat="42.3905197" lon="-7.2890476"><ele>979.0</ele><time>2026-04-25T15:08:30.055Z</time></trkpt><trkpt lat="42.3904134" lon="-7.2889879"><ele>978.7142857142857</ele><time>2026-04-25T15:08:32.066Z</time></trkpt><trkpt lat="42.3903585" lon="-7.2889415"><ele>978.4285714285716</ele><time>2026-04-25T15:08:33.068Z</time></trkpt><trkpt lat="42.390301" lon="-7.2888927"><ele>978.1428571428572</ele><time>2026-04-25T15:08:34.046Z</time></trkpt><trkpt lat="42.3902396" lon="-7.2888461"><ele>977.8571428571429</ele><time>2026-04-25T15:08:35.056Z</time></trkpt><trkpt lat="42.3901761" lon="-7.2888026"><ele>977.5714285714287</ele><time>2026-04-25T15:08:36.054Z</time></trkpt><trkpt lat="42.3901114" lon="-7.2887585"><ele>977.2857142857144</ele><time>2026-04-25T15:08:37.056Z</time></trkpt><trkpt lat="42.3900463" lon="-7.2887131"><ele>977.0000000000001</ele><time>2026-04-25T15:08:38.048Z</time></trkpt><trkpt lat="42.3899803" lon="-7.2886674"><ele>977.0000000000001</ele><time>2026-04-25T15:08:39.049Z</time></trkpt><trkpt lat="42.3899133" lon="-7.2886211"><ele>977.0</ele><time>2026-04-25T15:08:40.058Z</time></trkpt><trkpt lat="42.3898461" lon="-7.2885736"><ele>977.0</ele><time>2026-04-25T15:08:41.046Z</time></trkpt><trkpt lat="42.3897786" lon="-7.288524"><ele>977.0</ele><time>2026-04-25T15:08:42.054Z</time></trkpt><trkpt lat="42.3897108" lon="-7.2884718"><ele>977.0000000000001</ele><time>2026-04-25T15:08:43.049Z</time></trkpt><trkpt lat="42.3896434" lon="-7.2884161"><ele>977.0</ele><time>2026-04-25T15:08:44.06Z</time></trkpt><trkpt lat="42.3895827" lon="-7.2883579"><ele>976.0</ele><time>2026-04-25T15:08:45.061Z</time></trkpt><trkpt lat="42.3895312" lon="-7.2882931"><ele>975.0</ele><time>2026-04-25T15:08:46.06Z</time></trkpt><trkpt lat="42.3894845" lon="-7.2882059"><ele>974.0</ele><time>2026-04-25T15:08:47.051Z</time></trkpt><trkpt lat="42.3894445" lon="-7.2880875"><ele>973.0</ele><time>2026-04-25T15:08:48.062Z</time></trkpt><trkpt lat="42.3894096" lon="-7.2879457"><ele>972.0</ele><time>2026-04-25T15:08:49.062Z</time></trkpt><trkpt lat="42.3893753" lon="-7.2877848"><ele>972.0</ele><time>2026-04-25T15:08:50.057Z</time></trkpt><trkpt lat="42.3893435" lon="-7.2876328"><ele>972.0</ele><time>2026-04-25T15:08:51.053Z</time></trkpt><trkpt lat="42.3893138" lon="-7.2874868"><ele>972.0</ele><time>2026-04-25T15:08:52.058Z</time></trkpt><trkpt lat="42.3892874" lon="-7.2873306"><ele>972.0</ele><time>2026-04-25T15:08:53.054Z</time></trkpt><trkpt lat="42.3892657" lon="-7.2871626"><ele>971.25</ele><time>2026-04-25T15:08:54.057Z</time></trkpt><trkpt lat="42.3892492" lon="-7.2869807"><ele>970.5</ele><time>2026-04-25T15:08:55.052Z</time></trkpt><trkpt lat="42.3892378" lon="-7.2868021"><ele>969.75</ele><time>2026-04-25T15:08:56.052Z</time></trkpt><trkpt lat="42.3892305" lon="-7.2866282"><ele>969.0</ele><time>2026-04-25T15:08:57.045Z</time></trkpt><trkpt lat="42.3892262" lon="-7.2864565"><ele>967.25</ele><time>2026-04-25T15:08:58.057Z</time></trkpt><trkpt lat="42.389224" lon="-7.2862872"><ele>965.5</ele><time>2026-04-25T15:08:59.06Z</time></trkpt><trkpt lat="42.3892238" lon="-7.2861209"><ele>963.75</ele><time>2026-04-25T15:09:00.057Z</time></trkpt><trkpt lat="42.3892291" lon="-7.2859595"><ele>962.0</ele><time>2026-04-25T15:09:01.046Z</time></trkpt><trkpt lat="42.3892337" lon="-7.2858018"><ele>962.0</ele><time>2026-04-25T15:09:02.051Z</time></trkpt><trkpt lat="42.389234" lon="-7.2856322"><ele>962.0</ele><time>2026-04-25T15:09:03.049Z</time></trkpt><trkpt lat="42.3892278" lon="-7.2854502"><ele>962.0</ele><time>2026-04-25T15:09:04.049Z</time></trkpt><trkpt lat="42.3892136" lon="-7.2852596"><ele>962.0</ele><time>2026-04-25T15:09:05.044Z</time></trkpt><trkpt lat="42.3891906" lon="-7.2850635"><ele>961.25</ele><time>2026-04-25T15:09:06.059Z</time></trkpt><trkpt lat="42.3891578" lon="-7.2848773"><ele>960.5</ele><time>2026-04-25T15:09:07.049Z</time></trkpt><trkpt lat="42.3891113" lon="-7.2847102"><ele>959.75</ele><time>2026-04-25T15:09:08.049Z</time></trkpt><trkpt lat="42.3890434" lon="-7.2845587"><ele>959.0</ele><time>2026-04-25T15:09:09.058Z</time></trkpt><trkpt lat="42.388953" lon="-7.2844034"><ele>957.3333333333334</ele><time>2026-04-25T15:09:10.055Z</time></trkpt><trkpt lat="42.3888544" lon="-7.2842326"><ele>955.6666666666667</ele><time>2026-04-25T15:09:11.061Z</time></trkpt><trkpt lat="42.3887551" lon="-7.2840296"><ele>954.0</ele><time>2026-04-25T15:09:12.051Z</time></trkpt><trkpt lat="42.3886527" lon="-7.283795"><ele>953.3333333333333</ele><time>2026-04-25T15:09:13.055Z</time></trkpt><trkpt lat="42.3885555" lon="-7.2835643"><ele>952.6666666666666</ele><time>2026-04-25T15:09:14.054Z</time></trkpt><trkpt lat="42.3884652" lon="-7.2833441"><ele>952.0</ele><time>2026-04-25T15:09:15.057Z</time></trkpt><trkpt lat="42.3883812" lon="-7.2831306"><ele>951.3333333333333</ele><time>2026-04-25T15:09:16.06Z</time></trkpt><trkpt lat="42.3883026" lon="-7.2829229"><ele>950.6666666666667</ele><time>2026-04-25T15:09:17.055Z</time></trkpt><trkpt lat="42.3882304" lon="-7.2827212"><ele>950.0</ele><time>2026-04-25T15:09:18.051Z</time></trkpt><trkpt lat="42.3881637" lon="-7.2825285"><ele>950.0</ele><time>2026-04-25T15:09:19.045Z</time></trkpt><trkpt lat="42.3880971" lon="-7.2823443"><ele>950.0</ele><time>2026-04-25T15:09:20.058Z</time></trkpt><trkpt lat="42.3880276" lon="-7.2821666"><ele>950.0</ele><time>2026-04-25T15:09:21.054Z</time></trkpt><trkpt lat="42.3879563" lon="-7.2819998"><ele>950.0</ele><time>2026-04-25T15:09:22.052Z</time></trkpt><trkpt lat="42.3878866" lon="-7.2818527"><ele>949.2</ele><time>2026-04-25T15:09:23.052Z</time></trkpt><trkpt lat="42.3878218" lon="-7.2817265"><ele>948.4</ele><time>2026-04-25T15:09:24.043Z</time></trkpt><trkpt lat="42.3877608" lon="-7.2816143"><ele>947.5999999999999</ele><time>2026-04-25T15:09:25.05Z</time></trkpt><trkpt lat="42.387709" lon="-7.2815239"><ele>946.8</ele><time>2026-04-25T15:09:26.045Z</time></trkpt><trkpt lat="42.3876662" lon="-7.2814538"><ele>946.0</ele><time>2026-04-25T15:09:27.052Z</time></trkpt><trkpt lat="42.3876094" lon="-7.281366"><ele>945.3333333333333</ele><time>2026-04-25T15:09:29.051Z</time></trkpt><trkpt lat="42.3875476" lon="-7.2812746"><ele>944.6666666666666</ele><time>2026-04-25T15:09:31.061Z</time></trkpt><trkpt lat="42.3875135" lon="-7.2811923"><ele>944.0</ele><time>2026-04-25T15:09:32.055Z</time></trkpt><trkpt lat="42.3874909" lon="-7.2811004"><ele>943.3333333333333</ele><time>2026-04-25T15:09:33.054Z</time></trkpt><trkpt lat="42.3874642" lon="-7.2809863"><ele>942.6666666666666</ele><time>2026-04-25T15:09:34.054Z</time></trkpt><trkpt lat="42.3874382" lon="-7.2808476"><ele>942.0</ele><time>2026-04-25T15:09:35.051Z</time></trkpt><trkpt lat="42.3874121" lon="-7.2806849"><ele>942.25</ele><time>2026-04-25T15:09:36.052Z</time></trkpt><trkpt lat="42.3873804" lon="-7.2805176"><ele>942.5</ele><time>2026-04-25T15:09:37.042Z</time></trkpt><trkpt lat="42.3873453" lon="-7.2803602"><ele>942.75</ele><time>2026-04-25T15:09:38.062Z</time></trkpt><trkpt lat="42.3873026" lon="-7.2802249"><ele>943.0</ele><time>2026-04-25T15:09:39.049Z</time></trkpt><trkpt lat="42.3872591" lon="-7.2801005"><ele>943.0</ele><time>2026-04-25T15:09:40.047Z</time></trkpt><trkpt lat="42.3871748" lon="-7.2799446"><ele>943.0</ele><time>2026-04-25T15:09:41.056Z</time></trkpt><trkpt lat="42.387093" lon="-7.2797811"><ele>943.0</ele><time>2026-04-25T15:09:42.052Z</time></trkpt><trkpt lat="42.3870186" lon="-7.2796334"><ele>943.0</ele><time>2026-04-25T15:09:43.05Z</time></trkpt><trkpt lat="42.3869434" lon="-7.2794813"><ele>943.0</ele><time>2026-04-25T15:09:44.054Z</time></trkpt><trkpt lat="42.3868692" lon="-7.2793358"><ele>943.0</ele><time>2026-04-25T15:09:45.056Z</time></trkpt><trkpt lat="42.3867938" lon="-7.2791866"><ele>943.0</ele><time>2026-04-25T15:09:46.048Z</time></trkpt><trkpt lat="42.3867227" lon="-7.2790422"><ele>943.0</ele><time>2026-04-25T15:09:47.061Z</time></trkpt><trkpt lat="42.3866548" lon="-7.2788769"><ele>943.0</ele><time>2026-04-25T15:09:48.057Z</time></trkpt><trkpt lat="42.3865787" lon="-7.2786675"><ele>943.0</ele><time>2026-04-25T15:09:49.057Z</time></trkpt><trkpt lat="42.3865092" lon="-7.2784422"><ele>943.0</ele><time>2026-04-25T15:09:50.051Z</time></trkpt><trkpt lat="42.3864385" lon="-7.2782019"><ele>942.6666666666666</ele><time>2026-04-25T15:09:51.051Z</time></trkpt><trkpt lat="42.3863671" lon="-7.2779779"><ele>942.3333333333333</ele><time>2026-04-25T15:09:52.055Z</time></trkpt><trkpt lat="42.3863021" lon="-7.2777712"><ele>942.0</ele><time>2026-04-25T15:09:53.058Z</time></trkpt><trkpt lat="42.3862341" lon="-7.2775813"><ele>942.0</ele><time>2026-04-25T15:09:54.057Z</time></trkpt><trkpt lat="42.3861662" lon="-7.2774074"><ele>942.0</ele><time>2026-04-25T15:09:55.058Z</time></trkpt><trkpt lat="42.3861027" lon="-7.2772503"><ele>942.0</ele><time>2026-04-25T15:09:56.059Z</time></trkpt><trkpt lat="42.3860276" lon="-7.2771062"><ele>942.0</ele><time>2026-04-25T15:09:57.05Z</time></trkpt><trkpt lat="42.3859299" lon="-7.2769705"><ele>942.5</ele><time>2026-04-25T15:09:58.067Z</time></trkpt><trkpt lat="42.3858319" lon="-7.2768486"><ele>943.0</ele><time>2026-04-25T15:09:59.052Z</time></trkpt><trkpt lat="42.3857276" lon="-7.2767252"><ele>943.5</ele><time>2026-04-25T15:10:00.056Z</time></trkpt><trkpt lat="42.3856139" lon="-7.276598"><ele>944.0</ele><time>2026-04-25T15:10:01.05Z</time></trkpt><trkpt lat="42.3854939" lon="-7.2764607"><ele>942.75</ele><time>2026-04-25T15:10:02.053Z</time></trkpt><trkpt lat="42.3853798" lon="-7.2763287"><ele>941.5</ele><time>2026-04-25T15:10:03.048Z</time></trkpt><trkpt lat="42.3852752" lon="-7.2762085"><ele>940.25</ele><time>2026-04-25T15:10:04.058Z</time></trkpt><trkpt lat="42.38517" lon="-7.2761006"><ele>939.0</ele><time>2026-04-25T15:10:05.044Z</time></trkpt><trkpt lat="42.3850538" lon="-7.2759949"><ele>939.0</ele><time>2026-04-25T15:10:06.053Z</time></trkpt><trkpt lat="42.3849246" lon="-7.2758902"><ele>939.0</ele><time>2026-04-25T15:10:07.045Z</time></trkpt><trkpt lat="42.3847844" lon="-7.2757842"><ele>939.0</ele><time>2026-04-25T15:10:08.055Z</time></trkpt><trkpt lat="42.3846585" lon="-7.2756857"><ele>938.2</ele><time>2026-04-25T15:10:09.056Z</time></trkpt><trkpt lat="42.3845507" lon="-7.2756032"><ele>937.4000000000001</ele><time>2026-04-25T15:10:10.049Z</time></trkpt><trkpt lat="42.3844498" lon="-7.2755306"><ele>936.6</ele><time>2026-04-25T15:10:11.056Z</time></trkpt><trkpt lat="42.3843591" lon="-7.2754565"><ele>935.8</ele><time>2026-04-25T15:10:12.042Z</time></trkpt><trkpt lat="42.3842688" lon="-7.2753932"><ele>935.0</ele><time>2026-04-25T15:10:13.043Z</time></trkpt><trkpt lat="42.3841956" lon="-7.275303"><ele>935.0</ele><time>2026-04-25T15:10:14.055Z</time></trkpt><trkpt lat="42.3841292" lon="-7.2751677"><ele>935.0</ele><time>2026-04-25T15:10:15.046Z</time></trkpt><trkpt lat="42.3840523" lon="-7.2750029"><ele>935.0</ele><time>2026-04-25T15:10:16.059Z</time></trkpt><trkpt lat="42.3839649" lon="-7.2748391"><ele>935.0</ele><time>2026-04-25T15:10:17.06Z</time></trkpt><trkpt lat="42.383871" lon="-7.2746737"><ele>933.3333333333334</ele><time>2026-04-25T15:10:18.051Z</time></trkpt><trkpt lat="42.3837741" lon="-7.2745031"><ele>931.6666666666667</ele><time>2026-04-25T15:10:19.05Z</time></trkpt><trkpt lat="42.3836616" lon="-7.2743356"><ele>930.0</ele><time>2026-04-25T15:10:20.054Z</time></trkpt><trkpt lat="42.3835674" lon="-7.2741906"><ele>930.0</ele><time>2026-04-25T15:10:21.05Z</time></trkpt><trkpt lat="42.3834857" lon="-7.2740836"><ele>930.0</ele><time>2026-04-25T15:10:22.053Z</time></trkpt><trkpt lat="42.3834077" lon="-7.2739846"><ele>930.0</ele><time>2026-04-25T15:10:23.045Z</time></trkpt><trkpt lat="42.3833279" lon="-7.27389"><ele>930.0</ele><time>2026-04-25T15:10:24.054Z</time></trkpt><trkpt lat="42.3832168" lon="-7.2737808"><ele>930.2</ele><time>2026-04-25T15:10:25.051Z</time></trkpt><trkpt lat="42.3831207" lon="-7.2736788"><ele>930.4</ele><time>2026-04-25T15:10:26.051Z</time></trkpt><trkpt lat="42.3830366" lon="-7.2735942"><ele>930.5999999999999</ele><time>2026-04-25T15:10:27.048Z</time></trkpt><trkpt lat="42.3829589" lon="-7.2735043"><ele>930.8</ele><time>2026-04-25T15:10:28.053Z</time></trkpt><trkpt lat="42.3829045" lon="-7.273406"><ele>931.0</ele><time>2026-04-25T15:10:29.047Z</time></trkpt><trkpt lat="42.3828473" lon="-7.2732758"><ele>931.0</ele><time>2026-04-25T15:10:30.052Z</time></trkpt><trkpt lat="42.3828066" lon="-7.2731331"><ele>931.0</ele><time>2026-04-25T15:10:31.055Z</time></trkpt><trkpt lat="42.3827536" lon="-7.2729647"><ele>931.0</ele><time>2026-04-25T15:10:32.055Z</time></trkpt><trkpt lat="42.382699" lon="-7.2727927"><ele>931.0</ele><time>2026-04-25T15:10:33.055Z</time></trkpt><trkpt lat="42.3826536" lon="-7.272629"><ele>931.75</ele><time>2026-04-25T15:10:34.056Z</time></trkpt><trkpt lat="42.3825967" lon="-7.2724773"><ele>932.5</ele><time>2026-04-25T15:10:35.063Z</time></trkpt><trkpt lat="42.3825211" lon="-7.2723232"><ele>933.25</ele><time>2026-04-25T15:10:36.058Z</time></trkpt><trkpt lat="42.3824438" lon="-7.2721597"><ele>934.0</ele><time>2026-04-25T15:10:37.057Z</time></trkpt><trkpt lat="42.3823705" lon="-7.2720003"><ele>934.0</ele><time>2026-04-25T15:10:38.053Z</time></trkpt><trkpt lat="42.3823005" lon="-7.2718171"><ele>934.0</ele><time>2026-04-25T15:10:39.055Z</time></trkpt><trkpt lat="42.3822347" lon="-7.2716232"><ele>934.0</ele><time>2026-04-25T15:10:40.051Z</time></trkpt><trkpt lat="42.3821729" lon="-7.2714636"><ele>934.0</ele><time>2026-04-25T15:10:41.056Z</time></trkpt><trkpt lat="42.3821423" lon="-7.2713082"><ele>933.2</ele><time>2026-04-25T15:10:42.053Z</time></trkpt><trkpt lat="42.3821207" lon="-7.2711742"><ele>932.4000000000001</ele><time>2026-04-25T15:10:43.053Z</time></trkpt><trkpt lat="42.3820646" lon="-7.271075"><ele>931.6</ele><time>2026-04-25T15:10:44.055Z</time></trkpt><trkpt lat="42.3820026" lon="-7.2710056"><ele>930.8</ele><time>2026-04-25T15:10:45.05Z</time></trkpt><trkpt lat="42.3819114" lon="-7.2709362"><ele>930.0</ele><time>2026-04-25T15:10:46.049Z</time></trkpt><trkpt lat="42.3818143" lon="-7.2708878"><ele>930.0</ele><time>2026-04-25T15:10:47.058Z</time></trkpt><trkpt lat="42.3817277" lon="-7.2708434"><ele>930.0</ele><time>2026-04-25T15:10:48.057Z</time></trkpt><trkpt lat="42.3816579" lon="-7.2707805"><ele>930.0</ele><time>2026-04-25T15:10:49.054Z</time></trkpt><trkpt lat="42.3815917" lon="-7.2706956"><ele>930.0</ele><time>2026-04-25T15:10:50.056Z</time></trkpt><trkpt lat="42.3815179" lon="-7.2705773"><ele>930.0</ele><time>2026-04-25T15:10:51.053Z</time></trkpt><trkpt lat="42.3814489" lon="-7.2704556"><ele>930.2</ele><time>2026-04-25T15:10:52.054Z</time></trkpt><trkpt lat="42.3813785" lon="-7.2703473"><ele>930.4</ele><time>2026-04-25T15:10:53.06Z</time></trkpt><trkpt lat="42.3813124" lon="-7.270252"><ele>930.5999999999999</ele><time>2026-04-25T15:10:54.058Z</time></trkpt><trkpt lat="42.381252" lon="-7.2701618"><ele>930.8</ele><time>2026-04-25T15:10:55.064Z</time></trkpt><trkpt lat="42.3811959" lon="-7.2700765"><ele>931.0</ele><time>2026-04-25T15:10:56.056Z</time></trkpt><trkpt lat="42.3811458" lon="-7.2699918"><ele>929.1428571428571</ele><time>2026-04-25T15:10:57.065Z</time></trkpt><trkpt lat="42.381109" lon="-7.2699017"><ele>927.2857142857142</ele><time>2026-04-25T15:10:58.052Z</time></trkpt><trkpt lat="42.3810899" lon="-7.2698079"><ele>925.4285714285714</ele><time>2026-04-25T15:10:59.057Z</time></trkpt><trkpt lat="42.3810759" lon="-7.2697118"><ele>923.5714285714286</ele><time>2026-04-25T15:11:00.051Z</time></trkpt><trkpt lat="42.3810564" lon="-7.26962"><ele>921.7142857142857</ele><time>2026-04-25T15:11:01.051Z</time></trkpt><trkpt lat="42.3810411" lon="-7.2695308"><ele>919.8571428571429</ele><time>2026-04-25T15:11:02.064Z</time></trkpt><trkpt lat="42.3810338" lon="-7.2694336"><ele>918.0</ele><time>2026-04-25T15:11:03.054Z</time></trkpt><trkpt lat="42.3810224" lon="-7.2693359"><ele>917.5</ele><time>2026-04-25T15:11:04.058Z</time></trkpt><trkpt lat="42.3810035" lon="-7.2692222"><ele>917.0</ele><time>2026-04-25T15:11:05.054Z</time></trkpt><trkpt lat="42.3809853" lon="-7.2691117"><ele>916.5</ele><time>2026-04-25T15:11:06.054Z</time></trkpt><trkpt lat="42.3809656" lon="-7.2690127"><ele>916.0</ele><time>2026-04-25T15:11:07.05Z</time></trkpt><trkpt lat="42.380941" lon="-7.2689185"><ele>915.5</ele><time>2026-04-25T15:11:08.047Z</time></trkpt><trkpt lat="42.3809098" lon="-7.2688328"><ele>915.0</ele><time>2026-04-25T15:11:09.045Z</time></trkpt><trkpt lat="42.3808751" lon="-7.2687572"><ele>914.1666666666666</ele><time>2026-04-25T15:11:10.049Z</time></trkpt><trkpt lat="42.3808145" lon="-7.2686905"><ele>913.3333333333333</ele><time>2026-04-25T15:11:12.052Z</time></trkpt><trkpt lat="42.3806956" lon="-7.2687027"><ele>912.5</ele><time>2026-04-25T15:11:14.054Z</time></trkpt><trkpt lat="42.3806153" lon="-7.268727"><ele>911.6666666666666</ele><time>2026-04-25T15:11:15.049Z</time></trkpt><trkpt lat="42.3805396" lon="-7.2687521"><ele>910.8333333333333</ele><time>2026-04-25T15:11:16.053Z</time></trkpt><trkpt lat="42.3804663" lon="-7.2687748"><ele>910.0</ele><time>2026-04-25T15:11:17.045Z</time></trkpt><trkpt lat="42.3803909" lon="-7.2687842"><ele>909.2</ele><time>2026-04-25T15:11:18.053Z</time></trkpt><trkpt lat="42.3803144" lon="-7.2687816"><ele>908.4</ele><time>2026-04-25T15:11:19.048Z</time></trkpt><trkpt lat="42.380246" lon="-7.2687636"><ele>907.5999999999999</ele><time>2026-04-25T15:11:20.046Z</time></trkpt><trkpt lat="42.3801309" lon="-7.2686825"><ele>906.8</ele><time>2026-04-25T15:11:22.052Z</time></trkpt><trkpt lat="42.3800562" lon="-7.2686037"><ele>906.0</ele><time>2026-04-25T15:11:23.049Z</time></trkpt><trkpt lat="42.3799823" lon="-7.2685175"><ele>906.0</ele><time>2026-04-25T15:11:24.055Z</time></trkpt><trkpt lat="42.3799147" lon="-7.2684409"><ele>905.9999999999999</ele><time>2026-04-25T15:11:25.048Z</time></trkpt><trkpt lat="42.3798483" lon="-7.268364"><ele>905.9999999999999</ele><time>2026-04-25T15:11:26.051Z</time></trkpt><trkpt lat="42.3797703" lon="-7.2682647"><ele>906.0</ele><time>2026-04-25T15:11:27.054Z</time></trkpt><trkpt lat="42.3796796" lon="-7.2681526"><ele>906.0</ele><time>2026-04-25T15:11:28.061Z</time></trkpt><trkpt lat="42.3795866" lon="-7.2680205"><ele>905.5</ele><time>2026-04-25T15:11:29.056Z</time></trkpt><trkpt lat="42.379487" lon="-7.2678836"><ele>905.0</ele><time>2026-04-25T15:11:30.057Z</time></trkpt><trkpt lat="42.379396" lon="-7.2677557"><ele>904.5</ele><time>2026-04-25T15:11:31.061Z</time></trkpt><trkpt lat="42.3793086" lon="-7.2676391"><ele>904.0</ele><time>2026-04-25T15:11:32.055Z</time></trkpt><trkpt lat="42.3792256" lon="-7.26753"><ele>903.9999999999999</ele><time>2026-04-25T15:11:33.047Z</time></trkpt><trkpt lat="42.3791499" lon="-7.2674329"><ele>904.0</ele><time>2026-04-25T15:11:34.048Z</time></trkpt><trkpt lat="42.3790742" lon="-7.2673507"><ele>904.0</ele><time>2026-04-25T15:11:35.046Z</time></trkpt><trkpt lat="42.3790079" lon="-7.2672801"><ele>904.0</ele><time>2026-04-25T15:11:36.051Z</time></trkpt><trkpt lat="42.378948" lon="-7.267213"><ele>903.9999999999999</ele><time>2026-04-25T15:11:37.053Z</time></trkpt><trkpt lat="42.3789005" lon="-7.2671494"><ele>904.0</ele><time>2026-04-25T15:11:38.046Z</time></trkpt><trkpt lat="42.3788164" lon="-7.2669923"><ele>903.4999999999999</ele><time>2026-04-25T15:11:40.056Z</time></trkpt><trkpt lat="42.3787844" lon="-7.2668965"><ele>903.0</ele><time>2026-04-25T15:11:41.049Z</time></trkpt><trkpt lat="42.3787593" lon="-7.2667971"><ele>902.5</ele><time>2026-04-25T15:11:42.05Z</time></trkpt><trkpt lat="42.3787312" lon="-7.2666909"><ele>902.0</ele><time>2026-04-25T15:11:43.052Z</time></trkpt><trkpt lat="42.3786909" lon="-7.2665773"><ele>901.4999999999999</ele><time>2026-04-25T15:11:44.055Z</time></trkpt><trkpt lat="42.3786544" lon="-7.2664538"><ele>901.0</ele><time>2026-04-25T15:11:45.046Z</time></trkpt><trkpt lat="42.3786346" lon="-7.266326"><ele>900.9999999999999</ele><time>2026-04-25T15:11:46.048Z</time></trkpt><trkpt lat="42.3786266" lon="-7.2662003"><ele>901.0</ele><time>2026-04-25T15:11:47.046Z</time></trkpt><trkpt lat="42.3786188" lon="-7.2660844"><ele>901.0</ele><time>2026-04-25T15:11:48.053Z</time></trkpt><trkpt lat="42.3786113" lon="-7.2659913"><ele>901.0</ele><time>2026-04-25T15:11:49.058Z</time></trkpt><trkpt lat="42.3785953" lon="-7.2658892"><ele>900.9999999999999</ele><time>2026-04-25T15:11:51.043Z</time></trkpt><trkpt lat="42.3785886" lon="-7.2657674"><ele>901.0</ele><time>2026-04-25T15:11:56.061Z</time></trkpt><trkpt lat="42.3785948" lon="-7.2659368"><ele>901.0</ele><time>2026-04-25T15:12:06.072Z</time></trkpt><trkpt lat="42.3786033" lon="-7.2660275"><ele>900.9999999999999</ele><time>2026-04-25T15:12:07.068Z</time></trkpt><trkpt lat="42.3786182" lon="-7.2661372"><ele>900.9999999999999</ele><time>2026-04-25T15:12:08.052Z</time></trkpt><trkpt lat="42.3786322" lon="-7.2662675"><ele>901.0</ele><time>2026-04-25T15:12:09.051Z</time></trkpt><trkpt lat="42.3786468" lon="-7.2664127"><ele>901.0</ele><time>2026-04-25T15:12:10.056Z</time></trkpt><trkpt lat="42.3786756" lon="-7.2665396"><ele>900.8333333333333</ele><time>2026-04-25T15:12:11.057Z</time></trkpt><trkpt lat="42.3787163" lon="-7.2666592"><ele>900.6666666666666</ele><time>2026-04-25T15:12:12.058Z</time></trkpt><trkpt lat="42.3787472" lon="-7.2667538"><ele>900.5</ele><time>2026-04-25T15:12:13.052Z</time></trkpt><trkpt lat="42.3787769" lon="-7.2668554"><ele>900.3333333333333</ele><time>2026-04-25T15:12:14.055Z</time></trkpt><trkpt lat="42.3788003" lon="-7.2669434"><ele>900.1666666666666</ele><time>2026-04-25T15:12:15.052Z</time></trkpt><trkpt lat="42.3788288" lon="-7.2670311"><ele>900.0</ele><time>2026-04-25T15:12:16.058Z</time></trkpt><trkpt lat="42.3788761" lon="-7.2671157"><ele>900.8</ele><time>2026-04-25T15:12:17.052Z</time></trkpt><trkpt lat="42.3789302" lon="-7.2671952"><ele>901.6</ele><time>2026-04-25T15:12:18.053Z</time></trkpt><trkpt lat="42.3789954" lon="-7.2672719"><ele>902.4000000000001</ele><time>2026-04-25T15:12:19.053Z</time></trkpt><trkpt lat="42.3790811" lon="-7.2673588"><ele>903.2</ele><time>2026-04-25T15:12:20.043Z</time></trkpt><trkpt lat="42.3791663" lon="-7.267453"><ele>904.0</ele><time>2026-04-25T15:12:21.05Z</time></trkpt><trkpt lat="42.3792364" lon="-7.2675489"><ele>904.0</ele><time>2026-04-25T15:12:22.063Z</time></trkpt><trkpt lat="42.3792975" lon="-7.2676226"><ele>904.0000000000001</ele><time>2026-04-25T15:12:23.051Z</time></trkpt><trkpt lat="42.3793642" lon="-7.2677022"><ele>904.0000000000001</ele><time>2026-04-25T15:12:24.047Z</time></trkpt><trkpt lat="42.3794359" lon="-7.2677839"><ele>904.0</ele><time>2026-04-25T15:12:25.048Z</time></trkpt><trkpt lat="42.3795037" lon="-7.2678747"><ele>904.0</ele><time>2026-04-25T15:12:26.053Z</time></trkpt><trkpt lat="42.3795657" lon="-7.2679632"><ele>904.0</ele><time>2026-04-25T15:12:27.054Z</time></trkpt><trkpt lat="42.3796288" lon="-7.2680562"><ele>904.0000000000001</ele><time>2026-04-25T15:12:28.048Z</time></trkpt><trkpt lat="42.3796974" lon="-7.2681538"><ele>904.0000000000001</ele><time>2026-04-25T15:12:29.046Z</time></trkpt><trkpt lat="42.3797723" lon="-7.2682444"><ele>904.0</ele><time>2026-04-25T15:12:30.048Z</time></trkpt><trkpt lat="42.3798493" lon="-7.2683314"><ele>904.0</ele><time>2026-04-25T15:12:31.052Z</time></trkpt><trkpt lat="42.3799126" lon="-7.26841"><ele>904.3333333333333</ele><time>2026-04-25T15:12:32.042Z</time></trkpt><trkpt lat="42.3799727" lon="-7.2684851"><ele>904.6666666666666</ele><time>2026-04-25T15:12:33.051Z</time></trkpt><trkpt lat="42.3800342" lon="-7.2685595"><ele>905.0</ele><time>2026-04-25T15:12:34.042Z</time></trkpt><trkpt lat="42.3800851" lon="-7.2686162"><ele>905.3333333333333</ele><time>2026-04-25T15:12:35.048Z</time></trkpt><trkpt lat="42.3800772" lon="-7.268701"><ele>905.6666666666666</ele><time>2026-04-25T15:12:38.052Z</time></trkpt><trkpt lat="42.3799285" lon="-7.2687355"><ele>906.0</ele><time>2026-04-25T15:12:40.054Z</time></trkpt><trkpt lat="42.3798272" lon="-7.2687521"><ele>906.0</ele><time>2026-04-25T15:12:41.055Z</time></trkpt><trkpt lat="42.3797202" lon="-7.2687781"><ele>905.9999999999999</ele><time>2026-04-25T15:12:42.054Z</time></trkpt><trkpt lat="42.379616" lon="-7.2688076"><ele>905.9999999999999</ele><time>2026-04-25T15:12:43.043Z</time></trkpt><trkpt lat="42.3795194" lon="-7.268838"><ele>906.0</ele><time>2026-04-25T15:12:44.045Z</time></trkpt><trkpt lat="42.3794175" lon="-7.268872"><ele>906.0</ele><time>2026-04-25T15:12:45.054Z</time></trkpt><trkpt lat="42.3793123" lon="-7.2689019"><ele>905.0</ele><time>2026-04-25T15:12:46.061Z</time></trkpt><trkpt lat="42.3792135" lon="-7.2689324"><ele>903.9999999999999</ele><time>2026-04-25T15:12:47.062Z</time></trkpt><trkpt lat="42.3791252" lon="-7.2689774"><ele>902.9999999999999</ele><time>2026-04-25T15:12:48.057Z</time></trkpt><trkpt lat="42.3790447" lon="-7.2690402"><ele>902.0</ele><time>2026-04-25T15:12:49.05Z</time></trkpt><trkpt lat="42.3789563" lon="-7.2691276"><ele>901.0</ele><time>2026-04-25T15:12:50.049Z</time></trkpt><trkpt lat="42.3788695" lon="-7.2692165"><ele>897.4</ele><time>2026-04-25T15:12:51.056Z</time></trkpt><trkpt lat="42.3787842" lon="-7.2693041"><ele>893.8</ele><time>2026-04-25T15:12:52.061Z</time></trkpt><trkpt lat="42.3786907" lon="-7.2693793"><ele>890.1999999999999</ele><time>2026-04-25T15:12:53.056Z</time></trkpt><trkpt lat="42.3785967" lon="-7.2694262"><ele>886.5999999999999</ele><time>2026-04-25T15:12:54.055Z</time></trkpt><trkpt lat="42.3785038" lon="-7.269446"><ele>883.0</ele><time>2026-04-25T15:12:55.057Z</time></trkpt><trkpt lat="42.3784071" lon="-7.2694305"><ele>883.0</ele><time>2026-04-25T15:12:56.058Z</time></trkpt><trkpt lat="42.3782935" lon="-7.2693787"><ele>883.0</ele><time>2026-04-25T15:12:57.057Z</time></trkpt><trkpt lat="42.3781687" lon="-7.2692988"><ele>883.0</ele><time>2026-04-25T15:12:58.056Z</time></trkpt><trkpt lat="42.3780448" lon="-7.2691973"><ele>883.0</ele><time>2026-04-25T15:12:59.055Z</time></trkpt><trkpt lat="42.3779286" lon="-7.2690839"><ele>881.5</ele><time>2026-04-25T15:13:00.052Z</time></trkpt><trkpt lat="42.3778125" lon="-7.2689549"><ele>880.0</ele><time>2026-04-25T15:13:01.057Z</time></trkpt><trkpt lat="42.3777037" lon="-7.26883"><ele>878.5</ele><time>2026-04-25T15:13:02.053Z</time></trkpt><trkpt lat="42.377601" lon="-7.2687091"><ele>877.0</ele><time>2026-04-25T15:13:03.058Z</time></trkpt><trkpt lat="42.3775046" lon="-7.2686018"><ele>877.0</ele><time>2026-04-25T15:13:04.045Z</time></trkpt><trkpt lat="42.3774167" lon="-7.2685167"><ele>877.0</ele><time>2026-04-25T15:13:05.055Z</time></trkpt><trkpt lat="42.3773291" lon="-7.268447"><ele>877.0</ele><time>2026-04-25T15:13:06.053Z</time></trkpt><trkpt lat="42.3772248" lon="-7.268382"><ele>877.0</ele><time>2026-04-25T15:13:07.047Z</time></trkpt><trkpt lat="42.3771186" lon="-7.2683337"><ele>877.0</ele><time>2026-04-25T15:13:08.055Z</time></trkpt><trkpt lat="42.3770104" lon="-7.2682904"><ele>874.2</ele><time>2026-04-25T15:13:09.048Z</time></trkpt><trkpt lat="42.3769027" lon="-7.2682428"><ele>871.4000000000001</ele><time>2026-04-25T15:13:10.052Z</time></trkpt><trkpt lat="42.3767963" lon="-7.2681994"><ele>868.5999999999999</ele><time>2026-04-25T15:13:11.056Z</time></trkpt><trkpt lat="42.3766995" lon="-7.2681771"><ele>865.8</ele><time>2026-04-25T15:13:12.057Z</time></trkpt><trkpt lat="42.3766038" lon="-7.268156"><ele>863.0</ele><time>2026-04-25T15:13:13.052Z</time></trkpt><trkpt lat="42.3765154" lon="-7.2681365"><ele>863.0000000000001</ele><time>2026-04-25T15:13:14.057Z</time></trkpt><trkpt lat="42.376434" lon="-7.2681176"><ele>863.0</ele><time>2026-04-25T15:13:15.052Z</time></trkpt><trkpt lat="42.3763607" lon="-7.2681003"><ele>863.0</ele><time>2026-04-25T15:13:16.046Z</time></trkpt><trkpt lat="42.3762542" lon="-7.2680756"><ele>863.0</ele><time>2026-04-25T15:13:18.057Z</time></trkpt><trkpt lat="42.376224" lon="-7.2681593"><ele>863.0000000000001</ele><time>2026-04-25T15:13:22.054Z</time></trkpt><trkpt lat="42.3762644" lon="-7.2682319"><ele>863.0</ele><time>2026-04-25T15:13:23.049Z</time></trkpt><trkpt lat="42.376328" lon="-7.2683464"><ele>863.0</ele><time>2026-04-25T15:13:24.051Z</time></trkpt><trkpt lat="42.3764021" lon="-7.2684992"><ele>863.0</ele><time>2026-04-25T15:13:25.048Z</time></trkpt><trkpt lat="42.3764717" lon="-7.2686803"><ele>863.0</ele><time>2026-04-25T15:13:26.066Z</time></trkpt><trkpt lat="42.3765241" lon="-7.2688632"><ele>863.0</ele><time>2026-04-25T15:13:27.053Z</time></trkpt><trkpt lat="42.3765524" lon="-7.2690476"><ele>860.25</ele><time>2026-04-25T15:13:28.052Z</time></trkpt><trkpt lat="42.3765499" lon="-7.2692282"><ele>857.5</ele><time>2026-04-25T15:13:29.053Z</time></trkpt><trkpt lat="42.3765272" lon="-7.2694077"><ele>854.75</ele><time>2026-04-25T15:13:30.064Z</time></trkpt><trkpt lat="42.3764988" lon="-7.2695949"><ele>852.0</ele><time>2026-04-25T15:13:31.062Z</time></trkpt><trkpt lat="42.3764714" lon="-7.2697947"><ele>852.0</ele><time>2026-04-25T15:13:32.051Z</time></trkpt><trkpt lat="42.3764428" lon="-7.2699895"><ele>852.0</ele><time>2026-04-25T15:13:33.061Z</time></trkpt><trkpt lat="42.376413" lon="-7.2701758"><ele>852.0</ele><time>2026-04-25T15:13:34.054Z</time></trkpt><trkpt lat="42.3763858" lon="-7.2703551"><ele>852.0</ele><time>2026-04-25T15:13:35.05Z</time></trkpt><trkpt lat="42.3763609" lon="-7.2705365"><ele>842.5</ele><time>2026-04-25T15:13:36.057Z</time></trkpt><trkpt lat="42.3763389" lon="-7.2707118"><ele>833.0</ele><time>2026-04-25T15:13:37.051Z</time></trkpt><trkpt lat="42.376323" lon="-7.270873"><ele>823.5</ele><time>2026-04-25T15:13:38.047Z</time></trkpt><trkpt lat="42.3763159" lon="-7.2710214"><ele>814.0</ele><time>2026-04-25T15:13:39.048Z</time></trkpt><trkpt lat="42.376321" lon="-7.2711617"><ele>814.0</ele><time>2026-04-25T15:13:40.052Z</time></trkpt><trkpt lat="42.3763413" lon="-7.2712968"><ele>814.0</ele><time>2026-04-25T15:13:41.048Z</time></trkpt><trkpt lat="42.3763848" lon="-7.2714322"><ele>814.0</ele><time>2026-04-25T15:13:42.056Z</time></trkpt><trkpt lat="42.3764326" lon="-7.2715756"><ele>814.0</ele><time>2026-04-25T15:13:43.053Z</time></trkpt><trkpt lat="42.3765069" lon="-7.2717133"><ele>819.5</ele><time>2026-04-25T15:13:44.05Z</time></trkpt><trkpt lat="42.3765873" lon="-7.2718351"><ele>825.0</ele><time>2026-04-25T15:13:45.066Z</time></trkpt><trkpt lat="42.3766728" lon="-7.2719671"><ele>830.5</ele><time>2026-04-25T15:13:46.056Z</time></trkpt><trkpt lat="42.3767935" lon="-7.2720817"><ele>836.0</ele><time>2026-04-25T15:13:47.064Z</time></trkpt><trkpt lat="42.3769145" lon="-7.2721951"><ele>834.75</ele><time>2026-04-25T15:13:48.058Z</time></trkpt><trkpt lat="42.377028" lon="-7.2723055"><ele>833.5</ele><time>2026-04-25T15:13:49.058Z</time></trkpt><trkpt lat="42.3771283" lon="-7.2724004"><ele>832.25</ele><time>2026-04-25T15:13:50.053Z</time></trkpt><trkpt lat="42.3772199" lon="-7.2724858"><ele>831.0</ele><time>2026-04-25T15:13:51.056Z</time></trkpt><trkpt lat="42.377293" lon="-7.2725582"><ele>831.0</ele><time>2026-04-25T15:13:52.059Z</time></trkpt><trkpt lat="42.3773537" lon="-7.2726305"><ele>831.0</ele><time>2026-04-25T15:13:53.058Z</time></trkpt><trkpt lat="42.3773893" lon="-7.2727666"><ele>831.0</ele><time>2026-04-25T15:13:54.059Z</time></trkpt><trkpt lat="42.377424" lon="-7.2729364"><ele>831.0</ele><time>2026-04-25T15:13:55.053Z</time></trkpt><trkpt lat="42.3774508" lon="-7.2730803"><ele>831.0</ele><time>2026-04-25T15:13:56.059Z</time></trkpt><trkpt lat="42.3774636" lon="-7.2732447"><ele>830.1999999999999</ele><time>2026-04-25T15:13:57.051Z</time></trkpt><trkpt lat="42.3774782" lon="-7.2734117"><ele>829.4</ele><time>2026-04-25T15:13:58.056Z</time></trkpt><trkpt lat="42.3774886" lon="-7.2735606"><ele>828.6</ele><time>2026-04-25T15:13:59.051Z</time></trkpt><trkpt lat="42.3774964" lon="-7.2736956"><ele>827.8</ele><time>2026-04-25T15:14:00.056Z</time></trkpt><trkpt lat="42.3775074" lon="-7.2738247"><ele>827.0</ele><time>2026-04-25T15:14:01.066Z</time></trkpt><trkpt lat="42.3775203" lon="-7.2739501"><ele>826.1666666666667</ele><time>2026-04-25T15:14:02.065Z</time></trkpt><trkpt lat="42.3775307" lon="-7.2740686"><ele>825.3333333333334</ele><time>2026-04-25T15:14:03.061Z</time></trkpt><trkpt lat="42.3775392" lon="-7.2741871"><ele>824.5</ele><time>2026-04-25T15:14:04.05Z</time></trkpt><trkpt lat="42.3775432" lon="-7.2743044"><ele>823.6666666666667</ele><time>2026-04-25T15:14:05.062Z</time></trkpt><trkpt lat="42.3775466" lon="-7.2744148"><ele>822.8333333333334</ele><time>2026-04-25T15:14:06.055Z</time></trkpt><trkpt lat="42.3775537" lon="-7.2745269"><ele>822.0</ele><time>2026-04-25T15:14:07.056Z</time></trkpt><trkpt lat="42.3775597" lon="-7.2746274"><ele>822.0</ele><time>2026-04-25T15:14:08.062Z</time></trkpt><trkpt lat="42.3775666" lon="-7.2747205"><ele>822.0</ele><time>2026-04-25T15:14:09.056Z</time></trkpt><trkpt lat="42.3775726" lon="-7.2748067"><ele>822.0</ele><time>2026-04-25T15:14:10.059Z</time></trkpt><trkpt lat="42.377595" lon="-7.2749678"><ele>822.0</ele><time>2026-04-25T15:14:12.047Z</time></trkpt><trkpt lat="42.3776149" lon="-7.2750827"><ele>822.0</ele><time>2026-04-25T15:14:14.063Z</time></trkpt><trkpt lat="42.3776722" lon="-7.2751642"><ele>822.0</ele><time>2026-04-25T15:14:17.053Z</time></trkpt><trkpt lat="42.3777726" lon="-7.2752231"><ele>822.8</ele><time>2026-04-25T15:14:19.047Z</time></trkpt><trkpt lat="42.377891" lon="-7.2752857"><ele>823.6</ele><time>2026-04-25T15:14:21.055Z</time></trkpt><trkpt lat="42.3779664" lon="-7.2753413"><ele>824.4</ele><time>2026-04-25T15:14:22.051Z</time></trkpt><trkpt lat="42.3780437" lon="-7.275411"><ele>825.1999999999999</ele><time>2026-04-25T15:14:23.059Z</time></trkpt><trkpt lat="42.3781174" lon="-7.2754914"><ele>826.0</ele><time>2026-04-25T15:14:24.058Z</time></trkpt><trkpt lat="42.3781903" lon="-7.2755711"><ele>822.0</ele><time>2026-04-25T15:14:25.053Z</time></trkpt><trkpt lat="42.378274" lon="-7.2756646"><ele>818.0</ele><time>2026-04-25T15:14:26.058Z</time></trkpt><trkpt lat="42.3783613" lon="-7.2757604"><ele>814.0</ele><time>2026-04-25T15:14:27.052Z</time></trkpt><trkpt lat="42.3784424" lon="-7.2758581"><ele>810.0</ele><time>2026-04-25T15:14:28.055Z</time></trkpt><trkpt lat="42.3785119" lon="-7.2759575"><ele>806.0</ele><time>2026-04-25T15:14:29.057Z</time></trkpt><trkpt lat="42.3785708" lon="-7.276055"><ele>806.0</ele><time>2026-04-25T15:14:30.053Z</time></trkpt><trkpt lat="42.3786186" lon="-7.276156"><ele>806.0</ele><time>2026-04-25T15:14:31.054Z</time></trkpt><trkpt lat="42.3786531" lon="-7.2762738"><ele>806.0</ele><time>2026-04-25T15:14:32.052Z</time></trkpt><trkpt lat="42.3786627" lon="-7.2764154"><ele>806.0</ele><time>2026-04-25T15:14:33.051Z</time></trkpt><trkpt lat="42.3786647" lon="-7.2765563"><ele>806.0</ele><time>2026-04-25T15:14:34.05Z</time></trkpt><trkpt lat="42.3786662" lon="-7.2766905"><ele>804.5999999999999</ele><time>2026-04-25T15:14:35.05Z</time></trkpt><trkpt lat="42.3786666" lon="-7.2768319"><ele>803.2</ele><time>2026-04-25T15:14:36.064Z</time></trkpt><trkpt lat="42.3786595" lon="-7.2769642"><ele>801.8</ele><time>2026-04-25T15:14:37.056Z</time></trkpt><trkpt lat="42.3786461" lon="-7.2770987"><ele>800.4000000000001</ele><time>2026-04-25T15:14:38.053Z</time></trkpt><trkpt lat="42.3786301" lon="-7.2772384"><ele>799.0</ele><time>2026-04-25T15:14:39.052Z</time></trkpt><trkpt lat="42.3786211" lon="-7.277386"><ele>799.0</ele><time>2026-04-25T15:14:40.055Z</time></trkpt><trkpt lat="42.3786304" lon="-7.2775377"><ele>799.0</ele><time>2026-04-25T15:14:41.058Z</time></trkpt><trkpt lat="42.3786629" lon="-7.2776869"><ele>799.0</ele><time>2026-04-25T15:14:42.053Z</time></trkpt><trkpt lat="42.3787214" lon="-7.2778186"><ele>799.0</ele><time>2026-04-25T15:14:43.053Z</time></trkpt><trkpt lat="42.3787985" lon="-7.2779254"><ele>803.8000000000001</ele><time>2026-04-25T15:14:44.05Z</time></trkpt><trkpt lat="42.3788869" lon="-7.2780068"><ele>808.6</ele><time>2026-04-25T15:14:45.049Z</time></trkpt><trkpt lat="42.3789855" lon="-7.2780542"><ele>813.4</ele><time>2026-04-25T15:14:46.048Z</time></trkpt><trkpt lat="42.3790908" lon="-7.2780743"><ele>818.2</ele><time>2026-04-25T15:14:47.045Z</time></trkpt><trkpt lat="42.3792028" lon="-7.2780698"><ele>823.0</ele><time>2026-04-25T15:14:48.052Z</time></trkpt><trkpt lat="42.3793165" lon="-7.2780421"><ele>823.0</ele><time>2026-04-25T15:14:49.047Z</time></trkpt><trkpt lat="42.3794296" lon="-7.277982"><ele>823.0</ele><time>2026-04-25T15:14:50.042Z</time></trkpt><trkpt lat="42.3795336" lon="-7.2778896"><ele>823.0</ele><time>2026-04-25T15:14:51.054Z</time></trkpt><trkpt lat="42.3796281" lon="-7.2777679"><ele>823.0</ele><time>2026-04-25T15:14:52.046Z</time></trkpt><trkpt lat="42.3797253" lon="-7.2776294"><ele>824.25</ele><time>2026-04-25T15:14:53.059Z</time></trkpt><trkpt lat="42.3798167" lon="-7.2775019"><ele>825.5</ele><time>2026-04-25T15:14:54.055Z</time></trkpt><trkpt lat="42.3799087" lon="-7.2774006"><ele>826.75</ele><time>2026-04-25T15:14:55.053Z</time></trkpt><trkpt lat="42.3800065" lon="-7.2773201"><ele>828.0</ele><time>2026-04-25T15:14:56.059Z</time></trkpt><trkpt lat="42.3801275" lon="-7.2773066"><ele>828.0</ele><time>2026-04-25T15:14:57.045Z</time></trkpt><trkpt lat="42.3802738" lon="-7.2773085"><ele>828.0</ele><time>2026-04-25T15:14:58.054Z</time></trkpt><trkpt lat="42.3804159" lon="-7.2773625"><ele>828.0</ele><time>2026-04-25T15:14:59.051Z</time></trkpt><trkpt lat="42.3805303" lon="-7.2774229"><ele>828.0</ele><time>2026-04-25T15:15:00.052Z</time></trkpt><trkpt lat="42.3806096" lon="-7.2775108"><ele>829.8</ele><time>2026-04-25T15:15:01.05Z</time></trkpt><trkpt lat="42.3806862" lon="-7.2776223"><ele>831.5999999999999</ele><time>2026-04-25T15:15:02.059Z</time></trkpt><trkpt lat="42.3807133" lon="-7.2777452"><ele>833.4000000000001</ele><time>2026-04-25T15:15:03.046Z</time></trkpt><trkpt lat="42.3807241" lon="-7.2778689"><ele>835.2</ele><time>2026-04-25T15:15:04.052Z</time></trkpt><trkpt lat="42.3806926" lon="-7.2779875"><ele>837.0</ele><time>2026-04-25T15:15:05.05Z</time></trkpt><trkpt lat="42.3806398" lon="-7.2781329"><ele>838.5</ele><time>2026-04-25T15:15:06.052Z</time></trkpt><trkpt lat="42.3805844" lon="-7.2782921"><ele>840.0</ele><time>2026-04-25T15:15:07.048Z</time></trkpt><trkpt lat="42.3805295" lon="-7.2784591"><ele>841.5</ele><time>2026-04-25T15:15:08.048Z</time></trkpt><trkpt lat="42.3804756" lon="-7.2786306"><ele>843.0</ele><time>2026-04-25T15:15:09.043Z</time></trkpt><trkpt lat="42.3804275" lon="-7.2788099"><ele>840.5</ele><time>2026-04-25T15:15:10.047Z</time></trkpt><trkpt lat="42.3803883" lon="-7.2789859"><ele>838.0</ele><time>2026-04-25T15:15:11.05Z</time></trkpt><trkpt lat="42.3803549" lon="-7.27916"><ele>835.5</ele><time>2026-04-25T15:15:12.047Z</time></trkpt><trkpt lat="42.380326" lon="-7.2793271"><ele>833.0</ele><time>2026-04-25T15:15:13.043Z</time></trkpt><trkpt lat="42.3803125" lon="-7.2794952"><ele>833.0</ele><time>2026-04-25T15:15:14.045Z</time></trkpt><trkpt lat="42.3803199" lon="-7.2796672"><ele>833.0</ele><time>2026-04-25T15:15:15.046Z</time></trkpt><trkpt lat="42.3803277" lon="-7.2798378"><ele>833.0</ele><time>2026-04-25T15:15:16.046Z</time></trkpt><trkpt lat="42.380355" lon="-7.2800108"><ele>833.0</ele><time>2026-04-25T15:15:17.05Z</time></trkpt><trkpt lat="42.3803833" lon="-7.2801897"><ele>834.75</ele><time>2026-04-25T15:15:18.05Z</time></trkpt><trkpt lat="42.3804129" lon="-7.2803719"><ele>836.5</ele><time>2026-04-25T15:15:19.053Z</time></trkpt><trkpt lat="42.3804407" lon="-7.2805541"><ele>838.25</ele><time>2026-04-25T15:15:20.047Z</time></trkpt><trkpt lat="42.3804711" lon="-7.2807504"><ele>840.0</ele><time>2026-04-25T15:15:21.055Z</time></trkpt><trkpt lat="42.3805032" lon="-7.2809626"><ele>847.0</ele><time>2026-04-25T15:15:22.054Z</time></trkpt><trkpt lat="42.380527" lon="-7.2811595"><ele>854.0</ele><time>2026-04-25T15:15:23.049Z</time></trkpt><trkpt lat="42.3805442" lon="-7.281333"><ele>861.0</ele><time>2026-04-25T15:15:24.05Z</time></trkpt><trkpt lat="42.3805591" lon="-7.2814922"><ele>868.0</ele><time>2026-04-25T15:15:25.049Z</time></trkpt><trkpt lat="42.3805706" lon="-7.2816303"><ele>867.9999999999999</ele><time>2026-04-25T15:15:26.052Z</time></trkpt><trkpt lat="42.3805694" lon="-7.2817389"><ele>868.0</ele><time>2026-04-25T15:15:27.058Z</time></trkpt><trkpt lat="42.3805472" lon="-7.2818328"><ele>868.0</ele><time>2026-04-25T15:15:28.054Z</time></trkpt><trkpt lat="42.3804966" lon="-7.2819131"><ele>868.0</ele><time>2026-04-25T15:15:29.055Z</time></trkpt><trkpt lat="42.3804179" lon="-7.281975"><ele>867.9999999999999</ele><time>2026-04-25T15:15:30.05Z</time></trkpt><trkpt lat="42.3803154" lon="-7.2820284"><ele>868.0</ele><time>2026-04-25T15:15:31.043Z</time></trkpt><trkpt lat="42.3801968" lon="-7.2820859"><ele>868.5</ele><time>2026-04-25T15:15:32.046Z</time></trkpt><trkpt lat="42.3800776" lon="-7.2821436"><ele>869.0</ele><time>2026-04-25T15:15:33.047Z</time></trkpt><trkpt lat="42.379955" lon="-7.2822163"><ele>869.5</ele><time>2026-04-25T15:15:34.046Z</time></trkpt><trkpt lat="42.3798335" lon="-7.2822957"><ele>870.0</ele><time>2026-04-25T15:15:35.051Z</time></trkpt><trkpt lat="42.3797169" lon="-7.2823918"><ele>868.0</ele><time>2026-04-25T15:15:36.043Z</time></trkpt><trkpt lat="42.3796078" lon="-7.282498"><ele>866.0</ele><time>2026-04-25T15:15:37.049Z</time></trkpt><trkpt lat="42.3795071" lon="-7.2826091"><ele>864.0</ele><time>2026-04-25T15:15:38.058Z</time></trkpt><trkpt lat="42.3794146" lon="-7.2827116"><ele>862.0</ele><time>2026-04-25T15:15:39.045Z</time></trkpt><trkpt lat="42.3793409" lon="-7.2828135"><ele>862.0</ele><time>2026-04-25T15:15:40.053Z</time></trkpt><trkpt lat="42.3792867" lon="-7.2829493"><ele>862.0</ele><time>2026-04-25T15:15:41.047Z</time></trkpt><trkpt lat="42.3792412" lon="-7.2831099"><ele>862.0</ele><time>2026-04-25T15:15:42.045Z</time></trkpt><trkpt lat="42.3791952" lon="-7.2832685"><ele>862.0</ele><time>2026-04-25T15:15:43.047Z</time></trkpt><trkpt lat="42.3791567" lon="-7.2834347"><ele>861.6</ele><time>2026-04-25T15:15:44.049Z</time></trkpt><trkpt lat="42.3791134" lon="-7.2835836"><ele>861.2</ele><time>2026-04-25T15:15:45.051Z</time></trkpt><trkpt lat="42.3790591" lon="-7.2837144"><ele>860.8</ele><time>2026-04-25T15:15:46.046Z</time></trkpt><trkpt lat="42.3789914" lon="-7.2838229"><ele>860.4</ele><time>2026-04-25T15:15:47.054Z</time></trkpt><trkpt lat="42.3789068" lon="-7.2839089"><ele>860.0</ele><time>2026-04-25T15:15:48.054Z</time></trkpt><trkpt lat="42.3788011" lon="-7.2839834"><ele>860.0</ele><time>2026-04-25T15:15:49.046Z</time></trkpt><trkpt lat="42.3786797" lon="-7.2840329"><ele>860.0</ele><time>2026-04-25T15:15:50.043Z</time></trkpt><trkpt lat="42.3785582" lon="-7.2840704"><ele>860.0</ele><time>2026-04-25T15:15:51.047Z</time></trkpt><trkpt lat="42.3784441" lon="-7.2841024"><ele>860.0</ele><time>2026-04-25T15:15:52.049Z</time></trkpt><trkpt lat="42.3783342" lon="-7.2841378"><ele>860.0</ele><time>2026-04-25T15:15:53.057Z</time></trkpt><trkpt lat="42.3782279" lon="-7.2841718"><ele>860.0</ele><time>2026-04-25T15:15:54.051Z</time></trkpt><trkpt lat="42.37812" lon="-7.2842103"><ele>860.0</ele><time>2026-04-25T15:15:55.047Z</time></trkpt><trkpt lat="42.3780192" lon="-7.2842728"><ele>860.0</ele><time>2026-04-25T15:15:56.049Z</time></trkpt><trkpt lat="42.3779311" lon="-7.2843601"><ele>860.0</ele><time>2026-04-25T15:15:57.05Z</time></trkpt><trkpt lat="42.3778501" lon="-7.2844682"><ele>859.0</ele><time>2026-04-25T15:15:58.042Z</time></trkpt><trkpt lat="42.3777615" lon="-7.284605"><ele>858.0</ele><time>2026-04-25T15:15:59.056Z</time></trkpt><trkpt lat="42.377668" lon="-7.2847555"><ele>857.0</ele><time>2026-04-25T15:16:00.053Z</time></trkpt><trkpt lat="42.3775769" lon="-7.2849053"><ele>856.0</ele><time>2026-04-25T15:16:01.053Z</time></trkpt><trkpt lat="42.3774929" lon="-7.2850433"><ele>856.0</ele><time>2026-04-25T15:16:02.048Z</time></trkpt><trkpt lat="42.377411" lon="-7.2851793"><ele>856.0</ele><time>2026-04-25T15:16:03.053Z</time></trkpt><trkpt lat="42.3773273" lon="-7.2852962"><ele>856.0</ele><time>2026-04-25T15:16:04.057Z</time></trkpt><trkpt lat="42.3772381" lon="-7.28539"><ele>856.0</ele><time>2026-04-25T15:16:05.046Z</time></trkpt><trkpt lat="42.3771516" lon="-7.2854477"><ele>856.5999999999999</ele><time>2026-04-25T15:16:06.046Z</time></trkpt><trkpt lat="42.3770646" lon="-7.2854587"><ele>857.1999999999999</ele><time>2026-04-25T15:16:07.049Z</time></trkpt><trkpt lat="42.376973" lon="-7.2854117"><ele>857.8000000000001</ele><time>2026-04-25T15:16:08.043Z</time></trkpt><trkpt lat="42.3768914" lon="-7.28533"><ele>858.4000000000001</ele><time>2026-04-25T15:16:09.045Z</time></trkpt><trkpt lat="42.3768059" lon="-7.2852223"><ele>859.0</ele><time>2026-04-25T15:16:10.047Z</time></trkpt><trkpt lat="42.3767144" lon="-7.2851055"><ele>859.0</ele><time>2026-04-25T15:16:11.047Z</time></trkpt><trkpt lat="42.3766066" lon="-7.2849806"><ele>859.0</ele><time>2026-04-25T15:16:12.042Z</time></trkpt><trkpt lat="42.3764693" lon="-7.2848655"><ele>859.0</ele><time>2026-04-25T15:16:13.052Z</time></trkpt><trkpt lat="42.3763079" lon="-7.2847469"><ele>861.6666666666666</ele><time>2026-04-25T15:16:14.051Z</time></trkpt><trkpt lat="42.3761506" lon="-7.2846278"><ele>864.3333333333333</ele><time>2026-04-25T15:16:15.042Z</time></trkpt><trkpt lat="42.3760117" lon="-7.2844931"><ele>867.0</ele><time>2026-04-25T15:16:16.052Z</time></trkpt><trkpt lat="42.3758819" lon="-7.2843794"><ele>867.0</ele><time>2026-04-25T15:16:17.053Z</time></trkpt><trkpt lat="42.3757744" lon="-7.2842496"><ele>867.0</ele><time>2026-04-25T15:16:18.051Z</time></trkpt><trkpt lat="42.3757056" lon="-7.2840963"><ele>867.0</ele><time>2026-04-25T15:16:19.054Z</time></trkpt><trkpt lat="42.3756587" lon="-7.2839635"><ele>867.0</ele><time>2026-04-25T15:16:20.043Z</time></trkpt><trkpt lat="42.3756052" lon="-7.2838538"><ele>866.0</ele><time>2026-04-25T15:16:21.041Z</time></trkpt><trkpt lat="42.3755462" lon="-7.2837787"><ele>865.0</ele><time>2026-04-25T15:16:22.041Z</time></trkpt><trkpt lat="42.3754833" lon="-7.2837124"><ele>864.0</ele><time>2026-04-25T15:16:23.049Z</time></trkpt><trkpt lat="42.375419" lon="-7.2836639"><ele>863.0</ele><time>2026-04-25T15:16:24.049Z</time></trkpt><trkpt lat="42.3753312" lon="-7.2835938"><ele>862.0</ele><time>2026-04-25T15:16:26.062Z</time></trkpt><trkpt lat="42.375287" lon="-7.2835285"><ele>861.0</ele><time>2026-04-25T15:16:28.057Z</time></trkpt><trkpt lat="42.3752273" lon="-7.2834963"><ele>861.0</ele><time>2026-04-25T15:16:30.059Z</time></trkpt><trkpt lat="42.37515" lon="-7.283503"><ele>861.0</ele><time>2026-04-25T15:16:32.051Z</time></trkpt><trkpt lat="42.3750941" lon="-7.2835444"><ele>861.0</ele><time>2026-04-25T15:16:33.049Z</time></trkpt><trkpt lat="42.3751972" lon="-7.2835084"><ele>861.0</ele><time>2026-04-25T15:16:59.056Z</time></trkpt><trkpt lat="42.3753108" lon="-7.2835276"><ele>861.0</ele><time>2026-04-25T15:17:01.047Z</time></trkpt><trkpt lat="42.3753697" lon="-7.2835752"><ele>861.0</ele><time>2026-04-25T15:17:02.052Z</time></trkpt><trkpt lat="42.3754403" lon="-7.2836504"><ele>860.0</ele><time>2026-04-25T15:17:03.053Z</time></trkpt><trkpt lat="42.3755212" lon="-7.2837526"><ele>859.0</ele><time>2026-04-25T15:17:04.055Z</time></trkpt><trkpt lat="42.3756048" lon="-7.2839036"><ele>858.0</ele><time>2026-04-25T15:17:05.049Z</time></trkpt><trkpt lat="42.3756751" lon="-7.284043"><ele>857.0</ele><time>2026-04-25T15:17:06.049Z</time></trkpt><trkpt lat="42.375751" lon="-7.2841858"><ele>859.0</ele><time>2026-04-25T15:17:07.049Z</time></trkpt><trkpt lat="42.3758261" lon="-7.2843027"><ele>861.0</ele><time>2026-04-25T15:17:08.046Z</time></trkpt><trkpt lat="42.3758975" lon="-7.2844047"><ele>863.0</ele><time>2026-04-25T15:17:09.048Z</time></trkpt><trkpt lat="42.3759792" lon="-7.2844852"><ele>865.0</ele><time>2026-04-25T15:17:10.046Z</time></trkpt><trkpt lat="42.3760528" lon="-7.2845533"><ele>867.0</ele><time>2026-04-25T15:17:11.049Z</time></trkpt><trkpt lat="42.3761557" lon="-7.2846405"><ele>867.0</ele><time>2026-04-25T15:17:12.058Z</time></trkpt><trkpt lat="42.3762369" lon="-7.284703"><ele>867.0</ele><time>2026-04-25T15:17:13.049Z</time></trkpt><trkpt lat="42.3763235" lon="-7.2847582"><ele>867.0</ele><time>2026-04-25T15:17:14.046Z</time></trkpt><trkpt lat="42.3763893" lon="-7.2847948"><ele>867.0</ele><time>2026-04-25T15:17:15.051Z</time></trkpt><trkpt lat="42.3764529" lon="-7.2848479"><ele>867.0</ele><time>2026-04-25T15:17:16.055Z</time></trkpt><trkpt lat="42.3765358" lon="-7.2849055"><ele>867.0</ele><time>2026-04-25T15:17:17.044Z</time></trkpt><trkpt lat="42.3766092" lon="-7.2849593"><ele>865.6666666666666</ele><time>2026-04-25T15:17:18.051Z</time></trkpt><trkpt lat="42.3766546" lon="-7.2850255"><ele>864.3333333333333</ele><time>2026-04-25T15:17:19.057Z</time></trkpt><trkpt lat="42.3767208" lon="-7.2850752"><ele>863.0</ele><time>2026-04-25T15:17:21.053Z</time></trkpt><trkpt lat="42.376728" lon="-7.2849544"><ele>861.6666666666666</ele><time>2026-04-25T15:17:24.055Z</time></trkpt><trkpt lat="42.3766901" lon="-7.2848754"><ele>860.3333333333333</ele><time>2026-04-25T15:17:25.059Z</time></trkpt><trkpt lat="42.376651" lon="-7.2847817"><ele>859.0</ele><time>2026-04-25T15:17:26.049Z</time></trkpt><trkpt lat="42.3766044" lon="-7.2846847"><ele>860.3333333333333</ele><time>2026-04-25T15:17:27.045Z</time></trkpt><trkpt lat="42.3765596" lon="-7.284576"><ele>861.6666666666666</ele><time>2026-04-25T15:17:28.051Z</time></trkpt><trkpt lat="42.3765168" lon="-7.2844773"><ele>863.0</ele><time>2026-04-25T15:17:29.042Z</time></trkpt><trkpt lat="42.376473" lon="-7.2843763"><ele>864.3333333333333</ele><time>2026-04-25T15:17:30.044Z</time></trkpt><trkpt lat="42.3764178" lon="-7.284289"><ele>865.6666666666666</ele><time>2026-04-25T15:17:31.047Z</time></trkpt><trkpt lat="42.3763755" lon="-7.2841828"><ele>867.0</ele><time>2026-04-25T15:17:32.056Z</time></trkpt><trkpt lat="42.3763365" lon="-7.2840876"><ele>867.0</ele><time>2026-04-25T15:17:33.047Z</time></trkpt><trkpt lat="42.3763185" lon="-7.2839837"><ele>867.0</ele><time>2026-04-25T15:17:34.047Z</time></trkpt><trkpt lat="42.3762852" lon="-7.2838778"><ele>867.0</ele><time>2026-04-25T15:17:35.059Z</time></trkpt><trkpt lat="42.3762629" lon="-7.2837616"><ele>867.0</ele><time>2026-04-25T15:17:36.06Z</time></trkpt><trkpt lat="42.3762347" lon="-7.2836642"><ele>867.0</ele><time>2026-04-25T15:17:37.053Z</time></trkpt><trkpt lat="42.3762346" lon="-7.2835464"><ele>867.0</ele><time>2026-04-25T15:17:38.044Z</time></trkpt><trkpt lat="42.376257" lon="-7.2834211"><ele>864.5</ele><time>2026-04-25T15:17:39.054Z</time></trkpt><trkpt lat="42.3762726" lon="-7.2833055"><ele>862.0</ele><time>2026-04-25T15:17:40.052Z</time></trkpt><trkpt lat="42.3762991" lon="-7.2831852"><ele>859.5</ele><time>2026-04-25T15:17:41.06Z</time></trkpt><trkpt lat="42.3763198" lon="-7.282999"><ele>857.0</ele><time>2026-04-25T15:17:42.046Z</time></trkpt><trkpt lat="42.3763403" lon="-7.2827926"><ele>854.6</ele><time>2026-04-25T15:17:43.055Z</time></trkpt><trkpt lat="42.3763461" lon="-7.2826262"><ele>852.2</ele><time>2026-04-25T15:17:44.055Z</time></trkpt><trkpt lat="42.3763454" lon="-7.2824521"><ele>849.8</ele><time>2026-04-25T15:17:45.053Z</time></trkpt><trkpt lat="42.3763541" lon="-7.2823196"><ele>847.4</ele><time>2026-04-25T15:17:46.046Z</time></trkpt><trkpt lat="42.3763557" lon="-7.2821854"><ele>845.0</ele><time>2026-04-25T15:17:47.062Z</time></trkpt><trkpt lat="42.3763408" lon="-7.2820178"><ele>842.75</ele><time>2026-04-25T15:17:48.042Z</time></trkpt><trkpt lat="42.3763318" lon="-7.2818835"><ele>840.5</ele><time>2026-04-25T15:17:49.058Z</time></trkpt><trkpt lat="42.3763132" lon="-7.2817415"><ele>838.25</ele><time>2026-04-25T15:17:50.045Z</time></trkpt><trkpt lat="42.3762625" lon="-7.2815645"><ele>836.0</ele><time>2026-04-25T15:17:51.042Z</time></trkpt><trkpt lat="42.3762283" lon="-7.2813967"><ele>832.8</ele><time>2026-04-25T15:17:52.056Z</time></trkpt><trkpt lat="42.3761849" lon="-7.2812491"><ele>829.5999999999999</ele><time>2026-04-25T15:17:53.051Z</time></trkpt><trkpt lat="42.376146" lon="-7.2811379"><ele>826.4</ele><time>2026-04-25T15:17:54.046Z</time></trkpt><trkpt lat="42.3760934" lon="-7.2810402"><ele>823.2</ele><time>2026-04-25T15:17:55.059Z</time></trkpt><trkpt lat="42.3760226" lon="-7.280963"><ele>820.0</ele><time>2026-04-25T15:17:56.049Z</time></trkpt><trkpt lat="42.375944" lon="-7.2809021"><ele>820.0</ele><time>2026-04-25T15:17:57.052Z</time></trkpt><trkpt lat="42.3758513" lon="-7.2808371"><ele>820.0</ele><time>2026-04-25T15:17:58.052Z</time></trkpt><trkpt lat="42.3757477" lon="-7.2807915"><ele>820.0</ele><time>2026-04-25T15:17:59.054Z</time></trkpt><trkpt lat="42.3756511" lon="-7.2807566"><ele>820.0</ele><time>2026-04-25T15:18:00.045Z</time></trkpt><trkpt lat="42.3755621" lon="-7.2807331"><ele>820.0</ele><time>2026-04-25T15:18:01.048Z</time></trkpt><trkpt lat="42.3754865" lon="-7.2807416"><ele>816.5</ele><time>2026-04-25T15:18:02.054Z</time></trkpt><trkpt lat="42.375362" lon="-7.2808123"><ele>813.0</ele><time>2026-04-25T15:18:04.051Z</time></trkpt><trkpt lat="42.3752673" lon="-7.2808847"><ele>809.5</ele><time>2026-04-25T15:18:05.046Z</time></trkpt><trkpt lat="42.3751698" lon="-7.2809712"><ele>806.0</ele><time>2026-04-25T15:18:06.051Z</time></trkpt><trkpt lat="42.3750862" lon="-7.2811026"><ele>806.0</ele><time>2026-04-25T15:18:07.056Z</time></trkpt><trkpt lat="42.3749988" lon="-7.2812182"><ele>806.0</ele><time>2026-04-25T15:18:08.047Z</time></trkpt><trkpt lat="42.374903" lon="-7.2813473"><ele>806.0</ele><time>2026-04-25T15:18:09.043Z</time></trkpt><trkpt lat="42.3747947" lon="-7.2814381"><ele>806.0</ele><time>2026-04-25T15:18:10.055Z</time></trkpt><trkpt lat="42.3746938" lon="-7.2815299"><ele>803.75</ele><time>2026-04-25T15:18:11.045Z</time></trkpt><trkpt lat="42.3746025" lon="-7.2816231"><ele>801.5</ele><time>2026-04-25T15:18:12.044Z</time></trkpt><trkpt lat="42.3744944" lon="-7.2817279"><ele>799.25</ele><time>2026-04-25T15:18:13.046Z</time></trkpt><trkpt lat="42.3744092" lon="-7.2818083"><ele>797.0</ele><time>2026-04-25T15:18:14.059Z</time></trkpt><trkpt lat="42.3742982" lon="-7.2818764"><ele>797.0</ele><time>2026-04-25T15:18:15.041Z</time></trkpt><trkpt lat="42.3742047" lon="-7.282001"><ele>797.0</ele><time>2026-04-25T15:18:16.053Z</time></trkpt><trkpt lat="42.3740837" lon="-7.2821571"><ele>797.0</ele><time>2026-04-25T15:18:17.049Z</time></trkpt><trkpt lat="42.3739623" lon="-7.2823376"><ele>796.25</ele><time>2026-04-25T15:18:18.052Z</time></trkpt><trkpt lat="42.3738596" lon="-7.2824898"><ele>795.5</ele><time>2026-04-25T15:18:19.058Z</time></trkpt><trkpt lat="42.3737416" lon="-7.2826241"><ele>794.75</ele><time>2026-04-25T15:18:20.047Z</time></trkpt><trkpt lat="42.3736392" lon="-7.282751"><ele>794.0</ele><time>2026-04-25T15:18:21.047Z</time></trkpt><trkpt lat="42.3735489" lon="-7.2828955"><ele>794.0</ele><time>2026-04-25T15:18:22.045Z</time></trkpt><trkpt lat="42.3734648" lon="-7.2830313"><ele>794.0</ele><time>2026-04-25T15:18:23.047Z</time></trkpt><trkpt lat="42.3734077" lon="-7.2831766"><ele>794.0</ele><time>2026-04-25T15:18:24.055Z</time></trkpt><trkpt lat="42.373361" lon="-7.2833425"><ele>794.0</ele><time>2026-04-25T15:18:25.051Z</time></trkpt><trkpt lat="42.3733402" lon="-7.2835195"><ele>796.6</ele><time>2026-04-25T15:18:26.051Z</time></trkpt><trkpt lat="42.3733282" lon="-7.2836542"><ele>799.2</ele><time>2026-04-25T15:18:27.047Z</time></trkpt><trkpt lat="42.3733277" lon="-7.2837647"><ele>801.8000000000001</ele><time>2026-04-25T15:18:28.048Z</time></trkpt><trkpt lat="42.3732769" lon="-7.2839093"><ele>804.4000000000001</ele><time>2026-04-25T15:18:30.057Z</time></trkpt><trkpt lat="42.3732054" lon="-7.2839587"><ele>807.0</ele><time>2026-04-25T15:18:31.049Z</time></trkpt><trkpt lat="42.3731075" lon="-7.2839868"><ele>806.75</ele><time>2026-04-25T15:18:32.052Z</time></trkpt><trkpt lat="42.3730085" lon="-7.2840117"><ele>806.5</ele><time>2026-04-25T15:18:33.049Z</time></trkpt><trkpt lat="42.3729116" lon="-7.2840568"><ele>806.25</ele><time>2026-04-25T15:18:34.044Z</time></trkpt><trkpt lat="42.3728172" lon="-7.2841262"><ele>806.0</ele><time>2026-04-25T15:18:35.043Z</time></trkpt><trkpt lat="42.372695" lon="-7.2842349"><ele>806.0</ele><time>2026-04-25T15:18:36.048Z</time></trkpt><trkpt lat="42.3726039" lon="-7.2843147"><ele>806.0</ele><time>2026-04-25T15:18:37.05Z</time></trkpt><trkpt lat="42.3725126" lon="-7.2843876"><ele>806.0</ele><time>2026-04-25T15:18:38.044Z</time></trkpt><trkpt lat="42.3724049" lon="-7.2844392"><ele>806.0</ele><time>2026-04-25T15:18:39.051Z</time></trkpt><trkpt lat="42.3722748" lon="-7.2844886"><ele>803.0</ele><time>2026-04-25T15:18:40.047Z</time></trkpt><trkpt lat="42.3721552" lon="-7.2845259"><ele>800.0</ele><time>2026-04-25T15:18:41.045Z</time></trkpt><trkpt lat="42.3720242" lon="-7.2845534"><ele>797.0</ele><time>2026-04-25T15:18:42.055Z</time></trkpt><trkpt lat="42.3719094" lon="-7.2845893"><ele>794.0</ele><time>2026-04-25T15:18:43.044Z</time></trkpt><trkpt lat="42.3718104" lon="-7.2846318"><ele>794.0000000000001</ele><time>2026-04-25T15:18:44.043Z</time></trkpt><trkpt lat="42.3717349" lon="-7.2846824"><ele>794.0</ele><time>2026-04-25T15:18:45.049Z</time></trkpt><trkpt lat="42.371672" lon="-7.2847462"><ele>794.0</ele><time>2026-04-25T15:18:46.051Z</time></trkpt><trkpt lat="42.3716065" lon="-7.2848266"><ele>794.0</ele><time>2026-04-25T15:18:47.055Z</time></trkpt><trkpt lat="42.3715516" lon="-7.2849221"><ele>794.0000000000001</ele><time>2026-04-25T15:18:48.047Z</time></trkpt><trkpt lat="42.3714958" lon="-7.2850368"><ele>794.0</ele><time>2026-04-25T15:18:49.054Z</time></trkpt><trkpt lat="42.3714337" lon="-7.2851369"><ele>793.75</ele><time>2026-04-25T15:18:50.05Z</time></trkpt><trkpt lat="42.3713391" lon="-7.2852626"><ele>793.5</ele><time>2026-04-25T15:18:51.051Z</time></trkpt><trkpt lat="42.3712205" lon="-7.2853718"><ele>793.25</ele><time>2026-04-25T15:18:52.055Z</time></trkpt><trkpt lat="42.3710953" lon="-7.2854723"><ele>793.0</ele><time>2026-04-25T15:18:53.051Z</time></trkpt><trkpt lat="42.3709811" lon="-7.2855735"><ele>796.5999999999999</ele><time>2026-04-25T15:18:54.054Z</time></trkpt><trkpt lat="42.3708923" lon="-7.2856733"><ele>800.1999999999999</ele><time>2026-04-25T15:18:55.048Z</time></trkpt><trkpt lat="42.3708217" lon="-7.2857606"><ele>803.8</ele><time>2026-04-25T15:18:56.045Z</time></trkpt><trkpt lat="42.3707546" lon="-7.2858366"><ele>807.4</ele><time>2026-04-25T15:18:57.052Z</time></trkpt><trkpt lat="42.370674" lon="-7.2859232"><ele>811.0</ele><time>2026-04-25T15:18:58.049Z</time></trkpt><trkpt lat="42.3705597" lon="-7.2860529"><ele>808.5</ele><time>2026-04-25T15:18:59.048Z</time></trkpt><trkpt lat="42.3704419" lon="-7.2861505"><ele>806.0</ele><time>2026-04-25T15:19:00.055Z</time></trkpt><trkpt lat="42.3703175" lon="-7.2862661"><ele>803.5</ele><time>2026-04-25T15:19:01.052Z</time></trkpt><trkpt lat="42.3702125" lon="-7.2863749"><ele>801.0</ele><time>2026-04-25T15:19:02.045Z</time></trkpt><trkpt lat="42.3701212" lon="-7.2864749"><ele>801.0</ele><time>2026-04-25T15:19:03.044Z</time></trkpt><trkpt lat="42.370049" lon="-7.2865856"><ele>801.0</ele><time>2026-04-25T15:19:04.05Z</time></trkpt><trkpt lat="42.3699979" lon="-7.2866741"><ele>801.0</ele><time>2026-04-25T15:19:05.047Z</time></trkpt><trkpt lat="42.369949" lon="-7.2867678"><ele>801.0</ele><time>2026-04-25T15:19:06.056Z</time></trkpt><trkpt lat="42.3698997" lon="-7.2869063"><ele>801.0</ele><time>2026-04-25T15:19:08.055Z</time></trkpt><trkpt lat="42.3698795" lon="-7.2870668"><ele>801.0</ele><time>2026-04-25T15:19:10.057Z</time></trkpt><trkpt lat="42.3698187" lon="-7.2871138"><ele>801.0</ele><time>2026-04-25T15:19:14.055Z</time></trkpt><trkpt lat="42.3698162" lon="-7.2869947"><ele>801.0</ele><time>2026-04-25T15:19:16.056Z</time></trkpt><trkpt lat="42.3698498" lon="-7.2868632"><ele>801.0</ele><time>2026-04-25T15:19:17.052Z</time></trkpt><trkpt lat="42.3698699" lon="-7.2867138"><ele>801.0</ele><time>2026-04-25T15:19:18.054Z</time></trkpt><trkpt lat="42.36988" lon="-7.2865785"><ele>799.0</ele><time>2026-04-25T15:19:19.066Z</time></trkpt><trkpt lat="42.3699092" lon="-7.286376"><ele>797.0</ele><time>2026-04-25T15:19:20.047Z</time></trkpt><trkpt lat="42.3699358" lon="-7.286249"><ele>795.0</ele><time>2026-04-25T15:19:21.046Z</time></trkpt><trkpt lat="42.3699614" lon="-7.286133"><ele>793.0</ele><time>2026-04-25T15:19:22.048Z</time></trkpt><trkpt lat="42.3699859" lon="-7.2860103"><ele>791.0</ele><time>2026-04-25T15:19:23.051Z</time></trkpt><trkpt lat="42.3700265" lon="-7.2858748"><ele>791.0</ele><time>2026-04-25T15:19:24.044Z</time></trkpt><trkpt lat="42.3700764" lon="-7.2857329"><ele>791.0</ele><time>2026-04-25T15:19:25.05Z</time></trkpt><trkpt lat="42.3701449" lon="-7.285554"><ele>791.0</ele><time>2026-04-25T15:19:26.041Z</time></trkpt><trkpt lat="42.3702128" lon="-7.2854085"><ele>791.0</ele><time>2026-04-25T15:19:27.047Z</time></trkpt><trkpt lat="42.370292" lon="-7.2852994"><ele>789.0</ele><time>2026-04-25T15:19:28.052Z</time></trkpt><trkpt lat="42.3703722" lon="-7.285202"><ele>787.0</ele><time>2026-04-25T15:19:29.046Z</time></trkpt><trkpt lat="42.3704149" lon="-7.2850804"><ele>785.0</ele><time>2026-04-25T15:19:30.042Z</time></trkpt><trkpt lat="42.3704702" lon="-7.284961"><ele>783.0</ele><time>2026-04-25T15:19:31.049Z</time></trkpt><trkpt lat="42.3705227" lon="-7.2848424"><ele>781.0</ele><time>2026-04-25T15:19:32.06Z</time></trkpt><trkpt lat="42.3705698" lon="-7.2847236"><ele>780.5999999999999</ele><time>2026-04-25T15:19:33.055Z</time></trkpt><trkpt lat="42.3706187" lon="-7.2846075"><ele>780.2</ele><time>2026-04-25T15:19:34.046Z</time></trkpt><trkpt lat="42.3706721" lon="-7.2845071"><ele>779.8</ele><time>2026-04-25T15:19:35.055Z</time></trkpt><trkpt lat="42.3707236" lon="-7.2844072"><ele>779.4000000000001</ele><time>2026-04-25T15:19:36.054Z</time></trkpt><trkpt lat="42.3707733" lon="-7.2843022"><ele>779.0</ele><time>2026-04-25T15:19:37.056Z</time></trkpt><trkpt lat="42.3708213" lon="-7.2842017"><ele>779.0000000000001</ele><time>2026-04-25T15:19:38.049Z</time></trkpt><trkpt lat="42.37086" lon="-7.2840914"><ele>779.0</ele><time>2026-04-25T15:19:39.052Z</time></trkpt><trkpt lat="42.3708945" lon="-7.2839865"><ele>779.0</ele><time>2026-04-25T15:19:40.053Z</time></trkpt><trkpt lat="42.3709417" lon="-7.2839073"><ele>779.0</ele><time>2026-04-25T15:19:41.052Z</time></trkpt><trkpt lat="42.370982" lon="-7.283838"><ele>779.0000000000001</ele><time>2026-04-25T15:19:42.063Z</time></trkpt><trkpt lat="42.3710327" lon="-7.2837608"><ele>779.0</ele><time>2026-04-25T15:19:44.049Z</time></trkpt><trkpt lat="42.371046" lon="-7.2836724"><ele>774.0</ele><time>2026-04-25T15:19:46.05Z</time></trkpt><trkpt lat="42.370991" lon="-7.2836093"><ele>769.0</ele><time>2026-04-25T15:19:48.055Z</time></trkpt><trkpt lat="42.3708527" lon="-7.2836029"><ele>764.0</ele><time>2026-04-25T15:19:50.055Z</time></trkpt><trkpt lat="42.3707594" lon="-7.2836139"><ele>759.0</ele><time>2026-04-25T15:19:51.055Z</time></trkpt><trkpt lat="42.3706848" lon="-7.2836219"><ele>754.0</ele><time>2026-04-25T15:19:52.044Z</time></trkpt><trkpt lat="42.3705946" lon="-7.2836357"><ele>751.0</ele><time>2026-04-25T15:19:53.051Z</time></trkpt><trkpt lat="42.3705006" lon="-7.2836639"><ele>748.0</ele><time>2026-04-25T15:19:54.046Z</time></trkpt><trkpt lat="42.3704164" lon="-7.2836749"><ele>745.0</ele><time>2026-04-25T15:19:55.048Z</time></trkpt><trkpt lat="42.37032" lon="-7.2836884"><ele>742.0</ele><time>2026-04-25T15:19:56.046Z</time></trkpt><trkpt lat="42.3702059" lon="-7.2836605"><ele>739.0</ele><time>2026-04-25T15:19:57.046Z</time></trkpt><trkpt lat="42.3700884" lon="-7.2836392"><ele>739.0</ele><time>2026-04-25T15:19:58.049Z</time></trkpt><trkpt lat="42.3699653" lon="-7.2836359"><ele>739.0</ele><time>2026-04-25T15:19:59.055Z</time></trkpt><trkpt lat="42.3698446" lon="-7.2836316"><ele>739.0</ele><time>2026-04-25T15:20:00.048Z</time></trkpt><trkpt lat="42.3697241" lon="-7.2836621"><ele>739.0</ele><time>2026-04-25T15:20:01.042Z</time></trkpt><trkpt lat="42.3695903" lon="-7.283707"><ele>735.75</ele><time>2026-04-25T15:20:02.052Z</time></trkpt><trkpt lat="42.3694628" lon="-7.2837632"><ele>732.5</ele><time>2026-04-25T15:20:03.056Z</time></trkpt><trkpt lat="42.3693432" lon="-7.2837963"><ele>729.25</ele><time>2026-04-25T15:20:04.049Z</time></trkpt><trkpt lat="42.3692398" lon="-7.283785"><ele>726.0</ele><time>2026-04-25T15:20:05.052Z</time></trkpt><trkpt lat="42.36912" lon="-7.2837768"><ele>726.0</ele><time>2026-04-25T15:20:06.049Z</time></trkpt><trkpt lat="42.3690025" lon="-7.2837701"><ele>726.0</ele><time>2026-04-25T15:20:07.055Z</time></trkpt><trkpt lat="42.3688727" lon="-7.2837707"><ele>726.0</ele><time>2026-04-25T15:20:08.053Z</time></trkpt><trkpt lat="42.3687455" lon="-7.2837883"><ele>726.0</ele><time>2026-04-25T15:20:09.042Z</time></trkpt><trkpt lat="42.3686347" lon="-7.2838035"><ele>726.75</ele><time>2026-04-25T15:20:10.05Z</time></trkpt><trkpt lat="42.3685246" lon="-7.2838283"><ele>727.5</ele><time>2026-04-25T15:20:11.052Z</time></trkpt><trkpt lat="42.3684088" lon="-7.2838821"><ele>728.25</ele><time>2026-04-25T15:20:12.046Z</time></trkpt><trkpt lat="42.3682949" lon="-7.2839301"><ele>729.0</ele><time>2026-04-25T15:20:13.059Z</time></trkpt><trkpt lat="42.3681806" lon="-7.2839814"><ele>729.0</ele><time>2026-04-25T15:20:14.05Z</time></trkpt><trkpt lat="42.3680734" lon="-7.2840336"><ele>729.0</ele><time>2026-04-25T15:20:15.053Z</time></trkpt><trkpt lat="42.367966" lon="-7.2840863"><ele>729.0</ele><time>2026-04-25T15:20:16.052Z</time></trkpt><trkpt lat="42.367857" lon="-7.2841453"><ele>729.0</ele><time>2026-04-25T15:20:17.058Z</time></trkpt><trkpt lat="42.3677437" lon="-7.2842283"><ele>721.75</ele><time>2026-04-25T15:20:18.046Z</time></trkpt><trkpt lat="42.3676283" lon="-7.2843105"><ele>714.5</ele><time>2026-04-25T15:20:19.049Z</time></trkpt><trkpt lat="42.3675078" lon="-7.2843946"><ele>707.25</ele><time>2026-04-25T15:20:20.042Z</time></trkpt><trkpt lat="42.3673982" lon="-7.2844738"><ele>700.0</ele><time>2026-04-25T15:20:21.044Z</time></trkpt><trkpt lat="42.3672947" lon="-7.284553"><ele>700.0</ele><time>2026-04-25T15:20:22.048Z</time></trkpt><trkpt lat="42.3671945" lon="-7.284642"><ele>700.0</ele><time>2026-04-25T15:20:23.055Z</time></trkpt><trkpt lat="42.3671186" lon="-7.2847305"><ele>700.0</ele><time>2026-04-25T15:20:24.045Z</time></trkpt><trkpt lat="42.3670682" lon="-7.2848191"><ele>700.0</ele><time>2026-04-25T15:20:25.041Z</time></trkpt><trkpt lat="42.3670283" lon="-7.2849462"><ele>700.0</ele><time>2026-04-25T15:20:26.055Z</time></trkpt><trkpt lat="42.3669953" lon="-7.2850829"><ele>699.3333333333334</ele><time>2026-04-25T15:20:27.049Z</time></trkpt><trkpt lat="42.3669731" lon="-7.2852088"><ele>698.6666666666667</ele><time>2026-04-25T15:20:28.043Z</time></trkpt><trkpt lat="42.3669692" lon="-7.2853331"><ele>698.0</ele><time>2026-04-25T15:20:29.06Z</time></trkpt><trkpt lat="42.3669713" lon="-7.2854638"><ele>697.3333333333334</ele><time>2026-04-25T15:20:30.06Z</time></trkpt><trkpt lat="42.3669789" lon="-7.2855709"><ele>696.6666666666666</ele><time>2026-04-25T15:20:31.048Z</time></trkpt><trkpt lat="42.3669813" lon="-7.2856689"><ele>696.0</ele><time>2026-04-25T15:20:32.052Z</time></trkpt><trkpt lat="42.3669877" lon="-7.2857643"><ele>696.0</ele><time>2026-04-25T15:20:33.052Z</time></trkpt><trkpt lat="42.3670241" lon="-7.2858611"><ele>696.0</ele><time>2026-04-25T15:20:34.05Z</time></trkpt><trkpt lat="42.3670585" lon="-7.2859553"><ele>696.0</ele><time>2026-04-25T15:20:35.052Z</time></trkpt><trkpt lat="42.367093" lon="-7.2860383"><ele>696.0</ele><time>2026-04-25T15:20:36.048Z</time></trkpt><trkpt lat="42.3671302" lon="-7.286139"><ele>696.0</ele><time>2026-04-25T15:20:37.05Z</time></trkpt><trkpt lat="42.3671652" lon="-7.2862306"><ele>696.0</ele><time>2026-04-25T15:20:38.056Z</time></trkpt><trkpt lat="42.3671788" lon="-7.2863547"><ele>696.0</ele><time>2026-04-25T15:20:40.051Z</time></trkpt><trkpt lat="42.3671185" lon="-7.2863839"><ele>696.0</ele><time>2026-04-25T15:20:41.05Z</time></trkpt><trkpt lat="42.3670445" lon="-7.2864034"><ele>696.0</ele><time>2026-04-25T15:20:42.051Z</time></trkpt><trkpt lat="42.3669648" lon="-7.2863964"><ele>696.0</ele><time>2026-04-25T15:20:43.058Z</time></trkpt><trkpt lat="42.3668799" lon="-7.2863928"><ele>696.0</ele><time>2026-04-25T15:20:44.041Z</time></trkpt><trkpt lat="42.3667811" lon="-7.2864027"><ele>696.0</ele><time>2026-04-25T15:20:45.054Z</time></trkpt><trkpt lat="42.3666974" lon="-7.2864178"><ele>699.4</ele><time>2026-04-25T15:20:46.048Z</time></trkpt><trkpt lat="42.3666131" lon="-7.2864818"><ele>702.8</ele><time>2026-04-25T15:20:47.048Z</time></trkpt><trkpt lat="42.3665467" lon="-7.2865768"><ele>706.1999999999999</ele><time>2026-04-25T15:20:48.049Z</time></trkpt><trkpt lat="42.3664722" lon="-7.2866657"><ele>709.5999999999999</ele><time>2026-04-25T15:20:49.045Z</time></trkpt><trkpt lat="42.3664162" lon="-7.2867303"><ele>713.0</ele><time>2026-04-25T15:20:50.044Z</time></trkpt><trkpt lat="42.3663345" lon="-7.2868035"><ele>714.2</ele><time>2026-04-25T15:20:52.057Z</time></trkpt><trkpt lat="42.3662616" lon="-7.2867563"><ele>715.4</ele><time>2026-04-25T15:20:54.058Z</time></trkpt><trkpt lat="42.3661978" lon="-7.2866171"><ele>716.6</ele><time>2026-04-25T15:20:56.051Z</time></trkpt><trkpt lat="42.366185" lon="-7.2865194"><ele>717.8000000000001</ele><time>2026-04-25T15:20:57.053Z</time></trkpt><trkpt lat="42.3661588" lon="-7.2864004"><ele>719.0</ele><time>2026-04-25T15:20:58.051Z</time></trkpt><trkpt lat="42.3660811" lon="-7.2862792"><ele>719.0</ele><time>2026-04-25T15:20:59.057Z</time></trkpt><trkpt lat="42.3660055" lon="-7.2861544"><ele>719.0</ele><time>2026-04-25T15:21:00.061Z</time></trkpt><trkpt lat="42.3659455" lon="-7.2860282"><ele>719.0</ele><time>2026-04-25T15:21:01.044Z</time></trkpt><trkpt lat="42.3659022" lon="-7.2859139"><ele>719.0</ele><time>2026-04-25T15:21:02.053Z</time></trkpt><trkpt lat="42.3658586" lon="-7.2858354"><ele>719.0</ele><time>2026-04-25T15:21:03.052Z</time></trkpt><trkpt lat="42.3658004" lon="-7.2857497"><ele>719.0</ele><time>2026-04-25T15:21:04.045Z</time></trkpt><trkpt lat="42.3657232" lon="-7.2856649"><ele>719.0</ele><time>2026-04-25T15:21:05.047Z</time></trkpt><trkpt lat="42.3656385" lon="-7.2855906"><ele>719.0</ele><time>2026-04-25T15:21:06.048Z</time></trkpt><trkpt lat="42.3655481" lon="-7.2855272"><ele>719.0</ele><time>2026-04-25T15:21:07.049Z</time></trkpt><trkpt lat="42.3654931" lon="-7.2854839"><ele>719.0</ele><time>2026-04-25T15:21:08.047Z</time></trkpt><trkpt lat="42.3654252" lon="-7.2854498"><ele>719.0</ele><time>2026-04-25T15:21:10.061Z</time></trkpt><trkpt lat="42.3653668" lon="-7.2855222"><ele>719.0</ele><time>2026-04-25T15:21:13.055Z</time></trkpt><trkpt lat="42.3654321" lon="-7.2856659"><ele>719.0</ele><time>2026-04-25T15:21:15.061Z</time></trkpt><trkpt lat="42.36547" lon="-7.2857764"><ele>719.0</ele><time>2026-04-25T15:21:16.054Z</time></trkpt><trkpt lat="42.3654882" lon="-7.2859202"><ele>719.0</ele><time>2026-04-25T15:21:17.045Z</time></trkpt><trkpt lat="42.3655174" lon="-7.2860791"><ele>719.0</ele><time>2026-04-25T15:21:18.054Z</time></trkpt><trkpt lat="42.3655392" lon="-7.2862006"><ele>719.0</ele><time>2026-04-25T15:21:19.056Z</time></trkpt><trkpt lat="42.3655559" lon="-7.2863377"><ele>719.0</ele><time>2026-04-25T15:21:20.045Z</time></trkpt><trkpt lat="42.3655665" lon="-7.2864959"><ele>719.0</ele><time>2026-04-25T15:21:21.049Z</time></trkpt><trkpt lat="42.3655709" lon="-7.2866574"><ele>719.0</ele><time>2026-04-25T15:21:22.047Z</time></trkpt><trkpt lat="42.3655781" lon="-7.2867632"><ele>719.0</ele><time>2026-04-25T15:21:23.049Z</time></trkpt><trkpt lat="42.3655301" lon="-7.28687"><ele>723.3333333333333</ele><time>2026-04-25T15:21:27.053Z</time></trkpt><trkpt lat="42.3654828" lon="-7.2867915"><ele>727.6666666666666</ele><time>2026-04-25T15:21:29.05Z</time></trkpt><trkpt lat="42.3654474" lon="-7.2867139"><ele>732.0</ele><time>2026-04-25T15:21:30.05Z</time></trkpt><trkpt lat="42.3654012" lon="-7.2866309"><ele>736.3333333333334</ele><time>2026-04-25T15:21:31.057Z</time></trkpt><trkpt lat="42.3653303" lon="-7.2865517"><ele>740.6666666666667</ele><time>2026-04-25T15:21:32.054Z</time></trkpt><trkpt lat="42.365257" lon="-7.2864714"><ele>745.0</ele><time>2026-04-25T15:21:33.046Z</time></trkpt><trkpt lat="42.3651874" lon="-7.2863989"><ele>745.0</ele><time>2026-04-25T15:21:34.049Z</time></trkpt><trkpt lat="42.365106" lon="-7.286366"><ele>745.0</ele><time>2026-04-25T15:21:35.05Z</time></trkpt><trkpt lat="42.3650295" lon="-7.2863603"><ele>745.0</ele><time>2026-04-25T15:21:36.046Z</time></trkpt><trkpt lat="42.364927" lon="-7.2863673"><ele>745.0</ele><time>2026-04-25T15:21:37.055Z</time></trkpt><trkpt lat="42.3648186" lon="-7.2863657"><ele>745.0</ele><time>2026-04-25T15:21:38.045Z</time></trkpt><trkpt lat="42.3647127" lon="-7.28636"><ele>747.0</ele><time>2026-04-25T15:21:39.053Z</time></trkpt><trkpt lat="42.3645934" lon="-7.2863455"><ele>749.0</ele><time>2026-04-25T15:21:40.054Z</time></trkpt><trkpt lat="42.3644986" lon="-7.2863355"><ele>751.0</ele><time>2026-04-25T15:21:41.046Z</time></trkpt><trkpt lat="42.3643985" lon="-7.2863362"><ele>753.0</ele><time>2026-04-25T15:21:42.05Z</time></trkpt><trkpt lat="42.364278" lon="-7.2863329"><ele>755.0</ele><time>2026-04-25T15:21:43.051Z</time></trkpt><trkpt lat="42.3641541" lon="-7.2863203"><ele>755.0</ele><time>2026-04-25T15:21:44.05Z</time></trkpt><trkpt lat="42.3640361" lon="-7.2863077"><ele>755.0</ele><time>2026-04-25T15:21:45.045Z</time></trkpt><trkpt lat="42.3639504" lon="-7.2863022"><ele>755.0</ele><time>2026-04-25T15:21:46.043Z</time></trkpt><trkpt lat="42.3638809" lon="-7.2863026"><ele>755.0</ele><time>2026-04-25T15:21:47.054Z</time></trkpt><trkpt lat="42.3638137" lon="-7.2863227"><ele>755.0</ele><time>2026-04-25T15:21:48.047Z</time></trkpt><trkpt lat="42.3637533" lon="-7.2864107"><ele>755.0</ele><time>2026-04-25T15:21:50.05Z</time></trkpt><trkpt lat="42.3638374" lon="-7.2864991"><ele>758.4</ele><time>2026-04-25T15:21:53.052Z</time></trkpt><trkpt lat="42.3639042" lon="-7.2865387"><ele>761.8</ele><time>2026-04-25T15:21:54.051Z</time></trkpt><trkpt lat="42.3639952" lon="-7.2865904"><ele>765.2</ele><time>2026-04-25T15:21:55.045Z</time></trkpt><trkpt lat="42.3641045" lon="-7.286652"><ele>768.6</ele><time>2026-04-25T15:21:56.056Z</time></trkpt><trkpt lat="42.3642121" lon="-7.2867053"><ele>772.0</ele><time>2026-04-25T15:21:57.052Z</time></trkpt><trkpt lat="42.3643204" lon="-7.2867576"><ele>772.0</ele><time>2026-04-25T15:21:58.048Z</time></trkpt><trkpt lat="42.364415" lon="-7.2868331"><ele>772.0</ele><time>2026-04-25T15:21:59.046Z</time></trkpt><trkpt lat="42.3645194" lon="-7.286949"><ele>772.0</ele><time>2026-04-25T15:22:00.049Z</time></trkpt><trkpt lat="42.3645879" lon="-7.2870188"><ele>772.0</ele><time>2026-04-25T15:22:01.057Z</time></trkpt><trkpt lat="42.36463" lon="-7.2871158"><ele>772.0</ele><time>2026-04-25T15:22:02.053Z</time></trkpt><trkpt lat="42.3646656" lon="-7.287242"><ele>774.4000000000001</ele><time>2026-04-25T15:22:03.054Z</time></trkpt><trkpt lat="42.36466" lon="-7.2873712"><ele>776.8000000000001</ele><time>2026-04-25T15:22:04.057Z</time></trkpt><trkpt lat="42.3646293" lon="-7.2874768"><ele>779.2</ele><time>2026-04-25T15:22:05.054Z</time></trkpt><trkpt lat="42.3645979" lon="-7.2875752"><ele>781.6</ele><time>2026-04-25T15:22:06.05Z</time></trkpt><trkpt lat="42.3645342" lon="-7.2876615"><ele>784.0</ele><time>2026-04-25T15:22:07.06Z</time></trkpt><trkpt lat="42.3644447" lon="-7.2877712"><ele>784.0</ele><time>2026-04-25T15:22:08.063Z</time></trkpt><trkpt lat="42.3643817" lon="-7.287875"><ele>784.0</ele><time>2026-04-25T15:22:09.054Z</time></trkpt><trkpt lat="42.3643068" lon="-7.2879554"><ele>784.0</ele><time>2026-04-25T15:22:10.045Z</time></trkpt><trkpt lat="42.3642358" lon="-7.2880089"><ele>784.0</ele><time>2026-04-25T15:22:11.052Z</time></trkpt><trkpt lat="42.3641556" lon="-7.2880086"><ele>784.0</ele><time>2026-04-25T15:22:12.055Z</time></trkpt><trkpt lat="42.3640514" lon="-7.2879877"><ele>784.0</ele><time>2026-04-25T15:22:13.053Z</time></trkpt><trkpt lat="42.3639335" lon="-7.2879633"><ele>784.0</ele><time>2026-04-25T15:22:14.046Z</time></trkpt><trkpt lat="42.3638225" lon="-7.2879466"><ele>784.0</ele><time>2026-04-25T15:22:15.045Z</time></trkpt><trkpt lat="42.3636426" lon="-7.2879372"><ele>784.0</ele><time>2026-04-25T15:22:16.055Z</time></trkpt><trkpt lat="42.3635141" lon="-7.2879192"><ele>786.0</ele><time>2026-04-25T15:22:17.046Z</time></trkpt><trkpt lat="42.3633975" lon="-7.2879262"><ele>788.0</ele><time>2026-04-25T15:22:18.048Z</time></trkpt><trkpt lat="42.3632971" lon="-7.28795"><ele>790.0</ele><time>2026-04-25T15:22:19.041Z</time></trkpt><trkpt lat="42.3631984" lon="-7.2879851"><ele>792.0</ele><time>2026-04-25T15:22:20.049Z</time></trkpt><trkpt lat="42.363076" lon="-7.2880491"><ele>793.25</ele><time>2026-04-25T15:22:21.054Z</time></trkpt><trkpt lat="42.3629673" lon="-7.2881175"><ele>794.5</ele><time>2026-04-25T15:22:22.042Z</time></trkpt><trkpt lat="42.3628568" lon="-7.2881924"><ele>795.75</ele><time>2026-04-25T15:22:23.054Z</time></trkpt><trkpt lat="42.3627431" lon="-7.2882825"><ele>797.0</ele><time>2026-04-25T15:22:24.053Z</time></trkpt><trkpt lat="42.3626259" lon="-7.2883865"><ele>797.0</ele><time>2026-04-25T15:22:25.05Z</time></trkpt><trkpt lat="42.3625364" lon="-7.2885011"><ele>797.0</ele><time>2026-04-25T15:22:26.053Z</time></trkpt><trkpt lat="42.362456" lon="-7.28862"><ele>797.0</ele><time>2026-04-25T15:22:27.058Z</time></trkpt><trkpt lat="42.3623891" lon="-7.288717"><ele>797.0</ele><time>2026-04-25T15:22:28.063Z</time></trkpt><trkpt lat="42.3623299" lon="-7.2888104"><ele>797.0</ele><time>2026-04-25T15:22:29.058Z</time></trkpt><trkpt lat="42.3622782" lon="-7.2888616"><ele>797.3333333333334</ele><time>2026-04-25T15:22:30.06Z</time></trkpt><trkpt lat="42.3621668" lon="-7.2888368"><ele>797.6666666666667</ele><time>2026-04-25T15:22:32.054Z</time></trkpt><trkpt lat="42.3621206" lon="-7.2887732"><ele>798.0</ele><time>2026-04-25T15:22:33.05Z</time></trkpt><trkpt lat="42.3620688" lon="-7.2887208"><ele>798.3333333333333</ele><time>2026-04-25T15:22:34.051Z</time></trkpt><trkpt lat="42.3620062" lon="-7.2886768"><ele>798.6666666666666</ele><time>2026-04-25T15:22:35.046Z</time></trkpt><trkpt lat="42.3619105" lon="-7.2886462"><ele>799.0</ele><time>2026-04-25T15:22:36.043Z</time></trkpt><trkpt lat="42.3617883" lon="-7.2886284"><ele>799.0</ele><time>2026-04-25T15:22:37.049Z</time></trkpt><trkpt lat="42.3616561" lon="-7.2886358"><ele>799.0</ele><time>2026-04-25T15:22:38.045Z</time></trkpt><trkpt lat="42.361494" lon="-7.2886153"><ele>799.0</ele><time>2026-04-25T15:22:39.046Z</time></trkpt><trkpt lat="42.3613515" lon="-7.288608"><ele>799.0</ele><time>2026-04-25T15:22:40.05Z</time></trkpt><trkpt lat="42.3612318" lon="-7.2886205"><ele>798.6</ele><time>2026-04-25T15:22:41.057Z</time></trkpt><trkpt lat="42.3611597" lon="-7.2886305"><ele>798.2</ele><time>2026-04-25T15:22:42.048Z</time></trkpt><trkpt lat="42.3610471" lon="-7.2887287"><ele>797.8000000000001</ele><time>2026-04-25T15:22:44.053Z</time></trkpt><trkpt lat="42.3609811" lon="-7.2887944"><ele>797.4000000000001</ele><time>2026-04-25T15:22:45.049Z</time></trkpt><trkpt lat="42.3609147" lon="-7.2888921"><ele>797.0</ele><time>2026-04-25T15:22:46.059Z</time></trkpt><trkpt lat="42.3608488" lon="-7.2890345"><ele>800.5</ele><time>2026-04-25T15:22:47.049Z</time></trkpt><trkpt lat="42.3607835" lon="-7.2892124"><ele>804.0</ele><time>2026-04-25T15:22:48.043Z</time></trkpt><trkpt lat="42.3607247" lon="-7.2893905"><ele>807.5</ele><time>2026-04-25T15:22:49.044Z</time></trkpt><trkpt lat="42.3606684" lon="-7.2895603"><ele>811.0</ele><time>2026-04-25T15:22:50.048Z</time></trkpt><trkpt lat="42.3606115" lon="-7.2897342"><ele>808.0</ele><time>2026-04-25T15:22:51.054Z</time></trkpt><trkpt lat="42.3605319" lon="-7.2899181"><ele>805.0</ele><time>2026-04-25T15:22:52.046Z</time></trkpt><trkpt lat="42.3604578" lon="-7.290114"><ele>802.0</ele><time>2026-04-25T15:22:53.046Z</time></trkpt><trkpt lat="42.3603994" lon="-7.2903061"><ele>802.0</ele><time>2026-04-25T15:22:54.052Z</time></trkpt><trkpt lat="42.3603508" lon="-7.2904959"><ele>802.0</ele><time>2026-04-25T15:22:55.048Z</time></trkpt><trkpt lat="42.360305" lon="-7.2906602"><ele>802.0</ele><time>2026-04-25T15:22:56.052Z</time></trkpt><trkpt lat="42.3602559" lon="-7.2908332"><ele>802.0</ele><time>2026-04-25T15:22:57.059Z</time></trkpt><trkpt lat="42.3602072" lon="-7.2909951"><ele>805.0</ele><time>2026-04-25T15:22:58.049Z</time></trkpt><trkpt lat="42.3601856" lon="-7.2911508"><ele>808.0</ele><time>2026-04-25T15:22:59.047Z</time></trkpt><trkpt lat="42.3601506" lon="-7.2912692"><ele>811.0</ele><time>2026-04-25T15:23:00.046Z</time></trkpt><trkpt lat="42.3601011" lon="-7.291393"><ele>814.0</ele><time>2026-04-25T15:23:01.065Z</time></trkpt><trkpt lat="42.3600191" lon="-7.2914809"><ele>817.0</ele><time>2026-04-25T15:23:02.06Z</time></trkpt><trkpt lat="42.3599388" lon="-7.2915681"><ele>819.0</ele><time>2026-04-25T15:23:03.048Z</time></trkpt><trkpt lat="42.3598557" lon="-7.2916472"><ele>821.0</ele><time>2026-04-25T15:23:04.052Z</time></trkpt><trkpt lat="42.3597664" lon="-7.2917106"><ele>823.0</ele><time>2026-04-25T15:23:05.057Z</time></trkpt><trkpt lat="42.3596457" lon="-7.2917927"><ele>825.0</ele><time>2026-04-25T15:23:06.051Z</time></trkpt><trkpt lat="42.3595342" lon="-7.2918634"><ele>825.0</ele><time>2026-04-25T15:23:07.043Z</time></trkpt><trkpt lat="42.3594266" lon="-7.2919128"><ele>825.0</ele><time>2026-04-25T15:23:08.057Z</time></trkpt><trkpt lat="42.3593322" lon="-7.2919674"><ele>825.0</ele><time>2026-04-25T15:23:09.049Z</time></trkpt><trkpt lat="42.359247" lon="-7.2920181"><ele>825.0</ele><time>2026-04-25T15:23:10.057Z</time></trkpt><trkpt lat="42.3591661" lon="-7.2920826"><ele>825.0</ele><time>2026-04-25T15:23:11.045Z</time></trkpt><trkpt lat="42.3590677" lon="-7.2921668"><ele>825.0</ele><time>2026-04-25T15:23:12.046Z</time></trkpt><trkpt lat="42.3589742" lon="-7.2922499"><ele>825.0</ele><time>2026-04-25T15:23:13.045Z</time></trkpt><trkpt lat="42.3588898" lon="-7.2922941"><ele>825.0</ele><time>2026-04-25T15:23:14.055Z</time></trkpt><trkpt lat="42.3587927" lon="-7.2922895"><ele>825.0</ele><time>2026-04-25T15:23:15.093Z</time></trkpt><trkpt lat="42.3586854" lon="-7.2922546"><ele>825.0</ele><time>2026-04-25T15:23:16.052Z</time></trkpt><trkpt lat="42.3585698" lon="-7.2921866"><ele>827.3333333333333</ele><time>2026-04-25T15:23:17.044Z</time></trkpt><trkpt lat="42.3584409" lon="-7.2921108"><ele>829.6666666666666</ele><time>2026-04-25T15:23:18.045Z</time></trkpt><trkpt lat="42.3582935" lon="-7.2920509"><ele>832.0</ele><time>2026-04-25T15:23:19.053Z</time></trkpt><trkpt lat="42.3581269" lon="-7.291957"><ele>834.0</ele><time>2026-04-25T15:23:20.052Z</time></trkpt><trkpt lat="42.3579999" lon="-7.2918784"><ele>836.0</ele><time>2026-04-25T15:23:21.049Z</time></trkpt><trkpt lat="42.3578889" lon="-7.2917949"><ele>838.0</ele><time>2026-04-25T15:23:22.046Z</time></trkpt><trkpt lat="42.3577836" lon="-7.2917048"><ele>840.0</ele><time>2026-04-25T15:23:23.055Z</time></trkpt><trkpt lat="42.3576867" lon="-7.2916223"><ele>840.0</ele><time>2026-04-25T15:23:24.045Z</time></trkpt><trkpt lat="42.357599" lon="-7.2915537"><ele>840.0</ele><time>2026-04-25T15:23:25.058Z</time></trkpt><trkpt lat="42.3574831" lon="-7.2915076"><ele>840.0</ele><time>2026-04-25T15:23:26.051Z</time></trkpt><trkpt lat="42.3573742" lon="-7.2914859"><ele>840.0</ele><time>2026-04-25T15:23:27.051Z</time></trkpt><trkpt lat="42.357294" lon="-7.2914865"><ele>840.0</ele><time>2026-04-25T15:23:28.046Z</time></trkpt><trkpt lat="42.357221" lon="-7.2915105"><ele>840.5</ele><time>2026-04-25T15:23:29.054Z</time></trkpt><trkpt lat="42.3571511" lon="-7.291559"><ele>841.0</ele><time>2026-04-25T15:23:30.051Z</time></trkpt><trkpt lat="42.3570731" lon="-7.2916231"><ele>841.5</ele><time>2026-04-25T15:23:31.049Z</time></trkpt><trkpt lat="42.3569962" lon="-7.2916779"><ele>842.0</ele><time>2026-04-25T15:23:32.046Z</time></trkpt><trkpt lat="42.3569126" lon="-7.2917304"><ele>842.5</ele><time>2026-04-25T15:23:33.044Z</time></trkpt><trkpt lat="42.3568124" lon="-7.2917358"><ele>843.0</ele><time>2026-04-25T15:23:34.045Z</time></trkpt><trkpt lat="42.3566931" lon="-7.2917608"><ele>843.0</ele><time>2026-04-25T15:23:35.059Z</time></trkpt><trkpt lat="42.3566059" lon="-7.2917999"><ele>843.0</ele><time>2026-04-25T15:23:36.048Z</time></trkpt><trkpt lat="42.356549" lon="-7.2918494"><ele>843.0</ele><time>2026-04-25T15:23:37.045Z</time></trkpt><trkpt lat="42.3565163" lon="-7.2919543"><ele>843.0</ele><time>2026-04-25T15:23:39.05Z</time></trkpt><trkpt lat="42.3565476" lon="-7.2920481"><ele>843.0</ele><time>2026-04-25T15:23:40.062Z</time></trkpt><trkpt lat="42.3565845" lon="-7.2921473"><ele>843.0</ele><time>2026-04-25T15:23:41.048Z</time></trkpt><trkpt lat="42.3566312" lon="-7.2922151"><ele>845.2</ele><time>2026-04-25T15:23:42.044Z</time></trkpt><trkpt lat="42.3566965" lon="-7.2922848"><ele>847.4</ele><time>2026-04-25T15:23:43.061Z</time></trkpt><trkpt lat="42.3567961" lon="-7.2923392"><ele>849.6000000000001</ele><time>2026-04-25T15:23:44.046Z</time></trkpt><trkpt lat="42.3568986" lon="-7.2923622"><ele>851.8000000000001</ele><time>2026-04-25T15:23:45.044Z</time></trkpt><trkpt lat="42.35703" lon="-7.2923772"><ele>854.0</ele><time>2026-04-25T15:23:46.044Z</time></trkpt><trkpt lat="42.3571598" lon="-7.292375"><ele>853.4000000000001</ele><time>2026-04-25T15:23:47.049Z</time></trkpt><trkpt lat="42.3572681" lon="-7.2923737"><ele>852.8000000000001</ele><time>2026-04-25T15:23:48.05Z</time></trkpt><trkpt lat="42.3573557" lon="-7.2924056"><ele>852.2</ele><time>2026-04-25T15:23:49.043Z</time></trkpt><trkpt lat="42.357436" lon="-7.2924399"><ele>851.5999999999999</ele><time>2026-04-25T15:23:50.054Z</time></trkpt><trkpt lat="42.3574964" lon="-7.2925464"><ele>851.0</ele><time>2026-04-25T15:23:51.045Z</time></trkpt><trkpt lat="42.3575582" lon="-7.2926703"><ele>851.0</ele><time>2026-04-25T15:23:52.05Z</time></trkpt><trkpt lat="42.3576058" lon="-7.2928312"><ele>851.0</ele><time>2026-04-25T15:23:53.048Z</time></trkpt><trkpt lat="42.3576659" lon="-7.2929825"><ele>851.0</ele><time>2026-04-25T15:23:54.054Z</time></trkpt><trkpt lat="42.3577136" lon="-7.2931002"><ele>851.0</ele><time>2026-04-25T15:23:55.051Z</time></trkpt><trkpt lat="42.3577549" lon="-7.2931972"><ele>851.0</ele><time>2026-04-25T15:23:56.055Z</time></trkpt><trkpt lat="42.3578026" lon="-7.293282"><ele>851.0</ele><time>2026-04-25T15:23:57.051Z</time></trkpt><trkpt lat="42.3578428" lon="-7.293401"><ele>851.0</ele><time>2026-04-25T15:23:59.056Z</time></trkpt><trkpt lat="42.3578451" lon="-7.293279"><ele>851.0</ele><time>2026-04-25T15:24:39.056Z</time></trkpt><trkpt lat="42.3577911" lon="-7.2931197"><ele>851.0</ele><time>2026-04-25T15:24:41.063Z</time></trkpt><trkpt lat="42.3577297" lon="-7.2930288"><ele>851.0</ele><time>2026-04-25T15:24:42.053Z</time></trkpt><trkpt lat="42.357676" lon="-7.2929329"><ele>851.0</ele><time>2026-04-25T15:24:43.048Z</time></trkpt><trkpt lat="42.3576192" lon="-7.2928276"><ele>851.0</ele><time>2026-04-25T15:24:44.053Z</time></trkpt><trkpt lat="42.357563" lon="-7.2927005"><ele>851.0</ele><time>2026-04-25T15:24:45.05Z</time></trkpt><trkpt lat="42.357513" lon="-7.2925891"><ele>851.0</ele><time>2026-04-25T15:24:46.049Z</time></trkpt><trkpt lat="42.3574765" lon="-7.2924995"><ele>851.0</ele><time>2026-04-25T15:24:47.047Z</time></trkpt><trkpt lat="42.3574252" lon="-7.2924291"><ele>851.0</ele><time>2026-04-25T15:24:48.047Z</time></trkpt><trkpt lat="42.3573741" lon="-7.2923652"><ele>851.0</ele><time>2026-04-25T15:24:49.048Z</time></trkpt><trkpt lat="42.3572781" lon="-7.2923427"><ele>851.0</ele><time>2026-04-25T15:24:50.054Z</time></trkpt><trkpt lat="42.357177" lon="-7.2923256"><ele>851.0</ele><time>2026-04-25T15:24:51.049Z</time></trkpt><trkpt lat="42.3570692" lon="-7.2923421"><ele>851.0</ele><time>2026-04-25T15:24:52.049Z</time></trkpt><trkpt lat="42.3569708" lon="-7.2923602"><ele>851.5000000000001</ele><time>2026-04-25T15:24:53.05Z</time></trkpt><trkpt lat="42.3568914" lon="-7.2923728"><ele>852.0</ele><time>2026-04-25T15:24:54.043Z</time></trkpt><trkpt lat="42.3568094" lon="-7.2923604"><ele>852.5</ele><time>2026-04-25T15:24:55.049Z</time></trkpt><trkpt lat="42.3567417" lon="-7.2923253"><ele>853.0</ele><time>2026-04-25T15:24:56.052Z</time></trkpt><trkpt lat="42.3566771" lon="-7.2922893"><ele>853.5000000000001</ele><time>2026-04-25T15:24:57.052Z</time></trkpt><trkpt lat="42.3565821" lon="-7.2922027"><ele>854.0</ele><time>2026-04-25T15:24:59.057Z</time></trkpt><trkpt lat="42.3565307" lon="-7.2920427"><ele>851.8000000000001</ele><time>2026-04-25T15:25:01.055Z</time></trkpt><trkpt lat="42.3565359" lon="-7.2918863"><ele>849.6000000000001</ele><time>2026-04-25T15:25:03.05Z</time></trkpt><trkpt lat="42.3566169" lon="-7.2917753"><ele>847.4</ele><time>2026-04-25T15:25:05.048Z</time></trkpt><trkpt lat="42.3567404" lon="-7.2917388"><ele>845.2</ele><time>2026-04-25T15:25:07.055Z</time></trkpt><trkpt lat="42.3568077" lon="-7.2917331"><ele>843.0</ele><time>2026-04-25T15:25:08.053Z</time></trkpt><trkpt lat="42.3568737" lon="-7.2917275"><ele>843.0</ele><time>2026-04-25T15:25:09.048Z</time></trkpt><trkpt lat="42.3569755" lon="-7.2916937"><ele>843.0</ele><time>2026-04-25T15:25:11.049Z</time></trkpt><trkpt lat="42.3570641" lon="-7.2916196"><ele>843.0</ele><time>2026-04-25T15:25:13.051Z</time></trkpt><trkpt lat="42.3571521" lon="-7.291554"><ele>843.0</ele><time>2026-04-25T15:25:15.051Z</time></trkpt><trkpt lat="42.3572488" lon="-7.2914962"><ele>843.0</ele><time>2026-04-25T15:25:17.057Z</time></trkpt><trkpt lat="42.3573626" lon="-7.2914825"><ele>842.5</ele><time>2026-04-25T15:25:19.074Z</time></trkpt><trkpt lat="42.3574507" lon="-7.2914839"><ele>842.0</ele><time>2026-04-25T15:25:21.049Z</time></trkpt><trkpt lat="42.3574447" lon="-7.2913883"><ele>841.5</ele><time>2026-04-25T15:25:25.055Z</time></trkpt><trkpt lat="42.3573563" lon="-7.2913435"><ele>841.0</ele><time>2026-04-25T15:25:28.06Z</time></trkpt><trkpt lat="42.3572773" lon="-7.2912808"><ele>840.5</ele><time>2026-04-25T15:25:30.055Z</time></trkpt><trkpt lat="42.3572186" lon="-7.2912376"><ele>840.0</ele><time>2026-04-25T15:25:31.051Z</time></trkpt><trkpt lat="42.3570934" lon="-7.2911549"><ele>837.0</ele><time>2026-04-25T15:25:33.064Z</time></trkpt><trkpt lat="42.3570363" lon="-7.2911149"><ele>834.0</ele><time>2026-04-25T15:25:34.065Z</time></trkpt><trkpt lat="42.3569227" lon="-7.2910475"><ele>831.0</ele><time>2026-04-25T15:25:36.059Z</time></trkpt><trkpt lat="42.3568607" lon="-7.291021"><ele>828.0</ele><time>2026-04-25T15:25:37.068Z</time></trkpt><trkpt lat="42.3567962" lon="-7.2910053"><ele>825.0</ele><time>2026-04-25T15:25:38.071Z</time></trkpt><trkpt lat="42.3566843" lon="-7.2909907"><ele>822.0</ele><time>2026-04-25T15:25:40.053Z</time></trkpt><trkpt lat="42.3565574" lon="-7.290966"><ele>822.0</ele><time>2026-04-25T15:25:42.057Z</time></trkpt><trkpt lat="42.3564773" lon="-7.290949"><ele>822.0</ele><time>2026-04-25T15:25:43.044Z</time></trkpt><trkpt lat="42.3563917" lon="-7.29092"><ele>822.0</ele><time>2026-04-25T15:25:44.049Z</time></trkpt><trkpt lat="42.3562679" lon="-7.2908878"><ele>822.0</ele><time>2026-04-25T15:25:45.047Z</time></trkpt><trkpt lat="42.3561753" lon="-7.2908511"><ele>822.0</ele><time>2026-04-25T15:25:46.052Z</time></trkpt><trkpt lat="42.356097" lon="-7.2907947"><ele>821.3333333333334</ele><time>2026-04-25T15:25:47.042Z</time></trkpt><trkpt lat="42.3560197" lon="-7.2907416"><ele>820.6666666666667</ele><time>2026-04-25T15:25:48.056Z</time></trkpt><trkpt lat="42.355927" lon="-7.2907153"><ele>820.0</ele><time>2026-04-25T15:25:49.051Z</time></trkpt><trkpt lat="42.3558508" lon="-7.2906987"><ele>819.3333333333334</ele><time>2026-04-25T15:25:50.051Z</time></trkpt><trkpt lat="42.3557869" lon="-7.2906847"><ele>818.6666666666667</ele><time>2026-04-25T15:25:51.052Z</time></trkpt><trkpt lat="42.3557102" lon="-7.2906653"><ele>818.0</ele><time>2026-04-25T15:25:52.056Z</time></trkpt><trkpt lat="42.3555819" lon="-7.2906592"><ele>814.1666666666667</ele><time>2026-04-25T15:25:54.048Z</time></trkpt><trkpt lat="42.3555092" lon="-7.2906943"><ele>810.3333333333334</ele><time>2026-04-25T15:25:55.047Z</time></trkpt><trkpt lat="42.3554329" lon="-7.2907278"><ele>806.5</ele><time>2026-04-25T15:25:56.051Z</time></trkpt><trkpt lat="42.3553054" lon="-7.2908067"><ele>802.6666666666667</ele><time>2026-04-25T15:25:58.05Z</time></trkpt><trkpt lat="42.355236" lon="-7.2908587"><ele>798.8333333333334</ele><time>2026-04-25T15:25:59.045Z</time></trkpt><trkpt lat="42.3551763" lon="-7.2909041"><ele>795.0</ele><time>2026-04-25T15:26:00.046Z</time></trkpt><trkpt lat="42.3551131" lon="-7.2909643"><ele>795.0</ele><time>2026-04-25T15:26:01.047Z</time></trkpt><trkpt lat="42.3550598" lon="-7.291017"><ele>795.0</ele><time>2026-04-25T15:26:02.057Z</time></trkpt><trkpt lat="42.3550096" lon="-7.2910697"><ele>795.0</ele><time>2026-04-25T15:26:03.05Z</time></trkpt><trkpt lat="42.3549572" lon="-7.2911181"><ele>795.0</ele><time>2026-04-25T15:26:04.054Z</time></trkpt><trkpt lat="42.3549015" lon="-7.2911669"><ele>795.0</ele><time>2026-04-25T15:26:05.044Z</time></trkpt><trkpt lat="42.3548007" lon="-7.2912683"><ele>795.0</ele><time>2026-04-25T15:26:07.05Z</time></trkpt><trkpt lat="42.3547342" lon="-7.2913953"><ele>793.5714285714286</ele><time>2026-04-25T15:26:09.046Z</time></trkpt><trkpt lat="42.354692" lon="-7.2914636"><ele>792.1428571428571</ele><time>2026-04-25T15:26:10.053Z</time></trkpt><trkpt lat="42.3546465" lon="-7.2915424"><ele>790.7142857142858</ele><time>2026-04-25T15:26:11.054Z</time></trkpt><trkpt lat="42.354599" lon="-7.2916147"><ele>789.2857142857142</ele><time>2026-04-25T15:26:12.056Z</time></trkpt><trkpt lat="42.3545388" lon="-7.2916661"><ele>787.8571428571428</ele><time>2026-04-25T15:26:13.053Z</time></trkpt><trkpt lat="42.3544765" lon="-7.2917069"><ele>786.4285714285714</ele><time>2026-04-25T15:26:14.044Z</time></trkpt><trkpt lat="42.3544176" lon="-7.2917442"><ele>785.0</ele><time>2026-04-25T15:26:15.06Z</time></trkpt><trkpt lat="42.3543591" lon="-7.2917801"><ele>785.0</ele><time>2026-04-25T15:26:16.05Z</time></trkpt><trkpt lat="42.3542957" lon="-7.2918226"><ele>785.0</ele><time>2026-04-25T15:26:17.055Z</time></trkpt><trkpt lat="42.3541629" lon="-7.2918639"><ele>785.0</ele><time>2026-04-25T15:26:19.047Z</time></trkpt><trkpt lat="42.3540734" lon="-7.2918721"><ele>785.0</ele><time>2026-04-25T15:26:20.052Z</time></trkpt><trkpt lat="42.3539697" lon="-7.2918804"><ele>785.0</ele><time>2026-04-25T15:26:21.047Z</time></trkpt><trkpt lat="42.3538861" lon="-7.2919084"><ele>782.6</ele><time>2026-04-25T15:26:22.048Z</time></trkpt><trkpt lat="42.3537802" lon="-7.2919604"><ele>780.2</ele><time>2026-04-25T15:26:24.054Z</time></trkpt><trkpt lat="42.3536556" lon="-7.2920222"><ele>777.8</ele><time>2026-04-25T15:26:26.051Z</time></trkpt><trkpt lat="42.3535827" lon="-7.292063"><ele>775.4</ele><time>2026-04-25T15:26:27.053Z</time></trkpt><trkpt lat="42.3534941" lon="-7.2921325"><ele>773.0</ele><time>2026-04-25T15:26:28.047Z</time></trkpt><trkpt lat="42.3533949" lon="-7.2921954"><ele>773.0</ele><time>2026-04-25T15:26:29.054Z</time></trkpt><trkpt lat="42.3533018" lon="-7.2922433"><ele>773.0</ele><time>2026-04-25T15:26:30.046Z</time></trkpt><trkpt lat="42.3532202" lon="-7.292291"><ele>773.0</ele><time>2026-04-25T15:26:31.044Z</time></trkpt><trkpt lat="42.3531365" lon="-7.2923443"><ele>773.0</ele><time>2026-04-25T15:26:32.045Z</time></trkpt><trkpt lat="42.3530577" lon="-7.2923927"><ele>773.0</ele><time>2026-04-25T15:26:33.049Z</time></trkpt><trkpt lat="42.3529826" lon="-7.292442"><ele>775.0</ele><time>2026-04-25T15:26:34.061Z</time></trkpt><trkpt lat="42.3528901" lon="-7.2924905"><ele>777.0</ele><time>2026-04-25T15:26:35.048Z</time></trkpt><trkpt lat="42.3527944" lon="-7.2925461"><ele>779.0</ele><time>2026-04-25T15:26:36.044Z</time></trkpt><trkpt lat="42.3526952" lon="-7.2926055"><ele>781.0</ele><time>2026-04-25T15:26:37.046Z</time></trkpt><trkpt lat="42.3526054" lon="-7.2926698"><ele>783.0</ele><time>2026-04-25T15:26:38.055Z</time></trkpt><trkpt lat="42.3525214" lon="-7.2927254"><ele>783.0</ele><time>2026-04-25T15:26:39.045Z</time></trkpt><trkpt lat="42.3524237" lon="-7.2927758"><ele>783.0</ele><time>2026-04-25T15:26:40.053Z</time></trkpt><trkpt lat="42.3523274" lon="-7.2928333"><ele>783.0</ele><time>2026-04-25T15:26:41.042Z</time></trkpt><trkpt lat="42.3522287" lon="-7.2928839"><ele>783.0</ele><time>2026-04-25T15:26:42.057Z</time></trkpt><trkpt lat="42.3521036" lon="-7.2929388"><ele>783.0</ele><time>2026-04-25T15:26:43.057Z</time></trkpt><trkpt lat="42.3519842" lon="-7.2929844"><ele>782.4</ele><time>2026-04-25T15:26:44.049Z</time></trkpt><trkpt lat="42.3518787" lon="-7.2930125"><ele>781.8</ele><time>2026-04-25T15:26:45.045Z</time></trkpt><trkpt lat="42.3517871" lon="-7.2930282"><ele>781.2</ele><time>2026-04-25T15:26:46.051Z</time></trkpt><trkpt lat="42.351703" lon="-7.2930266"><ele>780.6</ele><time>2026-04-25T15:26:47.055Z</time></trkpt><trkpt lat="42.3515996" lon="-7.2930182"><ele>780.0</ele><time>2026-04-25T15:26:48.044Z</time></trkpt><trkpt lat="42.3514886" lon="-7.2930238"><ele>780.0</ele><time>2026-04-25T15:26:49.046Z</time></trkpt><trkpt lat="42.3513978" lon="-7.2930161"><ele>780.0</ele><time>2026-04-25T15:26:50.052Z</time></trkpt><trkpt lat="42.3513012" lon="-7.2930068"><ele>780.0</ele><time>2026-04-25T15:26:51.046Z</time></trkpt><trkpt lat="42.3511976" lon="-7.2930076"><ele>780.0</ele><time>2026-04-25T15:26:52.048Z</time></trkpt><trkpt lat="42.3511288" lon="-7.2930082"><ele>780.0</ele><time>2026-04-25T15:26:53.055Z</time></trkpt><trkpt lat="42.351054" lon="-7.2930102"><ele>780.0</ele><time>2026-04-25T15:26:55.058Z</time></trkpt><trkpt lat="42.3509659" lon="-7.2930189"><ele>781.0</ele><time>2026-04-25T15:26:58.052Z</time></trkpt><trkpt lat="42.3508992" lon="-7.2930368"><ele>782.0</ele><time>2026-04-25T15:27:04.044Z</time></trkpt><trkpt lat="42.350836" lon="-7.2930537"><ele>783.0</ele><time>2026-04-25T15:27:05.058Z</time></trkpt><trkpt lat="42.3507394" lon="-7.2930923"><ele>784.0</ele><time>2026-04-25T15:27:06.048Z</time></trkpt><trkpt lat="42.3506271" lon="-7.2931452"><ele>785.0</ele><time>2026-04-25T15:27:07.05Z</time></trkpt><trkpt lat="42.3505328" lon="-7.2932124"><ele>786.6</ele><time>2026-04-25T15:27:08.056Z</time></trkpt><trkpt lat="42.3504381" lon="-7.2932797"><ele>788.2</ele><time>2026-04-25T15:27:09.05Z</time></trkpt><trkpt lat="42.3503586" lon="-7.2933507"><ele>789.8</ele><time>2026-04-25T15:27:10.062Z</time></trkpt><trkpt lat="42.3502821" lon="-7.2934222"><ele>791.4</ele><time>2026-04-25T15:27:11.053Z</time></trkpt><trkpt lat="42.3501983" lon="-7.2934954"><ele>793.0</ele><time>2026-04-25T15:27:12.046Z</time></trkpt><trkpt lat="42.3501287" lon="-7.2935614"><ele>792.9999999999999</ele><time>2026-04-25T15:27:13.055Z</time></trkpt><trkpt lat="42.3500658" lon="-7.2936242"><ele>793.0</ele><time>2026-04-25T15:27:14.053Z</time></trkpt><trkpt lat="42.3500155" lon="-7.2936755"><ele>793.0</ele><time>2026-04-25T15:27:15.045Z</time></trkpt><trkpt lat="42.3499445" lon="-7.2937847"><ele>793.0</ele><time>2026-04-25T15:27:17.051Z</time></trkpt><trkpt lat="42.3498826" lon="-7.2938642"><ele>792.9999999999999</ele><time>2026-04-25T15:27:18.049Z</time></trkpt><trkpt lat="42.3498039" lon="-7.2939557"><ele>793.0</ele><time>2026-04-25T15:27:19.054Z</time></trkpt><trkpt lat="42.3497054" lon="-7.2940658"><ele>790.5</ele><time>2026-04-25T15:27:20.053Z</time></trkpt><trkpt lat="42.3496013" lon="-7.2941844"><ele>788.0</ele><time>2026-04-25T15:27:21.052Z</time></trkpt><trkpt lat="42.3494963" lon="-7.2943083"><ele>785.5</ele><time>2026-04-25T15:27:22.053Z</time></trkpt><trkpt lat="42.3493961" lon="-7.294428"><ele>783.0</ele><time>2026-04-25T15:27:23.054Z</time></trkpt><trkpt lat="42.3493037" lon="-7.2945517"><ele>783.0</ele><time>2026-04-25T15:27:24.054Z</time></trkpt><trkpt lat="42.3491999" lon="-7.2946747"><ele>783.0</ele><time>2026-04-25T15:27:25.048Z</time></trkpt><trkpt lat="42.3490977" lon="-7.2947943"><ele>783.0</ele><time>2026-04-25T15:27:26.061Z</time></trkpt><trkpt lat="42.3489967" lon="-7.2949106"><ele>783.0</ele><time>2026-04-25T15:27:27.064Z</time></trkpt><trkpt lat="42.3488963" lon="-7.2950233"><ele>778.5</ele><time>2026-04-25T15:27:28.064Z</time></trkpt><trkpt lat="42.3487994" lon="-7.2951334"><ele>774.0</ele><time>2026-04-25T15:27:29.062Z</time></trkpt><trkpt lat="42.3487113" lon="-7.295246"><ele>769.5</ele><time>2026-04-25T15:27:30.063Z</time></trkpt><trkpt lat="42.3486212" lon="-7.2953606"><ele>765.0</ele><time>2026-04-25T15:27:31.05Z</time></trkpt><trkpt lat="42.3485444" lon="-7.2954846"><ele>767.0</ele><time>2026-04-25T15:27:32.052Z</time></trkpt><trkpt lat="42.3484918" lon="-7.2956271"><ele>769.0</ele><time>2026-04-25T15:27:33.05Z</time></trkpt><trkpt lat="42.3484565" lon="-7.2957993"><ele>771.0</ele><time>2026-04-25T15:27:34.06Z</time></trkpt><trkpt lat="42.3484354" lon="-7.2959804"><ele>773.0</ele><time>2026-04-25T15:27:35.047Z</time></trkpt><trkpt lat="42.34843" lon="-7.2961536"><ele>773.0</ele><time>2026-04-25T15:27:36.057Z</time></trkpt><trkpt lat="42.3484259" lon="-7.296316"><ele>773.0</ele><time>2026-04-25T15:27:37.054Z</time></trkpt><trkpt lat="42.3484303" lon="-7.2964746"><ele>773.0</ele><time>2026-04-25T15:27:38.051Z</time></trkpt><trkpt lat="42.3484462" lon="-7.296637"><ele>773.0</ele><time>2026-04-25T15:27:39.051Z</time></trkpt><trkpt lat="42.3484568" lon="-7.2968019"><ele>773.0</ele><time>2026-04-25T15:27:40.058Z</time></trkpt><trkpt lat="42.3484638" lon="-7.2969739"><ele>773.0</ele><time>2026-04-25T15:27:41.058Z</time></trkpt><trkpt lat="42.3484356" lon="-7.297153"><ele>773.0</ele><time>2026-04-25T15:27:42.041Z</time></trkpt><trkpt lat="42.3483877" lon="-7.2973413"><ele>773.0</ele><time>2026-04-25T15:27:43.058Z</time></trkpt><trkpt lat="42.3483281" lon="-7.297527"><ele>773.0</ele><time>2026-04-25T15:27:44.056Z</time></trkpt><trkpt lat="42.3482886" lon="-7.2977342"><ele>773.0</ele><time>2026-04-25T15:27:45.048Z</time></trkpt><trkpt lat="42.3482716" lon="-7.2979336"><ele>773.0</ele><time>2026-04-25T15:27:46.044Z</time></trkpt><trkpt lat="42.3482722" lon="-7.2981246"><ele>773.0</ele><time>2026-04-25T15:27:47.047Z</time></trkpt><trkpt lat="42.3482747" lon="-7.2983047"><ele>771.75</ele><time>2026-04-25T15:27:48.045Z</time></trkpt><trkpt lat="42.3482786" lon="-7.2984764"><ele>770.5</ele><time>2026-04-25T15:27:49.059Z</time></trkpt><trkpt lat="42.3482782" lon="-7.2986389"><ele>769.25</ele><time>2026-04-25T15:27:50.051Z</time></trkpt><trkpt lat="42.3482692" lon="-7.298805"><ele>768.0</ele><time>2026-04-25T15:27:51.072Z</time></trkpt><trkpt lat="42.3482476" lon="-7.2989815"><ele>767.0</ele><time>2026-04-25T15:27:52.05Z</time></trkpt><trkpt lat="42.3482009" lon="-7.2991565"><ele>766.0</ele><time>2026-04-25T15:27:53.055Z</time></trkpt><trkpt lat="42.3481541" lon="-7.2993262"><ele>765.0</ele><time>2026-04-25T15:27:54.056Z</time></trkpt><trkpt lat="42.3481251" lon="-7.2994977"><ele>764.0</ele><time>2026-04-25T15:27:55.049Z</time></trkpt><trkpt lat="42.3481292" lon="-7.2996736"><ele>764.25</ele><time>2026-04-25T15:27:56.048Z</time></trkpt><trkpt lat="42.3481517" lon="-7.2998434"><ele>764.5</ele><time>2026-04-25T15:27:57.049Z</time></trkpt><trkpt lat="42.3481721" lon="-7.3000084"><ele>764.75</ele><time>2026-04-25T15:27:58.057Z</time></trkpt><trkpt lat="42.348195" lon="-7.3001708"><ele>765.0</ele><time>2026-04-25T15:27:59.049Z</time></trkpt><trkpt lat="42.3482166" lon="-7.3003193"><ele>765.0</ele><time>2026-04-25T15:28:00.045Z</time></trkpt><trkpt lat="42.3482266" lon="-7.3004413"><ele>765.0</ele><time>2026-04-25T15:28:01.053Z</time></trkpt><trkpt lat="42.3482137" lon="-7.3005358"><ele>765.0</ele><time>2026-04-25T15:28:02.052Z</time></trkpt><trkpt lat="42.3482013" lon="-7.300622"><ele>765.0</ele><time>2026-04-25T15:28:03.061Z</time></trkpt><trkpt lat="42.3481594" lon="-7.3006967"><ele>765.0</ele><time>2026-04-25T15:28:04.053Z</time></trkpt><trkpt lat="42.3480851" lon="-7.3008168"><ele>765.0</ele><time>2026-04-25T15:28:06.049Z</time></trkpt><trkpt lat="42.3480066" lon="-7.3008826"><ele>762.8</ele><time>2026-04-25T15:28:08.047Z</time></trkpt><trkpt lat="42.3479294" lon="-7.3009236"><ele>760.6</ele><time>2026-04-25T15:28:10.066Z</time></trkpt><trkpt lat="42.347845" lon="-7.3009521"><ele>758.4000000000001</ele><time>2026-04-25T15:28:12.054Z</time></trkpt><trkpt lat="42.3477065" lon="-7.3009784"><ele>756.2</ele><time>2026-04-25T15:28:14.049Z</time></trkpt><trkpt lat="42.3476245" lon="-7.300992"><ele>754.0</ele><time>2026-04-25T15:28:15.053Z</time></trkpt><trkpt lat="42.347543" lon="-7.3010054"><ele>754.0</ele><time>2026-04-25T15:28:16.051Z</time></trkpt><trkpt lat="42.3474731" lon="-7.3010222"><ele>754.0</ele><time>2026-04-25T15:28:17.045Z</time></trkpt><trkpt lat="42.3473475" lon="-7.3010441"><ele>754.0</ele><time>2026-04-25T15:28:19.047Z</time></trkpt><trkpt lat="42.3472515" lon="-7.3010632"><ele>754.0</ele><time>2026-04-25T15:28:20.052Z</time></trkpt><trkpt lat="42.3471563" lon="-7.3010838"><ele>754.0</ele><time>2026-04-25T15:28:21.045Z</time></trkpt><trkpt lat="42.3470522" lon="-7.3011128"><ele>751.0</ele><time>2026-04-25T15:28:22.051Z</time></trkpt><trkpt lat="42.3469435" lon="-7.3011426"><ele>748.0</ele><time>2026-04-25T15:28:23.054Z</time></trkpt><trkpt lat="42.3468461" lon="-7.3011947"><ele>745.0</ele><time>2026-04-25T15:28:24.058Z</time></trkpt><trkpt lat="42.3467467" lon="-7.3012616"><ele>742.0</ele><time>2026-04-25T15:28:25.057Z</time></trkpt><trkpt lat="42.3466501" lon="-7.3013184"><ele>739.0</ele><time>2026-04-25T15:28:26.048Z</time></trkpt><trkpt lat="42.3465571" lon="-7.3013695"><ele>739.0</ele><time>2026-04-25T15:28:27.045Z</time></trkpt><trkpt lat="42.3464752" lon="-7.3014056"><ele>739.0</ele><time>2026-04-25T15:28:28.051Z</time></trkpt><trkpt lat="42.3464024" lon="-7.3014338"><ele>739.0</ele><time>2026-04-25T15:28:29.043Z</time></trkpt><trkpt lat="42.3463387" lon="-7.3014574"><ele>739.0</ele><time>2026-04-25T15:28:30.05Z</time></trkpt><trkpt lat="42.3462445" lon="-7.3015213"><ele>739.0</ele><time>2026-04-25T15:28:32.057Z</time></trkpt><trkpt lat="42.3461694" lon="-7.3016249"><ele>739.0</ele><time>2026-04-25T15:28:34.055Z</time></trkpt><trkpt lat="42.3460888" lon="-7.3017374"><ele>738.0</ele><time>2026-04-25T15:28:36.046Z</time></trkpt><trkpt lat="42.3460328" lon="-7.301804"><ele>737.0</ele><time>2026-04-25T15:28:37.048Z</time></trkpt><trkpt lat="42.3459669" lon="-7.3018927"><ele>736.0</ele><time>2026-04-25T15:28:38.047Z</time></trkpt><trkpt lat="42.3459024" lon="-7.3019837"><ele>735.0</ele><time>2026-04-25T15:28:39.058Z</time></trkpt><trkpt lat="42.3458405" lon="-7.3020637"><ele>734.0</ele><time>2026-04-25T15:28:40.053Z</time></trkpt><trkpt lat="42.3457839" lon="-7.302139"><ele>733.0</ele><time>2026-04-25T15:28:41.048Z</time></trkpt><trkpt lat="42.3457326" lon="-7.3022092"><ele>734.6666666666667</ele><time>2026-04-25T15:28:42.051Z</time></trkpt><trkpt lat="42.3456826" lon="-7.3022755"><ele>736.3333333333334</ele><time>2026-04-25T15:28:43.046Z</time></trkpt><trkpt lat="42.3456306" lon="-7.3023471"><ele>738.0</ele><time>2026-04-25T15:28:44.051Z</time></trkpt><trkpt lat="42.3455778" lon="-7.3024257"><ele>739.6666666666666</ele><time>2026-04-25T15:28:45.052Z</time></trkpt><trkpt lat="42.3455274" lon="-7.3025046"><ele>741.3333333333333</ele><time>2026-04-25T15:28:46.047Z</time></trkpt><trkpt lat="42.3454772" lon="-7.3025881"><ele>743.0</ele><time>2026-04-25T15:28:47.05Z</time></trkpt><trkpt lat="42.345432" lon="-7.302675"><ele>741.1666666666666</ele><time>2026-04-25T15:28:48.056Z</time></trkpt><trkpt lat="42.3453957" lon="-7.3027679"><ele>739.3333333333333</ele><time>2026-04-25T15:28:49.054Z</time></trkpt><trkpt lat="42.3453687" lon="-7.3028679"><ele>737.5</ele><time>2026-04-25T15:28:50.044Z</time></trkpt><trkpt lat="42.345356" lon="-7.3029914"><ele>735.6666666666666</ele><time>2026-04-25T15:28:51.051Z</time></trkpt><trkpt lat="42.3453476" lon="-7.3031151"><ele>733.8333333333334</ele><time>2026-04-25T15:28:52.074Z</time></trkpt><trkpt lat="42.3453407" lon="-7.3032221"><ele>732.0</ele><time>2026-04-25T15:28:53.051Z</time></trkpt><trkpt lat="42.3453102" lon="-7.3033796"><ele>732.0</ele><time>2026-04-25T15:28:55.046Z</time></trkpt><trkpt lat="42.3451785" lon="-7.3034721"><ele>732.0</ele><time>2026-04-25T15:28:57.051Z</time></trkpt><trkpt lat="42.3450943" lon="-7.3035162"><ele>732.0</ele><time>2026-04-25T15:28:58.048Z</time></trkpt><trkpt lat="42.345017" lon="-7.3035574"><ele>732.0</ele><time>2026-04-25T15:28:59.054Z</time></trkpt><trkpt lat="42.3449353" lon="-7.3036039"><ele>732.0</ele><time>2026-04-25T15:29:00.045Z</time></trkpt><trkpt lat="42.3448439" lon="-7.3036737"><ele>732.0</ele><time>2026-04-25T15:29:01.047Z</time></trkpt><trkpt lat="42.3447533" lon="-7.303743"><ele>732.0</ele><time>2026-04-25T15:29:02.051Z</time></trkpt><trkpt lat="42.3446545" lon="-7.3038107"><ele>732.0</ele><time>2026-04-25T15:29:03.045Z</time></trkpt><trkpt lat="42.3445717" lon="-7.3038692"><ele>732.0</ele><time>2026-04-25T15:29:04.053Z</time></trkpt><trkpt lat="42.3444803" lon="-7.3039161"><ele>732.0</ele><time>2026-04-25T15:29:05.048Z</time></trkpt><trkpt lat="42.344398" lon="-7.3039593"><ele>734.8</ele><time>2026-04-25T15:29:06.042Z</time></trkpt><trkpt lat="42.3443068" lon="-7.3039956"><ele>737.6</ele><time>2026-04-25T15:29:07.049Z</time></trkpt><trkpt lat="42.344212" lon="-7.3040384"><ele>740.4</ele><time>2026-04-25T15:29:08.057Z</time></trkpt><trkpt lat="42.3441196" lon="-7.3040938"><ele>743.1999999999999</ele><time>2026-04-25T15:29:09.052Z</time></trkpt><trkpt lat="42.3440232" lon="-7.3041482"><ele>746.0</ele><time>2026-04-25T15:29:10.047Z</time></trkpt><trkpt lat="42.3439384" lon="-7.3041915"><ele>742.8</ele><time>2026-04-25T15:29:11.045Z</time></trkpt><trkpt lat="42.3438613" lon="-7.304254"><ele>739.5999999999999</ele><time>2026-04-25T15:29:12.041Z</time></trkpt><trkpt lat="42.3437876" lon="-7.3043472"><ele>736.4</ele><time>2026-04-25T15:29:13.046Z</time></trkpt><trkpt lat="42.343734" lon="-7.3044679"><ele>733.2</ele><time>2026-04-25T15:29:14.052Z</time></trkpt><trkpt lat="42.3436797" lon="-7.3045896"><ele>730.0</ele><time>2026-04-25T15:29:15.053Z</time></trkpt><trkpt lat="42.343648" lon="-7.3047274"><ele>731.5</ele><time>2026-04-25T15:29:16.046Z</time></trkpt><trkpt lat="42.3436409" lon="-7.3048676"><ele>733.0</ele><time>2026-04-25T15:29:17.059Z</time></trkpt><trkpt lat="42.3436204" lon="-7.3049908"><ele>734.5</ele><time>2026-04-25T15:29:18.052Z</time></trkpt><trkpt lat="42.3436121" lon="-7.3051032"><ele>736.0</ele><time>2026-04-25T15:29:19.045Z</time></trkpt><trkpt lat="42.3436035" lon="-7.3051999"><ele>737.5</ele><time>2026-04-25T15:29:20.051Z</time></trkpt><trkpt lat="42.3435952" lon="-7.3053288"><ele>739.0</ele><time>2026-04-25T15:29:21.054Z</time></trkpt><trkpt lat="42.3436025" lon="-7.3054563"><ele>739.0</ele><time>2026-04-25T15:29:22.058Z</time></trkpt><trkpt lat="42.3436247" lon="-7.3055894"><ele>739.0</ele><time>2026-04-25T15:29:23.052Z</time></trkpt><trkpt lat="42.3436272" lon="-7.3057325"><ele>739.0</ele><time>2026-04-25T15:29:24.05Z</time></trkpt><trkpt lat="42.3436189" lon="-7.3058803"><ele>739.0</ele><time>2026-04-25T15:29:25.053Z</time></trkpt><trkpt lat="42.3436023" lon="-7.3060334"><ele>739.0</ele><time>2026-04-25T15:29:26.053Z</time></trkpt><trkpt lat="42.3435885" lon="-7.306173"><ele>739.0</ele><time>2026-04-25T15:29:27.052Z</time></trkpt><trkpt lat="42.3435744" lon="-7.3063058"><ele>739.0</ele><time>2026-04-25T15:29:28.054Z</time></trkpt><trkpt lat="42.3435637" lon="-7.3064362"><ele>739.0</ele><time>2026-04-25T15:29:29.055Z</time></trkpt><trkpt lat="42.3435677" lon="-7.306569"><ele>739.0</ele><time>2026-04-25T15:29:30.05Z</time></trkpt><trkpt lat="42.3435893" lon="-7.3067117"><ele>739.0</ele><time>2026-04-25T15:29:31.05Z</time></trkpt><trkpt lat="42.3436" lon="-7.3068528"><ele>740.4000000000001</ele><time>2026-04-25T15:29:32.049Z</time></trkpt><trkpt lat="42.3435968" lon="-7.3069923"><ele>741.8</ele><time>2026-04-25T15:29:33.053Z</time></trkpt><trkpt lat="42.3435948" lon="-7.3071322"><ele>743.2</ele><time>2026-04-25T15:29:34.05Z</time></trkpt><trkpt lat="42.3435962" lon="-7.3072831"><ele>744.5999999999999</ele><time>2026-04-25T15:29:35.047Z</time></trkpt><trkpt lat="42.3436042" lon="-7.3074322"><ele>746.0</ele><time>2026-04-25T15:29:36.048Z</time></trkpt><trkpt lat="42.3436075" lon="-7.307602"><ele>747.1999999999999</ele><time>2026-04-25T15:29:37.054Z</time></trkpt><trkpt lat="42.3436168" lon="-7.3077472"><ele>748.4</ele><time>2026-04-25T15:29:38.054Z</time></trkpt><trkpt lat="42.3436387" lon="-7.3078913"><ele>749.6</ele><time>2026-04-25T15:29:39.053Z</time></trkpt><trkpt lat="42.3436603" lon="-7.3080245"><ele>750.8</ele><time>2026-04-25T15:29:40.054Z</time></trkpt><trkpt lat="42.343677" lon="-7.3081563"><ele>752.0</ele><time>2026-04-25T15:29:41.049Z</time></trkpt><trkpt lat="42.3436965" lon="-7.3082761"><ele>752.0</ele><time>2026-04-25T15:29:42.057Z</time></trkpt><trkpt lat="42.3437177" lon="-7.3083861"><ele>752.0</ele><time>2026-04-25T15:29:43.052Z</time></trkpt><trkpt lat="42.3437408" lon="-7.3084814"><ele>752.0</ele><time>2026-04-25T15:29:44.048Z</time></trkpt><trkpt lat="42.3437548" lon="-7.308585"><ele>752.0</ele><time>2026-04-25T15:29:46.054Z</time></trkpt><trkpt lat="42.3437949" lon="-7.308681"><ele>752.0</ele><time>2026-04-25T15:29:49.049Z</time></trkpt><trkpt lat="42.3438693" lon="-7.3087584"><ele>752.0</ele><time>2026-04-25T15:29:51.058Z</time></trkpt><trkpt lat="42.343918" lon="-7.3088273"><ele>755.6666666666666</ele><time>2026-04-25T15:29:52.053Z</time></trkpt><trkpt lat="42.3439673" lon="-7.3088888"><ele>759.3333333333333</ele><time>2026-04-25T15:29:53.053Z</time></trkpt><trkpt lat="42.3440265" lon="-7.308957"><ele>763.0</ele><time>2026-04-25T15:29:54.054Z</time></trkpt><trkpt lat="42.3440892" lon="-7.3090219"><ele>766.6666666666666</ele><time>2026-04-25T15:29:55.052Z</time></trkpt><trkpt lat="42.344164" lon="-7.3091015"><ele>770.3333333333334</ele><time>2026-04-25T15:29:56.048Z</time></trkpt><trkpt lat="42.3442371" lon="-7.3091795"><ele>774.0</ele><time>2026-04-25T15:29:57.048Z</time></trkpt><trkpt lat="42.3443156" lon="-7.309265"><ele>774.0</ele><time>2026-04-25T15:29:58.044Z</time></trkpt><trkpt lat="42.3444004" lon="-7.3093638"><ele>774.0</ele><time>2026-04-25T15:29:59.048Z</time></trkpt><trkpt lat="42.3444836" lon="-7.3094555"><ele>774.0</ele><time>2026-04-25T15:30:00.052Z</time></trkpt><trkpt lat="42.3445554" lon="-7.3095271"><ele>774.0</ele><time>2026-04-25T15:30:01.055Z</time></trkpt><trkpt lat="42.3446207" lon="-7.3095938"><ele>774.0</ele><time>2026-04-25T15:30:02.051Z</time></trkpt><trkpt lat="42.3446782" lon="-7.3096608"><ele>776.8333333333334</ele><time>2026-04-25T15:30:03.046Z</time></trkpt><trkpt lat="42.3447323" lon="-7.3097251"><ele>779.6666666666667</ele><time>2026-04-25T15:30:04.054Z</time></trkpt><trkpt lat="42.3447897" lon="-7.3097994"><ele>782.5</ele><time>2026-04-25T15:30:05.051Z</time></trkpt><trkpt lat="42.3448475" lon="-7.3098942"><ele>785.3333333333334</ele><time>2026-04-25T15:30:06.052Z</time></trkpt><trkpt lat="42.3449075" lon="-7.3100027"><ele>788.1666666666667</ele><time>2026-04-25T15:30:07.044Z</time></trkpt><trkpt lat="42.3449598" lon="-7.310122"><ele>791.0</ele><time>2026-04-25T15:30:08.053Z</time></trkpt><trkpt lat="42.3450074" lon="-7.3102449"><ele>791.0</ele><time>2026-04-25T15:30:09.047Z</time></trkpt><trkpt lat="42.3450515" lon="-7.3103675"><ele>791.0</ele><time>2026-04-25T15:30:10.049Z</time></trkpt><trkpt lat="42.345096" lon="-7.3104801"><ele>791.0</ele><time>2026-04-25T15:30:11.055Z</time></trkpt><trkpt lat="42.3451393" lon="-7.3105854"><ele>791.0</ele><time>2026-04-25T15:30:12.053Z</time></trkpt><trkpt lat="42.3451968" lon="-7.3107025"><ele>791.0</ele><time>2026-04-25T15:30:13.047Z</time></trkpt><trkpt lat="42.3452494" lon="-7.3108098"><ele>790.5000000000001</ele><time>2026-04-25T15:30:14.05Z</time></trkpt><trkpt lat="42.3453019" lon="-7.3109152"><ele>790.0</ele><time>2026-04-25T15:30:15.045Z</time></trkpt><trkpt lat="42.3453469" lon="-7.3110091"><ele>789.5</ele><time>2026-04-25T15:30:16.049Z</time></trkpt><trkpt lat="42.3453925" lon="-7.3110932"><ele>789.0</ele><time>2026-04-25T15:30:17.051Z</time></trkpt><trkpt lat="42.3454556" lon="-7.3112097"><ele>788.5000000000001</ele><time>2026-04-25T15:30:19.044Z</time></trkpt><trkpt lat="42.3454876" lon="-7.3112941"><ele>788.0</ele><time>2026-04-25T15:30:20.054Z</time></trkpt><trkpt lat="42.3455266" lon="-7.3113864"><ele>791.6666666666667</ele><time>2026-04-25T15:30:21.051Z</time></trkpt><trkpt lat="42.3455656" lon="-7.3114826"><ele>795.3333333333334</ele><time>2026-04-25T15:30:22.051Z</time></trkpt><trkpt lat="42.3456028" lon="-7.3115686"><ele>799.0</ele><time>2026-04-25T15:30:23.054Z</time></trkpt><trkpt lat="42.3456581" lon="-7.3116935"><ele>802.6666666666667</ele><time>2026-04-25T15:30:25.057Z</time></trkpt><trkpt lat="42.3457401" lon="-7.3117868"><ele>806.3333333333334</ele><time>2026-04-25T15:30:28.047Z</time></trkpt><trkpt lat="42.3457921" lon="-7.3118398"><ele>810.0</ele><time>2026-04-25T15:30:29.049Z</time></trkpt><trkpt lat="42.3458362" lon="-7.3119137"><ele>810.0</ele><time>2026-04-25T15:30:30.043Z</time></trkpt><trkpt lat="42.3458784" lon="-7.3120731"><ele>810.0</ele><time>2026-04-25T15:30:32.062Z</time></trkpt><trkpt lat="42.3458891" lon="-7.3121825"><ele>810.0</ele><time>2026-04-25T15:30:33.056Z</time></trkpt><trkpt lat="42.3458855" lon="-7.312287"><ele>810.0</ele><time>2026-04-25T15:30:34.048Z</time></trkpt><trkpt lat="42.3458759" lon="-7.3124297"><ele>810.0</ele><time>2026-04-25T15:30:36.055Z</time></trkpt><trkpt lat="42.3458737" lon="-7.31255"><ele>810.1428571428571</ele><time>2026-04-25T15:30:38.063Z</time></trkpt><trkpt lat="42.3458474" lon="-7.3126421"><ele>810.2857142857142</ele><time>2026-04-25T15:30:40.063Z</time></trkpt><trkpt lat="42.3457953" lon="-7.3127099"><ele>810.4285714285713</ele><time>2026-04-25T15:30:42.049Z</time></trkpt><trkpt lat="42.3457063" lon="-7.3126966"><ele>810.5714285714286</ele><time>2026-04-25T15:30:44.051Z</time></trkpt><trkpt lat="42.3456504" lon="-7.3126471"><ele>810.7142857142858</ele><time>2026-04-25T15:30:45.052Z</time></trkpt><trkpt lat="42.3455932" lon="-7.3125977"><ele>810.8571428571428</ele><time>2026-04-25T15:30:46.053Z</time></trkpt><trkpt lat="42.3455444" lon="-7.3125417"><ele>811.0</ele><time>2026-04-25T15:30:47.049Z</time></trkpt><trkpt lat="42.3454991" lon="-7.312477"><ele>809.0</ele><time>2026-04-25T15:30:48.049Z</time></trkpt><trkpt lat="42.3454521" lon="-7.3124195"><ele>807.0</ele><time>2026-04-25T15:30:49.054Z</time></trkpt><trkpt lat="42.345361" lon="-7.3123114"><ele>805.0</ele><time>2026-04-25T15:30:51.057Z</time></trkpt><trkpt lat="42.3452259" lon="-7.3122294"><ele>803.0</ele><time>2026-04-25T15:30:53.056Z</time></trkpt><trkpt lat="42.3451326" lon="-7.3122151"><ele>801.0</ele><time>2026-04-25T15:30:54.057Z</time></trkpt><trkpt lat="42.3450406" lon="-7.3122094"><ele>801.0</ele><time>2026-04-25T15:30:55.046Z</time></trkpt><trkpt lat="42.3449522" lon="-7.3122183"><ele>801.0</ele><time>2026-04-25T15:30:56.059Z</time></trkpt><trkpt lat="42.3448592" lon="-7.3122555"><ele>801.0</ele><time>2026-04-25T15:30:57.052Z</time></trkpt><trkpt lat="42.3447663" lon="-7.3122976"><ele>801.0</ele><time>2026-04-25T15:30:58.05Z</time></trkpt><trkpt lat="42.3446797" lon="-7.3123532"><ele>801.0</ele><time>2026-04-25T15:30:59.048Z</time></trkpt><trkpt lat="42.3445949" lon="-7.3124032"><ele>798.5</ele><time>2026-04-25T15:31:00.053Z</time></trkpt><trkpt lat="42.3445077" lon="-7.3124383"><ele>796.0</ele><time>2026-04-25T15:31:01.054Z</time></trkpt><trkpt lat="42.34442" lon="-7.3124758"><ele>793.5</ele><time>2026-04-25T15:31:02.048Z</time></trkpt><trkpt lat="42.3443498" lon="-7.3125353"><ele>791.0</ele><time>2026-04-25T15:31:03.057Z</time></trkpt><trkpt lat="42.3443027" lon="-7.3126057"><ele>788.5</ele><time>2026-04-25T15:31:04.051Z</time></trkpt><trkpt lat="42.3442805" lon="-7.312689"><ele>786.0</ele><time>2026-04-25T15:31:05.051Z</time></trkpt><trkpt lat="42.3442711" lon="-7.3128066"><ele>786.0</ele><time>2026-04-25T15:31:06.056Z</time></trkpt><trkpt lat="42.3442681" lon="-7.312961"><ele>786.0</ele><time>2026-04-25T15:31:07.048Z</time></trkpt><trkpt lat="42.3442666" lon="-7.313128"><ele>786.0</ele><time>2026-04-25T15:31:08.05Z</time></trkpt><trkpt lat="42.3442627" lon="-7.3133032"><ele>786.0</ele><time>2026-04-25T15:31:09.05Z</time></trkpt><trkpt lat="42.3442595" lon="-7.3134606"><ele>787.1666666666666</ele><time>2026-04-25T15:31:10.055Z</time></trkpt><trkpt lat="42.3442421" lon="-7.3135929"><ele>788.3333333333333</ele><time>2026-04-25T15:31:11.05Z</time></trkpt><trkpt lat="42.3442154" lon="-7.3137002"><ele>789.5</ele><time>2026-04-25T15:31:12.046Z</time></trkpt><trkpt lat="42.3441901" lon="-7.3137952"><ele>790.6666666666666</ele><time>2026-04-25T15:31:13.065Z</time></trkpt><trkpt lat="42.3441369" lon="-7.3138621"><ele>791.8333333333333</ele><time>2026-04-25T15:31:14.054Z</time></trkpt><trkpt lat="42.3440663" lon="-7.3138961"><ele>793.0</ele><time>2026-04-25T15:31:15.051Z</time></trkpt><trkpt lat="42.3439734" lon="-7.3139191"><ele>794.3333333333333</ele><time>2026-04-25T15:31:16.054Z</time></trkpt><trkpt lat="42.3438838" lon="-7.3139511"><ele>795.6666666666666</ele><time>2026-04-25T15:31:17.057Z</time></trkpt><trkpt lat="42.3438083" lon="-7.3139915"><ele>797.0</ele><time>2026-04-25T15:31:18.052Z</time></trkpt><trkpt lat="42.3437447" lon="-7.3140493"><ele>798.3333333333333</ele><time>2026-04-25T15:31:19.054Z</time></trkpt><trkpt lat="42.3436928" lon="-7.3141156"><ele>799.6666666666666</ele><time>2026-04-25T15:31:20.047Z</time></trkpt><trkpt lat="42.3436252" lon="-7.3142034"><ele>801.0</ele><time>2026-04-25T15:31:21.055Z</time></trkpt><trkpt lat="42.3435557" lon="-7.3142901"><ele>797.5</ele><time>2026-04-25T15:31:22.065Z</time></trkpt><trkpt lat="42.343498" lon="-7.3143545"><ele>794.0</ele><time>2026-04-25T15:31:23.064Z</time></trkpt><trkpt lat="42.3434424" lon="-7.3144162"><ele>790.5</ele><time>2026-04-25T15:31:24.063Z</time></trkpt><trkpt lat="42.3433761" lon="-7.3144923"><ele>787.0</ele><time>2026-04-25T15:31:25.054Z</time></trkpt><trkpt lat="42.3433035" lon="-7.314576"><ele>783.5</ele><time>2026-04-25T15:31:26.048Z</time></trkpt><trkpt lat="42.3432424" lon="-7.3146532"><ele>780.0</ele><time>2026-04-25T15:31:27.056Z</time></trkpt><trkpt lat="42.3431942" lon="-7.314738"><ele>780.0</ele><time>2026-04-25T15:31:28.052Z</time></trkpt><trkpt lat="42.3431582" lon="-7.314828"><ele>780.0</ele><time>2026-04-25T15:31:29.056Z</time></trkpt><trkpt lat="42.3431255" lon="-7.3149301"><ele>780.0</ele><time>2026-04-25T15:31:30.047Z</time></trkpt><trkpt lat="42.3431001" lon="-7.3150177"><ele>780.0</ele><time>2026-04-25T15:31:31.062Z</time></trkpt><trkpt lat="42.3431141" lon="-7.3151936"><ele>780.0</ele><time>2026-04-25T15:31:33.055Z</time></trkpt><trkpt lat="42.3431175" lon="-7.3153137"><ele>780.0</ele><time>2026-04-25T15:31:35.057Z</time></trkpt><trkpt lat="42.343066" lon="-7.3153898"><ele>776.25</ele><time>2026-04-25T15:31:37.052Z</time></trkpt><trkpt lat="42.3429667" lon="-7.3154205"><ele>772.5</ele><time>2026-04-25T15:31:39.046Z</time></trkpt><trkpt lat="42.3428534" lon="-7.3154179"><ele>768.75</ele><time>2026-04-25T15:31:40.049Z</time></trkpt><trkpt lat="42.3427226" lon="-7.3154209"><ele>765.0</ele><time>2026-04-25T15:31:41.05Z</time></trkpt><trkpt lat="42.3426106" lon="-7.3154039"><ele>765.0</ele><time>2026-04-25T15:31:42.052Z</time></trkpt><trkpt lat="42.3425086" lon="-7.3153863"><ele>765.0</ele><time>2026-04-25T15:31:43.052Z</time></trkpt><trkpt lat="42.3423993" lon="-7.3153587"><ele>765.0</ele><time>2026-04-25T15:31:44.045Z</time></trkpt><trkpt lat="42.3422876" lon="-7.3153317"><ele>765.0</ele><time>2026-04-25T15:31:45.048Z</time></trkpt><trkpt lat="42.3421847" lon="-7.3152952"><ele>765.0</ele><time>2026-04-25T15:31:46.05Z</time></trkpt><trkpt lat="42.3420825" lon="-7.31527"><ele>762.8333333333334</ele><time>2026-04-25T15:31:47.051Z</time></trkpt><trkpt lat="42.3419909" lon="-7.3152578"><ele>760.6666666666666</ele><time>2026-04-25T15:31:48.049Z</time></trkpt><trkpt lat="42.3419232" lon="-7.3152399"><ele>758.5</ele><time>2026-04-25T15:31:49.057Z</time></trkpt><trkpt lat="42.3418498" lon="-7.3152371"><ele>756.3333333333333</ele><time>2026-04-25T15:31:50.048Z</time></trkpt><trkpt lat="42.3417809" lon="-7.3152423"><ele>754.1666666666666</ele><time>2026-04-25T15:31:51.063Z</time></trkpt><trkpt lat="42.3416937" lon="-7.3152114"><ele>752.0</ele><time>2026-04-25T15:31:53.063Z</time></trkpt><trkpt lat="42.3416633" lon="-7.3150946"><ele>752.0</ele><time>2026-04-25T15:31:55.055Z</time></trkpt><trkpt lat="42.3416866" lon="-7.3150019"><ele>752.0</ele><time>2026-04-25T15:31:56.066Z</time></trkpt><trkpt lat="42.3417187" lon="-7.314889"><ele>752.0</ele><time>2026-04-25T15:31:57.054Z</time></trkpt><trkpt lat="42.3417505" lon="-7.3147617"><ele>752.0</ele><time>2026-04-25T15:31:58.05Z</time></trkpt><trkpt lat="42.341768" lon="-7.3146477"><ele>752.0</ele><time>2026-04-25T15:31:59.06Z</time></trkpt><trkpt lat="42.3417822" lon="-7.3145502"><ele>752.0</ele><time>2026-04-25T15:32:00.052Z</time></trkpt><trkpt lat="42.3417597" lon="-7.314447"><ele>749.6</ele><time>2026-04-25T15:32:02.055Z</time></trkpt><trkpt lat="42.3416936" lon="-7.3144308"><ele>747.2</ele><time>2026-04-25T15:32:04.049Z</time></trkpt><trkpt lat="42.341636" lon="-7.31449"><ele>744.8</ele><time>2026-04-25T15:32:05.063Z</time></trkpt><trkpt lat="42.3415593" lon="-7.3145597"><ele>742.4</ele><time>2026-04-25T15:32:06.054Z</time></trkpt><trkpt lat="42.3414719" lon="-7.3146406"><ele>740.0</ele><time>2026-04-25T15:32:07.045Z</time></trkpt><trkpt lat="42.341372" lon="-7.3147242"><ele>737.0</ele><time>2026-04-25T15:32:08.053Z</time></trkpt><trkpt lat="42.3412749" lon="-7.314808"><ele>734.0</ele><time>2026-04-25T15:32:09.046Z</time></trkpt><trkpt lat="42.3411815" lon="-7.3148997"><ele>731.0</ele><time>2026-04-25T15:32:10.057Z</time></trkpt><trkpt lat="42.3410941" lon="-7.3149959"><ele>728.0</ele><time>2026-04-25T15:32:11.052Z</time></trkpt><trkpt lat="42.3410036" lon="-7.3150756"><ele>728.0</ele><time>2026-04-25T15:32:12.044Z</time></trkpt><trkpt lat="42.3408988" lon="-7.3151463"><ele>728.0</ele><time>2026-04-25T15:32:13.054Z</time></trkpt><trkpt lat="42.3408008" lon="-7.3152175"><ele>728.0</ele><time>2026-04-25T15:32:14.056Z</time></trkpt><trkpt lat="42.340703" lon="-7.3153184"><ele>728.0</ele><time>2026-04-25T15:32:15.061Z</time></trkpt><trkpt lat="42.3406083" lon="-7.3154247"><ele>726.0</ele><time>2026-04-25T15:32:16.052Z</time></trkpt><trkpt lat="42.3405136" lon="-7.3155183"><ele>724.0</ele><time>2026-04-25T15:32:17.043Z</time></trkpt><trkpt lat="42.3404368" lon="-7.3156011"><ele>722.0</ele><time>2026-04-25T15:32:18.049Z</time></trkpt><trkpt lat="42.3403463" lon="-7.3156806"><ele>720.0</ele><time>2026-04-25T15:32:19.046Z</time></trkpt><trkpt lat="42.3402573" lon="-7.3157609"><ele>718.0</ele><time>2026-04-25T15:32:20.06Z</time></trkpt><trkpt lat="42.3401695" lon="-7.3158259"><ele>718.0</ele><time>2026-04-25T15:32:21.057Z</time></trkpt><trkpt lat="42.34008" lon="-7.3158896"><ele>718.0</ele><time>2026-04-25T15:32:22.055Z</time></trkpt><trkpt lat="42.3399905" lon="-7.3159305"><ele>718.0</ele><time>2026-04-25T15:32:23.052Z</time></trkpt><trkpt lat="42.3399015" lon="-7.3159774"><ele>718.0</ele><time>2026-04-25T15:32:24.052Z</time></trkpt><trkpt lat="42.3398233" lon="-7.316047"><ele>718.0</ele><time>2026-04-25T15:32:25.047Z</time></trkpt><trkpt lat="42.3397474" lon="-7.3161166"><ele>715.5999999999999</ele><time>2026-04-25T15:32:26.049Z</time></trkpt><trkpt lat="42.3396674" lon="-7.3161838"><ele>713.1999999999999</ele><time>2026-04-25T15:32:27.055Z</time></trkpt><trkpt lat="42.3395943" lon="-7.3162375"><ele>710.8</ele><time>2026-04-25T15:32:28.059Z</time></trkpt><trkpt lat="42.3395063" lon="-7.3163054"><ele>708.4</ele><time>2026-04-25T15:32:29.053Z</time></trkpt><trkpt lat="42.3394308" lon="-7.3163763"><ele>706.0</ele><time>2026-04-25T15:32:30.046Z</time></trkpt><trkpt lat="42.3393544" lon="-7.3164625"><ele>706.0</ele><time>2026-04-25T15:32:31.053Z</time></trkpt><trkpt lat="42.3392878" lon="-7.3165498"><ele>706.0</ele><time>2026-04-25T15:32:32.048Z</time></trkpt><trkpt lat="42.3392384" lon="-7.3166241"><ele>706.0</ele><time>2026-04-25T15:32:33.057Z</time></trkpt><trkpt lat="42.3391864" lon="-7.3167209"><ele>706.0</ele><time>2026-04-25T15:32:34.053Z</time></trkpt><trkpt lat="42.3391461" lon="-7.3168088"><ele>706.0</ele><time>2026-04-25T15:32:35.058Z</time></trkpt><trkpt lat="42.3391094" lon="-7.3168964"><ele>706.0</ele><time>2026-04-25T15:32:36.056Z</time></trkpt><trkpt lat="42.3390785" lon="-7.3169746"><ele>706.0</ele><time>2026-04-25T15:32:37.068Z</time></trkpt><trkpt lat="42.3390427" lon="-7.3170809"><ele>706.0</ele><time>2026-04-25T15:32:39.046Z</time></trkpt><trkpt lat="42.3389609" lon="-7.3171385"><ele>706.0</ele><time>2026-04-25T15:32:41.058Z</time></trkpt><trkpt lat="42.3388597" lon="-7.3171712"><ele>706.0</ele><time>2026-04-25T15:32:43.055Z</time></trkpt><trkpt lat="42.3387425" lon="-7.3172327"><ele>706.0</ele><time>2026-04-25T15:32:45.05Z</time></trkpt><trkpt lat="42.3386905" lon="-7.3172938"><ele>705.5999999999999</ele><time>2026-04-25T15:32:46.047Z</time></trkpt><trkpt lat="42.3386503" lon="-7.3173952"><ele>705.2</ele><time>2026-04-25T15:32:47.047Z</time></trkpt><trkpt lat="42.338603" lon="-7.317537"><ele>704.8</ele><time>2026-04-25T15:32:48.052Z</time></trkpt><trkpt lat="42.3385748" lon="-7.3176851"><ele>704.4000000000001</ele><time>2026-04-25T15:32:49.048Z</time></trkpt><trkpt lat="42.338552" lon="-7.3178434"><ele>704.0</ele><time>2026-04-25T15:32:50.045Z</time></trkpt><trkpt lat="42.3385255" lon="-7.3180204"><ele>706.2</ele><time>2026-04-25T15:32:51.053Z</time></trkpt><trkpt lat="42.3384966" lon="-7.3181576"><ele>708.4000000000001</ele><time>2026-04-25T15:32:52.045Z</time></trkpt><trkpt lat="42.3384585" lon="-7.3182965"><ele>710.6</ele><time>2026-04-25T15:32:53.045Z</time></trkpt><trkpt lat="42.3384064" lon="-7.3184209"><ele>712.8</ele><time>2026-04-25T15:32:54.041Z</time></trkpt><trkpt lat="42.3383502" lon="-7.3185379"><ele>715.0</ele><time>2026-04-25T15:32:55.051Z</time></trkpt><trkpt lat="42.3383057" lon="-7.3186584"><ele>715.0</ele><time>2026-04-25T15:32:56.052Z</time></trkpt><trkpt lat="42.3382651" lon="-7.3187585"><ele>715.0</ele><time>2026-04-25T15:32:57.053Z</time></trkpt><trkpt lat="42.3382303" lon="-7.3188429"><ele>715.0</ele><time>2026-04-25T15:32:58.046Z</time></trkpt><trkpt lat="42.3381956" lon="-7.3189212"><ele>715.0</ele><time>2026-04-25T15:32:59.05Z</time></trkpt><trkpt lat="42.338138" lon="-7.3189743"><ele>715.0</ele><time>2026-04-25T15:33:00.047Z</time></trkpt><trkpt lat="42.3380732" lon="-7.3190427"><ele>715.0</ele><time>2026-04-25T15:33:01.049Z</time></trkpt><trkpt lat="42.3379989" lon="-7.3191328"><ele>713.1666666666667</ele><time>2026-04-25T15:33:02.054Z</time></trkpt><trkpt lat="42.3379337" lon="-7.3192165"><ele>711.3333333333334</ele><time>2026-04-25T15:33:03.05Z</time></trkpt><trkpt lat="42.3378776" lon="-7.3192776"><ele>709.5</ele><time>2026-04-25T15:33:04.053Z</time></trkpt><trkpt lat="42.3378244" lon="-7.3193384"><ele>707.6666666666666</ele><time>2026-04-25T15:33:05.046Z</time></trkpt><trkpt lat="42.3377754" lon="-7.3194311"><ele>705.8333333333333</ele><time>2026-04-25T15:33:06.059Z</time></trkpt><trkpt lat="42.3377336" lon="-7.3195411"><ele>704.0</ele><time>2026-04-25T15:33:07.05Z</time></trkpt><trkpt lat="42.3376988" lon="-7.3196552"><ele>704.0</ele><time>2026-04-25T15:33:08.053Z</time></trkpt><trkpt lat="42.3376547" lon="-7.319729"><ele>704.0</ele><time>2026-04-25T15:33:09.052Z</time></trkpt><trkpt lat="42.3376128" lon="-7.3198008"><ele>704.0</ele><time>2026-04-25T15:33:10.06Z</time></trkpt><trkpt lat="42.3375762" lon="-7.3198745"><ele>704.0</ele><time>2026-04-25T15:33:11.047Z</time></trkpt><trkpt lat="42.3375147" lon="-7.3200032"><ele>704.0</ele><time>2026-04-25T15:33:13.049Z</time></trkpt><trkpt lat="42.3374614" lon="-7.32011"><ele>704.0</ele><time>2026-04-25T15:33:15.051Z</time></trkpt><trkpt lat="42.3374237" lon="-7.3201922"><ele>704.1666666666666</ele><time>2026-04-25T15:33:17.053Z</time></trkpt><trkpt lat="42.3373883" lon="-7.3203023"><ele>704.3333333333333</ele><time>2026-04-25T15:33:19.05Z</time></trkpt><trkpt lat="42.3373679" lon="-7.3203833"><ele>704.5</ele><time>2026-04-25T15:33:20.05Z</time></trkpt><trkpt lat="42.3373405" lon="-7.3204674"><ele>704.6666666666666</ele><time>2026-04-25T15:33:21.052Z</time></trkpt><trkpt lat="42.3372911" lon="-7.3205836"><ele>704.8333333333334</ele><time>2026-04-25T15:33:23.063Z</time></trkpt><trkpt lat="42.3372168" lon="-7.3206979"><ele>705.0</ele><time>2026-04-25T15:33:25.048Z</time></trkpt><trkpt lat="42.3371062" lon="-7.3207806"><ele>705.0</ele><time>2026-04-25T15:33:27.049Z</time></trkpt><trkpt lat="42.336976" lon="-7.3208307"><ele>705.0</ele><time>2026-04-25T15:33:29.05Z</time></trkpt><trkpt lat="42.3368879" lon="-7.320891"><ele>705.0</ele><time>2026-04-25T15:33:30.052Z</time></trkpt><trkpt lat="42.336827" lon="-7.3209543"><ele>705.0</ele><time>2026-04-25T15:33:31.055Z</time></trkpt><trkpt lat="42.3367847" lon="-7.3210459"><ele>705.0</ele><time>2026-04-25T15:33:32.051Z</time></trkpt><trkpt lat="42.3367638" lon="-7.3211703"><ele>705.0</ele><time>2026-04-25T15:33:33.054Z</time></trkpt><trkpt lat="42.3367488" lon="-7.3212917"><ele>705.0</ele><time>2026-04-25T15:33:34.044Z</time></trkpt><trkpt lat="42.3367374" lon="-7.3214259"><ele>705.0</ele><time>2026-04-25T15:33:35.057Z</time></trkpt><trkpt lat="42.3367469" lon="-7.3215605"><ele>705.0</ele><time>2026-04-25T15:33:36.049Z</time></trkpt><trkpt lat="42.336757" lon="-7.3216809"><ele>705.0</ele><time>2026-04-25T15:33:37.048Z</time></trkpt><trkpt lat="42.3367716" lon="-7.3218176"><ele>705.2</ele><time>2026-04-25T15:33:38.044Z</time></trkpt><trkpt lat="42.336788" lon="-7.3219442"><ele>705.4</ele><time>2026-04-25T15:33:39.045Z</time></trkpt><trkpt lat="42.3368147" lon="-7.3220965"><ele>705.5999999999999</ele><time>2026-04-25T15:33:40.045Z</time></trkpt><trkpt lat="42.3368377" lon="-7.3222487"><ele>705.8</ele><time>2026-04-25T15:33:41.049Z</time></trkpt><trkpt lat="42.3368631" lon="-7.322397"><ele>706.0</ele><time>2026-04-25T15:33:42.051Z</time></trkpt><trkpt lat="42.3368915" lon="-7.3225573"><ele>706.0</ele><time>2026-04-25T15:33:43.06Z</time></trkpt><trkpt lat="42.3369157" lon="-7.3226515"><ele>706.0</ele><time>2026-04-25T15:33:44.047Z</time></trkpt><trkpt lat="42.3369559" lon="-7.3227424"><ele>706.0</ele><time>2026-04-25T15:33:45.049Z</time></trkpt><trkpt lat="42.3370194" lon="-7.3228531"><ele>706.0</ele><time>2026-04-25T15:33:46.044Z</time></trkpt><trkpt lat="42.3370641" lon="-7.3229449"><ele>706.0</ele><time>2026-04-25T15:33:47.049Z</time></trkpt><trkpt lat="42.3371045" lon="-7.3230462"><ele>706.0</ele><time>2026-04-25T15:33:48.055Z</time></trkpt><trkpt lat="42.3371648" lon="-7.3231482"><ele>708.3333333333334</ele><time>2026-04-25T15:33:49.046Z</time></trkpt><trkpt lat="42.337228" lon="-7.3232279"><ele>710.6666666666667</ele><time>2026-04-25T15:33:50.049Z</time></trkpt><trkpt lat="42.3372812" lon="-7.3232968"><ele>713.0</ele><time>2026-04-25T15:33:51.054Z</time></trkpt><trkpt lat="42.3373313" lon="-7.3233727"><ele>715.3333333333334</ele><time>2026-04-25T15:33:52.046Z</time></trkpt><trkpt lat="42.3373873" lon="-7.3234467"><ele>717.6666666666666</ele><time>2026-04-25T15:33:53.05Z</time></trkpt><trkpt lat="42.3374442" lon="-7.3235183"><ele>720.0</ele><time>2026-04-25T15:33:54.064Z</time></trkpt><trkpt lat="42.337498" lon="-7.3236095"><ele>720.0</ele><time>2026-04-25T15:33:55.052Z</time></trkpt><trkpt lat="42.337532" lon="-7.3237317"><ele>720.0</ele><time>2026-04-25T15:33:56.053Z</time></trkpt><trkpt lat="42.3375711" lon="-7.3238703"><ele>720.0</ele><time>2026-04-25T15:33:57.055Z</time></trkpt><trkpt lat="42.3376183" lon="-7.3240288"><ele>720.0</ele><time>2026-04-25T15:33:58.051Z</time></trkpt><trkpt lat="42.3376574" lon="-7.3241627"><ele>720.0</ele><time>2026-04-25T15:33:59.044Z</time></trkpt><trkpt lat="42.3377013" lon="-7.3242882"><ele>719.6666666666666</ele><time>2026-04-25T15:34:00.056Z</time></trkpt><trkpt lat="42.3377243" lon="-7.3243838"><ele>719.3333333333334</ele><time>2026-04-25T15:34:01.05Z</time></trkpt><trkpt lat="42.3377237" lon="-7.3244881"><ele>719.0</ele><time>2026-04-25T15:34:02.046Z</time></trkpt><trkpt lat="42.3377379" lon="-7.3245855"><ele>718.6666666666667</ele><time>2026-04-25T15:34:03.045Z</time></trkpt><trkpt lat="42.3377192" lon="-7.3246767"><ele>718.3333333333334</ele><time>2026-04-25T15:34:04.053Z</time></trkpt><trkpt lat="42.33771" lon="-7.3247642"><ele>718.0</ele><time>2026-04-25T15:34:05.052Z</time></trkpt><trkpt lat="42.3377093" lon="-7.324933"><ele>717.2</ele><time>2026-04-25T15:34:07.053Z</time></trkpt><trkpt lat="42.3377088" lon="-7.3250277"><ele>716.4</ele><time>2026-04-25T15:34:08.059Z</time></trkpt><trkpt lat="42.3377079" lon="-7.3251315"><ele>715.6</ele><time>2026-04-25T15:34:09.05Z</time></trkpt><trkpt lat="42.3377336" lon="-7.3252674"><ele>714.8000000000001</ele><time>2026-04-25T15:34:11.054Z</time></trkpt><trkpt lat="42.3377568" lon="-7.3253986"><ele>714.0</ele><time>2026-04-25T15:34:13.057Z</time></trkpt><trkpt lat="42.337746" lon="-7.3255705"><ele>712.8000000000001</ele><time>2026-04-25T15:34:15.052Z</time></trkpt><trkpt lat="42.3377462" lon="-7.3256912"><ele>711.6</ele><time>2026-04-25T15:34:16.055Z</time></trkpt><trkpt lat="42.33775" lon="-7.3257966"><ele>710.4</ele><time>2026-04-25T15:34:17.05Z</time></trkpt><trkpt lat="42.3377567" lon="-7.3259061"><ele>709.2</ele><time>2026-04-25T15:34:18.046Z</time></trkpt><trkpt lat="42.3377734" lon="-7.3260493"><ele>708.0</ele><time>2026-04-25T15:34:20.056Z</time></trkpt><trkpt lat="42.3377994" lon="-7.3261943"><ele>708.0</ele><time>2026-04-25T15:34:22.047Z</time></trkpt><trkpt lat="42.3378216" lon="-7.3263201"><ele>708.0</ele><time>2026-04-25T15:34:24.047Z</time></trkpt><trkpt lat="42.3377773" lon="-7.3264082"><ele>708.0</ele><time>2026-04-25T15:34:26.071Z</time></trkpt><trkpt lat="42.3377139" lon="-7.3264021"><ele>708.0</ele><time>2026-04-25T15:34:28.054Z</time></trkpt><trkpt lat="42.3376536" lon="-7.3263683"><ele>708.0</ele><time>2026-04-25T15:34:29.053Z</time></trkpt><trkpt lat="42.3375866" lon="-7.3263555"><ele>708.0</ele><time>2026-04-25T15:34:30.044Z</time></trkpt><trkpt lat="42.33751" lon="-7.3263543"><ele>708.0</ele><time>2026-04-25T15:34:31.054Z</time></trkpt><trkpt lat="42.3374293" lon="-7.3263731"><ele>708.5</ele><time>2026-04-25T15:34:32.05Z</time></trkpt><trkpt lat="42.3373582" lon="-7.326411"><ele>709.0</ele><time>2026-04-25T15:34:33.048Z</time></trkpt><trkpt lat="42.3372988" lon="-7.3264782"><ele>709.5</ele><time>2026-04-25T15:34:34.059Z</time></trkpt><trkpt lat="42.3372586" lon="-7.3265604"><ele>710.0</ele><time>2026-04-25T15:34:35.052Z</time></trkpt><trkpt lat="42.337193" lon="-7.3267224"><ele>710.5</ele><time>2026-04-25T15:34:37.056Z</time></trkpt><trkpt lat="42.3371519" lon="-7.326811"><ele>711.0</ele><time>2026-04-25T15:34:38.046Z</time></trkpt><trkpt lat="42.3371159" lon="-7.3269407"><ele>711.0</ele><time>2026-04-25T15:34:40.046Z</time></trkpt><trkpt lat="42.3371045" lon="-7.3270328"><ele>711.0</ele><time>2026-04-25T15:34:41.049Z</time></trkpt><trkpt lat="42.3371002" lon="-7.3271212"><ele>711.0</ele><time>2026-04-25T15:34:42.055Z</time></trkpt><trkpt lat="42.3370708" lon="-7.3272193"><ele>711.0</ele><time>2026-04-25T15:34:43.06Z</time></trkpt><trkpt lat="42.337034" lon="-7.3273386"><ele>711.0</ele><time>2026-04-25T15:34:44.052Z</time></trkpt><trkpt lat="42.3370071" lon="-7.3274968"><ele>711.0</ele><time>2026-04-25T15:34:45.054Z</time></trkpt><trkpt lat="42.3369921" lon="-7.3276537"><ele>710.4</ele><time>2026-04-25T15:34:46.051Z</time></trkpt><trkpt lat="42.3369699" lon="-7.3277945"><ele>709.8</ele><time>2026-04-25T15:34:47.055Z</time></trkpt><trkpt lat="42.3369481" lon="-7.3279317"><ele>709.1999999999999</ele><time>2026-04-25T15:34:48.046Z</time></trkpt><trkpt lat="42.3369085" lon="-7.328042"><ele>708.5999999999999</ele><time>2026-04-25T15:34:49.051Z</time></trkpt><trkpt lat="42.3368597" lon="-7.3281576"><ele>708.0</ele><time>2026-04-25T15:34:50.056Z</time></trkpt><trkpt lat="42.3368204" lon="-7.3282657"><ele>710.3333333333334</ele><time>2026-04-25T15:34:51.046Z</time></trkpt><trkpt lat="42.3367847" lon="-7.3283842"><ele>712.6666666666666</ele><time>2026-04-25T15:34:52.055Z</time></trkpt><trkpt lat="42.3367463" lon="-7.3285008"><ele>715.0</ele><time>2026-04-25T15:34:53.051Z</time></trkpt><trkpt lat="42.3367122" lon="-7.3285909"><ele>717.3333333333333</ele><time>2026-04-25T15:34:54.05Z</time></trkpt><trkpt lat="42.3366587" lon="-7.3286733"><ele>719.6666666666666</ele><time>2026-04-25T15:34:55.052Z</time></trkpt><trkpt lat="42.3365915" lon="-7.3287373"><ele>722.0</ele><time>2026-04-25T15:34:56.045Z</time></trkpt><trkpt lat="42.3365195" lon="-7.3288122"><ele>722.0</ele><time>2026-04-25T15:34:57.057Z</time></trkpt><trkpt lat="42.3364347" lon="-7.3288915"><ele>722.0</ele><time>2026-04-25T15:34:58.054Z</time></trkpt><trkpt lat="42.3363623" lon="-7.3289555"><ele>722.0</ele><time>2026-04-25T15:34:59.05Z</time></trkpt><trkpt lat="42.3362931" lon="-7.3290114"><ele>722.0</ele><time>2026-04-25T15:35:00.054Z</time></trkpt><trkpt lat="42.3361978" lon="-7.3291376"><ele>722.0</ele><time>2026-04-25T15:35:02.058Z</time></trkpt><trkpt lat="42.3361821" lon="-7.3292769"><ele>721.8</ele><time>2026-04-25T15:35:04.055Z</time></trkpt><trkpt lat="42.3362455" lon="-7.3293175"><ele>721.6</ele><time>2026-04-25T15:35:06.054Z</time></trkpt><trkpt lat="42.3363807" lon="-7.3292312"><ele>721.4</ele><time>2026-04-25T15:35:08.055Z</time></trkpt><trkpt lat="42.3364665" lon="-7.3291796"><ele>721.1999999999999</ele><time>2026-04-25T15:35:09.046Z</time></trkpt><trkpt lat="42.3365606" lon="-7.3291537"><ele>721.0</ele><time>2026-04-25T15:35:10.056Z</time></trkpt><trkpt lat="42.3366758" lon="-7.3291302"><ele>725.8</ele><time>2026-04-25T15:35:11.047Z</time></trkpt><trkpt lat="42.3367936" lon="-7.3291036"><ele>730.5999999999999</ele><time>2026-04-25T15:35:12.047Z</time></trkpt><trkpt lat="42.3369157" lon="-7.3290868"><ele>735.4</ele><time>2026-04-25T15:35:13.046Z</time></trkpt><trkpt lat="42.3370187" lon="-7.3290607"><ele>740.2</ele><time>2026-04-25T15:35:14.054Z</time></trkpt><trkpt lat="42.3371126" lon="-7.3290147"><ele>745.0</ele><time>2026-04-25T15:35:15.045Z</time></trkpt><trkpt lat="42.3372031" lon="-7.3289615"><ele>747.5</ele><time>2026-04-25T15:35:16.058Z</time></trkpt><trkpt lat="42.3372706" lon="-7.3288803"><ele>750.0</ele><time>2026-04-25T15:35:17.057Z</time></trkpt><trkpt lat="42.3373047" lon="-7.3287749"><ele>752.5</ele><time>2026-04-25T15:35:18.054Z</time></trkpt><trkpt lat="42.3373526" lon="-7.3286961"><ele>755.0</ele><time>2026-04-25T15:35:19.049Z</time></trkpt><trkpt lat="42.3374161" lon="-7.3286553"><ele>757.5</ele><time>2026-04-25T15:35:20.05Z</time></trkpt><trkpt lat="42.337492" lon="-7.3286384"><ele>760.0</ele><time>2026-04-25T15:35:21.053Z</time></trkpt><trkpt lat="42.3375648" lon="-7.3286237"><ele>760.0</ele><time>2026-04-25T15:35:22.051Z</time></trkpt><trkpt lat="42.337657" lon="-7.3285626"><ele>760.0</ele><time>2026-04-25T15:35:24.05Z</time></trkpt><trkpt lat="42.3377115" lon="-7.3284515"><ele>760.0</ele><time>2026-04-25T15:35:26.062Z</time></trkpt><trkpt lat="42.3378111" lon="-7.3283719"><ele>760.0</ele><time>2026-04-25T15:35:28.054Z</time></trkpt><trkpt lat="42.3378856" lon="-7.3283104"><ele>760.0</ele><time>2026-04-25T15:35:29.056Z</time></trkpt><trkpt lat="42.3379584" lon="-7.3282556"><ele>765.8</ele><time>2026-04-25T15:35:30.055Z</time></trkpt><trkpt lat="42.338055" lon="-7.3282109"><ele>771.6</ele><time>2026-04-25T15:35:31.046Z</time></trkpt><trkpt lat="42.3381579" lon="-7.3281617"><ele>777.4000000000001</ele><time>2026-04-25T15:35:32.049Z</time></trkpt><trkpt lat="42.3382536" lon="-7.3281416"><ele>783.2</ele><time>2026-04-25T15:35:33.058Z</time></trkpt><trkpt lat="42.3383462" lon="-7.3281241"><ele>789.0</ele><time>2026-04-25T15:35:34.054Z</time></trkpt><trkpt lat="42.3384611" lon="-7.3281223"><ele>789.0</ele><time>2026-04-25T15:35:36.055Z</time></trkpt><trkpt lat="42.3385119" lon="-7.3282538"><ele>789.0</ele><time>2026-04-25T15:35:38.054Z</time></trkpt><trkpt lat="42.3384632" lon="-7.3284058"><ele>789.0</ele><time>2026-04-25T15:35:40.057Z</time></trkpt><trkpt lat="42.3384293" lon="-7.3285003"><ele>789.0</ele><time>2026-04-25T15:35:41.051Z</time></trkpt><trkpt lat="42.3384031" lon="-7.3286267"><ele>789.0</ele><time>2026-04-25T15:35:42.053Z</time></trkpt><trkpt lat="42.3383793" lon="-7.3287635"><ele>792.8000000000001</ele><time>2026-04-25T15:35:43.058Z</time></trkpt><trkpt lat="42.3383567" lon="-7.328905"><ele>796.6</ele><time>2026-04-25T15:35:44.059Z</time></trkpt><trkpt lat="42.3383411" lon="-7.3290412"><ele>800.4</ele><time>2026-04-25T15:35:45.045Z</time></trkpt><trkpt lat="42.3383212" lon="-7.3291525"><ele>804.2</ele><time>2026-04-25T15:35:46.042Z</time></trkpt><trkpt lat="42.3382867" lon="-7.3292419"><ele>808.0</ele><time>2026-04-25T15:35:47.054Z</time></trkpt><trkpt lat="42.3382054" lon="-7.3293073"><ele>808.0</ele><time>2026-04-25T15:35:48.047Z</time></trkpt><trkpt lat="42.3381013" lon="-7.3294237"><ele>808.0</ele><time>2026-04-25T15:35:49.045Z</time></trkpt><trkpt lat="42.3380074" lon="-7.3295396"><ele>808.0</ele><time>2026-04-25T15:35:50.053Z</time></trkpt><trkpt lat="42.337939" lon="-7.3296704"><ele>808.0</ele><time>2026-04-25T15:35:51.048Z</time></trkpt><trkpt lat="42.3378714" lon="-7.3297979"><ele>806.0</ele><time>2026-04-25T15:35:52.055Z</time></trkpt><trkpt lat="42.3378113" lon="-7.3299692"><ele>804.0</ele><time>2026-04-25T15:35:53.047Z</time></trkpt><trkpt lat="42.3377462" lon="-7.3301277"><ele>802.0</ele><time>2026-04-25T15:35:54.066Z</time></trkpt><trkpt lat="42.3376839" lon="-7.3302616"><ele>800.0</ele><time>2026-04-25T15:35:55.06Z</time></trkpt><trkpt lat="42.3376237" lon="-7.3303825"><ele>800.0000000000001</ele><time>2026-04-25T15:35:56.049Z</time></trkpt><trkpt lat="42.3375783" lon="-7.3304836"><ele>800.0</ele><time>2026-04-25T15:35:57.051Z</time></trkpt><trkpt lat="42.3375409" lon="-7.3305769"><ele>800.0</ele><time>2026-04-25T15:35:58.055Z</time></trkpt><trkpt lat="42.3375159" lon="-7.3306642"><ele>800.0</ele><time>2026-04-25T15:35:59.049Z</time></trkpt><trkpt lat="42.3374917" lon="-7.3307605"><ele>800.0000000000001</ele><time>2026-04-25T15:36:00.049Z</time></trkpt><trkpt lat="42.3374698" lon="-7.3308638"><ele>800.0</ele><time>2026-04-25T15:36:01.057Z</time></trkpt><trkpt lat="42.337464" lon="-7.33098"><ele>802.0</ele><time>2026-04-25T15:36:02.054Z</time></trkpt><trkpt lat="42.337483" lon="-7.3311115"><ele>804.0</ele><time>2026-04-25T15:36:03.059Z</time></trkpt><trkpt lat="42.337517" lon="-7.3312612"><ele>806.0</ele><time>2026-04-25T15:36:04.052Z</time></trkpt><trkpt lat="42.3375531" lon="-7.331388"><ele>808.0</ele><time>2026-04-25T15:36:05.05Z</time></trkpt><trkpt lat="42.3375854" lon="-7.3314807"><ele>810.0</ele><time>2026-04-25T15:36:06.064Z</time></trkpt><trkpt lat="42.3376217" lon="-7.3315551"><ele>810.4285714285713</ele><time>2026-04-25T15:36:07.062Z</time></trkpt><trkpt lat="42.3376524" lon="-7.3316364"><ele>810.8571428571429</ele><time>2026-04-25T15:36:08.06Z</time></trkpt><trkpt lat="42.3376913" lon="-7.331711"><ele>811.2857142857142</ele><time>2026-04-25T15:36:09.064Z</time></trkpt><trkpt lat="42.3377256" lon="-7.3317884"><ele>811.7142857142857</ele><time>2026-04-25T15:36:10.057Z</time></trkpt><trkpt lat="42.3377774" lon="-7.3318678"><ele>812.1428571428571</ele><time>2026-04-25T15:36:11.059Z</time></trkpt><trkpt lat="42.3378349" lon="-7.3319437"><ele>812.5714285714286</ele><time>2026-04-25T15:36:12.061Z</time></trkpt><trkpt lat="42.3378941" lon="-7.3320058"><ele>813.0</ele><time>2026-04-25T15:36:13.064Z</time></trkpt><trkpt lat="42.3379402" lon="-7.3320662"><ele>813.0</ele><time>2026-04-25T15:36:14.061Z</time></trkpt><trkpt lat="42.3380346" lon="-7.3321994"><ele>813.0</ele><time>2026-04-25T15:36:16.053Z</time></trkpt><trkpt lat="42.3380913" lon="-7.3322707"><ele>813.0</ele><time>2026-04-25T15:36:17.053Z</time></trkpt><trkpt lat="42.338179" lon="-7.3323804"><ele>813.0</ele><time>2026-04-25T15:36:19.065Z</time></trkpt><trkpt lat="42.3382917" lon="-7.3324611"><ele>818.0</ele><time>2026-04-25T15:36:21.051Z</time></trkpt><trkpt lat="42.3383852" lon="-7.3325154"><ele>823.0</ele><time>2026-04-25T15:36:23.06Z</time></trkpt><trkpt lat="42.3384544" lon="-7.3325197"><ele>828.0</ele><time>2026-04-25T15:36:25.051Z</time></trkpt><trkpt lat="42.3385154" lon="-7.3324122"><ele>833.0</ele><time>2026-04-25T15:36:27.053Z</time></trkpt><trkpt lat="42.3385193" lon="-7.332323"><ele>838.0</ele><time>2026-04-25T15:36:28.058Z</time></trkpt><trkpt lat="42.3385129" lon="-7.3322168"><ele>843.0</ele><time>2026-04-25T15:36:29.049Z</time></trkpt><trkpt lat="42.3384908" lon="-7.3321057"><ele>844.2</ele><time>2026-04-25T15:36:30.05Z</time></trkpt><trkpt lat="42.3384898" lon="-7.3319861"><ele>845.4</ele><time>2026-04-25T15:36:31.056Z</time></trkpt><trkpt lat="42.3385201" lon="-7.3318717"><ele>846.6</ele><time>2026-04-25T15:36:32.056Z</time></trkpt><trkpt lat="42.3385642" lon="-7.3317434"><ele>847.8000000000001</ele><time>2026-04-25T15:36:33.054Z</time></trkpt><trkpt lat="42.3386013" lon="-7.3316054"><ele>849.0</ele><time>2026-04-25T15:36:34.053Z</time></trkpt><trkpt lat="42.3386338" lon="-7.3314805"><ele>847.8000000000001</ele><time>2026-04-25T15:36:35.052Z</time></trkpt><trkpt lat="42.3386647" lon="-7.331354"><ele>846.6</ele><time>2026-04-25T15:36:36.05Z</time></trkpt><trkpt lat="42.3387176" lon="-7.3312302"><ele>845.4</ele><time>2026-04-25T15:36:37.051Z</time></trkpt><trkpt lat="42.3387811" lon="-7.3311109"><ele>844.2</ele><time>2026-04-25T15:36:38.057Z</time></trkpt><trkpt lat="42.3388766" lon="-7.3310293"><ele>843.0</ele><time>2026-04-25T15:36:39.046Z</time></trkpt><trkpt lat="42.3389575" lon="-7.3309471"><ele>848.75</ele><time>2026-04-25T15:36:40.052Z</time></trkpt><trkpt lat="42.3390463" lon="-7.3308483"><ele>854.5</ele><time>2026-04-25T15:36:41.059Z</time></trkpt><trkpt lat="42.339155" lon="-7.3307313"><ele>860.25</ele><time>2026-04-25T15:36:42.055Z</time></trkpt><trkpt lat="42.3392787" lon="-7.3306579"><ele>866.0</ele><time>2026-04-25T15:36:43.059Z</time></trkpt><trkpt lat="42.339414" lon="-7.3305902"><ele>867.0</ele><time>2026-04-25T15:36:44.057Z</time></trkpt><trkpt lat="42.3395533" lon="-7.3305342"><ele>868.0</ele><time>2026-04-25T15:36:45.055Z</time></trkpt><trkpt lat="42.3396773" lon="-7.3304861"><ele>869.0</ele><time>2026-04-25T15:36:46.056Z</time></trkpt><trkpt lat="42.3397876" lon="-7.3304435"><ele>870.0</ele><time>2026-04-25T15:36:47.059Z</time></trkpt><trkpt lat="42.3398822" lon="-7.3303975"><ele>870.0</ele><time>2026-04-25T15:36:48.057Z</time></trkpt><trkpt lat="42.3399723" lon="-7.3303471"><ele>870.0</ele><time>2026-04-25T15:36:49.055Z</time></trkpt><trkpt lat="42.3400552" lon="-7.330255"><ele>870.0</ele><time>2026-04-25T15:36:50.059Z</time></trkpt><trkpt lat="42.3401419" lon="-7.3301617"><ele>870.0</ele><time>2026-04-25T15:36:51.053Z</time></trkpt><trkpt lat="42.3402151" lon="-7.3300869"><ele>870.0</ele><time>2026-04-25T15:36:52.045Z</time></trkpt><trkpt lat="42.340272" lon="-7.3300276"><ele>870.0</ele><time>2026-04-25T15:36:53.058Z</time></trkpt><trkpt lat="42.3403301" lon="-7.3299733"><ele>870.0</ele><time>2026-04-25T15:36:55.048Z</time></trkpt><trkpt lat="42.3402784" lon="-7.3300703"><ele>870.0</ele><time>2026-04-25T15:37:00.054Z</time></trkpt><trkpt lat="42.3402037" lon="-7.3301662"><ele>870.0</ele><time>2026-04-25T15:37:01.053Z</time></trkpt><trkpt lat="42.3400895" lon="-7.3303111"><ele>870.0</ele><time>2026-04-25T15:37:02.052Z</time></trkpt><trkpt lat="42.3399708" lon="-7.3304499"><ele>869.0</ele><time>2026-04-25T15:37:03.055Z</time></trkpt><trkpt lat="42.3398502" lon="-7.3305828"><ele>868.0</ele><time>2026-04-25T15:37:04.065Z</time></trkpt><trkpt lat="42.3397283" lon="-7.3306975"><ele>867.0</ele><time>2026-04-25T15:37:05.051Z</time></trkpt><trkpt lat="42.3396159" lon="-7.3308012"><ele>866.0</ele><time>2026-04-25T15:37:06.055Z</time></trkpt><trkpt lat="42.3395134" lon="-7.3309021"><ele>866.0</ele><time>2026-04-25T15:37:07.058Z</time></trkpt><trkpt lat="42.3394278" lon="-7.3310017"><ele>866.0</ele><time>2026-04-25T15:37:08.049Z</time></trkpt><trkpt lat="42.3393663" lon="-7.3311346"><ele>866.0</ele><time>2026-04-25T15:37:09.052Z</time></trkpt><trkpt lat="42.3392974" lon="-7.3312956"><ele>866.0</ele><time>2026-04-25T15:37:10.053Z</time></trkpt><trkpt lat="42.3392489" lon="-7.3314551"><ele>868.5</ele><time>2026-04-25T15:37:11.057Z</time></trkpt><trkpt lat="42.3392236" lon="-7.3316258"><ele>871.0</ele><time>2026-04-25T15:37:12.059Z</time></trkpt><trkpt lat="42.3392194" lon="-7.3318203"><ele>873.5</ele><time>2026-04-25T15:37:13.054Z</time></trkpt><trkpt lat="42.3392178" lon="-7.3320293"><ele>876.0</ele><time>2026-04-25T15:37:14.064Z</time></trkpt><trkpt lat="42.3392193" lon="-7.3322334"><ele>876.5</ele><time>2026-04-25T15:37:15.053Z</time></trkpt><trkpt lat="42.3392128" lon="-7.3324366"><ele>877.0</ele><time>2026-04-25T15:37:16.055Z</time></trkpt><trkpt lat="42.3391837" lon="-7.3326386"><ele>877.5</ele><time>2026-04-25T15:37:17.052Z</time></trkpt><trkpt lat="42.3391428" lon="-7.3328238"><ele>878.0</ele><time>2026-04-25T15:37:18.052Z</time></trkpt><trkpt lat="42.3390945" lon="-7.3329937"><ele>880.0</ele><time>2026-04-25T15:37:19.043Z</time></trkpt><trkpt lat="42.3390724" lon="-7.3331581"><ele>882.0</ele><time>2026-04-25T15:37:20.057Z</time></trkpt><trkpt lat="42.3390642" lon="-7.3333048"><ele>884.0</ele><time>2026-04-25T15:37:21.051Z</time></trkpt><trkpt lat="42.3390543" lon="-7.3334596"><ele>886.0</ele><time>2026-04-25T15:37:22.045Z</time></trkpt><trkpt lat="42.3390423" lon="-7.3336234"><ele>886.0</ele><time>2026-04-25T15:37:23.063Z</time></trkpt><trkpt lat="42.3390076" lon="-7.3338031"><ele>886.0</ele><time>2026-04-25T15:37:24.055Z</time></trkpt><trkpt lat="42.338928" lon="-7.3339626"><ele>886.0</ele><time>2026-04-25T15:37:25.053Z</time></trkpt><trkpt lat="42.3388396" lon="-7.334131"><ele>886.0</ele><time>2026-04-25T15:37:26.061Z</time></trkpt><trkpt lat="42.3387414" lon="-7.3342791"><ele>885.25</ele><time>2026-04-25T15:37:27.048Z</time></trkpt><trkpt lat="42.3386501" lon="-7.3344262"><ele>884.5</ele><time>2026-04-25T15:37:28.053Z</time></trkpt><trkpt lat="42.3385726" lon="-7.3346001"><ele>883.75</ele><time>2026-04-25T15:37:29.051Z</time></trkpt><trkpt lat="42.3384968" lon="-7.3347678"><ele>883.0</ele><time>2026-04-25T15:37:30.044Z</time></trkpt><trkpt lat="42.3384211" lon="-7.3349382"><ele>883.0</ele><time>2026-04-25T15:37:31.051Z</time></trkpt><trkpt lat="42.3383485" lon="-7.3350891"><ele>883.0</ele><time>2026-04-25T15:37:32.051Z</time></trkpt><trkpt lat="42.338287" lon="-7.3352316"><ele>883.0</ele><time>2026-04-25T15:37:33.049Z</time></trkpt><trkpt lat="42.3382288" lon="-7.3353545"><ele>883.0</ele><time>2026-04-25T15:37:34.053Z</time></trkpt><trkpt lat="42.3381754" lon="-7.3354505"><ele>883.0</ele><time>2026-04-25T15:37:35.048Z</time></trkpt><trkpt lat="42.3381155" lon="-7.3355219"><ele>883.0</ele><time>2026-04-25T15:37:36.049Z</time></trkpt><trkpt lat="42.3380293" lon="-7.335549"><ele>883.0</ele><time>2026-04-25T15:37:37.049Z</time></trkpt><trkpt lat="42.3379375" lon="-7.3355276"><ele>883.0</ele><time>2026-04-25T15:37:38.059Z</time></trkpt><trkpt lat="42.3378262" lon="-7.3354437"><ele>883.0</ele><time>2026-04-25T15:37:39.062Z</time></trkpt><trkpt lat="42.3377074" lon="-7.3353656"><ele>881.5</ele><time>2026-04-25T15:37:40.049Z</time></trkpt><trkpt lat="42.3375753" lon="-7.3352969"><ele>880.0</ele><time>2026-04-25T15:37:41.059Z</time></trkpt><trkpt lat="42.337432" lon="-7.3352266"><ele>878.5</ele><time>2026-04-25T15:37:42.048Z</time></trkpt><trkpt lat="42.3372893" lon="-7.335157"><ele>877.0</ele><time>2026-04-25T15:37:43.046Z</time></trkpt><trkpt lat="42.3371757" lon="-7.3350719"><ele>879.6</ele><time>2026-04-25T15:37:44.053Z</time></trkpt><trkpt lat="42.3370649" lon="-7.3349927"><ele>882.2</ele><time>2026-04-25T15:37:45.056Z</time></trkpt><trkpt lat="42.3369624" lon="-7.3349257"><ele>884.8</ele><time>2026-04-25T15:37:46.052Z</time></trkpt><trkpt lat="42.336865" lon="-7.3348658"><ele>887.4</ele><time>2026-04-25T15:37:47.053Z</time></trkpt><trkpt lat="42.3367713" lon="-7.3348102"><ele>890.0</ele><time>2026-04-25T15:37:48.063Z</time></trkpt><trkpt lat="42.3366879" lon="-7.334752"><ele>886.25</ele><time>2026-04-25T15:37:49.052Z</time></trkpt><trkpt lat="42.3366015" lon="-7.3346904"><ele>882.5</ele><time>2026-04-25T15:37:50.052Z</time></trkpt><trkpt lat="42.3365043" lon="-7.334623"><ele>878.75</ele><time>2026-04-25T15:37:51.052Z</time></trkpt><trkpt lat="42.3363768" lon="-7.3345489"><ele>875.0</ele><time>2026-04-25T15:37:52.059Z</time></trkpt><trkpt lat="42.3362492" lon="-7.3344805"><ele>875.0</ele><time>2026-04-25T15:37:53.059Z</time></trkpt><trkpt lat="42.3361335" lon="-7.3344315"><ele>875.0</ele><time>2026-04-25T15:37:54.056Z</time></trkpt><trkpt lat="42.3360178" lon="-7.3344156"><ele>875.0</ele><time>2026-04-25T15:37:55.05Z</time></trkpt><trkpt lat="42.3359142" lon="-7.3344457"><ele>875.0</ele><time>2026-04-25T15:37:56.054Z</time></trkpt><trkpt lat="42.3358119" lon="-7.3344802"><ele>875.0</ele><time>2026-04-25T15:37:57.058Z</time></trkpt><trkpt lat="42.335699" lon="-7.3346079"><ele>877.6666666666667</ele><time>2026-04-25T15:37:58.053Z</time></trkpt><trkpt lat="42.3355844" lon="-7.3347666"><ele>880.3333333333333</ele><time>2026-04-25T15:37:59.054Z</time></trkpt><trkpt lat="42.3354791" lon="-7.334926"><ele>883.0</ele><time>2026-04-25T15:38:00.056Z</time></trkpt><trkpt lat="42.3353965" lon="-7.3350639"><ele>879.5999999999999</ele><time>2026-04-25T15:38:01.061Z</time></trkpt><trkpt lat="42.3353419" lon="-7.335185"><ele>876.1999999999999</ele><time>2026-04-25T15:38:02.058Z</time></trkpt><trkpt lat="42.3353245" lon="-7.3353068"><ele>872.8</ele><time>2026-04-25T15:38:03.052Z</time></trkpt><trkpt lat="42.3353396" lon="-7.3354445"><ele>869.4</ele><time>2026-04-25T15:38:04.055Z</time></trkpt><trkpt lat="42.3353675" lon="-7.3355767"><ele>866.0</ele><time>2026-04-25T15:38:05.057Z</time></trkpt><trkpt lat="42.3353802" lon="-7.3357088"><ele>866.0</ele><time>2026-04-25T15:38:06.049Z</time></trkpt><trkpt lat="42.3353678" lon="-7.3358431"><ele>865.9999999999999</ele><time>2026-04-25T15:38:07.053Z</time></trkpt><trkpt lat="42.3353124" lon="-7.335962"><ele>865.9999999999999</ele><time>2026-04-25T15:38:08.053Z</time></trkpt><trkpt lat="42.3352374" lon="-7.3360615"><ele>866.0</ele><time>2026-04-25T15:38:09.062Z</time></trkpt><trkpt lat="42.3351576" lon="-7.3361624"><ele>866.0</ele><time>2026-04-25T15:38:10.056Z</time></trkpt><trkpt lat="42.3350506" lon="-7.3362562"><ele>866.0</ele><time>2026-04-25T15:38:11.051Z</time></trkpt><trkpt lat="42.334942" lon="-7.3363467"><ele>866.0</ele><time>2026-04-25T15:38:12.055Z</time></trkpt><trkpt lat="42.3348461" lon="-7.3364273"><ele>866.0</ele><time>2026-04-25T15:38:13.057Z</time></trkpt><trkpt lat="42.3347529" lon="-7.3364954"><ele>866.0</ele><time>2026-04-25T15:38:14.055Z</time></trkpt><trkpt lat="42.3346623" lon="-7.3365793"><ele>863.4</ele><time>2026-04-25T15:38:15.054Z</time></trkpt><trkpt lat="42.3345798" lon="-7.3366784"><ele>860.8</ele><time>2026-04-25T15:38:16.056Z</time></trkpt><trkpt lat="42.3345165" lon="-7.3367798"><ele>858.1999999999999</ele><time>2026-04-25T15:38:17.046Z</time></trkpt><trkpt lat="42.334475" lon="-7.3368881"><ele>855.5999999999999</ele><time>2026-04-25T15:38:18.052Z</time></trkpt><trkpt lat="42.334452" lon="-7.3370075"><ele>853.0</ele><time>2026-04-25T15:38:19.053Z</time></trkpt><trkpt lat="42.3344372" lon="-7.3371495"><ele>854.0</ele><time>2026-04-25T15:38:20.053Z</time></trkpt><trkpt lat="42.3344276" lon="-7.3373032"><ele>855.0</ele><time>2026-04-25T15:38:21.057Z</time></trkpt><trkpt lat="42.3344245" lon="-7.3374624"><ele>856.0</ele><time>2026-04-25T15:38:22.056Z</time></trkpt><trkpt lat="42.3344311" lon="-7.3376177"><ele>857.0</ele><time>2026-04-25T15:38:23.054Z</time></trkpt><trkpt lat="42.3344475" lon="-7.3377698"><ele>857.0</ele><time>2026-04-25T15:38:24.056Z</time></trkpt><trkpt lat="42.3344644" lon="-7.3379152"><ele>857.0</ele><time>2026-04-25T15:38:25.058Z</time></trkpt><trkpt lat="42.3344905" lon="-7.3380443"><ele>857.0</ele><time>2026-04-25T15:38:26.062Z</time></trkpt><trkpt lat="42.3345179" lon="-7.3381592"><ele>857.0</ele><time>2026-04-25T15:38:27.054Z</time></trkpt><trkpt lat="42.3345472" lon="-7.338269"><ele>857.0</ele><time>2026-04-25T15:38:28.063Z</time></trkpt><trkpt lat="42.3345765" lon="-7.3383696"><ele>856.2</ele><time>2026-04-25T15:38:29.051Z</time></trkpt><trkpt lat="42.3346073" lon="-7.3384786"><ele>855.4000000000001</ele><time>2026-04-25T15:38:30.051Z</time></trkpt><trkpt lat="42.3346362" lon="-7.3386017"><ele>854.5999999999999</ele><time>2026-04-25T15:38:31.051Z</time></trkpt><trkpt lat="42.334662" lon="-7.3387382"><ele>853.8</ele><time>2026-04-25T15:38:32.058Z</time></trkpt><trkpt lat="42.3346656" lon="-7.3388829"><ele>853.0</ele><time>2026-04-25T15:38:33.051Z</time></trkpt><trkpt lat="42.3346599" lon="-7.3390302"><ele>855.4</ele><time>2026-04-25T15:38:34.053Z</time></trkpt><trkpt lat="42.3346328" lon="-7.3391798"><ele>857.8</ele><time>2026-04-25T15:38:35.052Z</time></trkpt><trkpt lat="42.334572" lon="-7.3393029"><ele>860.2</ele><time>2026-04-25T15:38:36.06Z</time></trkpt><trkpt lat="42.3344992" lon="-7.339415"><ele>862.6</ele><time>2026-04-25T15:38:37.053Z</time></trkpt><trkpt lat="42.334427" lon="-7.3395201"><ele>865.0</ele><time>2026-04-25T15:38:38.053Z</time></trkpt><trkpt lat="42.3343356" lon="-7.3395896"><ele>865.0</ele><time>2026-04-25T15:38:39.054Z</time></trkpt><trkpt lat="42.3342178" lon="-7.3396337"><ele>865.0</ele><time>2026-04-25T15:38:40.048Z</time></trkpt><trkpt lat="42.3340945" lon="-7.3396653"><ele>865.0</ele><time>2026-04-25T15:38:41.052Z</time></trkpt><trkpt lat="42.3339883" lon="-7.3396865"><ele>865.0</ele><time>2026-04-25T15:38:42.056Z</time></trkpt><trkpt lat="42.3338876" lon="-7.3397036"><ele>865.9999999999999</ele><time>2026-04-25T15:38:43.06Z</time></trkpt><trkpt lat="42.3337897" lon="-7.3397082"><ele>867.0</ele><time>2026-04-25T15:38:44.058Z</time></trkpt><trkpt lat="42.3336958" lon="-7.3397101"><ele>868.0</ele><time>2026-04-25T15:38:45.054Z</time></trkpt><trkpt lat="42.3336125" lon="-7.3397136"><ele>869.0</ele><time>2026-04-25T15:38:46.048Z</time></trkpt><trkpt lat="42.3335351" lon="-7.3397336"><ele>869.9999999999999</ele><time>2026-04-25T15:38:47.049Z</time></trkpt><trkpt lat="42.3334544" lon="-7.3397793"><ele>871.0</ele><time>2026-04-25T15:38:48.058Z</time></trkpt><trkpt lat="42.3333694" lon="-7.3398465"><ele>871.0</ele><time>2026-04-25T15:38:49.052Z</time></trkpt><trkpt lat="42.3332724" lon="-7.3399228"><ele>871.0</ele><time>2026-04-25T15:38:50.055Z</time></trkpt><trkpt lat="42.3331602" lon="-7.340009"><ele>871.0</ele><time>2026-04-25T15:38:51.063Z</time></trkpt><trkpt lat="42.3330498" lon="-7.3400887"><ele>871.0</ele><time>2026-04-25T15:38:52.052Z</time></trkpt><trkpt lat="42.3329448" lon="-7.3401666"><ele>867.5999999999999</ele><time>2026-04-25T15:38:53.056Z</time></trkpt><trkpt lat="42.3328465" lon="-7.340242"><ele>864.1999999999999</ele><time>2026-04-25T15:38:54.05Z</time></trkpt><trkpt lat="42.3327686" lon="-7.340336"><ele>860.8000000000001</ele><time>2026-04-25T15:38:55.055Z</time></trkpt><trkpt lat="42.3326957" lon="-7.3404342"><ele>857.4000000000001</ele><time>2026-04-25T15:38:56.061Z</time></trkpt><trkpt lat="42.3326241" lon="-7.340539"><ele>854.0</ele><time>2026-04-25T15:38:57.051Z</time></trkpt><trkpt lat="42.3325543" lon="-7.3406477"><ele>854.0</ele><time>2026-04-25T15:38:58.051Z</time></trkpt><trkpt lat="42.3324943" lon="-7.3407705"><ele>854.0</ele><time>2026-04-25T15:38:59.065Z</time></trkpt><trkpt lat="42.3324391" lon="-7.3409105"><ele>854.0</ele><time>2026-04-25T15:39:00.06Z</time></trkpt><trkpt lat="42.3323984" lon="-7.3410543"><ele>854.0</ele><time>2026-04-25T15:39:01.048Z</time></trkpt><trkpt lat="42.3323661" lon="-7.3411978"><ele>854.0</ele><time>2026-04-25T15:39:02.055Z</time></trkpt><trkpt lat="42.3323346" lon="-7.3413377"><ele>854.0</ele><time>2026-04-25T15:39:03.048Z</time></trkpt><trkpt lat="42.3323024" lon="-7.3414789"><ele>854.0</ele><time>2026-04-25T15:39:04.054Z</time></trkpt><trkpt lat="42.332252" lon="-7.3416258"><ele>854.0</ele><time>2026-04-25T15:39:05.057Z</time></trkpt><trkpt lat="42.3322028" lon="-7.3417711"><ele>849.0</ele><time>2026-04-25T15:39:06.054Z</time></trkpt><trkpt lat="42.3321394" lon="-7.3419244"><ele>844.0</ele><time>2026-04-25T15:39:07.051Z</time></trkpt><trkpt lat="42.3320805" lon="-7.3420932"><ele>839.0</ele><time>2026-04-25T15:39:08.055Z</time></trkpt><trkpt lat="42.3320291" lon="-7.3422792"><ele>834.0</ele><time>2026-04-25T15:39:09.051Z</time></trkpt><trkpt lat="42.331981" lon="-7.3424511"><ele>834.0</ele><time>2026-04-25T15:39:10.055Z</time></trkpt><trkpt lat="42.3319304" lon="-7.3426078"><ele>834.0</ele><time>2026-04-25T15:39:11.049Z</time></trkpt><trkpt lat="42.33188" lon="-7.3427567"><ele>834.0</ele><time>2026-04-25T15:39:12.057Z</time></trkpt><trkpt lat="42.331815" lon="-7.3428841"><ele>834.0</ele><time>2026-04-25T15:39:13.046Z</time></trkpt><trkpt lat="42.3317382" lon="-7.3429977"><ele>831.4000000000001</ele><time>2026-04-25T15:39:14.066Z</time></trkpt><trkpt lat="42.3316593" lon="-7.3430956"><ele>828.8</ele><time>2026-04-25T15:39:15.074Z</time></trkpt><trkpt lat="42.3315832" lon="-7.3431815"><ele>826.2</ele><time>2026-04-25T15:39:16.052Z</time></trkpt><trkpt lat="42.3315142" lon="-7.3432716"><ele>823.5999999999999</ele><time>2026-04-25T15:39:17.054Z</time></trkpt><trkpt lat="42.331448" lon="-7.3433809"><ele>821.0</ele><time>2026-04-25T15:39:18.057Z</time></trkpt><trkpt lat="42.3313799" lon="-7.3434954"><ele>821.0</ele><time>2026-04-25T15:39:19.056Z</time></trkpt><trkpt lat="42.3313354" lon="-7.3436519"><ele>821.0</ele><time>2026-04-25T15:39:20.047Z</time></trkpt><trkpt lat="42.3313075" lon="-7.3438164"><ele>821.0</ele><time>2026-04-25T15:39:21.053Z</time></trkpt><trkpt lat="42.3312812" lon="-7.3439723"><ele>821.0</ele><time>2026-04-25T15:39:22.049Z</time></trkpt><trkpt lat="42.3312416" lon="-7.3441029"><ele>823.25</ele><time>2026-04-25T15:39:23.051Z</time></trkpt><trkpt lat="42.3311808" lon="-7.3442167"><ele>825.5</ele><time>2026-04-25T15:39:24.048Z</time></trkpt><trkpt lat="42.3311071" lon="-7.34434"><ele>827.75</ele><time>2026-04-25T15:39:25.062Z</time></trkpt><trkpt lat="42.3310429" lon="-7.3444901"><ele>830.0</ele><time>2026-04-25T15:39:26.057Z</time></trkpt><trkpt lat="42.3309911" lon="-7.3446767"><ele>832.25</ele><time>2026-04-25T15:39:27.061Z</time></trkpt><trkpt lat="42.3309436" lon="-7.3448556"><ele>834.5</ele><time>2026-04-25T15:39:28.054Z</time></trkpt><trkpt lat="42.3308992" lon="-7.3450152"><ele>836.75</ele><time>2026-04-25T15:39:29.053Z</time></trkpt><trkpt lat="42.3308487" lon="-7.3451556"><ele>839.0</ele><time>2026-04-25T15:39:30.052Z</time></trkpt><trkpt lat="42.3307596" lon="-7.3452295"><ele>839.0</ele><time>2026-04-25T15:39:31.052Z</time></trkpt><trkpt lat="42.3306483" lon="-7.3452812"><ele>839.0</ele><time>2026-04-25T15:39:32.064Z</time></trkpt><trkpt lat="42.3305266" lon="-7.3452734"><ele>839.0</ele><time>2026-04-25T15:39:33.059Z</time></trkpt><trkpt lat="42.3304064" lon="-7.3452773"><ele>839.0</ele><time>2026-04-25T15:39:34.058Z</time></trkpt><trkpt lat="42.3302887" lon="-7.3452751"><ele>836.75</ele><time>2026-04-25T15:39:35.064Z</time></trkpt><trkpt lat="42.3301933" lon="-7.3453339"><ele>834.5</ele><time>2026-04-25T15:39:36.054Z</time></trkpt><trkpt lat="42.3301109" lon="-7.3454518"><ele>832.25</ele><time>2026-04-25T15:39:37.062Z</time></trkpt><trkpt lat="42.3300355" lon="-7.3456116"><ele>830.0</ele><time>2026-04-25T15:39:38.053Z</time></trkpt><trkpt lat="42.3299732" lon="-7.3457765"><ele>830.0</ele><time>2026-04-25T15:39:39.056Z</time></trkpt><trkpt lat="42.3299152" lon="-7.3459319"><ele>830.0</ele><time>2026-04-25T15:39:40.049Z</time></trkpt><trkpt lat="42.3298821" lon="-7.3460988"><ele>830.0</ele><time>2026-04-25T15:39:41.051Z</time></trkpt><trkpt lat="42.3298671" lon="-7.3462898"><ele>830.0</ele><time>2026-04-25T15:39:42.054Z</time></trkpt><trkpt lat="42.3298511" lon="-7.3464988"><ele>829.75</ele><time>2026-04-25T15:39:43.046Z</time></trkpt><trkpt lat="42.3298495" lon="-7.3466902"><ele>829.5</ele><time>2026-04-25T15:39:44.053Z</time></trkpt><trkpt lat="42.3298499" lon="-7.3468916"><ele>829.25</ele><time>2026-04-25T15:39:45.055Z</time></trkpt><trkpt lat="42.329852" lon="-7.34706"><ele>829.0</ele><time>2026-04-25T15:39:46.046Z</time></trkpt><trkpt lat="42.3298503" lon="-7.3472012"><ele>830.4000000000001</ele><time>2026-04-25T15:39:47.053Z</time></trkpt><trkpt lat="42.3298494" lon="-7.3473123"><ele>831.8</ele><time>2026-04-25T15:39:48.049Z</time></trkpt><trkpt lat="42.3298002" lon="-7.3474579"><ele>833.2</ele><time>2026-04-25T15:39:50.058Z</time></trkpt><trkpt lat="42.3297027" lon="-7.3475118"><ele>834.5999999999999</ele><time>2026-04-25T15:39:51.051Z</time></trkpt><trkpt lat="42.3295912" lon="-7.3475543"><ele>836.0</ele><time>2026-04-25T15:39:52.048Z</time></trkpt><trkpt lat="42.3294719" lon="-7.3476003"><ele>831.4</ele><time>2026-04-25T15:39:53.055Z</time></trkpt><trkpt lat="42.3293548" lon="-7.3476645"><ele>826.8</ele><time>2026-04-25T15:39:54.054Z</time></trkpt><trkpt lat="42.3292614" lon="-7.3477238"><ele>822.1999999999999</ele><time>2026-04-25T15:39:55.063Z</time></trkpt><trkpt lat="42.3291775" lon="-7.3477816"><ele>817.5999999999999</ele><time>2026-04-25T15:39:56.052Z</time></trkpt><trkpt lat="42.3291049" lon="-7.3478443"><ele>813.0</ele><time>2026-04-25T15:39:57.06Z</time></trkpt><trkpt lat="42.3290757" lon="-7.3479652"><ele>815.0</ele><time>2026-04-25T15:39:58.058Z</time></trkpt><trkpt lat="42.3290547" lon="-7.348097"><ele>817.0</ele><time>2026-04-25T15:39:59.055Z</time></trkpt><trkpt lat="42.3290825" lon="-7.3482706"><ele>819.0</ele><time>2026-04-25T15:40:00.063Z</time></trkpt><trkpt lat="42.3291159" lon="-7.3484556"><ele>821.0</ele><time>2026-04-25T15:40:01.057Z</time></trkpt><trkpt lat="42.3291504" lon="-7.348642"><ele>821.0</ele><time>2026-04-25T15:40:02.055Z</time></trkpt><trkpt lat="42.3291793" lon="-7.3488038"><ele>821.0</ele><time>2026-04-25T15:40:03.064Z</time></trkpt><trkpt lat="42.3291905" lon="-7.3489416"><ele>821.0</ele><time>2026-04-25T15:40:04.059Z</time></trkpt><trkpt lat="42.3291702" lon="-7.3490784"><ele>821.0</ele><time>2026-04-25T15:40:05.052Z</time></trkpt><trkpt lat="42.3291304" lon="-7.3492112"><ele>821.0</ele><time>2026-04-25T15:40:06.052Z</time></trkpt><trkpt lat="42.3290444" lon="-7.3493081"><ele>821.8</ele><time>2026-04-25T15:40:07.051Z</time></trkpt><trkpt lat="42.3289636" lon="-7.3494076"><ele>822.5999999999999</ele><time>2026-04-25T15:40:08.05Z</time></trkpt><trkpt lat="42.3288633" lon="-7.3494579"><ele>823.4</ele><time>2026-04-25T15:40:09.051Z</time></trkpt><trkpt lat="42.3287702" lon="-7.349505"><ele>824.2</ele><time>2026-04-25T15:40:10.053Z</time></trkpt><trkpt lat="42.3286904" lon="-7.3495159"><ele>825.0</ele><time>2026-04-25T15:40:11.051Z</time></trkpt><trkpt lat="42.3286166" lon="-7.3494724"><ele>825.0</ele><time>2026-04-25T15:40:12.055Z</time></trkpt><trkpt lat="42.3285477" lon="-7.3494319"><ele>825.0</ele><time>2026-04-25T15:40:13.051Z</time></trkpt><trkpt lat="42.3285022" lon="-7.3493569"><ele>825.0</ele><time>2026-04-25T15:40:14.053Z</time></trkpt><trkpt lat="42.3284734" lon="-7.3492466"><ele>825.0</ele><time>2026-04-25T15:40:15.058Z</time></trkpt><trkpt lat="42.3284652" lon="-7.3491144"><ele>825.0</ele><time>2026-04-25T15:40:16.052Z</time></trkpt><trkpt lat="42.3284265" lon="-7.3489867"><ele>825.0</ele><time>2026-04-25T15:40:17.057Z</time></trkpt><trkpt lat="42.328374" lon="-7.3488911"><ele>824.0</ele><time>2026-04-25T15:40:18.053Z</time></trkpt><trkpt lat="42.3282852" lon="-7.3488257"><ele>823.0</ele><time>2026-04-25T15:40:19.065Z</time></trkpt><trkpt lat="42.3281724" lon="-7.3487372"><ele>822.0</ele><time>2026-04-25T15:40:20.052Z</time></trkpt><trkpt lat="42.3280517" lon="-7.3486416"><ele>821.0</ele><time>2026-04-25T15:40:21.058Z</time></trkpt><trkpt lat="42.3279443" lon="-7.3485357"><ele>821.0</ele><time>2026-04-25T15:40:22.052Z</time></trkpt><trkpt lat="42.3278367" lon="-7.3484288"><ele>821.0</ele><time>2026-04-25T15:40:23.058Z</time></trkpt><trkpt lat="42.3277432" lon="-7.3483159"><ele>821.0</ele><time>2026-04-25T15:40:24.049Z</time></trkpt><trkpt lat="42.3276589" lon="-7.3482203"><ele>821.0</ele><time>2026-04-25T15:40:25.052Z</time></trkpt><trkpt lat="42.3275882" lon="-7.3481281"><ele>818.1999999999999</ele><time>2026-04-25T15:40:26.057Z</time></trkpt><trkpt lat="42.3275231" lon="-7.3480399"><ele>815.4</ele><time>2026-04-25T15:40:27.059Z</time></trkpt><trkpt lat="42.3274672" lon="-7.347957"><ele>812.6</ele><time>2026-04-25T15:40:28.069Z</time></trkpt><trkpt lat="42.32744" lon="-7.3478549"><ele>809.8</ele><time>2026-04-25T15:40:29.051Z</time></trkpt><trkpt lat="42.3274432" lon="-7.3477253"><ele>807.0</ele><time>2026-04-25T15:40:30.05Z</time></trkpt><trkpt lat="42.3274597" lon="-7.3475799"><ele>807.0</ele><time>2026-04-25T15:40:31.053Z</time></trkpt><trkpt lat="42.3274908" lon="-7.3474211"><ele>807.0</ele><time>2026-04-25T15:40:32.049Z</time></trkpt><trkpt lat="42.3275028" lon="-7.3472761"><ele>807.0</ele><time>2026-04-25T15:40:33.054Z</time></trkpt><trkpt lat="42.3274951" lon="-7.3471319"><ele>807.0</ele><time>2026-04-25T15:40:34.05Z</time></trkpt><trkpt lat="42.327467" lon="-7.346984"><ele>807.0</ele><time>2026-04-25T15:40:35.053Z</time></trkpt><trkpt lat="42.3274378" lon="-7.3468344"><ele>805.25</ele><time>2026-04-25T15:40:36.055Z</time></trkpt><trkpt lat="42.3273956" lon="-7.3466473"><ele>803.5</ele><time>2026-04-25T15:40:37.063Z</time></trkpt><trkpt lat="42.3273456" lon="-7.3464438"><ele>801.75</ele><time>2026-04-25T15:40:38.053Z</time></trkpt><trkpt lat="42.3273117" lon="-7.3462634"><ele>800.0</ele><time>2026-04-25T15:40:39.056Z</time></trkpt><trkpt lat="42.3272739" lon="-7.3460791"><ele>798.75</ele><time>2026-04-25T15:40:40.065Z</time></trkpt><trkpt lat="42.3272356" lon="-7.3459116"><ele>797.5</ele><time>2026-04-25T15:40:41.051Z</time></trkpt><trkpt lat="42.3271997" lon="-7.345754"><ele>796.25</ele><time>2026-04-25T15:40:42.052Z</time></trkpt><trkpt lat="42.3271499" lon="-7.3455925"><ele>795.0</ele><time>2026-04-25T15:40:43.051Z</time></trkpt><trkpt lat="42.327098" lon="-7.3454367"><ele>795.0</ele><time>2026-04-25T15:40:44.054Z</time></trkpt><trkpt lat="42.3270474" lon="-7.3452956"><ele>795.0</ele><time>2026-04-25T15:40:45.057Z</time></trkpt><trkpt lat="42.3269988" lon="-7.3451585"><ele>795.0</ele><time>2026-04-25T15:40:46.054Z</time></trkpt><trkpt lat="42.3269132" lon="-7.3450302"><ele>795.0</ele><time>2026-04-25T15:40:47.057Z</time></trkpt><trkpt lat="42.3268152" lon="-7.3449087"><ele>795.0</ele><time>2026-04-25T15:40:48.056Z</time></trkpt><trkpt lat="42.3267218" lon="-7.3447979"><ele>795.0</ele><time>2026-04-25T15:40:49.055Z</time></trkpt><trkpt lat="42.326636" lon="-7.3446989"><ele>795.0</ele><time>2026-04-25T15:40:50.053Z</time></trkpt><trkpt lat="42.3265537" lon="-7.344627"><ele>795.0</ele><time>2026-04-25T15:40:51.053Z</time></trkpt><trkpt lat="42.3264642" lon="-7.3445823"><ele>795.0</ele><time>2026-04-25T15:40:52.068Z</time></trkpt><trkpt lat="42.3263739" lon="-7.3445668"><ele>794.1666666666666</ele><time>2026-04-25T15:40:53.054Z</time></trkpt><trkpt lat="42.3263001" lon="-7.344568"><ele>793.3333333333333</ele><time>2026-04-25T15:40:54.06Z</time></trkpt><trkpt lat="42.3262311" lon="-7.3445902"><ele>792.5</ele><time>2026-04-25T15:40:56.053Z</time></trkpt><trkpt lat="42.3262865" lon="-7.3445352"><ele>791.6666666666666</ele><time>2026-04-25T15:41:03.062Z</time></trkpt><trkpt lat="42.3264041" lon="-7.3445673"><ele>790.8333333333333</ele><time>2026-04-25T15:41:05.06Z</time></trkpt><trkpt lat="42.3264383" lon="-7.3446587"><ele>790.0</ele><time>2026-04-25T15:41:07.049Z</time></trkpt><trkpt lat="42.326382" lon="-7.3447658"><ele>790.0</ele><time>2026-04-25T15:41:09.07Z</time></trkpt><trkpt lat="42.3263339" lon="-7.3448387"><ele>790.0</ele><time>2026-04-25T15:41:10.068Z</time></trkpt><trkpt lat="42.326267" lon="-7.3449345"><ele>790.0</ele><time>2026-04-25T15:41:11.056Z</time></trkpt><trkpt lat="42.3261831" lon="-7.3450466"><ele>790.0</ele><time>2026-04-25T15:41:12.059Z</time></trkpt><trkpt lat="42.3260967" lon="-7.3451568"><ele>790.0</ele><time>2026-04-25T15:41:13.064Z</time></trkpt><trkpt lat="42.3260141" lon="-7.3452573"><ele>790.0</ele><time>2026-04-25T15:41:14.058Z</time></trkpt><trkpt lat="42.3259204" lon="-7.3453381"><ele>790.0</ele><time>2026-04-25T15:41:15.056Z</time></trkpt><trkpt lat="42.3258087" lon="-7.3453861"><ele>790.0</ele><time>2026-04-25T15:41:16.057Z</time></trkpt><trkpt lat="42.3256873" lon="-7.3454316"><ele>790.0</ele><time>2026-04-25T15:41:17.061Z</time></trkpt><trkpt lat="42.3255551" lon="-7.3454555"><ele>789.0</ele><time>2026-04-25T15:41:18.061Z</time></trkpt><trkpt lat="42.3254342" lon="-7.3454717"><ele>788.0</ele><time>2026-04-25T15:41:19.054Z</time></trkpt><trkpt lat="42.3253147" lon="-7.3455006"><ele>787.0</ele><time>2026-04-25T15:41:20.065Z</time></trkpt><trkpt lat="42.3252211" lon="-7.3455423"><ele>786.0</ele><time>2026-04-25T15:41:21.052Z</time></trkpt><trkpt lat="42.3251375" lon="-7.3456048"><ele>785.0</ele><time>2026-04-25T15:41:22.059Z</time></trkpt><trkpt lat="42.3250499" lon="-7.3456841"><ele>786.2</ele><time>2026-04-25T15:41:23.072Z</time></trkpt><trkpt lat="42.3249585" lon="-7.3457724"><ele>787.4</ele><time>2026-04-25T15:41:24.069Z</time></trkpt><trkpt lat="42.3248627" lon="-7.3458508"><ele>788.5999999999999</ele><time>2026-04-25T15:41:25.058Z</time></trkpt><trkpt lat="42.3247586" lon="-7.3459204"><ele>789.8</ele><time>2026-04-25T15:41:26.06Z</time></trkpt><trkpt lat="42.3246652" lon="-7.3459872"><ele>791.0</ele><time>2026-04-25T15:41:27.055Z</time></trkpt><trkpt lat="42.3245846" lon="-7.3460517"><ele>791.0000000000001</ele><time>2026-04-25T15:41:28.057Z</time></trkpt><trkpt lat="42.3245253" lon="-7.3461214"><ele>791.0</ele><time>2026-04-25T15:41:29.049Z</time></trkpt><trkpt lat="42.3244937" lon="-7.3462027"><ele>791.0</ele><time>2026-04-25T15:41:30.054Z</time></trkpt><trkpt lat="42.3244785" lon="-7.346304"><ele>791.0</ele><time>2026-04-25T15:41:31.055Z</time></trkpt><trkpt lat="42.3244774" lon="-7.3464257"><ele>791.0000000000001</ele><time>2026-04-25T15:41:32.063Z</time></trkpt><trkpt lat="42.3244794" lon="-7.346573"><ele>791.0</ele><time>2026-04-25T15:41:33.057Z</time></trkpt><trkpt lat="42.3244824" lon="-7.3467394"><ele>792.5</ele><time>2026-04-25T15:41:34.049Z</time></trkpt><trkpt lat="42.3244968" lon="-7.34692"><ele>794.0</ele><time>2026-04-25T15:41:35.053Z</time></trkpt><trkpt lat="42.3245201" lon="-7.347104"><ele>795.5</ele><time>2026-04-25T15:41:36.05Z</time></trkpt><trkpt lat="42.324538" lon="-7.3472625"><ele>797.0</ele><time>2026-04-25T15:41:37.05Z</time></trkpt><trkpt lat="42.3245366" lon="-7.3474063"><ele>798.0</ele><time>2026-04-25T15:41:38.053Z</time></trkpt><trkpt lat="42.3245118" lon="-7.3475318"><ele>799.0</ele><time>2026-04-25T15:41:39.059Z</time></trkpt><trkpt lat="42.3244865" lon="-7.3476564"><ele>800.0</ele><time>2026-04-25T15:41:40.054Z</time></trkpt><trkpt lat="42.3244487" lon="-7.3477999"><ele>801.0</ele><time>2026-04-25T15:41:41.056Z</time></trkpt><trkpt lat="42.3244292" lon="-7.3479543"><ele>802.0</ele><time>2026-04-25T15:41:42.06Z</time></trkpt><trkpt lat="42.3244085" lon="-7.3481192"><ele>804.75</ele><time>2026-04-25T15:41:43.061Z</time></trkpt><trkpt lat="42.3244057" lon="-7.3483054"><ele>807.5</ele><time>2026-04-25T15:41:44.064Z</time></trkpt><trkpt lat="42.3244023" lon="-7.3484742"><ele>810.25</ele><time>2026-04-25T15:41:45.051Z</time></trkpt><trkpt lat="42.324398" lon="-7.3486197"><ele>813.0</ele><time>2026-04-25T15:41:46.059Z</time></trkpt><trkpt lat="42.3243792" lon="-7.3487561"><ele>816.2</ele><time>2026-04-25T15:41:47.059Z</time></trkpt><trkpt lat="42.324353" lon="-7.3488974"><ele>819.4</ele><time>2026-04-25T15:41:48.067Z</time></trkpt><trkpt lat="42.3243323" lon="-7.3490226"><ele>822.6</ele><time>2026-04-25T15:41:49.055Z</time></trkpt><trkpt lat="42.3243077" lon="-7.3491462"><ele>825.8000000000001</ele><time>2026-04-25T15:41:50.054Z</time></trkpt><trkpt lat="42.3242663" lon="-7.3492626"><ele>829.0</ele><time>2026-04-25T15:41:51.059Z</time></trkpt><trkpt lat="42.324218" lon="-7.3493697"><ele>829.0</ele><time>2026-04-25T15:41:52.059Z</time></trkpt><trkpt lat="42.3241427" lon="-7.3494263"><ele>829.0</ele><time>2026-04-25T15:41:53.059Z</time></trkpt><trkpt lat="42.3240751" lon="-7.3494636"><ele>829.0</ele><time>2026-04-25T15:41:54.052Z</time></trkpt><trkpt lat="42.3239785" lon="-7.3494846"><ele>829.0</ele><time>2026-04-25T15:41:55.06Z</time></trkpt><trkpt lat="42.323867" lon="-7.3494944"><ele>829.0</ele><time>2026-04-25T15:41:56.052Z</time></trkpt><trkpt lat="42.3237542" lon="-7.3495157"><ele>826.5</ele><time>2026-04-25T15:41:57.058Z</time></trkpt><trkpt lat="42.3236451" lon="-7.349581"><ele>824.0</ele><time>2026-04-25T15:41:58.055Z</time></trkpt><trkpt lat="42.323511" lon="-7.3496643"><ele>821.5</ele><time>2026-04-25T15:41:59.048Z</time></trkpt><trkpt lat="42.3233813" lon="-7.3497233"><ele>819.0</ele><time>2026-04-25T15:42:00.053Z</time></trkpt><trkpt lat="42.323252" lon="-7.3497713"><ele>822.8000000000001</ele><time>2026-04-25T15:42:01.048Z</time></trkpt><trkpt lat="42.3231329" lon="-7.3498124"><ele>826.6</ele><time>2026-04-25T15:42:02.054Z</time></trkpt><trkpt lat="42.3230179" lon="-7.3498477"><ele>830.4</ele><time>2026-04-25T15:42:03.055Z</time></trkpt><trkpt lat="42.3229205" lon="-7.3498842"><ele>834.2</ele><time>2026-04-25T15:42:04.055Z</time></trkpt><trkpt lat="42.3228306" lon="-7.3499042"><ele>838.0</ele><time>2026-04-25T15:42:05.056Z</time></trkpt><trkpt lat="42.3227447" lon="-7.3499181"><ele>837.9999999999999</ele><time>2026-04-25T15:42:06.058Z</time></trkpt><trkpt lat="42.3226593" lon="-7.3499205"><ele>838.0</ele><time>2026-04-25T15:42:07.06Z</time></trkpt><trkpt lat="42.3225932" lon="-7.349946"><ele>838.0</ele><time>2026-04-25T15:42:08.049Z</time></trkpt><trkpt lat="42.3224868" lon="-7.3500206"><ele>838.0</ele><time>2026-04-25T15:42:10.054Z</time></trkpt><trkpt lat="42.322432" lon="-7.3500784"><ele>837.9999999999999</ele><time>2026-04-25T15:42:11.058Z</time></trkpt><trkpt lat="42.3223754" lon="-7.3501466"><ele>838.0</ele><time>2026-04-25T15:42:12.048Z</time></trkpt><trkpt lat="42.3223053" lon="-7.3502151"><ele>837.9999999999999</ele><time>2026-04-25T15:42:13.061Z</time></trkpt><trkpt lat="42.3222443" lon="-7.3502845"><ele>838.0</ele><time>2026-04-25T15:42:14.055Z</time></trkpt><trkpt lat="42.3221963" lon="-7.3503444"><ele>838.0</ele><time>2026-04-25T15:42:15.055Z</time></trkpt><trkpt lat="42.3221137" lon="-7.3504292"><ele>838.0</ele><time>2026-04-25T15:42:17.061Z</time></trkpt><trkpt lat="42.3220519" lon="-7.3504951"><ele>837.9999999999999</ele><time>2026-04-25T15:42:19.058Z</time></trkpt><trkpt lat="42.3219957" lon="-7.3505555"><ele>838.0</ele><time>2026-04-25T15:42:21.062Z</time></trkpt><trkpt lat="42.3219388" lon="-7.3506086"><ele>837.3333333333333</ele><time>2026-04-25T15:42:23.051Z</time></trkpt><trkpt lat="42.3218903" lon="-7.35067"><ele>836.6666666666666</ele><time>2026-04-25T15:42:47.059Z</time></trkpt><trkpt lat="42.3218069" lon="-7.3507574"><ele>836.0</ele><time>2026-04-25T15:42:49.051Z</time></trkpt><trkpt lat="42.3217484" lon="-7.3508615"><ele>835.3333333333333</ele><time>2026-04-25T15:42:51.061Z</time></trkpt><trkpt lat="42.3217259" lon="-7.3509479"><ele>834.6666666666666</ele><time>2026-04-25T15:42:53.062Z</time></trkpt><trkpt lat="42.3217177" lon="-7.3510479"><ele>834.0</ele><time>2026-04-25T15:42:55.069Z</time></trkpt><trkpt lat="42.3217223" lon="-7.3511539"><ele>834.0</ele><time>2026-04-25T15:42:57.054Z</time></trkpt><trkpt lat="42.3217312" lon="-7.3512676"><ele>834.0</ele><time>2026-04-25T15:42:59.057Z</time></trkpt><trkpt lat="42.3217458" lon="-7.351385"><ele>834.0</ele><time>2026-04-25T15:43:01.056Z</time></trkpt><trkpt lat="42.3217553" lon="-7.3514927"><ele>834.0</ele><time>2026-04-25T15:43:03.062Z</time></trkpt><trkpt lat="42.3217455" lon="-7.3515895"><ele>834.0</ele><time>2026-04-25T15:43:05.062Z</time></trkpt><trkpt lat="42.3217088" lon="-7.35169"><ele>834.0</ele><time>2026-04-25T15:43:07.064Z</time></trkpt><trkpt lat="42.3216975" lon="-7.3518616"><ele>834.2</ele><time>2026-04-25T15:43:09.057Z</time></trkpt><trkpt lat="42.3217033" lon="-7.3519885"><ele>834.4000000000001</ele><time>2026-04-25T15:43:10.056Z</time></trkpt><trkpt lat="42.3217094" lon="-7.3521441"><ele>834.6</ele><time>2026-04-25T15:43:11.057Z</time></trkpt><trkpt lat="42.3217057" lon="-7.3522903"><ele>834.8</ele><time>2026-04-25T15:43:12.058Z</time></trkpt><trkpt lat="42.3216981" lon="-7.3524403"><ele>835.0</ele><time>2026-04-25T15:43:13.05Z</time></trkpt><trkpt lat="42.3216527" lon="-7.3526141"><ele>836.0</ele><time>2026-04-25T15:43:14.057Z</time></trkpt><trkpt lat="42.3215986" lon="-7.352822"><ele>837.0</ele><time>2026-04-25T15:43:15.053Z</time></trkpt><trkpt lat="42.3215588" lon="-7.3530049"><ele>838.0</ele><time>2026-04-25T15:43:16.053Z</time></trkpt><trkpt lat="42.3215199" lon="-7.3531779"><ele>839.0</ele><time>2026-04-25T15:43:17.058Z</time></trkpt><trkpt lat="42.3214834" lon="-7.3533313"><ele>841.0</ele><time>2026-04-25T15:43:18.052Z</time></trkpt><trkpt lat="42.3214441" lon="-7.3534723"><ele>843.0</ele><time>2026-04-25T15:43:19.063Z</time></trkpt><trkpt lat="42.3214113" lon="-7.3536202"><ele>845.0</ele><time>2026-04-25T15:43:20.054Z</time></trkpt><trkpt lat="42.3213913" lon="-7.3537688"><ele>847.0</ele><time>2026-04-25T15:43:21.055Z</time></trkpt><trkpt lat="42.3213718" lon="-7.3539058"><ele>849.0</ele><time>2026-04-25T15:43:22.051Z</time></trkpt><trkpt lat="42.3213503" lon="-7.3540316"><ele>843.4000000000001</ele><time>2026-04-25T15:43:23.054Z</time></trkpt><trkpt lat="42.3213024" lon="-7.3541321"><ele>837.8</ele><time>2026-04-25T15:43:24.061Z</time></trkpt><trkpt lat="42.3212333" lon="-7.354227"><ele>832.2</ele><time>2026-04-25T15:43:25.053Z</time></trkpt><trkpt lat="42.3211684" lon="-7.3543481"><ele>826.5999999999999</ele><time>2026-04-25T15:43:26.061Z</time></trkpt><trkpt lat="42.3211152" lon="-7.3544963"><ele>821.0</ele><time>2026-04-25T15:43:27.056Z</time></trkpt><trkpt lat="42.3210775" lon="-7.354651"><ele>823.75</ele><time>2026-04-25T15:43:28.046Z</time></trkpt><trkpt lat="42.3210507" lon="-7.3548199"><ele>826.5</ele><time>2026-04-25T15:43:29.054Z</time></trkpt><trkpt lat="42.3210256" lon="-7.3549872"><ele>829.25</ele><time>2026-04-25T15:43:30.055Z</time></trkpt><trkpt lat="42.3209981" lon="-7.3551264"><ele>832.0</ele><time>2026-04-25T15:43:31.048Z</time></trkpt><trkpt lat="42.3209756" lon="-7.3552626"><ele>832.0</ele><time>2026-04-25T15:43:32.053Z</time></trkpt><trkpt lat="42.3209367" lon="-7.3553844"><ele>832.0</ele><time>2026-04-25T15:43:33.065Z</time></trkpt><trkpt lat="42.3208716" lon="-7.3554931"><ele>832.0</ele><time>2026-04-25T15:43:34.047Z</time></trkpt><trkpt lat="42.3207809" lon="-7.3555859"><ele>832.0</ele><time>2026-04-25T15:43:35.052Z</time></trkpt><trkpt lat="42.3206976" lon="-7.3557003"><ele>832.0</ele><time>2026-04-25T15:43:36.059Z</time></trkpt><trkpt lat="42.3206058" lon="-7.3558119"><ele>830.6</ele><time>2026-04-25T15:43:37.045Z</time></trkpt><trkpt lat="42.3205197" lon="-7.355892"><ele>829.2</ele><time>2026-04-25T15:43:38.058Z</time></trkpt><trkpt lat="42.3204132" lon="-7.3559488"><ele>827.8</ele><time>2026-04-25T15:43:39.053Z</time></trkpt><trkpt lat="42.3203275" lon="-7.3560131"><ele>826.4</ele><time>2026-04-25T15:43:40.068Z</time></trkpt><trkpt lat="42.3202692" lon="-7.3560892"><ele>825.0</ele><time>2026-04-25T15:43:41.056Z</time></trkpt><trkpt lat="42.3202091" lon="-7.3561758"><ele>825.0</ele><time>2026-04-25T15:43:42.067Z</time></trkpt><trkpt lat="42.3201689" lon="-7.3563127"><ele>825.0</ele><time>2026-04-25T15:43:43.057Z</time></trkpt><trkpt lat="42.3201389" lon="-7.3564951"><ele>825.0</ele><time>2026-04-25T15:43:44.048Z</time></trkpt><trkpt lat="42.3201131" lon="-7.3566599"><ele>825.0</ele><time>2026-04-25T15:43:45.064Z</time></trkpt><trkpt lat="42.3200926" lon="-7.3568062"><ele>827.25</ele><time>2026-04-25T15:43:46.062Z</time></trkpt><trkpt lat="42.3200487" lon="-7.3569275"><ele>829.5</ele><time>2026-04-25T15:43:47.055Z</time></trkpt><trkpt lat="42.3199651" lon="-7.3570441"><ele>831.75</ele><time>2026-04-25T15:43:48.057Z</time></trkpt><trkpt lat="42.3198813" lon="-7.3571597"><ele>834.0</ele><time>2026-04-25T15:43:49.064Z</time></trkpt><trkpt lat="42.3197917" lon="-7.357257"><ele>832.25</ele><time>2026-04-25T15:43:50.056Z</time></trkpt><trkpt lat="42.3196991" lon="-7.3573753"><ele>830.5</ele><time>2026-04-25T15:43:51.052Z</time></trkpt><trkpt lat="42.3196125" lon="-7.3575005"><ele>828.75</ele><time>2026-04-25T15:43:52.063Z</time></trkpt><trkpt lat="42.3195441" lon="-7.3576208"><ele>827.0</ele><time>2026-04-25T15:43:53.073Z</time></trkpt><trkpt lat="42.3194683" lon="-7.3577655"><ele>827.0</ele><time>2026-04-25T15:43:54.051Z</time></trkpt><trkpt lat="42.3194091" lon="-7.3579231"><ele>827.0</ele><time>2026-04-25T15:43:55.05Z</time></trkpt><trkpt lat="42.3193569" lon="-7.3580653"><ele>827.0</ele><time>2026-04-25T15:43:56.07Z</time></trkpt><trkpt lat="42.3193006" lon="-7.3581665"><ele>827.0</ele><time>2026-04-25T15:43:57.054Z</time></trkpt><trkpt lat="42.3192265" lon="-7.3582515"><ele>827.0</ele><time>2026-04-25T15:43:58.05Z</time></trkpt><trkpt lat="42.3191567" lon="-7.3583246"><ele>827.4000000000001</ele><time>2026-04-25T15:43:59.053Z</time></trkpt><trkpt lat="42.3190592" lon="-7.3583567"><ele>827.8000000000001</ele><time>2026-04-25T15:44:00.059Z</time></trkpt><trkpt lat="42.318962" lon="-7.3583831"><ele>828.2</ele><time>2026-04-25T15:44:01.047Z</time></trkpt><trkpt lat="42.3188714" lon="-7.358449"><ele>828.6</ele><time>2026-04-25T15:44:02.058Z</time></trkpt><trkpt lat="42.3187886" lon="-7.3585353"><ele>829.0</ele><time>2026-04-25T15:44:03.053Z</time></trkpt><trkpt lat="42.318713" lon="-7.3586606"><ele>829.0</ele><time>2026-04-25T15:44:04.055Z</time></trkpt><trkpt lat="42.318653" lon="-7.3588034"><ele>829.0</ele><time>2026-04-25T15:44:05.051Z</time></trkpt><trkpt lat="42.3186173" lon="-7.3589478"><ele>829.0</ele><time>2026-04-25T15:44:06.053Z</time></trkpt><trkpt lat="42.3185837" lon="-7.3590775"><ele>829.0</ele><time>2026-04-25T15:44:07.056Z</time></trkpt><trkpt lat="42.3185582" lon="-7.3591714"><ele>829.0</ele><time>2026-04-25T15:44:08.063Z</time></trkpt><trkpt lat="42.3184739" lon="-7.3592723"><ele>833.0</ele><time>2026-04-25T15:44:10.056Z</time></trkpt><trkpt lat="42.3183886" lon="-7.3592205"><ele>837.0</ele><time>2026-04-25T15:44:11.061Z</time></trkpt><trkpt lat="42.3182869" lon="-7.3591569"><ele>841.0</ele><time>2026-04-25T15:44:12.054Z</time></trkpt><trkpt lat="42.3181741" lon="-7.3590611"><ele>845.0</ele><time>2026-04-25T15:44:13.053Z</time></trkpt><trkpt lat="42.3180726" lon="-7.358953"><ele>843.25</ele><time>2026-04-25T15:44:14.061Z</time></trkpt><trkpt lat="42.3179839" lon="-7.3588288"><ele>841.5</ele><time>2026-04-25T15:44:15.057Z</time></trkpt><trkpt lat="42.317918" lon="-7.358681"><ele>839.75</ele><time>2026-04-25T15:44:16.052Z</time></trkpt><trkpt lat="42.3178504" lon="-7.3585179"><ele>838.0</ele><time>2026-04-25T15:44:17.054Z</time></trkpt><trkpt lat="42.3177964" lon="-7.3583568"><ele>837.9999999999999</ele><time>2026-04-25T15:44:18.057Z</time></trkpt><trkpt lat="42.3177466" lon="-7.3582358"><ele>838.0</ele><time>2026-04-25T15:44:19.049Z</time></trkpt><trkpt lat="42.3177061" lon="-7.3581307"><ele>838.0</ele><time>2026-04-25T15:44:20.056Z</time></trkpt><trkpt lat="42.3176338" lon="-7.3580636"><ele>838.0</ele><time>2026-04-25T15:44:22.05Z</time></trkpt><trkpt lat="42.3175712" lon="-7.3580988"><ele>837.9999999999999</ele><time>2026-04-25T15:44:23.058Z</time></trkpt><trkpt lat="42.317504" lon="-7.3581424"><ele>838.0</ele><time>2026-04-25T15:44:24.066Z</time></trkpt><trkpt lat="42.3174267" lon="-7.3582294"><ele>838.0</ele><time>2026-04-25T15:44:25.069Z</time></trkpt><trkpt lat="42.3173375" lon="-7.3583406"><ele>838.0</ele><time>2026-04-25T15:44:26.06Z</time></trkpt><trkpt lat="42.3172596" lon="-7.3584389"><ele>838.0</ele><time>2026-04-25T15:44:27.064Z</time></trkpt><trkpt lat="42.3171888" lon="-7.3585356"><ele>838.0</ele><time>2026-04-25T15:44:28.053Z</time></trkpt><trkpt lat="42.3171136" lon="-7.3586375"><ele>838.0</ele><time>2026-04-25T15:44:29.063Z</time></trkpt><trkpt lat="42.3170375" lon="-7.3587251"><ele>837.4</ele><time>2026-04-25T15:44:30.054Z</time></trkpt><trkpt lat="42.3169494" lon="-7.3588157"><ele>836.8</ele><time>2026-04-25T15:44:31.059Z</time></trkpt><trkpt lat="42.3168568" lon="-7.3589138"><ele>836.2</ele><time>2026-04-25T15:44:32.064Z</time></trkpt><trkpt lat="42.3167813" lon="-7.3590237"><ele>835.6</ele><time>2026-04-25T15:44:33.06Z</time></trkpt><trkpt lat="42.3167075" lon="-7.3591295"><ele>835.0</ele><time>2026-04-25T15:44:34.055Z</time></trkpt><trkpt lat="42.3166517" lon="-7.3592638"><ele>835.0</ele><time>2026-04-25T15:44:35.061Z</time></trkpt><trkpt lat="42.3165951" lon="-7.3594259"><ele>835.0</ele><time>2026-04-25T15:44:36.066Z</time></trkpt><trkpt lat="42.316533" lon="-7.3595951"><ele>835.0</ele><time>2026-04-25T15:44:37.056Z</time></trkpt><trkpt lat="42.3164656" lon="-7.3597818"><ele>835.0</ele><time>2026-04-25T15:44:38.06Z</time></trkpt><trkpt lat="42.316413" lon="-7.3599548"><ele>831.0</ele><time>2026-04-25T15:44:39.055Z</time></trkpt><trkpt lat="42.3163703" lon="-7.3601161"><ele>827.0</ele><time>2026-04-25T15:44:40.05Z</time></trkpt><trkpt lat="42.3163387" lon="-7.3602634"><ele>823.0</ele><time>2026-04-25T15:44:41.055Z</time></trkpt><trkpt lat="42.3163107" lon="-7.3604082"><ele>819.0</ele><time>2026-04-25T15:44:42.068Z</time></trkpt><trkpt lat="42.316316" lon="-7.360576"><ele>819.0</ele><time>2026-04-25T15:44:43.063Z</time></trkpt><trkpt lat="42.3163243" lon="-7.3607597"><ele>819.0</ele><time>2026-04-25T15:44:44.063Z</time></trkpt><trkpt lat="42.3163276" lon="-7.3609341"><ele>819.0</ele><time>2026-04-25T15:44:45.06Z</time></trkpt><trkpt lat="42.3163364" lon="-7.361108"><ele>819.0</ele><time>2026-04-25T15:44:46.052Z</time></trkpt><trkpt lat="42.316361" lon="-7.3612698"><ele>819.2</ele><time>2026-04-25T15:44:47.056Z</time></trkpt><trkpt lat="42.3163918" lon="-7.3614037"><ele>819.4000000000001</ele><time>2026-04-25T15:44:48.054Z</time></trkpt><trkpt lat="42.3164311" lon="-7.3615138"><ele>819.6</ele><time>2026-04-25T15:44:49.049Z</time></trkpt><trkpt lat="42.3164571" lon="-7.3616227"><ele>819.8</ele><time>2026-04-25T15:44:50.057Z</time></trkpt><trkpt lat="42.3165056" lon="-7.361718"><ele>820.0</ele><time>2026-04-25T15:44:51.055Z</time></trkpt><trkpt lat="42.316575" lon="-7.3618191"><ele>824.8</ele><time>2026-04-25T15:44:52.055Z</time></trkpt><trkpt lat="42.3166371" lon="-7.3619499"><ele>829.6</ele><time>2026-04-25T15:44:53.061Z</time></trkpt><trkpt lat="42.3166732" lon="-7.3620735"><ele>834.4000000000001</ele><time>2026-04-25T15:44:54.061Z</time></trkpt><trkpt lat="42.3167046" lon="-7.3621712"><ele>839.2</ele><time>2026-04-25T15:44:55.053Z</time></trkpt><trkpt lat="42.3167302" lon="-7.3623194"><ele>844.0</ele><time>2026-04-25T15:44:57.062Z</time></trkpt><trkpt lat="42.3165945" lon="-7.3623831"><ele>845.2</ele><time>2026-04-25T15:44:59.06Z</time></trkpt><trkpt lat="42.3164997" lon="-7.3623945"><ele>846.4000000000001</ele><time>2026-04-25T15:45:00.051Z</time></trkpt><trkpt lat="42.3163963" lon="-7.3623823"><ele>847.6</ele><time>2026-04-25T15:45:01.055Z</time></trkpt><trkpt lat="42.316301" lon="-7.3623298"><ele>848.8</ele><time>2026-04-25T15:45:02.057Z</time></trkpt><trkpt lat="42.3161974" lon="-7.3622865"><ele>850.0</ele><time>2026-04-25T15:45:03.053Z</time></trkpt><trkpt lat="42.3161208" lon="-7.362283"><ele>847.4</ele><time>2026-04-25T15:45:04.053Z</time></trkpt><trkpt lat="42.3160406" lon="-7.3623281"><ele>844.8</ele><time>2026-04-25T15:45:05.057Z</time></trkpt><trkpt lat="42.3159526" lon="-7.3623993"><ele>842.2</ele><time>2026-04-25T15:45:06.06Z</time></trkpt><trkpt lat="42.3158754" lon="-7.3624786"><ele>839.6</ele><time>2026-04-25T15:45:07.057Z</time></trkpt><trkpt lat="42.3158018" lon="-7.3625742"><ele>837.0</ele><time>2026-04-25T15:45:08.061Z</time></trkpt><trkpt lat="42.3157325" lon="-7.3626655"><ele>837.0</ele><time>2026-04-25T15:45:09.056Z</time></trkpt><trkpt lat="42.31565" lon="-7.3627201"><ele>837.0</ele><time>2026-04-25T15:45:10.055Z</time></trkpt><trkpt lat="42.3155298" lon="-7.3627445"><ele>837.0</ele><time>2026-04-25T15:45:11.062Z</time></trkpt><trkpt lat="42.3154002" lon="-7.3627672"><ele>837.0</ele><time>2026-04-25T15:45:12.06Z</time></trkpt><trkpt lat="42.3152877" lon="-7.3627905"><ele>837.4000000000001</ele><time>2026-04-25T15:45:13.057Z</time></trkpt><trkpt lat="42.3152033" lon="-7.3628241"><ele>837.8000000000001</ele><time>2026-04-25T15:45:14.057Z</time></trkpt><trkpt lat="42.3151217" lon="-7.3628931"><ele>838.2</ele><time>2026-04-25T15:45:15.077Z</time></trkpt><trkpt lat="42.315044" lon="-7.3629916"><ele>838.6</ele><time>2026-04-25T15:45:16.059Z</time></trkpt><trkpt lat="42.314987" lon="-7.3631043"><ele>839.0</ele><time>2026-04-25T15:45:17.057Z</time></trkpt><trkpt lat="42.3149439" lon="-7.3632404"><ele>839.0</ele><time>2026-04-25T15:45:18.059Z</time></trkpt><trkpt lat="42.314904" lon="-7.3633963"><ele>839.0</ele><time>2026-04-25T15:45:19.061Z</time></trkpt><trkpt lat="42.3148667" lon="-7.3635625"><ele>839.0</ele><time>2026-04-25T15:45:20.057Z</time></trkpt><trkpt lat="42.3148364" lon="-7.3637101"><ele>839.0</ele><time>2026-04-25T15:45:21.068Z</time></trkpt><trkpt lat="42.3148075" lon="-7.3638067"><ele>839.0</ele><time>2026-04-25T15:45:22.065Z</time></trkpt><trkpt lat="42.3147542" lon="-7.3638659"><ele>838.5</ele><time>2026-04-25T15:45:23.062Z</time></trkpt><trkpt lat="42.3146553" lon="-7.3639173"><ele>838.0</ele><time>2026-04-25T15:45:24.062Z</time></trkpt><trkpt lat="42.3145399" lon="-7.363984"><ele>837.5</ele><time>2026-04-25T15:45:25.059Z</time></trkpt><trkpt lat="42.3144166" lon="-7.3640583"><ele>837.0</ele><time>2026-04-25T15:45:26.056Z</time></trkpt><trkpt lat="42.3143004" lon="-7.3641518"><ele>837.0</ele><time>2026-04-25T15:45:27.064Z</time></trkpt><trkpt lat="42.3141914" lon="-7.3642511"><ele>837.0</ele><time>2026-04-25T15:45:28.068Z</time></trkpt><trkpt lat="42.3140931" lon="-7.364331"><ele>837.0</ele><time>2026-04-25T15:45:29.061Z</time></trkpt><trkpt lat="42.3140004" lon="-7.3643955"><ele>837.0</ele><time>2026-04-25T15:45:30.073Z</time></trkpt><trkpt lat="42.3139145" lon="-7.3644537"><ele>837.0</ele><time>2026-04-25T15:45:31.057Z</time></trkpt><trkpt lat="42.3138308" lon="-7.364554"><ele>837.5</ele><time>2026-04-25T15:45:32.066Z</time></trkpt><trkpt lat="42.3137353" lon="-7.3646781"><ele>838.0</ele><time>2026-04-25T15:45:33.05Z</time></trkpt><trkpt lat="42.3136326" lon="-7.3648125"><ele>838.5</ele><time>2026-04-25T15:45:34.061Z</time></trkpt><trkpt lat="42.3135364" lon="-7.3649434"><ele>839.0</ele><time>2026-04-25T15:45:35.063Z</time></trkpt><trkpt lat="42.3134576" lon="-7.3650649"><ele>839.0</ele><time>2026-04-25T15:45:36.059Z</time></trkpt><trkpt lat="42.3133898" lon="-7.3651725"><ele>839.0</ele><time>2026-04-25T15:45:37.058Z</time></trkpt><trkpt lat="42.3133381" lon="-7.3652611"><ele>839.0</ele><time>2026-04-25T15:45:38.053Z</time></trkpt><trkpt lat="42.3132782" lon="-7.3653322"><ele>839.0</ele><time>2026-04-25T15:45:40.054Z</time></trkpt><trkpt lat="42.3131713" lon="-7.3652242"><ele>839.0</ele><time>2026-04-25T15:45:42.057Z</time></trkpt><trkpt lat="42.3131068" lon="-7.3651671"><ele>839.4000000000001</ele><time>2026-04-25T15:45:43.059Z</time></trkpt><trkpt lat="42.3130418" lon="-7.3651169"><ele>839.8</ele><time>2026-04-25T15:45:44.052Z</time></trkpt><trkpt lat="42.3129605" lon="-7.3651052"><ele>840.2</ele><time>2026-04-25T15:45:45.054Z</time></trkpt><trkpt lat="42.3128462" lon="-7.3651153"><ele>840.5999999999999</ele><time>2026-04-25T15:45:46.059Z</time></trkpt><trkpt lat="42.3127128" lon="-7.3651171"><ele>841.0</ele><time>2026-04-25T15:45:47.053Z</time></trkpt><trkpt lat="42.3125672" lon="-7.3651157"><ele>841.0</ele><time>2026-04-25T15:45:48.054Z</time></trkpt><trkpt lat="42.3124389" lon="-7.3651067"><ele>841.0</ele><time>2026-04-25T15:45:49.056Z</time></trkpt><trkpt lat="42.3123388" lon="-7.3650946"><ele>841.0</ele><time>2026-04-25T15:45:50.05Z</time></trkpt><trkpt lat="42.3122599" lon="-7.3650636"><ele>841.0</ele><time>2026-04-25T15:45:51.052Z</time></trkpt><trkpt lat="42.3122051" lon="-7.3650147"><ele>841.0</ele><time>2026-04-25T15:45:52.077Z</time></trkpt><trkpt lat="42.3121467" lon="-7.3648811"><ele>842.6666666666666</ele><time>2026-04-25T15:45:54.059Z</time></trkpt><trkpt lat="42.3121621" lon="-7.3647771"><ele>844.3333333333333</ele><time>2026-04-25T15:45:55.045Z</time></trkpt><trkpt lat="42.3121895" lon="-7.3646335"><ele>846.0</ele><time>2026-04-25T15:45:56.055Z</time></trkpt><trkpt lat="42.3122348" lon="-7.3645033"><ele>847.6666666666667</ele><time>2026-04-25T15:45:57.054Z</time></trkpt><trkpt lat="42.3122504" lon="-7.3643986"><ele>849.3333333333334</ele><time>2026-04-25T15:45:58.055Z</time></trkpt><trkpt lat="42.3122466" lon="-7.3642997"><ele>851.0</ele><time>2026-04-25T15:45:59.05Z</time></trkpt><trkpt lat="42.3122152" lon="-7.3642208"><ele>851.0</ele><time>2026-04-25T15:46:00.051Z</time></trkpt><trkpt lat="42.3121441" lon="-7.36416"><ele>851.0</ele><time>2026-04-25T15:46:01.06Z</time></trkpt><trkpt lat="42.3120541" lon="-7.3640773"><ele>851.0</ele><time>2026-04-25T15:46:02.053Z</time></trkpt><trkpt lat="42.311969" lon="-7.3639761"><ele>851.0</ele><time>2026-04-25T15:46:03.059Z</time></trkpt><trkpt lat="42.3119167" lon="-7.3638406"><ele>851.0</ele><time>2026-04-25T15:46:04.049Z</time></trkpt><trkpt lat="42.3118722" lon="-7.3637133"><ele>848.3333333333334</ele><time>2026-04-25T15:46:05.06Z</time></trkpt><trkpt lat="42.3118264" lon="-7.3636176"><ele>845.6666666666667</ele><time>2026-04-25T15:46:06.057Z</time></trkpt><trkpt lat="42.3117783" lon="-7.3635448"><ele>843.0</ele><time>2026-04-25T15:46:07.059Z</time></trkpt><trkpt lat="42.3117091" lon="-7.363481"><ele>840.3333333333333</ele><time>2026-04-25T15:46:08.071Z</time></trkpt><trkpt lat="42.3116264" lon="-7.3634477"><ele>837.6666666666666</ele><time>2026-04-25T15:46:09.061Z</time></trkpt><trkpt lat="42.3115103" lon="-7.3634565"><ele>835.0</ele><time>2026-04-25T15:46:10.063Z</time></trkpt><trkpt lat="42.3113797" lon="-7.363479"><ele>834.5</ele><time>2026-04-25T15:46:11.066Z</time></trkpt><trkpt lat="42.311248" lon="-7.3635174"><ele>834.0</ele><time>2026-04-25T15:46:12.062Z</time></trkpt><trkpt lat="42.3111117" lon="-7.3635667"><ele>833.5</ele><time>2026-04-25T15:46:13.054Z</time></trkpt><trkpt lat="42.3109579" lon="-7.3636266"><ele>833.0</ele><time>2026-04-25T15:46:14.054Z</time></trkpt><trkpt lat="42.3107999" lon="-7.3636637"><ele>833.0</ele><time>2026-04-25T15:46:15.051Z</time></trkpt><trkpt lat="42.3106718" lon="-7.3636691"><ele>833.0</ele><time>2026-04-25T15:46:16.05Z</time></trkpt><trkpt lat="42.3105528" lon="-7.3636716"><ele>833.0</ele><time>2026-04-25T15:46:17.057Z</time></trkpt><trkpt lat="42.3104479" lon="-7.36365"><ele>833.0</ele><time>2026-04-25T15:46:18.053Z</time></trkpt><trkpt lat="42.3103293" lon="-7.363614"><ele>832.75</ele><time>2026-04-25T15:46:19.052Z</time></trkpt><trkpt lat="42.3101895" lon="-7.3635944"><ele>832.5</ele><time>2026-04-25T15:46:20.055Z</time></trkpt><trkpt lat="42.3100559" lon="-7.3635834"><ele>832.25</ele><time>2026-04-25T15:46:21.057Z</time></trkpt><trkpt lat="42.3099277" lon="-7.3635764"><ele>832.0</ele><time>2026-04-25T15:46:22.058Z</time></trkpt><trkpt lat="42.3097977" lon="-7.3635781"><ele>830.4000000000001</ele><time>2026-04-25T15:46:23.06Z</time></trkpt><trkpt lat="42.3096807" lon="-7.3635787"><ele>828.8000000000001</ele><time>2026-04-25T15:46:24.063Z</time></trkpt><trkpt lat="42.3095781" lon="-7.3636076"><ele>827.2</ele><time>2026-04-25T15:46:25.055Z</time></trkpt><trkpt lat="42.3094851" lon="-7.3636494"><ele>825.6</ele><time>2026-04-25T15:46:26.06Z</time></trkpt><trkpt lat="42.3093803" lon="-7.3637161"><ele>824.0</ele><time>2026-04-25T15:46:27.063Z</time></trkpt><trkpt lat="42.3092635" lon="-7.3637931"><ele>826.0</ele><time>2026-04-25T15:46:28.055Z</time></trkpt><trkpt lat="42.3091422" lon="-7.3638786"><ele>828.0</ele><time>2026-04-25T15:46:29.054Z</time></trkpt><trkpt lat="42.3090373" lon="-7.3639514"><ele>830.0</ele><time>2026-04-25T15:46:30.085Z</time></trkpt><trkpt lat="42.3089235" lon="-7.364017"><ele>832.0</ele><time>2026-04-25T15:46:31.051Z</time></trkpt><trkpt lat="42.3088104" lon="-7.364109"><ele>832.0</ele><time>2026-04-25T15:46:32.061Z</time></trkpt><trkpt lat="42.3087007" lon="-7.3642101"><ele>832.0</ele><time>2026-04-25T15:46:33.056Z</time></trkpt><trkpt lat="42.3085826" lon="-7.3643083"><ele>832.0</ele><time>2026-04-25T15:46:34.062Z</time></trkpt><trkpt lat="42.3084665" lon="-7.3644085"><ele>832.0</ele><time>2026-04-25T15:46:35.056Z</time></trkpt><trkpt lat="42.308341" lon="-7.3644949"><ele>832.0</ele><time>2026-04-25T15:46:36.061Z</time></trkpt><trkpt lat="42.3082045" lon="-7.3645743"><ele>832.0</ele><time>2026-04-25T15:46:37.05Z</time></trkpt><trkpt lat="42.3080753" lon="-7.3646485"><ele>832.0</ele><time>2026-04-25T15:46:38.063Z</time></trkpt><trkpt lat="42.3079548" lon="-7.3647174"><ele>832.0</ele><time>2026-04-25T15:46:39.053Z</time></trkpt><trkpt lat="42.3078535" lon="-7.3647805"><ele>832.1666666666666</ele><time>2026-04-25T15:46:40.061Z</time></trkpt><trkpt lat="42.3077654" lon="-7.3648337"><ele>832.3333333333333</ele><time>2026-04-25T15:46:41.061Z</time></trkpt><trkpt lat="42.3076942" lon="-7.3649115"><ele>832.5</ele><time>2026-04-25T15:46:42.06Z</time></trkpt><trkpt lat="42.3076302" lon="-7.3650011"><ele>832.6666666666667</ele><time>2026-04-25T15:46:43.055Z</time></trkpt><trkpt lat="42.3075758" lon="-7.3650849"><ele>832.8333333333334</ele><time>2026-04-25T15:46:44.056Z</time></trkpt><trkpt lat="42.3075489" lon="-7.365178"><ele>833.0</ele><time>2026-04-25T15:46:45.061Z</time></trkpt><trkpt lat="42.3075474" lon="-7.3652822"><ele>833.0</ele><time>2026-04-25T15:46:46.057Z</time></trkpt><trkpt lat="42.3075782" lon="-7.3654018"><ele>833.0</ele><time>2026-04-25T15:46:47.061Z</time></trkpt><trkpt lat="42.3076168" lon="-7.3655352"><ele>833.0</ele><time>2026-04-25T15:46:48.056Z</time></trkpt><trkpt lat="42.3076712" lon="-7.3656899"><ele>833.0</ele><time>2026-04-25T15:46:49.054Z</time></trkpt><trkpt lat="42.3077289" lon="-7.3658499"><ele>832.8</ele><time>2026-04-25T15:46:50.06Z</time></trkpt><trkpt lat="42.3077759" lon="-7.3659822"><ele>832.5999999999999</ele><time>2026-04-25T15:46:51.061Z</time></trkpt><trkpt lat="42.3078047" lon="-7.3660757"><ele>832.4000000000001</ele><time>2026-04-25T15:46:52.056Z</time></trkpt><trkpt lat="42.3077934" lon="-7.366218"><ele>832.2</ele><time>2026-04-25T15:46:54.048Z</time></trkpt><trkpt lat="42.3077602" lon="-7.3662957"><ele>832.0</ele><time>2026-04-25T15:46:55.058Z</time></trkpt><trkpt lat="42.3076808" lon="-7.3663976"><ele>832.6666666666666</ele><time>2026-04-25T15:46:56.053Z</time></trkpt><trkpt lat="42.3076122" lon="-7.366495"><ele>833.3333333333333</ele><time>2026-04-25T15:46:57.059Z</time></trkpt><trkpt lat="42.3075561" lon="-7.3665827"><ele>834.0</ele><time>2026-04-25T15:46:58.059Z</time></trkpt><trkpt lat="42.3075424" lon="-7.3666871"><ele>834.6666666666667</ele><time>2026-04-25T15:46:59.054Z</time></trkpt><trkpt lat="42.3075243" lon="-7.3667912"><ele>835.3333333333334</ele><time>2026-04-25T15:47:00.054Z</time></trkpt><trkpt lat="42.3075263" lon="-7.366918"><ele>836.0</ele><time>2026-04-25T15:47:01.052Z</time></trkpt><trkpt lat="42.3075012" lon="-7.3670727"><ele>836.0</ele><time>2026-04-25T15:47:03.061Z</time></trkpt><trkpt lat="42.3074512" lon="-7.3671314"><ele>836.0</ele><time>2026-04-25T15:47:04.054Z</time></trkpt><trkpt lat="42.3073664" lon="-7.3671648"><ele>836.0</ele><time>2026-04-25T15:47:05.062Z</time></trkpt><trkpt lat="42.3072126" lon="-7.3672294"><ele>836.0</ele><time>2026-04-25T15:47:06.059Z</time></trkpt><trkpt lat="42.3070893" lon="-7.3672787"><ele>836.0</ele><time>2026-04-25T15:47:07.053Z</time></trkpt><trkpt lat="42.3069703" lon="-7.3673302"><ele>838.0</ele><time>2026-04-25T15:47:08.085Z</time></trkpt><trkpt lat="42.306841" lon="-7.3673931"><ele>840.0</ele><time>2026-04-25T15:47:09.053Z</time></trkpt><trkpt lat="42.3067021" lon="-7.367486"><ele>842.0</ele><time>2026-04-25T15:47:10.056Z</time></trkpt><trkpt lat="42.3065674" lon="-7.3675538"><ele>844.0</ele><time>2026-04-25T15:47:11.067Z</time></trkpt><trkpt lat="42.3064452" lon="-7.3676071"><ele>838.5</ele><time>2026-04-25T15:47:12.063Z</time></trkpt><trkpt lat="42.3063275" lon="-7.3676659"><ele>833.0</ele><time>2026-04-25T15:47:13.05Z</time></trkpt><trkpt lat="42.3062067" lon="-7.3677494"><ele>827.5</ele><time>2026-04-25T15:47:14.062Z</time></trkpt><trkpt lat="42.3060882" lon="-7.3678364"><ele>822.0</ele><time>2026-04-25T15:47:15.065Z</time></trkpt><trkpt lat="42.3059696" lon="-7.3679254"><ele>826.5</ele><time>2026-04-25T15:47:16.062Z</time></trkpt><trkpt lat="42.3058393" lon="-7.3680278"><ele>831.0</ele><time>2026-04-25T15:47:17.058Z</time></trkpt><trkpt lat="42.3057134" lon="-7.368128"><ele>835.5</ele><time>2026-04-25T15:47:18.056Z</time></trkpt><trkpt lat="42.3055939" lon="-7.3682142"><ele>840.0</ele><time>2026-04-25T15:47:19.063Z</time></trkpt><trkpt lat="42.3054605" lon="-7.368265"><ele>840.0</ele><time>2026-04-25T15:47:20.059Z</time></trkpt><trkpt lat="42.3053083" lon="-7.3683073"><ele>840.0</ele><time>2026-04-25T15:47:21.059Z</time></trkpt><trkpt lat="42.3051643" lon="-7.3683382"><ele>840.0</ele><time>2026-04-25T15:47:22.05Z</time></trkpt><trkpt lat="42.3050284" lon="-7.3683629"><ele>840.0</ele><time>2026-04-25T15:47:23.049Z</time></trkpt><trkpt lat="42.3049102" lon="-7.3683825"><ele>840.0</ele><time>2026-04-25T15:47:24.053Z</time></trkpt><trkpt lat="42.304806" lon="-7.3683973"><ele>840.0</ele><time>2026-04-25T15:47:25.059Z</time></trkpt><trkpt lat="42.3047232" lon="-7.3684383"><ele>840.0</ele><time>2026-04-25T15:47:26.065Z</time></trkpt><trkpt lat="42.3046363" lon="-7.3684962"><ele>840.0</ele><time>2026-04-25T15:47:27.065Z</time></trkpt><trkpt lat="42.3045512" lon="-7.3685558"><ele>840.0</ele><time>2026-04-25T15:47:28.059Z</time></trkpt><trkpt lat="42.3044563" lon="-7.3686495"><ele>840.0</ele><time>2026-04-25T15:47:29.065Z</time></trkpt><trkpt lat="42.3043647" lon="-7.3687477"><ele>840.0</ele><time>2026-04-25T15:47:30.058Z</time></trkpt><trkpt lat="42.30428" lon="-7.3688685"><ele>840.0</ele><time>2026-04-25T15:47:31.055Z</time></trkpt><trkpt lat="42.304194" lon="-7.3689824"><ele>840.0</ele><time>2026-04-25T15:47:32.059Z</time></trkpt><trkpt lat="42.3041255" lon="-7.3690944"><ele>840.0</ele><time>2026-04-25T15:47:33.059Z</time></trkpt><trkpt lat="42.304081" lon="-7.36921"><ele>840.0</ele><time>2026-04-25T15:47:34.05Z</time></trkpt><trkpt lat="42.3040519" lon="-7.3693147"><ele>840.0</ele><time>2026-04-25T15:47:35.053Z</time></trkpt><trkpt lat="42.3040538" lon="-7.3694711"><ele>840.0</ele><time>2026-04-25T15:47:37.067Z</time></trkpt><trkpt lat="42.3040905" lon="-7.3696392"><ele>840.0</ele><time>2026-04-25T15:47:39.062Z</time></trkpt><trkpt lat="42.3041073" lon="-7.3697534"><ele>842.0</ele><time>2026-04-25T15:47:40.056Z</time></trkpt><trkpt lat="42.3041317" lon="-7.3699033"><ele>844.0</ele><time>2026-04-25T15:47:41.059Z</time></trkpt><trkpt lat="42.3041679" lon="-7.3700547"><ele>846.0</ele><time>2026-04-25T15:47:42.057Z</time></trkpt><trkpt lat="42.3041854" lon="-7.3701957"><ele>848.0</ele><time>2026-04-25T15:47:43.05Z</time></trkpt><trkpt lat="42.3042036" lon="-7.3703467"><ele>848.0</ele><time>2026-04-25T15:47:44.051Z</time></trkpt><trkpt lat="42.3041843" lon="-7.3704904"><ele>848.0</ele><time>2026-04-25T15:47:45.055Z</time></trkpt><trkpt lat="42.304145" lon="-7.3706296"><ele>848.0</ele><time>2026-04-25T15:47:46.057Z</time></trkpt><trkpt lat="42.3040727" lon="-7.3707483"><ele>848.0</ele><time>2026-04-25T15:47:47.061Z</time></trkpt><trkpt lat="42.3039924" lon="-7.3708331"><ele>848.0</ele><time>2026-04-25T15:47:48.053Z</time></trkpt><trkpt lat="42.30391" lon="-7.3709437"><ele>848.8</ele><time>2026-04-25T15:47:49.053Z</time></trkpt><trkpt lat="42.3038432" lon="-7.3710628"><ele>849.5999999999999</ele><time>2026-04-25T15:47:50.061Z</time></trkpt><trkpt lat="42.3037877" lon="-7.3711997"><ele>850.4000000000001</ele><time>2026-04-25T15:47:51.053Z</time></trkpt><trkpt lat="42.3037367" lon="-7.3713255"><ele>851.2</ele><time>2026-04-25T15:47:52.061Z</time></trkpt><trkpt lat="42.303706" lon="-7.3714292"><ele>852.0</ele><time>2026-04-25T15:47:53.063Z</time></trkpt><trkpt lat="42.3036747" lon="-7.3715061"><ele>852.0</ele><time>2026-04-25T15:47:54.056Z</time></trkpt><trkpt lat="42.3036501" lon="-7.3716033"><ele>852.0</ele><time>2026-04-25T15:47:55.06Z</time></trkpt><trkpt lat="42.3036233" lon="-7.3717037"><ele>852.0</ele><time>2026-04-25T15:47:56.053Z</time></trkpt><trkpt lat="42.3035906" lon="-7.3718074"><ele>852.0</ele><time>2026-04-25T15:47:57.053Z</time></trkpt><trkpt lat="42.3035487" lon="-7.3719123"><ele>852.0</ele><time>2026-04-25T15:47:58.049Z</time></trkpt><trkpt lat="42.3035017" lon="-7.3720162"><ele>852.0</ele><time>2026-04-25T15:47:59.065Z</time></trkpt><trkpt lat="42.3034535" lon="-7.3721266"><ele>855.6666666666666</ele><time>2026-04-25T15:48:00.058Z</time></trkpt><trkpt lat="42.3034094" lon="-7.3722244"><ele>859.3333333333333</ele><time>2026-04-25T15:48:01.055Z</time></trkpt><trkpt lat="42.3033733" lon="-7.3723091"><ele>863.0</ele><time>2026-04-25T15:48:02.05Z</time></trkpt><trkpt lat="42.3033437" lon="-7.3723881"><ele>866.6666666666666</ele><time>2026-04-25T15:48:03.049Z</time></trkpt><trkpt lat="42.3033091" lon="-7.3724683"><ele>870.3333333333333</ele><time>2026-04-25T15:48:04.054Z</time></trkpt><trkpt lat="42.3032472" lon="-7.3725439"><ele>874.0</ele><time>2026-04-25T15:48:05.062Z</time></trkpt><trkpt lat="42.3031724" lon="-7.3726045"><ele>874.0</ele><time>2026-04-25T15:48:06.053Z</time></trkpt><trkpt lat="42.3030949" lon="-7.3726818"><ele>874.0000000000001</ele><time>2026-04-25T15:48:07.053Z</time></trkpt><trkpt lat="42.3030178" lon="-7.3727753"><ele>874.0000000000001</ele><time>2026-04-25T15:48:08.056Z</time></trkpt><trkpt lat="42.3029352" lon="-7.3728755"><ele>874.0</ele><time>2026-04-25T15:48:09.056Z</time></trkpt><trkpt lat="42.3028415" lon="-7.3730003"><ele>874.0</ele><time>2026-04-25T15:48:10.057Z</time></trkpt><trkpt lat="42.302745" lon="-7.3731367"><ele>873.5</ele><time>2026-04-25T15:48:11.063Z</time></trkpt><trkpt lat="42.3026595" lon="-7.3732664"><ele>873.0</ele><time>2026-04-25T15:48:12.056Z</time></trkpt><trkpt lat="42.3025559" lon="-7.3733862"><ele>872.5</ele><time>2026-04-25T15:48:13.052Z</time></trkpt><trkpt lat="42.3024651" lon="-7.3735038"><ele>872.0</ele><time>2026-04-25T15:48:14.051Z</time></trkpt><trkpt lat="42.3023885" lon="-7.3736085"><ele>872.0</ele><time>2026-04-25T15:48:15.053Z</time></trkpt><trkpt lat="42.3023417" lon="-7.3737023"><ele>872.0</ele><time>2026-04-25T15:48:16.065Z</time></trkpt><trkpt lat="42.3023262" lon="-7.3737971"><ele>872.0</ele><time>2026-04-25T15:48:17.051Z</time></trkpt><trkpt lat="42.3023309" lon="-7.3739222"><ele>872.0</ele><time>2026-04-25T15:48:18.056Z</time></trkpt><trkpt lat="42.3023532" lon="-7.3740742"><ele>872.0</ele><time>2026-04-25T15:48:19.058Z</time></trkpt><trkpt lat="42.3023943" lon="-7.3742397"><ele>874.25</ele><time>2026-04-25T15:48:20.049Z</time></trkpt><trkpt lat="42.3024369" lon="-7.374411"><ele>876.5</ele><time>2026-04-25T15:48:21.052Z</time></trkpt><trkpt lat="42.3024812" lon="-7.3745912"><ele>878.75</ele><time>2026-04-25T15:48:22.053Z</time></trkpt><trkpt lat="42.302503" lon="-7.3747872"><ele>881.0</ele><time>2026-04-25T15:48:23.055Z</time></trkpt><trkpt lat="42.3025086" lon="-7.375"><ele>881.5</ele><time>2026-04-25T15:48:24.049Z</time></trkpt><trkpt lat="42.3024959" lon="-7.3752015"><ele>882.0</ele><time>2026-04-25T15:48:25.05Z</time></trkpt><trkpt lat="42.3024812" lon="-7.3753855"><ele>882.5</ele><time>2026-04-25T15:48:26.054Z</time></trkpt><trkpt lat="42.3024511" lon="-7.3755592"><ele>883.0</ele><time>2026-04-25T15:48:27.058Z</time></trkpt><trkpt lat="42.3023848" lon="-7.3757082"><ele>880.75</ele><time>2026-04-25T15:48:28.052Z</time></trkpt><trkpt lat="42.3023245" lon="-7.3758521"><ele>878.5</ele><time>2026-04-25T15:48:29.056Z</time></trkpt><trkpt lat="42.302258" lon="-7.3759869"><ele>876.25</ele><time>2026-04-25T15:48:30.05Z</time></trkpt><trkpt lat="42.3022016" lon="-7.3761229"><ele>874.0</ele><time>2026-04-25T15:48:31.051Z</time></trkpt><trkpt lat="42.3021621" lon="-7.3762684"><ele>874.8000000000001</ele><time>2026-04-25T15:48:32.054Z</time></trkpt><trkpt lat="42.302146" lon="-7.376409"><ele>875.6000000000001</ele><time>2026-04-25T15:48:33.05Z</time></trkpt><trkpt lat="42.3021572" lon="-7.3765398"><ele>876.4</ele><time>2026-04-25T15:48:34.057Z</time></trkpt><trkpt lat="42.3021841" lon="-7.3766783"><ele>877.2</ele><time>2026-04-25T15:48:35.062Z</time></trkpt><trkpt lat="42.3022137" lon="-7.3768249"><ele>878.0</ele><time>2026-04-25T15:48:36.067Z</time></trkpt><trkpt lat="42.302274" lon="-7.3769638"><ele>882.5999999999999</ele><time>2026-04-25T15:48:37.055Z</time></trkpt><trkpt lat="42.3023259" lon="-7.3770844"><ele>887.1999999999999</ele><time>2026-04-25T15:48:38.061Z</time></trkpt><trkpt lat="42.3023674" lon="-7.377169"><ele>891.8</ele><time>2026-04-25T15:48:39.052Z</time></trkpt><trkpt lat="42.3024003" lon="-7.3772638"><ele>896.4</ele><time>2026-04-25T15:48:40.053Z</time></trkpt><trkpt lat="42.3024013" lon="-7.3774129"><ele>901.0</ele><time>2026-04-25T15:48:41.057Z</time></trkpt><trkpt lat="42.3023954" lon="-7.377596"><ele>901.0</ele><time>2026-04-25T15:48:42.056Z</time></trkpt><trkpt lat="42.3023668" lon="-7.3778167"><ele>901.0</ele><time>2026-04-25T15:48:43.051Z</time></trkpt><trkpt lat="42.3023312" lon="-7.3780621"><ele>901.0</ele><time>2026-04-25T15:48:44.054Z</time></trkpt><trkpt lat="42.30229" lon="-7.3783209"><ele>898.3333333333333</ele><time>2026-04-25T15:48:45.053Z</time></trkpt><trkpt lat="42.3022246" lon="-7.3785561"><ele>895.6666666666667</ele><time>2026-04-25T15:48:46.049Z</time></trkpt><trkpt lat="42.3021626" lon="-7.3787536"><ele>893.0</ele><time>2026-04-25T15:48:47.056Z</time></trkpt><trkpt lat="42.3021117" lon="-7.3789081"><ele>893.0</ele><time>2026-04-25T15:48:48.064Z</time></trkpt><trkpt lat="42.3020747" lon="-7.3790359"><ele>893.0</ele><time>2026-04-25T15:48:49.055Z</time></trkpt><trkpt lat="42.3020483" lon="-7.3791556"><ele>893.0</ele><time>2026-04-25T15:48:50.059Z</time></trkpt><trkpt lat="42.3020276" lon="-7.3792659"><ele>893.0</ele><time>2026-04-25T15:48:51.049Z</time></trkpt><trkpt lat="42.3020489" lon="-7.3793724"><ele>893.0</ele><time>2026-04-25T15:48:52.066Z</time></trkpt><trkpt lat="42.3020969" lon="-7.3794783"><ele>893.0000000000001</ele><time>2026-04-25T15:48:53.053Z</time></trkpt><trkpt lat="42.3021572" lon="-7.3795448"><ele>893.0</ele><time>2026-04-25T15:48:54.062Z</time></trkpt><trkpt lat="42.3022248" lon="-7.3795605"><ele>893.0</ele><time>2026-04-25T15:48:55.064Z</time></trkpt><trkpt lat="42.3023083" lon="-7.3795329"><ele>893.0</ele><time>2026-04-25T15:48:56.056Z</time></trkpt><trkpt lat="42.3024143" lon="-7.3794908"><ele>893.0000000000001</ele><time>2026-04-25T15:48:57.095Z</time></trkpt><trkpt lat="42.3025078" lon="-7.3794655"><ele>893.0</ele><time>2026-04-25T15:48:58.059Z</time></trkpt><trkpt lat="42.3026212" lon="-7.3794773"><ele>893.75</ele><time>2026-04-25T15:48:59.076Z</time></trkpt><trkpt lat="42.3027375" lon="-7.3795255"><ele>894.5</ele><time>2026-04-25T15:49:00.061Z</time></trkpt><trkpt lat="42.3028514" lon="-7.3796096"><ele>895.25</ele><time>2026-04-25T15:49:01.07Z</time></trkpt><trkpt lat="42.3029739" lon="-7.3797164"><ele>896.0</ele><time>2026-04-25T15:49:02.058Z</time></trkpt><trkpt lat="42.3030991" lon="-7.3798579"><ele>900.75</ele><time>2026-04-25T15:49:03.053Z</time></trkpt><trkpt lat="42.3032066" lon="-7.3799918"><ele>905.5</ele><time>2026-04-25T15:49:04.06Z</time></trkpt><trkpt lat="42.3033103" lon="-7.3801334"><ele>910.25</ele><time>2026-04-25T15:49:05.064Z</time></trkpt><trkpt lat="42.303415" lon="-7.3802457"><ele>915.0</ele><time>2026-04-25T15:49:06.065Z</time></trkpt><trkpt lat="42.3035067" lon="-7.3803499"><ele>915.0</ele><time>2026-04-25T15:49:07.049Z</time></trkpt><trkpt lat="42.3035661" lon="-7.3804857"><ele>915.0</ele><time>2026-04-25T15:49:08.071Z</time></trkpt><trkpt lat="42.3036009" lon="-7.3806614"><ele>915.0</ele><time>2026-04-25T15:49:09.055Z</time></trkpt><trkpt lat="42.3036279" lon="-7.3808541"><ele>915.0</ele><time>2026-04-25T15:49:10.059Z</time></trkpt><trkpt lat="42.3036561" lon="-7.3810288"><ele>914.0</ele><time>2026-04-25T15:49:11.065Z</time></trkpt><trkpt lat="42.3036938" lon="-7.3811798"><ele>913.0</ele><time>2026-04-25T15:49:12.057Z</time></trkpt><trkpt lat="42.3037561" lon="-7.381328"><ele>912.0</ele><time>2026-04-25T15:49:13.046Z</time></trkpt><trkpt lat="42.3038407" lon="-7.3814826"><ele>911.0</ele><time>2026-04-25T15:49:14.054Z</time></trkpt><trkpt lat="42.3039181" lon="-7.3816577"><ele>915.6666666666667</ele><time>2026-04-25T15:49:15.058Z</time></trkpt><trkpt lat="42.3039897" lon="-7.3818521"><ele>920.3333333333333</ele><time>2026-04-25T15:49:16.049Z</time></trkpt><trkpt lat="42.304055" lon="-7.382041"><ele>925.0</ele><time>2026-04-25T15:49:17.053Z</time></trkpt><trkpt lat="42.304126" lon="-7.3822046"><ele>925.0</ele><time>2026-04-25T15:49:18.055Z</time></trkpt><trkpt lat="42.3041906" lon="-7.3823449"><ele>925.0</ele><time>2026-04-25T15:49:19.066Z</time></trkpt><trkpt lat="42.3042292" lon="-7.3824834"><ele>925.0</ele><time>2026-04-25T15:49:20.053Z</time></trkpt><trkpt lat="42.3042414" lon="-7.3826365"><ele>925.0</ele><time>2026-04-25T15:49:21.057Z</time></trkpt><trkpt lat="42.3042534" lon="-7.3828027"><ele>925.0</ele><time>2026-04-25T15:49:22.05Z</time></trkpt><trkpt lat="42.3042599" lon="-7.3830087"><ele>925.0</ele><time>2026-04-25T15:49:23.068Z</time></trkpt><trkpt lat="42.3042593" lon="-7.3832197"><ele>925.0</ele><time>2026-04-25T15:49:24.059Z</time></trkpt><trkpt lat="42.3042523" lon="-7.3834092"><ele>925.0</ele><time>2026-04-25T15:49:25.06Z</time></trkpt><trkpt lat="42.3042791" lon="-7.3835744"><ele>925.25</ele><time>2026-04-25T15:49:26.058Z</time></trkpt><trkpt lat="42.30433" lon="-7.3837461"><ele>925.5</ele><time>2026-04-25T15:49:27.06Z</time></trkpt><trkpt lat="42.3043898" lon="-7.3839116"><ele>925.75</ele><time>2026-04-25T15:49:28.052Z</time></trkpt><trkpt lat="42.3044564" lon="-7.384045"><ele>926.0</ele><time>2026-04-25T15:49:29.052Z</time></trkpt><trkpt lat="42.3045222" lon="-7.384144"><ele>926.0000000000001</ele><time>2026-04-25T15:49:30.06Z</time></trkpt><trkpt lat="42.304604" lon="-7.3842388"><ele>926.0</ele><time>2026-04-25T15:49:31.056Z</time></trkpt><trkpt lat="42.3046752" lon="-7.3842697"><ele>926.0</ele><time>2026-04-25T15:49:32.068Z</time></trkpt><trkpt lat="42.304737" lon="-7.3843074"><ele>926.0</ele><time>2026-04-25T15:49:33.054Z</time></trkpt><trkpt lat="42.3047982" lon="-7.3843576"><ele>926.0000000000001</ele><time>2026-04-25T15:49:34.055Z</time></trkpt><trkpt lat="42.304879" lon="-7.3844392"><ele>926.0</ele><time>2026-04-25T15:49:36.066Z</time></trkpt><trkpt lat="42.3049638" lon="-7.3845049"><ele>929.0</ele><time>2026-04-25T15:49:38.057Z</time></trkpt><trkpt lat="42.3050267" lon="-7.3845535"><ele>931.9999999999999</ele><time>2026-04-25T15:49:39.065Z</time></trkpt><trkpt lat="42.3050901" lon="-7.3845985"><ele>934.9999999999999</ele><time>2026-04-25T15:49:40.066Z</time></trkpt><trkpt lat="42.3051151" lon="-7.3847464"><ele>938.0</ele><time>2026-04-25T15:49:42.058Z</time></trkpt><trkpt lat="42.3050572" lon="-7.3848982"><ele>941.0</ele><time>2026-04-25T15:49:44.049Z</time></trkpt><trkpt lat="42.3049675" lon="-7.3850013"><ele>941.5</ele><time>2026-04-25T15:49:45.052Z</time></trkpt><trkpt lat="42.3048623" lon="-7.3850847"><ele>942.0</ele><time>2026-04-25T15:49:46.06Z</time></trkpt><trkpt lat="42.3047598" lon="-7.3851829"><ele>942.5</ele><time>2026-04-25T15:49:47.052Z</time></trkpt><trkpt lat="42.3046663" lon="-7.3853127"><ele>943.0</ele><time>2026-04-25T15:49:48.057Z</time></trkpt><trkpt lat="42.3045758" lon="-7.3854524"><ele>943.0</ele><time>2026-04-25T15:49:49.057Z</time></trkpt><trkpt lat="42.304489" lon="-7.3855852"><ele>943.0</ele><time>2026-04-25T15:49:50.054Z</time></trkpt><trkpt lat="42.3043951" lon="-7.3857097"><ele>943.0</ele><time>2026-04-25T15:49:51.049Z</time></trkpt><trkpt lat="42.3043114" lon="-7.3858448"><ele>943.0</ele><time>2026-04-25T15:49:52.052Z</time></trkpt><trkpt lat="42.3042451" lon="-7.3859658"><ele>942.9999999999999</ele><time>2026-04-25T15:49:53.059Z</time></trkpt><trkpt lat="42.3041958" lon="-7.3860736"><ele>943.0</ele><time>2026-04-25T15:49:54.07Z</time></trkpt><trkpt lat="42.3041504" lon="-7.386169"><ele>943.0</ele><time>2026-04-25T15:49:55.053Z</time></trkpt><trkpt lat="42.3041106" lon="-7.3862847"><ele>943.0</ele><time>2026-04-25T15:49:57.059Z</time></trkpt><trkpt lat="42.3040615" lon="-7.3864128"><ele>942.9999999999999</ele><time>2026-04-25T15:49:59.068Z</time></trkpt><trkpt lat="42.3040207" lon="-7.3864849"><ele>943.0</ele><time>2026-04-25T15:50:00.069Z</time></trkpt><trkpt lat="42.3039329" lon="-7.3865695"><ele>942.1666666666666</ele><time>2026-04-25T15:50:02.061Z</time></trkpt><trkpt lat="42.3038479" lon="-7.3866518"><ele>941.3333333333333</ele><time>2026-04-25T15:50:04.061Z</time></trkpt><trkpt lat="42.3037948" lon="-7.3867489"><ele>940.5</ele><time>2026-04-25T15:50:06.068Z</time></trkpt><trkpt lat="42.3037323" lon="-7.3868688"><ele>939.6666666666667</ele><time>2026-04-25T15:50:08.062Z</time></trkpt><trkpt lat="42.3036785" lon="-7.3869304"><ele>938.8333333333334</ele><time>2026-04-25T15:50:09.058Z</time></trkpt><trkpt lat="42.3036232" lon="-7.3869922"><ele>938.0</ele><time>2026-04-25T15:50:10.065Z</time></trkpt><trkpt lat="42.3035693" lon="-7.387052"><ele>938.0</ele><time>2026-04-25T15:50:11.064Z</time></trkpt><trkpt lat="42.3035118" lon="-7.387113"><ele>938.0</ele><time>2026-04-25T15:50:12.062Z</time></trkpt><trkpt lat="42.3034539" lon="-7.3871724"><ele>938.0</ele><time>2026-04-25T15:50:13.056Z</time></trkpt><trkpt lat="42.3033959" lon="-7.3872356"><ele>938.0</ele><time>2026-04-25T15:50:14.065Z</time></trkpt><trkpt lat="42.3033417" lon="-7.3872938"><ele>938.0</ele><time>2026-04-25T15:50:15.058Z</time></trkpt><trkpt lat="42.3032896" lon="-7.3873577"><ele>938.0</ele><time>2026-04-25T15:50:16.068Z</time></trkpt><trkpt lat="42.303236" lon="-7.3874226"><ele>938.0</ele><time>2026-04-25T15:50:17.07Z</time></trkpt><trkpt lat="42.3031893" lon="-7.3874894"><ele>938.4</ele><time>2026-04-25T15:50:18.056Z</time></trkpt><trkpt lat="42.3031488" lon="-7.3875658"><ele>938.8</ele><time>2026-04-25T15:50:19.067Z</time></trkpt><trkpt lat="42.3030751" lon="-7.3876835"><ele>939.2</ele><time>2026-04-25T15:50:21.059Z</time></trkpt><trkpt lat="42.3030097" lon="-7.3878397"><ele>939.6</ele><time>2026-04-25T15:50:23.061Z</time></trkpt><trkpt lat="42.302955" lon="-7.3879109"><ele>940.0</ele><time>2026-04-25T15:50:24.054Z</time></trkpt><trkpt lat="42.3028955" lon="-7.3879626"><ele>938.1666666666666</ele><time>2026-04-25T15:50:25.061Z</time></trkpt><trkpt lat="42.3028244" lon="-7.3879877"><ele>936.3333333333333</ele><time>2026-04-25T15:50:26.059Z</time></trkpt><trkpt lat="42.3027593" lon="-7.3879748"><ele>934.5</ele><time>2026-04-25T15:50:27.051Z</time></trkpt><trkpt lat="42.302703" lon="-7.3879275"><ele>932.6666666666667</ele><time>2026-04-25T15:50:28.053Z</time></trkpt><trkpt lat="42.3026587" lon="-7.3878598"><ele>930.8333333333334</ele><time>2026-04-25T15:50:29.055Z</time></trkpt><trkpt lat="42.3026281" lon="-7.3877843"><ele>929.0</ele><time>2026-04-25T15:50:30.056Z</time></trkpt><trkpt lat="42.3025698" lon="-7.3876485"><ele>929.0000000000001</ele><time>2026-04-25T15:50:32.068Z</time></trkpt><trkpt lat="42.3025157" lon="-7.3875982"><ele>929.0</ele><time>2026-04-25T15:50:33.069Z</time></trkpt><trkpt lat="42.3024396" lon="-7.3875616"><ele>929.0</ele><time>2026-04-25T15:50:34.057Z</time></trkpt><trkpt lat="42.3023475" lon="-7.3875426"><ele>929.0</ele><time>2026-04-25T15:50:35.065Z</time></trkpt><trkpt lat="42.302254" lon="-7.3875387"><ele>929.0000000000001</ele><time>2026-04-25T15:50:36.068Z</time></trkpt><trkpt lat="42.302168" lon="-7.3875373"><ele>929.0</ele><time>2026-04-25T15:50:37.061Z</time></trkpt><trkpt lat="42.3020746" lon="-7.3875598"><ele>927.6666666666667</ele><time>2026-04-25T15:50:38.065Z</time></trkpt><trkpt lat="42.3019942" lon="-7.3876046"><ele>926.3333333333334</ele><time>2026-04-25T15:50:39.072Z</time></trkpt><trkpt lat="42.3019156" lon="-7.3876658"><ele>925.0</ele><time>2026-04-25T15:50:40.068Z</time></trkpt><trkpt lat="42.3018444" lon="-7.3877346"><ele>923.6666666666667</ele><time>2026-04-25T15:50:41.059Z</time></trkpt><trkpt lat="42.3017694" lon="-7.3877876"><ele>922.3333333333334</ele><time>2026-04-25T15:50:42.058Z</time></trkpt><trkpt lat="42.3017002" lon="-7.3878389"><ele>921.0</ele><time>2026-04-25T15:50:43.068Z</time></trkpt><trkpt lat="42.3016292" lon="-7.3878482"><ele>921.0</ele><time>2026-04-25T15:50:44.069Z</time></trkpt><trkpt lat="42.3015531" lon="-7.3878306"><ele>921.0</ele><time>2026-04-25T15:50:45.065Z</time></trkpt><trkpt lat="42.301472" lon="-7.3878272"><ele>921.0</ele><time>2026-04-25T15:50:46.061Z</time></trkpt><trkpt lat="42.3013846" lon="-7.3878184"><ele>921.0</ele><time>2026-04-25T15:50:47.059Z</time></trkpt><trkpt lat="42.3012992" lon="-7.3878002"><ele>921.0</ele><time>2026-04-25T15:50:48.06Z</time></trkpt><trkpt lat="42.3012257" lon="-7.3877472"><ele>921.0</ele><time>2026-04-25T15:50:49.057Z</time></trkpt><trkpt lat="42.3011624" lon="-7.387676"><ele>922.0</ele><time>2026-04-25T15:50:50.058Z</time></trkpt><trkpt lat="42.3011473" lon="-7.3875485"><ele>923.0</ele><time>2026-04-25T15:50:51.055Z</time></trkpt><trkpt lat="42.3011372" lon="-7.3873936"><ele>924.0</ele><time>2026-04-25T15:50:52.065Z</time></trkpt><trkpt lat="42.3011254" lon="-7.3872311"><ele>925.0</ele><time>2026-04-25T15:50:53.073Z</time></trkpt><trkpt lat="42.3011138" lon="-7.3870653"><ele>925.0</ele><time>2026-04-25T15:50:54.063Z</time></trkpt><trkpt lat="42.3010969" lon="-7.3869006"><ele>925.0</ele><time>2026-04-25T15:50:55.059Z</time></trkpt><trkpt lat="42.3010647" lon="-7.3867472"><ele>925.0</ele><time>2026-04-25T15:50:56.062Z</time></trkpt><trkpt lat="42.3010283" lon="-7.3866"><ele>925.0</ele><time>2026-04-25T15:50:57.059Z</time></trkpt><trkpt lat="42.3009921" lon="-7.3864582"><ele>925.6</ele><time>2026-04-25T15:50:58.059Z</time></trkpt><trkpt lat="42.3009669" lon="-7.386324"><ele>926.2</ele><time>2026-04-25T15:50:59.062Z</time></trkpt><trkpt lat="42.300969" lon="-7.3861939"><ele>926.8</ele><time>2026-04-25T15:51:00.054Z</time></trkpt><trkpt lat="42.3009902" lon="-7.3860426"><ele>927.4</ele><time>2026-04-25T15:51:01.054Z</time></trkpt><trkpt lat="42.3010259" lon="-7.3858786"><ele>928.0</ele><time>2026-04-25T15:51:02.053Z</time></trkpt><trkpt lat="42.301089" lon="-7.3857292"><ele>928.0</ele><time>2026-04-25T15:51:03.059Z</time></trkpt><trkpt lat="42.3011848" lon="-7.3856085"><ele>928.0</ele><time>2026-04-25T15:51:04.053Z</time></trkpt><trkpt lat="42.3012924" lon="-7.3855188"><ele>928.0</ele><time>2026-04-25T15:51:05.054Z</time></trkpt><trkpt lat="42.3014109" lon="-7.3854664"><ele>928.0</ele><time>2026-04-25T15:51:06.062Z</time></trkpt><trkpt lat="42.3015292" lon="-7.3854395"><ele>929.0</ele><time>2026-04-25T15:51:07.056Z</time></trkpt><trkpt lat="42.301638" lon="-7.3853911"><ele>930.0</ele><time>2026-04-25T15:51:08.059Z</time></trkpt><trkpt lat="42.3017405" lon="-7.3853385"><ele>931.0</ele><time>2026-04-25T15:51:09.057Z</time></trkpt><trkpt lat="42.3018172" lon="-7.3852118"><ele>932.0</ele><time>2026-04-25T15:51:10.065Z</time></trkpt><trkpt lat="42.3018836" lon="-7.3850621"><ele>932.0</ele><time>2026-04-25T15:51:11.054Z</time></trkpt><trkpt lat="42.3019297" lon="-7.3849098"><ele>932.0</ele><time>2026-04-25T15:51:12.06Z</time></trkpt><trkpt lat="42.301952" lon="-7.3847662"><ele>932.0</ele><time>2026-04-25T15:51:13.05Z</time></trkpt><trkpt lat="42.3019477" lon="-7.3846197"><ele>932.0</ele><time>2026-04-25T15:51:14.057Z</time></trkpt><trkpt lat="42.3019284" lon="-7.384474"><ele>932.0</ele><time>2026-04-25T15:51:15.059Z</time></trkpt><trkpt lat="42.3019107" lon="-7.3843205"><ele>933.4000000000001</ele><time>2026-04-25T15:51:16.05Z</time></trkpt><trkpt lat="42.3018971" lon="-7.3841637"><ele>934.8000000000001</ele><time>2026-04-25T15:51:17.056Z</time></trkpt><trkpt lat="42.3018729" lon="-7.3840289"><ele>936.2</ele><time>2026-04-25T15:51:18.061Z</time></trkpt><trkpt lat="42.3018331" lon="-7.3839259"><ele>937.6</ele><time>2026-04-25T15:51:19.065Z</time></trkpt><trkpt lat="42.3017713" lon="-7.3838343"><ele>939.0</ele><time>2026-04-25T15:51:20.061Z</time></trkpt><trkpt lat="42.3016928" lon="-7.3837557"><ele>939.0</ele><time>2026-04-25T15:51:21.054Z</time></trkpt><trkpt lat="42.3015981" lon="-7.3836869"><ele>939.0</ele><time>2026-04-25T15:51:22.069Z</time></trkpt><trkpt lat="42.3014891" lon="-7.3836251"><ele>939.0</ele><time>2026-04-25T15:51:23.056Z</time></trkpt><trkpt lat="42.3013642" lon="-7.3835911"><ele>939.0</ele><time>2026-04-25T15:51:24.057Z</time></trkpt><trkpt lat="42.3012283" lon="-7.3835916"><ele>939.75</ele><time>2026-04-25T15:51:25.058Z</time></trkpt><trkpt lat="42.3010855" lon="-7.3836182"><ele>940.5</ele><time>2026-04-25T15:51:26.061Z</time></trkpt><trkpt lat="42.3009357" lon="-7.3836536"><ele>941.25</ele><time>2026-04-25T15:51:27.055Z</time></trkpt><trkpt lat="42.3007871" lon="-7.3836848"><ele>942.0</ele><time>2026-04-25T15:51:28.068Z</time></trkpt><trkpt lat="42.300638" lon="-7.3837157"><ele>942.25</ele><time>2026-04-25T15:51:29.064Z</time></trkpt><trkpt lat="42.3005058" lon="-7.3837636"><ele>942.5</ele><time>2026-04-25T15:51:30.053Z</time></trkpt><trkpt lat="42.3003963" lon="-7.3838439"><ele>942.75</ele><time>2026-04-25T15:51:31.068Z</time></trkpt><trkpt lat="42.3003033" lon="-7.3839618"><ele>943.0</ele><time>2026-04-25T15:51:32.069Z</time></trkpt><trkpt lat="42.3002192" lon="-7.3841043"><ele>945.25</ele><time>2026-04-25T15:51:33.074Z</time></trkpt><trkpt lat="42.3001299" lon="-7.3842483"><ele>947.5</ele><time>2026-04-25T15:51:34.062Z</time></trkpt><trkpt lat="42.3000376" lon="-7.3843655"><ele>949.75</ele><time>2026-04-25T15:51:35.069Z</time></trkpt><trkpt lat="42.2999541" lon="-7.3844635"><ele>952.0</ele><time>2026-04-25T15:51:36.059Z</time></trkpt><trkpt lat="42.2998469" lon="-7.3844775"><ele>954.0</ele><time>2026-04-25T15:51:37.066Z</time></trkpt><trkpt lat="42.2997333" lon="-7.3844541"><ele>956.0</ele><time>2026-04-25T15:51:38.065Z</time></trkpt><trkpt lat="42.299621" lon="-7.3843935"><ele>958.0</ele><time>2026-04-25T15:51:39.061Z</time></trkpt><trkpt lat="42.2995055" lon="-7.3843275"><ele>960.0</ele><time>2026-04-25T15:51:40.06Z</time></trkpt><trkpt lat="42.2993819" lon="-7.384268"><ele>960.0</ele><time>2026-04-25T15:51:41.064Z</time></trkpt><trkpt lat="42.2992497" lon="-7.3842226"><ele>960.0</ele><time>2026-04-25T15:51:42.063Z</time></trkpt><trkpt lat="42.2991123" lon="-7.3842"><ele>960.0</ele><time>2026-04-25T15:51:43.061Z</time></trkpt><trkpt lat="42.2989882" lon="-7.3842097"><ele>960.0</ele><time>2026-04-25T15:51:44.071Z</time></trkpt><trkpt lat="42.2988788" lon="-7.3842178"><ele>960.0</ele><time>2026-04-25T15:51:45.071Z</time></trkpt><trkpt lat="42.2988235" lon="-7.384299"><ele>960.0</ele><time>2026-04-25T15:51:46.064Z</time></trkpt><trkpt lat="42.2988072" lon="-7.384403"><ele>960.0</ele><time>2026-04-25T15:51:47.067Z</time></trkpt><trkpt lat="42.2988367" lon="-7.384499"><ele>960.0</ele><time>2026-04-25T15:51:48.058Z</time></trkpt><trkpt lat="42.2989034" lon="-7.3845805"><ele>960.0</ele><time>2026-04-25T15:51:49.059Z</time></trkpt><trkpt lat="42.2989881" lon="-7.3846704"><ele>960.0</ele><time>2026-04-25T15:51:50.063Z</time></trkpt><trkpt lat="42.2990507" lon="-7.3847936"><ele>962.0</ele><time>2026-04-25T15:51:51.062Z</time></trkpt><trkpt lat="42.2990664" lon="-7.3849389"><ele>964.0</ele><time>2026-04-25T15:51:52.058Z</time></trkpt><trkpt lat="42.2990351" lon="-7.3850855"><ele>966.0</ele><time>2026-04-25T15:51:53.069Z</time></trkpt><trkpt lat="42.2989603" lon="-7.3852274"><ele>968.0</ele><time>2026-04-25T15:51:54.059Z</time></trkpt><trkpt lat="42.2988554" lon="-7.3853707"><ele>972.6666666666667</ele><time>2026-04-25T15:51:55.069Z</time></trkpt><trkpt lat="42.2987341" lon="-7.3855307"><ele>977.3333333333333</ele><time>2026-04-25T15:51:56.067Z</time></trkpt><trkpt lat="42.2986111" lon="-7.3857095"><ele>982.0</ele><time>2026-04-25T15:51:57.059Z</time></trkpt><trkpt lat="42.2984974" lon="-7.3858993"><ele>982.0</ele><time>2026-04-25T15:51:58.057Z</time></trkpt><trkpt lat="42.2983972" lon="-7.3860785"><ele>982.0</ele><time>2026-04-25T15:51:59.055Z</time></trkpt><trkpt lat="42.2983062" lon="-7.3862378"><ele>982.0</ele><time>2026-04-25T15:52:00.066Z</time></trkpt><trkpt lat="42.2982165" lon="-7.3863695"><ele>982.0</ele><time>2026-04-25T15:52:01.071Z</time></trkpt><trkpt lat="42.2981137" lon="-7.3864719"><ele>983.75</ele><time>2026-04-25T15:52:02.064Z</time></trkpt><trkpt lat="42.2979938" lon="-7.3865448"><ele>985.5</ele><time>2026-04-25T15:52:03.056Z</time></trkpt><trkpt lat="42.297864" lon="-7.3865889"><ele>987.25</ele><time>2026-04-25T15:52:04.063Z</time></trkpt><trkpt lat="42.2977288" lon="-7.3866116"><ele>989.0</ele><time>2026-04-25T15:52:05.06Z</time></trkpt><trkpt lat="42.2975916" lon="-7.3866208"><ele>989.0</ele><time>2026-04-25T15:52:06.056Z</time></trkpt><trkpt lat="42.297469" lon="-7.3866045"><ele>989.0</ele><time>2026-04-25T15:52:07.063Z</time></trkpt><trkpt lat="42.2973681" lon="-7.3865409"><ele>989.0</ele><time>2026-04-25T15:52:08.064Z</time></trkpt><trkpt lat="42.2972949" lon="-7.3864297"><ele>989.0</ele><time>2026-04-25T15:52:09.05Z</time></trkpt><trkpt lat="42.2972233" lon="-7.3863038"><ele>993.25</ele><time>2026-04-25T15:52:10.053Z</time></trkpt><trkpt lat="42.2972021" lon="-7.3861126"><ele>997.5</ele><time>2026-04-25T15:52:11.055Z</time></trkpt><trkpt lat="42.2971956" lon="-7.3859214"><ele>1001.75</ele><time>2026-04-25T15:52:12.054Z</time></trkpt><trkpt lat="42.2971818" lon="-7.3857233"><ele>1006.0</ele><time>2026-04-25T15:52:13.065Z</time></trkpt><trkpt lat="42.2971492" lon="-7.3855501"><ele>1004.75</ele><time>2026-04-25T15:52:14.061Z</time></trkpt><trkpt lat="42.2971023" lon="-7.3853913"><ele>1003.5</ele><time>2026-04-25T15:52:15.054Z</time></trkpt><trkpt lat="42.2970432" lon="-7.3852524"><ele>1002.25</ele><time>2026-04-25T15:52:16.057Z</time></trkpt><trkpt lat="42.2969626" lon="-7.385155"><ele>1001.0</ele><time>2026-04-25T15:52:17.059Z</time></trkpt><trkpt lat="42.2968638" lon="-7.3850992"><ele>1001.0</ele><time>2026-04-25T15:52:18.059Z</time></trkpt><trkpt lat="42.2967584" lon="-7.3850402"><ele>1001.0</ele><time>2026-04-25T15:52:19.058Z</time></trkpt><trkpt lat="42.2966545" lon="-7.3849771"><ele>1001.0</ele><time>2026-04-25T15:52:20.051Z</time></trkpt><trkpt lat="42.2965553" lon="-7.3848903"><ele>1001.0</ele><time>2026-04-25T15:52:21.066Z</time></trkpt><trkpt lat="42.2964978" lon="-7.3847373"><ele>999.25</ele><time>2026-04-25T15:52:22.065Z</time></trkpt><trkpt lat="42.2964903" lon="-7.3845534"><ele>997.5</ele><time>2026-04-25T15:52:23.061Z</time></trkpt><trkpt lat="42.2965203" lon="-7.3843791"><ele>995.75</ele><time>2026-04-25T15:52:24.057Z</time></trkpt><trkpt lat="42.2965481" lon="-7.3842111"><ele>994.0</ele><time>2026-04-25T15:52:25.067Z</time></trkpt><trkpt lat="42.2965749" lon="-7.3840478"><ele>994.0</ele><time>2026-04-25T15:52:26.071Z</time></trkpt><trkpt lat="42.2965578" lon="-7.3839261"><ele>994.0000000000001</ele><time>2026-04-25T15:52:27.063Z</time></trkpt><trkpt lat="42.2964985" lon="-7.3838423"><ele>994.0000000000001</ele><time>2026-04-25T15:52:28.062Z</time></trkpt><trkpt lat="42.2964313" lon="-7.3837716"><ele>994.0</ele><time>2026-04-25T15:52:29.067Z</time></trkpt><trkpt lat="42.2963349" lon="-7.3837373"><ele>994.0</ele><time>2026-04-25T15:52:30.057Z</time></trkpt><trkpt lat="42.2961911" lon="-7.3837176"><ele>995.75</ele><time>2026-04-25T15:52:31.062Z</time></trkpt><trkpt lat="42.2960865" lon="-7.3836547"><ele>997.5</ele><time>2026-04-25T15:52:32.064Z</time></trkpt><trkpt lat="42.2960123" lon="-7.3835534"><ele>999.25</ele><time>2026-04-25T15:52:33.059Z</time></trkpt><trkpt lat="42.295942" lon="-7.3834462"><ele>1001.0</ele><time>2026-04-25T15:52:34.059Z</time></trkpt><trkpt lat="42.2959458" lon="-7.3832697"><ele>1001.0</ele><time>2026-04-25T15:52:35.058Z</time></trkpt><trkpt lat="42.2959996" lon="-7.3830932"><ele>1001.0</ele><time>2026-04-25T15:52:36.066Z</time></trkpt><trkpt lat="42.2960901" lon="-7.3829258"><ele>1001.0</ele><time>2026-04-25T15:52:37.07Z</time></trkpt><trkpt lat="42.2961972" lon="-7.3827729"><ele>1002.25</ele><time>2026-04-25T15:52:38.061Z</time></trkpt><trkpt lat="42.2963041" lon="-7.3826353"><ele>1003.5</ele><time>2026-04-25T15:52:39.049Z</time></trkpt><trkpt lat="42.296406" lon="-7.3824983"><ele>1004.75</ele><time>2026-04-25T15:52:40.063Z</time></trkpt><trkpt lat="42.2965098" lon="-7.3823637"><ele>1006.0</ele><time>2026-04-25T15:52:41.069Z</time></trkpt><trkpt lat="42.2966055" lon="-7.3822274"><ele>1002.5</ele><time>2026-04-25T15:52:42.053Z</time></trkpt><trkpt lat="42.2966882" lon="-7.3820856"><ele>999.0</ele><time>2026-04-25T15:52:43.054Z</time></trkpt><trkpt lat="42.2967393" lon="-7.3819375"><ele>995.5</ele><time>2026-04-25T15:52:44.07Z</time></trkpt><trkpt lat="42.2967596" lon="-7.3817803"><ele>992.0</ele><time>2026-04-25T15:52:45.056Z</time></trkpt><trkpt lat="42.2967552" lon="-7.3816186"><ele>992.0</ele><time>2026-04-25T15:52:46.062Z</time></trkpt><trkpt lat="42.2967359" lon="-7.381447"><ele>992.0</ele><time>2026-04-25T15:52:47.065Z</time></trkpt><trkpt lat="42.2967113" lon="-7.381264"><ele>992.0</ele><time>2026-04-25T15:52:48.073Z</time></trkpt><trkpt lat="42.2966842" lon="-7.3810685"><ele>992.0</ele><time>2026-04-25T15:52:49.065Z</time></trkpt><trkpt lat="42.2966642" lon="-7.3808665"><ele>992.3333333333334</ele><time>2026-04-25T15:52:50.061Z</time></trkpt><trkpt lat="42.2966688" lon="-7.38065"><ele>992.6666666666667</ele><time>2026-04-25T15:52:51.062Z</time></trkpt><trkpt lat="42.2967085" lon="-7.3804245"><ele>993.0</ele><time>2026-04-25T15:52:52.072Z</time></trkpt><trkpt lat="42.2967748" lon="-7.3801989"><ele>994.0</ele><time>2026-04-25T15:52:53.064Z</time></trkpt><trkpt lat="42.2968482" lon="-7.3799802"><ele>995.0</ele><time>2026-04-25T15:52:54.069Z</time></trkpt><trkpt lat="42.2969183" lon="-7.3797755"><ele>996.0</ele><time>2026-04-25T15:52:55.059Z</time></trkpt><trkpt lat="42.2969854" lon="-7.3795806"><ele>998.75</ele><time>2026-04-25T15:52:56.074Z</time></trkpt><trkpt lat="42.2970514" lon="-7.3793917"><ele>1001.5</ele><time>2026-04-25T15:52:57.056Z</time></trkpt><trkpt lat="42.2971106" lon="-7.3792081"><ele>1004.25</ele><time>2026-04-25T15:52:58.062Z</time></trkpt><trkpt lat="42.2971514" lon="-7.3790431"><ele>1007.0</ele><time>2026-04-25T15:52:59.067Z</time></trkpt><trkpt lat="42.2971494" lon="-7.378899"><ele>1006.0</ele><time>2026-04-25T15:53:00.057Z</time></trkpt><trkpt lat="42.29713" lon="-7.378734"><ele>1005.0</ele><time>2026-04-25T15:53:01.07Z</time></trkpt><trkpt lat="42.2970949" lon="-7.3785496"><ele>1004.0</ele><time>2026-04-25T15:53:02.066Z</time></trkpt><trkpt lat="42.2970533" lon="-7.3783638"><ele>1003.0</ele><time>2026-04-25T15:53:03.061Z</time></trkpt><trkpt lat="42.2970145" lon="-7.3781903"><ele>1003.0</ele><time>2026-04-25T15:53:04.055Z</time></trkpt><trkpt lat="42.2969769" lon="-7.3780319"><ele>1003.0</ele><time>2026-04-25T15:53:05.059Z</time></trkpt><trkpt lat="42.2969402" lon="-7.3778894"><ele>1003.0</ele><time>2026-04-25T15:53:06.06Z</time></trkpt><trkpt lat="42.2969007" lon="-7.3777706"><ele>1003.0</ele><time>2026-04-25T15:53:07.071Z</time></trkpt><trkpt lat="42.2968341" lon="-7.377668"><ele>1003.0</ele><time>2026-04-25T15:53:08.065Z</time></trkpt><trkpt lat="42.296739" lon="-7.3775811"><ele>1004.25</ele><time>2026-04-25T15:53:09.057Z</time></trkpt><trkpt lat="42.2966431" lon="-7.3774942"><ele>1005.5</ele><time>2026-04-25T15:53:10.07Z</time></trkpt><trkpt lat="42.2965244" lon="-7.3773867"><ele>1006.75</ele><time>2026-04-25T15:53:11.077Z</time></trkpt><trkpt lat="42.2964257" lon="-7.3772946"><ele>1008.0</ele><time>2026-04-25T15:53:12.061Z</time></trkpt><trkpt lat="42.296338" lon="-7.3771943"><ele>1006.5999999999999</ele><time>2026-04-25T15:53:13.061Z</time></trkpt><trkpt lat="42.296262" lon="-7.3770877"><ele>1005.1999999999999</ele><time>2026-04-25T15:53:14.065Z</time></trkpt><trkpt lat="42.2962078" lon="-7.3769647"><ele>1003.8</ele><time>2026-04-25T15:53:15.058Z</time></trkpt><trkpt lat="42.2961651" lon="-7.3768368"><ele>1002.4</ele><time>2026-04-25T15:53:16.06Z</time></trkpt><trkpt lat="42.2961258" lon="-7.376692"><ele>1001.0</ele><time>2026-04-25T15:53:17.065Z</time></trkpt><trkpt lat="42.2960777" lon="-7.3765387"><ele>1001.0</ele><time>2026-04-25T15:53:18.065Z</time></trkpt><trkpt lat="42.296027" lon="-7.376375"><ele>1001.0</ele><time>2026-04-25T15:53:19.063Z</time></trkpt><trkpt lat="42.2959703" lon="-7.3761985"><ele>1001.0</ele><time>2026-04-25T15:53:20.064Z</time></trkpt><trkpt lat="42.2959033" lon="-7.3760187"><ele>1001.0</ele><time>2026-04-25T15:53:21.055Z</time></trkpt><trkpt lat="42.2958346" lon="-7.3758438"><ele>999.25</ele><time>2026-04-25T15:53:22.064Z</time></trkpt><trkpt lat="42.2957672" lon="-7.3756846"><ele>997.5</ele><time>2026-04-25T15:53:23.06Z</time></trkpt><trkpt lat="42.2956973" lon="-7.3755349"><ele>995.75</ele><time>2026-04-25T15:53:24.062Z</time></trkpt><trkpt lat="42.2956326" lon="-7.375385"><ele>994.0</ele><time>2026-04-25T15:53:25.065Z</time></trkpt><trkpt lat="42.295603" lon="-7.3752185"><ele>993.5</ele><time>2026-04-25T15:53:26.056Z</time></trkpt><trkpt lat="42.2956119" lon="-7.3750481"><ele>993.0</ele><time>2026-04-25T15:53:27.054Z</time></trkpt><trkpt lat="42.2956338" lon="-7.3748824"><ele>992.5</ele><time>2026-04-25T15:53:28.065Z</time></trkpt><trkpt lat="42.2956635" lon="-7.3747191"><ele>992.0</ele><time>2026-04-25T15:53:29.069Z</time></trkpt><trkpt lat="42.2956813" lon="-7.3745515"><ele>992.0000000000001</ele><time>2026-04-25T15:53:30.06Z</time></trkpt><trkpt lat="42.2956918" lon="-7.3743893"><ele>992.0</ele><time>2026-04-25T15:53:31.065Z</time></trkpt><trkpt lat="42.2956437" lon="-7.3742993"><ele>992.0</ele><time>2026-04-25T15:53:32.062Z</time></trkpt><trkpt lat="42.2955877" lon="-7.3742298"><ele>992.0</ele><time>2026-04-25T15:53:33.062Z</time></trkpt><trkpt lat="42.2955333" lon="-7.3741513"><ele>992.0000000000001</ele><time>2026-04-25T15:53:34.057Z</time></trkpt><trkpt lat="42.2954857" lon="-7.3740678"><ele>992.0</ele><time>2026-04-25T15:53:35.062Z</time></trkpt><trkpt lat="42.2954571" lon="-7.3739857"><ele>994.6</ele><time>2026-04-25T15:53:36.058Z</time></trkpt><trkpt lat="42.2954245" lon="-7.3738302"><ele>997.2</ele><time>2026-04-25T15:53:38.061Z</time></trkpt><trkpt lat="42.2954374" lon="-7.373692"><ele>999.8</ele><time>2026-04-25T15:53:40.057Z</time></trkpt><trkpt lat="42.2954553" lon="-7.3735457"><ele>1002.4</ele><time>2026-04-25T15:53:42.066Z</time></trkpt><trkpt lat="42.2954674" lon="-7.3734218"><ele>1005.0</ele><time>2026-04-25T15:53:44.059Z</time></trkpt><trkpt lat="42.2954825" lon="-7.3732884"><ele>1005.0</ele><time>2026-04-25T15:53:46.06Z</time></trkpt><trkpt lat="42.295485" lon="-7.373151"><ele>1005.0</ele><time>2026-04-25T15:53:48.068Z</time></trkpt><trkpt lat="42.2954951" lon="-7.3730338"><ele>1005.0</ele><time>2026-04-25T15:53:50.058Z</time></trkpt><trkpt lat="42.2954884" lon="-7.3732251"><ele>1005.0</ele><time>2026-04-25T15:53:57.07Z</time></trkpt><trkpt lat="42.2954807" lon="-7.3733644"><ele>1005.0</ele><time>2026-04-25T15:53:58.071Z</time></trkpt><trkpt lat="42.2954663" lon="-7.3735586"><ele>1005.0</ele><time>2026-04-25T15:53:59.051Z</time></trkpt><trkpt lat="42.295446" lon="-7.3737097"><ele>1005.0</ele><time>2026-04-25T15:54:00.057Z</time></trkpt><trkpt lat="42.2954365" lon="-7.3738443"><ele>1005.0</ele><time>2026-04-25T15:54:01.061Z</time></trkpt><trkpt lat="42.295449" lon="-7.3739517"><ele>1005.0</ele><time>2026-04-25T15:54:02.059Z</time></trkpt><trkpt lat="42.29549" lon="-7.3740747"><ele>1005.0</ele><time>2026-04-25T15:54:04.058Z</time></trkpt><trkpt lat="42.2954586" lon="-7.3741518"><ele>1005.0</ele><time>2026-04-25T15:54:08.069Z</time></trkpt><trkpt lat="42.2954019" lon="-7.3741059"><ele>1005.0</ele><time>2026-04-25T15:54:09.059Z</time></trkpt><trkpt lat="42.2953336" lon="-7.3740326"><ele>1005.0</ele><time>2026-04-25T15:54:10.057Z</time></trkpt><trkpt lat="42.2952606" lon="-7.3739432"><ele>1005.0</ele><time>2026-04-25T15:54:11.056Z</time></trkpt><trkpt lat="42.2951938" lon="-7.3738297"><ele>1005.0</ele><time>2026-04-25T15:54:12.057Z</time></trkpt><trkpt lat="42.2951308" lon="-7.3736984"><ele>1005.0</ele><time>2026-04-25T15:54:13.061Z</time></trkpt><trkpt lat="42.2950689" lon="-7.3735674"><ele>1005.0</ele><time>2026-04-25T15:54:14.055Z</time></trkpt><trkpt lat="42.2950133" lon="-7.3734269"><ele>1005.0</ele><time>2026-04-25T15:54:15.061Z</time></trkpt><trkpt lat="42.2949743" lon="-7.3732727"><ele>1005.0</ele><time>2026-04-25T15:54:16.067Z</time></trkpt><trkpt lat="42.2949398" lon="-7.3731194"><ele>1003.4</ele><time>2026-04-25T15:54:17.066Z</time></trkpt><trkpt lat="42.2948898" lon="-7.372998"><ele>1001.8</ele><time>2026-04-25T15:54:18.057Z</time></trkpt><trkpt lat="42.2948192" lon="-7.372906"><ele>1000.2</ele><time>2026-04-25T15:54:19.067Z</time></trkpt><trkpt lat="42.2947224" lon="-7.3728278"><ele>998.6</ele><time>2026-04-25T15:54:20.066Z</time></trkpt><trkpt lat="42.2946041" lon="-7.372754"><ele>997.0</ele><time>2026-04-25T15:54:21.056Z</time></trkpt><trkpt lat="42.294472" lon="-7.3726817"><ele>1001.0</ele><time>2026-04-25T15:54:22.055Z</time></trkpt><trkpt lat="42.2943404" lon="-7.372607"><ele>1005.0</ele><time>2026-04-25T15:54:23.061Z</time></trkpt><trkpt lat="42.2942302" lon="-7.3725266"><ele>1009.0</ele><time>2026-04-25T15:54:24.057Z</time></trkpt><trkpt lat="42.2941305" lon="-7.3724399"><ele>1013.0</ele><time>2026-04-25T15:54:25.064Z</time></trkpt><trkpt lat="42.2940414" lon="-7.372337"><ele>1013.0</ele><time>2026-04-25T15:54:26.06Z</time></trkpt><trkpt lat="42.2939708" lon="-7.3722108"><ele>1013.0</ele><time>2026-04-25T15:54:27.054Z</time></trkpt><trkpt lat="42.2939292" lon="-7.3720595"><ele>1013.0</ele><time>2026-04-25T15:54:28.07Z</time></trkpt><trkpt lat="42.2938967" lon="-7.3718983"><ele>1013.0</ele><time>2026-04-25T15:54:29.057Z</time></trkpt><trkpt lat="42.2938935" lon="-7.3717037"><ele>1017.5</ele><time>2026-04-25T15:54:30.062Z</time></trkpt><trkpt lat="42.2938712" lon="-7.3715362"><ele>1022.0</ele><time>2026-04-25T15:54:31.062Z</time></trkpt><trkpt lat="42.2938428" lon="-7.371363"><ele>1026.5</ele><time>2026-04-25T15:54:32.064Z</time></trkpt><trkpt lat="42.2937997" lon="-7.3711922"><ele>1031.0</ele><time>2026-04-25T15:54:33.068Z</time></trkpt><trkpt lat="42.2937459" lon="-7.3710102"><ele>1031.0</ele><time>2026-04-25T15:54:34.068Z</time></trkpt><trkpt lat="42.2936766" lon="-7.3708304"><ele>1031.0</ele><time>2026-04-25T15:54:35.072Z</time></trkpt><trkpt lat="42.2935919" lon="-7.3706742"><ele>1031.0</ele><time>2026-04-25T15:54:36.067Z</time></trkpt><trkpt lat="42.2934947" lon="-7.3705548"><ele>1031.0</ele><time>2026-04-25T15:54:37.058Z</time></trkpt><trkpt lat="42.2933854" lon="-7.3704752"><ele>1027.0</ele><time>2026-04-25T15:54:38.07Z</time></trkpt><trkpt lat="42.2932635" lon="-7.3704326"><ele>1023.0</ele><time>2026-04-25T15:54:39.067Z</time></trkpt><trkpt lat="42.2931314" lon="-7.3704267"><ele>1019.0</ele><time>2026-04-25T15:54:40.063Z</time></trkpt><trkpt lat="42.2929935" lon="-7.3704598"><ele>1015.0</ele><time>2026-04-25T15:54:41.057Z</time></trkpt><trkpt lat="42.2928549" lon="-7.3705014"><ele>1023.3333333333333</ele><time>2026-04-25T15:54:42.064Z</time></trkpt><trkpt lat="42.2926947" lon="-7.3705528"><ele>1031.6666666666667</ele><time>2026-04-25T15:54:43.06Z</time></trkpt><trkpt lat="42.2925329" lon="-7.3705624"><ele>1040.0</ele><time>2026-04-25T15:54:44.065Z</time></trkpt><trkpt lat="42.2923579" lon="-7.3705615"><ele>1044.6666666666667</ele><time>2026-04-25T15:54:45.061Z</time></trkpt><trkpt lat="42.2921785" lon="-7.370552"><ele>1049.3333333333333</ele><time>2026-04-25T15:54:46.061Z</time></trkpt><trkpt lat="42.2920013" lon="-7.370557"><ele>1054.0</ele><time>2026-04-25T15:54:47.058Z</time></trkpt><trkpt lat="42.2918381" lon="-7.3705488"><ele>1054.0</ele><time>2026-04-25T15:54:48.065Z</time></trkpt><trkpt lat="42.2916797" lon="-7.370528"><ele>1054.0</ele><time>2026-04-25T15:54:49.061Z</time></trkpt><trkpt lat="42.2915371" lon="-7.3704782"><ele>1054.0</ele><time>2026-04-25T15:54:50.058Z</time></trkpt><trkpt lat="42.2914119" lon="-7.3704161"><ele>1054.0</ele><time>2026-04-25T15:54:51.06Z</time></trkpt><trkpt lat="42.291303" lon="-7.37036"><ele>1053.4</ele><time>2026-04-25T15:54:52.071Z</time></trkpt><trkpt lat="42.291204" lon="-7.3703535"><ele>1052.8000000000002</ele><time>2026-04-25T15:54:53.066Z</time></trkpt><trkpt lat="42.2911088" lon="-7.3703926"><ele>1052.1999999999998</ele><time>2026-04-25T15:54:54.058Z</time></trkpt><trkpt lat="42.2910133" lon="-7.3704579"><ele>1051.6</ele><time>2026-04-25T15:54:55.063Z</time></trkpt><trkpt lat="42.2909257" lon="-7.370551"><ele>1051.0</ele><time>2026-04-25T15:54:56.059Z</time></trkpt><trkpt lat="42.2908545" lon="-7.3706516"><ele>1051.0</ele><time>2026-04-25T15:54:57.061Z</time></trkpt><trkpt lat="42.290808" lon="-7.3707883"><ele>1051.0</ele><time>2026-04-25T15:54:58.056Z</time></trkpt><trkpt lat="42.2907821" lon="-7.3709507"><ele>1051.0</ele><time>2026-04-25T15:54:59.062Z</time></trkpt><trkpt lat="42.2907438" lon="-7.3711252"><ele>1051.0</ele><time>2026-04-25T15:55:00.057Z</time></trkpt><trkpt lat="42.2906751" lon="-7.3713055"><ele>1050.0</ele><time>2026-04-25T15:55:01.051Z</time></trkpt><trkpt lat="42.2905806" lon="-7.3714898"><ele>1049.0</ele><time>2026-04-25T15:55:02.054Z</time></trkpt><trkpt lat="42.2904786" lon="-7.3716467"><ele>1048.0</ele><time>2026-04-25T15:55:03.06Z</time></trkpt><trkpt lat="42.2903728" lon="-7.3717656"><ele>1048.0</ele><time>2026-04-25T15:55:04.063Z</time></trkpt><trkpt lat="42.2902719" lon="-7.3718558"><ele>1048.0</ele><time>2026-04-25T15:55:05.065Z</time></trkpt><trkpt lat="42.2901841" lon="-7.3719381"><ele>1048.0</ele><time>2026-04-25T15:55:06.068Z</time></trkpt><trkpt lat="42.2901075" lon="-7.3720284"><ele>1048.0</ele><time>2026-04-25T15:55:07.06Z</time></trkpt><trkpt lat="42.2900496" lon="-7.3721432"><ele>1048.0</ele><time>2026-04-25T15:55:08.063Z</time></trkpt><trkpt lat="42.2900075" lon="-7.3722692"><ele>1051.0</ele><time>2026-04-25T15:55:09.073Z</time></trkpt><trkpt lat="42.2899853" lon="-7.3724203"><ele>1054.0</ele><time>2026-04-25T15:55:10.076Z</time></trkpt><trkpt lat="42.2899732" lon="-7.3725781"><ele>1057.0</ele><time>2026-04-25T15:55:11.058Z</time></trkpt><trkpt lat="42.2899532" lon="-7.3727433"><ele>1060.0</ele><time>2026-04-25T15:55:12.068Z</time></trkpt><trkpt lat="42.2899116" lon="-7.3729044"><ele>1060.25</ele><time>2026-04-25T15:55:13.069Z</time></trkpt><trkpt lat="42.2898419" lon="-7.3730468"><ele>1060.5</ele><time>2026-04-25T15:55:14.069Z</time></trkpt><trkpt lat="42.2897544" lon="-7.3731654"><ele>1060.75</ele><time>2026-04-25T15:55:15.071Z</time></trkpt><trkpt lat="42.2896387" lon="-7.3732582"><ele>1061.0</ele><time>2026-04-25T15:55:16.059Z</time></trkpt><trkpt lat="42.2895323" lon="-7.3733287"><ele>1061.0</ele><time>2026-04-25T15:55:17.062Z</time></trkpt><trkpt lat="42.2894212" lon="-7.373437"><ele>1061.0</ele><time>2026-04-25T15:55:18.066Z</time></trkpt><trkpt lat="42.2893173" lon="-7.3735659"><ele>1061.0</ele><time>2026-04-25T15:55:19.07Z</time></trkpt><trkpt lat="42.289229" lon="-7.3737157"><ele>1061.0</ele><time>2026-04-25T15:55:20.064Z</time></trkpt><trkpt lat="42.28915" lon="-7.3738734"><ele>1063.75</ele><time>2026-04-25T15:55:21.063Z</time></trkpt><trkpt lat="42.2891098" lon="-7.3740409"><ele>1066.5</ele><time>2026-04-25T15:55:22.066Z</time></trkpt><trkpt lat="42.2890841" lon="-7.3741932"><ele>1069.25</ele><time>2026-04-25T15:55:23.062Z</time></trkpt><trkpt lat="42.2891089" lon="-7.3743439"><ele>1072.0</ele><time>2026-04-25T15:55:24.065Z</time></trkpt><trkpt lat="42.289157" lon="-7.3744939"><ele>1072.0</ele><time>2026-04-25T15:55:25.067Z</time></trkpt><trkpt lat="42.2891982" lon="-7.3746469"><ele>1072.0</ele><time>2026-04-25T15:55:26.061Z</time></trkpt><trkpt lat="42.2892088" lon="-7.3747853"><ele>1072.0</ele><time>2026-04-25T15:55:27.062Z</time></trkpt><trkpt lat="42.2891738" lon="-7.3748942"><ele>1072.0</ele><time>2026-04-25T15:55:28.063Z</time></trkpt><trkpt lat="42.2891004" lon="-7.3749768"><ele>1072.0</ele><time>2026-04-25T15:55:29.074Z</time></trkpt><trkpt lat="42.2890125" lon="-7.3750666"><ele>1072.0</ele><time>2026-04-25T15:55:30.061Z</time></trkpt><trkpt lat="42.2889316" lon="-7.3751838"><ele>1072.0</ele><time>2026-04-25T15:55:31.068Z</time></trkpt><trkpt lat="42.2888654" lon="-7.3753116"><ele>1072.0</ele><time>2026-04-25T15:55:32.053Z</time></trkpt><trkpt lat="42.2888071" lon="-7.3754398"><ele>1072.0</ele><time>2026-04-25T15:55:33.068Z</time></trkpt><trkpt lat="42.2887484" lon="-7.375572"><ele>1075.0</ele><time>2026-04-25T15:55:34.065Z</time></trkpt><trkpt lat="42.2886865" lon="-7.3756974"><ele>1078.0</ele><time>2026-04-25T15:55:35.063Z</time></trkpt><trkpt lat="42.2886254" lon="-7.3758116"><ele>1081.0</ele><time>2026-04-25T15:55:36.059Z</time></trkpt><trkpt lat="42.288558" lon="-7.3759153"><ele>1084.0</ele><time>2026-04-25T15:55:37.057Z</time></trkpt><trkpt lat="42.2884559" lon="-7.3759931"><ele>1087.0</ele><time>2026-04-25T15:55:38.055Z</time></trkpt><trkpt lat="42.2883392" lon="-7.3760429"><ele>1087.0</ele><time>2026-04-25T15:55:39.064Z</time></trkpt><trkpt lat="42.2882128" lon="-7.3760773"><ele>1087.0</ele><time>2026-04-25T15:55:40.067Z</time></trkpt><trkpt lat="42.2880712" lon="-7.3761144"><ele>1087.0</ele><time>2026-04-25T15:55:41.064Z</time></trkpt><trkpt lat="42.2879243" lon="-7.376149"><ele>1087.0</ele><time>2026-04-25T15:55:42.061Z</time></trkpt><trkpt lat="42.2877866" lon="-7.3761852"><ele>1087.25</ele><time>2026-04-25T15:55:43.066Z</time></trkpt><trkpt lat="42.2876485" lon="-7.3762172"><ele>1087.5</ele><time>2026-04-25T15:55:44.069Z</time></trkpt><trkpt lat="42.2875096" lon="-7.3762423"><ele>1087.75</ele><time>2026-04-25T15:55:45.066Z</time></trkpt><trkpt lat="42.2873808" lon="-7.3762692"><ele>1088.0</ele><time>2026-04-25T15:55:46.061Z</time></trkpt><trkpt lat="42.287265" lon="-7.3763055"><ele>1087.25</ele><time>2026-04-25T15:55:47.064Z</time></trkpt><trkpt lat="42.2871592" lon="-7.3763597"><ele>1086.5</ele><time>2026-04-25T15:55:48.063Z</time></trkpt><trkpt lat="42.2870616" lon="-7.3764346"><ele>1085.75</ele><time>2026-04-25T15:55:49.068Z</time></trkpt><trkpt lat="42.2869726" lon="-7.3765342"><ele>1085.0</ele><time>2026-04-25T15:55:50.063Z</time></trkpt><trkpt lat="42.286889" lon="-7.37666"><ele>1085.0</ele><time>2026-04-25T15:55:51.067Z</time></trkpt><trkpt lat="42.2868034" lon="-7.3768059"><ele>1085.0</ele><time>2026-04-25T15:55:52.071Z</time></trkpt><trkpt lat="42.2867105" lon="-7.3769694"><ele>1085.0</ele><time>2026-04-25T15:55:53.059Z</time></trkpt><trkpt lat="42.2866079" lon="-7.3771484"><ele>1086.0</ele><time>2026-04-25T15:55:54.066Z</time></trkpt><trkpt lat="42.2865006" lon="-7.3773376"><ele>1087.0</ele><time>2026-04-25T15:55:55.066Z</time></trkpt><trkpt lat="42.2863867" lon="-7.3775381"><ele>1088.0</ele><time>2026-04-25T15:55:56.064Z</time></trkpt><trkpt lat="42.2862767" lon="-7.3777355"><ele>1086.3333333333335</ele><time>2026-04-25T15:55:57.077Z</time></trkpt><trkpt lat="42.2861722" lon="-7.3779233"><ele>1084.6666666666667</ele><time>2026-04-25T15:55:58.059Z</time></trkpt><trkpt lat="42.2860672" lon="-7.378111"><ele>1083.0</ele><time>2026-04-25T15:55:59.071Z</time></trkpt><trkpt lat="42.2859581" lon="-7.3783064"><ele>1083.0</ele><time>2026-04-25T15:56:00.06Z</time></trkpt><trkpt lat="42.2858473" lon="-7.3785079"><ele>1083.0</ele><time>2026-04-25T15:56:01.066Z</time></trkpt><trkpt lat="42.2857331" lon="-7.3787135"><ele>1083.0</ele><time>2026-04-25T15:56:02.062Z</time></trkpt><trkpt lat="42.2856155" lon="-7.3789208"><ele>1081.0</ele><time>2026-04-25T15:56:03.066Z</time></trkpt><trkpt lat="42.2854958" lon="-7.3791282"><ele>1079.0</ele><time>2026-04-25T15:56:04.057Z</time></trkpt><trkpt lat="42.2853734" lon="-7.3793322"><ele>1077.0</ele><time>2026-04-25T15:56:05.064Z</time></trkpt><trkpt lat="42.2852495" lon="-7.3795368"><ele>1080.6666666666667</ele><time>2026-04-25T15:56:06.057Z</time></trkpt><trkpt lat="42.2851343" lon="-7.3797344"><ele>1084.3333333333335</ele><time>2026-04-25T15:56:07.06Z</time></trkpt><trkpt lat="42.2850239" lon="-7.3799295"><ele>1088.0</ele><time>2026-04-25T15:56:08.058Z</time></trkpt><trkpt lat="42.2849129" lon="-7.3801269"><ele>1088.0</ele><time>2026-04-25T15:56:09.057Z</time></trkpt><trkpt lat="42.2847998" lon="-7.3803262"><ele>1088.0</ele><time>2026-04-25T15:56:10.067Z</time></trkpt><trkpt lat="42.2846806" lon="-7.3805375"><ele>1088.0</ele><time>2026-04-25T15:56:11.071Z</time></trkpt><trkpt lat="42.2845568" lon="-7.3807595"><ele>1089.3333333333335</ele><time>2026-04-25T15:56:12.058Z</time></trkpt><trkpt lat="42.2844258" lon="-7.3809903"><ele>1090.6666666666667</ele><time>2026-04-25T15:56:13.063Z</time></trkpt><trkpt lat="42.2842898" lon="-7.3812267"><ele>1092.0</ele><time>2026-04-25T15:56:14.057Z</time></trkpt><trkpt lat="42.2841522" lon="-7.3814637"><ele>1092.0</ele><time>2026-04-25T15:56:15.067Z</time></trkpt><trkpt lat="42.2840216" lon="-7.3816843"><ele>1092.0</ele><time>2026-04-25T15:56:16.061Z</time></trkpt><trkpt lat="42.2839004" lon="-7.3818853"><ele>1092.0</ele><time>2026-04-25T15:56:17.056Z</time></trkpt><trkpt lat="42.2837868" lon="-7.3820688"><ele>1092.3333333333333</ele><time>2026-04-25T15:56:18.061Z</time></trkpt><trkpt lat="42.2836778" lon="-7.3822348"><ele>1092.6666666666665</ele><time>2026-04-25T15:56:19.066Z</time></trkpt><trkpt lat="42.2835704" lon="-7.3823728"><ele>1093.0</ele><time>2026-04-25T15:56:20.056Z</time></trkpt><trkpt lat="42.2834392" lon="-7.3824727"><ele>1093.0</ele><time>2026-04-25T15:56:21.064Z</time></trkpt><trkpt lat="42.2832813" lon="-7.3825483"><ele>1093.0</ele><time>2026-04-25T15:56:22.056Z</time></trkpt><trkpt lat="42.2831169" lon="-7.3826059"><ele>1093.0</ele><time>2026-04-25T15:56:23.064Z</time></trkpt><trkpt lat="42.2829512" lon="-7.3826715"><ele>1090.3333333333333</ele><time>2026-04-25T15:56:24.058Z</time></trkpt><trkpt lat="42.2827691" lon="-7.3827557"><ele>1087.6666666666667</ele><time>2026-04-25T15:56:25.059Z</time></trkpt><trkpt lat="42.2825788" lon="-7.382873"><ele>1085.0</ele><time>2026-04-25T15:56:26.062Z</time></trkpt><trkpt lat="42.2823965" lon="-7.3829974"><ele>1083.0</ele><time>2026-04-25T15:56:27.064Z</time></trkpt><trkpt lat="42.2822251" lon="-7.3831171"><ele>1081.0</ele><time>2026-04-25T15:56:28.069Z</time></trkpt><trkpt lat="42.2820715" lon="-7.3832426"><ele>1079.0</ele><time>2026-04-25T15:56:29.059Z</time></trkpt><trkpt lat="42.2819376" lon="-7.3833804"><ele>1079.0</ele><time>2026-04-25T15:56:30.053Z</time></trkpt><trkpt lat="42.281826" lon="-7.3835421"><ele>1079.0</ele><time>2026-04-25T15:56:31.067Z</time></trkpt><trkpt lat="42.2817238" lon="-7.3837193"><ele>1079.0</ele><time>2026-04-25T15:56:32.059Z</time></trkpt><trkpt lat="42.2815943" lon="-7.3838856"><ele>1078.0</ele><time>2026-04-25T15:56:33.054Z</time></trkpt><trkpt lat="42.2814409" lon="-7.3840201"><ele>1077.0</ele><time>2026-04-25T15:56:34.055Z</time></trkpt><trkpt lat="42.2812807" lon="-7.3841199"><ele>1076.0</ele><time>2026-04-25T15:56:35.055Z</time></trkpt><trkpt lat="42.2811218" lon="-7.3841997"><ele>1076.0</ele><time>2026-04-25T15:56:36.058Z</time></trkpt><trkpt lat="42.2809786" lon="-7.3842895"><ele>1076.0</ele><time>2026-04-25T15:56:37.064Z</time></trkpt><trkpt lat="42.2808589" lon="-7.3844047"><ele>1076.0</ele><time>2026-04-25T15:56:38.065Z</time></trkpt><trkpt lat="42.2807653" lon="-7.3845487"><ele>1076.0</ele><time>2026-04-25T15:56:39.061Z</time></trkpt><trkpt lat="42.2807151" lon="-7.3847224"><ele>1076.3333333333335</ele><time>2026-04-25T15:56:40.065Z</time></trkpt><trkpt lat="42.2806993" lon="-7.3849142"><ele>1076.6666666666667</ele><time>2026-04-25T15:56:41.058Z</time></trkpt><trkpt lat="42.2807134" lon="-7.3851261"><ele>1077.0</ele><time>2026-04-25T15:56:42.058Z</time></trkpt><trkpt lat="42.2807655" lon="-7.3853379"><ele>1074.3333333333333</ele><time>2026-04-25T15:56:43.064Z</time></trkpt><trkpt lat="42.2808471" lon="-7.3855244"><ele>1071.6666666666665</ele><time>2026-04-25T15:56:44.058Z</time></trkpt><trkpt lat="42.2809333" lon="-7.3856927"><ele>1069.0</ele><time>2026-04-25T15:56:45.05Z</time></trkpt><trkpt lat="42.2810444" lon="-7.3858198"><ele>1069.0</ele><time>2026-04-25T15:56:46.059Z</time></trkpt><trkpt lat="42.2811573" lon="-7.385911"><ele>1069.0</ele><time>2026-04-25T15:56:47.056Z</time></trkpt><trkpt lat="42.2812485" lon="-7.3859978"><ele>1069.0</ele><time>2026-04-25T15:56:48.06Z</time></trkpt><trkpt lat="42.2813047" lon="-7.3860906"><ele>1069.0</ele><time>2026-04-25T15:56:49.067Z</time></trkpt><trkpt lat="42.2813369" lon="-7.386199"><ele>1069.0</ele><time>2026-04-25T15:56:50.06Z</time></trkpt><trkpt lat="42.2813222" lon="-7.3863147"><ele>1068.75</ele><time>2026-04-25T15:56:51.063Z</time></trkpt><trkpt lat="42.2812378" lon="-7.3864082"><ele>1068.5</ele><time>2026-04-25T15:56:52.069Z</time></trkpt><trkpt lat="42.2811153" lon="-7.3864806"><ele>1068.25</ele><time>2026-04-25T15:56:53.061Z</time></trkpt><trkpt lat="42.2809629" lon="-7.3865307"><ele>1068.0</ele><time>2026-04-25T15:56:54.053Z</time></trkpt><trkpt lat="42.280801" lon="-7.3865796"><ele>1068.0</ele><time>2026-04-25T15:56:55.056Z</time></trkpt><trkpt lat="42.2806404" lon="-7.386631"><ele>1068.0</ele><time>2026-04-25T15:56:56.053Z</time></trkpt><trkpt lat="42.280478" lon="-7.3866873"><ele>1068.0</ele><time>2026-04-25T15:56:57.062Z</time></trkpt><trkpt lat="42.280306" lon="-7.3867473"><ele>1065.0</ele><time>2026-04-25T15:56:58.058Z</time></trkpt><trkpt lat="42.2801331" lon="-7.3868084"><ele>1062.0</ele><time>2026-04-25T15:56:59.063Z</time></trkpt><trkpt lat="42.279972" lon="-7.3868665"><ele>1059.0</ele><time>2026-04-25T15:57:00.065Z</time></trkpt><trkpt lat="42.2798214" lon="-7.3869199"><ele>1058.6666666666667</ele><time>2026-04-25T15:57:01.061Z</time></trkpt><trkpt lat="42.2796743" lon="-7.3869755"><ele>1058.3333333333335</ele><time>2026-04-25T15:57:02.059Z</time></trkpt><trkpt lat="42.2795281" lon="-7.3870287"><ele>1058.0</ele><time>2026-04-25T15:57:03.056Z</time></trkpt><trkpt lat="42.2793795" lon="-7.3870793"><ele>1058.0</ele><time>2026-04-25T15:57:04.059Z</time></trkpt><trkpt lat="42.2792301" lon="-7.3871295"><ele>1058.0</ele><time>2026-04-25T15:57:05.063Z</time></trkpt><trkpt lat="42.2790796" lon="-7.3871829"><ele>1058.0</ele><time>2026-04-25T15:57:06.057Z</time></trkpt><trkpt lat="42.2789277" lon="-7.3872382"><ele>1059.25</ele><time>2026-04-25T15:57:07.06Z</time></trkpt><trkpt lat="42.278783" lon="-7.3872898"><ele>1060.5</ele><time>2026-04-25T15:57:08.058Z</time></trkpt><trkpt lat="42.2786467" lon="-7.3873368"><ele>1061.75</ele><time>2026-04-25T15:57:09.061Z</time></trkpt><trkpt lat="42.2785063" lon="-7.3873824"><ele>1063.0</ele><time>2026-04-25T15:57:10.061Z</time></trkpt><trkpt lat="42.2783599" lon="-7.387432"><ele>1063.0</ele><time>2026-04-25T15:57:11.057Z</time></trkpt><trkpt lat="42.2782079" lon="-7.38749"><ele>1063.0</ele><time>2026-04-25T15:57:12.063Z</time></trkpt><trkpt lat="42.2780494" lon="-7.3875545"><ele>1063.0</ele><time>2026-04-25T15:57:13.059Z</time></trkpt><trkpt lat="42.2778846" lon="-7.3876232"><ele>1061.0</ele><time>2026-04-25T15:57:14.059Z</time></trkpt><trkpt lat="42.2777132" lon="-7.387695"><ele>1059.0</ele><time>2026-04-25T15:57:15.061Z</time></trkpt><trkpt lat="42.2775337" lon="-7.3877676"><ele>1057.0</ele><time>2026-04-25T15:57:16.065Z</time></trkpt><trkpt lat="42.2773511" lon="-7.387839"><ele>1056.6666666666665</ele><time>2026-04-25T15:57:17.063Z</time></trkpt><trkpt lat="42.2771683" lon="-7.3879089"><ele>1056.3333333333333</ele><time>2026-04-25T15:57:18.058Z</time></trkpt><trkpt lat="42.2769893" lon="-7.3879789"><ele>1056.0</ele><time>2026-04-25T15:57:19.054Z</time></trkpt><trkpt lat="42.2768167" lon="-7.388046"><ele>1056.0</ele><time>2026-04-25T15:57:20.064Z</time></trkpt><trkpt lat="42.2766499" lon="-7.38811"><ele>1056.0</ele><time>2026-04-25T15:57:21.054Z</time></trkpt><trkpt lat="42.2764884" lon="-7.3881712"><ele>1056.0</ele><time>2026-04-25T15:57:22.067Z</time></trkpt><trkpt lat="42.2763324" lon="-7.3882312"><ele>1054.0</ele><time>2026-04-25T15:57:23.066Z</time></trkpt><trkpt lat="42.2761796" lon="-7.3882784"><ele>1052.0</ele><time>2026-04-25T15:57:24.056Z</time></trkpt><trkpt lat="42.2760319" lon="-7.3882791"><ele>1050.0</ele><time>2026-04-25T15:57:25.062Z</time></trkpt><trkpt lat="42.2758935" lon="-7.3882183"><ele>1050.0</ele><time>2026-04-25T15:57:26.058Z</time></trkpt><trkpt lat="42.275769" lon="-7.3881164"><ele>1050.0</ele><time>2026-04-25T15:57:27.059Z</time></trkpt><trkpt lat="42.2756597" lon="-7.3879973"><ele>1050.0</ele><time>2026-04-25T15:57:28.063Z</time></trkpt><trkpt lat="42.2755537" lon="-7.3878835"><ele>1050.0</ele><time>2026-04-25T15:57:29.061Z</time></trkpt><trkpt lat="42.2754436" lon="-7.3877867"><ele>1046.25</ele><time>2026-04-25T15:57:30.054Z</time></trkpt><trkpt lat="42.2753273" lon="-7.387731"><ele>1042.5</ele><time>2026-04-25T15:57:31.058Z</time></trkpt><trkpt lat="42.2752052" lon="-7.3877291"><ele>1038.75</ele><time>2026-04-25T15:57:32.059Z</time></trkpt><trkpt lat="42.2750671" lon="-7.3877708"><ele>1035.0</ele><time>2026-04-25T15:57:33.062Z</time></trkpt><trkpt lat="42.2749113" lon="-7.3878434"><ele>1033.3333333333333</ele><time>2026-04-25T15:57:34.064Z</time></trkpt><trkpt lat="42.2747551" lon="-7.3879257"><ele>1031.6666666666665</ele><time>2026-04-25T15:57:35.059Z</time></trkpt><trkpt lat="42.2746043" lon="-7.3880081"><ele>1030.0</ele><time>2026-04-25T15:57:36.063Z</time></trkpt><trkpt lat="42.2744626" lon="-7.3881009"><ele>1030.0</ele><time>2026-04-25T15:57:37.07Z</time></trkpt><trkpt lat="42.2743374" lon="-7.3882203"><ele>1030.0</ele><time>2026-04-25T15:57:38.077Z</time></trkpt><trkpt lat="42.2742324" lon="-7.3883601"><ele>1030.0</ele><time>2026-04-25T15:57:39.066Z</time></trkpt><trkpt lat="42.274141" lon="-7.3885146"><ele>1030.0</ele><time>2026-04-25T15:57:40.067Z</time></trkpt><trkpt lat="42.2740518" lon="-7.3886834"><ele>1031.5</ele><time>2026-04-25T15:57:41.062Z</time></trkpt><trkpt lat="42.2739675" lon="-7.3888515"><ele>1033.0</ele><time>2026-04-25T15:57:42.067Z</time></trkpt><trkpt lat="42.2738878" lon="-7.3890158"><ele>1034.5</ele><time>2026-04-25T15:57:43.056Z</time></trkpt><trkpt lat="42.2738042" lon="-7.3891798"><ele>1036.0</ele><time>2026-04-25T15:57:44.056Z</time></trkpt><trkpt lat="42.2737179" lon="-7.3893455"><ele>1032.75</ele><time>2026-04-25T15:57:45.054Z</time></trkpt><trkpt lat="42.273631" lon="-7.3895143"><ele>1029.5</ele><time>2026-04-25T15:57:46.067Z</time></trkpt><trkpt lat="42.273547" lon="-7.3896794"><ele>1026.25</ele><time>2026-04-25T15:57:47.06Z</time></trkpt><trkpt lat="42.2734754" lon="-7.3898347"><ele>1023.0</ele><time>2026-04-25T15:57:48.063Z</time></trkpt><trkpt lat="42.2734136" lon="-7.3899842"><ele>1023.0</ele><time>2026-04-25T15:57:49.057Z</time></trkpt><trkpt lat="42.27341" lon="-7.3901405"><ele>1023.0</ele><time>2026-04-25T15:57:50.065Z</time></trkpt><trkpt lat="42.2734501" lon="-7.3902932"><ele>1023.0</ele><time>2026-04-25T15:57:51.06Z</time></trkpt><trkpt lat="42.2735173" lon="-7.3904501"><ele>1023.0</ele><time>2026-04-25T15:57:52.069Z</time></trkpt><trkpt lat="42.2735941" lon="-7.3905944"><ele>1022.25</ele><time>2026-04-25T15:57:53.062Z</time></trkpt><trkpt lat="42.2736539" lon="-7.3907412"><ele>1021.5</ele><time>2026-04-25T15:57:54.068Z</time></trkpt><trkpt lat="42.2737053" lon="-7.3908816"><ele>1020.75</ele><time>2026-04-25T15:57:55.062Z</time></trkpt><trkpt lat="42.2737021" lon="-7.3910321"><ele>1020.0</ele><time>2026-04-25T15:57:56.068Z</time></trkpt><trkpt lat="42.2736451" lon="-7.3911488"><ele>1020.0</ele><time>2026-04-25T15:57:57.061Z</time></trkpt><trkpt lat="42.2735533" lon="-7.3912001"><ele>1020.0</ele><time>2026-04-25T15:57:58.065Z</time></trkpt><trkpt lat="42.2734329" lon="-7.3912378"><ele>1020.0</ele><time>2026-04-25T15:57:59.064Z</time></trkpt><trkpt lat="42.2732882" lon="-7.3912881"><ele>1020.0</ele><time>2026-04-25T15:58:00.057Z</time></trkpt><trkpt lat="42.2731324" lon="-7.3913505"><ele>1019.6666666666667</ele><time>2026-04-25T15:58:01.064Z</time></trkpt><trkpt lat="42.2729594" lon="-7.3914128"><ele>1019.3333333333334</ele><time>2026-04-25T15:58:02.064Z</time></trkpt><trkpt lat="42.2727872" lon="-7.391465"><ele>1019.0</ele><time>2026-04-25T15:58:03.065Z</time></trkpt><trkpt lat="42.2726273" lon="-7.3915093"><ele>1019.0</ele><time>2026-04-25T15:58:04.07Z</time></trkpt><trkpt lat="42.2724763" lon="-7.3915458"><ele>1019.0</ele><time>2026-04-25T15:58:05.061Z</time></trkpt><trkpt lat="42.2723513" lon="-7.3915748"><ele>1019.0</ele><time>2026-04-25T15:58:06.062Z</time></trkpt><trkpt lat="42.272238" lon="-7.3915997"><ele>1019.0</ele><time>2026-04-25T15:58:07.064Z</time></trkpt><trkpt lat="42.2721363" lon="-7.3916218"><ele>1018.6</ele><time>2026-04-25T15:58:08.067Z</time></trkpt><trkpt lat="42.2720505" lon="-7.3916471"><ele>1018.2</ele><time>2026-04-25T15:58:09.072Z</time></trkpt><trkpt lat="42.2719823" lon="-7.3916841"><ele>1017.8000000000001</ele><time>2026-04-25T15:58:10.07Z</time></trkpt><trkpt lat="42.2719015" lon="-7.3917943"><ele>1017.4000000000001</ele><time>2026-04-25T15:58:12.069Z</time></trkpt><trkpt lat="42.2718811" lon="-7.3919489"><ele>1017.0</ele><time>2026-04-25T15:58:14.059Z</time></trkpt><trkpt lat="42.2718848" lon="-7.3920416"><ele>1017.0</ele><time>2026-04-25T15:58:15.066Z</time></trkpt><trkpt lat="42.2718867" lon="-7.3921445"><ele>1017.0</ele><time>2026-04-25T15:58:16.063Z</time></trkpt><trkpt lat="42.2718889" lon="-7.3922589"><ele>1017.0</ele><time>2026-04-25T15:58:17.062Z</time></trkpt><trkpt lat="42.2718937" lon="-7.3923857"><ele>1017.0</ele><time>2026-04-25T15:58:18.056Z</time></trkpt><trkpt lat="42.271897" lon="-7.3925257"><ele>1017.0</ele><time>2026-04-25T15:58:19.066Z</time></trkpt><trkpt lat="42.2718962" lon="-7.3926794"><ele>1018.75</ele><time>2026-04-25T15:58:20.057Z</time></trkpt><trkpt lat="42.271894" lon="-7.3928448"><ele>1020.5</ele><time>2026-04-25T15:58:21.059Z</time></trkpt><trkpt lat="42.2718944" lon="-7.3930058"><ele>1022.25</ele><time>2026-04-25T15:58:22.078Z</time></trkpt><trkpt lat="42.2718987" lon="-7.3931664"><ele>1024.0</ele><time>2026-04-25T15:58:23.064Z</time></trkpt><trkpt lat="42.2719134" lon="-7.3933281"><ele>1025.4</ele><time>2026-04-25T15:58:24.063Z</time></trkpt><trkpt lat="42.2719352" lon="-7.3934791"><ele>1026.8000000000002</ele><time>2026-04-25T15:58:25.065Z</time></trkpt><trkpt lat="42.2719611" lon="-7.3936082"><ele>1028.1999999999998</ele><time>2026-04-25T15:58:26.063Z</time></trkpt><trkpt lat="42.2719934" lon="-7.3937118"><ele>1029.6</ele><time>2026-04-25T15:58:27.07Z</time></trkpt><trkpt lat="42.2720308" lon="-7.3938059"><ele>1031.0</ele><time>2026-04-25T15:58:28.065Z</time></trkpt><trkpt lat="42.2720566" lon="-7.3939111"><ele>1032.0</ele><time>2026-04-25T15:58:29.057Z</time></trkpt><trkpt lat="42.2720674" lon="-7.3940138"><ele>1033.0</ele><time>2026-04-25T15:58:30.066Z</time></trkpt><trkpt lat="42.2720606" lon="-7.3941137"><ele>1034.0</ele><time>2026-04-25T15:58:31.07Z</time></trkpt><trkpt lat="42.2720247" lon="-7.3942569"><ele>1035.0</ele><time>2026-04-25T15:58:33.064Z</time></trkpt><trkpt lat="42.2719756" lon="-7.3943513"><ele>1036.0</ele><time>2026-04-25T15:58:35.06Z</time></trkpt><trkpt lat="42.271876" lon="-7.3944074"><ele>1036.0</ele><time>2026-04-25T15:58:37.089Z</time></trkpt><trkpt lat="42.2717803" lon="-7.3944134"><ele>1036.0</ele><time>2026-04-25T15:58:39.065Z</time></trkpt><trkpt lat="42.2717061" lon="-7.3944545"><ele>1036.0</ele><time>2026-04-25T15:58:41.072Z</time></trkpt><trkpt lat="42.2716116" lon="-7.39453"><ele>1036.0</ele><time>2026-04-25T15:58:43.06Z</time></trkpt><trkpt lat="42.2715372" lon="-7.3945448"><ele>1036.0</ele><time>2026-04-25T15:58:44.068Z</time></trkpt><trkpt lat="42.2714531" lon="-7.3945557"><ele>1036.0</ele><time>2026-04-25T15:58:45.07Z</time></trkpt><trkpt lat="42.2713656" lon="-7.3945644"><ele>1036.1666666666665</ele><time>2026-04-25T15:58:46.065Z</time></trkpt><trkpt lat="42.2712823" lon="-7.394574"><ele>1036.3333333333333</ele><time>2026-04-25T15:58:47.058Z</time></trkpt><trkpt lat="42.2712041" lon="-7.3945837"><ele>1036.5</ele><time>2026-04-25T15:58:48.055Z</time></trkpt><trkpt lat="42.2711292" lon="-7.3945895"><ele>1036.6666666666667</ele><time>2026-04-25T15:58:49.069Z</time></trkpt><trkpt lat="42.2710505" lon="-7.3945929"><ele>1036.8333333333335</ele><time>2026-04-25T15:58:50.059Z</time></trkpt><trkpt lat="42.2709693" lon="-7.3945951"><ele>1037.0</ele><time>2026-04-25T15:58:51.06Z</time></trkpt><trkpt lat="42.2708808" lon="-7.3945884"><ele>1037.0</ele><time>2026-04-25T15:58:52.057Z</time></trkpt><trkpt lat="42.2708017" lon="-7.3945844"><ele>1037.0</ele><time>2026-04-25T15:58:53.071Z</time></trkpt><trkpt lat="42.2707326" lon="-7.3945825"><ele>1037.0</ele><time>2026-04-25T15:58:54.061Z</time></trkpt><trkpt lat="42.2706147" lon="-7.3945764"><ele>1037.0</ele><time>2026-04-25T15:58:56.071Z</time></trkpt><trkpt lat="42.2705155" lon="-7.3946025"><ele>1037.0</ele><time>2026-04-25T15:58:58.062Z</time></trkpt><trkpt lat="42.270472" lon="-7.3946828"><ele>1037.0</ele><time>2026-04-25T15:59:00.068Z</time></trkpt><trkpt lat="42.2704681" lon="-7.3947964"><ele>1039.2</ele><time>2026-04-25T15:59:02.068Z</time></trkpt><trkpt lat="42.2704998" lon="-7.3949592"><ele>1041.4</ele><time>2026-04-25T15:59:04.058Z</time></trkpt><trkpt lat="42.2705231" lon="-7.3950443"><ele>1043.6</ele><time>2026-04-25T15:59:05.06Z</time></trkpt><trkpt lat="42.270549" lon="-7.3951304"><ele>1045.8</ele><time>2026-04-25T15:59:06.064Z</time></trkpt><trkpt lat="42.2705739" lon="-7.3952296"><ele>1048.0</ele><time>2026-04-25T15:59:07.064Z</time></trkpt><trkpt lat="42.2705794" lon="-7.3953831"><ele>1047.8</ele><time>2026-04-25T15:59:09.06Z</time></trkpt><trkpt lat="42.2705135" lon="-7.395535"><ele>1047.6</ele><time>2026-04-25T15:59:11.057Z</time></trkpt><trkpt lat="42.2704706" lon="-7.3956145"><ele>1047.4</ele><time>2026-04-25T15:59:12.054Z</time></trkpt><trkpt lat="42.2704244" lon="-7.3957059"><ele>1047.2</ele><time>2026-04-25T15:59:13.062Z</time></trkpt><trkpt lat="42.2703874" lon="-7.3958085"><ele>1047.0</ele><time>2026-04-25T15:59:14.068Z</time></trkpt><trkpt lat="42.2703572" lon="-7.3959182"><ele>1047.0</ele><time>2026-04-25T15:59:15.056Z</time></trkpt><trkpt lat="42.2703302" lon="-7.396046"><ele>1047.0</ele><time>2026-04-25T15:59:16.073Z</time></trkpt><trkpt lat="42.2703194" lon="-7.3962014"><ele>1047.0</ele><time>2026-04-25T15:59:17.066Z</time></trkpt><trkpt lat="42.2703269" lon="-7.3963818"><ele>1047.0</ele><time>2026-04-25T15:59:18.06Z</time></trkpt><trkpt lat="42.2703175" lon="-7.3965617"><ele>1047.0</ele><time>2026-04-25T15:59:19.065Z</time></trkpt><trkpt lat="42.270294" lon="-7.3967467"><ele>1047.0</ele><time>2026-04-25T15:59:20.068Z</time></trkpt><trkpt lat="42.2702459" lon="-7.3969196"><ele>1047.0</ele><time>2026-04-25T15:59:21.058Z</time></trkpt><trkpt lat="42.2702027" lon="-7.3970745"><ele>1047.0</ele><time>2026-04-25T15:59:22.067Z</time></trkpt><trkpt lat="42.2701695" lon="-7.3972176"><ele>1047.8</ele><time>2026-04-25T15:59:23.066Z</time></trkpt><trkpt lat="42.2701505" lon="-7.3973406"><ele>1048.6</ele><time>2026-04-25T15:59:24.058Z</time></trkpt><trkpt lat="42.2701552" lon="-7.3974489"><ele>1049.3999999999999</ele><time>2026-04-25T15:59:25.058Z</time></trkpt><trkpt lat="42.2701833" lon="-7.3975468"><ele>1050.2</ele><time>2026-04-25T15:59:26.057Z</time></trkpt><trkpt lat="42.2702404" lon="-7.3976459"><ele>1051.0</ele><time>2026-04-25T15:59:27.061Z</time></trkpt><trkpt lat="42.2703285" lon="-7.3977504"><ele>1051.0</ele><time>2026-04-25T15:59:28.055Z</time></trkpt><trkpt lat="42.2704109" lon="-7.3978517"><ele>1051.0</ele><time>2026-04-25T15:59:29.058Z</time></trkpt><trkpt lat="42.270465" lon="-7.397962"><ele>1051.0</ele><time>2026-04-25T15:59:30.065Z</time></trkpt><trkpt lat="42.2705071" lon="-7.3980983"><ele>1051.0</ele><time>2026-04-25T15:59:31.061Z</time></trkpt><trkpt lat="42.2705523" lon="-7.3982667"><ele>1051.75</ele><time>2026-04-25T15:59:32.06Z</time></trkpt><trkpt lat="42.2706106" lon="-7.3984514"><ele>1052.5</ele><time>2026-04-25T15:59:33.066Z</time></trkpt><trkpt lat="42.2706703" lon="-7.3986111"><ele>1053.25</ele><time>2026-04-25T15:59:34.062Z</time></trkpt><trkpt lat="42.270737" lon="-7.3987416"><ele>1054.0</ele><time>2026-04-25T15:59:35.065Z</time></trkpt><trkpt lat="42.2708234" lon="-7.3988507"><ele>1054.5</ele><time>2026-04-25T15:59:36.067Z</time></trkpt><trkpt lat="42.2709324" lon="-7.3989507"><ele>1055.0</ele><time>2026-04-25T15:59:37.059Z</time></trkpt><trkpt lat="42.2710548" lon="-7.3990516"><ele>1055.5</ele><time>2026-04-25T15:59:38.065Z</time></trkpt><trkpt lat="42.2711695" lon="-7.3991659"><ele>1056.0</ele><time>2026-04-25T15:59:39.068Z</time></trkpt><trkpt lat="42.2712747" lon="-7.3993013"><ele>1056.0</ele><time>2026-04-25T15:59:40.064Z</time></trkpt><trkpt lat="42.2713683" lon="-7.3994587"><ele>1056.0</ele><time>2026-04-25T15:59:41.067Z</time></trkpt><trkpt lat="42.2714564" lon="-7.3996451"><ele>1056.0</ele><time>2026-04-25T15:59:42.066Z</time></trkpt><trkpt lat="42.2715437" lon="-7.3998467"><ele>1059.0</ele><time>2026-04-25T15:59:43.066Z</time></trkpt><trkpt lat="42.2716243" lon="-7.4000296"><ele>1062.0</ele><time>2026-04-25T15:59:44.086Z</time></trkpt><trkpt lat="42.2717065" lon="-7.4001907"><ele>1065.0</ele><time>2026-04-25T15:59:45.056Z</time></trkpt><trkpt lat="42.2718" lon="-7.4003462"><ele>1065.0</ele><time>2026-04-25T15:59:46.062Z</time></trkpt><trkpt lat="42.2718936" lon="-7.4004828"><ele>1065.0</ele><time>2026-04-25T15:59:47.062Z</time></trkpt><trkpt lat="42.2719854" lon="-7.4006163"><ele>1065.0</ele><time>2026-04-25T15:59:48.059Z</time></trkpt><trkpt lat="42.2720636" lon="-7.4007374"><ele>1065.0</ele><time>2026-04-25T15:59:49.059Z</time></trkpt><trkpt lat="42.2721153" lon="-7.4008704"><ele>1066.25</ele><time>2026-04-25T15:59:50.071Z</time></trkpt><trkpt lat="42.2721569" lon="-7.4010183"><ele>1067.5</ele><time>2026-04-25T15:59:51.059Z</time></trkpt><trkpt lat="42.2722099" lon="-7.4011847"><ele>1068.75</ele><time>2026-04-25T15:59:52.064Z</time></trkpt><trkpt lat="42.2722528" lon="-7.4013383"><ele>1070.0</ele><time>2026-04-25T15:59:53.068Z</time></trkpt><trkpt lat="42.2722771" lon="-7.4014596"><ele>1071.6</ele><time>2026-04-25T15:59:54.063Z</time></trkpt><trkpt lat="42.2722818" lon="-7.4015533"><ele>1073.2</ele><time>2026-04-25T15:59:55.06Z</time></trkpt><trkpt lat="42.2722281" lon="-7.4017095"><ele>1074.8</ele><time>2026-04-25T15:59:57.06Z</time></trkpt><trkpt lat="42.2721587" lon="-7.4017973"><ele>1076.4</ele><time>2026-04-25T15:59:58.061Z</time></trkpt><trkpt lat="42.2720734" lon="-7.4019017"><ele>1078.0</ele><time>2026-04-25T15:59:59.072Z</time></trkpt><trkpt lat="42.2719768" lon="-7.4020153"><ele>1078.0</ele><time>2026-04-25T16:00:00.062Z</time></trkpt><trkpt lat="42.271891" lon="-7.4021201"><ele>1078.0</ele><time>2026-04-25T16:00:01.057Z</time></trkpt><trkpt lat="42.2718442" lon="-7.4022125"><ele>1078.0</ele><time>2026-04-25T16:00:02.064Z</time></trkpt><trkpt lat="42.2718331" lon="-7.4023029"><ele>1078.0</ele><time>2026-04-25T16:00:03.07Z</time></trkpt><trkpt lat="42.2718258" lon="-7.4024176"><ele>1078.0</ele><time>2026-04-25T16:00:04.066Z</time></trkpt><trkpt lat="42.2718585" lon="-7.4025526"><ele>1079.75</ele><time>2026-04-25T16:00:05.06Z</time></trkpt><trkpt lat="42.2719144" lon="-7.402677"><ele>1081.5</ele><time>2026-04-25T16:00:06.054Z</time></trkpt><trkpt lat="42.2719885" lon="-7.4027947"><ele>1083.25</ele><time>2026-04-25T16:00:07.064Z</time></trkpt><trkpt lat="42.2720672" lon="-7.4029145"><ele>1085.0</ele><time>2026-04-25T16:00:08.065Z</time></trkpt><trkpt lat="42.2721446" lon="-7.4030427"><ele>1086.6</ele><time>2026-04-25T16:00:09.058Z</time></trkpt><trkpt lat="42.2722096" lon="-7.403169"><ele>1088.2</ele><time>2026-04-25T16:00:10.065Z</time></trkpt><trkpt lat="42.2722512" lon="-7.4033086"><ele>1089.8</ele><time>2026-04-25T16:00:11.057Z</time></trkpt><trkpt lat="42.2722717" lon="-7.4034506"><ele>1091.4</ele><time>2026-04-25T16:00:12.064Z</time></trkpt><trkpt lat="42.272285" lon="-7.4035859"><ele>1093.0</ele><time>2026-04-25T16:00:13.058Z</time></trkpt><trkpt lat="42.2723021" lon="-7.4036814"><ele>1094.2</ele><time>2026-04-25T16:00:14.058Z</time></trkpt><trkpt lat="42.2723996" lon="-7.4037868"><ele>1095.4</ele><time>2026-04-25T16:00:16.069Z</time></trkpt><trkpt lat="42.2724851" lon="-7.4038209"><ele>1096.6000000000001</ele><time>2026-04-25T16:00:17.06Z</time></trkpt><trkpt lat="42.2725944" lon="-7.4038676"><ele>1097.8</ele><time>2026-04-25T16:00:18.063Z</time></trkpt><trkpt lat="42.2727036" lon="-7.4039303"><ele>1099.0</ele><time>2026-04-25T16:00:19.063Z</time></trkpt><trkpt lat="42.2728142" lon="-7.4040075"><ele>1102.0</ele><time>2026-04-25T16:00:20.064Z</time></trkpt><trkpt lat="42.2729306" lon="-7.4041003"><ele>1105.0</ele><time>2026-04-25T16:00:21.063Z</time></trkpt><trkpt lat="42.2730326" lon="-7.4042001"><ele>1108.0</ele><time>2026-04-25T16:00:22.063Z</time></trkpt><trkpt lat="42.2731235" lon="-7.4043209"><ele>1111.0</ele><time>2026-04-25T16:00:23.072Z</time></trkpt><trkpt lat="42.2732162" lon="-7.4044472"><ele>1111.75</ele><time>2026-04-25T16:00:24.066Z</time></trkpt><trkpt lat="42.2732833" lon="-7.4045797"><ele>1112.5</ele><time>2026-04-25T16:00:25.064Z</time></trkpt><trkpt lat="42.2733253" lon="-7.4047176"><ele>1113.25</ele><time>2026-04-25T16:00:26.065Z</time></trkpt><trkpt lat="42.2733485" lon="-7.4048697"><ele>1114.0</ele><time>2026-04-25T16:00:27.069Z</time></trkpt><trkpt lat="42.2733484" lon="-7.4050149"><ele>1117.0</ele><time>2026-04-25T16:00:28.081Z</time></trkpt><trkpt lat="42.2733255" lon="-7.4051324"><ele>1120.0</ele><time>2026-04-25T16:00:29.067Z</time></trkpt><trkpt lat="42.2732761" lon="-7.4052565"><ele>1123.0</ele><time>2026-04-25T16:00:30.081Z</time></trkpt><trkpt lat="42.2731993" lon="-7.4053963"><ele>1126.0</ele><time>2026-04-25T16:00:31.072Z</time></trkpt><trkpt lat="42.2731026" lon="-7.405531"><ele>1126.0</ele><time>2026-04-25T16:00:32.078Z</time></trkpt><trkpt lat="42.2729818" lon="-7.4056184"><ele>1126.0</ele><time>2026-04-25T16:00:33.064Z</time></trkpt><trkpt lat="42.2728947" lon="-7.4057164"><ele>1126.0</ele><time>2026-04-25T16:00:34.068Z</time></trkpt><trkpt lat="42.2728167" lon="-7.4058321"><ele>1126.0</ele><time>2026-04-25T16:00:35.059Z</time></trkpt><trkpt lat="42.2727472" lon="-7.405977"><ele>1126.0</ele><time>2026-04-25T16:00:36.071Z</time></trkpt><trkpt lat="42.2726876" lon="-7.4061447"><ele>1126.0</ele><time>2026-04-25T16:00:37.061Z</time></trkpt><trkpt lat="42.2726426" lon="-7.4063149"><ele>1126.0</ele><time>2026-04-25T16:00:38.056Z</time></trkpt><trkpt lat="42.272615" lon="-7.4065045"><ele>1126.0</ele><time>2026-04-25T16:00:39.073Z</time></trkpt><trkpt lat="42.272603" lon="-7.4066839"><ele>1126.8</ele><time>2026-04-25T16:00:40.069Z</time></trkpt><trkpt lat="42.2725965" lon="-7.4068566"><ele>1127.6</ele><time>2026-04-25T16:00:41.064Z</time></trkpt><trkpt lat="42.2725901" lon="-7.4070067"><ele>1128.4</ele><time>2026-04-25T16:00:42.072Z</time></trkpt><trkpt lat="42.2725716" lon="-7.4071307"><ele>1129.2</ele><time>2026-04-25T16:00:43.065Z</time></trkpt><trkpt lat="42.2725155" lon="-7.4072449"><ele>1130.0</ele><time>2026-04-25T16:00:44.067Z</time></trkpt><trkpt lat="42.2724349" lon="-7.4073845"><ele>1130.6666666666667</ele><time>2026-04-25T16:00:45.067Z</time></trkpt><trkpt lat="42.2723351" lon="-7.4075472"><ele>1131.3333333333333</ele><time>2026-04-25T16:00:46.064Z</time></trkpt><trkpt lat="42.2722299" lon="-7.4077169"><ele>1132.0</ele><time>2026-04-25T16:00:47.066Z</time></trkpt><trkpt lat="42.2721441" lon="-7.4078764"><ele>1131.75</ele><time>2026-04-25T16:00:48.069Z</time></trkpt><trkpt lat="42.2720892" lon="-7.408012"><ele>1131.5</ele><time>2026-04-25T16:00:49.058Z</time></trkpt><trkpt lat="42.2720665" lon="-7.4081497"><ele>1131.25</ele><time>2026-04-25T16:00:50.062Z</time></trkpt><trkpt lat="42.2720616" lon="-7.4083151"><ele>1131.0</ele><time>2026-04-25T16:00:51.067Z</time></trkpt><trkpt lat="42.2720729" lon="-7.4085056"><ele>1131.0</ele><time>2026-04-25T16:00:52.064Z</time></trkpt><trkpt lat="42.2720888" lon="-7.4086923"><ele>1131.0</ele><time>2026-04-25T16:00:53.066Z</time></trkpt><trkpt lat="42.2720843" lon="-7.4088642"><ele>1131.0</ele><time>2026-04-25T16:00:54.062Z</time></trkpt><trkpt lat="42.2720537" lon="-7.409029"><ele>1131.0</ele><time>2026-04-25T16:00:55.059Z</time></trkpt><trkpt lat="42.2719974" lon="-7.4091754"><ele>1131.25</ele><time>2026-04-25T16:00:56.064Z</time></trkpt><trkpt lat="42.2719255" lon="-7.4093348"><ele>1131.5</ele><time>2026-04-25T16:00:57.066Z</time></trkpt><trkpt lat="42.2718097" lon="-7.4094567"><ele>1131.75</ele><time>2026-04-25T16:00:58.068Z</time></trkpt><trkpt lat="42.2717217" lon="-7.4095954"><ele>1132.0</ele><time>2026-04-25T16:00:59.065Z</time></trkpt><trkpt lat="42.2716457" lon="-7.4097217"><ele>1132.0</ele><time>2026-04-25T16:01:00.06Z</time></trkpt><trkpt lat="42.2715682" lon="-7.4098276"><ele>1132.0</ele><time>2026-04-25T16:01:01.066Z</time></trkpt><trkpt lat="42.2714893" lon="-7.4099088"><ele>1132.0</ele><time>2026-04-25T16:01:02.068Z</time></trkpt><trkpt lat="42.2714015" lon="-7.4099895"><ele>1132.0</ele><time>2026-04-25T16:01:03.065Z</time></trkpt><trkpt lat="42.2713263" lon="-7.4101109"><ele>1132.0</ele><time>2026-04-25T16:01:04.071Z</time></trkpt><trkpt lat="42.2712492" lon="-7.4102672"><ele>1130.5</ele><time>2026-04-25T16:01:05.061Z</time></trkpt><trkpt lat="42.2711769" lon="-7.4104278"><ele>1129.0</ele><time>2026-04-25T16:01:06.068Z</time></trkpt><trkpt lat="42.2710907" lon="-7.4105819"><ele>1127.5</ele><time>2026-04-25T16:01:07.064Z</time></trkpt><trkpt lat="42.2709743" lon="-7.4107375"><ele>1126.0</ele><time>2026-04-25T16:01:08.063Z</time></trkpt><trkpt lat="42.2708464" lon="-7.4108976"><ele>1126.0</ele><time>2026-04-25T16:01:09.075Z</time></trkpt><trkpt lat="42.2707146" lon="-7.4110572"><ele>1126.0</ele><time>2026-04-25T16:01:10.059Z</time></trkpt><trkpt lat="42.2706031" lon="-7.41122"><ele>1126.0</ele><time>2026-04-25T16:01:11.063Z</time></trkpt><trkpt lat="42.270512" lon="-7.4113932"><ele>1124.0</ele><time>2026-04-25T16:01:12.063Z</time></trkpt><trkpt lat="42.2704374" lon="-7.4115793"><ele>1122.0</ele><time>2026-04-25T16:01:13.058Z</time></trkpt><trkpt lat="42.2703743" lon="-7.4117879"><ele>1120.0</ele><time>2026-04-25T16:01:14.057Z</time></trkpt><trkpt lat="42.2703181" lon="-7.4120277"><ele>1121.0</ele><time>2026-04-25T16:01:15.061Z</time></trkpt><trkpt lat="42.2702655" lon="-7.4122748"><ele>1122.0</ele><time>2026-04-25T16:01:16.063Z</time></trkpt><trkpt lat="42.2702144" lon="-7.4125287"><ele>1123.0</ele><time>2026-04-25T16:01:17.066Z</time></trkpt><trkpt lat="42.2701643" lon="-7.412789"><ele>1123.3333333333333</ele><time>2026-04-25T16:01:18.054Z</time></trkpt><trkpt lat="42.2701234" lon="-7.4130155"><ele>1123.6666666666667</ele><time>2026-04-25T16:01:19.057Z</time></trkpt><trkpt lat="42.2700866" lon="-7.413215"><ele>1124.0</ele><time>2026-04-25T16:01:20.059Z</time></trkpt><trkpt lat="42.270042" lon="-7.4134119"><ele>1124.0</ele><time>2026-04-25T16:01:21.06Z</time></trkpt><trkpt lat="42.269975" lon="-7.4136206"><ele>1124.0</ele><time>2026-04-25T16:01:22.063Z</time></trkpt><trkpt lat="42.2698855" lon="-7.4138459"><ele>1124.0</ele><time>2026-04-25T16:01:23.062Z</time></trkpt><trkpt lat="42.2697744" lon="-7.4140779"><ele>1124.5</ele><time>2026-04-25T16:01:24.065Z</time></trkpt><trkpt lat="42.2696453" lon="-7.4143232"><ele>1125.0</ele><time>2026-04-25T16:01:25.067Z</time></trkpt><trkpt lat="42.2695044" lon="-7.41458"><ele>1124.3333333333333</ele><time>2026-04-25T16:01:26.058Z</time></trkpt><trkpt lat="42.269371" lon="-7.4148274"><ele>1123.6666666666665</ele><time>2026-04-25T16:01:27.067Z</time></trkpt><trkpt lat="42.2692508" lon="-7.4150599"><ele>1123.0</ele><time>2026-04-25T16:01:28.06Z</time></trkpt><trkpt lat="42.2691437" lon="-7.4152813"><ele>1123.0</ele><time>2026-04-25T16:01:29.059Z</time></trkpt><trkpt lat="42.2690501" lon="-7.4154906"><ele>1123.0</ele><time>2026-04-25T16:01:30.062Z</time></trkpt><trkpt lat="42.2689717" lon="-7.4156909"><ele>1123.0</ele><time>2026-04-25T16:01:31.059Z</time></trkpt><trkpt lat="42.2688927" lon="-7.4158861"><ele>1123.0</ele><time>2026-04-25T16:01:32.058Z</time></trkpt><trkpt lat="42.2687995" lon="-7.4160719"><ele>1123.0</ele><time>2026-04-25T16:01:33.061Z</time></trkpt><trkpt lat="42.268698" lon="-7.4162538"><ele>1123.0</ele><time>2026-04-25T16:01:34.061Z</time></trkpt><trkpt lat="42.2685959" lon="-7.4164234"><ele>1123.3333333333333</ele><time>2026-04-25T16:01:35.061Z</time></trkpt><trkpt lat="42.2685091" lon="-7.4165958"><ele>1123.6666666666667</ele><time>2026-04-25T16:01:36.06Z</time></trkpt><trkpt lat="42.268423" lon="-7.4167769"><ele>1124.0</ele><time>2026-04-25T16:01:37.06Z</time></trkpt><trkpt lat="42.2683282" lon="-7.4169475"><ele>1124.0</ele><time>2026-04-25T16:01:38.064Z</time></trkpt><trkpt lat="42.2682135" lon="-7.41712"><ele>1124.0</ele><time>2026-04-25T16:01:39.066Z</time></trkpt><trkpt lat="42.268088" lon="-7.4172894"><ele>1124.0</ele><time>2026-04-25T16:01:40.065Z</time></trkpt><trkpt lat="42.2679696" lon="-7.4174535"><ele>1124.3333333333335</ele><time>2026-04-25T16:01:41.063Z</time></trkpt><trkpt lat="42.2678552" lon="-7.4176299"><ele>1124.6666666666667</ele><time>2026-04-25T16:01:42.062Z</time></trkpt><trkpt lat="42.2677427" lon="-7.41783"><ele>1125.0</ele><time>2026-04-25T16:01:43.06Z</time></trkpt><trkpt lat="42.2676268" lon="-7.4180382"><ele>1127.0</ele><time>2026-04-25T16:01:44.062Z</time></trkpt><trkpt lat="42.2675273" lon="-7.4182558"><ele>1129.0</ele><time>2026-04-25T16:01:45.061Z</time></trkpt><trkpt lat="42.2674073" lon="-7.4185032"><ele>1131.0</ele><time>2026-04-25T16:01:46.069Z</time></trkpt><trkpt lat="42.2672893" lon="-7.418723"><ele>1132.6666666666667</ele><time>2026-04-25T16:01:47.062Z</time></trkpt><trkpt lat="42.2671913" lon="-7.4189272"><ele>1134.3333333333335</ele><time>2026-04-25T16:01:48.063Z</time></trkpt><trkpt lat="42.2671045" lon="-7.4191026"><ele>1136.0</ele><time>2026-04-25T16:01:49.062Z</time></trkpt><trkpt lat="42.2670391" lon="-7.4192597"><ele>1136.0</ele><time>2026-04-25T16:01:50.058Z</time></trkpt><trkpt lat="42.2669925" lon="-7.4194176"><ele>1136.0</ele><time>2026-04-25T16:01:51.062Z</time></trkpt><trkpt lat="42.2669546" lon="-7.4195907"><ele>1136.0</ele><time>2026-04-25T16:01:52.08Z</time></trkpt><trkpt lat="42.2669089" lon="-7.4197753"><ele>1136.0</ele><time>2026-04-25T16:01:53.063Z</time></trkpt><trkpt lat="42.266841" lon="-7.4199755"><ele>1137.3333333333335</ele><time>2026-04-25T16:01:54.069Z</time></trkpt><trkpt lat="42.2667574" lon="-7.4201991"><ele>1138.6666666666667</ele><time>2026-04-25T16:01:55.072Z</time></trkpt><trkpt lat="42.2666599" lon="-7.4204264"><ele>1140.0</ele><time>2026-04-25T16:01:56.062Z</time></trkpt><trkpt lat="42.2665661" lon="-7.4206278"><ele>1140.0</ele><time>2026-04-25T16:01:57.059Z</time></trkpt><trkpt lat="42.2664685" lon="-7.4208219"><ele>1140.0</ele><time>2026-04-25T16:01:58.076Z</time></trkpt><trkpt lat="42.2663811" lon="-7.4210136"><ele>1140.0</ele><time>2026-04-25T16:01:59.071Z</time></trkpt><trkpt lat="42.2662901" lon="-7.4212127"><ele>1140.5</ele><time>2026-04-25T16:02:00.059Z</time></trkpt><trkpt lat="42.2662032" lon="-7.4214049"><ele>1141.0</ele><time>2026-04-25T16:02:01.06Z</time></trkpt><trkpt lat="42.266128" lon="-7.4215697"><ele>1141.5</ele><time>2026-04-25T16:02:02.06Z</time></trkpt><trkpt lat="42.2660734" lon="-7.4217094"><ele>1142.0</ele><time>2026-04-25T16:02:03.062Z</time></trkpt><trkpt lat="42.2660304" lon="-7.4218194"><ele>1142.0</ele><time>2026-04-25T16:02:04.063Z</time></trkpt><trkpt lat="42.2659924" lon="-7.4219067"><ele>1142.0</ele><time>2026-04-25T16:02:05.057Z</time></trkpt><trkpt lat="42.2659231" lon="-7.4220123"><ele>1142.0</ele><time>2026-04-25T16:02:08.057Z</time></trkpt><trkpt lat="42.2658037" lon="-7.4220785"><ele>1142.0</ele><time>2026-04-25T16:02:10.06Z</time></trkpt><trkpt lat="42.2657252" lon="-7.4220936"><ele>1142.0</ele><time>2026-04-25T16:02:11.061Z</time></trkpt><trkpt lat="42.2656263" lon="-7.4220977"><ele>1141.6</ele><time>2026-04-25T16:02:12.07Z</time></trkpt><trkpt lat="42.2655236" lon="-7.4220887"><ele>1141.2</ele><time>2026-04-25T16:02:13.061Z</time></trkpt><trkpt lat="42.2654076" lon="-7.4220734"><ele>1140.8</ele><time>2026-04-25T16:02:14.068Z</time></trkpt><trkpt lat="42.2652911" lon="-7.4220604"><ele>1140.4</ele><time>2026-04-25T16:02:15.065Z</time></trkpt><trkpt lat="42.265181" lon="-7.4220493"><ele>1140.0</ele><time>2026-04-25T16:02:16.061Z</time></trkpt><trkpt lat="42.2650788" lon="-7.4220413"><ele>1140.0</ele><time>2026-04-25T16:02:17.06Z</time></trkpt><trkpt lat="42.2649877" lon="-7.4220449"><ele>1140.0</ele><time>2026-04-25T16:02:18.057Z</time></trkpt><trkpt lat="42.2649032" lon="-7.4220701"><ele>1140.0</ele><time>2026-04-25T16:02:19.059Z</time></trkpt><trkpt lat="42.2648182" lon="-7.4221099"><ele>1140.0</ele><time>2026-04-25T16:02:20.056Z</time></trkpt><trkpt lat="42.2647349" lon="-7.4221664"><ele>1140.0</ele><time>2026-04-25T16:02:21.068Z</time></trkpt><trkpt lat="42.2646574" lon="-7.4222456"><ele>1141.25</ele><time>2026-04-25T16:02:22.063Z</time></trkpt><trkpt lat="42.264588" lon="-7.4223564"><ele>1142.5</ele><time>2026-04-25T16:02:23.06Z</time></trkpt><trkpt lat="42.2645233" lon="-7.4224887"><ele>1143.75</ele><time>2026-04-25T16:02:24.07Z</time></trkpt><trkpt lat="42.2644511" lon="-7.4226391"><ele>1145.0</ele><time>2026-04-25T16:02:25.062Z</time></trkpt><trkpt lat="42.2643727" lon="-7.422803"><ele>1145.0</ele><time>2026-04-25T16:02:26.063Z</time></trkpt><trkpt lat="42.2642876" lon="-7.422979"><ele>1145.0</ele><time>2026-04-25T16:02:27.058Z</time></trkpt><trkpt lat="42.264208" lon="-7.4231497"><ele>1145.0</ele><time>2026-04-25T16:02:28.072Z</time></trkpt><trkpt lat="42.2641374" lon="-7.423314"><ele>1145.0</ele><time>2026-04-25T16:02:29.068Z</time></trkpt><trkpt lat="42.2640813" lon="-7.4234889"><ele>1144.6666666666667</ele><time>2026-04-25T16:02:30.062Z</time></trkpt><trkpt lat="42.2640314" lon="-7.4236784"><ele>1144.3333333333333</ele><time>2026-04-25T16:02:31.06Z</time></trkpt><trkpt lat="42.2639947" lon="-7.4238923"><ele>1144.0</ele><time>2026-04-25T16:02:32.063Z</time></trkpt><trkpt lat="42.2639591" lon="-7.4240998"><ele>1143.6666666666665</ele><time>2026-04-25T16:02:33.062Z</time></trkpt><trkpt lat="42.2639145" lon="-7.4243123"><ele>1143.3333333333333</ele><time>2026-04-25T16:02:34.061Z</time></trkpt><trkpt lat="42.2638709" lon="-7.4245385"><ele>1143.0</ele><time>2026-04-25T16:02:35.061Z</time></trkpt><trkpt lat="42.2638276" lon="-7.4247655"><ele>1143.0</ele><time>2026-04-25T16:02:36.073Z</time></trkpt><trkpt lat="42.2637837" lon="-7.4250051"><ele>1143.0</ele><time>2026-04-25T16:02:37.061Z</time></trkpt><trkpt lat="42.2637387" lon="-7.4252501"><ele>1143.0</ele><time>2026-04-25T16:02:38.06Z</time></trkpt><trkpt lat="42.2636924" lon="-7.4254881"><ele>1143.3333333333333</ele><time>2026-04-25T16:02:39.059Z</time></trkpt><trkpt lat="42.2636484" lon="-7.4257101"><ele>1143.6666666666665</ele><time>2026-04-25T16:02:40.06Z</time></trkpt><trkpt lat="42.2636123" lon="-7.4259161"><ele>1144.0</ele><time>2026-04-25T16:02:41.066Z</time></trkpt><trkpt lat="42.2635781" lon="-7.4261069"><ele>1144.0</ele><time>2026-04-25T16:02:42.061Z</time></trkpt><trkpt lat="42.2635452" lon="-7.4262891"><ele>1144.0</ele><time>2026-04-25T16:02:43.06Z</time></trkpt><trkpt lat="42.2635114" lon="-7.4264645"><ele>1144.0</ele><time>2026-04-25T16:02:44.06Z</time></trkpt><trkpt lat="42.2634708" lon="-7.4266247"><ele>1144.0</ele><time>2026-04-25T16:02:45.073Z</time></trkpt><trkpt lat="42.2634151" lon="-7.4267708"><ele>1144.0</ele><time>2026-04-25T16:02:46.06Z</time></trkpt><trkpt lat="42.2633507" lon="-7.4268958"><ele>1144.0</ele><time>2026-04-25T16:02:47.06Z</time></trkpt><trkpt lat="42.2632913" lon="-7.4270012"><ele>1144.0</ele><time>2026-04-25T16:02:48.068Z</time></trkpt><trkpt lat="42.2632475" lon="-7.4270805"><ele>1144.0</ele><time>2026-04-25T16:02:49.062Z</time></trkpt><trkpt lat="42.2632074" lon="-7.4272022"><ele>1144.0</ele><time>2026-04-25T16:02:51.065Z</time></trkpt><trkpt lat="42.263252" lon="-7.4273623"><ele>1143.75</ele><time>2026-04-25T16:02:53.073Z</time></trkpt><trkpt lat="42.2633186" lon="-7.4274848"><ele>1143.5</ele><time>2026-04-25T16:02:54.07Z</time></trkpt><trkpt lat="42.2633957" lon="-7.4276279"><ele>1143.25</ele><time>2026-04-25T16:02:55.082Z</time></trkpt><trkpt lat="42.2634812" lon="-7.4277933"><ele>1143.0</ele><time>2026-04-25T16:02:56.061Z</time></trkpt><trkpt lat="42.263574" lon="-7.4279655"><ele>1141.5</ele><time>2026-04-25T16:02:57.065Z</time></trkpt><trkpt lat="42.2636605" lon="-7.4281245"><ele>1140.0</ele><time>2026-04-25T16:02:58.066Z</time></trkpt><trkpt lat="42.2637442" lon="-7.4282818"><ele>1138.5</ele><time>2026-04-25T16:02:59.066Z</time></trkpt><trkpt lat="42.2638308" lon="-7.4284508"><ele>1137.0</ele><time>2026-04-25T16:03:00.059Z</time></trkpt><trkpt lat="42.2639152" lon="-7.4286325"><ele>1139.3333333333333</ele><time>2026-04-25T16:03:01.062Z</time></trkpt><trkpt lat="42.2639725" lon="-7.428826"><ele>1141.6666666666665</ele><time>2026-04-25T16:03:02.069Z</time></trkpt><trkpt lat="42.2640058" lon="-7.4290173"><ele>1144.0</ele><time>2026-04-25T16:03:03.061Z</time></trkpt><trkpt lat="42.2640019" lon="-7.4292308"><ele>1144.0</ele><time>2026-04-25T16:03:04.067Z</time></trkpt><trkpt lat="42.2639783" lon="-7.4294695"><ele>1144.0</ele><time>2026-04-25T16:03:05.065Z</time></trkpt><trkpt lat="42.2639456" lon="-7.4297332"><ele>1144.0</ele><time>2026-04-25T16:03:06.061Z</time></trkpt><trkpt lat="42.2639092" lon="-7.4299775"><ele>1144.0</ele><time>2026-04-25T16:03:07.058Z</time></trkpt><trkpt lat="42.2638769" lon="-7.4302096"><ele>1144.0</ele><time>2026-04-25T16:03:08.062Z</time></trkpt><trkpt lat="42.2638486" lon="-7.4304518"><ele>1144.0</ele><time>2026-04-25T16:03:09.063Z</time></trkpt><trkpt lat="42.2638222" lon="-7.4306892"><ele>1144.0</ele><time>2026-04-25T16:03:10.066Z</time></trkpt><trkpt lat="42.2637936" lon="-7.430912"><ele>1144.0</ele><time>2026-04-25T16:03:11.063Z</time></trkpt><trkpt lat="42.2637534" lon="-7.431135"><ele>1144.0</ele><time>2026-04-25T16:03:12.059Z</time></trkpt><trkpt lat="42.2636977" lon="-7.4313676"><ele>1145.6666666666665</ele><time>2026-04-25T16:03:13.059Z</time></trkpt><trkpt lat="42.263633" lon="-7.4316055"><ele>1147.3333333333333</ele><time>2026-04-25T16:03:14.07Z</time></trkpt><trkpt lat="42.2635647" lon="-7.4318526"><ele>1149.0</ele><time>2026-04-25T16:03:15.062Z</time></trkpt><trkpt lat="42.2634905" lon="-7.4321055"><ele>1150.3333333333333</ele><time>2026-04-25T16:03:16.063Z</time></trkpt><trkpt lat="42.2634175" lon="-7.4323555"><ele>1151.6666666666665</ele><time>2026-04-25T16:03:17.065Z</time></trkpt><trkpt lat="42.2633476" lon="-7.4325951"><ele>1153.0</ele><time>2026-04-25T16:03:18.062Z</time></trkpt><trkpt lat="42.2632824" lon="-7.4328326"><ele>1153.6666666666665</ele><time>2026-04-25T16:03:19.058Z</time></trkpt><trkpt lat="42.2632131" lon="-7.4330713"><ele>1154.3333333333333</ele><time>2026-04-25T16:03:20.064Z</time></trkpt><trkpt lat="42.263143" lon="-7.4333135"><ele>1155.0</ele><time>2026-04-25T16:03:21.063Z</time></trkpt><trkpt lat="42.2630735" lon="-7.4335531"><ele>1155.0</ele><time>2026-04-25T16:03:22.06Z</time></trkpt><trkpt lat="42.2630033" lon="-7.4337917"><ele>1155.0</ele><time>2026-04-25T16:03:23.06Z</time></trkpt><trkpt lat="42.2629351" lon="-7.434028"><ele>1155.0</ele><time>2026-04-25T16:03:24.067Z</time></trkpt><trkpt lat="42.2628722" lon="-7.4342501"><ele>1155.0</ele><time>2026-04-25T16:03:25.059Z</time></trkpt><trkpt lat="42.2628115" lon="-7.4344608"><ele>1155.0</ele><time>2026-04-25T16:03:26.062Z</time></trkpt><trkpt lat="42.2627486" lon="-7.4346736"><ele>1155.0</ele><time>2026-04-25T16:03:27.064Z</time></trkpt><trkpt lat="42.2626883" lon="-7.4348886"><ele>1155.3333333333333</ele><time>2026-04-25T16:03:28.065Z</time></trkpt><trkpt lat="42.2626301" lon="-7.4350975"><ele>1155.6666666666665</ele><time>2026-04-25T16:03:29.058Z</time></trkpt><trkpt lat="42.262568" lon="-7.4353037"><ele>1156.0</ele><time>2026-04-25T16:03:30.067Z</time></trkpt><trkpt lat="42.2625028" lon="-7.4355084"><ele>1157.5</ele><time>2026-04-25T16:03:31.061Z</time></trkpt><trkpt lat="42.2624425" lon="-7.4356995"><ele>1159.0</ele><time>2026-04-25T16:03:32.069Z</time></trkpt><trkpt lat="42.2623892" lon="-7.4358762"><ele>1160.5</ele><time>2026-04-25T16:03:33.059Z</time></trkpt><trkpt lat="42.2623424" lon="-7.4360396"><ele>1162.0</ele><time>2026-04-25T16:03:34.065Z</time></trkpt><trkpt lat="42.2623036" lon="-7.4361952"><ele>1162.2</ele><time>2026-04-25T16:03:35.071Z</time></trkpt><trkpt lat="42.2622776" lon="-7.436346"><ele>1162.4</ele><time>2026-04-25T16:03:36.067Z</time></trkpt><trkpt lat="42.2622729" lon="-7.4364911"><ele>1162.6</ele><time>2026-04-25T16:03:37.071Z</time></trkpt><trkpt lat="42.2622846" lon="-7.4366209"><ele>1162.8</ele><time>2026-04-25T16:03:38.062Z</time></trkpt><trkpt lat="42.2622973" lon="-7.4367239"><ele>1163.0</ele><time>2026-04-25T16:03:39.059Z</time></trkpt><trkpt lat="42.2622921" lon="-7.4368669"><ele>1163.0</ele><time>2026-04-25T16:03:41.063Z</time></trkpt><trkpt lat="42.2622706" lon="-7.4369822"><ele>1163.0</ele><time>2026-04-25T16:03:43.072Z</time></trkpt><trkpt lat="42.2622065" lon="-7.4370296"><ele>1163.0</ele><time>2026-04-25T16:22:47.044Z</time></trkpt><trkpt lat="42.2621253" lon="-7.4370498"><ele>1163.0</ele><time>2026-04-25T16:22:49.053Z</time></trkpt><trkpt lat="42.2620217" lon="-7.4370862"><ele>1163.0</ele><time>2026-04-25T16:22:51.062Z</time></trkpt><trkpt lat="42.2619215" lon="-7.4371152"><ele>1163.5</ele><time>2026-04-25T16:22:53.062Z</time></trkpt><trkpt lat="42.261859" lon="-7.4371433"><ele>1164.0</ele><time>2026-04-25T16:22:54.059Z</time></trkpt><trkpt lat="42.2617883" lon="-7.4371799"><ele>1164.5</ele><time>2026-04-25T16:22:55.062Z</time></trkpt><trkpt lat="42.2617044" lon="-7.4372218"><ele>1165.0</ele><time>2026-04-25T16:22:56.057Z</time></trkpt><trkpt lat="42.2616174" lon="-7.4372579"><ele>1165.5</ele><time>2026-04-25T16:22:57.061Z</time></trkpt><trkpt lat="42.2615395" lon="-7.4372881"><ele>1166.0</ele><time>2026-04-25T16:22:58.06Z</time></trkpt><trkpt lat="42.2614508" lon="-7.4373222"><ele>1166.0</ele><time>2026-04-25T16:22:59.054Z</time></trkpt><trkpt lat="42.2613576" lon="-7.4373687"><ele>1166.0</ele><time>2026-04-25T16:23:00.058Z</time></trkpt><trkpt lat="42.2612687" lon="-7.4374314"><ele>1166.0</ele><time>2026-04-25T16:23:01.057Z</time></trkpt><trkpt lat="42.2611747" lon="-7.4375106"><ele>1166.0</ele><time>2026-04-25T16:23:02.057Z</time></trkpt><trkpt lat="42.2610839" lon="-7.4375893"><ele>1166.0</ele><time>2026-04-25T16:23:03.061Z</time></trkpt><trkpt lat="42.2609903" lon="-7.4376592"><ele>1166.0</ele><time>2026-04-25T16:23:04.065Z</time></trkpt><trkpt lat="42.2608921" lon="-7.4377209"><ele>1166.0</ele><time>2026-04-25T16:23:05.067Z</time></trkpt><trkpt lat="42.2607871" lon="-7.4377863"><ele>1166.0</ele><time>2026-04-25T16:23:06.066Z</time></trkpt><trkpt lat="42.2606788" lon="-7.4378514"><ele>1166.0</ele><time>2026-04-25T16:23:07.061Z</time></trkpt><trkpt lat="42.2605675" lon="-7.4379234"><ele>1165.75</ele><time>2026-04-25T16:23:08.063Z</time></trkpt><trkpt lat="42.2604615" lon="-7.4380022"><ele>1165.5</ele><time>2026-04-25T16:23:09.068Z</time></trkpt><trkpt lat="42.2603511" lon="-7.4380874"><ele>1165.25</ele><time>2026-04-25T16:23:10.069Z</time></trkpt><trkpt lat="42.2602504" lon="-7.4381681"><ele>1165.0</ele><time>2026-04-25T16:23:11.058Z</time></trkpt><trkpt lat="42.2601465" lon="-7.4382521"><ele>1165.0</ele><time>2026-04-25T16:23:12.068Z</time></trkpt><trkpt lat="42.2600414" lon="-7.438332"><ele>1165.0</ele><time>2026-04-25T16:23:13.058Z</time></trkpt><trkpt lat="42.2599302" lon="-7.4384102"><ele>1165.0</ele><time>2026-04-25T16:23:14.065Z</time></trkpt><trkpt lat="42.2598135" lon="-7.4384849"><ele>1165.0</ele><time>2026-04-25T16:23:15.069Z</time></trkpt><trkpt lat="42.2596955" lon="-7.438557"><ele>1165.5</ele><time>2026-04-25T16:23:16.066Z</time></trkpt><trkpt lat="42.259579" lon="-7.4386314"><ele>1166.0</ele><time>2026-04-25T16:23:17.061Z</time></trkpt><trkpt lat="42.2594645" lon="-7.4387051"><ele>1166.5</ele><time>2026-04-25T16:23:18.064Z</time></trkpt><trkpt lat="42.2593496" lon="-7.4387756"><ele>1167.0</ele><time>2026-04-25T16:23:19.059Z</time></trkpt><trkpt lat="42.2592336" lon="-7.4388561"><ele>1167.75</ele><time>2026-04-25T16:23:20.066Z</time></trkpt><trkpt lat="42.259119" lon="-7.4389505"><ele>1168.5</ele><time>2026-04-25T16:23:21.064Z</time></trkpt><trkpt lat="42.2590043" lon="-7.4390585"><ele>1169.25</ele><time>2026-04-25T16:23:22.064Z</time></trkpt><trkpt lat="42.2588885" lon="-7.439178"><ele>1170.0</ele><time>2026-04-25T16:23:23.052Z</time></trkpt><trkpt lat="42.2587723" lon="-7.4393059"><ele>1171.25</ele><time>2026-04-25T16:23:24.057Z</time></trkpt><trkpt lat="42.2586657" lon="-7.4394232"><ele>1172.5</ele><time>2026-04-25T16:23:25.059Z</time></trkpt><trkpt lat="42.258576" lon="-7.4395312"><ele>1173.75</ele><time>2026-04-25T16:23:26.061Z</time></trkpt><trkpt lat="42.258492" lon="-7.4396502"><ele>1175.0</ele><time>2026-04-25T16:23:27.071Z</time></trkpt><trkpt lat="42.2584274" lon="-7.4397661"><ele>1175.4</ele><time>2026-04-25T16:23:28.062Z</time></trkpt><trkpt lat="42.2583815" lon="-7.4398876"><ele>1175.8</ele><time>2026-04-25T16:23:29.056Z</time></trkpt><trkpt lat="42.2583528" lon="-7.4400138"><ele>1176.2</ele><time>2026-04-25T16:23:30.063Z</time></trkpt><trkpt lat="42.2583245" lon="-7.4401226"><ele>1176.6</ele><time>2026-04-25T16:23:31.065Z</time></trkpt><trkpt lat="42.2582785" lon="-7.4402152"><ele>1177.0</ele><time>2026-04-25T16:23:32.06Z</time></trkpt><trkpt lat="42.2582088" lon="-7.4403061"><ele>1178.5</ele><time>2026-04-25T16:23:33.069Z</time></trkpt><trkpt lat="42.2581109" lon="-7.4404053"><ele>1180.0</ele><time>2026-04-25T16:23:34.061Z</time></trkpt><trkpt lat="42.2580003" lon="-7.4405134"><ele>1181.5</ele><time>2026-04-25T16:23:35.07Z</time></trkpt><trkpt lat="42.2578976" lon="-7.4406245"><ele>1183.0</ele><time>2026-04-25T16:23:36.067Z</time></trkpt><trkpt lat="42.2577886" lon="-7.4407471"><ele>1183.5</ele><time>2026-04-25T16:23:37.07Z</time></trkpt><trkpt lat="42.2576656" lon="-7.4408692"><ele>1184.0</ele><time>2026-04-25T16:23:38.068Z</time></trkpt><trkpt lat="42.2575365" lon="-7.440968"><ele>1184.5</ele><time>2026-04-25T16:23:39.064Z</time></trkpt><trkpt lat="42.257415" lon="-7.4410477"><ele>1185.0</ele><time>2026-04-25T16:23:40.059Z</time></trkpt><trkpt lat="42.2573009" lon="-7.4411359"><ele>1185.5</ele><time>2026-04-25T16:23:41.057Z</time></trkpt><trkpt lat="42.2572011" lon="-7.4412203"><ele>1186.0</ele><time>2026-04-25T16:23:42.067Z</time></trkpt><trkpt lat="42.2571089" lon="-7.4413045"><ele>1186.5</ele><time>2026-04-25T16:23:43.072Z</time></trkpt><trkpt lat="42.2570075" lon="-7.4413967"><ele>1187.0</ele><time>2026-04-25T16:23:44.06Z</time></trkpt><trkpt lat="42.2569104" lon="-7.4414579"><ele>1187.0</ele><time>2026-04-25T16:23:45.054Z</time></trkpt><trkpt lat="42.2568319" lon="-7.4415004"><ele>1187.0</ele><time>2026-04-25T16:23:46.067Z</time></trkpt><trkpt lat="42.256772" lon="-7.4415473"><ele>1187.0</ele><time>2026-04-25T16:23:47.058Z</time></trkpt><trkpt lat="42.256708" lon="-7.4415976"><ele>1187.0</ele><time>2026-04-25T16:23:48.065Z</time></trkpt><trkpt lat="42.2566487" lon="-7.4417097"><ele>1187.0</ele><time>2026-04-25T16:23:49.09Z</time></trkpt><trkpt lat="42.2566009" lon="-7.4418197"><ele>1187.0</ele><time>2026-04-25T16:23:50.069Z</time></trkpt><trkpt lat="42.2565452" lon="-7.4419498"><ele>1187.0</ele><time>2026-04-25T16:23:51.055Z</time></trkpt><trkpt lat="42.2564758" lon="-7.4420891"><ele>1187.0</ele><time>2026-04-25T16:23:52.063Z</time></trkpt><trkpt lat="42.2564053" lon="-7.4422086"><ele>1187.0</ele><time>2026-04-25T16:23:53.069Z</time></trkpt><trkpt lat="42.2563216" lon="-7.4423202"><ele>1187.0</ele><time>2026-04-25T16:23:54.061Z</time></trkpt><trkpt lat="42.2562157" lon="-7.4424188"><ele>1186.75</ele><time>2026-04-25T16:23:55.061Z</time></trkpt><trkpt lat="42.2560845" lon="-7.4425202"><ele>1186.5</ele><time>2026-04-25T16:23:56.066Z</time></trkpt><trkpt lat="42.2559515" lon="-7.4426192"><ele>1186.25</ele><time>2026-04-25T16:23:57.074Z</time></trkpt><trkpt lat="42.2558243" lon="-7.4427093"><ele>1186.0</ele><time>2026-04-25T16:23:58.065Z</time></trkpt><trkpt lat="42.2557004" lon="-7.4427923"><ele>1186.0</ele><time>2026-04-25T16:23:59.057Z</time></trkpt><trkpt lat="42.255575" lon="-7.4428651"><ele>1186.0</ele><time>2026-04-25T16:24:00.063Z</time></trkpt><trkpt lat="42.255454" lon="-7.4429167"><ele>1186.0</ele><time>2026-04-25T16:24:01.063Z</time></trkpt><trkpt lat="42.2553392" lon="-7.4429541"><ele>1186.0</ele><time>2026-04-25T16:24:02.067Z</time></trkpt><trkpt lat="42.2552312" lon="-7.4429869"><ele>1186.0</ele><time>2026-04-25T16:24:03.061Z</time></trkpt><trkpt lat="42.2551318" lon="-7.4430166"><ele>1186.0</ele><time>2026-04-25T16:24:04.054Z</time></trkpt><trkpt lat="42.2550507" lon="-7.4430363"><ele>1186.0</ele><time>2026-04-25T16:24:05.056Z</time></trkpt><trkpt lat="42.2549807" lon="-7.4430532"><ele>1186.0</ele><time>2026-04-25T16:24:06.062Z</time></trkpt><trkpt lat="42.2549173" lon="-7.4430411"><ele>1186.0</ele><time>2026-04-25T16:24:07.065Z</time></trkpt><trkpt lat="42.254857" lon="-7.4429886"><ele>1186.0</ele><time>2026-04-25T16:24:08.064Z</time></trkpt><trkpt lat="42.2547854" lon="-7.4429163"><ele>1186.0</ele><time>2026-04-25T16:24:09.064Z</time></trkpt><trkpt lat="42.254711" lon="-7.4428325"><ele>1186.0</ele><time>2026-04-25T16:24:10.059Z</time></trkpt><trkpt lat="42.2546222" lon="-7.4427472"><ele>1186.0</ele><time>2026-04-25T16:24:11.054Z</time></trkpt><trkpt lat="42.2545277" lon="-7.4426566"><ele>1186.0</ele><time>2026-04-25T16:24:12.064Z</time></trkpt><trkpt lat="42.2544195" lon="-7.4425804"><ele>1186.0</ele><time>2026-04-25T16:24:13.062Z</time></trkpt><trkpt lat="42.2543136" lon="-7.4425243"><ele>1186.0</ele><time>2026-04-25T16:24:14.063Z</time></trkpt><trkpt lat="42.2541956" lon="-7.4424585"><ele>1186.0</ele><time>2026-04-25T16:24:15.062Z</time></trkpt><trkpt lat="42.2540718" lon="-7.4423905"><ele>1186.0</ele><time>2026-04-25T16:24:16.062Z</time></trkpt><trkpt lat="42.2539402" lon="-7.4423171"><ele>1186.0</ele><time>2026-04-25T16:24:17.063Z</time></trkpt><trkpt lat="42.2538016" lon="-7.4422412"><ele>1187.0</ele><time>2026-04-25T16:24:18.058Z</time></trkpt><trkpt lat="42.2536687" lon="-7.4421663"><ele>1188.0</ele><time>2026-04-25T16:24:19.068Z</time></trkpt><trkpt lat="42.2535504" lon="-7.4420913"><ele>1189.0</ele><time>2026-04-25T16:24:20.058Z</time></trkpt><trkpt lat="42.2534359" lon="-7.4420113"><ele>1190.0</ele><time>2026-04-25T16:24:21.065Z</time></trkpt><trkpt lat="42.2533108" lon="-7.4419192"><ele>1190.0</ele><time>2026-04-25T16:24:22.078Z</time></trkpt><trkpt lat="42.2531769" lon="-7.4418166"><ele>1190.0</ele><time>2026-04-25T16:24:23.06Z</time></trkpt><trkpt lat="42.2530349" lon="-7.4417052"><ele>1190.0</ele><time>2026-04-25T16:24:24.055Z</time></trkpt><trkpt lat="42.2528903" lon="-7.4415952"><ele>1191.25</ele><time>2026-04-25T16:24:25.063Z</time></trkpt><trkpt lat="42.2527603" lon="-7.4414986"><ele>1192.5</ele><time>2026-04-25T16:24:26.068Z</time></trkpt><trkpt lat="42.2526366" lon="-7.4414181"><ele>1193.75</ele><time>2026-04-25T16:24:27.056Z</time></trkpt><trkpt lat="42.2525091" lon="-7.4413445"><ele>1195.0</ele><time>2026-04-25T16:24:28.061Z</time></trkpt><trkpt lat="42.2523719" lon="-7.4412795"><ele>1196.25</ele><time>2026-04-25T16:24:29.074Z</time></trkpt><trkpt lat="42.252238" lon="-7.4412215"><ele>1197.5</ele><time>2026-04-25T16:24:30.063Z</time></trkpt><trkpt lat="42.2521087" lon="-7.4411624"><ele>1198.75</ele><time>2026-04-25T16:24:31.061Z</time></trkpt><trkpt lat="42.2519779" lon="-7.4410959"><ele>1200.0</ele><time>2026-04-25T16:24:32.058Z</time></trkpt><trkpt lat="42.2518405" lon="-7.4410279"><ele>1200.0</ele><time>2026-04-25T16:24:33.061Z</time></trkpt><trkpt lat="42.2516963" lon="-7.4409632"><ele>1200.0</ele><time>2026-04-25T16:24:34.065Z</time></trkpt><trkpt lat="42.2515476" lon="-7.4409005"><ele>1200.0</ele><time>2026-04-25T16:24:35.059Z</time></trkpt><trkpt lat="42.2514018" lon="-7.4408421"><ele>1200.75</ele><time>2026-04-25T16:24:36.065Z</time></trkpt><trkpt lat="42.2512596" lon="-7.4407845"><ele>1201.5</ele><time>2026-04-25T16:24:37.062Z</time></trkpt><trkpt lat="42.2511135" lon="-7.4407231"><ele>1202.25</ele><time>2026-04-25T16:24:38.061Z</time></trkpt><trkpt lat="42.2509742" lon="-7.4406656"><ele>1203.0</ele><time>2026-04-25T16:24:39.055Z</time></trkpt><trkpt lat="42.2508492" lon="-7.4406154"><ele>1203.0</ele><time>2026-04-25T16:24:40.066Z</time></trkpt><trkpt lat="42.2507378" lon="-7.4405617"><ele>1203.0</ele><time>2026-04-25T16:24:41.07Z</time></trkpt><trkpt lat="42.2506348" lon="-7.4404958"><ele>1203.0</ele><time>2026-04-25T16:24:42.068Z</time></trkpt><trkpt lat="42.2505399" lon="-7.4404123"><ele>1203.0</ele><time>2026-04-25T16:24:43.058Z</time></trkpt><trkpt lat="42.2504483" lon="-7.4403085"><ele>1204.4</ele><time>2026-04-25T16:24:44.067Z</time></trkpt><trkpt lat="42.2503587" lon="-7.4401997"><ele>1205.8</ele><time>2026-04-25T16:24:45.068Z</time></trkpt><trkpt lat="42.2502748" lon="-7.4400987"><ele>1207.2</ele><time>2026-04-25T16:24:46.064Z</time></trkpt><trkpt lat="42.2502037" lon="-7.4400055"><ele>1208.6</ele><time>2026-04-25T16:24:47.058Z</time></trkpt><trkpt lat="42.2501488" lon="-7.4399089"><ele>1210.0</ele><time>2026-04-25T16:24:48.07Z</time></trkpt><trkpt lat="42.2501059" lon="-7.4398051"><ele>1210.0</ele><time>2026-04-25T16:24:49.062Z</time></trkpt><trkpt lat="42.2500573" lon="-7.4396981"><ele>1210.0</ele><time>2026-04-25T16:24:50.06Z</time></trkpt><trkpt lat="42.2499951" lon="-7.4395948"><ele>1210.0</ele><time>2026-04-25T16:24:51.061Z</time></trkpt><trkpt lat="42.249937" lon="-7.4395228"><ele>1210.0</ele><time>2026-04-25T16:24:52.075Z</time></trkpt><trkpt lat="42.2498827" lon="-7.4394774"><ele>1210.0</ele><time>2026-04-25T16:24:53.062Z</time></trkpt><trkpt lat="42.2498217" lon="-7.4394411"><ele>1210.0</ele><time>2026-04-25T16:24:54.06Z</time></trkpt><trkpt lat="42.2497423" lon="-7.4394056"><ele>1210.8</ele><time>2026-04-25T16:24:55.07Z</time></trkpt><trkpt lat="42.2496446" lon="-7.4393692"><ele>1211.6</ele><time>2026-04-25T16:24:56.058Z</time></trkpt><trkpt lat="42.2495326" lon="-7.439334"><ele>1212.4</ele><time>2026-04-25T16:24:57.065Z</time></trkpt><trkpt lat="42.2494168" lon="-7.4392988"><ele>1213.2</ele><time>2026-04-25T16:24:58.059Z</time></trkpt><trkpt lat="42.249312" lon="-7.4392668"><ele>1214.0</ele><time>2026-04-25T16:24:59.061Z</time></trkpt><trkpt lat="42.2492242" lon="-7.4392431"><ele>1214.0</ele><time>2026-04-25T16:25:00.064Z</time></trkpt><trkpt lat="42.2491494" lon="-7.4392244"><ele>1214.0</ele><time>2026-04-25T16:25:01.058Z</time></trkpt><trkpt lat="42.2490267" lon="-7.4392058"><ele>1214.0</ele><time>2026-04-25T16:25:03.055Z</time></trkpt><trkpt lat="42.2489628" lon="-7.4391924"><ele>1214.0</ele><time>2026-04-25T16:25:04.067Z</time></trkpt><trkpt lat="42.2488996" lon="-7.4391773"><ele>1214.0</ele><time>2026-04-25T16:25:05.064Z</time></trkpt><trkpt lat="42.2488345" lon="-7.4391611"><ele>1214.0</ele><time>2026-04-25T16:25:06.063Z</time></trkpt><trkpt lat="42.2487702" lon="-7.4391461"><ele>1215.5</ele><time>2026-04-25T16:25:07.059Z</time></trkpt><trkpt lat="42.2486746" lon="-7.4391156"><ele>1217.0</ele><time>2026-04-25T16:25:09.057Z</time></trkpt><trkpt lat="42.2485496" lon="-7.4391306"><ele>1218.5</ele><time>2026-04-25T16:25:26.06Z</time></trkpt><trkpt lat="42.2484483" lon="-7.4391243"><ele>1220.0</ele><time>2026-04-25T16:26:07.076Z</time></trkpt><trkpt lat="42.2483135" lon="-7.4391364"><ele>1220.0</ele><time>2026-04-25T16:26:09.06Z</time></trkpt><trkpt lat="42.2482299" lon="-7.4391509"><ele>1220.0</ele><time>2026-04-25T16:26:10.073Z</time></trkpt><trkpt lat="42.2481324" lon="-7.4391633"><ele>1220.0</ele><time>2026-04-25T16:26:11.067Z</time></trkpt><trkpt lat="42.2480144" lon="-7.439223"><ele>1220.0</ele><time>2026-04-25T16:26:12.071Z</time></trkpt><trkpt lat="42.2478917" lon="-7.4393046"><ele>1220.0</ele><time>2026-04-25T16:26:13.063Z</time></trkpt><trkpt lat="42.2477943" lon="-7.4393785"><ele>1222.0</ele><time>2026-04-25T16:26:14.069Z</time></trkpt><trkpt lat="42.247707" lon="-7.4394355"><ele>1224.0</ele><time>2026-04-25T16:26:15.062Z</time></trkpt><trkpt lat="42.2476151" lon="-7.4394781"><ele>1226.0</ele><time>2026-04-25T16:26:16.058Z</time></trkpt><trkpt lat="42.2475158" lon="-7.4395262"><ele>1228.0</ele><time>2026-04-25T16:26:17.059Z</time></trkpt><trkpt lat="42.2474067" lon="-7.4395705"><ele>1230.0</ele><time>2026-04-25T16:26:18.062Z</time></trkpt><trkpt lat="42.2472991" lon="-7.4396437"><ele>1233.4</ele><time>2026-04-25T16:26:19.065Z</time></trkpt><trkpt lat="42.2472078" lon="-7.4397068"><ele>1236.8</ele><time>2026-04-25T16:26:20.065Z</time></trkpt><trkpt lat="42.2471375" lon="-7.4397956"><ele>1240.2</ele><time>2026-04-25T16:26:21.062Z</time></trkpt><trkpt lat="42.2470594" lon="-7.4399102"><ele>1243.6</ele><time>2026-04-25T16:26:22.062Z</time></trkpt><trkpt lat="42.2469726" lon="-7.4400364"><ele>1247.0</ele><time>2026-04-25T16:26:23.059Z</time></trkpt><trkpt lat="42.2468965" lon="-7.440135"><ele>1247.0</ele><time>2026-04-25T16:26:24.063Z</time></trkpt><trkpt lat="42.2468307" lon="-7.4402069"><ele>1247.0</ele><time>2026-04-25T16:26:25.061Z</time></trkpt><trkpt lat="42.2467589" lon="-7.440256"><ele>1247.0</ele><time>2026-04-25T16:26:26.062Z</time></trkpt><trkpt lat="42.2466939" lon="-7.4402652"><ele>1247.0</ele><time>2026-04-25T16:26:27.067Z</time></trkpt><trkpt lat="42.2466296" lon="-7.4402504"><ele>1247.0</ele><time>2026-04-25T16:26:28.064Z</time></trkpt><trkpt lat="42.2465573" lon="-7.4402039"><ele>1247.0</ele><time>2026-04-25T16:26:29.064Z</time></trkpt><trkpt lat="42.2464749" lon="-7.4401409"><ele>1251.4</ele><time>2026-04-25T16:26:30.058Z</time></trkpt><trkpt lat="42.2463979" lon="-7.4400623"><ele>1255.8000000000002</ele><time>2026-04-25T16:26:31.065Z</time></trkpt><trkpt lat="42.2463258" lon="-7.4399881"><ele>1260.2</ele><time>2026-04-25T16:26:32.066Z</time></trkpt><trkpt lat="42.2462497" lon="-7.4399217"><ele>1264.6000000000001</ele><time>2026-04-25T16:26:33.061Z</time></trkpt><trkpt lat="42.246174" lon="-7.4398677"><ele>1269.0</ele><time>2026-04-25T16:26:34.068Z</time></trkpt><trkpt lat="42.2460853" lon="-7.4398128"><ele>1269.0</ele><time>2026-04-25T16:26:35.054Z</time></trkpt><trkpt lat="42.245987" lon="-7.4397563"><ele>1269.0</ele><time>2026-04-25T16:26:36.063Z</time></trkpt><trkpt lat="42.2459059" lon="-7.4397198"><ele>1269.0</ele><time>2026-04-25T16:26:37.054Z</time></trkpt><trkpt lat="42.245798" lon="-7.4397294"><ele>1269.0</ele><time>2026-04-25T16:26:39.068Z</time></trkpt><trkpt lat="42.2457289" lon="-7.439837"><ele>1269.0</ele><time>2026-04-25T16:26:41.078Z</time></trkpt><trkpt lat="42.2457328" lon="-7.4399246"><ele>1269.0</ele><time>2026-04-25T16:26:42.071Z</time></trkpt><trkpt lat="42.2457406" lon="-7.4400303"><ele>1269.0</ele><time>2026-04-25T16:26:43.069Z</time></trkpt><trkpt lat="42.2457674" lon="-7.4401393"><ele>1269.0</ele><time>2026-04-25T16:26:44.068Z</time></trkpt><trkpt lat="42.2457989" lon="-7.4402705"><ele>1269.0</ele><time>2026-04-25T16:26:45.059Z</time></trkpt><trkpt lat="42.2458304" lon="-7.4404271"><ele>1269.0</ele><time>2026-04-25T16:26:46.057Z</time></trkpt><trkpt lat="42.2458606" lon="-7.440597"><ele>1270.0</ele><time>2026-04-25T16:26:47.059Z</time></trkpt><trkpt lat="42.2458876" lon="-7.4407517"><ele>1271.0</ele><time>2026-04-25T16:26:48.057Z</time></trkpt><trkpt lat="42.2459089" lon="-7.4408983"><ele>1272.0</ele><time>2026-04-25T16:26:49.055Z</time></trkpt><trkpt lat="42.2459312" lon="-7.4410517"><ele>1273.0</ele><time>2026-04-25T16:26:50.053Z</time></trkpt><trkpt lat="42.2459301" lon="-7.4411892"><ele>1274.0</ele><time>2026-04-25T16:26:51.059Z</time></trkpt><trkpt lat="42.245919" lon="-7.4412987"><ele>1274.1666666666667</ele><time>2026-04-25T16:26:52.067Z</time></trkpt><trkpt lat="42.245894" lon="-7.4413863"><ele>1274.3333333333335</ele><time>2026-04-25T16:26:53.065Z</time></trkpt><trkpt lat="42.2458533" lon="-7.4414713"><ele>1274.5</ele><time>2026-04-25T16:26:54.069Z</time></trkpt><trkpt lat="42.2457985" lon="-7.4415504"><ele>1274.6666666666667</ele><time>2026-04-25T16:26:55.059Z</time></trkpt><trkpt lat="42.2457345" lon="-7.4416187"><ele>1274.8333333333333</ele><time>2026-04-25T16:26:56.064Z</time></trkpt><trkpt lat="42.2456608" lon="-7.4416843"><ele>1275.0</ele><time>2026-04-25T16:26:57.063Z</time></trkpt><trkpt lat="42.2455787" lon="-7.4417478"><ele>1278.2</ele><time>2026-04-25T16:26:58.062Z</time></trkpt><trkpt lat="42.245496" lon="-7.4417982"><ele>1281.4</ele><time>2026-04-25T16:26:59.057Z</time></trkpt><trkpt lat="42.2454098" lon="-7.4418403"><ele>1284.6</ele><time>2026-04-25T16:27:00.055Z</time></trkpt><trkpt lat="42.2453202" lon="-7.4418834"><ele>1287.8</ele><time>2026-04-25T16:27:01.065Z</time></trkpt><trkpt lat="42.2452294" lon="-7.4419256"><ele>1291.0</ele><time>2026-04-25T16:27:02.066Z</time></trkpt><trkpt lat="42.2451336" lon="-7.4419534"><ele>1291.0</ele><time>2026-04-25T16:27:03.068Z</time></trkpt><trkpt lat="42.2450308" lon="-7.4419737"><ele>1291.0</ele><time>2026-04-25T16:27:04.063Z</time></trkpt><trkpt lat="42.2449197" lon="-7.4419979"><ele>1291.0</ele><time>2026-04-25T16:27:05.058Z</time></trkpt><trkpt lat="42.244806" lon="-7.4420176"><ele>1291.0</ele><time>2026-04-25T16:27:06.066Z</time></trkpt><trkpt lat="42.2446897" lon="-7.4420277"><ele>1291.0</ele><time>2026-04-25T16:27:07.065Z</time></trkpt><trkpt lat="42.2445743" lon="-7.4420354"><ele>1292.1999999999998</ele><time>2026-04-25T16:27:08.067Z</time></trkpt><trkpt lat="42.2444685" lon="-7.4420409"><ele>1293.3999999999999</ele><time>2026-04-25T16:27:09.064Z</time></trkpt><trkpt lat="42.2443624" lon="-7.4420529"><ele>1294.6</ele><time>2026-04-25T16:27:10.057Z</time></trkpt><trkpt lat="42.244253" lon="-7.4420733"><ele>1295.8</ele><time>2026-04-25T16:27:11.067Z</time></trkpt><trkpt lat="42.2441554" lon="-7.4420978"><ele>1297.0</ele><time>2026-04-25T16:27:12.065Z</time></trkpt><trkpt lat="42.2440745" lon="-7.4421292"><ele>1297.3333333333333</ele><time>2026-04-25T16:27:13.068Z</time></trkpt><trkpt lat="42.2440036" lon="-7.4421674"><ele>1297.6666666666665</ele><time>2026-04-25T16:27:14.057Z</time></trkpt><trkpt lat="42.2439374" lon="-7.4422114"><ele>1298.0</ele><time>2026-04-25T16:27:15.056Z</time></trkpt><trkpt lat="42.2438796" lon="-7.44226"><ele>1298.3333333333333</ele><time>2026-04-25T16:27:16.068Z</time></trkpt><trkpt lat="42.2438187" lon="-7.4423135"><ele>1298.6666666666667</ele><time>2026-04-25T16:27:17.061Z</time></trkpt><trkpt lat="42.2437645" lon="-7.4423673"><ele>1299.0</ele><time>2026-04-25T16:27:18.06Z</time></trkpt><trkpt lat="42.2436853" lon="-7.4424645"><ele>1299.0</ele><time>2026-04-25T16:27:20.063Z</time></trkpt><trkpt lat="42.2436274" lon="-7.4425678"><ele>1299.0</ele><time>2026-04-25T16:27:22.057Z</time></trkpt><trkpt lat="42.2435825" lon="-7.4426614"><ele>1299.0</ele><time>2026-04-25T16:27:24.067Z</time></trkpt><trkpt lat="42.2435603" lon="-7.4427559"><ele>1299.0</ele><time>2026-04-25T16:27:26.07Z</time></trkpt><trkpt lat="42.2435335" lon="-7.4428886"><ele>1299.0</ele><time>2026-04-25T16:27:44.06Z</time></trkpt><trkpt lat="42.2435206" lon="-7.4430682"><ele>1300.1666666666667</ele><time>2026-04-25T16:27:46.062Z</time></trkpt><trkpt lat="42.2435186" lon="-7.4431844"><ele>1301.3333333333333</ele><time>2026-04-25T16:27:47.059Z</time></trkpt><trkpt lat="42.2435086" lon="-7.4433119"><ele>1302.5</ele><time>2026-04-25T16:27:48.061Z</time></trkpt><trkpt lat="42.2434986" lon="-7.443424"><ele>1303.6666666666665</ele><time>2026-04-25T16:27:49.063Z</time></trkpt><trkpt lat="42.2434625" lon="-7.4435242"><ele>1304.8333333333333</ele><time>2026-04-25T16:27:50.065Z</time></trkpt><trkpt lat="42.243409" lon="-7.4436407"><ele>1306.0</ele><time>2026-04-25T16:27:51.067Z</time></trkpt><trkpt lat="42.2433563" lon="-7.4437608"><ele>1307.25</ele><time>2026-04-25T16:27:52.064Z</time></trkpt><trkpt lat="42.2432992" lon="-7.443888"><ele>1308.5</ele><time>2026-04-25T16:27:53.065Z</time></trkpt><trkpt lat="42.2432379" lon="-7.4440333"><ele>1309.75</ele><time>2026-04-25T16:27:54.056Z</time></trkpt><trkpt lat="42.2431726" lon="-7.4441906"><ele>1311.0</ele><time>2026-04-25T16:27:55.059Z</time></trkpt><trkpt lat="42.243109" lon="-7.4443365"><ele>1312.8</ele><time>2026-04-25T16:27:56.073Z</time></trkpt><trkpt lat="42.243047" lon="-7.4444479"><ele>1314.6</ele><time>2026-04-25T16:27:57.066Z</time></trkpt><trkpt lat="42.2429788" lon="-7.4445239"><ele>1316.4</ele><time>2026-04-25T16:27:58.058Z</time></trkpt><trkpt lat="42.242886" lon="-7.444589"><ele>1318.2</ele><time>2026-04-25T16:27:59.059Z</time></trkpt><trkpt lat="42.242784" lon="-7.4446629"><ele>1320.0</ele><time>2026-04-25T16:28:00.064Z</time></trkpt><trkpt lat="42.2427015" lon="-7.4447354"><ele>1320.0</ele><time>2026-04-25T16:28:01.062Z</time></trkpt><trkpt lat="42.2426365" lon="-7.4448021"><ele>1320.0</ele><time>2026-04-25T16:28:02.062Z</time></trkpt><trkpt lat="42.2425929" lon="-7.4448655"><ele>1320.0</ele><time>2026-04-25T16:28:03.059Z</time></trkpt><trkpt lat="42.2425606" lon="-7.4449428"><ele>1320.0</ele><time>2026-04-25T16:28:04.059Z</time></trkpt><trkpt lat="42.2425395" lon="-7.4451151"><ele>1320.0</ele><time>2026-04-25T16:28:06.059Z</time></trkpt><trkpt lat="42.2425346" lon="-7.4452141"><ele>1320.0</ele><time>2026-04-25T16:28:07.054Z</time></trkpt><trkpt lat="42.2425382" lon="-7.4453183"><ele>1320.0</ele><time>2026-04-25T16:28:08.058Z</time></trkpt><trkpt lat="42.2425424" lon="-7.4454351"><ele>1320.0</ele><time>2026-04-25T16:28:09.059Z</time></trkpt><trkpt lat="42.2425635" lon="-7.445574"><ele>1320.0</ele><time>2026-04-25T16:28:10.054Z</time></trkpt><trkpt lat="42.242595" lon="-7.4457174"><ele>1320.0</ele><time>2026-04-25T16:28:11.059Z</time></trkpt><trkpt lat="42.2426356" lon="-7.4458144"><ele>1320.0</ele><time>2026-04-25T16:28:12.072Z</time></trkpt><trkpt lat="42.2426661" lon="-7.4458959"><ele>1320.8</ele><time>2026-04-25T16:28:13.07Z</time></trkpt><trkpt lat="42.242702" lon="-7.4459677"><ele>1321.6</ele><time>2026-04-25T16:28:14.06Z</time></trkpt><trkpt lat="42.2427511" lon="-7.4460418"><ele>1322.4</ele><time>2026-04-25T16:28:15.065Z</time></trkpt><trkpt lat="42.2428149" lon="-7.4461305"><ele>1323.2</ele><time>2026-04-25T16:28:16.059Z</time></trkpt><trkpt lat="42.2428839" lon="-7.4462395"><ele>1324.0</ele><time>2026-04-25T16:28:17.063Z</time></trkpt><trkpt lat="42.242961" lon="-7.4463704"><ele>1323.75</ele><time>2026-04-25T16:28:18.067Z</time></trkpt><trkpt lat="42.243025" lon="-7.4464958"><ele>1323.5</ele><time>2026-04-25T16:28:19.064Z</time></trkpt><trkpt lat="42.2430779" lon="-7.4466422"><ele>1323.25</ele><time>2026-04-25T16:28:20.062Z</time></trkpt><trkpt lat="42.2431243" lon="-7.446824"><ele>1323.0</ele><time>2026-04-25T16:28:21.066Z</time></trkpt><trkpt lat="42.2431736" lon="-7.4470415"><ele>1324.6666666666667</ele><time>2026-04-25T16:28:22.058Z</time></trkpt><trkpt lat="42.2432241" lon="-7.4472774"><ele>1326.3333333333335</ele><time>2026-04-25T16:28:23.058Z</time></trkpt><trkpt lat="42.2432694" lon="-7.4474995"><ele>1328.0</ele><time>2026-04-25T16:28:24.054Z</time></trkpt><trkpt lat="42.2433147" lon="-7.44771"><ele>1328.0</ele><time>2026-04-25T16:28:25.06Z</time></trkpt><trkpt lat="42.2433403" lon="-7.4479011"><ele>1328.0</ele><time>2026-04-25T16:28:26.057Z</time></trkpt><trkpt lat="42.2433627" lon="-7.4480994"><ele>1328.0</ele><time>2026-04-25T16:28:27.058Z</time></trkpt><trkpt lat="42.2433808" lon="-7.4483095"><ele>1328.0</ele><time>2026-04-25T16:28:28.071Z</time></trkpt><trkpt lat="42.2434022" lon="-7.4485227"><ele>1328.25</ele><time>2026-04-25T16:28:29.057Z</time></trkpt><trkpt lat="42.2434133" lon="-7.4486999"><ele>1328.5</ele><time>2026-04-25T16:28:30.058Z</time></trkpt><trkpt lat="42.2434233" lon="-7.4488546"><ele>1328.75</ele><time>2026-04-25T16:28:31.07Z</time></trkpt><trkpt lat="42.2434253" lon="-7.449002"><ele>1329.0</ele><time>2026-04-25T16:28:32.058Z</time></trkpt><trkpt lat="42.2434281" lon="-7.449157"><ele>1328.0</ele><time>2026-04-25T16:28:33.067Z</time></trkpt><trkpt lat="42.2434171" lon="-7.4493423"><ele>1327.0</ele><time>2026-04-25T16:28:34.059Z</time></trkpt><trkpt lat="42.2434218" lon="-7.4495004"><ele>1326.0</ele><time>2026-04-25T16:28:35.059Z</time></trkpt><trkpt lat="42.2434366" lon="-7.4496622"><ele>1325.0</ele><time>2026-04-25T16:28:36.067Z</time></trkpt><trkpt lat="42.2434695" lon="-7.4498328"><ele>1324.0</ele><time>2026-04-25T16:28:37.065Z</time></trkpt><trkpt lat="42.2435166" lon="-7.4500108"><ele>1323.0</ele><time>2026-04-25T16:28:38.066Z</time></trkpt><trkpt lat="42.2435653" lon="-7.4501983"><ele>1322.0</ele><time>2026-04-25T16:28:39.069Z</time></trkpt><trkpt lat="42.2436219" lon="-7.4503853"><ele>1321.0</ele><time>2026-04-25T16:28:40.058Z</time></trkpt><trkpt lat="42.2436698" lon="-7.4505691"><ele>1319.5</ele><time>2026-04-25T16:28:41.061Z</time></trkpt><trkpt lat="42.2437034" lon="-7.4507509"><ele>1318.0</ele><time>2026-04-25T16:28:42.064Z</time></trkpt><trkpt lat="42.2437167" lon="-7.4509195"><ele>1316.5</ele><time>2026-04-25T16:28:43.065Z</time></trkpt><trkpt lat="42.2437193" lon="-7.4510909"><ele>1315.0</ele><time>2026-04-25T16:28:44.064Z</time></trkpt><trkpt lat="42.2437173" lon="-7.4512694"><ele>1313.25</ele><time>2026-04-25T16:28:45.063Z</time></trkpt><trkpt lat="42.243711" lon="-7.4514369"><ele>1311.5</ele><time>2026-04-25T16:28:46.058Z</time></trkpt><trkpt lat="42.2437082" lon="-7.4515988"><ele>1309.75</ele><time>2026-04-25T16:28:47.066Z</time></trkpt><trkpt lat="42.2437066" lon="-7.4517596"><ele>1308.0</ele><time>2026-04-25T16:28:48.06Z</time></trkpt><trkpt lat="42.2436923" lon="-7.451918"><ele>1308.0</ele><time>2026-04-25T16:28:49.059Z</time></trkpt><trkpt lat="42.2436788" lon="-7.4520776"><ele>1308.0</ele><time>2026-04-25T16:28:50.056Z</time></trkpt><trkpt lat="42.2436671" lon="-7.4522292"><ele>1308.0</ele><time>2026-04-25T16:28:51.062Z</time></trkpt><trkpt lat="42.2436558" lon="-7.4523728"><ele>1308.0</ele><time>2026-04-25T16:28:52.062Z</time></trkpt><trkpt lat="42.2436372" lon="-7.4525128"><ele>1308.0</ele><time>2026-04-25T16:28:53.056Z</time></trkpt><trkpt lat="42.2436069" lon="-7.4526509"><ele>1307.5</ele><time>2026-04-25T16:28:54.069Z</time></trkpt><trkpt lat="42.2435468" lon="-7.4527712"><ele>1307.0</ele><time>2026-04-25T16:28:55.065Z</time></trkpt><trkpt lat="42.2434815" lon="-7.4528869"><ele>1306.5</ele><time>2026-04-25T16:28:56.061Z</time></trkpt><trkpt lat="42.2434106" lon="-7.4530071"><ele>1306.0</ele><time>2026-04-25T16:28:57.061Z</time></trkpt><trkpt lat="42.2433327" lon="-7.4531463"><ele>1305.75</ele><time>2026-04-25T16:28:58.068Z</time></trkpt><trkpt lat="42.2432473" lon="-7.4533035"><ele>1305.5</ele><time>2026-04-25T16:28:59.07Z</time></trkpt><trkpt lat="42.2431582" lon="-7.453447"><ele>1305.25</ele><time>2026-04-25T16:29:00.064Z</time></trkpt><trkpt lat="42.2430809" lon="-7.4535727"><ele>1305.0</ele><time>2026-04-25T16:29:01.068Z</time></trkpt><trkpt lat="42.2430059" lon="-7.4536875"><ele>1305.0</ele><time>2026-04-25T16:29:02.063Z</time></trkpt><trkpt lat="42.2429322" lon="-7.453802"><ele>1305.0</ele><time>2026-04-25T16:29:03.064Z</time></trkpt><trkpt lat="42.2428594" lon="-7.4539121"><ele>1305.0</ele><time>2026-04-25T16:29:04.068Z</time></trkpt><trkpt lat="42.2427856" lon="-7.454016"><ele>1305.0</ele><time>2026-04-25T16:29:05.074Z</time></trkpt><trkpt lat="42.2427033" lon="-7.4541229"><ele>1305.0</ele><time>2026-04-25T16:29:06.065Z</time></trkpt><trkpt lat="42.2426221" lon="-7.4542263"><ele>1305.0</ele><time>2026-04-25T16:29:07.06Z</time></trkpt><trkpt lat="42.2425461" lon="-7.4543227"><ele>1305.0</ele><time>2026-04-25T16:29:08.067Z</time></trkpt><trkpt lat="42.2424625" lon="-7.4544238"><ele>1305.0</ele><time>2026-04-25T16:29:09.067Z</time></trkpt><trkpt lat="42.2423728" lon="-7.4545334"><ele>1305.0</ele><time>2026-04-25T16:29:10.058Z</time></trkpt><trkpt lat="42.2422813" lon="-7.4546251"><ele>1303.5</ele><time>2026-04-25T16:29:11.065Z</time></trkpt><trkpt lat="42.242201" lon="-7.4547229"><ele>1302.0</ele><time>2026-04-25T16:29:12.07Z</time></trkpt><trkpt lat="42.2421197" lon="-7.4548174"><ele>1300.5</ele><time>2026-04-25T16:29:13.058Z</time></trkpt><trkpt lat="42.2420358" lon="-7.4549257"><ele>1299.0</ele><time>2026-04-25T16:29:14.054Z</time></trkpt><trkpt lat="42.24196" lon="-7.45507"><ele>1299.0</ele><time>2026-04-25T16:29:15.058Z</time></trkpt><trkpt lat="42.241888" lon="-7.4552089"><ele>1299.0</ele><time>2026-04-25T16:29:16.062Z</time></trkpt><trkpt lat="42.2418209" lon="-7.4553562"><ele>1299.0</ele><time>2026-04-25T16:29:17.057Z</time></trkpt><trkpt lat="42.2417673" lon="-7.4555126"><ele>1299.0</ele><time>2026-04-25T16:29:18.066Z</time></trkpt><trkpt lat="42.2417231" lon="-7.45567"><ele>1298.0</ele><time>2026-04-25T16:29:19.06Z</time></trkpt><trkpt lat="42.2416922" lon="-7.4558316"><ele>1297.0</ele><time>2026-04-25T16:29:20.061Z</time></trkpt><trkpt lat="42.2416673" lon="-7.4560095"><ele>1296.0</ele><time>2026-04-25T16:29:21.068Z</time></trkpt><trkpt lat="42.241643" lon="-7.4562072"><ele>1295.0</ele><time>2026-04-25T16:29:22.058Z</time></trkpt><trkpt lat="42.2416157" lon="-7.4563948"><ele>1294.25</ele><time>2026-04-25T16:29:23.058Z</time></trkpt><trkpt lat="42.2415907" lon="-7.4565649"><ele>1293.5</ele><time>2026-04-25T16:29:24.075Z</time></trkpt><trkpt lat="42.2415669" lon="-7.4567424"><ele>1292.75</ele><time>2026-04-25T16:29:25.058Z</time></trkpt><trkpt lat="42.2415435" lon="-7.4569239"><ele>1292.0</ele><time>2026-04-25T16:29:26.058Z</time></trkpt><trkpt lat="42.2415091" lon="-7.4570928"><ele>1289.75</ele><time>2026-04-25T16:29:27.064Z</time></trkpt><trkpt lat="42.2414633" lon="-7.4572653"><ele>1287.5</ele><time>2026-04-25T16:29:28.065Z</time></trkpt><trkpt lat="42.2414203" lon="-7.4574241"><ele>1285.25</ele><time>2026-04-25T16:29:29.057Z</time></trkpt><trkpt lat="42.2413914" lon="-7.4575797"><ele>1283.0</ele><time>2026-04-25T16:29:30.062Z</time></trkpt><trkpt lat="42.2413851" lon="-7.4577359"><ele>1283.0</ele><time>2026-04-25T16:29:31.056Z</time></trkpt><trkpt lat="42.2413932" lon="-7.4578971"><ele>1283.0</ele><time>2026-04-25T16:29:32.072Z</time></trkpt><trkpt lat="42.2414128" lon="-7.4580726"><ele>1283.0</ele><time>2026-04-25T16:29:33.065Z</time></trkpt><trkpt lat="42.2414352" lon="-7.4582406"><ele>1283.0</ele><time>2026-04-25T16:29:34.072Z</time></trkpt><trkpt lat="42.2414566" lon="-7.4583992"><ele>1285.25</ele><time>2026-04-25T16:29:35.069Z</time></trkpt><trkpt lat="42.2414761" lon="-7.4585579"><ele>1287.5</ele><time>2026-04-25T16:29:36.063Z</time></trkpt><trkpt lat="42.2414955" lon="-7.4587217"><ele>1289.75</ele><time>2026-04-25T16:29:37.06Z</time></trkpt><trkpt lat="42.2415164" lon="-7.4588894"><ele>1292.0</ele><time>2026-04-25T16:29:38.077Z</time></trkpt><trkpt lat="42.241546" lon="-7.459046"><ele>1292.0</ele><time>2026-04-25T16:29:39.067Z</time></trkpt><trkpt lat="42.2415906" lon="-7.4592038"><ele>1292.0</ele><time>2026-04-25T16:29:40.075Z</time></trkpt><trkpt lat="42.2416448" lon="-7.4593691"><ele>1292.0</ele><time>2026-04-25T16:29:41.071Z</time></trkpt><trkpt lat="42.2416951" lon="-7.4595274"><ele>1292.0</ele><time>2026-04-25T16:29:42.068Z</time></trkpt><trkpt lat="42.2417463" lon="-7.4596854"><ele>1290.75</ele><time>2026-04-25T16:29:43.059Z</time></trkpt><trkpt lat="42.2417853" lon="-7.459853"><ele>1289.5</ele><time>2026-04-25T16:29:44.064Z</time></trkpt><trkpt lat="42.2418245" lon="-7.4600324"><ele>1288.25</ele><time>2026-04-25T16:29:45.063Z</time></trkpt><trkpt lat="42.241848" lon="-7.4602131"><ele>1287.0</ele><time>2026-04-25T16:29:46.055Z</time></trkpt><trkpt lat="42.2418719" lon="-7.4603969"><ele>1285.25</ele><time>2026-04-25T16:29:47.059Z</time></trkpt><trkpt lat="42.2418925" lon="-7.46058"><ele>1283.5</ele><time>2026-04-25T16:29:48.062Z</time></trkpt><trkpt lat="42.241909" lon="-7.4607382"><ele>1281.75</ele><time>2026-04-25T16:29:49.064Z</time></trkpt><trkpt lat="42.2419114" lon="-7.4608976"><ele>1280.0</ele><time>2026-04-25T16:29:50.069Z</time></trkpt><trkpt lat="42.2419169" lon="-7.4610439"><ele>1280.0</ele><time>2026-04-25T16:29:51.06Z</time></trkpt><trkpt lat="42.2419276" lon="-7.4612006"><ele>1280.0</ele><time>2026-04-25T16:29:52.055Z</time></trkpt><trkpt lat="42.2419435" lon="-7.4613345"><ele>1280.0</ele><time>2026-04-25T16:29:53.069Z</time></trkpt><trkpt lat="42.241965" lon="-7.4614936"><ele>1280.0</ele><time>2026-04-25T16:29:54.066Z</time></trkpt><trkpt lat="42.2419809" lon="-7.4616487"><ele>1278.8</ele><time>2026-04-25T16:29:55.055Z</time></trkpt><trkpt lat="42.2419995" lon="-7.4617916"><ele>1277.6</ele><time>2026-04-25T16:29:56.056Z</time></trkpt><trkpt lat="42.241992" lon="-7.4619394"><ele>1276.4</ele><time>2026-04-25T16:29:57.059Z</time></trkpt><trkpt lat="42.2419815" lon="-7.4620834"><ele>1275.2</ele><time>2026-04-25T16:29:58.057Z</time></trkpt><trkpt lat="42.2419635" lon="-7.4622219"><ele>1274.0</ele><time>2026-04-25T16:29:59.063Z</time></trkpt><trkpt lat="42.2419253" lon="-7.4623445"><ele>1273.6666666666667</ele><time>2026-04-25T16:30:00.066Z</time></trkpt><trkpt lat="42.2418703" lon="-7.4624613"><ele>1273.3333333333335</ele><time>2026-04-25T16:30:01.058Z</time></trkpt><trkpt lat="42.2418161" lon="-7.4625621"><ele>1273.0</ele><time>2026-04-25T16:30:02.058Z</time></trkpt><trkpt lat="42.2417713" lon="-7.4626589"><ele>1272.6666666666667</ele><time>2026-04-25T16:30:03.087Z</time></trkpt><trkpt lat="42.2417407" lon="-7.4627584"><ele>1272.3333333333333</ele><time>2026-04-25T16:30:04.094Z</time></trkpt><trkpt lat="42.241718" lon="-7.4628619"><ele>1272.0</ele><time>2026-04-25T16:30:05.067Z</time></trkpt><trkpt lat="42.2416999" lon="-7.4629669"><ele>1272.0</ele><time>2026-04-25T16:30:06.057Z</time></trkpt><trkpt lat="42.2416835" lon="-7.4630793"><ele>1272.0</ele><time>2026-04-25T16:30:07.073Z</time></trkpt><trkpt lat="42.2416692" lon="-7.4631978"><ele>1272.0</ele><time>2026-04-25T16:30:08.073Z</time></trkpt><trkpt lat="42.2416608" lon="-7.4633237"><ele>1272.0</ele><time>2026-04-25T16:30:09.058Z</time></trkpt><trkpt lat="42.2416568" lon="-7.4634584"><ele>1272.0</ele><time>2026-04-25T16:30:10.067Z</time></trkpt><trkpt lat="42.2416499" lon="-7.4636007"><ele>1272.0</ele><time>2026-04-25T16:30:11.061Z</time></trkpt><trkpt lat="42.2416401" lon="-7.4637423"><ele>1272.0</ele><time>2026-04-25T16:30:12.058Z</time></trkpt><trkpt lat="42.24163" lon="-7.4638809"><ele>1272.0</ele><time>2026-04-25T16:30:13.067Z</time></trkpt><trkpt lat="42.2416228" lon="-7.4640166"><ele>1272.0</ele><time>2026-04-25T16:30:14.079Z</time></trkpt><trkpt lat="42.2416161" lon="-7.4641515"><ele>1272.0</ele><time>2026-04-25T16:30:15.062Z</time></trkpt><trkpt lat="42.2416137" lon="-7.4642802"><ele>1271.0</ele><time>2026-04-25T16:30:16.055Z</time></trkpt><trkpt lat="42.2416132" lon="-7.4644011"><ele>1270.0</ele><time>2026-04-25T16:30:17.059Z</time></trkpt><trkpt lat="42.2416256" lon="-7.4645146"><ele>1269.0</ele><time>2026-04-25T16:30:18.071Z</time></trkpt><trkpt lat="42.2416466" lon="-7.4646159"><ele>1268.0</ele><time>2026-04-25T16:30:19.067Z</time></trkpt><trkpt lat="42.2416681" lon="-7.4647156"><ele>1267.0</ele><time>2026-04-25T16:30:20.053Z</time></trkpt><trkpt lat="42.2417252" lon="-7.4648066"><ele>1266.0</ele><time>2026-04-25T16:30:21.063Z</time></trkpt><trkpt lat="42.2417972" lon="-7.4649108"><ele>1263.6</ele><time>2026-04-25T16:30:22.065Z</time></trkpt><trkpt lat="42.2418711" lon="-7.4649966"><ele>1261.1999999999998</ele><time>2026-04-25T16:30:23.068Z</time></trkpt><trkpt lat="42.2419336" lon="-7.4650918"><ele>1258.8000000000002</ele><time>2026-04-25T16:30:24.059Z</time></trkpt><trkpt lat="42.2419803" lon="-7.4651671"><ele>1256.4</ele><time>2026-04-25T16:30:25.055Z</time></trkpt><trkpt lat="42.242035" lon="-7.465295"><ele>1254.0</ele><time>2026-04-25T16:30:27.066Z</time></trkpt><trkpt lat="42.242007" lon="-7.4654025"><ele>1252.0</ele><time>2026-04-25T16:30:29.071Z</time></trkpt><trkpt lat="42.2418943" lon="-7.4654903"><ele>1250.0</ele><time>2026-04-25T16:30:31.062Z</time></trkpt><trkpt lat="42.2418181" lon="-7.465532"><ele>1248.0</ele><time>2026-04-25T16:30:32.065Z</time></trkpt><trkpt lat="42.2417288" lon="-7.4655762"><ele>1246.0</ele><time>2026-04-25T16:30:33.059Z</time></trkpt><trkpt lat="42.2416379" lon="-7.4656252"><ele>1244.0</ele><time>2026-04-25T16:30:34.074Z</time></trkpt><trkpt lat="42.2415404" lon="-7.465679"><ele>1242.8</ele><time>2026-04-25T16:30:35.065Z</time></trkpt><trkpt lat="42.2414412" lon="-7.4657312"><ele>1241.6000000000001</ele><time>2026-04-25T16:30:36.069Z</time></trkpt><trkpt lat="42.2413438" lon="-7.4657846"><ele>1240.4</ele><time>2026-04-25T16:30:37.072Z</time></trkpt><trkpt lat="42.2412495" lon="-7.4658356"><ele>1239.2</ele><time>2026-04-25T16:30:38.054Z</time></trkpt><trkpt lat="42.2411583" lon="-7.4658795"><ele>1238.0</ele><time>2026-04-25T16:30:39.07Z</time></trkpt><trkpt lat="42.2410697" lon="-7.4659256"><ele>1238.0</ele><time>2026-04-25T16:30:40.061Z</time></trkpt><trkpt lat="42.2409859" lon="-7.4659702"><ele>1238.0</ele><time>2026-04-25T16:30:41.065Z</time></trkpt><trkpt lat="42.240908" lon="-7.4660141"><ele>1238.0</ele><time>2026-04-25T16:30:42.059Z</time></trkpt><trkpt lat="42.2408323" lon="-7.466063"><ele>1238.0</ele><time>2026-04-25T16:30:43.084Z</time></trkpt><trkpt lat="42.2407612" lon="-7.4661341"><ele>1238.0</ele><time>2026-04-25T16:30:44.067Z</time></trkpt><trkpt lat="42.2406925" lon="-7.4662427"><ele>1234.25</ele><time>2026-04-25T16:30:45.073Z</time></trkpt><trkpt lat="42.2406253" lon="-7.4663774"><ele>1230.5</ele><time>2026-04-25T16:30:46.06Z</time></trkpt><trkpt lat="42.2405609" lon="-7.4665206"><ele>1226.75</ele><time>2026-04-25T16:30:47.06Z</time></trkpt><trkpt lat="42.2405031" lon="-7.4666615"><ele>1223.0</ele><time>2026-04-25T16:30:48.064Z</time></trkpt><trkpt lat="42.2404486" lon="-7.4667972"><ele>1223.0</ele><time>2026-04-25T16:30:49.066Z</time></trkpt><trkpt lat="42.2404044" lon="-7.4669434"><ele>1223.0</ele><time>2026-04-25T16:30:50.062Z</time></trkpt><trkpt lat="42.2403543" lon="-7.4670945"><ele>1223.0</ele><time>2026-04-25T16:30:51.058Z</time></trkpt><trkpt lat="42.2403006" lon="-7.4672583"><ele>1223.0</ele><time>2026-04-25T16:30:52.069Z</time></trkpt><trkpt lat="42.2402567" lon="-7.4674425"><ele>1223.5</ele><time>2026-04-25T16:30:53.064Z</time></trkpt><trkpt lat="42.2402255" lon="-7.467626"><ele>1224.0</ele><time>2026-04-25T16:30:54.06Z</time></trkpt><trkpt lat="42.2402019" lon="-7.4678077"><ele>1224.5</ele><time>2026-04-25T16:30:55.055Z</time></trkpt><trkpt lat="42.2401857" lon="-7.4679724"><ele>1225.0</ele><time>2026-04-25T16:30:56.06Z</time></trkpt><trkpt lat="42.2401666" lon="-7.4681256"><ele>1225.2</ele><time>2026-04-25T16:30:57.058Z</time></trkpt><trkpt lat="42.2401384" lon="-7.4682668"><ele>1225.4</ele><time>2026-04-25T16:30:58.053Z</time></trkpt><trkpt lat="42.2401168" lon="-7.4683997"><ele>1225.6</ele><time>2026-04-25T16:30:59.06Z</time></trkpt><trkpt lat="42.2400842" lon="-7.4685426"><ele>1225.8</ele><time>2026-04-25T16:31:00.051Z</time></trkpt><trkpt lat="42.2400506" lon="-7.4686902"><ele>1226.0</ele><time>2026-04-25T16:31:01.064Z</time></trkpt><trkpt lat="42.2400281" lon="-7.4688473"><ele>1226.2</ele><time>2026-04-25T16:31:02.065Z</time></trkpt><trkpt lat="42.2400031" lon="-7.4689865"><ele>1226.3999999999999</ele><time>2026-04-25T16:31:03.057Z</time></trkpt><trkpt lat="42.2399761" lon="-7.4690986"><ele>1226.6</ele><time>2026-04-25T16:31:04.062Z</time></trkpt><trkpt lat="42.2399524" lon="-7.4691915"><ele>1226.8</ele><time>2026-04-25T16:31:05.063Z</time></trkpt><trkpt lat="42.2399291" lon="-7.4692781"><ele>1227.0</ele><time>2026-04-25T16:31:06.054Z</time></trkpt><trkpt lat="42.2398141" lon="-7.4693595"><ele>1227.6</ele><time>2026-04-25T16:31:08.066Z</time></trkpt><trkpt lat="42.2397299" lon="-7.4693963"><ele>1228.2</ele><time>2026-04-25T16:31:09.058Z</time></trkpt><trkpt lat="42.239637" lon="-7.4694467"><ele>1228.8</ele><time>2026-04-25T16:31:10.061Z</time></trkpt><trkpt lat="42.2395414" lon="-7.469521"><ele>1229.4</ele><time>2026-04-25T16:31:11.065Z</time></trkpt><trkpt lat="42.2394438" lon="-7.4696162"><ele>1230.0</ele><time>2026-04-25T16:31:12.062Z</time></trkpt><trkpt lat="42.2393444" lon="-7.4697259"><ele>1230.0</ele><time>2026-04-25T16:31:13.06Z</time></trkpt><trkpt lat="42.2392443" lon="-7.4698443"><ele>1230.0</ele><time>2026-04-25T16:31:14.066Z</time></trkpt><trkpt lat="42.2391486" lon="-7.46997"><ele>1230.0</ele><time>2026-04-25T16:31:15.064Z</time></trkpt><trkpt lat="42.2390669" lon="-7.4700852"><ele>1230.0</ele><time>2026-04-25T16:31:16.066Z</time></trkpt><trkpt lat="42.238987" lon="-7.4702012"><ele>1230.0</ele><time>2026-04-25T16:31:17.065Z</time></trkpt><trkpt lat="42.2389273" lon="-7.4703308"><ele>1230.0</ele><time>2026-04-25T16:31:18.063Z</time></trkpt><trkpt lat="42.2388652" lon="-7.4704587"><ele>1230.0</ele><time>2026-04-25T16:31:19.067Z</time></trkpt><trkpt lat="42.2387999" lon="-7.4705881"><ele>1230.0</ele><time>2026-04-25T16:31:20.061Z</time></trkpt><trkpt lat="42.2387372" lon="-7.4707097"><ele>1231.2857142857142</ele><time>2026-04-25T16:31:21.057Z</time></trkpt><trkpt lat="42.238683" lon="-7.4708082"><ele>1232.5714285714287</ele><time>2026-04-25T16:31:22.057Z</time></trkpt><trkpt lat="42.2386369" lon="-7.4708776"><ele>1233.857142857143</ele><time>2026-04-25T16:31:23.06Z</time></trkpt><trkpt lat="42.2385934" lon="-7.4709425"><ele>1235.142857142857</ele><time>2026-04-25T16:31:24.071Z</time></trkpt><trkpt lat="42.2385512" lon="-7.4710095"><ele>1236.4285714285716</ele><time>2026-04-25T16:31:25.069Z</time></trkpt><trkpt lat="42.2385068" lon="-7.4710775"><ele>1237.7142857142858</ele><time>2026-04-25T16:31:26.056Z</time></trkpt><trkpt lat="42.2384593" lon="-7.4711447"><ele>1239.0</ele><time>2026-04-25T16:31:27.056Z</time></trkpt><trkpt lat="42.2384056" lon="-7.4712108"><ele>1239.0</ele><time>2026-04-25T16:31:28.059Z</time></trkpt><trkpt lat="42.2383469" lon="-7.471266"><ele>1239.0</ele><time>2026-04-25T16:31:29.071Z</time></trkpt><trkpt lat="42.2382795" lon="-7.4713143"><ele>1239.0</ele><time>2026-04-25T16:31:30.053Z</time></trkpt><trkpt lat="42.2382015" lon="-7.4713694"><ele>1239.0</ele><time>2026-04-25T16:31:31.061Z</time></trkpt><trkpt lat="42.2381164" lon="-7.4714346"><ele>1239.0</ele><time>2026-04-25T16:31:32.065Z</time></trkpt><trkpt lat="42.2380241" lon="-7.471502"><ele>1239.0</ele><time>2026-04-25T16:31:33.066Z</time></trkpt><trkpt lat="42.2379363" lon="-7.4715568"><ele>1240.6666666666667</ele><time>2026-04-25T16:31:34.065Z</time></trkpt><trkpt lat="42.237857" lon="-7.4716003"><ele>1242.3333333333333</ele><time>2026-04-25T16:31:35.07Z</time></trkpt><trkpt lat="42.2377803" lon="-7.4716504"><ele>1244.0</ele><time>2026-04-25T16:31:36.055Z</time></trkpt><trkpt lat="42.2377005" lon="-7.471721"><ele>1245.6666666666665</ele><time>2026-04-25T16:31:37.062Z</time></trkpt><trkpt lat="42.2376244" lon="-7.4717901"><ele>1247.3333333333333</ele><time>2026-04-25T16:31:38.07Z</time></trkpt><trkpt lat="42.2375568" lon="-7.4718727"><ele>1249.0</ele><time>2026-04-25T16:31:39.063Z</time></trkpt><trkpt lat="42.2374753" lon="-7.4719383"><ele>1249.0</ele><time>2026-04-25T16:31:40.06Z</time></trkpt><trkpt lat="42.2373814" lon="-7.4719813"><ele>1249.0</ele><time>2026-04-25T16:31:41.07Z</time></trkpt><trkpt lat="42.2372604" lon="-7.4720152"><ele>1249.0</ele><time>2026-04-25T16:31:42.075Z</time></trkpt><trkpt lat="42.2371197" lon="-7.4720486"><ele>1249.0</ele><time>2026-04-25T16:31:43.076Z</time></trkpt><trkpt lat="42.2369903" lon="-7.4720689"><ele>1249.25</ele><time>2026-04-25T16:31:44.072Z</time></trkpt><trkpt lat="42.2368564" lon="-7.4720703"><ele>1249.5</ele><time>2026-04-25T16:31:45.06Z</time></trkpt><trkpt lat="42.2367164" lon="-7.4720513"><ele>1249.75</ele><time>2026-04-25T16:31:46.071Z</time></trkpt><trkpt lat="42.2365819" lon="-7.4720135"><ele>1250.0</ele><time>2026-04-25T16:31:47.063Z</time></trkpt><trkpt lat="42.2364532" lon="-7.4719568"><ele>1250.0</ele><time>2026-04-25T16:31:48.065Z</time></trkpt><trkpt lat="42.2363477" lon="-7.4718956"><ele>1250.0</ele><time>2026-04-25T16:31:49.056Z</time></trkpt><trkpt lat="42.2362667" lon="-7.4718365"><ele>1250.0</ele><time>2026-04-25T16:31:50.062Z</time></trkpt><trkpt lat="42.2362046" lon="-7.47177"><ele>1250.0</ele><time>2026-04-25T16:31:51.059Z</time></trkpt><trkpt lat="42.2361544" lon="-7.4716846"><ele>1250.0</ele><time>2026-04-25T16:31:52.07Z</time></trkpt><trkpt lat="42.2361054" lon="-7.4715647"><ele>1250.0</ele><time>2026-04-25T16:31:53.052Z</time></trkpt><trkpt lat="42.2360537" lon="-7.4714126"><ele>1250.0</ele><time>2026-04-25T16:31:54.058Z</time></trkpt><trkpt lat="42.2360019" lon="-7.4712631"><ele>1250.0</ele><time>2026-04-25T16:31:55.059Z</time></trkpt><trkpt lat="42.2359333" lon="-7.471117"><ele>1250.0</ele><time>2026-04-25T16:31:56.063Z</time></trkpt><trkpt lat="42.2358543" lon="-7.470987"><ele>1251.8</ele><time>2026-04-25T16:31:57.069Z</time></trkpt><trkpt lat="42.2357757" lon="-7.470866"><ele>1253.6</ele><time>2026-04-25T16:31:58.063Z</time></trkpt><trkpt lat="42.2356907" lon="-7.4707548"><ele>1255.4</ele><time>2026-04-25T16:31:59.056Z</time></trkpt><trkpt lat="42.2356107" lon="-7.4706814"><ele>1257.2</ele><time>2026-04-25T16:32:00.069Z</time></trkpt><trkpt lat="42.23553" lon="-7.4706387"><ele>1259.0</ele><time>2026-04-25T16:32:01.053Z</time></trkpt><trkpt lat="42.2354534" lon="-7.4705973"><ele>1259.0</ele><time>2026-04-25T16:32:02.068Z</time></trkpt><trkpt lat="42.2353678" lon="-7.47059"><ele>1259.0</ele><time>2026-04-25T16:32:03.059Z</time></trkpt><trkpt lat="42.2352759" lon="-7.4705827"><ele>1259.0</ele><time>2026-04-25T16:32:04.064Z</time></trkpt><trkpt lat="42.2351719" lon="-7.4705634"><ele>1259.0</ele><time>2026-04-25T16:32:05.057Z</time></trkpt><trkpt lat="42.2350641" lon="-7.4705537"><ele>1259.0</ele><time>2026-04-25T16:32:06.058Z</time></trkpt><trkpt lat="42.2349557" lon="-7.4705419"><ele>1259.0</ele><time>2026-04-25T16:32:07.061Z</time></trkpt><trkpt lat="42.2348436" lon="-7.4705138"><ele>1259.0</ele><time>2026-04-25T16:32:08.065Z</time></trkpt><trkpt lat="42.234722" lon="-7.4704916"><ele>1259.0</ele><time>2026-04-25T16:32:09.075Z</time></trkpt><trkpt lat="42.2345918" lon="-7.4704338"><ele>1259.0</ele><time>2026-04-25T16:32:10.059Z</time></trkpt><trkpt lat="42.2344606" lon="-7.4703804"><ele>1263.25</ele><time>2026-04-25T16:32:11.06Z</time></trkpt><trkpt lat="42.2343366" lon="-7.4703346"><ele>1267.5</ele><time>2026-04-25T16:32:12.064Z</time></trkpt><trkpt lat="42.2342008" lon="-7.4702838"><ele>1271.75</ele><time>2026-04-25T16:32:13.055Z</time></trkpt><trkpt lat="42.2340801" lon="-7.4702485"><ele>1276.0</ele><time>2026-04-25T16:32:14.061Z</time></trkpt><trkpt lat="42.233968" lon="-7.4702332"><ele>1277.1999999999998</ele><time>2026-04-25T16:32:15.057Z</time></trkpt><trkpt lat="42.2338459" lon="-7.4702469"><ele>1278.3999999999999</ele><time>2026-04-25T16:32:16.057Z</time></trkpt><trkpt lat="42.2337248" lon="-7.4702635"><ele>1279.6</ele><time>2026-04-25T16:32:17.061Z</time></trkpt><trkpt lat="42.2336226" lon="-7.470307"><ele>1280.8</ele><time>2026-04-25T16:32:18.054Z</time></trkpt><trkpt lat="42.2335433" lon="-7.4703513"><ele>1282.0</ele><time>2026-04-25T16:32:19.059Z</time></trkpt><trkpt lat="42.233451" lon="-7.4704023"><ele>1282.0</ele><time>2026-04-25T16:32:20.06Z</time></trkpt><trkpt lat="42.2333604" lon="-7.4704403"><ele>1282.0</ele><time>2026-04-25T16:32:21.052Z</time></trkpt><trkpt lat="42.2332679" lon="-7.4704596"><ele>1282.0</ele><time>2026-04-25T16:32:22.065Z</time></trkpt><trkpt lat="42.2331696" lon="-7.4704589"><ele>1282.0</ele><time>2026-04-25T16:32:23.061Z</time></trkpt><trkpt lat="42.2330715" lon="-7.4704545"><ele>1282.0</ele><time>2026-04-25T16:32:24.057Z</time></trkpt><trkpt lat="42.2329724" lon="-7.4704023"><ele>1280.25</ele><time>2026-04-25T16:32:25.054Z</time></trkpt><trkpt lat="42.2328611" lon="-7.4703394"><ele>1278.5</ele><time>2026-04-25T16:32:26.064Z</time></trkpt><trkpt lat="42.2327361" lon="-7.4702509"><ele>1276.75</ele><time>2026-04-25T16:32:27.065Z</time></trkpt><trkpt lat="42.2326192" lon="-7.4701796"><ele>1275.0</ele><time>2026-04-25T16:32:28.06Z</time></trkpt><trkpt lat="42.232505" lon="-7.4701218"><ele>1275.0</ele><time>2026-04-25T16:32:29.062Z</time></trkpt><trkpt lat="42.2323846" lon="-7.4700538"><ele>1275.0</ele><time>2026-04-25T16:32:30.054Z</time></trkpt><trkpt lat="42.2322565" lon="-7.4699898"><ele>1275.0</ele><time>2026-04-25T16:32:31.057Z</time></trkpt><trkpt lat="42.2321269" lon="-7.4699172"><ele>1275.0</ele><time>2026-04-25T16:32:32.06Z</time></trkpt><trkpt lat="42.2319975" lon="-7.4698623"><ele>1274.0</ele><time>2026-04-25T16:32:33.059Z</time></trkpt><trkpt lat="42.2318706" lon="-7.4698139"><ele>1273.0</ele><time>2026-04-25T16:32:34.058Z</time></trkpt><trkpt lat="42.2317561" lon="-7.4697666"><ele>1272.0</ele><time>2026-04-25T16:32:35.057Z</time></trkpt><trkpt lat="42.2316629" lon="-7.4697264"><ele>1271.0</ele><time>2026-04-25T16:32:36.056Z</time></trkpt><trkpt lat="42.23158" lon="-7.4696939"><ele>1270.0</ele><time>2026-04-25T16:32:37.069Z</time></trkpt><trkpt lat="42.2314873" lon="-7.4696936"><ele>1270.6</ele><time>2026-04-25T16:32:38.058Z</time></trkpt><trkpt lat="42.2313761" lon="-7.4696926"><ele>1271.2</ele><time>2026-04-25T16:32:39.061Z</time></trkpt><trkpt lat="42.2312559" lon="-7.4696882"><ele>1271.8</ele><time>2026-04-25T16:32:40.064Z</time></trkpt><trkpt lat="42.2311432" lon="-7.4696767"><ele>1272.4</ele><time>2026-04-25T16:32:41.067Z</time></trkpt><trkpt lat="42.2310404" lon="-7.4696665"><ele>1273.0</ele><time>2026-04-25T16:32:42.06Z</time></trkpt><trkpt lat="42.2309504" lon="-7.4696719"><ele>1273.0</ele><time>2026-04-25T16:32:43.054Z</time></trkpt><trkpt lat="42.230862" lon="-7.4696783"><ele>1273.0</ele><time>2026-04-25T16:32:44.058Z</time></trkpt><trkpt lat="42.2307825" lon="-7.4697161"><ele>1273.0</ele><time>2026-04-25T16:32:45.064Z</time></trkpt><trkpt lat="42.2307175" lon="-7.4697809"><ele>1273.0</ele><time>2026-04-25T16:32:46.054Z</time></trkpt><trkpt lat="42.2306573" lon="-7.469887"><ele>1273.0</ele><time>2026-04-25T16:32:47.055Z</time></trkpt><trkpt lat="42.2306017" lon="-7.4699738"><ele>1273.0</ele><time>2026-04-25T16:32:48.06Z</time></trkpt><trkpt lat="42.2305357" lon="-7.4700087"><ele>1274.4</ele><time>2026-04-25T16:32:49.058Z</time></trkpt><trkpt lat="42.2304624" lon="-7.4700235"><ele>1275.8</ele><time>2026-04-25T16:32:50.061Z</time></trkpt><trkpt lat="42.2303753" lon="-7.470019"><ele>1277.2</ele><time>2026-04-25T16:32:51.051Z</time></trkpt><trkpt lat="42.2302868" lon="-7.4700041"><ele>1278.6</ele><time>2026-04-25T16:32:52.056Z</time></trkpt><trkpt lat="42.230183" lon="-7.4699557"><ele>1280.0</ele><time>2026-04-25T16:32:53.062Z</time></trkpt><trkpt lat="42.2300897" lon="-7.4698913"><ele>1280.0</ele><time>2026-04-25T16:32:54.067Z</time></trkpt><trkpt lat="42.2300203" lon="-7.4698133"><ele>1280.0</ele><time>2026-04-25T16:32:55.065Z</time></trkpt><trkpt lat="42.2299685" lon="-7.4697253"><ele>1280.0</ele><time>2026-04-25T16:32:56.057Z</time></trkpt><trkpt lat="42.2299226" lon="-7.4696094"><ele>1280.0</ele><time>2026-04-25T16:32:57.052Z</time></trkpt><trkpt lat="42.2298851" lon="-7.4694603"><ele>1280.0</ele><time>2026-04-25T16:32:58.056Z</time></trkpt><trkpt lat="42.2298489" lon="-7.4693063"><ele>1279.6</ele><time>2026-04-25T16:32:59.057Z</time></trkpt><trkpt lat="42.2298098" lon="-7.4691643"><ele>1279.2</ele><time>2026-04-25T16:33:00.057Z</time></trkpt><trkpt lat="42.2297614" lon="-7.4690262"><ele>1278.8</ele><time>2026-04-25T16:33:01.055Z</time></trkpt><trkpt lat="42.2297057" lon="-7.4689044"><ele>1278.4</ele><time>2026-04-25T16:33:02.057Z</time></trkpt><trkpt lat="42.2296606" lon="-7.4688204"><ele>1278.0</ele><time>2026-04-25T16:33:03.051Z</time></trkpt><trkpt lat="42.2295801" lon="-7.4687235"><ele>1281.1666666666667</ele><time>2026-04-25T16:33:05.057Z</time></trkpt><trkpt lat="42.2294855" lon="-7.4686355"><ele>1284.3333333333333</ele><time>2026-04-25T16:33:07.064Z</time></trkpt><trkpt lat="42.2294345" lon="-7.46856"><ele>1287.5</ele><time>2026-04-25T16:33:08.055Z</time></trkpt><trkpt lat="42.2293828" lon="-7.4684756"><ele>1290.6666666666665</ele><time>2026-04-25T16:33:09.063Z</time></trkpt><trkpt lat="42.229338" lon="-7.4683978"><ele>1293.8333333333333</ele><time>2026-04-25T16:33:10.056Z</time></trkpt><trkpt lat="42.2292629" lon="-7.4683113"><ele>1297.0</ele><time>2026-04-25T16:33:12.06Z</time></trkpt><trkpt lat="42.2291387" lon="-7.4683085"><ele>1297.0</ele><time>2026-04-25T16:33:14.062Z</time></trkpt><trkpt lat="42.22904" lon="-7.4683366"><ele>1297.0</ele><time>2026-04-25T16:33:15.048Z</time></trkpt><trkpt lat="42.2289497" lon="-7.4683667"><ele>1297.0</ele><time>2026-04-25T16:33:16.057Z</time></trkpt><trkpt lat="42.2288609" lon="-7.4683999"><ele>1297.0</ele><time>2026-04-25T16:33:17.05Z</time></trkpt><trkpt lat="42.2287909" lon="-7.4684786"><ele>1297.0</ele><time>2026-04-25T16:33:18.062Z</time></trkpt><trkpt lat="42.2287354" lon="-7.4685693"><ele>1298.5</ele><time>2026-04-25T16:33:19.057Z</time></trkpt><trkpt lat="42.2286868" lon="-7.4686436"><ele>1300.0</ele><time>2026-04-25T16:33:20.054Z</time></trkpt><trkpt lat="42.228623" lon="-7.4687053"><ele>1301.5</ele><time>2026-04-25T16:33:21.058Z</time></trkpt><trkpt lat="42.2285463" lon="-7.468744"><ele>1303.0</ele><time>2026-04-25T16:33:22.059Z</time></trkpt><trkpt lat="42.2284701" lon="-7.4687678"><ele>1304.5</ele><time>2026-04-25T16:33:23.062Z</time></trkpt><trkpt lat="42.228399" lon="-7.4687815"><ele>1306.0</ele><time>2026-04-25T16:33:24.057Z</time></trkpt><trkpt lat="42.2283275" lon="-7.4687906"><ele>1304.0</ele><time>2026-04-25T16:33:25.053Z</time></trkpt><trkpt lat="42.2282536" lon="-7.4687969"><ele>1302.0</ele><time>2026-04-25T16:33:26.067Z</time></trkpt><trkpt lat="42.2281758" lon="-7.468802"><ele>1300.0</ele><time>2026-04-25T16:33:27.057Z</time></trkpt><trkpt lat="42.2280922" lon="-7.4688104"><ele>1298.0</ele><time>2026-04-25T16:33:28.053Z</time></trkpt><trkpt lat="42.2280185" lon="-7.4688282"><ele>1296.0</ele><time>2026-04-25T16:33:29.049Z</time></trkpt><trkpt lat="42.2279444" lon="-7.468847"><ele>1294.0</ele><time>2026-04-25T16:33:30.061Z</time></trkpt><trkpt lat="42.2278766" lon="-7.4688955"><ele>1294.0</ele><time>2026-04-25T16:33:31.06Z</time></trkpt><trkpt lat="42.2278146" lon="-7.468955"><ele>1294.0</ele><time>2026-04-25T16:33:32.054Z</time></trkpt><trkpt lat="42.2277412" lon="-7.4690706"><ele>1294.0</ele><time>2026-04-25T16:33:34.066Z</time></trkpt><trkpt lat="42.2276606" lon="-7.4691994"><ele>1294.0</ele><time>2026-04-25T16:33:36.05Z</time></trkpt><trkpt lat="42.2276125" lon="-7.4692702"><ele>1294.0</ele><time>2026-04-25T16:33:37.058Z</time></trkpt><trkpt lat="42.2275527" lon="-7.4693246"><ele>1294.0</ele><time>2026-04-25T16:33:38.061Z</time></trkpt><trkpt lat="42.2274412" lon="-7.4693781"><ele>1294.0</ele><time>2026-04-25T16:33:40.056Z</time></trkpt><trkpt lat="42.2273324" lon="-7.4694127"><ele>1294.0</ele><time>2026-04-25T16:33:42.067Z</time></trkpt><trkpt lat="42.2272165" lon="-7.4694293"><ele>1294.0</ele><time>2026-04-25T16:33:44.064Z</time></trkpt><trkpt lat="42.2270972" lon="-7.4694494"><ele>1294.1666666666665</ele><time>2026-04-25T16:33:46.06Z</time></trkpt><trkpt lat="42.2270264" lon="-7.4694767"><ele>1294.3333333333333</ele><time>2026-04-25T16:33:47.059Z</time></trkpt><trkpt lat="42.2269484" lon="-7.4695056"><ele>1294.5</ele><time>2026-04-25T16:33:48.051Z</time></trkpt><trkpt lat="42.2268705" lon="-7.4695333"><ele>1294.6666666666667</ele><time>2026-04-25T16:33:49.062Z</time></trkpt><trkpt lat="42.2267831" lon="-7.4695645"><ele>1294.8333333333335</ele><time>2026-04-25T16:33:50.056Z</time></trkpt><trkpt lat="42.2266916" lon="-7.4695866"><ele>1295.0</ele><time>2026-04-25T16:33:51.057Z</time></trkpt><trkpt lat="42.2265913" lon="-7.4696012"><ele>1292.4</ele><time>2026-04-25T16:33:52.055Z</time></trkpt><trkpt lat="42.2264909" lon="-7.4696129"><ele>1289.8</ele><time>2026-04-25T16:33:53.063Z</time></trkpt><trkpt lat="42.2264023" lon="-7.4696269"><ele>1287.1999999999998</ele><time>2026-04-25T16:33:54.062Z</time></trkpt><trkpt lat="42.2263222" lon="-7.4696436"><ele>1284.6</ele><time>2026-04-25T16:33:55.054Z</time></trkpt><trkpt lat="42.2262349" lon="-7.4696796"><ele>1282.0</ele><time>2026-04-25T16:33:56.055Z</time></trkpt><trkpt lat="42.2261379" lon="-7.4697341"><ele>1282.0</ele><time>2026-04-25T16:33:57.056Z</time></trkpt><trkpt lat="42.2260273" lon="-7.4698005"><ele>1282.0</ele><time>2026-04-25T16:33:58.06Z</time></trkpt><trkpt lat="42.2259235" lon="-7.4698649"><ele>1282.0</ele><time>2026-04-25T16:33:59.055Z</time></trkpt><trkpt lat="42.2258274" lon="-7.4699258"><ele>1282.0</ele><time>2026-04-25T16:34:00.068Z</time></trkpt><trkpt lat="42.2257459" lon="-7.4699922"><ele>1282.0</ele><time>2026-04-25T16:34:01.067Z</time></trkpt><trkpt lat="42.225678" lon="-7.4700556"><ele>1280.6666666666665</ele><time>2026-04-25T16:34:02.07Z</time></trkpt><trkpt lat="42.2256232" lon="-7.470121"><ele>1279.3333333333333</ele><time>2026-04-25T16:34:03.065Z</time></trkpt><trkpt lat="42.2255936" lon="-7.4702159"><ele>1278.0</ele><time>2026-04-25T16:34:04.064Z</time></trkpt><trkpt lat="42.2255678" lon="-7.4703223"><ele>1276.6666666666667</ele><time>2026-04-25T16:34:05.053Z</time></trkpt><trkpt lat="42.2255419" lon="-7.4704423"><ele>1275.3333333333335</ele><time>2026-04-25T16:34:06.068Z</time></trkpt><trkpt lat="42.2255338" lon="-7.4705737"><ele>1274.0</ele><time>2026-04-25T16:34:07.053Z</time></trkpt><trkpt lat="42.2255294" lon="-7.4706837"><ele>1273.2</ele><time>2026-04-25T16:34:08.053Z</time></trkpt><trkpt lat="42.2255217" lon="-7.4707836"><ele>1272.4</ele><time>2026-04-25T16:34:09.055Z</time></trkpt><trkpt lat="42.225513" lon="-7.4708858"><ele>1271.6</ele><time>2026-04-25T16:34:10.057Z</time></trkpt><trkpt lat="42.225482" lon="-7.4709954"><ele>1270.8</ele><time>2026-04-25T16:34:11.057Z</time></trkpt><trkpt lat="42.2254319" lon="-7.4711176"><ele>1270.0</ele><time>2026-04-25T16:34:12.056Z</time></trkpt><trkpt lat="42.2253776" lon="-7.4712491"><ele>1269.8333333333333</ele><time>2026-04-25T16:34:13.06Z</time></trkpt><trkpt lat="42.2253187" lon="-7.4713789"><ele>1269.6666666666665</ele><time>2026-04-25T16:34:14.054Z</time></trkpt><trkpt lat="42.2252686" lon="-7.471484"><ele>1269.5</ele><time>2026-04-25T16:34:15.053Z</time></trkpt><trkpt lat="42.2252262" lon="-7.4715672"><ele>1269.3333333333333</ele><time>2026-04-25T16:34:16.06Z</time></trkpt><trkpt lat="42.2251788" lon="-7.4716306"><ele>1269.1666666666667</ele><time>2026-04-25T16:34:17.052Z</time></trkpt><trkpt lat="42.2251239" lon="-7.4716906"><ele>1269.0</ele><time>2026-04-25T16:34:18.06Z</time></trkpt><trkpt lat="42.2250545" lon="-7.4717566"><ele>1269.0</ele><time>2026-04-25T16:34:19.061Z</time></trkpt><trkpt lat="42.2249695" lon="-7.4718278"><ele>1269.0</ele><time>2026-04-25T16:34:20.062Z</time></trkpt><trkpt lat="42.2248753" lon="-7.4719066"><ele>1269.0</ele><time>2026-04-25T16:34:21.057Z</time></trkpt><trkpt lat="42.2247756" lon="-7.4719893"><ele>1269.0</ele><time>2026-04-25T16:34:22.063Z</time></trkpt><trkpt lat="42.2246696" lon="-7.4720901"><ele>1268.0</ele><time>2026-04-25T16:34:23.057Z</time></trkpt><trkpt lat="42.224576" lon="-7.4721746"><ele>1267.0</ele><time>2026-04-25T16:34:24.053Z</time></trkpt><trkpt lat="42.2244897" lon="-7.472259"><ele>1266.0</ele><time>2026-04-25T16:34:25.057Z</time></trkpt><trkpt lat="42.2244027" lon="-7.4723492"><ele>1265.0</ele><time>2026-04-25T16:34:26.058Z</time></trkpt><trkpt lat="42.2243165" lon="-7.472461"><ele>1264.0</ele><time>2026-04-25T16:34:27.058Z</time></trkpt><trkpt lat="42.2242338" lon="-7.4725712"><ele>1264.0</ele><time>2026-04-25T16:34:28.056Z</time></trkpt><trkpt lat="42.2241662" lon="-7.4726787"><ele>1264.0</ele><time>2026-04-25T16:34:29.053Z</time></trkpt><trkpt lat="42.2240943" lon="-7.4727963"><ele>1264.0</ele><time>2026-04-25T16:34:30.06Z</time></trkpt><trkpt lat="42.2240224" lon="-7.4729253"><ele>1264.0</ele><time>2026-04-25T16:34:31.058Z</time></trkpt><trkpt lat="42.2239484" lon="-7.4730614"><ele>1265.25</ele><time>2026-04-25T16:34:32.054Z</time></trkpt><trkpt lat="42.2238696" lon="-7.4732047"><ele>1266.5</ele><time>2026-04-25T16:34:33.063Z</time></trkpt><trkpt lat="42.2237977" lon="-7.4733385"><ele>1267.75</ele><time>2026-04-25T16:34:34.055Z</time></trkpt><trkpt lat="42.2237279" lon="-7.4734731"><ele>1269.0</ele><time>2026-04-25T16:34:35.053Z</time></trkpt><trkpt lat="42.2236532" lon="-7.4736104"><ele>1269.0</ele><time>2026-04-25T16:34:36.075Z</time></trkpt><trkpt lat="42.2235857" lon="-7.4737368"><ele>1269.0</ele><time>2026-04-25T16:34:37.055Z</time></trkpt><trkpt lat="42.2235167" lon="-7.4738557"><ele>1269.0</ele><time>2026-04-25T16:34:38.061Z</time></trkpt><trkpt lat="42.223447" lon="-7.4739799"><ele>1269.0</ele><time>2026-04-25T16:34:39.06Z</time></trkpt><trkpt lat="42.2233744" lon="-7.4741029"><ele>1268.8</ele><time>2026-04-25T16:34:40.055Z</time></trkpt><trkpt lat="42.2233109" lon="-7.4742155"><ele>1268.6000000000001</ele><time>2026-04-25T16:34:41.057Z</time></trkpt><trkpt lat="42.2232435" lon="-7.4743307"><ele>1268.4</ele><time>2026-04-25T16:34:42.066Z</time></trkpt><trkpt lat="42.2231779" lon="-7.4744469"><ele>1268.2</ele><time>2026-04-25T16:34:43.055Z</time></trkpt><trkpt lat="42.2231145" lon="-7.4745676"><ele>1268.0</ele><time>2026-04-25T16:34:44.056Z</time></trkpt><trkpt lat="42.2230484" lon="-7.4746814"><ele>1267.0</ele><time>2026-04-25T16:34:45.056Z</time></trkpt><trkpt lat="42.2229782" lon="-7.4748019"><ele>1266.0</ele><time>2026-04-25T16:34:46.061Z</time></trkpt><trkpt lat="42.2229033" lon="-7.4749309"><ele>1265.0</ele><time>2026-04-25T16:34:47.054Z</time></trkpt><trkpt lat="42.2228285" lon="-7.4750653"><ele>1264.0</ele><time>2026-04-25T16:34:48.059Z</time></trkpt><trkpt lat="42.2227511" lon="-7.4751958"><ele>1264.0</ele><time>2026-04-25T16:34:49.055Z</time></trkpt><trkpt lat="42.2226773" lon="-7.475324"><ele>1264.0</ele><time>2026-04-25T16:34:50.054Z</time></trkpt><trkpt lat="42.2226067" lon="-7.475453"><ele>1264.0</ele><time>2026-04-25T16:34:51.059Z</time></trkpt><trkpt lat="42.2225561" lon="-7.4755958"><ele>1264.0</ele><time>2026-04-25T16:34:52.055Z</time></trkpt><trkpt lat="42.2225115" lon="-7.4757357"><ele>1266.2</ele><time>2026-04-25T16:34:53.058Z</time></trkpt><trkpt lat="42.222471" lon="-7.4758616"><ele>1268.4</ele><time>2026-04-25T16:34:54.056Z</time></trkpt><trkpt lat="42.2224252" lon="-7.475983"><ele>1270.6</ele><time>2026-04-25T16:34:55.068Z</time></trkpt><trkpt lat="42.2223743" lon="-7.4761005"><ele>1272.8</ele><time>2026-04-25T16:34:56.053Z</time></trkpt><trkpt lat="42.2223269" lon="-7.4762062"><ele>1275.0</ele><time>2026-04-25T16:34:57.055Z</time></trkpt><trkpt lat="42.222281" lon="-7.4763224"><ele>1276.3333333333333</ele><time>2026-04-25T16:34:58.055Z</time></trkpt><trkpt lat="42.2222378" lon="-7.476442"><ele>1277.6666666666667</ele><time>2026-04-25T16:34:59.065Z</time></trkpt><trkpt lat="42.2222026" lon="-7.4765424"><ele>1279.0</ele><time>2026-04-25T16:35:00.06Z</time></trkpt><trkpt lat="42.2221842" lon="-7.4766367"><ele>1280.3333333333335</ele><time>2026-04-25T16:35:01.052Z</time></trkpt><trkpt lat="42.2221762" lon="-7.4767491"><ele>1281.6666666666667</ele><time>2026-04-25T16:35:02.061Z</time></trkpt><trkpt lat="42.2221952" lon="-7.4768858"><ele>1283.0</ele><time>2026-04-25T16:35:03.056Z</time></trkpt><trkpt lat="42.2222182" lon="-7.4770242"><ele>1283.25</ele><time>2026-04-25T16:35:04.054Z</time></trkpt><trkpt lat="42.2222463" lon="-7.4771831"><ele>1283.5</ele><time>2026-04-25T16:35:05.055Z</time></trkpt><trkpt lat="42.2222817" lon="-7.4773435"><ele>1283.75</ele><time>2026-04-25T16:35:06.057Z</time></trkpt><trkpt lat="42.2223197" lon="-7.4774891"><ele>1284.0</ele><time>2026-04-25T16:35:07.056Z</time></trkpt><trkpt lat="42.2223525" lon="-7.4776253"><ele>1284.0</ele><time>2026-04-25T16:35:08.06Z</time></trkpt><trkpt lat="42.2223826" lon="-7.4777481"><ele>1284.0</ele><time>2026-04-25T16:35:09.056Z</time></trkpt><trkpt lat="42.2224082" lon="-7.4778587"><ele>1284.0</ele><time>2026-04-25T16:35:10.053Z</time></trkpt><trkpt lat="42.2224635" lon="-7.4779624"><ele>1284.0</ele><time>2026-04-25T16:35:11.061Z</time></trkpt><trkpt lat="42.2225368" lon="-7.4780551"><ele>1284.0</ele><time>2026-04-25T16:35:12.054Z</time></trkpt><trkpt lat="42.222619" lon="-7.4781439"><ele>1284.8571428571427</ele><time>2026-04-25T16:35:13.053Z</time></trkpt><trkpt lat="42.2226876" lon="-7.4782237"><ele>1285.7142857142858</ele><time>2026-04-25T16:35:14.056Z</time></trkpt><trkpt lat="42.2227483" lon="-7.4782872"><ele>1286.5714285714284</ele><time>2026-04-25T16:35:15.061Z</time></trkpt><trkpt lat="42.2227964" lon="-7.4783443"><ele>1287.4285714285713</ele><time>2026-04-25T16:35:16.053Z</time></trkpt><trkpt lat="42.2228452" lon="-7.4783982"><ele>1288.2857142857142</ele><time>2026-04-25T16:35:17.063Z</time></trkpt><trkpt lat="42.2228995" lon="-7.4784694"><ele>1289.142857142857</ele><time>2026-04-25T16:35:18.056Z</time></trkpt><trkpt lat="42.2229499" lon="-7.4785457"><ele>1290.0</ele><time>2026-04-25T16:35:19.063Z</time></trkpt><trkpt lat="42.2230094" lon="-7.4786317"><ele>1290.0</ele><time>2026-04-25T16:35:20.068Z</time></trkpt><trkpt lat="42.2230664" lon="-7.4787207"><ele>1290.0</ele><time>2026-04-25T16:35:21.058Z</time></trkpt><trkpt lat="42.2231235" lon="-7.4788101"><ele>1290.0</ele><time>2026-04-25T16:35:22.068Z</time></trkpt><trkpt lat="42.2231867" lon="-7.4789014"><ele>1290.0</ele><time>2026-04-25T16:35:23.058Z</time></trkpt><trkpt lat="42.2232502" lon="-7.4789879"><ele>1290.0</ele><time>2026-04-25T16:35:24.064Z</time></trkpt><trkpt lat="42.2233145" lon="-7.479078"><ele>1293.0</ele><time>2026-04-25T16:35:25.061Z</time></trkpt><trkpt lat="42.2233819" lon="-7.4791747"><ele>1296.0</ele><time>2026-04-25T16:35:26.06Z</time></trkpt><trkpt lat="42.223444" lon="-7.479276"><ele>1299.0</ele><time>2026-04-25T16:35:27.055Z</time></trkpt><trkpt lat="42.2234937" lon="-7.4793767"><ele>1302.0</ele><time>2026-04-25T16:35:28.056Z</time></trkpt><trkpt lat="42.2235403" lon="-7.479489"><ele>1305.0</ele><time>2026-04-25T16:35:29.06Z</time></trkpt><trkpt lat="42.2235824" lon="-7.4796103"><ele>1307.0</ele><time>2026-04-25T16:35:30.065Z</time></trkpt><trkpt lat="42.2236239" lon="-7.4797388"><ele>1309.0</ele><time>2026-04-25T16:35:31.057Z</time></trkpt><trkpt lat="42.2236664" lon="-7.4798746"><ele>1311.0</ele><time>2026-04-25T16:35:32.062Z</time></trkpt><trkpt lat="42.2236998" lon="-7.4800097"><ele>1313.0</ele><time>2026-04-25T16:35:33.061Z</time></trkpt><trkpt lat="42.2237276" lon="-7.4801414"><ele>1315.0</ele><time>2026-04-25T16:35:34.062Z</time></trkpt><trkpt lat="42.2237502" lon="-7.4802556"><ele>1315.0</ele><time>2026-04-25T16:35:35.066Z</time></trkpt><trkpt lat="42.2237564" lon="-7.4803527"><ele>1315.0</ele><time>2026-04-25T16:35:36.055Z</time></trkpt><trkpt lat="42.2237528" lon="-7.4804425"><ele>1315.0</ele><time>2026-04-25T16:35:37.055Z</time></trkpt><trkpt lat="42.2237138" lon="-7.4805634"><ele>1315.0</ele><time>2026-04-25T16:35:39.06Z</time></trkpt><trkpt lat="42.2236295" lon="-7.4806819"><ele>1315.0</ele><time>2026-04-25T16:35:41.058Z</time></trkpt><trkpt lat="42.2235812" lon="-7.4807383"><ele>1315.0</ele><time>2026-04-25T16:35:42.057Z</time></trkpt><trkpt lat="42.2235192" lon="-7.4807863"><ele>1316.6</ele><time>2026-04-25T16:35:43.063Z</time></trkpt><trkpt lat="42.2234396" lon="-7.4808168"><ele>1318.2</ele><time>2026-04-25T16:35:44.053Z</time></trkpt><trkpt lat="42.2233541" lon="-7.4808446"><ele>1319.8000000000002</ele><time>2026-04-25T16:35:45.059Z</time></trkpt><trkpt lat="42.2232654" lon="-7.4808842"><ele>1321.4</ele><time>2026-04-25T16:35:46.048Z</time></trkpt><trkpt lat="42.2231745" lon="-7.4809351"><ele>1323.0</ele><time>2026-04-25T16:35:47.058Z</time></trkpt><trkpt lat="42.2230839" lon="-7.4809893"><ele>1323.2</ele><time>2026-04-25T16:35:48.058Z</time></trkpt><trkpt lat="42.2229996" lon="-7.4810472"><ele>1323.4</ele><time>2026-04-25T16:35:49.062Z</time></trkpt><trkpt lat="42.2229289" lon="-7.4811048"><ele>1323.6000000000001</ele><time>2026-04-25T16:35:50.064Z</time></trkpt><trkpt lat="42.2228548" lon="-7.4811801"><ele>1323.8000000000002</ele><time>2026-04-25T16:35:51.06Z</time></trkpt><trkpt lat="42.2227793" lon="-7.4812722"><ele>1324.0</ele><time>2026-04-25T16:35:52.058Z</time></trkpt><trkpt lat="42.2227081" lon="-7.4813782"><ele>1325.0</ele><time>2026-04-25T16:35:53.061Z</time></trkpt><trkpt lat="42.2226417" lon="-7.4814885"><ele>1326.0</ele><time>2026-04-25T16:35:54.064Z</time></trkpt><trkpt lat="42.222574" lon="-7.481603"><ele>1327.0</ele><time>2026-04-25T16:35:55.061Z</time></trkpt><trkpt lat="42.2225074" lon="-7.4817215"><ele>1328.0</ele><time>2026-04-25T16:35:56.064Z</time></trkpt><trkpt lat="42.2224527" lon="-7.4818244"><ele>1329.0</ele><time>2026-04-25T16:35:57.063Z</time></trkpt><trkpt lat="42.2224" lon="-7.4819224"><ele>1329.0</ele><time>2026-04-25T16:35:58.065Z</time></trkpt><trkpt lat="42.2223528" lon="-7.4820158"><ele>1329.0</ele><time>2026-04-25T16:35:59.061Z</time></trkpt><trkpt lat="42.2222949" lon="-7.4821158"><ele>1329.0</ele><time>2026-04-25T16:36:01.064Z</time></trkpt><trkpt lat="42.2222878" lon="-7.4822029"><ele>1329.0</ele><time>2026-04-25T16:36:04.061Z</time></trkpt><trkpt lat="42.2223035" lon="-7.4823352"><ele>1329.0</ele><time>2026-04-25T16:36:07.061Z</time></trkpt><trkpt lat="42.2223161" lon="-7.4824206"><ele>1329.0</ele><time>2026-04-25T16:36:08.062Z</time></trkpt><trkpt lat="42.222324" lon="-7.482532"><ele>1329.1666666666667</ele><time>2026-04-25T16:36:09.064Z</time></trkpt><trkpt lat="42.2223264" lon="-7.4826436"><ele>1329.3333333333333</ele><time>2026-04-25T16:36:10.061Z</time></trkpt><trkpt lat="42.2223313" lon="-7.4827545"><ele>1329.5</ele><time>2026-04-25T16:36:11.055Z</time></trkpt><trkpt lat="42.2223392" lon="-7.4828551"><ele>1329.6666666666665</ele><time>2026-04-25T16:36:12.063Z</time></trkpt><trkpt lat="42.2223564" lon="-7.4829536"><ele>1329.8333333333333</ele><time>2026-04-25T16:36:13.053Z</time></trkpt><trkpt lat="42.222374" lon="-7.4830479"><ele>1330.0</ele><time>2026-04-25T16:36:14.062Z</time></trkpt><trkpt lat="42.2223977" lon="-7.4831353"><ele>1331.0</ele><time>2026-04-25T16:36:15.065Z</time></trkpt><trkpt lat="42.2224207" lon="-7.4832276"><ele>1332.0</ele><time>2026-04-25T16:36:16.055Z</time></trkpt><trkpt lat="42.2224427" lon="-7.4833316"><ele>1333.0</ele><time>2026-04-25T16:36:17.054Z</time></trkpt><trkpt lat="42.2224719" lon="-7.4834487"><ele>1334.0</ele><time>2026-04-25T16:36:18.052Z</time></trkpt><trkpt lat="42.2225134" lon="-7.4835637"><ele>1335.0</ele><time>2026-04-25T16:36:19.058Z</time></trkpt><trkpt lat="42.2225639" lon="-7.4836656"><ele>1336.0</ele><time>2026-04-25T16:36:20.056Z</time></trkpt><trkpt lat="42.2226216" lon="-7.4837616"><ele>1337.5</ele><time>2026-04-25T16:36:21.062Z</time></trkpt><trkpt lat="42.2226792" lon="-7.4838563"><ele>1339.0</ele><time>2026-04-25T16:36:22.058Z</time></trkpt><trkpt lat="42.2227322" lon="-7.4839437"><ele>1340.5</ele><time>2026-04-25T16:36:23.054Z</time></trkpt><trkpt lat="42.2227918" lon="-7.4840334"><ele>1342.0</ele><time>2026-04-25T16:36:24.064Z</time></trkpt><trkpt lat="42.2228519" lon="-7.4841123"><ele>1343.5</ele><time>2026-04-25T16:36:25.054Z</time></trkpt><trkpt lat="42.2229036" lon="-7.4842087"><ele>1345.0</ele><time>2026-04-25T16:36:26.054Z</time></trkpt><trkpt lat="42.2229592" lon="-7.4843145"><ele>1345.0</ele><time>2026-04-25T16:36:27.054Z</time></trkpt><trkpt lat="42.2229952" lon="-7.4844434"><ele>1345.0</ele><time>2026-04-25T16:36:28.064Z</time></trkpt><trkpt lat="42.2230293" lon="-7.4845799"><ele>1345.0</ele><time>2026-04-25T16:36:29.054Z</time></trkpt><trkpt lat="42.2230668" lon="-7.4847034"><ele>1345.0</ele><time>2026-04-25T16:36:30.054Z</time></trkpt><trkpt lat="42.2231022" lon="-7.4848217"><ele>1345.0</ele><time>2026-04-25T16:36:31.066Z</time></trkpt><trkpt lat="42.2231358" lon="-7.4849165"><ele>1340.4</ele><time>2026-04-25T16:36:32.053Z</time></trkpt><trkpt lat="42.22317" lon="-7.4850125"><ele>1335.8</ele><time>2026-04-25T16:36:33.051Z</time></trkpt><trkpt lat="42.2231882" lon="-7.4851353"><ele>1331.1999999999998</ele><time>2026-04-25T16:36:34.072Z</time></trkpt><trkpt lat="42.2231974" lon="-7.485268"><ele>1326.6</ele><time>2026-04-25T16:36:35.054Z</time></trkpt><trkpt lat="42.2231938" lon="-7.485407"><ele>1322.0</ele><time>2026-04-25T16:36:36.056Z</time></trkpt><trkpt lat="42.2231743" lon="-7.4855463"><ele>1321.6</ele><time>2026-04-25T16:36:37.057Z</time></trkpt><trkpt lat="42.2231474" lon="-7.48569"><ele>1321.1999999999998</ele><time>2026-04-25T16:36:38.055Z</time></trkpt><trkpt lat="42.2231201" lon="-7.4858356"><ele>1320.8</ele><time>2026-04-25T16:36:39.06Z</time></trkpt><trkpt lat="42.2230847" lon="-7.4859755"><ele>1320.4</ele><time>2026-04-25T16:36:40.053Z</time></trkpt><trkpt lat="42.2230575" lon="-7.4861071"><ele>1320.0</ele><time>2026-04-25T16:36:41.053Z</time></trkpt><trkpt lat="42.2230289" lon="-7.4862155"><ele>1325.4</ele><time>2026-04-25T16:36:42.045Z</time></trkpt><trkpt lat="42.2229968" lon="-7.4863312"><ele>1330.8</ele><time>2026-04-25T16:36:43.052Z</time></trkpt><trkpt lat="42.2229624" lon="-7.4864438"><ele>1336.1999999999998</ele><time>2026-04-25T16:36:44.056Z</time></trkpt><trkpt lat="42.2229205" lon="-7.4865693"><ele>1341.6</ele><time>2026-04-25T16:36:45.055Z</time></trkpt><trkpt lat="42.222899" lon="-7.4867198"><ele>1347.0</ele><time>2026-04-25T16:36:46.054Z</time></trkpt><trkpt lat="42.2228854" lon="-7.4868586"><ele>1347.0</ele><time>2026-04-25T16:36:47.05Z</time></trkpt><trkpt lat="42.2228699" lon="-7.4869733"><ele>1347.0</ele><time>2026-04-25T16:36:48.05Z</time></trkpt><trkpt lat="42.2228632" lon="-7.4870944"><ele>1347.0</ele><time>2026-04-25T16:36:49.053Z</time></trkpt><trkpt lat="42.2228595" lon="-7.4872075"><ele>1347.0</ele><time>2026-04-25T16:36:50.045Z</time></trkpt><trkpt lat="42.2228528" lon="-7.4873702"><ele>1347.0</ele><time>2026-04-25T16:36:52.052Z</time></trkpt><trkpt lat="42.222901" lon="-7.4875541"><ele>1346.8333333333333</ele><time>2026-04-25T16:36:54.065Z</time></trkpt><trkpt lat="42.2229611" lon="-7.4876323"><ele>1346.6666666666667</ele><time>2026-04-25T16:36:55.056Z</time></trkpt><trkpt lat="42.2230126" lon="-7.487702"><ele>1346.5</ele><time>2026-04-25T16:36:56.056Z</time></trkpt><trkpt lat="42.2230436" lon="-7.4877903"><ele>1346.3333333333335</ele><time>2026-04-25T16:36:57.055Z</time></trkpt><trkpt lat="42.2230264" lon="-7.4878821"><ele>1346.1666666666667</ele><time>2026-04-25T16:36:58.06Z</time></trkpt><trkpt lat="42.2229488" lon="-7.488027"><ele>1346.0</ele><time>2026-04-25T16:37:00.055Z</time></trkpt><trkpt lat="42.2228694" lon="-7.4881051"><ele>1344.0</ele><time>2026-04-25T16:37:01.064Z</time></trkpt><trkpt lat="42.2227651" lon="-7.4882096"><ele>1342.0</ele><time>2026-04-25T16:37:02.051Z</time></trkpt><trkpt lat="42.2226602" lon="-7.4883469"><ele>1340.0</ele><time>2026-04-25T16:37:03.059Z</time></trkpt><trkpt lat="42.2225577" lon="-7.4884747"><ele>1338.0</ele><time>2026-04-25T16:37:04.064Z</time></trkpt><trkpt lat="42.2224684" lon="-7.4885939"><ele>1338.0</ele><time>2026-04-25T16:37:05.054Z</time></trkpt><trkpt lat="42.222389" lon="-7.4887004"><ele>1338.0</ele><time>2026-04-25T16:37:06.048Z</time></trkpt><trkpt lat="42.2223275" lon="-7.4887863"><ele>1338.0</ele><time>2026-04-25T16:37:07.05Z</time></trkpt><trkpt lat="42.2222705" lon="-7.4888799"><ele>1338.0</ele><time>2026-04-25T16:37:08.057Z</time></trkpt><trkpt lat="42.2222303" lon="-7.4889622"><ele>1338.0</ele><time>2026-04-25T16:37:09.057Z</time></trkpt><trkpt lat="42.2221811" lon="-7.4890587"><ele>1340.6666666666667</ele><time>2026-04-25T16:37:11.061Z</time></trkpt><trkpt lat="42.2221539" lon="-7.4891418"><ele>1343.3333333333333</ele><time>2026-04-25T16:37:13.067Z</time></trkpt><trkpt lat="42.2220996" lon="-7.4892403"><ele>1346.0</ele><time>2026-04-25T16:37:15.061Z</time></trkpt><trkpt lat="42.2220652" lon="-7.4893258"><ele>1348.6666666666665</ele><time>2026-04-25T16:37:17.067Z</time></trkpt><trkpt lat="42.2220512" lon="-7.4894098"><ele>1351.3333333333333</ele><time>2026-04-25T16:39:53.054Z</time></trkpt><trkpt lat="42.2219698" lon="-7.4894972"><ele>1354.0</ele><time>2026-04-25T16:39:55.067Z</time></trkpt><trkpt lat="42.2219125" lon="-7.4895478"><ele>1349.2</ele><time>2026-04-25T16:39:56.058Z</time></trkpt><trkpt lat="42.2218328" lon="-7.4896287"><ele>1344.4</ele><time>2026-04-25T16:39:57.06Z</time></trkpt><trkpt lat="42.2217573" lon="-7.4897041"><ele>1339.6</ele><time>2026-04-25T16:39:58.059Z</time></trkpt><trkpt lat="42.2216723" lon="-7.489776"><ele>1334.8</ele><time>2026-04-25T16:39:59.056Z</time></trkpt><trkpt lat="42.2215995" lon="-7.4898466"><ele>1330.0</ele><time>2026-04-25T16:40:00.063Z</time></trkpt><trkpt lat="42.2215356" lon="-7.4899092"><ele>1333.0</ele><time>2026-04-25T16:40:01.056Z</time></trkpt><trkpt lat="42.2214764" lon="-7.4899626"><ele>1336.0</ele><time>2026-04-25T16:40:02.064Z</time></trkpt><trkpt lat="42.2213682" lon="-7.4900401"><ele>1339.0</ele><time>2026-04-25T16:40:04.054Z</time></trkpt><trkpt lat="42.221249" lon="-7.4900865"><ele>1342.0</ele><time>2026-04-25T16:40:06.058Z</time></trkpt><trkpt lat="42.2211861" lon="-7.4901149"><ele>1345.0</ele><time>2026-04-25T16:40:07.061Z</time></trkpt><trkpt lat="42.2211244" lon="-7.4901587"><ele>1345.0</ele><time>2026-04-25T16:40:08.062Z</time></trkpt><trkpt lat="42.2210596" lon="-7.4902138"><ele>1345.0</ele><time>2026-04-25T16:40:09.051Z</time></trkpt><trkpt lat="42.2209956" lon="-7.4902702"><ele>1345.0</ele><time>2026-04-25T16:40:10.05Z</time></trkpt><trkpt lat="42.220924" lon="-7.4903457"><ele>1345.0</ele><time>2026-04-25T16:40:11.051Z</time></trkpt><trkpt lat="42.2208564" lon="-7.4904161"><ele>1345.0</ele><time>2026-04-25T16:40:12.055Z</time></trkpt><trkpt lat="42.2207964" lon="-7.4904814"><ele>1345.0</ele><time>2026-04-25T16:40:13.052Z</time></trkpt><trkpt lat="42.2207339" lon="-7.4905467"><ele>1347.0</ele><time>2026-04-25T16:40:14.053Z</time></trkpt><trkpt lat="42.2206797" lon="-7.4905955"><ele>1349.0</ele><time>2026-04-25T16:40:15.054Z</time></trkpt><trkpt lat="42.2206075" lon="-7.4906745"><ele>1351.0</ele><time>2026-04-25T16:40:17.056Z</time></trkpt><trkpt lat="42.2205695" lon="-7.4907442"><ele>1353.0</ele><time>2026-04-25T16:40:20.066Z</time></trkpt><trkpt lat="42.2205758" lon="-7.4908441"><ele>1355.0</ele><time>2026-04-25T16:40:23.055Z</time></trkpt><trkpt lat="42.2206312" lon="-7.4909738"><ele>1357.0</ele><time>2026-04-25T16:40:25.064Z</time></trkpt><trkpt lat="42.2206688" lon="-7.491048"><ele>1353.0</ele><time>2026-04-25T16:40:26.054Z</time></trkpt><trkpt lat="42.2207222" lon="-7.4911203"><ele>1349.0</ele><time>2026-04-25T16:40:27.049Z</time></trkpt><trkpt lat="42.2207702" lon="-7.4911876"><ele>1345.0</ele><time>2026-04-25T16:40:28.054Z</time></trkpt><trkpt lat="42.220868" lon="-7.4912843"><ele>1341.0</ele><time>2026-04-25T16:40:30.053Z</time></trkpt><trkpt lat="42.2209262" lon="-7.4913539"><ele>1337.0</ele><time>2026-04-25T16:40:31.054Z</time></trkpt><trkpt lat="42.2209694" lon="-7.4914245"><ele>1333.0</ele><time>2026-04-25T16:40:32.058Z</time></trkpt><trkpt lat="42.2210251" lon="-7.4915382"><ele>1332.9999999999998</ele><time>2026-04-25T16:40:34.064Z</time></trkpt><trkpt lat="42.2210564" lon="-7.4916121"><ele>1333.0</ele><time>2026-04-25T16:40:35.065Z</time></trkpt><trkpt lat="42.2210921" lon="-7.4916925"><ele>1333.0</ele><time>2026-04-25T16:40:36.069Z</time></trkpt><trkpt lat="42.2211338" lon="-7.4917747"><ele>1333.0</ele><time>2026-04-25T16:40:37.056Z</time></trkpt><trkpt lat="42.2211728" lon="-7.4918599"><ele>1333.0</ele><time>2026-04-25T16:40:38.049Z</time></trkpt><trkpt lat="42.2212162" lon="-7.4919446"><ele>1332.9999999999998</ele><time>2026-04-25T16:40:39.067Z</time></trkpt><trkpt lat="42.2212743" lon="-7.4920281"><ele>1333.0</ele><time>2026-04-25T16:40:40.047Z</time></trkpt><trkpt lat="42.2213349" lon="-7.4921027"><ele>1330.6666666666665</ele><time>2026-04-25T16:40:41.059Z</time></trkpt><trkpt lat="42.2213966" lon="-7.492161"><ele>1328.3333333333333</ele><time>2026-04-25T16:40:42.053Z</time></trkpt><trkpt lat="42.2214547" lon="-7.4922121"><ele>1326.0</ele><time>2026-04-25T16:40:43.052Z</time></trkpt><trkpt lat="42.2215217" lon="-7.4922595"><ele>1323.6666666666667</ele><time>2026-04-25T16:40:44.05Z</time></trkpt><trkpt lat="42.2216059" lon="-7.4923151"><ele>1321.3333333333335</ele><time>2026-04-25T16:40:45.058Z</time></trkpt><trkpt lat="42.2216931" lon="-7.4923758"><ele>1319.0</ele><time>2026-04-25T16:40:46.055Z</time></trkpt><trkpt lat="42.2217718" lon="-7.4924467"><ele>1319.0</ele><time>2026-04-25T16:40:47.048Z</time></trkpt><trkpt lat="42.221855" lon="-7.492534"><ele>1319.0</ele><time>2026-04-25T16:40:48.062Z</time></trkpt><trkpt lat="42.2219366" lon="-7.4926177"><ele>1319.0</ele><time>2026-04-25T16:40:49.053Z</time></trkpt><trkpt lat="42.222007" lon="-7.4926893"><ele>1319.0</ele><time>2026-04-25T16:40:50.054Z</time></trkpt><trkpt lat="42.2220738" lon="-7.492763"><ele>1319.0</ele><time>2026-04-25T16:40:51.047Z</time></trkpt><trkpt lat="42.2221503" lon="-7.4928381"><ele>1318.4</ele><time>2026-04-25T16:40:52.06Z</time></trkpt><trkpt lat="42.2222156" lon="-7.4929554"><ele>1317.8000000000002</ele><time>2026-04-25T16:40:53.057Z</time></trkpt><trkpt lat="42.2222793" lon="-7.4930615"><ele>1317.1999999999998</ele><time>2026-04-25T16:40:54.053Z</time></trkpt><trkpt lat="42.2223477" lon="-7.4931704"><ele>1316.6</ele><time>2026-04-25T16:40:55.059Z</time></trkpt><trkpt lat="42.2224285" lon="-7.4932618"><ele>1316.0</ele><time>2026-04-25T16:40:56.061Z</time></trkpt><trkpt lat="42.2224954" lon="-7.4933557"><ele>1316.0</ele><time>2026-04-25T16:40:57.054Z</time></trkpt><trkpt lat="42.2225463" lon="-7.4934181"><ele>1316.0</ele><time>2026-04-25T16:40:58.054Z</time></trkpt><trkpt lat="42.2226229" lon="-7.4934649"><ele>1316.0</ele><time>2026-04-25T16:40:59.061Z</time></trkpt><trkpt lat="42.2226947" lon="-7.4935084"><ele>1316.0</ele><time>2026-04-25T16:41:00.052Z</time></trkpt><trkpt lat="42.2227702" lon="-7.4935535"><ele>1316.0</ele><time>2026-04-25T16:41:01.058Z</time></trkpt><trkpt lat="42.2228306" lon="-7.4935998"><ele>1316.0</ele><time>2026-04-25T16:41:02.053Z</time></trkpt><trkpt lat="42.2228909" lon="-7.4936546"><ele>1316.0</ele><time>2026-04-25T16:41:03.054Z</time></trkpt><trkpt lat="42.2229206" lon="-7.4937322"><ele>1316.0</ele><time>2026-04-25T16:41:04.061Z</time></trkpt><trkpt lat="42.2229265" lon="-7.4938248"><ele>1316.0</ele><time>2026-04-25T16:41:05.054Z</time></trkpt><trkpt lat="42.2229037" lon="-7.493969"><ele>1316.0</ele><time>2026-04-25T16:41:07.057Z</time></trkpt><trkpt lat="42.2228508" lon="-7.4940262"><ele>1316.0</ele><time>2026-04-25T16:41:08.063Z</time></trkpt><trkpt lat="42.222786" lon="-7.4940872"><ele>1316.0</ele><time>2026-04-25T16:41:09.061Z</time></trkpt><trkpt lat="42.2227237" lon="-7.4941384"><ele>1316.0</ele><time>2026-04-25T16:41:10.059Z</time></trkpt><trkpt lat="42.2226604" lon="-7.4941772"><ele>1316.0</ele><time>2026-04-25T16:41:11.05Z</time></trkpt><trkpt lat="42.2226021" lon="-7.4942197"><ele>1316.0</ele><time>2026-04-25T16:41:12.052Z</time></trkpt><trkpt lat="42.2225137" lon="-7.494303"><ele>1316.0</ele><time>2026-04-25T16:41:14.06Z</time></trkpt><trkpt lat="42.222458" lon="-7.4944068"><ele>1316.0</ele><time>2026-04-25T16:41:16.053Z</time></trkpt><trkpt lat="42.2224695" lon="-7.4945131"><ele>1316.0</ele><time>2026-04-25T16:41:18.056Z</time></trkpt><trkpt lat="42.2225273" lon="-7.4945811"><ele>1318.0</ele><time>2026-04-25T16:41:20.061Z</time></trkpt><trkpt lat="42.2226233" lon="-7.4946593"><ele>1320.0</ele><time>2026-04-25T16:41:22.056Z</time></trkpt><trkpt lat="42.2226793" lon="-7.4947004"><ele>1322.0</ele><time>2026-04-25T16:41:23.057Z</time></trkpt><trkpt lat="42.2227535" lon="-7.4947187"><ele>1324.0</ele><time>2026-04-25T16:41:24.053Z</time></trkpt><trkpt lat="42.2228405" lon="-7.4947491"><ele>1326.0</ele><time>2026-04-25T16:41:25.064Z</time></trkpt><trkpt lat="42.2229197" lon="-7.4948006"><ele>1328.0</ele><time>2026-04-25T16:41:26.059Z</time></trkpt><trkpt lat="42.2230003" lon="-7.4948646"><ele>1328.0</ele><time>2026-04-25T16:41:27.048Z</time></trkpt><trkpt lat="42.223073" lon="-7.4949228"><ele>1328.0</ele><time>2026-04-25T16:41:28.057Z</time></trkpt><trkpt lat="42.2231658" lon="-7.4949928"><ele>1328.0</ele><time>2026-04-25T16:41:30.049Z</time></trkpt><trkpt lat="42.2232579" lon="-7.4951076"><ele>1328.0</ele><time>2026-04-25T16:41:32.056Z</time></trkpt><trkpt lat="42.223288" lon="-7.4951909"><ele>1328.0</ele><time>2026-04-25T16:41:33.075Z</time></trkpt><trkpt lat="42.2233166" lon="-7.495295"><ele>1328.0</ele><time>2026-04-25T16:41:34.05Z</time></trkpt><trkpt lat="42.2233263" lon="-7.4953808"><ele>1328.0</ele><time>2026-04-25T16:41:35.052Z</time></trkpt><trkpt lat="42.2233353" lon="-7.4954656"><ele>1328.0</ele><time>2026-04-25T16:41:36.052Z</time></trkpt><trkpt lat="42.2233565" lon="-7.4955648"><ele>1328.0</ele><time>2026-04-25T16:41:37.049Z</time></trkpt><trkpt lat="42.2233816" lon="-7.4956568"><ele>1328.0</ele><time>2026-04-25T16:41:38.058Z</time></trkpt><trkpt lat="42.2234122" lon="-7.4957384"><ele>1328.0</ele><time>2026-04-25T16:41:39.05Z</time></trkpt><trkpt lat="42.2234373" lon="-7.4958313"><ele>1328.0</ele><time>2026-04-25T16:41:40.052Z</time></trkpt><trkpt lat="42.2234672" lon="-7.4959335"><ele>1328.0</ele><time>2026-04-25T16:41:41.059Z</time></trkpt><trkpt lat="42.2234937" lon="-7.496069"><ele>1328.0</ele><time>2026-04-25T16:41:42.06Z</time></trkpt><trkpt lat="42.2234991" lon="-7.4961711"><ele>1328.0</ele><time>2026-04-25T16:41:43.049Z</time></trkpt><trkpt lat="42.2235006" lon="-7.4963174"><ele>1328.0</ele><time>2026-04-25T16:41:45.054Z</time></trkpt><trkpt lat="42.223486" lon="-7.4964073"><ele>1328.0</ele><time>2026-04-25T16:41:46.049Z</time></trkpt><trkpt lat="42.223463" lon="-7.4965073"><ele>1328.0</ele><time>2026-04-25T16:41:47.053Z</time></trkpt><trkpt lat="42.2234329" lon="-7.4965958"><ele>1328.2</ele><time>2026-04-25T16:41:48.049Z</time></trkpt><trkpt lat="42.2234015" lon="-7.4966855"><ele>1328.4</ele><time>2026-04-25T16:41:49.046Z</time></trkpt><trkpt lat="42.2233581" lon="-7.4968222"><ele>1328.6000000000001</ele><time>2026-04-25T16:41:50.057Z</time></trkpt><trkpt lat="42.223312" lon="-7.4969488"><ele>1328.8000000000002</ele><time>2026-04-25T16:41:51.052Z</time></trkpt><trkpt lat="42.2232781" lon="-7.4970733"><ele>1329.0</ele><time>2026-04-25T16:41:52.042Z</time></trkpt><trkpt lat="42.2232817" lon="-7.4972285"><ele>1329.0</ele><time>2026-04-25T16:41:53.049Z</time></trkpt><trkpt lat="42.2232947" lon="-7.4973719"><ele>1329.0</ele><time>2026-04-25T16:41:54.053Z</time></trkpt><trkpt lat="42.2233172" lon="-7.4974846"><ele>1329.0</ele><time>2026-04-25T16:41:55.051Z</time></trkpt><trkpt lat="42.2233293" lon="-7.4975814"><ele>1329.0</ele><time>2026-04-25T16:41:56.049Z</time></trkpt><trkpt lat="42.2233191" lon="-7.4976835"><ele>1329.0</ele><time>2026-04-25T16:41:57.068Z</time></trkpt><trkpt lat="42.2232931" lon="-7.4978181"><ele>1329.0</ele><time>2026-04-25T16:41:58.062Z</time></trkpt><trkpt lat="42.223235" lon="-7.4979474"><ele>1326.8000000000002</ele><time>2026-04-25T16:41:59.062Z</time></trkpt><trkpt lat="42.2231594" lon="-7.4980616"><ele>1324.6000000000001</ele><time>2026-04-25T16:42:00.059Z</time></trkpt><trkpt lat="42.2230873" lon="-7.4981548"><ele>1322.4</ele><time>2026-04-25T16:42:01.071Z</time></trkpt><trkpt lat="42.223015" lon="-7.4982372"><ele>1320.2</ele><time>2026-04-25T16:42:02.055Z</time></trkpt><trkpt lat="42.2229348" lon="-7.4983077"><ele>1318.0</ele><time>2026-04-25T16:42:03.064Z</time></trkpt><trkpt lat="42.2228438" lon="-7.498361"><ele>1322.6000000000001</ele><time>2026-04-25T16:42:04.053Z</time></trkpt><trkpt lat="42.2227499" lon="-7.4984178"><ele>1327.2</ele><time>2026-04-25T16:42:05.057Z</time></trkpt><trkpt lat="42.2226596" lon="-7.4984603"><ele>1331.8</ele><time>2026-04-25T16:42:06.055Z</time></trkpt><trkpt lat="42.2225769" lon="-7.4985021"><ele>1336.4</ele><time>2026-04-25T16:42:07.057Z</time></trkpt><trkpt lat="42.2224943" lon="-7.4985557"><ele>1341.0</ele><time>2026-04-25T16:42:08.051Z</time></trkpt><trkpt lat="42.222415" lon="-7.4986395"><ele>1341.0</ele><time>2026-04-25T16:42:09.059Z</time></trkpt><trkpt lat="42.2223485" lon="-7.4987142"><ele>1341.0</ele><time>2026-04-25T16:42:10.049Z</time></trkpt><trkpt lat="42.2222912" lon="-7.4987919"><ele>1341.0</ele><time>2026-04-25T16:42:11.055Z</time></trkpt><trkpt lat="42.2222368" lon="-7.4988583"><ele>1341.0</ele><time>2026-04-25T16:42:12.058Z</time></trkpt><trkpt lat="42.2221709" lon="-7.4989639"><ele>1341.0</ele><time>2026-04-25T16:42:14.049Z</time></trkpt><trkpt lat="42.2221096" lon="-7.4990991"><ele>1343.5</ele><time>2026-04-25T16:42:16.066Z</time></trkpt><trkpt lat="42.2220838" lon="-7.49919"><ele>1346.0</ele><time>2026-04-25T16:42:17.054Z</time></trkpt><trkpt lat="42.222069" lon="-7.4992863"><ele>1348.5</ele><time>2026-04-25T16:42:18.056Z</time></trkpt><trkpt lat="42.2220459" lon="-7.4993971"><ele>1351.0</ele><time>2026-04-25T16:42:20.053Z</time></trkpt><trkpt lat="42.2220487" lon="-7.4994938"><ele>1353.5</ele><time>2026-04-25T16:42:23.056Z</time></trkpt><trkpt lat="42.2220483" lon="-7.4995909"><ele>1356.0</ele><time>2026-04-25T16:42:27.057Z</time></trkpt><trkpt lat="42.2220854" lon="-7.4996936"><ele>1356.8333333333333</ele><time>2026-04-25T16:42:30.052Z</time></trkpt><trkpt lat="42.2221115" lon="-7.4997735"><ele>1357.6666666666667</ele><time>2026-04-25T16:42:32.052Z</time></trkpt><trkpt lat="42.2221517" lon="-7.4998619"><ele>1358.5</ele><time>2026-04-25T16:42:36.094Z</time></trkpt><trkpt lat="42.2221954" lon="-7.4999447"><ele>1359.3333333333335</ele><time>2026-04-25T16:42:38.052Z</time></trkpt><trkpt lat="42.2222412" lon="-7.5000434"><ele>1360.1666666666667</ele><time>2026-04-25T16:42:40.163Z</time></trkpt><trkpt lat="42.2222909" lon="-7.5001508"><ele>1361.0</ele><time>2026-04-25T16:42:42.098Z</time></trkpt><trkpt lat="42.2223485" lon="-7.5002542"><ele>1354.0</ele><time>2026-04-25T16:42:44.075Z</time></trkpt><trkpt lat="42.2224065" lon="-7.5003632"><ele>1347.0</ele><time>2026-04-25T16:42:45.982Z</time></trkpt><trkpt lat="42.2224768" lon="-7.5004777"><ele>1340.0</ele><time>2026-04-25T16:42:48.117Z</time></trkpt><trkpt lat="42.2225451" lon="-7.5005639"><ele>1333.0</ele><time>2026-04-25T16:42:50.061Z</time></trkpt><trkpt lat="42.2225854" lon="-7.5006499"><ele>1326.0</ele><time>2026-04-25T16:42:52.063Z</time></trkpt><trkpt lat="42.2226169" lon="-7.5007369"><ele>1326.0</ele><time>2026-04-25T16:42:54.116Z</time></trkpt><trkpt lat="42.2226364" lon="-7.5008281"><ele>1326.0</ele><time>2026-04-25T16:42:55.05Z</time></trkpt><trkpt lat="42.2226616" lon="-7.5009739"><ele>1326.0</ele><time>2026-04-25T16:42:57.057Z</time></trkpt><trkpt lat="42.2226791" lon="-7.5010616"><ele>1326.0</ele><time>2026-04-25T16:42:58.061Z</time></trkpt><trkpt lat="42.2226984" lon="-7.5011993"><ele>1326.0</ele><time>2026-04-25T16:43:00.059Z</time></trkpt><trkpt lat="42.2227299" lon="-7.5013611"><ele>1326.1666666666667</ele><time>2026-04-25T16:43:02.061Z</time></trkpt><trkpt lat="42.2227604" lon="-7.5014664"><ele>1326.3333333333333</ele><time>2026-04-25T16:43:03.057Z</time></trkpt><trkpt lat="42.2227823" lon="-7.5015492"><ele>1326.5</ele><time>2026-04-25T16:43:04.056Z</time></trkpt><trkpt lat="42.2228209" lon="-7.5016774"><ele>1326.6666666666665</ele><time>2026-04-25T16:43:06.049Z</time></trkpt><trkpt lat="42.2228371" lon="-7.5017623"><ele>1326.8333333333333</ele><time>2026-04-25T16:43:07.055Z</time></trkpt><trkpt lat="42.2228529" lon="-7.5018453"><ele>1327.0</ele><time>2026-04-25T16:43:08.061Z</time></trkpt><trkpt lat="42.2228812" lon="-7.5019358"><ele>1327.0</ele><time>2026-04-25T16:43:09.059Z</time></trkpt><trkpt lat="42.2228841" lon="-7.5020458"><ele>1327.0</ele><time>2026-04-25T16:43:10.052Z</time></trkpt><trkpt lat="42.2228776" lon="-7.5021557"><ele>1327.0</ele><time>2026-04-25T16:43:11.06Z</time></trkpt><trkpt lat="42.2228708" lon="-7.5022495"><ele>1327.0</ele><time>2026-04-25T16:43:12.054Z</time></trkpt><trkpt lat="42.222856" lon="-7.5023461"><ele>1327.0</ele><time>2026-04-25T16:43:13.058Z</time></trkpt><trkpt lat="42.2228414" lon="-7.5024432"><ele>1327.0</ele><time>2026-04-25T16:43:14.053Z</time></trkpt><trkpt lat="42.222827" lon="-7.5025541"><ele>1327.1666666666665</ele><time>2026-04-25T16:43:15.051Z</time></trkpt><trkpt lat="42.2228131" lon="-7.5026575"><ele>1327.3333333333333</ele><time>2026-04-25T16:43:16.061Z</time></trkpt><trkpt lat="42.2227978" lon="-7.5027612"><ele>1327.5</ele><time>2026-04-25T16:43:17.064Z</time></trkpt><trkpt lat="42.2227886" lon="-7.5028897"><ele>1327.6666666666667</ele><time>2026-04-25T16:43:18.062Z</time></trkpt><trkpt lat="42.2227795" lon="-7.5030203"><ele>1327.8333333333335</ele><time>2026-04-25T16:43:19.059Z</time></trkpt><trkpt lat="42.2227703" lon="-7.5031339"><ele>1328.0</ele><time>2026-04-25T16:43:20.054Z</time></trkpt><trkpt lat="42.2227645" lon="-7.5032423"><ele>1327.5</ele><time>2026-04-25T16:43:21.062Z</time></trkpt><trkpt lat="42.2227614" lon="-7.5033474"><ele>1327.0</ele><time>2026-04-25T16:43:22.049Z</time></trkpt><trkpt lat="42.2227619" lon="-7.5034586"><ele>1326.5</ele><time>2026-04-25T16:43:23.05Z</time></trkpt><trkpt lat="42.2227671" lon="-7.5035669"><ele>1326.0</ele><time>2026-04-25T16:43:24.054Z</time></trkpt><trkpt lat="42.2227703" lon="-7.5036656"><ele>1325.5</ele><time>2026-04-25T16:43:25.06Z</time></trkpt><trkpt lat="42.2227753" lon="-7.5037605"><ele>1325.0</ele><time>2026-04-25T16:43:26.055Z</time></trkpt><trkpt lat="42.222774" lon="-7.5038635"><ele>1325.0</ele><time>2026-04-25T16:43:27.051Z</time></trkpt><trkpt lat="42.2227653" lon="-7.5039656"><ele>1325.0</ele><time>2026-04-25T16:43:28.053Z</time></trkpt><trkpt lat="42.2227602" lon="-7.5040568"><ele>1325.0</ele><time>2026-04-25T16:43:29.06Z</time></trkpt><trkpt lat="42.2227554" lon="-7.5041465"><ele>1325.0</ele><time>2026-04-25T16:43:30.057Z</time></trkpt><trkpt lat="42.2227695" lon="-7.5042382"><ele>1325.0</ele><time>2026-04-25T16:43:31.063Z</time></trkpt><trkpt lat="42.2228107" lon="-7.5043274"><ele>1325.0</ele><time>2026-04-25T16:43:32.068Z</time></trkpt><trkpt lat="42.2228824" lon="-7.5044186"><ele>1325.0</ele><time>2026-04-25T16:43:33.061Z</time></trkpt><trkpt lat="42.2229652" lon="-7.504501"><ele>1325.0</ele><time>2026-04-25T16:43:34.06Z</time></trkpt><trkpt lat="42.2230381" lon="-7.5045563"><ele>1325.0</ele><time>2026-04-25T16:43:35.051Z</time></trkpt><trkpt lat="42.2231026" lon="-7.5046046"><ele>1325.0</ele><time>2026-04-25T16:43:36.051Z</time></trkpt><trkpt lat="42.2231799" lon="-7.5046677"><ele>1325.0</ele><time>2026-04-25T16:43:37.055Z</time></trkpt><trkpt lat="42.2232474" lon="-7.5047325"><ele>1325.0</ele><time>2026-04-25T16:43:38.061Z</time></trkpt><trkpt lat="42.2232993" lon="-7.5047936"><ele>1324.2</ele><time>2026-04-25T16:43:39.055Z</time></trkpt><trkpt lat="42.2233478" lon="-7.5049216"><ele>1323.4</ele><time>2026-04-25T16:43:41.058Z</time></trkpt><trkpt lat="42.2233434" lon="-7.5050989"><ele>1322.6</ele><time>2026-04-25T16:43:43.05Z</time></trkpt><trkpt lat="42.2233311" lon="-7.5052115"><ele>1321.8</ele><time>2026-04-25T16:43:44.046Z</time></trkpt><trkpt lat="42.2233396" lon="-7.5053277"><ele>1321.0</ele><time>2026-04-25T16:43:45.055Z</time></trkpt><trkpt lat="42.2233639" lon="-7.5054164"><ele>1323.3333333333333</ele><time>2026-04-25T16:43:46.046Z</time></trkpt><trkpt lat="42.2234081" lon="-7.5054886"><ele>1325.6666666666665</ele><time>2026-04-25T16:43:47.051Z</time></trkpt><trkpt lat="42.2234612" lon="-7.5055745"><ele>1328.0</ele><time>2026-04-25T16:43:48.06Z</time></trkpt><trkpt lat="42.2235254" lon="-7.5056566"><ele>1330.3333333333333</ele><time>2026-04-25T16:43:49.059Z</time></trkpt><trkpt lat="42.2235836" lon="-7.5057346"><ele>1332.6666666666667</ele><time>2026-04-25T16:43:50.055Z</time></trkpt><trkpt lat="42.2236379" lon="-7.5058024"><ele>1335.0</ele><time>2026-04-25T16:43:51.051Z</time></trkpt><trkpt lat="42.2236952" lon="-7.5058582"><ele>1335.0</ele><time>2026-04-25T16:43:52.055Z</time></trkpt><trkpt lat="42.2237605" lon="-7.5059009"><ele>1335.0</ele><time>2026-04-25T16:43:53.049Z</time></trkpt><trkpt lat="42.2238296" lon="-7.5059246"><ele>1335.0</ele><time>2026-04-25T16:43:54.05Z</time></trkpt><trkpt lat="42.2238967" lon="-7.5059444"><ele>1335.0</ele><time>2026-04-25T16:43:55.054Z</time></trkpt><trkpt lat="42.2239759" lon="-7.5059134"><ele>1335.0</ele><time>2026-04-25T16:43:56.054Z</time></trkpt><trkpt lat="42.2240665" lon="-7.5058761"><ele>1335.0</ele><time>2026-04-25T16:43:57.059Z</time></trkpt><trkpt lat="42.2241676" lon="-7.5058259"><ele>1332.6</ele><time>2026-04-25T16:43:58.053Z</time></trkpt><trkpt lat="42.2242629" lon="-7.5058045"><ele>1330.2</ele><time>2026-04-25T16:43:59.05Z</time></trkpt><trkpt lat="42.2243615" lon="-7.5058308"><ele>1327.8000000000002</ele><time>2026-04-25T16:44:00.055Z</time></trkpt><trkpt lat="42.2244618" lon="-7.5058732"><ele>1325.4</ele><time>2026-04-25T16:44:01.052Z</time></trkpt><trkpt lat="42.2245695" lon="-7.5059261"><ele>1323.0</ele><time>2026-04-25T16:44:02.057Z</time></trkpt><trkpt lat="42.2246623" lon="-7.5059918"><ele>1323.0</ele><time>2026-04-25T16:44:03.062Z</time></trkpt><trkpt lat="42.2247534" lon="-7.5060495"><ele>1323.0</ele><time>2026-04-25T16:44:04.05Z</time></trkpt><trkpt lat="42.2248421" lon="-7.5061285"><ele>1323.0</ele><time>2026-04-25T16:44:05.053Z</time></trkpt><trkpt lat="42.224922" lon="-7.5062015"><ele>1323.0</ele><time>2026-04-25T16:44:06.054Z</time></trkpt><trkpt lat="42.2249913" lon="-7.5062656"><ele>1323.0</ele><time>2026-04-25T16:44:07.058Z</time></trkpt><trkpt lat="42.2250505" lon="-7.5063173"><ele>1326.0</ele><time>2026-04-25T16:44:08.054Z</time></trkpt><trkpt lat="42.2251019" lon="-7.5063665"><ele>1329.0</ele><time>2026-04-25T16:44:09.054Z</time></trkpt><trkpt lat="42.2251529" lon="-7.5064187"><ele>1332.0</ele><time>2026-04-25T16:44:10.055Z</time></trkpt><trkpt lat="42.2252343" lon="-7.5065494"><ele>1335.0</ele><time>2026-04-25T16:44:12.06Z</time></trkpt><trkpt lat="42.2252954" lon="-7.5066517"><ele>1338.0</ele><time>2026-04-25T16:44:14.051Z</time></trkpt><trkpt lat="42.225279" lon="-7.5065412"><ele>1341.0</ele><time>2026-04-25T16:45:22.061Z</time></trkpt><trkpt lat="42.2252286" lon="-7.5064121"><ele>1341.0000000000002</ele><time>2026-04-25T16:45:24.053Z</time></trkpt><trkpt lat="42.2251817" lon="-7.5063505"><ele>1341.0</ele><time>2026-04-25T16:45:25.053Z</time></trkpt><trkpt lat="42.2251226" lon="-7.5063001"><ele>1341.0</ele><time>2026-04-25T16:45:26.057Z</time></trkpt><trkpt lat="42.225038" lon="-7.5062415"><ele>1341.0</ele><time>2026-04-25T16:45:28.058Z</time></trkpt><trkpt lat="42.2249783" lon="-7.5061912"><ele>1341.0</ele><time>2026-04-25T16:45:30.05Z</time></trkpt><trkpt lat="42.2250079" lon="-7.5061156"><ele>1341.0000000000002</ele><time>2026-04-25T16:45:35.056Z</time></trkpt><trkpt lat="42.2250712" lon="-7.5060952"><ele>1341.0</ele><time>2026-04-25T16:45:37.058Z</time></trkpt><trkpt lat="42.2251595" lon="-7.506058"><ele>1341.0</ele><time>2026-04-25T16:45:40.055Z</time></trkpt><trkpt lat="42.2252426" lon="-7.5060347"><ele>1341.0</ele><time>2026-04-25T16:45:42.058Z</time></trkpt><trkpt lat="42.2253183" lon="-7.506027"><ele>1341.0</ele><time>2026-04-25T16:45:44.053Z</time></trkpt><trkpt lat="42.2254013" lon="-7.5060275"><ele>1341.0</ele><time>2026-04-25T16:45:46.054Z</time></trkpt><trkpt lat="42.2254898" lon="-7.5060586"><ele>1341.0</ele><time>2026-04-25T16:45:48.058Z</time></trkpt><trkpt lat="42.225548" lon="-7.5061557"><ele>1341.0</ele><time>2026-04-25T16:45:50.067Z</time></trkpt><trkpt lat="42.2255644" lon="-7.5062849"><ele>1341.0000000000002</ele><time>2026-04-25T16:45:52.051Z</time></trkpt><trkpt lat="42.2255685" lon="-7.5063805"><ele>1341.0</ele><time>2026-04-25T16:45:53.056Z</time></trkpt><trkpt lat="42.2255815" lon="-7.5064764"><ele>1341.0</ele><time>2026-04-25T16:45:54.059Z</time></trkpt><trkpt lat="42.2255936" lon="-7.5065668"><ele>1341.0</ele><time>2026-04-25T16:45:55.051Z</time></trkpt><trkpt lat="42.2256235" lon="-7.5066557"><ele>1341.0</ele><time>2026-04-25T16:45:56.053Z</time></trkpt><trkpt lat="42.2256697" lon="-7.5067258"><ele>1341.0000000000002</ele><time>2026-04-25T16:45:57.054Z</time></trkpt><trkpt lat="42.2257258" lon="-7.5067784"><ele>1341.0</ele><time>2026-04-25T16:45:58.054Z</time></trkpt><trkpt lat="42.2257855" lon="-7.5068388"><ele>1337.8</ele><time>2026-04-25T16:45:59.052Z</time></trkpt><trkpt lat="42.225849" lon="-7.5068862"><ele>1334.6</ele><time>2026-04-25T16:46:00.054Z</time></trkpt><trkpt lat="42.2259505" lon="-7.5069165"><ele>1331.4</ele><time>2026-04-25T16:46:02.048Z</time></trkpt><trkpt lat="42.2260668" lon="-7.5068575"><ele>1328.2</ele><time>2026-04-25T16:46:04.05Z</time></trkpt><trkpt lat="42.2261327" lon="-7.5067767"><ele>1325.0</ele><time>2026-04-25T16:46:05.049Z</time></trkpt><trkpt lat="42.2262015" lon="-7.5067025"><ele>1325.0</ele><time>2026-04-25T16:46:06.053Z</time></trkpt><trkpt lat="42.2262961" lon="-7.5066467"><ele>1325.0</ele><time>2026-04-25T16:46:07.048Z</time></trkpt><trkpt lat="42.2263793" lon="-7.5065876"><ele>1325.0</ele><time>2026-04-25T16:46:08.056Z</time></trkpt><trkpt lat="42.2264561" lon="-7.5065451"><ele>1325.0</ele><time>2026-04-25T16:46:09.057Z</time></trkpt><trkpt lat="42.2265346" lon="-7.5065043"><ele>1325.0</ele><time>2026-04-25T16:46:10.056Z</time></trkpt><trkpt lat="42.2266086" lon="-7.5064689"><ele>1325.0</ele><time>2026-04-25T16:46:11.057Z</time></trkpt><trkpt lat="42.2266768" lon="-7.5064402"><ele>1325.3333333333335</ele><time>2026-04-25T16:46:12.051Z</time></trkpt><trkpt lat="42.2267454" lon="-7.5064175"><ele>1325.6666666666667</ele><time>2026-04-25T16:46:13.062Z</time></trkpt><trkpt lat="42.2268088" lon="-7.5063971"><ele>1326.0</ele><time>2026-04-25T16:46:14.061Z</time></trkpt><trkpt lat="42.2269297" lon="-7.5063185"><ele>1326.3333333333333</ele><time>2026-04-25T16:46:16.078Z</time></trkpt><trkpt lat="42.2269902" lon="-7.5062635"><ele>1326.6666666666665</ele><time>2026-04-25T16:46:17.055Z</time></trkpt><trkpt lat="42.2270656" lon="-7.5062129"><ele>1327.0</ele><time>2026-04-25T16:46:18.049Z</time></trkpt><trkpt lat="42.2271517" lon="-7.5061757"><ele>1325.1999999999998</ele><time>2026-04-25T16:46:19.057Z</time></trkpt><trkpt lat="42.2272481" lon="-7.5061517"><ele>1323.4</ele><time>2026-04-25T16:46:20.057Z</time></trkpt><trkpt lat="42.2273451" lon="-7.5061217"><ele>1321.6</ele><time>2026-04-25T16:46:21.058Z</time></trkpt><trkpt lat="42.2274332" lon="-7.5060963"><ele>1319.8000000000002</ele><time>2026-04-25T16:46:22.058Z</time></trkpt><trkpt lat="42.2275137" lon="-7.5060736"><ele>1318.0</ele><time>2026-04-25T16:46:23.051Z</time></trkpt><trkpt lat="42.227599" lon="-7.5059965"><ele>1318.0</ele><time>2026-04-25T16:46:25.058Z</time></trkpt><trkpt lat="42.227632" lon="-7.5059035"><ele>1318.0</ele><time>2026-04-25T16:46:27.059Z</time></trkpt><trkpt lat="42.2276061" lon="-7.5057903"><ele>1318.0</ele><time>2026-04-25T16:46:29.051Z</time></trkpt><trkpt lat="42.2275542" lon="-7.5057179"><ele>1318.0</ele><time>2026-04-25T16:46:30.055Z</time></trkpt><trkpt lat="42.2274946" lon="-7.50564"><ele>1318.0</ele><time>2026-04-25T16:46:31.059Z</time></trkpt><trkpt lat="42.2274326" lon="-7.5055541"><ele>1318.0</ele><time>2026-04-25T16:46:32.065Z</time></trkpt><trkpt lat="42.2273774" lon="-7.5054669"><ele>1316.3333333333333</ele><time>2026-04-25T16:46:33.064Z</time></trkpt><trkpt lat="42.2273378" lon="-7.5053614"><ele>1314.6666666666665</ele><time>2026-04-25T16:46:34.058Z</time></trkpt><trkpt lat="42.2273143" lon="-7.5052409"><ele>1313.0</ele><time>2026-04-25T16:46:35.051Z</time></trkpt><trkpt lat="42.2273122" lon="-7.5051364"><ele>1311.3333333333333</ele><time>2026-04-25T16:46:36.045Z</time></trkpt><trkpt lat="42.2273181" lon="-7.5050352"><ele>1309.6666666666667</ele><time>2026-04-25T16:46:37.054Z</time></trkpt><trkpt lat="42.2273388" lon="-7.5049511"><ele>1308.0</ele><time>2026-04-25T16:46:38.062Z</time></trkpt><trkpt lat="42.2273757" lon="-7.504882"><ele>1308.0</ele><time>2026-04-25T16:46:39.052Z</time></trkpt><trkpt lat="42.227439" lon="-7.5048492"><ele>1308.0</ele><time>2026-04-25T16:46:40.052Z</time></trkpt><trkpt lat="42.2275119" lon="-7.5048149"><ele>1308.0</ele><time>2026-04-25T16:46:41.057Z</time></trkpt><trkpt lat="42.2276001" lon="-7.5048142"><ele>1308.0</ele><time>2026-04-25T16:46:42.055Z</time></trkpt><trkpt lat="42.2276787" lon="-7.504822"><ele>1308.0</ele><time>2026-04-25T16:46:43.057Z</time></trkpt><trkpt lat="42.2277392" lon="-7.5048629"><ele>1308.0</ele><time>2026-04-25T16:46:44.05Z</time></trkpt><trkpt lat="42.2278804" lon="-7.5049056"><ele>1308.0</ele><time>2026-04-25T16:46:46.067Z</time></trkpt><trkpt lat="42.2279908" lon="-7.504877"><ele>1308.0</ele><time>2026-04-25T16:46:47.047Z</time></trkpt><trkpt lat="42.2280858" lon="-7.5048997"><ele>1308.0</ele><time>2026-04-25T16:46:48.057Z</time></trkpt><trkpt lat="42.228192" lon="-7.5049319"><ele>1308.0</ele><time>2026-04-25T16:46:49.057Z</time></trkpt><trkpt lat="42.2282875" lon="-7.5049581"><ele>1308.0</ele><time>2026-04-25T16:46:50.061Z</time></trkpt><trkpt lat="42.2283777" lon="-7.5049783"><ele>1308.7142857142858</ele><time>2026-04-25T16:46:51.055Z</time></trkpt><trkpt lat="42.2284438" lon="-7.504979"><ele>1309.4285714285716</ele><time>2026-04-25T16:46:52.05Z</time></trkpt><trkpt lat="42.2285296" lon="-7.5049568"><ele>1310.1428571428573</ele><time>2026-04-25T16:46:53.052Z</time></trkpt><trkpt lat="42.2286098" lon="-7.5049247"><ele>1310.857142857143</ele><time>2026-04-25T16:46:54.053Z</time></trkpt><trkpt lat="42.2286806" lon="-7.5048931"><ele>1311.5714285714287</ele><time>2026-04-25T16:46:55.058Z</time></trkpt><trkpt lat="42.2287468" lon="-7.5048532"><ele>1312.2857142857144</ele><time>2026-04-25T16:46:56.046Z</time></trkpt><trkpt lat="42.2288052" lon="-7.5048172"><ele>1313.0</ele><time>2026-04-25T16:46:57.053Z</time></trkpt><trkpt lat="42.2288363" lon="-7.5046586"><ele>1310.857142857143</ele><time>2026-04-25T16:46:59.049Z</time></trkpt><trkpt lat="42.2288167" lon="-7.5045641"><ele>1308.7142857142858</ele><time>2026-04-25T16:47:00.053Z</time></trkpt><trkpt lat="42.2287916" lon="-7.504459"><ele>1306.5714285714284</ele><time>2026-04-25T16:47:01.05Z</time></trkpt><trkpt lat="42.2287721" lon="-7.5043564"><ele>1304.4285714285716</ele><time>2026-04-25T16:47:02.058Z</time></trkpt><trkpt lat="42.2287512" lon="-7.5042635"><ele>1302.2857142857142</ele><time>2026-04-25T16:47:03.046Z</time></trkpt><trkpt lat="42.2287428" lon="-7.5041759"><ele>1300.142857142857</ele><time>2026-04-25T16:47:04.052Z</time></trkpt><trkpt lat="42.2287396" lon="-7.504083"><ele>1298.0</ele><time>2026-04-25T16:47:05.054Z</time></trkpt><trkpt lat="42.2287725" lon="-7.503907"><ele>1298.0</ele><time>2026-04-25T16:47:07.063Z</time></trkpt><trkpt lat="42.2287987" lon="-7.5038135"><ele>1298.0</ele><time>2026-04-25T16:47:08.052Z</time></trkpt><trkpt lat="42.2288236" lon="-7.5037264"><ele>1298.0</ele><time>2026-04-25T16:47:09.058Z</time></trkpt><trkpt lat="42.2288487" lon="-7.5036482"><ele>1298.0</ele><time>2026-04-25T16:47:10.049Z</time></trkpt><trkpt lat="42.2289248" lon="-7.5035019"><ele>1298.0</ele><time>2026-04-25T16:47:12.056Z</time></trkpt><trkpt lat="42.2289957" lon="-7.5034326"><ele>1298.0</ele><time>2026-04-25T16:47:13.074Z</time></trkpt><trkpt lat="42.2290954" lon="-7.5033224"><ele>1300.0</ele><time>2026-04-25T16:47:14.055Z</time></trkpt><trkpt lat="42.2291739" lon="-7.5032095"><ele>1302.0</ele><time>2026-04-25T16:47:15.053Z</time></trkpt><trkpt lat="42.2292668" lon="-7.503097"><ele>1304.0</ele><time>2026-04-25T16:47:16.056Z</time></trkpt><trkpt lat="42.229342" lon="-7.5029589"><ele>1306.0</ele><time>2026-04-25T16:47:17.053Z</time></trkpt><trkpt lat="42.2294143" lon="-7.5028196"><ele>1306.0</ele><time>2026-04-25T16:47:18.053Z</time></trkpt><trkpt lat="42.2294943" lon="-7.5027026"><ele>1306.0</ele><time>2026-04-25T16:47:19.052Z</time></trkpt><trkpt lat="42.2295899" lon="-7.5026198"><ele>1306.0</ele><time>2026-04-25T16:47:20.051Z</time></trkpt><trkpt lat="42.2297037" lon="-7.5025456"><ele>1306.0</ele><time>2026-04-25T16:47:21.053Z</time></trkpt><trkpt lat="42.2298177" lon="-7.5025146"><ele>1307.6</ele><time>2026-04-25T16:47:22.052Z</time></trkpt><trkpt lat="42.2299343" lon="-7.502498"><ele>1309.1999999999998</ele><time>2026-04-25T16:47:23.05Z</time></trkpt><trkpt lat="42.2300198" lon="-7.5025124"><ele>1310.8000000000002</ele><time>2026-04-25T16:47:24.059Z</time></trkpt><trkpt lat="42.230105" lon="-7.5025548"><ele>1312.4</ele><time>2026-04-25T16:47:25.053Z</time></trkpt><trkpt lat="42.2301866" lon="-7.5026386"><ele>1314.0</ele><time>2026-04-25T16:47:26.049Z</time></trkpt><trkpt lat="42.2302633" lon="-7.5027202"><ele>1314.0</ele><time>2026-04-25T16:47:27.057Z</time></trkpt><trkpt lat="42.2303362" lon="-7.5028226"><ele>1314.0</ele><time>2026-04-25T16:47:28.056Z</time></trkpt><trkpt lat="42.2304057" lon="-7.5029227"><ele>1314.0</ele><time>2026-04-25T16:47:29.052Z</time></trkpt><trkpt lat="42.2304638" lon="-7.5030116"><ele>1314.0</ele><time>2026-04-25T16:47:30.048Z</time></trkpt><trkpt lat="42.230546" lon="-7.503097"><ele>1314.0</ele><time>2026-04-25T16:47:32.056Z</time></trkpt><trkpt lat="42.2306054" lon="-7.5031557"><ele>1315.1666666666667</ele><time>2026-04-25T16:47:35.065Z</time></trkpt><trkpt lat="42.2306579" lon="-7.5032298"><ele>1316.3333333333333</ele><time>2026-04-25T16:47:39.055Z</time></trkpt><trkpt lat="42.2307293" lon="-7.5033098"><ele>1317.5</ele><time>2026-04-25T16:47:41.05Z</time></trkpt><trkpt lat="42.2307856" lon="-7.5033534"><ele>1318.6666666666665</ele><time>2026-04-25T16:47:42.056Z</time></trkpt><trkpt lat="42.2308632" lon="-7.5033945"><ele>1319.8333333333333</ele><time>2026-04-25T16:47:43.057Z</time></trkpt><trkpt lat="42.2309468" lon="-7.5034301"><ele>1321.0</ele><time>2026-04-25T16:47:44.052Z</time></trkpt><trkpt lat="42.2310391" lon="-7.5034692"><ele>1321.0</ele><time>2026-04-25T16:47:45.054Z</time></trkpt><trkpt lat="42.2311329" lon="-7.503521"><ele>1321.0</ele><time>2026-04-25T16:47:46.058Z</time></trkpt><trkpt lat="42.2312127" lon="-7.5035818"><ele>1321.0</ele><time>2026-04-25T16:47:47.059Z</time></trkpt><trkpt lat="42.2312931" lon="-7.5036424"><ele>1321.0</ele><time>2026-04-25T16:47:48.063Z</time></trkpt><trkpt lat="42.2313612" lon="-7.5037043"><ele>1321.0</ele><time>2026-04-25T16:47:49.055Z</time></trkpt><trkpt lat="42.2314165" lon="-7.5037525"><ele>1321.0</ele><time>2026-04-25T16:47:50.055Z</time></trkpt><trkpt lat="42.2315506" lon="-7.5036992"><ele>1320.3333333333333</ele><time>2026-04-25T16:47:52.056Z</time></trkpt><trkpt lat="42.2316302" lon="-7.5036262"><ele>1319.6666666666665</ele><time>2026-04-25T16:47:53.049Z</time></trkpt><trkpt lat="42.2317067" lon="-7.5035668"><ele>1319.0</ele><time>2026-04-25T16:47:54.054Z</time></trkpt><trkpt lat="42.2317803" lon="-7.5035159"><ele>1318.3333333333333</ele><time>2026-04-25T16:47:55.049Z</time></trkpt><trkpt lat="42.2318644" lon="-7.5034917"><ele>1317.6666666666667</ele><time>2026-04-25T16:47:56.053Z</time></trkpt><trkpt lat="42.2319507" lon="-7.5035038"><ele>1317.0</ele><time>2026-04-25T16:47:57.055Z</time></trkpt><trkpt lat="42.2320252" lon="-7.5035313"><ele>1317.0</ele><time>2026-04-25T16:47:58.054Z</time></trkpt><trkpt lat="42.2321014" lon="-7.5035761"><ele>1317.0</ele><time>2026-04-25T16:47:59.067Z</time></trkpt><trkpt lat="42.2321594" lon="-7.5036453"><ele>1317.0</ele><time>2026-04-25T16:48:00.051Z</time></trkpt><trkpt lat="42.2321962" lon="-7.5037189"><ele>1317.0</ele><time>2026-04-25T16:48:01.055Z</time></trkpt><trkpt lat="42.232233" lon="-7.5038156"><ele>1317.0</ele><time>2026-04-25T16:48:15.06Z</time></trkpt><trkpt lat="42.2322649" lon="-7.5039905"><ele>1317.0</ele><time>2026-04-25T16:50:03.057Z</time></trkpt><trkpt lat="42.2322831" lon="-7.5040733"><ele>1317.0</ele><time>2026-04-25T16:51:13.056Z</time></trkpt><trkpt lat="42.2323517" lon="-7.5041983"><ele>1317.0</ele><time>2026-04-25T16:51:15.056Z</time></trkpt><trkpt lat="42.2323979" lon="-7.5042796"><ele>1317.0</ele><time>2026-04-25T16:51:16.058Z</time></trkpt><trkpt lat="42.2324526" lon="-7.504372"><ele>1317.0</ele><time>2026-04-25T16:51:17.055Z</time></trkpt><trkpt lat="42.2325024" lon="-7.504477"><ele>1317.0</ele><time>2026-04-25T16:51:18.062Z</time></trkpt><trkpt lat="42.2325438" lon="-7.5046031"><ele>1320.1999999999998</ele><time>2026-04-25T16:51:19.054Z</time></trkpt><trkpt lat="42.2325739" lon="-7.504739"><ele>1323.4</ele><time>2026-04-25T16:51:20.053Z</time></trkpt><trkpt lat="42.2325946" lon="-7.5048594"><ele>1326.6</ele><time>2026-04-25T16:51:21.053Z</time></trkpt><trkpt lat="42.2326116" lon="-7.5049661"><ele>1329.8000000000002</ele><time>2026-04-25T16:51:22.047Z</time></trkpt><trkpt lat="42.2326377" lon="-7.5050526"><ele>1333.0</ele><time>2026-04-25T16:51:23.057Z</time></trkpt><trkpt lat="42.2327369" lon="-7.5051475"><ele>1333.0</ele><time>2026-04-25T16:51:25.048Z</time></trkpt><trkpt lat="42.2328217" lon="-7.5051747"><ele>1333.0</ele><time>2026-04-25T16:51:26.049Z</time></trkpt><trkpt lat="42.2329237" lon="-7.5052016"><ele>1333.0</ele><time>2026-04-25T16:51:27.061Z</time></trkpt><trkpt lat="42.233012" lon="-7.5052179"><ele>1333.0</ele><time>2026-04-25T16:51:28.05Z</time></trkpt><trkpt lat="42.2330899" lon="-7.5052345"><ele>1333.0</ele><time>2026-04-25T16:51:29.05Z</time></trkpt><trkpt lat="42.2331663" lon="-7.505253"><ele>1333.0</ele><time>2026-04-25T16:51:30.055Z</time></trkpt><trkpt lat="42.2332415" lon="-7.5052956"><ele>1332.3333333333333</ele><time>2026-04-25T16:51:31.048Z</time></trkpt><trkpt lat="42.2333098" lon="-7.5053679"><ele>1331.6666666666665</ele><time>2026-04-25T16:51:32.047Z</time></trkpt><trkpt lat="42.2333696" lon="-7.5054361"><ele>1331.0</ele><time>2026-04-25T16:51:33.057Z</time></trkpt><trkpt lat="42.2334267" lon="-7.5054977"><ele>1330.3333333333333</ele><time>2026-04-25T16:51:34.063Z</time></trkpt><trkpt lat="42.2335225" lon="-7.5055441"><ele>1329.6666666666667</ele><time>2026-04-25T16:51:36.057Z</time></trkpt><trkpt lat="42.2335983" lon="-7.5055023"><ele>1329.0</ele><time>2026-04-25T16:51:38.053Z</time></trkpt><trkpt lat="42.2336461" lon="-7.5054301"><ele>1326.0</ele><time>2026-04-25T16:51:39.066Z</time></trkpt><trkpt lat="42.2336936" lon="-7.5053218"><ele>1323.0</ele><time>2026-04-25T16:51:40.053Z</time></trkpt><trkpt lat="42.2337364" lon="-7.5051846"><ele>1320.0</ele><time>2026-04-25T16:51:41.06Z</time></trkpt><trkpt lat="42.2337686" lon="-7.5050104"><ele>1317.0</ele><time>2026-04-25T16:51:42.047Z</time></trkpt><trkpt lat="42.2337968" lon="-7.5048333"><ele>1317.0</ele><time>2026-04-25T16:51:43.062Z</time></trkpt><trkpt lat="42.2338076" lon="-7.5046476"><ele>1317.0</ele><time>2026-04-25T16:51:44.054Z</time></trkpt><trkpt lat="42.233816" lon="-7.5044728"><ele>1317.0</ele><time>2026-04-25T16:51:45.064Z</time></trkpt><trkpt lat="42.2338236" lon="-7.5043041"><ele>1317.0</ele><time>2026-04-25T16:51:46.055Z</time></trkpt><trkpt lat="42.2338354" lon="-7.5041234"><ele>1313.25</ele><time>2026-04-25T16:51:47.045Z</time></trkpt><trkpt lat="42.2338444" lon="-7.5039376"><ele>1309.5</ele><time>2026-04-25T16:51:48.048Z</time></trkpt><trkpt lat="42.2338515" lon="-7.5037595"><ele>1305.75</ele><time>2026-04-25T16:51:49.057Z</time></trkpt><trkpt lat="42.233851" lon="-7.5035856"><ele>1302.0</ele><time>2026-04-25T16:51:50.051Z</time></trkpt><trkpt lat="42.2338442" lon="-7.5034159"><ele>1299.75</ele><time>2026-04-25T16:51:51.045Z</time></trkpt><trkpt lat="42.2338381" lon="-7.5032569"><ele>1297.5</ele><time>2026-04-25T16:51:52.057Z</time></trkpt><trkpt lat="42.2338186" lon="-7.5030992"><ele>1295.25</ele><time>2026-04-25T16:51:53.062Z</time></trkpt><trkpt lat="42.2338021" lon="-7.5029498"><ele>1293.0</ele><time>2026-04-25T16:51:54.056Z</time></trkpt><trkpt lat="42.2337879" lon="-7.5027926"><ele>1291.75</ele><time>2026-04-25T16:51:55.052Z</time></trkpt><trkpt lat="42.2337711" lon="-7.502628"><ele>1290.5</ele><time>2026-04-25T16:51:56.051Z</time></trkpt><trkpt lat="42.2337576" lon="-7.5024686"><ele>1289.25</ele><time>2026-04-25T16:51:57.061Z</time></trkpt><trkpt lat="42.2337452" lon="-7.5023167"><ele>1288.0</ele><time>2026-04-25T16:51:58.049Z</time></trkpt><trkpt lat="42.2337379" lon="-7.502173"><ele>1287.0</ele><time>2026-04-25T16:51:59.05Z</time></trkpt><trkpt lat="42.2337289" lon="-7.5020379"><ele>1286.0</ele><time>2026-04-25T16:52:00.049Z</time></trkpt><trkpt lat="42.233716" lon="-7.5018997"><ele>1285.0</ele><time>2026-04-25T16:52:01.048Z</time></trkpt><trkpt lat="42.2337103" lon="-7.5017443"><ele>1284.0</ele><time>2026-04-25T16:52:02.053Z</time></trkpt><trkpt lat="42.2337048" lon="-7.501581"><ele>1283.0</ele><time>2026-04-25T16:52:03.058Z</time></trkpt><trkpt lat="42.2337083" lon="-7.5014162"><ele>1283.0</ele><time>2026-04-25T16:52:04.051Z</time></trkpt><trkpt lat="42.2337138" lon="-7.5012659"><ele>1283.0</ele><time>2026-04-25T16:52:05.061Z</time></trkpt><trkpt lat="42.2337199" lon="-7.5011357"><ele>1283.0</ele><time>2026-04-25T16:52:06.059Z</time></trkpt><trkpt lat="42.2337192" lon="-7.5010051"><ele>1283.0</ele><time>2026-04-25T16:52:07.052Z</time></trkpt><trkpt lat="42.2337262" lon="-7.5008667"><ele>1283.0</ele><time>2026-04-25T16:52:08.052Z</time></trkpt><trkpt lat="42.2337339" lon="-7.5007164"><ele>1282.0</ele><time>2026-04-25T16:52:09.049Z</time></trkpt><trkpt lat="42.2337443" lon="-7.500563"><ele>1281.0</ele><time>2026-04-25T16:52:10.049Z</time></trkpt><trkpt lat="42.2337525" lon="-7.5004193"><ele>1280.0</ele><time>2026-04-25T16:52:11.052Z</time></trkpt><trkpt lat="42.2337486" lon="-7.5002895"><ele>1279.0</ele><time>2026-04-25T16:52:12.05Z</time></trkpt><trkpt lat="42.2337469" lon="-7.5001613"><ele>1278.0</ele><time>2026-04-25T16:52:13.051Z</time></trkpt><trkpt lat="42.2337465" lon="-7.5000333"><ele>1276.8</ele><time>2026-04-25T16:52:14.055Z</time></trkpt><trkpt lat="42.2337457" lon="-7.4998942"><ele>1275.6</ele><time>2026-04-25T16:52:15.057Z</time></trkpt><trkpt lat="42.2337467" lon="-7.4997589"><ele>1274.4</ele><time>2026-04-25T16:52:16.056Z</time></trkpt><trkpt lat="42.2337507" lon="-7.4996109"><ele>1273.2</ele><time>2026-04-25T16:52:17.051Z</time></trkpt><trkpt lat="42.2337561" lon="-7.499446"><ele>1272.0</ele><time>2026-04-25T16:52:18.053Z</time></trkpt><trkpt lat="42.2337559" lon="-7.4992809"><ele>1271.0</ele><time>2026-04-25T16:52:19.045Z</time></trkpt><trkpt lat="42.2337593" lon="-7.4991236"><ele>1270.0</ele><time>2026-04-25T16:52:20.044Z</time></trkpt><trkpt lat="42.2337656" lon="-7.4989604"><ele>1269.0</ele><time>2026-04-25T16:52:21.046Z</time></trkpt><trkpt lat="42.2337721" lon="-7.4988017"><ele>1268.0</ele><time>2026-04-25T16:52:22.051Z</time></trkpt><trkpt lat="42.2337781" lon="-7.4986392"><ele>1267.25</ele><time>2026-04-25T16:52:23.05Z</time></trkpt><trkpt lat="42.2337824" lon="-7.4984789"><ele>1266.5</ele><time>2026-04-25T16:52:24.054Z</time></trkpt><trkpt lat="42.2337842" lon="-7.4983094"><ele>1265.75</ele><time>2026-04-25T16:52:25.056Z</time></trkpt><trkpt lat="42.2337868" lon="-7.4981476"><ele>1265.0</ele><time>2026-04-25T16:52:26.048Z</time></trkpt><trkpt lat="42.2337887" lon="-7.4979931"><ele>1264.6</ele><time>2026-04-25T16:52:27.056Z</time></trkpt><trkpt lat="42.233785" lon="-7.4978454"><ele>1264.2</ele><time>2026-04-25T16:52:28.047Z</time></trkpt><trkpt lat="42.2337805" lon="-7.4976949"><ele>1263.8</ele><time>2026-04-25T16:52:29.05Z</time></trkpt><trkpt lat="42.2337803" lon="-7.4975448"><ele>1263.4</ele><time>2026-04-25T16:52:30.057Z</time></trkpt><trkpt lat="42.2337806" lon="-7.4974016"><ele>1263.0</ele><time>2026-04-25T16:52:31.057Z</time></trkpt><trkpt lat="42.2337837" lon="-7.4972544"><ele>1263.0</ele><time>2026-04-25T16:52:32.052Z</time></trkpt><trkpt lat="42.233798" lon="-7.4970978"><ele>1263.0</ele><time>2026-04-25T16:52:33.053Z</time></trkpt><trkpt lat="42.2338242" lon="-7.4969412"><ele>1263.0</ele><time>2026-04-25T16:52:34.059Z</time></trkpt><trkpt lat="42.2338553" lon="-7.4967736"><ele>1263.0</ele><time>2026-04-25T16:52:35.056Z</time></trkpt><trkpt lat="42.2338845" lon="-7.4966154"><ele>1261.75</ele><time>2026-04-25T16:52:36.052Z</time></trkpt><trkpt lat="42.2339182" lon="-7.4964636"><ele>1260.5</ele><time>2026-04-25T16:52:37.059Z</time></trkpt><trkpt lat="42.233951" lon="-7.4963134"><ele>1259.25</ele><time>2026-04-25T16:52:38.051Z</time></trkpt><trkpt lat="42.2339908" lon="-7.4961696"><ele>1258.0</ele><time>2026-04-25T16:52:39.056Z</time></trkpt><trkpt lat="42.2340384" lon="-7.4960426"><ele>1258.0</ele><time>2026-04-25T16:52:40.056Z</time></trkpt><trkpt lat="42.2340994" lon="-7.495929"><ele>1258.0</ele><time>2026-04-25T16:52:41.049Z</time></trkpt><trkpt lat="42.2341653" lon="-7.4957984"><ele>1258.0</ele><time>2026-04-25T16:52:42.062Z</time></trkpt><trkpt lat="42.2342601" lon="-7.4956516"><ele>1258.0</ele><time>2026-04-25T16:52:43.058Z</time></trkpt><trkpt lat="42.2343615" lon="-7.4955098"><ele>1253.75</ele><time>2026-04-25T16:52:44.053Z</time></trkpt><trkpt lat="42.2344581" lon="-7.4953768"><ele>1249.5</ele><time>2026-04-25T16:52:45.053Z</time></trkpt><trkpt lat="42.2345575" lon="-7.4952704"><ele>1245.25</ele><time>2026-04-25T16:52:46.06Z</time></trkpt><trkpt lat="42.234652" lon="-7.4951721"><ele>1241.0</ele><time>2026-04-25T16:52:47.06Z</time></trkpt><trkpt lat="42.2347433" lon="-7.4950779"><ele>1242.8</ele><time>2026-04-25T16:52:48.05Z</time></trkpt><trkpt lat="42.2348267" lon="-7.4949764"><ele>1244.6</ele><time>2026-04-25T16:52:49.065Z</time></trkpt><trkpt lat="42.2349104" lon="-7.4948813"><ele>1246.4</ele><time>2026-04-25T16:52:50.063Z</time></trkpt><trkpt lat="42.2350094" lon="-7.4948002"><ele>1248.2</ele><time>2026-04-25T16:52:51.062Z</time></trkpt><trkpt lat="42.2351052" lon="-7.4947269"><ele>1250.0</ele><time>2026-04-25T16:52:52.056Z</time></trkpt><trkpt lat="42.2351981" lon="-7.4946478"><ele>1250.0</ele><time>2026-04-25T16:52:53.051Z</time></trkpt><trkpt lat="42.235275" lon="-7.4945817"><ele>1250.0</ele><time>2026-04-25T16:52:54.055Z</time></trkpt><trkpt lat="42.2353375" lon="-7.4945298"><ele>1250.0</ele><time>2026-04-25T16:52:55.055Z</time></trkpt><trkpt lat="42.2354248" lon="-7.4944909"><ele>1250.0</ele><time>2026-04-25T16:52:57.055Z</time></trkpt><trkpt lat="42.2354951" lon="-7.4945238"><ele>1250.0</ele><time>2026-04-25T16:52:59.072Z</time></trkpt><trkpt lat="42.235572" lon="-7.494613"><ele>1250.0</ele><time>2026-04-25T16:53:01.061Z</time></trkpt><trkpt lat="42.2356693" lon="-7.494714"><ele>1250.0</ele><time>2026-04-25T16:53:03.056Z</time></trkpt><trkpt lat="42.2357436" lon="-7.494813"><ele>1250.0</ele><time>2026-04-25T16:53:05.055Z</time></trkpt><trkpt lat="42.2357941" lon="-7.4949087"><ele>1250.0</ele><time>2026-04-25T16:53:07.055Z</time></trkpt><trkpt lat="42.2357712" lon="-7.4950284"><ele>1250.0</ele><time>2026-04-25T16:53:09.06Z</time></trkpt><trkpt lat="42.2357048" lon="-7.4951315"><ele>1250.0</ele><time>2026-04-25T16:53:11.05Z</time></trkpt><trkpt lat="42.2356295" lon="-7.4952383"><ele>1250.0</ele><time>2026-04-25T16:53:13.055Z</time></trkpt><trkpt lat="42.2355909" lon="-7.4953461"><ele>1250.0</ele><time>2026-04-25T16:53:15.054Z</time></trkpt><trkpt lat="42.2355792" lon="-7.4954643"><ele>1250.0</ele><time>2026-04-25T16:53:17.052Z</time></trkpt><trkpt lat="42.2355724" lon="-7.4955855"><ele>1250.0</ele><time>2026-04-25T16:53:19.059Z</time></trkpt><trkpt lat="42.2355967" lon="-7.4957156"><ele>1250.0</ele><time>2026-04-25T16:53:21.056Z</time></trkpt><trkpt lat="42.2356415" lon="-7.4958436"><ele>1248.4</ele><time>2026-04-25T16:53:23.065Z</time></trkpt><trkpt lat="42.23569" lon="-7.4959609"><ele>1246.8</ele><time>2026-04-25T16:53:25.051Z</time></trkpt><trkpt lat="42.2357701" lon="-7.4960459"><ele>1245.2</ele><time>2026-04-25T16:53:27.054Z</time></trkpt><trkpt lat="42.23585" lon="-7.4961362"><ele>1243.6</ele><time>2026-04-25T16:53:29.055Z</time></trkpt><trkpt lat="42.2359363" lon="-7.4962281"><ele>1242.0</ele><time>2026-04-25T16:53:31.053Z</time></trkpt><trkpt lat="42.2360202" lon="-7.4963048"><ele>1242.0</ele><time>2026-04-25T16:53:33.058Z</time></trkpt><trkpt lat="42.236094" lon="-7.4963871"><ele>1242.0</ele><time>2026-04-25T16:53:35.061Z</time></trkpt><trkpt lat="42.2361504" lon="-7.496456"><ele>1242.0</ele><time>2026-04-25T16:53:37.056Z</time></trkpt><trkpt lat="42.2362077" lon="-7.4965232"><ele>1242.0</ele><time>2026-04-25T16:53:39.061Z</time></trkpt><trkpt lat="42.2362889" lon="-7.4965549"><ele>1242.0</ele><time>2026-04-25T16:53:41.054Z</time></trkpt><trkpt lat="42.236396" lon="-7.4965427"><ele>1242.0</ele><time>2026-04-25T16:53:43.063Z</time></trkpt><trkpt lat="42.236507" lon="-7.4965665"><ele>1238.0</ele><time>2026-04-25T16:53:45.054Z</time></trkpt><trkpt lat="42.2366204" lon="-7.4966162"><ele>1234.0</ele><time>2026-04-25T16:53:47.056Z</time></trkpt><trkpt lat="42.2367378" lon="-7.4966804"><ele>1230.0</ele><time>2026-04-25T16:53:49.053Z</time></trkpt><trkpt lat="42.236843" lon="-7.496768"><ele>1226.0</ele><time>2026-04-25T16:53:51.055Z</time></trkpt><trkpt lat="42.2369074" lon="-7.496885"><ele>1226.0</ele><time>2026-04-25T16:53:53.059Z</time></trkpt><trkpt lat="42.2369686" lon="-7.4969995"><ele>1226.0</ele><time>2026-04-25T16:53:55.055Z</time></trkpt><trkpt lat="42.237071" lon="-7.4970188"><ele>1226.0</ele><time>2026-04-25T16:53:57.046Z</time></trkpt><trkpt lat="42.2371644" lon="-7.4969557"><ele>1226.0</ele><time>2026-04-25T16:53:59.052Z</time></trkpt><trkpt lat="42.2372722" lon="-7.4969396"><ele>1226.0</ele><time>2026-04-25T16:54:01.055Z</time></trkpt><trkpt lat="42.2374019" lon="-7.4969701"><ele>1224.0</ele><time>2026-04-25T16:54:03.063Z</time></trkpt><trkpt lat="42.2374703" lon="-7.4969915"><ele>1222.0</ele><time>2026-04-25T16:54:04.045Z</time></trkpt><trkpt lat="42.2375349" lon="-7.4970117"><ele>1220.0</ele><time>2026-04-25T16:54:05.047Z</time></trkpt><trkpt lat="42.2376127" lon="-7.4970312"><ele>1218.0</ele><time>2026-04-25T16:54:06.049Z</time></trkpt><trkpt lat="42.2376956" lon="-7.4970449"><ele>1216.0</ele><time>2026-04-25T16:54:07.051Z</time></trkpt><trkpt lat="42.2377872" lon="-7.4970516"><ele>1214.0</ele><time>2026-04-25T16:54:08.056Z</time></trkpt><trkpt lat="42.2378884" lon="-7.4970513"><ele>1214.0</ele><time>2026-04-25T16:54:09.052Z</time></trkpt><trkpt lat="42.237986" lon="-7.4970472"><ele>1214.0</ele><time>2026-04-25T16:54:10.059Z</time></trkpt><trkpt lat="42.2380885" lon="-7.4970388"><ele>1214.0</ele><time>2026-04-25T16:54:11.065Z</time></trkpt><trkpt lat="42.2382051" lon="-7.4970088"><ele>1214.0</ele><time>2026-04-25T16:54:12.063Z</time></trkpt><trkpt lat="42.238326" lon="-7.4969766"><ele>1214.0</ele><time>2026-04-25T16:54:13.045Z</time></trkpt><trkpt lat="42.2384623" lon="-7.4969266"><ele>1212.5</ele><time>2026-04-25T16:54:14.051Z</time></trkpt><trkpt lat="42.2385917" lon="-7.496883"><ele>1211.0</ele><time>2026-04-25T16:54:15.057Z</time></trkpt><trkpt lat="42.2387144" lon="-7.4968392"><ele>1209.5</ele><time>2026-04-25T16:54:16.052Z</time></trkpt><trkpt lat="42.2388285" lon="-7.4968166"><ele>1208.0</ele><time>2026-04-25T16:54:17.052Z</time></trkpt><trkpt lat="42.2389339" lon="-7.4967865"><ele>1208.0</ele><time>2026-04-25T16:54:18.062Z</time></trkpt><trkpt lat="42.2390236" lon="-7.4967425"><ele>1208.0</ele><time>2026-04-25T16:54:19.063Z</time></trkpt><trkpt lat="42.2391065" lon="-7.4966754"><ele>1208.0</ele><time>2026-04-25T16:54:20.052Z</time></trkpt><trkpt lat="42.2391904" lon="-7.4965689"><ele>1208.0</ele><time>2026-04-25T16:54:21.058Z</time></trkpt><trkpt lat="42.2392743" lon="-7.4964429"><ele>1208.0</ele><time>2026-04-25T16:54:22.048Z</time></trkpt><trkpt lat="42.2393459" lon="-7.4963334"><ele>1208.0</ele><time>2026-04-25T16:54:23.05Z</time></trkpt><trkpt lat="42.2394073" lon="-7.496239"><ele>1208.0</ele><time>2026-04-25T16:54:24.052Z</time></trkpt><trkpt lat="42.2394609" lon="-7.4961733"><ele>1208.0</ele><time>2026-04-25T16:54:25.05Z</time></trkpt><trkpt lat="42.2395775" lon="-7.496165"><ele>1208.0</ele><time>2026-04-25T16:54:27.056Z</time></trkpt><trkpt lat="42.2396459" lon="-7.4962313"><ele>1208.0</ele><time>2026-04-25T16:54:28.054Z</time></trkpt><trkpt lat="42.2397314" lon="-7.4963186"><ele>1207.75</ele><time>2026-04-25T16:54:29.058Z</time></trkpt><trkpt lat="42.2398292" lon="-7.4964447"><ele>1207.5</ele><time>2026-04-25T16:54:30.053Z</time></trkpt><trkpt lat="42.2399283" lon="-7.496531"><ele>1207.25</ele><time>2026-04-25T16:54:31.059Z</time></trkpt><trkpt lat="42.2400287" lon="-7.4965766"><ele>1207.0</ele><time>2026-04-25T16:54:32.052Z</time></trkpt><trkpt lat="42.2401282" lon="-7.4966059"><ele>1207.0</ele><time>2026-04-25T16:54:33.057Z</time></trkpt><trkpt lat="42.2402025" lon="-7.4966429"><ele>1207.0</ele><time>2026-04-25T16:54:34.061Z</time></trkpt><trkpt lat="42.2402555" lon="-7.4967002"><ele>1207.0</ele><time>2026-04-25T16:54:35.059Z</time></trkpt><trkpt lat="42.2402988" lon="-7.4968677"><ele>1207.0</ele><time>2026-04-25T16:54:37.054Z</time></trkpt><trkpt lat="42.2402877" lon="-7.4969732"><ele>1207.0</ele><time>2026-04-25T16:54:38.061Z</time></trkpt><trkpt lat="42.2402542" lon="-7.497094"><ele>1207.8</ele><time>2026-04-25T16:54:39.054Z</time></trkpt><trkpt lat="42.2402194" lon="-7.4972189"><ele>1208.6</ele><time>2026-04-25T16:54:40.058Z</time></trkpt><trkpt lat="42.2401795" lon="-7.4973515"><ele>1209.3999999999999</ele><time>2026-04-25T16:54:41.064Z</time></trkpt><trkpt lat="42.2401665" lon="-7.4975017"><ele>1210.2</ele><time>2026-04-25T16:54:42.048Z</time></trkpt><trkpt lat="42.2401533" lon="-7.4976615"><ele>1211.0</ele><time>2026-04-25T16:54:43.051Z</time></trkpt><trkpt lat="42.2401988" lon="-7.4978172"><ele>1213.0</ele><time>2026-04-25T16:54:44.06Z</time></trkpt><trkpt lat="42.2402466" lon="-7.4979802"><ele>1215.0</ele><time>2026-04-25T16:54:45.054Z</time></trkpt><trkpt lat="42.2403492" lon="-7.4981231"><ele>1217.0</ele><time>2026-04-25T16:54:46.049Z</time></trkpt><trkpt lat="42.2404521" lon="-7.4982608"><ele>1219.0</ele><time>2026-04-25T16:54:47.066Z</time></trkpt><trkpt lat="42.2405698" lon="-7.498365"><ele>1214.25</ele><time>2026-04-25T16:54:48.053Z</time></trkpt><trkpt lat="42.2406836" lon="-7.498458"><ele>1209.5</ele><time>2026-04-25T16:54:49.055Z</time></trkpt><trkpt lat="42.2407962" lon="-7.4985162"><ele>1204.75</ele><time>2026-04-25T16:54:50.055Z</time></trkpt><trkpt lat="42.240915" lon="-7.4985672"><ele>1200.0</ele><time>2026-04-25T16:54:51.052Z</time></trkpt><trkpt lat="42.241051" lon="-7.498581"><ele>1200.0</ele><time>2026-04-25T16:54:52.048Z</time></trkpt><trkpt lat="42.2411994" lon="-7.4985669"><ele>1200.0</ele><time>2026-04-25T16:54:53.05Z</time></trkpt><trkpt lat="42.2413637" lon="-7.4985477"><ele>1200.0</ele><time>2026-04-25T16:54:54.046Z</time></trkpt><trkpt lat="42.2415152" lon="-7.4985251"><ele>1199.8</ele><time>2026-04-25T16:54:55.063Z</time></trkpt><trkpt lat="42.2416466" lon="-7.4985055"><ele>1199.6</ele><time>2026-04-25T16:54:56.05Z</time></trkpt><trkpt lat="42.2417528" lon="-7.4984843"><ele>1199.4</ele><time>2026-04-25T16:54:57.049Z</time></trkpt><trkpt lat="42.2418488" lon="-7.4984734"><ele>1199.2</ele><time>2026-04-25T16:54:58.058Z</time></trkpt><trkpt lat="42.2419323" lon="-7.4984777"><ele>1199.0</ele><time>2026-04-25T16:54:59.055Z</time></trkpt><trkpt lat="42.2420032" lon="-7.4985099"><ele>1199.0</ele><time>2026-04-25T16:55:00.052Z</time></trkpt><trkpt lat="42.2420632" lon="-7.4985645"><ele>1199.0</ele><time>2026-04-25T16:55:01.048Z</time></trkpt><trkpt lat="42.2421114" lon="-7.4986337"><ele>1199.0</ele><time>2026-04-25T16:55:02.059Z</time></trkpt><trkpt lat="42.2421574" lon="-7.4986991"><ele>1199.0</ele><time>2026-04-25T16:55:03.058Z</time></trkpt><trkpt lat="42.2422115" lon="-7.4987552"><ele>1199.0</ele><time>2026-04-25T16:55:04.058Z</time></trkpt><trkpt lat="42.2422671" lon="-7.4988072"><ele>1199.0</ele><time>2026-04-25T16:55:05.057Z</time></trkpt><trkpt lat="42.2423477" lon="-7.4988183"><ele>1199.0</ele><time>2026-04-25T16:55:06.047Z</time></trkpt><trkpt lat="42.2424512" lon="-7.498785"><ele>1198.0</ele><time>2026-04-25T16:55:07.052Z</time></trkpt><trkpt lat="42.2425612" lon="-7.4987501"><ele>1197.0</ele><time>2026-04-25T16:55:08.059Z</time></trkpt><trkpt lat="42.2426662" lon="-7.4987164"><ele>1196.0</ele><time>2026-04-25T16:55:09.056Z</time></trkpt><trkpt lat="42.2427838" lon="-7.4986901"><ele>1195.0</ele><time>2026-04-25T16:55:10.052Z</time></trkpt><trkpt lat="42.2428985" lon="-7.4986786"><ele>1195.0</ele><time>2026-04-25T16:55:11.054Z</time></trkpt><trkpt lat="42.2430052" lon="-7.4986704"><ele>1195.0</ele><time>2026-04-25T16:55:12.06Z</time></trkpt><trkpt lat="42.2431048" lon="-7.4986627"><ele>1195.0</ele><time>2026-04-25T16:55:13.052Z</time></trkpt><trkpt lat="42.2431961" lon="-7.4986481"><ele>1195.0</ele><time>2026-04-25T16:55:14.055Z</time></trkpt><trkpt lat="42.2432743" lon="-7.4986317"><ele>1195.0</ele><time>2026-04-25T16:55:15.047Z</time></trkpt><trkpt lat="42.2433944" lon="-7.4986173"><ele>1192.8</ele><time>2026-04-25T16:55:17.055Z</time></trkpt><trkpt lat="42.2434994" lon="-7.4986664"><ele>1190.6</ele><time>2026-04-25T16:55:19.067Z</time></trkpt><trkpt lat="42.2435284" lon="-7.4988523"><ele>1188.4</ele><time>2026-04-25T16:55:21.058Z</time></trkpt><trkpt lat="42.2435255" lon="-7.4989807"><ele>1186.2</ele><time>2026-04-25T16:55:22.051Z</time></trkpt><trkpt lat="42.243509" lon="-7.4991169"><ele>1184.0</ele><time>2026-04-25T16:55:23.062Z</time></trkpt><trkpt lat="42.2434968" lon="-7.4992371"><ele>1183.0</ele><time>2026-04-25T16:55:24.06Z</time></trkpt><trkpt lat="42.2435174" lon="-7.4993217"><ele>1182.0</ele><time>2026-04-25T16:55:25.066Z</time></trkpt><trkpt lat="42.2435612" lon="-7.4993957"><ele>1181.0</ele><time>2026-04-25T16:55:26.06Z</time></trkpt><trkpt lat="42.2436373" lon="-7.4994606"><ele>1180.0</ele><time>2026-04-25T16:55:27.058Z</time></trkpt><trkpt lat="42.2437446" lon="-7.4995302"><ele>1179.0</ele><time>2026-04-25T16:55:28.062Z</time></trkpt><trkpt lat="42.2438466" lon="-7.4996029"><ele>1177.2</ele><time>2026-04-25T16:55:29.061Z</time></trkpt><trkpt lat="42.2439362" lon="-7.4996803"><ele>1175.4</ele><time>2026-04-25T16:55:30.051Z</time></trkpt><trkpt lat="42.2440201" lon="-7.4997575"><ele>1173.6</ele><time>2026-04-25T16:55:31.053Z</time></trkpt><trkpt lat="42.2440708" lon="-7.4998671"><ele>1171.8</ele><time>2026-04-25T16:55:32.052Z</time></trkpt><trkpt lat="42.2441007" lon="-7.4999885"><ele>1170.0</ele><time>2026-04-25T16:55:33.052Z</time></trkpt><trkpt lat="42.2441125" lon="-7.5000967"><ele>1170.0</ele><time>2026-04-25T16:55:34.047Z</time></trkpt><trkpt lat="42.244118" lon="-7.5001878"><ele>1170.0</ele><time>2026-04-25T16:55:35.056Z</time></trkpt><trkpt lat="42.2440541" lon="-7.5003216"><ele>1170.0</ele><time>2026-04-25T16:55:37.06Z</time></trkpt><trkpt lat="42.2439914" lon="-7.5003409"><ele>1170.0</ele><time>2026-04-25T16:55:38.058Z</time></trkpt><trkpt lat="42.2438957" lon="-7.5003584"><ele>1170.0</ele><time>2026-04-25T16:55:39.058Z</time></trkpt><trkpt lat="42.2437826" lon="-7.5003804"><ele>1170.0</ele><time>2026-04-25T16:55:40.053Z</time></trkpt><trkpt lat="42.2436767" lon="-7.5004039"><ele>1170.0</ele><time>2026-04-25T16:55:41.055Z</time></trkpt><trkpt lat="42.2435784" lon="-7.5004306"><ele>1170.0</ele><time>2026-04-25T16:55:42.056Z</time></trkpt><trkpt lat="42.2434732" lon="-7.5004577"><ele>1170.0</ele><time>2026-04-25T16:55:43.053Z</time></trkpt><trkpt lat="42.2433736" lon="-7.5004932"><ele>1170.0</ele><time>2026-04-25T16:55:44.047Z</time></trkpt><trkpt lat="42.2432922" lon="-7.5005183"><ele>1170.0</ele><time>2026-04-25T16:55:45.058Z</time></trkpt><trkpt lat="42.2431871" lon="-7.5005891"><ele>1170.0</ele><time>2026-04-25T16:55:47.049Z</time></trkpt><trkpt lat="42.2431125" lon="-7.5006698"><ele>1170.0</ele><time>2026-04-25T16:55:49.054Z</time></trkpt><trkpt lat="42.2430867" lon="-7.5007796"><ele>1170.0</ele><time>2026-04-25T16:55:51.061Z</time></trkpt><trkpt lat="42.2431272" lon="-7.5008694"><ele>1170.0</ele><time>2026-04-25T16:55:53.06Z</time></trkpt><trkpt lat="42.2432227" lon="-7.5008951"><ele>1168.6</ele><time>2026-04-25T16:55:55.055Z</time></trkpt><trkpt lat="42.2432963" lon="-7.5009325"><ele>1167.2</ele><time>2026-04-25T16:55:56.054Z</time></trkpt><trkpt lat="42.2433835" lon="-7.5009821"><ele>1165.8</ele><time>2026-04-25T16:55:57.056Z</time></trkpt><trkpt lat="42.2434853" lon="-7.5010716"><ele>1164.4</ele><time>2026-04-25T16:55:58.049Z</time></trkpt><trkpt lat="42.2435802" lon="-7.5011583"><ele>1163.0</ele><time>2026-04-25T16:55:59.058Z</time></trkpt><trkpt lat="42.2436728" lon="-7.5012402"><ele>1164.8</ele><time>2026-04-25T16:56:00.061Z</time></trkpt><trkpt lat="42.2437518" lon="-7.5013172"><ele>1166.6</ele><time>2026-04-25T16:56:01.053Z</time></trkpt><trkpt lat="42.2438109" lon="-7.501403"><ele>1168.4</ele><time>2026-04-25T16:56:02.048Z</time></trkpt><trkpt lat="42.2438556" lon="-7.5015036"><ele>1170.2</ele><time>2026-04-25T16:56:03.062Z</time></trkpt><trkpt lat="42.2438876" lon="-7.501631"><ele>1172.0</ele><time>2026-04-25T16:56:04.056Z</time></trkpt><trkpt lat="42.243899" lon="-7.5017578"><ele>1172.0</ele><time>2026-04-25T16:56:05.063Z</time></trkpt><trkpt lat="42.243891" lon="-7.501898"><ele>1172.0</ele><time>2026-04-25T16:56:06.054Z</time></trkpt><trkpt lat="42.2438672" lon="-7.5020223"><ele>1172.0</ele><time>2026-04-25T16:56:07.049Z</time></trkpt><trkpt lat="42.2438217" lon="-7.502159"><ele>1172.0</ele><time>2026-04-25T16:56:08.051Z</time></trkpt><trkpt lat="42.2437614" lon="-7.5023161"><ele>1172.0</ele><time>2026-04-25T16:56:09.056Z</time></trkpt><trkpt lat="42.2437064" lon="-7.5024524"><ele>1172.4</ele><time>2026-04-25T16:56:10.049Z</time></trkpt><trkpt lat="42.2436669" lon="-7.502566"><ele>1172.8000000000002</ele><time>2026-04-25T16:56:11.058Z</time></trkpt><trkpt lat="42.2436407" lon="-7.5026523"><ele>1173.2</ele><time>2026-04-25T16:56:12.051Z</time></trkpt><trkpt lat="42.2436118" lon="-7.5027815"><ele>1173.6000000000001</ele><time>2026-04-25T16:56:14.058Z</time></trkpt><trkpt lat="42.2436396" lon="-7.5028886"><ele>1174.0</ele><time>2026-04-25T16:56:16.066Z</time></trkpt><trkpt lat="42.2437507" lon="-7.5029084"><ele>1174.0</ele><time>2026-04-25T16:56:18.053Z</time></trkpt><trkpt lat="42.2438522" lon="-7.5028904"><ele>1174.0</ele><time>2026-04-25T16:56:19.051Z</time></trkpt><trkpt lat="42.2439637" lon="-7.5028747"><ele>1174.0</ele><time>2026-04-25T16:56:20.067Z</time></trkpt><trkpt lat="42.244092" lon="-7.5028796"><ele>1174.0</ele><time>2026-04-25T16:56:21.063Z</time></trkpt><trkpt lat="42.2442239" lon="-7.5028732"><ele>1171.4</ele><time>2026-04-25T16:56:22.055Z</time></trkpt><trkpt lat="42.2443403" lon="-7.5028453"><ele>1168.8000000000002</ele><time>2026-04-25T16:56:23.054Z</time></trkpt><trkpt lat="42.2444383" lon="-7.5028091"><ele>1166.1999999999998</ele><time>2026-04-25T16:56:24.05Z</time></trkpt><trkpt lat="42.2445165" lon="-7.5027834"><ele>1163.6</ele><time>2026-04-25T16:56:25.049Z</time></trkpt><trkpt lat="42.2445828" lon="-7.5027741"><ele>1161.0</ele><time>2026-04-25T16:56:26.055Z</time></trkpt><trkpt lat="42.2446785" lon="-7.5028219"><ele>1163.5</ele><time>2026-04-25T16:56:28.053Z</time></trkpt><trkpt lat="42.2446921" lon="-7.5029765"><ele>1166.0</ele><time>2026-04-25T16:56:30.052Z</time></trkpt><trkpt lat="42.2446722" lon="-7.5031041"><ele>1168.5</ele><time>2026-04-25T16:56:31.053Z</time></trkpt><trkpt lat="42.2446544" lon="-7.503253"><ele>1171.0</ele><time>2026-04-25T16:56:32.061Z</time></trkpt><trkpt lat="42.2446372" lon="-7.5034329"><ele>1171.0</ele><time>2026-04-25T16:56:33.059Z</time></trkpt><trkpt lat="42.2446177" lon="-7.5036413"><ele>1171.0</ele><time>2026-04-25T16:56:34.061Z</time></trkpt><trkpt lat="42.2445955" lon="-7.5038654"><ele>1171.0</ele><time>2026-04-25T16:56:35.058Z</time></trkpt><trkpt lat="42.2445715" lon="-7.5041213"><ele>1174.0</ele><time>2026-04-25T16:56:36.046Z</time></trkpt><trkpt lat="42.2445512" lon="-7.5043859"><ele>1177.0</ele><time>2026-04-25T16:56:37.057Z</time></trkpt><trkpt lat="42.2445329" lon="-7.5046488"><ele>1180.0</ele><time>2026-04-25T16:56:38.056Z</time></trkpt><trkpt lat="42.2445226" lon="-7.5048963"><ele>1181.25</ele><time>2026-04-25T16:56:39.05Z</time></trkpt><trkpt lat="42.2445351" lon="-7.5051149"><ele>1182.5</ele><time>2026-04-25T16:56:40.05Z</time></trkpt><trkpt lat="42.2445421" lon="-7.5053116"><ele>1183.75</ele><time>2026-04-25T16:56:41.053Z</time></trkpt><trkpt lat="42.2445554" lon="-7.5054714"><ele>1185.0</ele><time>2026-04-25T16:56:42.052Z</time></trkpt><trkpt lat="42.2445644" lon="-7.5056198"><ele>1185.0</ele><time>2026-04-25T16:56:43.057Z</time></trkpt><trkpt lat="42.2445483" lon="-7.5057544"><ele>1185.0</ele><time>2026-04-25T16:56:44.06Z</time></trkpt><trkpt lat="42.2445173" lon="-7.5058873"><ele>1185.0</ele><time>2026-04-25T16:56:45.054Z</time></trkpt><trkpt lat="42.2444479" lon="-7.5060228"><ele>1185.0</ele><time>2026-04-25T16:56:46.066Z</time></trkpt><trkpt lat="42.2443962" lon="-7.5061663"><ele>1185.0</ele><time>2026-04-25T16:56:47.046Z</time></trkpt><trkpt lat="42.2443616" lon="-7.5063088"><ele>1185.0</ele><time>2026-04-25T16:56:48.05Z</time></trkpt><trkpt lat="42.2443331" lon="-7.5064602"><ele>1185.0</ele><time>2026-04-25T16:56:49.053Z</time></trkpt><trkpt lat="42.2443164" lon="-7.50664"><ele>1185.0</ele><time>2026-04-25T16:56:50.054Z</time></trkpt><trkpt lat="42.244299" lon="-7.5068364"><ele>1185.0</ele><time>2026-04-25T16:56:51.053Z</time></trkpt><trkpt lat="42.2442879" lon="-7.5070559"><ele>1185.5</ele><time>2026-04-25T16:56:52.053Z</time></trkpt><trkpt lat="42.244277" lon="-7.5072509"><ele>1186.0</ele><time>2026-04-25T16:56:53.056Z</time></trkpt><trkpt lat="42.2442572" lon="-7.5074422"><ele>1186.5</ele><time>2026-04-25T16:56:54.054Z</time></trkpt><trkpt lat="42.2442274" lon="-7.5076285"><ele>1187.0</ele><time>2026-04-25T16:56:55.049Z</time></trkpt><trkpt lat="42.2441873" lon="-7.5077919"><ele>1187.2</ele><time>2026-04-25T16:56:56.05Z</time></trkpt><trkpt lat="42.2441406" lon="-7.5079273"><ele>1187.4</ele><time>2026-04-25T16:56:57.065Z</time></trkpt><trkpt lat="42.2440928" lon="-7.5080301"><ele>1187.6</ele><time>2026-04-25T16:56:58.057Z</time></trkpt><trkpt lat="42.2440577" lon="-7.5081086"><ele>1187.8</ele><time>2026-04-25T16:56:59.059Z</time></trkpt><trkpt lat="42.2440115" lon="-7.5082443"><ele>1188.0</ele><time>2026-04-25T16:57:01.065Z</time></trkpt><trkpt lat="42.244006" lon="-7.5084281"><ele>1188.0</ele><time>2026-04-25T16:57:03.051Z</time></trkpt><trkpt lat="42.2440227" lon="-7.5085541"><ele>1188.0</ele><time>2026-04-25T16:57:04.054Z</time></trkpt><trkpt lat="42.2440403" lon="-7.5086783"><ele>1188.0</ele><time>2026-04-25T16:57:05.051Z</time></trkpt><trkpt lat="42.244077" lon="-7.5087874"><ele>1188.0</ele><time>2026-04-25T16:57:06.05Z</time></trkpt><trkpt lat="42.2441307" lon="-7.5089158"><ele>1188.0</ele><time>2026-04-25T16:57:07.061Z</time></trkpt><trkpt lat="42.2442019" lon="-7.5090354"><ele>1189.0</ele><time>2026-04-25T16:57:08.056Z</time></trkpt><trkpt lat="42.2442588" lon="-7.5091468"><ele>1190.0</ele><time>2026-04-25T16:57:09.047Z</time></trkpt><trkpt lat="42.2443086" lon="-7.5092666"><ele>1191.0</ele><time>2026-04-25T16:57:10.06Z</time></trkpt><trkpt lat="42.2443586" lon="-7.5094041"><ele>1192.0</ele><time>2026-04-25T16:57:11.047Z</time></trkpt><trkpt lat="42.2443948" lon="-7.5095449"><ele>1193.0</ele><time>2026-04-25T16:57:12.048Z</time></trkpt><trkpt lat="42.2444301" lon="-7.5096865"><ele>1193.0</ele><time>2026-04-25T16:57:13.051Z</time></trkpt><trkpt lat="42.2444444" lon="-7.5098167"><ele>1193.0</ele><time>2026-04-25T16:57:14.052Z</time></trkpt><trkpt lat="42.2444559" lon="-7.5099597"><ele>1193.0</ele><time>2026-04-25T16:57:15.052Z</time></trkpt><trkpt lat="42.2444664" lon="-7.5101048"><ele>1193.0</ele><time>2026-04-25T16:57:16.053Z</time></trkpt><trkpt lat="42.2444769" lon="-7.5102401"><ele>1193.0</ele><time>2026-04-25T16:57:17.057Z</time></trkpt><trkpt lat="42.2444889" lon="-7.5103977"><ele>1191.75</ele><time>2026-04-25T16:57:18.064Z</time></trkpt><trkpt lat="42.2445082" lon="-7.5105622"><ele>1190.5</ele><time>2026-04-25T16:57:19.054Z</time></trkpt><trkpt lat="42.2445195" lon="-7.5107207"><ele>1189.25</ele><time>2026-04-25T16:57:20.057Z</time></trkpt><trkpt lat="42.2445301" lon="-7.5108717"><ele>1188.0</ele><time>2026-04-25T16:57:21.054Z</time></trkpt><trkpt lat="42.244543" lon="-7.5110269"><ele>1188.0</ele><time>2026-04-25T16:57:22.048Z</time></trkpt><trkpt lat="42.2445581" lon="-7.5111742"><ele>1188.0</ele><time>2026-04-25T16:57:23.059Z</time></trkpt><trkpt lat="42.244574" lon="-7.5113043"><ele>1188.0</ele><time>2026-04-25T16:57:24.055Z</time></trkpt><trkpt lat="42.2445888" lon="-7.5114374"><ele>1188.0</ele><time>2026-04-25T16:57:25.049Z</time></trkpt><trkpt lat="42.2445981" lon="-7.5115843"><ele>1188.0</ele><time>2026-04-25T16:57:26.053Z</time></trkpt><trkpt lat="42.2446072" lon="-7.5117284"><ele>1186.2</ele><time>2026-04-25T16:57:27.054Z</time></trkpt><trkpt lat="42.2446118" lon="-7.5118856"><ele>1184.4</ele><time>2026-04-25T16:57:28.045Z</time></trkpt><trkpt lat="42.2446072" lon="-7.5120347"><ele>1182.6000000000001</ele><time>2026-04-25T16:57:29.051Z</time></trkpt><trkpt lat="42.2446055" lon="-7.5121638"><ele>1180.8</ele><time>2026-04-25T16:57:30.05Z</time></trkpt><trkpt lat="42.2446051" lon="-7.5122894"><ele>1179.0</ele><time>2026-04-25T16:57:31.054Z</time></trkpt><trkpt lat="42.2445868" lon="-7.5124082"><ele>1177.1666666666667</ele><time>2026-04-25T16:57:32.055Z</time></trkpt><trkpt lat="42.2445731" lon="-7.5125277"><ele>1175.3333333333333</ele><time>2026-04-25T16:57:33.054Z</time></trkpt><trkpt lat="42.2445616" lon="-7.5126588"><ele>1173.5</ele><time>2026-04-25T16:57:34.054Z</time></trkpt><trkpt lat="42.2445548" lon="-7.5127773"><ele>1171.6666666666665</ele><time>2026-04-25T16:57:35.051Z</time></trkpt><trkpt lat="42.2445461" lon="-7.512879"><ele>1169.8333333333333</ele><time>2026-04-25T16:57:36.052Z</time></trkpt><trkpt lat="42.244531" lon="-7.5129812"><ele>1168.0</ele><time>2026-04-25T16:57:37.055Z</time></trkpt><trkpt lat="42.2445227" lon="-7.5130791"><ele>1165.3333333333333</ele><time>2026-04-25T16:57:38.056Z</time></trkpt><trkpt lat="42.2445243" lon="-7.5131748"><ele>1162.6666666666665</ele><time>2026-04-25T16:57:39.05Z</time></trkpt><trkpt lat="42.2445254" lon="-7.5132804"><ele>1160.0</ele><time>2026-04-25T16:57:40.062Z</time></trkpt><trkpt lat="42.2445335" lon="-7.5133865"><ele>1157.3333333333333</ele><time>2026-04-25T16:57:41.06Z</time></trkpt><trkpt lat="42.2445392" lon="-7.5134981"><ele>1154.6666666666667</ele><time>2026-04-25T16:57:42.053Z</time></trkpt><trkpt lat="42.2445478" lon="-7.5136075"><ele>1152.0</ele><time>2026-04-25T16:57:43.059Z</time></trkpt><trkpt lat="42.2445533" lon="-7.5137282"><ele>1149.8</ele><time>2026-04-25T16:57:44.061Z</time></trkpt><trkpt lat="42.2445597" lon="-7.5138535"><ele>1147.6</ele><time>2026-04-25T16:57:45.061Z</time></trkpt><trkpt lat="42.2445566" lon="-7.5139911"><ele>1145.3999999999999</ele><time>2026-04-25T16:57:46.056Z</time></trkpt><trkpt lat="42.2445521" lon="-7.5141186"><ele>1143.2</ele><time>2026-04-25T16:57:47.053Z</time></trkpt><trkpt lat="42.2445451" lon="-7.5142422"><ele>1141.0</ele><time>2026-04-25T16:57:48.054Z</time></trkpt><trkpt lat="42.244535" lon="-7.5143614"><ele>1141.0</ele><time>2026-04-25T16:57:49.061Z</time></trkpt><trkpt lat="42.2445257" lon="-7.5144842"><ele>1141.0</ele><time>2026-04-25T16:57:50.05Z</time></trkpt><trkpt lat="42.2445394" lon="-7.5145945"><ele>1141.0</ele><time>2026-04-25T16:57:51.053Z</time></trkpt><trkpt lat="42.2445718" lon="-7.5146806"><ele>1141.0</ele><time>2026-04-25T16:57:52.053Z</time></trkpt><trkpt lat="42.2446039" lon="-7.5147551"><ele>1141.0</ele><time>2026-04-25T16:57:53.053Z</time></trkpt><trkpt lat="42.2446952" lon="-7.5148539"><ele>1141.0</ele><time>2026-04-25T16:57:55.066Z</time></trkpt><trkpt lat="42.2447479" lon="-7.5149234"><ele>1141.2</ele><time>2026-04-25T16:57:56.055Z</time></trkpt><trkpt lat="42.244789" lon="-7.5150144"><ele>1141.3999999999999</ele><time>2026-04-25T16:57:57.059Z</time></trkpt><trkpt lat="42.2448178" lon="-7.5151282"><ele>1141.6</ele><time>2026-04-25T16:57:58.06Z</time></trkpt><trkpt lat="42.2448238" lon="-7.5152334"><ele>1141.8</ele><time>2026-04-25T16:57:59.054Z</time></trkpt><trkpt lat="42.2448169" lon="-7.5153693"><ele>1142.0</ele><time>2026-04-25T16:58:00.05Z</time></trkpt><trkpt lat="42.2448026" lon="-7.5155261"><ele>1140.25</ele><time>2026-04-25T16:58:01.052Z</time></trkpt><trkpt lat="42.2447947" lon="-7.515674"><ele>1138.5</ele><time>2026-04-25T16:58:02.054Z</time></trkpt><trkpt lat="42.2447928" lon="-7.5158262"><ele>1136.75</ele><time>2026-04-25T16:58:03.059Z</time></trkpt><trkpt lat="42.244797" lon="-7.5159919"><ele>1135.0</ele><time>2026-04-25T16:58:04.059Z</time></trkpt><trkpt lat="42.2448015" lon="-7.5161514"><ele>1133.5</ele><time>2026-04-25T16:58:05.059Z</time></trkpt><trkpt lat="42.2448064" lon="-7.5163261"><ele>1132.0</ele><time>2026-04-25T16:58:06.055Z</time></trkpt><trkpt lat="42.2448131" lon="-7.5164921"><ele>1130.5</ele><time>2026-04-25T16:58:07.06Z</time></trkpt><trkpt lat="42.244819" lon="-7.5166418"><ele>1129.0</ele><time>2026-04-25T16:58:08.06Z</time></trkpt><trkpt lat="42.2448269" lon="-7.5167822"><ele>1129.0</ele><time>2026-04-25T16:58:09.054Z</time></trkpt><trkpt lat="42.2448387" lon="-7.5169128"><ele>1129.0</ele><time>2026-04-25T16:58:10.052Z</time></trkpt><trkpt lat="42.2448551" lon="-7.5170388"><ele>1129.0</ele><time>2026-04-25T16:58:11.056Z</time></trkpt><trkpt lat="42.2448867" lon="-7.5171706"><ele>1129.0</ele><time>2026-04-25T16:58:12.061Z</time></trkpt><trkpt lat="42.244935" lon="-7.517293"><ele>1129.0</ele><time>2026-04-25T16:58:13.068Z</time></trkpt><trkpt lat="42.2450017" lon="-7.5174009"><ele>1126.75</ele><time>2026-04-25T16:58:14.051Z</time></trkpt><trkpt lat="42.245084" lon="-7.5175194"><ele>1124.5</ele><time>2026-04-25T16:58:15.054Z</time></trkpt><trkpt lat="42.2451616" lon="-7.5176371"><ele>1122.25</ele><time>2026-04-25T16:58:16.064Z</time></trkpt><trkpt lat="42.2452288" lon="-7.5177515"><ele>1120.0</ele><time>2026-04-25T16:58:17.062Z</time></trkpt><trkpt lat="42.245293" lon="-7.5178638"><ele>1118.4</ele><time>2026-04-25T16:58:18.063Z</time></trkpt><trkpt lat="42.2453594" lon="-7.5179799"><ele>1116.8</ele><time>2026-04-25T16:58:19.058Z</time></trkpt><trkpt lat="42.2454292" lon="-7.5180983"><ele>1115.2</ele><time>2026-04-25T16:58:20.055Z</time></trkpt><trkpt lat="42.2455037" lon="-7.5182071"><ele>1113.6</ele><time>2026-04-25T16:58:21.055Z</time></trkpt><trkpt lat="42.2455705" lon="-7.5183116"><ele>1112.0</ele><time>2026-04-25T16:58:22.062Z</time></trkpt><trkpt lat="42.2456472" lon="-7.5183997"><ele>1112.0</ele><time>2026-04-25T16:58:23.053Z</time></trkpt><trkpt lat="42.2457237" lon="-7.5184896"><ele>1112.0</ele><time>2026-04-25T16:58:24.065Z</time></trkpt><trkpt lat="42.2457965" lon="-7.5185729"><ele>1112.0</ele><time>2026-04-25T16:58:25.062Z</time></trkpt><trkpt lat="42.2458593" lon="-7.5186552"><ele>1112.0</ele><time>2026-04-25T16:58:26.063Z</time></trkpt><trkpt lat="42.2459084" lon="-7.5187552"><ele>1112.0</ele><time>2026-04-25T16:58:27.052Z</time></trkpt><trkpt lat="42.2459486" lon="-7.5188676"><ele>1110.0</ele><time>2026-04-25T16:58:28.059Z</time></trkpt><trkpt lat="42.2459715" lon="-7.5190149"><ele>1108.0</ele><time>2026-04-25T16:58:29.065Z</time></trkpt><trkpt lat="42.2460024" lon="-7.5191538"><ele>1106.0</ele><time>2026-04-25T16:58:30.046Z</time></trkpt><trkpt lat="42.2460294" lon="-7.5192953"><ele>1104.0</ele><time>2026-04-25T16:58:31.048Z</time></trkpt><trkpt lat="42.2460645" lon="-7.5194245"><ele>1102.0</ele><time>2026-04-25T16:58:32.053Z</time></trkpt><trkpt lat="42.2461091" lon="-7.5195475"><ele>1099.25</ele><time>2026-04-25T16:58:33.058Z</time></trkpt><trkpt lat="42.2461688" lon="-7.5196629"><ele>1096.5</ele><time>2026-04-25T16:58:34.068Z</time></trkpt><trkpt lat="42.2462468" lon="-7.5197852"><ele>1093.75</ele><time>2026-04-25T16:58:35.059Z</time></trkpt><trkpt lat="42.2463409" lon="-7.5198871"><ele>1091.0</ele><time>2026-04-25T16:58:36.062Z</time></trkpt><trkpt lat="42.2464459" lon="-7.5199725"><ele>1092.25</ele><time>2026-04-25T16:58:37.057Z</time></trkpt><trkpt lat="42.2465599" lon="-7.5200482"><ele>1093.5</ele><time>2026-04-25T16:58:38.061Z</time></trkpt><trkpt lat="42.2466874" lon="-7.5201122"><ele>1094.75</ele><time>2026-04-25T16:58:39.052Z</time></trkpt><trkpt lat="42.2468166" lon="-7.5201696"><ele>1096.0</ele><time>2026-04-25T16:58:40.05Z</time></trkpt><trkpt lat="42.246935" lon="-7.5202194"><ele>1096.0</ele><time>2026-04-25T16:58:41.059Z</time></trkpt><trkpt lat="42.2470418" lon="-7.5202662"><ele>1096.0</ele><time>2026-04-25T16:58:42.046Z</time></trkpt><trkpt lat="42.2471466" lon="-7.5203061"><ele>1096.0</ele><time>2026-04-25T16:58:43.066Z</time></trkpt><trkpt lat="42.2472638" lon="-7.5203371"><ele>1096.0</ele><time>2026-04-25T16:58:44.065Z</time></trkpt><trkpt lat="42.2473589" lon="-7.5203699"><ele>1096.0</ele><time>2026-04-25T16:58:45.057Z</time></trkpt><trkpt lat="42.2474591" lon="-7.5204004"><ele>1092.25</ele><time>2026-04-25T16:58:46.052Z</time></trkpt><trkpt lat="42.2475646" lon="-7.5204238"><ele>1088.5</ele><time>2026-04-25T16:58:47.05Z</time></trkpt><trkpt lat="42.2476878" lon="-7.5204493"><ele>1084.75</ele><time>2026-04-25T16:58:48.051Z</time></trkpt><trkpt lat="42.24782" lon="-7.5204714"><ele>1081.0</ele><time>2026-04-25T16:58:49.059Z</time></trkpt><trkpt lat="42.2479458" lon="-7.5204871"><ele>1081.0</ele><time>2026-04-25T16:58:50.047Z</time></trkpt><trkpt lat="42.2480623" lon="-7.5204929"><ele>1081.0</ele><time>2026-04-25T16:58:51.051Z</time></trkpt><trkpt lat="42.2481839" lon="-7.5204892"><ele>1081.0</ele><time>2026-04-25T16:58:52.049Z</time></trkpt><trkpt lat="42.2483038" lon="-7.5204749"><ele>1081.0</ele><time>2026-04-25T16:58:53.062Z</time></trkpt><trkpt lat="42.2484169" lon="-7.5204463"><ele>1082.0</ele><time>2026-04-25T16:58:54.053Z</time></trkpt><trkpt lat="42.2485178" lon="-7.5203976"><ele>1083.0</ele><time>2026-04-25T16:58:55.063Z</time></trkpt><trkpt lat="42.2486132" lon="-7.5203463"><ele>1084.0</ele><time>2026-04-25T16:58:56.049Z</time></trkpt><trkpt lat="42.2487076" lon="-7.5202968"><ele>1085.0</ele><time>2026-04-25T16:58:57.053Z</time></trkpt><trkpt lat="42.2488112" lon="-7.5202706"><ele>1086.0</ele><time>2026-04-25T16:58:58.045Z</time></trkpt><trkpt lat="42.2489399" lon="-7.5202726"><ele>1082.6666666666667</ele><time>2026-04-25T16:58:59.05Z</time></trkpt><trkpt lat="42.2491086" lon="-7.5202922"><ele>1079.3333333333335</ele><time>2026-04-25T16:59:00.055Z</time></trkpt><trkpt lat="42.2492939" lon="-7.5203183"><ele>1076.0</ele><time>2026-04-25T16:59:01.05Z</time></trkpt><trkpt lat="42.2494594" lon="-7.5203502"><ele>1076.0</ele><time>2026-04-25T16:59:02.051Z</time></trkpt><trkpt lat="42.249614" lon="-7.5203877"><ele>1076.0</ele><time>2026-04-25T16:59:03.049Z</time></trkpt><trkpt lat="42.2497589" lon="-7.5204387"><ele>1076.0</ele><time>2026-04-25T16:59:04.068Z</time></trkpt><trkpt lat="42.2498978" lon="-7.5204997"><ele>1074.25</ele><time>2026-04-25T16:59:05.046Z</time></trkpt><trkpt lat="42.2500261" lon="-7.5205552"><ele>1072.5</ele><time>2026-04-25T16:59:06.051Z</time></trkpt><trkpt lat="42.2501523" lon="-7.5206154"><ele>1070.75</ele><time>2026-04-25T16:59:07.046Z</time></trkpt><trkpt lat="42.2502795" lon="-7.5206804"><ele>1069.0</ele><time>2026-04-25T16:59:08.059Z</time></trkpt><trkpt lat="42.2503912" lon="-7.5207727"><ele>1069.0</ele><time>2026-04-25T16:59:09.054Z</time></trkpt><trkpt lat="42.2505031" lon="-7.520884"><ele>1069.0</ele><time>2026-04-25T16:59:10.058Z</time></trkpt><trkpt lat="42.2506084" lon="-7.5210133"><ele>1069.0</ele><time>2026-04-25T16:59:11.054Z</time></trkpt><trkpt lat="42.2506946" lon="-7.5211401"><ele>1069.0</ele><time>2026-04-25T16:59:12.058Z</time></trkpt><trkpt lat="42.2507693" lon="-7.5212554"><ele>1068.6000000000001</ele><time>2026-04-25T16:59:13.057Z</time></trkpt><trkpt lat="42.2508355" lon="-7.5213763"><ele>1068.2</ele><time>2026-04-25T16:59:14.06Z</time></trkpt><trkpt lat="42.2509002" lon="-7.5215075"><ele>1067.8000000000002</ele><time>2026-04-25T16:59:15.056Z</time></trkpt><trkpt lat="42.250957" lon="-7.5216284"><ele>1067.4</ele><time>2026-04-25T16:59:16.056Z</time></trkpt><trkpt lat="42.251015" lon="-7.5217357"><ele>1067.0</ele><time>2026-04-25T16:59:17.055Z</time></trkpt><trkpt lat="42.2510947" lon="-7.521844"><ele>1067.0</ele><time>2026-04-25T16:59:18.06Z</time></trkpt><trkpt lat="42.2511876" lon="-7.5219738"><ele>1067.0</ele><time>2026-04-25T16:59:19.06Z</time></trkpt><trkpt lat="42.2512866" lon="-7.5220967"><ele>1067.0</ele><time>2026-04-25T16:59:20.057Z</time></trkpt><trkpt lat="42.2513965" lon="-7.5222241"><ele>1067.0</ele><time>2026-04-25T16:59:21.047Z</time></trkpt><trkpt lat="42.2515069" lon="-7.5223509"><ele>1066.3333333333335</ele><time>2026-04-25T16:59:22.05Z</time></trkpt><trkpt lat="42.2516277" lon="-7.5224761"><ele>1065.6666666666667</ele><time>2026-04-25T16:59:23.057Z</time></trkpt><trkpt lat="42.2517721" lon="-7.5225922"><ele>1065.0</ele><time>2026-04-25T16:59:24.057Z</time></trkpt><trkpt lat="42.251927" lon="-7.5227173"><ele>1065.0</ele><time>2026-04-25T16:59:25.063Z</time></trkpt><trkpt lat="42.2520889" lon="-7.5228361"><ele>1065.0</ele><time>2026-04-25T16:59:26.061Z</time></trkpt><trkpt lat="42.252254" lon="-7.5229415"><ele>1065.0</ele><time>2026-04-25T16:59:27.06Z</time></trkpt><trkpt lat="42.2524065" lon="-7.5230498"><ele>1063.75</ele><time>2026-04-25T16:59:28.064Z</time></trkpt><trkpt lat="42.2525408" lon="-7.5231558"><ele>1062.5</ele><time>2026-04-25T16:59:29.052Z</time></trkpt><trkpt lat="42.2526598" lon="-7.5232657"><ele>1061.25</ele><time>2026-04-25T16:59:30.054Z</time></trkpt><trkpt lat="42.2527695" lon="-7.523395"><ele>1060.0</ele><time>2026-04-25T16:59:31.053Z</time></trkpt><trkpt lat="42.2528595" lon="-7.5235186"><ele>1060.0</ele><time>2026-04-25T16:59:32.056Z</time></trkpt><trkpt lat="42.2529408" lon="-7.5236377"><ele>1060.0</ele><time>2026-04-25T16:59:33.05Z</time></trkpt><trkpt lat="42.2530123" lon="-7.523757"><ele>1060.0</ele><time>2026-04-25T16:59:34.053Z</time></trkpt><trkpt lat="42.2530663" lon="-7.5238789"><ele>1060.0</ele><time>2026-04-25T16:59:35.058Z</time></trkpt><trkpt lat="42.2531006" lon="-7.5239941"><ele>1060.0</ele><time>2026-04-25T16:59:36.053Z</time></trkpt><trkpt lat="42.2531242" lon="-7.5241059"><ele>1058.8</ele><time>2026-04-25T16:59:37.058Z</time></trkpt><trkpt lat="42.2531479" lon="-7.5242148"><ele>1057.6</ele><time>2026-04-25T16:59:38.058Z</time></trkpt><trkpt lat="42.2531894" lon="-7.5243094"><ele>1056.4</ele><time>2026-04-25T16:59:39.047Z</time></trkpt><trkpt lat="42.2532537" lon="-7.5243779"><ele>1055.2</ele><time>2026-04-25T16:59:40.059Z</time></trkpt><trkpt lat="42.2533425" lon="-7.5244154"><ele>1054.0</ele><time>2026-04-25T16:59:41.053Z</time></trkpt><trkpt lat="42.2534726" lon="-7.5244372"><ele>1054.0</ele><time>2026-04-25T16:59:42.052Z</time></trkpt><trkpt lat="42.2536422" lon="-7.5244579"><ele>1054.0</ele><time>2026-04-25T16:59:43.062Z</time></trkpt><trkpt lat="42.2538427" lon="-7.5244839"><ele>1054.0</ele><time>2026-04-25T16:59:44.059Z</time></trkpt><trkpt lat="42.2540636" lon="-7.524522"><ele>1050.0</ele><time>2026-04-25T16:59:45.059Z</time></trkpt><trkpt lat="42.2542946" lon="-7.5245692"><ele>1046.0</ele><time>2026-04-25T16:59:46.053Z</time></trkpt><trkpt lat="42.2545197" lon="-7.5246175"><ele>1046.0</ele><time>2026-04-25T16:59:47.06Z</time></trkpt><trkpt lat="42.2547433" lon="-7.5246658"><ele>1046.0</ele><time>2026-04-25T16:59:48.062Z</time></trkpt><trkpt lat="42.254963" lon="-7.5247077"><ele>1046.0</ele><time>2026-04-25T16:59:49.061Z</time></trkpt><trkpt lat="42.2551681" lon="-7.5247478"><ele>1046.0</ele><time>2026-04-25T16:59:50.059Z</time></trkpt><trkpt lat="42.2553626" lon="-7.5247897"><ele>1046.0</ele><time>2026-04-25T16:59:51.045Z</time></trkpt><trkpt lat="42.2555623" lon="-7.5248517"><ele>1046.0</ele><time>2026-04-25T16:59:52.046Z</time></trkpt><trkpt lat="42.255771" lon="-7.5249402"><ele>1046.0</ele><time>2026-04-25T16:59:53.048Z</time></trkpt><trkpt lat="42.2559946" lon="-7.5250489"><ele>1046.0</ele><time>2026-04-25T16:59:54.059Z</time></trkpt><trkpt lat="42.2562208" lon="-7.5251665"><ele>1046.0</ele><time>2026-04-25T16:59:55.05Z</time></trkpt><trkpt lat="42.2564283" lon="-7.5252877"><ele>1046.0</ele><time>2026-04-25T16:59:56.061Z</time></trkpt><trkpt lat="42.2566247" lon="-7.525422"><ele>1046.0</ele><time>2026-04-25T16:59:57.056Z</time></trkpt><trkpt lat="42.2568163" lon="-7.5255694"><ele>1047.0</ele><time>2026-04-25T16:59:58.057Z</time></trkpt><trkpt lat="42.2569861" lon="-7.5257051"><ele>1048.0</ele><time>2026-04-25T16:59:59.086Z</time></trkpt><trkpt lat="42.2571403" lon="-7.5258268"><ele>1049.0</ele><time>2026-04-25T17:00:00.066Z</time></trkpt><trkpt lat="42.2572834" lon="-7.5259328"><ele>1048.0</ele><time>2026-04-25T17:00:01.051Z</time></trkpt><trkpt lat="42.2574245" lon="-7.5260268"><ele>1047.0</ele><time>2026-04-25T17:00:02.052Z</time></trkpt><trkpt lat="42.2575676" lon="-7.5261042"><ele>1046.0</ele><time>2026-04-25T17:00:03.051Z</time></trkpt><trkpt lat="42.2577045" lon="-7.5261638"><ele>1046.0</ele><time>2026-04-25T17:00:04.055Z</time></trkpt><trkpt lat="42.2578301" lon="-7.526215"><ele>1046.0</ele><time>2026-04-25T17:00:05.065Z</time></trkpt><trkpt lat="42.2579573" lon="-7.5262393"><ele>1046.0</ele><time>2026-04-25T17:00:06.054Z</time></trkpt><trkpt lat="42.2580785" lon="-7.5262455"><ele>1046.0</ele><time>2026-04-25T17:00:07.048Z</time></trkpt><trkpt lat="42.2582065" lon="-7.5262281"><ele>1044.25</ele><time>2026-04-25T17:00:08.051Z</time></trkpt><trkpt lat="42.2583423" lon="-7.5262037"><ele>1042.5</ele><time>2026-04-25T17:00:09.056Z</time></trkpt><trkpt lat="42.2584835" lon="-7.5261627"><ele>1040.75</ele><time>2026-04-25T17:00:10.049Z</time></trkpt><trkpt lat="42.2585964" lon="-7.5261246"><ele>1039.0</ele><time>2026-04-25T17:00:11.046Z</time></trkpt><trkpt lat="42.2586887" lon="-7.5260946"><ele>1039.0</ele><time>2026-04-25T17:00:12.05Z</time></trkpt><trkpt lat="42.258763" lon="-7.5260753"><ele>1039.0</ele><time>2026-04-25T17:00:13.05Z</time></trkpt><trkpt lat="42.2588607" lon="-7.5260803"><ele>1039.0</ele><time>2026-04-25T17:00:15.048Z</time></trkpt><trkpt lat="42.2588906" lon="-7.5261577"><ele>1039.0</ele><time>2026-04-25T17:00:18.075Z</time></trkpt><trkpt lat="42.2588272" lon="-7.5262368"><ele>1039.0</ele><time>2026-04-25T17:00:20.061Z</time></trkpt><trkpt lat="42.2587697" lon="-7.5263046"><ele>1039.0</ele><time>2026-04-25T17:00:21.063Z</time></trkpt><trkpt lat="42.2586964" lon="-7.5264041"><ele>1040.0</ele><time>2026-04-25T17:00:22.054Z</time></trkpt><trkpt lat="42.2586286" lon="-7.5265342"><ele>1041.0</ele><time>2026-04-25T17:00:23.053Z</time></trkpt><trkpt lat="42.2585838" lon="-7.5266807"><ele>1042.0</ele><time>2026-04-25T17:00:24.051Z</time></trkpt><trkpt lat="42.2585468" lon="-7.5268541"><ele>1043.0</ele><time>2026-04-25T17:00:25.058Z</time></trkpt><trkpt lat="42.2585036" lon="-7.5270568"><ele>1044.3333333333335</ele><time>2026-04-25T17:00:26.062Z</time></trkpt><trkpt lat="42.2584483" lon="-7.5272832"><ele>1045.6666666666667</ele><time>2026-04-25T17:00:27.054Z</time></trkpt><trkpt lat="42.2583949" lon="-7.5275107"><ele>1047.0</ele><time>2026-04-25T17:00:28.056Z</time></trkpt><trkpt lat="42.2583415" lon="-7.5277441"><ele>1047.3333333333333</ele><time>2026-04-25T17:00:29.06Z</time></trkpt><trkpt lat="42.2583081" lon="-7.5279931"><ele>1047.6666666666665</ele><time>2026-04-25T17:00:30.058Z</time></trkpt><trkpt lat="42.2582672" lon="-7.5282483"><ele>1048.0</ele><time>2026-04-25T17:00:31.063Z</time></trkpt><trkpt lat="42.2582247" lon="-7.5284949"><ele>1048.6666666666665</ele><time>2026-04-25T17:00:32.048Z</time></trkpt><trkpt lat="42.2581804" lon="-7.528731"><ele>1049.3333333333333</ele><time>2026-04-25T17:00:33.08Z</time></trkpt><trkpt lat="42.2581492" lon="-7.5289564"><ele>1050.0</ele><time>2026-04-25T17:00:34.057Z</time></trkpt><trkpt lat="42.2581188" lon="-7.5291851"><ele>1050.3333333333333</ele><time>2026-04-25T17:00:35.05Z</time></trkpt><trkpt lat="42.2581149" lon="-7.5294388"><ele>1050.6666666666665</ele><time>2026-04-25T17:00:36.058Z</time></trkpt><trkpt lat="42.2580889" lon="-7.529682"><ele>1051.0</ele><time>2026-04-25T17:00:37.058Z</time></trkpt><trkpt lat="42.2580591" lon="-7.5299025"><ele>1051.0</ele><time>2026-04-25T17:00:38.047Z</time></trkpt><trkpt lat="42.2580193" lon="-7.5301086"><ele>1051.0</ele><time>2026-04-25T17:00:39.057Z</time></trkpt><trkpt lat="42.2579784" lon="-7.5302965"><ele>1051.0</ele><time>2026-04-25T17:00:40.056Z</time></trkpt><trkpt lat="42.2579715" lon="-7.5304728"><ele>1051.0</ele><time>2026-04-25T17:00:41.062Z</time></trkpt><trkpt lat="42.2579911" lon="-7.5306722"><ele>1051.0</ele><time>2026-04-25T17:00:42.061Z</time></trkpt><trkpt lat="42.2580323" lon="-7.5308967"><ele>1051.0</ele><time>2026-04-25T17:00:43.051Z</time></trkpt><trkpt lat="42.258097" lon="-7.53113"><ele>1051.0</ele><time>2026-04-25T17:00:44.058Z</time></trkpt><trkpt lat="42.2581847" lon="-7.5313763"><ele>1050.5</ele><time>2026-04-25T17:00:45.071Z</time></trkpt><trkpt lat="42.2582917" lon="-7.5316352"><ele>1050.0</ele><time>2026-04-25T17:00:46.052Z</time></trkpt><trkpt lat="42.2584151" lon="-7.5319145"><ele>1049.0</ele><time>2026-04-25T17:00:47.06Z</time></trkpt><trkpt lat="42.258552" lon="-7.5322142"><ele>1048.0</ele><time>2026-04-25T17:00:48.062Z</time></trkpt><trkpt lat="42.2586876" lon="-7.5325024"><ele>1048.0</ele><time>2026-04-25T17:00:49.065Z</time></trkpt><trkpt lat="42.2588256" lon="-7.5327948"><ele>1048.0</ele><time>2026-04-25T17:00:50.049Z</time></trkpt><trkpt lat="42.2589619" lon="-7.5330889"><ele>1048.5</ele><time>2026-04-25T17:00:51.064Z</time></trkpt><trkpt lat="42.2590895" lon="-7.5333653"><ele>1049.0</ele><time>2026-04-25T17:00:52.051Z</time></trkpt><trkpt lat="42.2592094" lon="-7.5336254"><ele>1048.6666666666667</ele><time>2026-04-25T17:00:53.057Z</time></trkpt><trkpt lat="42.2593274" lon="-7.5338793"><ele>1048.3333333333333</ele><time>2026-04-25T17:00:54.049Z</time></trkpt><trkpt lat="42.2594428" lon="-7.5341387"><ele>1048.0</ele><time>2026-04-25T17:00:55.052Z</time></trkpt><trkpt lat="42.259556" lon="-7.534402"><ele>1047.3333333333333</ele><time>2026-04-25T17:00:56.048Z</time></trkpt><trkpt lat="42.2596618" lon="-7.5346491"><ele>1046.6666666666667</ele><time>2026-04-25T17:00:57.053Z</time></trkpt><trkpt lat="42.2597637" lon="-7.5348777"><ele>1046.0</ele><time>2026-04-25T17:00:58.064Z</time></trkpt><trkpt lat="42.2598545" lon="-7.5350864"><ele>1046.0</ele><time>2026-04-25T17:00:59.05Z</time></trkpt><trkpt lat="42.2599316" lon="-7.5352879"><ele>1046.0</ele><time>2026-04-25T17:01:00.052Z</time></trkpt><trkpt lat="42.2599989" lon="-7.5355011"><ele>1046.0</ele><time>2026-04-25T17:01:01.051Z</time></trkpt><trkpt lat="42.2600544" lon="-7.5357121"><ele>1045.5</ele><time>2026-04-25T17:01:02.049Z</time></trkpt><trkpt lat="42.2600965" lon="-7.5359073"><ele>1045.0</ele><time>2026-04-25T17:01:03.052Z</time></trkpt><trkpt lat="42.2601281" lon="-7.5360852"><ele>1044.5</ele><time>2026-04-25T17:01:04.056Z</time></trkpt><trkpt lat="42.2601509" lon="-7.5362365"><ele>1044.0</ele><time>2026-04-25T17:01:05.057Z</time></trkpt><trkpt lat="42.2601679" lon="-7.5363651"><ele>1043.3333333333333</ele><time>2026-04-25T17:01:06.06Z</time></trkpt><trkpt lat="42.2601828" lon="-7.5364744"><ele>1042.6666666666667</ele><time>2026-04-25T17:01:07.051Z</time></trkpt><trkpt lat="42.2601928" lon="-7.5365681"><ele>1042.0</ele><time>2026-04-25T17:01:08.053Z</time></trkpt><trkpt lat="42.2602067" lon="-7.5367239"><ele>1041.3333333333335</ele><time>2026-04-25T17:01:10.054Z</time></trkpt><trkpt lat="42.2601964" lon="-7.5368386"><ele>1040.6666666666667</ele><time>2026-04-25T17:01:12.049Z</time></trkpt><trkpt lat="42.2602088" lon="-7.5369596"><ele>1040.0</ele><time>2026-04-25T17:01:14.052Z</time></trkpt><trkpt lat="42.2602237" lon="-7.5370779"><ele>1039.3333333333335</ele><time>2026-04-25T17:01:16.071Z</time></trkpt><trkpt lat="42.2602596" lon="-7.5371861"><ele>1038.6666666666667</ele><time>2026-04-25T17:01:18.056Z</time></trkpt><trkpt lat="42.260326" lon="-7.5373315"><ele>1038.0</ele><time>2026-04-25T17:01:20.058Z</time></trkpt><trkpt lat="42.2603747" lon="-7.5374082"><ele>1037.3333333333333</ele><time>2026-04-25T17:01:21.059Z</time></trkpt><trkpt lat="42.2604211" lon="-7.5374809"><ele>1036.6666666666665</ele><time>2026-04-25T17:01:22.055Z</time></trkpt><trkpt lat="42.2604643" lon="-7.537561"><ele>1036.0</ele><time>2026-04-25T17:01:23.054Z</time></trkpt><trkpt lat="42.2605045" lon="-7.5376492"><ele>1036.0</ele><time>2026-04-25T17:01:24.051Z</time></trkpt><trkpt lat="42.2605439" lon="-7.5377291"><ele>1036.0</ele><time>2026-04-25T17:01:25.047Z</time></trkpt><trkpt lat="42.2605772" lon="-7.5378082"><ele>1036.0</ele><time>2026-04-25T17:01:26.051Z</time></trkpt><trkpt lat="42.2606135" lon="-7.5379174"><ele>1036.0</ele><time>2026-04-25T17:01:27.054Z</time></trkpt><trkpt lat="42.2606491" lon="-7.5380303"><ele>1036.0</ele><time>2026-04-25T17:01:28.062Z</time></trkpt><trkpt lat="42.2606784" lon="-7.5381296"><ele>1036.0</ele><time>2026-04-25T17:01:29.054Z</time></trkpt><trkpt lat="42.2607113" lon="-7.5382093"><ele>1036.1666666666665</ele><time>2026-04-25T17:01:30.05Z</time></trkpt><trkpt lat="42.2607383" lon="-7.5382955"><ele>1036.3333333333333</ele><time>2026-04-25T17:01:31.056Z</time></trkpt><trkpt lat="42.2607671" lon="-7.5383815"><ele>1036.5</ele><time>2026-04-25T17:01:32.05Z</time></trkpt><trkpt lat="42.2608097" lon="-7.5384935"><ele>1036.6666666666667</ele><time>2026-04-25T17:01:33.059Z</time></trkpt><trkpt lat="42.2608567" lon="-7.538608"><ele>1036.8333333333335</ele><time>2026-04-25T17:01:34.06Z</time></trkpt><trkpt lat="42.260904" lon="-7.5387211"><ele>1037.0</ele><time>2026-04-25T17:01:35.054Z</time></trkpt><trkpt lat="42.2609469" lon="-7.5388351"><ele>1037.0</ele><time>2026-04-25T17:01:36.061Z</time></trkpt><trkpt lat="42.2609889" lon="-7.5389365"><ele>1037.0</ele><time>2026-04-25T17:01:37.06Z</time></trkpt><trkpt lat="42.2610417" lon="-7.5390508"><ele>1037.0</ele><time>2026-04-25T17:01:38.057Z</time></trkpt><trkpt lat="42.2611105" lon="-7.5392001"><ele>1037.0</ele><time>2026-04-25T17:01:39.056Z</time></trkpt><trkpt lat="42.2611841" lon="-7.5393538"><ele>1037.0</ele><time>2026-04-25T17:01:40.049Z</time></trkpt><trkpt lat="42.2612565" lon="-7.5395152"><ele>1037.0</ele><time>2026-04-25T17:01:41.057Z</time></trkpt><trkpt lat="42.2613263" lon="-7.5396736"><ele>1037.0</ele><time>2026-04-25T17:01:42.053Z</time></trkpt><trkpt lat="42.2613985" lon="-7.5398199"><ele>1037.0</ele><time>2026-04-25T17:01:43.057Z</time></trkpt><trkpt lat="42.2614771" lon="-7.5399493"><ele>1037.2</ele><time>2026-04-25T17:01:44.053Z</time></trkpt><trkpt lat="42.261539" lon="-7.5400567"><ele>1037.4</ele><time>2026-04-25T17:01:45.058Z</time></trkpt><trkpt lat="42.2615984" lon="-7.5401598"><ele>1037.6</ele><time>2026-04-25T17:01:46.051Z</time></trkpt><trkpt lat="42.2616438" lon="-7.5402428"><ele>1037.8</ele><time>2026-04-25T17:01:47.058Z</time></trkpt><trkpt lat="42.2616863" lon="-7.5403137"><ele>1038.0</ele><time>2026-04-25T17:01:48.062Z</time></trkpt><trkpt lat="42.2617555" lon="-7.5404355"><ele>1038.0</ele><time>2026-04-25T17:01:50.062Z</time></trkpt><trkpt lat="42.2618321" lon="-7.5405365"><ele>1038.0</ele><time>2026-04-25T17:01:52.06Z</time></trkpt><trkpt lat="42.2619026" lon="-7.5406127"><ele>1038.0</ele><time>2026-04-25T17:01:54.055Z</time></trkpt><trkpt lat="42.2620043" lon="-7.540679"><ele>1038.0</ele><time>2026-04-25T17:01:56.05Z</time></trkpt><trkpt lat="42.2619375" lon="-7.5406324"><ele>1038.0</ele><time>2026-04-25T17:03:36.056Z</time></trkpt><trkpt lat="42.2618359" lon="-7.5406365"><ele>1038.0</ele><time>2026-04-25T17:03:39.054Z</time></trkpt><trkpt lat="42.2617719" lon="-7.5406584"><ele>1038.0</ele><time>2026-04-25T17:03:51.055Z</time></trkpt><trkpt lat="42.2618012" lon="-7.540756"><ele>1038.0</ele><time>2026-04-25T17:03:56.057Z</time></trkpt><trkpt lat="42.2618628" lon="-7.5408448"><ele>1038.0</ele><time>2026-04-25T17:03:58.065Z</time></trkpt><trkpt lat="42.2619544" lon="-7.540961"><ele>1038.0</ele><time>2026-04-25T17:04:00.058Z</time></trkpt><trkpt lat="42.2620132" lon="-7.5410609"><ele>1038.0</ele><time>2026-04-25T17:04:02.05Z</time></trkpt><trkpt lat="42.2620653" lon="-7.5412046"><ele>1038.0</ele><time>2026-04-25T17:04:04.058Z</time></trkpt><trkpt lat="42.2621005" lon="-7.5412883"><ele>1038.0</ele><time>2026-04-25T17:04:05.059Z</time></trkpt><trkpt lat="42.2621342" lon="-7.5413692"><ele>1038.0</ele><time>2026-04-25T17:04:06.052Z</time></trkpt><trkpt lat="42.2621902" lon="-7.5414908"><ele>1038.0</ele><time>2026-04-25T17:04:08.051Z</time></trkpt><trkpt lat="42.2622336" lon="-7.54157"><ele>1038.0</ele><time>2026-04-25T17:04:09.059Z</time></trkpt><trkpt lat="42.2622758" lon="-7.5416493"><ele>1038.1666666666667</ele><time>2026-04-25T17:04:10.061Z</time></trkpt><trkpt lat="42.2623162" lon="-7.5417224"><ele>1038.3333333333333</ele><time>2026-04-25T17:04:11.054Z</time></trkpt><trkpt lat="42.262356" lon="-7.5417951"><ele>1038.5</ele><time>2026-04-25T17:04:12.06Z</time></trkpt><trkpt lat="42.2624039" lon="-7.5418787"><ele>1038.6666666666665</ele><time>2026-04-25T17:04:13.059Z</time></trkpt><trkpt lat="42.2624489" lon="-7.5419706"><ele>1038.8333333333333</ele><time>2026-04-25T17:04:14.055Z</time></trkpt><trkpt lat="42.2625084" lon="-7.5420875"><ele>1039.0</ele><time>2026-04-25T17:04:15.06Z</time></trkpt><trkpt lat="42.2625749" lon="-7.5422098"><ele>1040.5</ele><time>2026-04-25T17:04:16.059Z</time></trkpt><trkpt lat="42.2626417" lon="-7.5423366"><ele>1042.0</ele><time>2026-04-25T17:04:17.06Z</time></trkpt><trkpt lat="42.2627116" lon="-7.5424668"><ele>1043.5</ele><time>2026-04-25T17:04:18.065Z</time></trkpt><trkpt lat="42.2627809" lon="-7.5426024"><ele>1045.0</ele><time>2026-04-25T17:04:19.057Z</time></trkpt><trkpt lat="42.2628441" lon="-7.542729"><ele>1045.0</ele><time>2026-04-25T17:04:20.053Z</time></trkpt><trkpt lat="42.2629042" lon="-7.5428496"><ele>1045.0</ele><time>2026-04-25T17:04:21.059Z</time></trkpt><trkpt lat="42.2629687" lon="-7.5429789"><ele>1045.0</ele><time>2026-04-25T17:04:22.067Z</time></trkpt><trkpt lat="42.2630398" lon="-7.5431211"><ele>1045.0</ele><time>2026-04-25T17:04:23.056Z</time></trkpt><trkpt lat="42.2631151" lon="-7.5432723"><ele>1045.5</ele><time>2026-04-25T17:04:24.066Z</time></trkpt><trkpt lat="42.2631961" lon="-7.543434"><ele>1046.0</ele><time>2026-04-25T17:04:25.063Z</time></trkpt><trkpt lat="42.2632773" lon="-7.5435961"><ele>1046.5</ele><time>2026-04-25T17:04:26.062Z</time></trkpt><trkpt lat="42.2633422" lon="-7.5437351"><ele>1047.0</ele><time>2026-04-25T17:04:27.06Z</time></trkpt><trkpt lat="42.263407" lon="-7.5438731"><ele>1047.0</ele><time>2026-04-25T17:04:28.059Z</time></trkpt><trkpt lat="42.2634713" lon="-7.5440099"><ele>1047.0</ele><time>2026-04-25T17:04:29.055Z</time></trkpt><trkpt lat="42.2635317" lon="-7.5441317"><ele>1047.0</ele><time>2026-04-25T17:04:30.06Z</time></trkpt><trkpt lat="42.2635851" lon="-7.5442431"><ele>1047.0</ele><time>2026-04-25T17:04:31.055Z</time></trkpt><trkpt lat="42.2636307" lon="-7.5443489"><ele>1047.0</ele><time>2026-04-25T17:04:32.057Z</time></trkpt><trkpt lat="42.2636579" lon="-7.5444403"><ele>1046.8</ele><time>2026-04-25T17:04:33.051Z</time></trkpt><trkpt lat="42.2636631" lon="-7.5445901"><ele>1046.6</ele><time>2026-04-25T17:04:35.051Z</time></trkpt><trkpt lat="42.2636389" lon="-7.5446759"><ele>1046.3999999999999</ele><time>2026-04-25T17:04:36.065Z</time></trkpt><trkpt lat="42.2636015" lon="-7.5448082"><ele>1046.2</ele><time>2026-04-25T17:04:38.046Z</time></trkpt><trkpt lat="42.2635974" lon="-7.5449329"><ele>1046.0</ele><time>2026-04-25T17:05:05.056Z</time></trkpt><trkpt lat="42.2636802" lon="-7.5450665"><ele>1046.0</ele><time>2026-04-25T17:05:07.058Z</time></trkpt><trkpt lat="42.2637833" lon="-7.5451462"><ele>1046.0</ele><time>2026-04-25T17:05:08.046Z</time></trkpt><trkpt lat="42.2639123" lon="-7.5452516"><ele>1046.0</ele><time>2026-04-25T17:05:09.057Z</time></trkpt><trkpt lat="42.2640542" lon="-7.5453724"><ele>1046.0</ele><time>2026-04-25T17:05:10.049Z</time></trkpt><trkpt lat="42.2641907" lon="-7.545487"><ele>1044.75</ele><time>2026-04-25T17:05:11.058Z</time></trkpt><trkpt lat="42.2643243" lon="-7.5456002"><ele>1043.5</ele><time>2026-04-25T17:05:12.059Z</time></trkpt><trkpt lat="42.264452" lon="-7.5457067"><ele>1042.25</ele><time>2026-04-25T17:05:13.059Z</time></trkpt><trkpt lat="42.2645717" lon="-7.5458052"><ele>1041.0</ele><time>2026-04-25T17:05:14.055Z</time></trkpt><trkpt lat="42.2646836" lon="-7.5458963"><ele>1040.3999999999999</ele><time>2026-04-25T17:05:15.06Z</time></trkpt><trkpt lat="42.264781" lon="-7.5459759"><ele>1039.8</ele><time>2026-04-25T17:05:16.049Z</time></trkpt><trkpt lat="42.264868" lon="-7.5460491"><ele>1039.1999999999998</ele><time>2026-04-25T17:05:17.056Z</time></trkpt><trkpt lat="42.2649482" lon="-7.5461191"><ele>1038.6</ele><time>2026-04-25T17:05:18.052Z</time></trkpt><trkpt lat="42.2650286" lon="-7.5461974"><ele>1038.0</ele><time>2026-04-25T17:05:19.062Z</time></trkpt><trkpt lat="42.2651143" lon="-7.5462993"><ele>1037.75</ele><time>2026-04-25T17:05:20.055Z</time></trkpt><trkpt lat="42.2652104" lon="-7.5464283"><ele>1037.5</ele><time>2026-04-25T17:05:21.057Z</time></trkpt><trkpt lat="42.2653126" lon="-7.5465671"><ele>1037.25</ele><time>2026-04-25T17:05:22.049Z</time></trkpt><trkpt lat="42.2654227" lon="-7.5467115"><ele>1037.0</ele><time>2026-04-25T17:05:23.064Z</time></trkpt><trkpt lat="42.2655273" lon="-7.5468458"><ele>1036.0</ele><time>2026-04-25T17:05:24.063Z</time></trkpt><trkpt lat="42.2656417" lon="-7.5469825"><ele>1035.0</ele><time>2026-04-25T17:05:25.067Z</time></trkpt><trkpt lat="42.2657577" lon="-7.547143"><ele>1034.0</ele><time>2026-04-25T17:05:26.062Z</time></trkpt><trkpt lat="42.2658864" lon="-7.5473136"><ele>1033.3333333333335</ele><time>2026-04-25T17:05:27.061Z</time></trkpt><trkpt lat="42.2660163" lon="-7.547492"><ele>1032.6666666666667</ele><time>2026-04-25T17:05:28.07Z</time></trkpt><trkpt lat="42.2661413" lon="-7.5476559"><ele>1032.0</ele><time>2026-04-25T17:05:29.071Z</time></trkpt><trkpt lat="42.2662586" lon="-7.5478055"><ele>1031.25</ele><time>2026-04-25T17:05:30.054Z</time></trkpt><trkpt lat="42.266363" lon="-7.5479421"><ele>1030.5</ele><time>2026-04-25T17:05:31.058Z</time></trkpt><trkpt lat="42.2664491" lon="-7.5480577"><ele>1029.75</ele><time>2026-04-25T17:05:32.061Z</time></trkpt><trkpt lat="42.2665236" lon="-7.5481628"><ele>1029.0</ele><time>2026-04-25T17:05:33.057Z</time></trkpt><trkpt lat="42.266601" lon="-7.5482767"><ele>1028.5</ele><time>2026-04-25T17:05:34.062Z</time></trkpt><trkpt lat="42.2666846" lon="-7.5483882"><ele>1028.0</ele><time>2026-04-25T17:05:35.066Z</time></trkpt><trkpt lat="42.266779" lon="-7.548511"><ele>1027.5</ele><time>2026-04-25T17:05:36.058Z</time></trkpt><trkpt lat="42.2668879" lon="-7.5486451"><ele>1027.0</ele><time>2026-04-25T17:05:37.062Z</time></trkpt><trkpt lat="42.2669962" lon="-7.5487668"><ele>1026.75</ele><time>2026-04-25T17:05:38.063Z</time></trkpt><trkpt lat="42.267109" lon="-7.5489024"><ele>1026.5</ele><time>2026-04-25T17:05:39.054Z</time></trkpt><trkpt lat="42.2672169" lon="-7.5490373"><ele>1026.25</ele><time>2026-04-25T17:05:40.066Z</time></trkpt><trkpt lat="42.2673213" lon="-7.549163"><ele>1026.0</ele><time>2026-04-25T17:05:41.067Z</time></trkpt><trkpt lat="42.267425" lon="-7.5492814"><ele>1025.2</ele><time>2026-04-25T17:05:42.054Z</time></trkpt><trkpt lat="42.2675215" lon="-7.549385"><ele>1024.3999999999999</ele><time>2026-04-25T17:05:43.062Z</time></trkpt><trkpt lat="42.2676028" lon="-7.54947"><ele>1023.6</ele><time>2026-04-25T17:05:44.055Z</time></trkpt><trkpt lat="42.2676723" lon="-7.5495425"><ele>1022.8</ele><time>2026-04-25T17:05:45.05Z</time></trkpt><trkpt lat="42.2677398" lon="-7.5496157"><ele>1022.0</ele><time>2026-04-25T17:05:46.049Z</time></trkpt><trkpt lat="42.2677901" lon="-7.5496731"><ele>1021.2</ele><time>2026-04-25T17:05:47.057Z</time></trkpt><trkpt lat="42.2678833" lon="-7.5497367"><ele>1020.4000000000001</ele><time>2026-04-25T17:05:49.073Z</time></trkpt><trkpt lat="42.2679762" lon="-7.5497551"><ele>1019.5999999999999</ele><time>2026-04-25T17:05:51.054Z</time></trkpt><trkpt lat="42.2680917" lon="-7.5497365"><ele>1018.8</ele><time>2026-04-25T17:05:53.069Z</time></trkpt><trkpt lat="42.2681655" lon="-7.5497175"><ele>1018.0</ele><time>2026-04-25T17:05:54.062Z</time></trkpt><trkpt lat="42.2682272" lon="-7.5496949"><ele>1017.4999999999999</ele><time>2026-04-25T17:05:55.069Z</time></trkpt><trkpt lat="42.2682933" lon="-7.5496715"><ele>1017.0</ele><time>2026-04-25T17:05:56.065Z</time></trkpt><trkpt lat="42.2683617" lon="-7.5496496"><ele>1016.5</ele><time>2026-04-25T17:05:57.063Z</time></trkpt><trkpt lat="42.2684597" lon="-7.5496553"><ele>1016.0</ele><time>2026-04-25T17:05:59.068Z</time></trkpt><trkpt lat="42.2685279" lon="-7.5497182"><ele>1015.4999999999999</ele><time>2026-04-25T17:06:01.058Z</time></trkpt><trkpt lat="42.2685704" lon="-7.5498317"><ele>1015.0</ele><time>2026-04-25T17:06:03.065Z</time></trkpt><trkpt lat="42.2685958" lon="-7.5499186"><ele>1015.0</ele><time>2026-04-25T17:06:04.054Z</time></trkpt><trkpt lat="42.2686248" lon="-7.5500044"><ele>1015.0</ele><time>2026-04-25T17:06:05.063Z</time></trkpt><trkpt lat="42.2686582" lon="-7.5500775"><ele>1015.0</ele><time>2026-04-25T17:06:06.058Z</time></trkpt><trkpt lat="42.2686903" lon="-7.5501828"><ele>1015.0</ele><time>2026-04-25T17:06:08.062Z</time></trkpt><trkpt lat="42.2686921" lon="-7.5503804"><ele>1015.0</ele><time>2026-04-25T17:06:10.059Z</time></trkpt><trkpt lat="42.2686793" lon="-7.5505094"><ele>1014.6666666666666</ele><time>2026-04-25T17:06:11.067Z</time></trkpt><trkpt lat="42.2686828" lon="-7.5506182"><ele>1014.3333333333333</ele><time>2026-04-25T17:06:12.056Z</time></trkpt><trkpt lat="42.2687091" lon="-7.550708"><ele>1014.0</ele><time>2026-04-25T17:06:13.057Z</time></trkpt><trkpt lat="42.2687491" lon="-7.5507766"><ele>1013.6666666666667</ele><time>2026-04-25T17:06:14.056Z</time></trkpt><trkpt lat="42.2688346" lon="-7.5509161"><ele>1013.3333333333334</ele><time>2026-04-25T17:06:16.048Z</time></trkpt><trkpt lat="42.2688825" lon="-7.5509961"><ele>1013.0</ele><time>2026-04-25T17:06:17.061Z</time></trkpt><trkpt lat="42.2689276" lon="-7.5510713"><ele>1012.5999999999999</ele><time>2026-04-25T17:06:18.057Z</time></trkpt><trkpt lat="42.2689813" lon="-7.551155"><ele>1012.1999999999999</ele><time>2026-04-25T17:06:19.056Z</time></trkpt><trkpt lat="42.26905" lon="-7.5512555"><ele>1011.8</ele><time>2026-04-25T17:06:20.063Z</time></trkpt><trkpt lat="42.2691316" lon="-7.5513765"><ele>1011.4</ele><time>2026-04-25T17:06:21.066Z</time></trkpt><trkpt lat="42.2692086" lon="-7.5514837"><ele>1011.0</ele><time>2026-04-25T17:06:22.058Z</time></trkpt><trkpt lat="42.2692962" lon="-7.5516026"><ele>1011.0</ele><time>2026-04-25T17:06:23.049Z</time></trkpt><trkpt lat="42.2693965" lon="-7.5517346"><ele>1011.0</ele><time>2026-04-25T17:06:24.053Z</time></trkpt><trkpt lat="42.2695054" lon="-7.5518806"><ele>1011.0</ele><time>2026-04-25T17:06:25.072Z</time></trkpt><trkpt lat="42.2696258" lon="-7.5520439"><ele>1010.6666666666667</ele><time>2026-04-25T17:06:26.053Z</time></trkpt><trkpt lat="42.2697449" lon="-7.5522129"><ele>1010.3333333333334</ele><time>2026-04-25T17:06:27.056Z</time></trkpt><trkpt lat="42.2698593" lon="-7.5523738"><ele>1010.0</ele><time>2026-04-25T17:06:28.061Z</time></trkpt><trkpt lat="42.2699769" lon="-7.5525403"><ele>1010.0</ele><time>2026-04-25T17:06:29.064Z</time></trkpt><trkpt lat="42.2700882" lon="-7.5526983"><ele>1010.0</ele><time>2026-04-25T17:06:30.067Z</time></trkpt><trkpt lat="42.2701913" lon="-7.5528414"><ele>1010.0</ele><time>2026-04-25T17:06:31.062Z</time></trkpt><trkpt lat="42.2702861" lon="-7.5529702"><ele>1010.0</ele><time>2026-04-25T17:06:32.065Z</time></trkpt><trkpt lat="42.270387" lon="-7.5531052"><ele>1010.25</ele><time>2026-04-25T17:06:33.058Z</time></trkpt><trkpt lat="42.2704931" lon="-7.5532442"><ele>1010.5</ele><time>2026-04-25T17:06:34.063Z</time></trkpt><trkpt lat="42.2705948" lon="-7.5533848"><ele>1010.75</ele><time>2026-04-25T17:06:35.053Z</time></trkpt><trkpt lat="42.2706889" lon="-7.5535029"><ele>1011.0</ele><time>2026-04-25T17:06:36.069Z</time></trkpt><trkpt lat="42.2707712" lon="-7.5536161"><ele>1011.0</ele><time>2026-04-25T17:06:37.062Z</time></trkpt><trkpt lat="42.270846" lon="-7.5536976"><ele>1010.9999999999999</ele><time>2026-04-25T17:06:38.057Z</time></trkpt><trkpt lat="42.2709194" lon="-7.5537811"><ele>1010.9999999999999</ele><time>2026-04-25T17:06:39.056Z</time></trkpt><trkpt lat="42.2710035" lon="-7.5538818"><ele>1011.0</ele><time>2026-04-25T17:06:40.061Z</time></trkpt><trkpt lat="42.2710793" lon="-7.5539862"><ele>1011.0</ele><time>2026-04-25T17:06:41.059Z</time></trkpt><trkpt lat="42.2711571" lon="-7.5540705"><ele>1010.0</ele><time>2026-04-25T17:06:42.058Z</time></trkpt><trkpt lat="42.2712266" lon="-7.5541607"><ele>1008.9999999999999</ele><time>2026-04-25T17:06:43.07Z</time></trkpt><trkpt lat="42.27129" lon="-7.5542524"><ele>1007.9999999999999</ele><time>2026-04-25T17:06:44.059Z</time></trkpt><trkpt lat="42.2713523" lon="-7.5543442"><ele>1007.0</ele><time>2026-04-25T17:06:45.062Z</time></trkpt><trkpt lat="42.2714271" lon="-7.554449"><ele>1006.0</ele><time>2026-04-25T17:06:46.053Z</time></trkpt><trkpt lat="42.2715057" lon="-7.5545586"><ele>1005.0</ele><time>2026-04-25T17:06:47.056Z</time></trkpt><trkpt lat="42.2715852" lon="-7.5546536"><ele>1003.9999999999999</ele><time>2026-04-25T17:06:48.058Z</time></trkpt><trkpt lat="42.2716666" lon="-7.554755"><ele>1002.9999999999999</ele><time>2026-04-25T17:06:49.066Z</time></trkpt><trkpt lat="42.2717438" lon="-7.5548579"><ele>1002.0</ele><time>2026-04-25T17:06:50.054Z</time></trkpt><trkpt lat="42.2718165" lon="-7.5549563"><ele>1001.0</ele><time>2026-04-25T17:06:51.057Z</time></trkpt><trkpt lat="42.2718904" lon="-7.5550516"><ele>1001.0000000000001</ele><time>2026-04-25T17:06:52.054Z</time></trkpt><trkpt lat="42.271955" lon="-7.5551323"><ele>1001.0</ele><time>2026-04-25T17:06:53.054Z</time></trkpt><trkpt lat="42.272013" lon="-7.5551991"><ele>1001.0</ele><time>2026-04-25T17:06:54.064Z</time></trkpt><trkpt lat="42.2720652" lon="-7.555263"><ele>1001.0</ele><time>2026-04-25T17:06:55.057Z</time></trkpt><trkpt lat="42.2721071" lon="-7.5553435"><ele>1001.0000000000001</ele><time>2026-04-25T17:06:56.058Z</time></trkpt><trkpt lat="42.2721443" lon="-7.5554228"><ele>1001.0</ele><time>2026-04-25T17:06:57.063Z</time></trkpt><trkpt lat="42.2721849" lon="-7.5555332"><ele>1000.3333333333334</ele><time>2026-04-25T17:06:59.066Z</time></trkpt><trkpt lat="42.272225" lon="-7.555642"><ele>999.6666666666667</ele><time>2026-04-25T17:07:01.071Z</time></trkpt><trkpt lat="42.2722555" lon="-7.5557195"><ele>999.0</ele><time>2026-04-25T17:07:02.056Z</time></trkpt><trkpt lat="42.2722846" lon="-7.55583"><ele>998.3333333333333</ele><time>2026-04-25T17:07:03.065Z</time></trkpt><trkpt lat="42.2722985" lon="-7.5559332"><ele>997.6666666666666</ele><time>2026-04-25T17:07:04.057Z</time></trkpt><trkpt lat="42.2723069" lon="-7.5560511"><ele>997.0</ele><time>2026-04-25T17:07:05.062Z</time></trkpt><trkpt lat="42.2723201" lon="-7.556166"><ele>996.2857142857142</ele><time>2026-04-25T17:07:06.059Z</time></trkpt><trkpt lat="42.2723299" lon="-7.5562661"><ele>995.5714285714286</ele><time>2026-04-25T17:07:07.053Z</time></trkpt><trkpt lat="42.2723334" lon="-7.5563547"><ele>994.8571428571429</ele><time>2026-04-25T17:07:08.052Z</time></trkpt><trkpt lat="42.2723358" lon="-7.5564446"><ele>994.1428571428571</ele><time>2026-04-25T17:07:09.056Z</time></trkpt><trkpt lat="42.2723562" lon="-7.5565385"><ele>993.4285714285716</ele><time>2026-04-25T17:07:10.06Z</time></trkpt><trkpt lat="42.2723852" lon="-7.5566361"><ele>992.7142857142858</ele><time>2026-04-25T17:07:12.057Z</time></trkpt><trkpt lat="42.2724071" lon="-7.5567181"><ele>992.0</ele><time>2026-04-25T17:07:14.069Z</time></trkpt><trkpt lat="42.2724249" lon="-7.5568427"><ele>992.0</ele><time>2026-04-25T17:07:17.051Z</time></trkpt><trkpt lat="42.2724558" lon="-7.5570015"><ele>992.0</ele><time>2026-04-25T17:07:19.057Z</time></trkpt><trkpt lat="42.2724829" lon="-7.5571478"><ele>992.0</ele><time>2026-04-25T17:07:21.063Z</time></trkpt><trkpt lat="42.2724469" lon="-7.5572695"><ele>992.0</ele><time>2026-04-25T17:07:23.066Z</time></trkpt><trkpt lat="42.2723753" lon="-7.5574131"><ele>991.2</ele><time>2026-04-25T17:07:25.07Z</time></trkpt><trkpt lat="42.2723324" lon="-7.5575023"><ele>990.4000000000001</ele><time>2026-04-25T17:07:26.051Z</time></trkpt><trkpt lat="42.272284" lon="-7.5576094"><ele>989.5999999999999</ele><time>2026-04-25T17:07:27.058Z</time></trkpt><trkpt lat="42.2722164" lon="-7.5577363"><ele>988.8</ele><time>2026-04-25T17:07:28.053Z</time></trkpt><trkpt lat="42.2721405" lon="-7.5578775"><ele>988.0</ele><time>2026-04-25T17:07:29.062Z</time></trkpt><trkpt lat="42.2720656" lon="-7.5580077"><ele>987.8</ele><time>2026-04-25T17:07:30.051Z</time></trkpt><trkpt lat="42.2720038" lon="-7.5581356"><ele>987.5999999999999</ele><time>2026-04-25T17:07:31.066Z</time></trkpt><trkpt lat="42.2719654" lon="-7.5582526"><ele>987.4000000000001</ele><time>2026-04-25T17:07:32.054Z</time></trkpt><trkpt lat="42.2719371" lon="-7.5583669"><ele>987.2</ele><time>2026-04-25T17:07:33.074Z</time></trkpt><trkpt lat="42.2719104" lon="-7.5584706"><ele>987.0</ele><time>2026-04-25T17:07:34.061Z</time></trkpt><trkpt lat="42.271879" lon="-7.5585628"><ele>987.0</ele><time>2026-04-25T17:07:35.053Z</time></trkpt><trkpt lat="42.2718434" lon="-7.5586612"><ele>987.0</ele><time>2026-04-25T17:07:36.051Z</time></trkpt><trkpt lat="42.2718095" lon="-7.5587559"><ele>987.0</ele><time>2026-04-25T17:07:37.062Z</time></trkpt><trkpt lat="42.271774" lon="-7.5588535"><ele>987.0</ele><time>2026-04-25T17:07:38.056Z</time></trkpt><trkpt lat="42.2717426" lon="-7.5589743"><ele>987.0</ele><time>2026-04-25T17:07:39.056Z</time></trkpt><trkpt lat="42.2717388" lon="-7.5591292"><ele>987.0</ele><time>2026-04-25T17:07:40.055Z</time></trkpt><trkpt lat="42.2717498" lon="-7.5592793"><ele>986.0</ele><time>2026-04-25T17:07:41.058Z</time></trkpt><trkpt lat="42.2717635" lon="-7.5594224"><ele>985.0</ele><time>2026-04-25T17:07:42.06Z</time></trkpt><trkpt lat="42.2717953" lon="-7.5595664"><ele>984.0</ele><time>2026-04-25T17:07:43.067Z</time></trkpt><trkpt lat="42.2718316" lon="-7.5597079"><ele>983.0</ele><time>2026-04-25T17:07:44.06Z</time></trkpt><trkpt lat="42.2718653" lon="-7.559838"><ele>982.0</ele><time>2026-04-25T17:07:45.057Z</time></trkpt><trkpt lat="42.271916" lon="-7.5599755"><ele>980.2</ele><time>2026-04-25T17:07:46.055Z</time></trkpt><trkpt lat="42.2719647" lon="-7.5601264"><ele>978.4000000000001</ele><time>2026-04-25T17:07:47.066Z</time></trkpt><trkpt lat="42.2720165" lon="-7.5602774"><ele>976.5999999999999</ele><time>2026-04-25T17:07:48.053Z</time></trkpt><trkpt lat="42.2720472" lon="-7.5604033"><ele>974.8</ele><time>2026-04-25T17:07:49.063Z</time></trkpt><trkpt lat="42.2720734" lon="-7.5605142"><ele>973.0</ele><time>2026-04-25T17:07:50.062Z</time></trkpt><trkpt lat="42.2720908" lon="-7.5606078"><ele>972.4999999999999</ele><time>2026-04-25T17:07:51.053Z</time></trkpt><trkpt lat="42.2720821" lon="-7.5607698"><ele>972.0</ele><time>2026-04-25T17:07:53.062Z</time></trkpt><trkpt lat="42.2720735" lon="-7.5608771"><ele>971.5</ele><time>2026-04-25T17:07:54.051Z</time></trkpt><trkpt lat="42.2720596" lon="-7.5610004"><ele>971.0</ele><time>2026-04-25T17:07:55.067Z</time></trkpt><trkpt lat="42.2720365" lon="-7.561098"><ele>970.4999999999999</ele><time>2026-04-25T17:07:56.056Z</time></trkpt><trkpt lat="42.2720031" lon="-7.5611981"><ele>970.0</ele><time>2026-04-25T17:07:57.06Z</time></trkpt><trkpt lat="42.2719674" lon="-7.5612984"><ele>969.75</ele><time>2026-04-25T17:07:58.065Z</time></trkpt><trkpt lat="42.2719328" lon="-7.5614129"><ele>969.5</ele><time>2026-04-25T17:07:59.065Z</time></trkpt><trkpt lat="42.2719087" lon="-7.5615438"><ele>969.25</ele><time>2026-04-25T17:08:00.057Z</time></trkpt><trkpt lat="42.2718958" lon="-7.5617158"><ele>969.0</ele><time>2026-04-25T17:08:01.05Z</time></trkpt><trkpt lat="42.2718811" lon="-7.5619096"><ele>970.3333333333333</ele><time>2026-04-25T17:08:02.054Z</time></trkpt><trkpt lat="42.2718651" lon="-7.5621223"><ele>971.6666666666666</ele><time>2026-04-25T17:08:03.055Z</time></trkpt><trkpt lat="42.271848" lon="-7.5623551"><ele>973.0</ele><time>2026-04-25T17:08:04.058Z</time></trkpt><trkpt lat="42.2718277" lon="-7.5626"><ele>973.0</ele><time>2026-04-25T17:08:05.056Z</time></trkpt><trkpt lat="42.2718123" lon="-7.5628212"><ele>973.0</ele><time>2026-04-25T17:08:06.054Z</time></trkpt><trkpt lat="42.2718012" lon="-7.5630185"><ele>973.0</ele><time>2026-04-25T17:08:07.062Z</time></trkpt><trkpt lat="42.2717924" lon="-7.5631719"><ele>973.0</ele><time>2026-04-25T17:08:08.054Z</time></trkpt><trkpt lat="42.271788" lon="-7.5633148"><ele>973.75</ele><time>2026-04-25T17:08:09.047Z</time></trkpt><trkpt lat="42.2717815" lon="-7.5634719"><ele>974.5</ele><time>2026-04-25T17:08:10.061Z</time></trkpt><trkpt lat="42.2717732" lon="-7.5636631"><ele>975.25</ele><time>2026-04-25T17:08:11.057Z</time></trkpt><trkpt lat="42.2717626" lon="-7.5638712"><ele>976.0</ele><time>2026-04-25T17:08:12.064Z</time></trkpt><trkpt lat="42.2717467" lon="-7.5640878"><ele>976.6666666666666</ele><time>2026-04-25T17:08:13.055Z</time></trkpt><trkpt lat="42.2717248" lon="-7.5643208"><ele>977.3333333333333</ele><time>2026-04-25T17:08:14.059Z</time></trkpt><trkpt lat="42.2717075" lon="-7.5645384"><ele>978.0</ele><time>2026-04-25T17:08:15.053Z</time></trkpt><trkpt lat="42.2716938" lon="-7.5647444"><ele>978.5</ele><time>2026-04-25T17:08:16.058Z</time></trkpt><trkpt lat="42.2716875" lon="-7.5649341"><ele>979.0</ele><time>2026-04-25T17:08:17.062Z</time></trkpt><trkpt lat="42.2716889" lon="-7.5651071"><ele>979.5</ele><time>2026-04-25T17:08:18.061Z</time></trkpt><trkpt lat="42.2716976" lon="-7.5652624"><ele>980.0</ele><time>2026-04-25T17:08:19.056Z</time></trkpt><trkpt lat="42.271711" lon="-7.5653846"><ele>980.0000000000001</ele><time>2026-04-25T17:08:20.06Z</time></trkpt><trkpt lat="42.2717238" lon="-7.5654865"><ele>980.0</ele><time>2026-04-25T17:08:21.057Z</time></trkpt><trkpt lat="42.2717392" lon="-7.5655806"><ele>980.0</ele><time>2026-04-25T17:08:22.054Z</time></trkpt><trkpt lat="42.2717543" lon="-7.5656755"><ele>980.0</ele><time>2026-04-25T17:08:23.058Z</time></trkpt><trkpt lat="42.2717678" lon="-7.5657754"><ele>980.0000000000001</ele><time>2026-04-25T17:08:24.053Z</time></trkpt><trkpt lat="42.2717774" lon="-7.5658831"><ele>980.0</ele><time>2026-04-25T17:08:25.068Z</time></trkpt><trkpt lat="42.2717864" lon="-7.5659906"><ele>980.0000000000001</ele><time>2026-04-25T17:08:26.062Z</time></trkpt><trkpt lat="42.2717959" lon="-7.5660889"><ele>980.0</ele><time>2026-04-25T17:08:27.058Z</time></trkpt><trkpt lat="42.2718064" lon="-7.5661863"><ele>980.0</ele><time>2026-04-25T17:08:28.046Z</time></trkpt><trkpt lat="42.271822" lon="-7.5662932"><ele>980.0</ele><time>2026-04-25T17:08:29.053Z</time></trkpt><trkpt lat="42.2718438" lon="-7.5664119"><ele>980.0000000000001</ele><time>2026-04-25T17:08:30.059Z</time></trkpt><trkpt lat="42.2718568" lon="-7.5665455"><ele>980.0</ele><time>2026-04-25T17:08:31.064Z</time></trkpt><trkpt lat="42.2718807" lon="-7.5666611"><ele>979.8333333333334</ele><time>2026-04-25T17:08:32.053Z</time></trkpt><trkpt lat="42.2718827" lon="-7.566773"><ele>979.6666666666667</ele><time>2026-04-25T17:08:33.061Z</time></trkpt><trkpt lat="42.2718807" lon="-7.5668835"><ele>979.5</ele><time>2026-04-25T17:08:34.06Z</time></trkpt><trkpt lat="42.271889" lon="-7.5670064"><ele>979.3333333333333</ele><time>2026-04-25T17:08:35.07Z</time></trkpt><trkpt lat="42.2718949" lon="-7.5671197"><ele>979.1666666666666</ele><time>2026-04-25T17:08:36.063Z</time></trkpt><trkpt lat="42.2719066" lon="-7.5672351"><ele>979.0</ele><time>2026-04-25T17:08:37.056Z</time></trkpt><trkpt lat="42.2719201" lon="-7.5673693"><ele>979.0</ele><time>2026-04-25T17:08:38.059Z</time></trkpt><trkpt lat="42.2719347" lon="-7.5675011"><ele>979.0000000000001</ele><time>2026-04-25T17:08:39.056Z</time></trkpt><trkpt lat="42.2719472" lon="-7.5676302"><ele>979.0000000000001</ele><time>2026-04-25T17:08:40.056Z</time></trkpt><trkpt lat="42.2719659" lon="-7.5677428"><ele>979.0</ele><time>2026-04-25T17:08:41.061Z</time></trkpt><trkpt lat="42.2719999" lon="-7.5678415"><ele>979.0</ele><time>2026-04-25T17:08:42.055Z</time></trkpt><trkpt lat="42.2720722" lon="-7.5679286"><ele>979.0</ele><time>2026-04-25T17:08:43.058Z</time></trkpt><trkpt lat="42.2721447" lon="-7.5680103"><ele>979.0000000000001</ele><time>2026-04-25T17:08:44.06Z</time></trkpt><trkpt lat="42.2722235" lon="-7.5680879"><ele>979.0000000000001</ele><time>2026-04-25T17:08:45.054Z</time></trkpt><trkpt lat="42.2723188" lon="-7.5681695"><ele>979.0</ele><time>2026-04-25T17:08:46.055Z</time></trkpt><trkpt lat="42.272414" lon="-7.5682532"><ele>979.0</ele><time>2026-04-25T17:08:47.049Z</time></trkpt><trkpt lat="42.2725148" lon="-7.5683442"><ele>978.6666666666666</ele><time>2026-04-25T17:08:48.065Z</time></trkpt><trkpt lat="42.2726221" lon="-7.5684522"><ele>978.3333333333333</ele><time>2026-04-25T17:08:49.057Z</time></trkpt><trkpt lat="42.2727372" lon="-7.56858"><ele>978.0</ele><time>2026-04-25T17:08:50.053Z</time></trkpt><trkpt lat="42.2728545" lon="-7.5687465"><ele>978.6666666666667</ele><time>2026-04-25T17:08:51.064Z</time></trkpt><trkpt lat="42.2729653" lon="-7.5689094"><ele>979.3333333333334</ele><time>2026-04-25T17:08:52.061Z</time></trkpt><trkpt lat="42.2730687" lon="-7.5690608"><ele>980.0</ele><time>2026-04-25T17:08:53.061Z</time></trkpt><trkpt lat="42.2731762" lon="-7.569204"><ele>980.0</ele><time>2026-04-25T17:08:54.089Z</time></trkpt><trkpt lat="42.2732974" lon="-7.5693331"><ele>980.0</ele><time>2026-04-25T17:08:55.06Z</time></trkpt><trkpt lat="42.2734298" lon="-7.5694533"><ele>980.0</ele><time>2026-04-25T17:08:56.059Z</time></trkpt><trkpt lat="42.2735547" lon="-7.5695671"><ele>980.0</ele><time>2026-04-25T17:08:57.065Z</time></trkpt><trkpt lat="42.2736669" lon="-7.5696738"><ele>980.0</ele><time>2026-04-25T17:08:58.05Z</time></trkpt><trkpt lat="42.2737677" lon="-7.5697707"><ele>980.0</ele><time>2026-04-25T17:08:59.057Z</time></trkpt><trkpt lat="42.2738659" lon="-7.5698646"><ele>980.0</ele><time>2026-04-25T17:09:00.05Z</time></trkpt><trkpt lat="42.2739737" lon="-7.5699678"><ele>980.3333333333334</ele><time>2026-04-25T17:09:01.053Z</time></trkpt><trkpt lat="42.274093" lon="-7.5700729"><ele>980.6666666666667</ele><time>2026-04-25T17:09:02.055Z</time></trkpt><trkpt lat="42.2742307" lon="-7.570169"><ele>981.0</ele><time>2026-04-25T17:09:03.057Z</time></trkpt><trkpt lat="42.2743808" lon="-7.5702606"><ele>981.0</ele><time>2026-04-25T17:09:04.065Z</time></trkpt><trkpt lat="42.274511" lon="-7.5703463"><ele>981.0</ele><time>2026-04-25T17:09:05.062Z</time></trkpt><trkpt lat="42.274654" lon="-7.5704495"><ele>981.0</ele><time>2026-04-25T17:09:06.055Z</time></trkpt><trkpt lat="42.274802" lon="-7.5705547"><ele>980.5</ele><time>2026-04-25T17:09:07.058Z</time></trkpt><trkpt lat="42.2749147" lon="-7.5706652"><ele>980.0</ele><time>2026-04-25T17:09:08.061Z</time></trkpt><trkpt lat="42.2750139" lon="-7.5707883"><ele>979.5</ele><time>2026-04-25T17:09:09.065Z</time></trkpt><trkpt lat="42.2751081" lon="-7.5709098"><ele>979.0</ele><time>2026-04-25T17:09:10.059Z</time></trkpt><trkpt lat="42.2752037" lon="-7.5710056"><ele>979.0</ele><time>2026-04-25T17:09:11.061Z</time></trkpt><trkpt lat="42.2753115" lon="-7.5710853"><ele>979.0</ele><time>2026-04-25T17:09:12.062Z</time></trkpt><trkpt lat="42.2754281" lon="-7.5711627"><ele>979.0</ele><time>2026-04-25T17:09:13.062Z</time></trkpt><trkpt lat="42.275573" lon="-7.5712495"><ele>979.0</ele><time>2026-04-25T17:09:14.07Z</time></trkpt><trkpt lat="42.2757164" lon="-7.571349"><ele>978.6666666666666</ele><time>2026-04-25T17:09:15.07Z</time></trkpt><trkpt lat="42.2758672" lon="-7.5714323"><ele>978.3333333333333</ele><time>2026-04-25T17:09:16.057Z</time></trkpt><trkpt lat="42.2760246" lon="-7.5715202"><ele>978.0</ele><time>2026-04-25T17:09:17.065Z</time></trkpt><trkpt lat="42.2761733" lon="-7.5715944"><ele>978.0</ele><time>2026-04-25T17:09:18.062Z</time></trkpt><trkpt lat="42.2763228" lon="-7.5716603"><ele>978.0</ele><time>2026-04-25T17:09:19.061Z</time></trkpt><trkpt lat="42.2764745" lon="-7.5717203"><ele>978.0</ele><time>2026-04-25T17:09:20.05Z</time></trkpt><trkpt lat="42.2765965" lon="-7.5717792"><ele>978.0</ele><time>2026-04-25T17:09:21.055Z</time></trkpt><trkpt lat="42.27671" lon="-7.5718215"><ele>977.8</ele><time>2026-04-25T17:09:22.06Z</time></trkpt><trkpt lat="42.2768055" lon="-7.5718564"><ele>977.5999999999999</ele><time>2026-04-25T17:09:23.057Z</time></trkpt><trkpt lat="42.2769139" lon="-7.5718915"><ele>977.4000000000001</ele><time>2026-04-25T17:09:24.05Z</time></trkpt><trkpt lat="42.2770287" lon="-7.5719232"><ele>977.2</ele><time>2026-04-25T17:09:25.05Z</time></trkpt><trkpt lat="42.277146" lon="-7.5719644"><ele>977.0</ele><time>2026-04-25T17:09:26.053Z</time></trkpt><trkpt lat="42.2772491" lon="-7.5719918"><ele>976.6666666666667</ele><time>2026-04-25T17:09:27.056Z</time></trkpt><trkpt lat="42.2773831" lon="-7.572024"><ele>976.3333333333333</ele><time>2026-04-25T17:09:28.065Z</time></trkpt><trkpt lat="42.2775404" lon="-7.572064"><ele>976.0</ele><time>2026-04-25T17:09:29.049Z</time></trkpt><trkpt lat="42.2777184" lon="-7.5721092"><ele>976.0</ele><time>2026-04-25T17:09:30.053Z</time></trkpt><trkpt lat="42.2779024" lon="-7.5721607"><ele>976.0</ele><time>2026-04-25T17:09:31.055Z</time></trkpt><trkpt lat="42.278084" lon="-7.5722231"><ele>976.0</ele><time>2026-04-25T17:09:32.063Z</time></trkpt><trkpt lat="42.2782729" lon="-7.5722862"><ele>975.6666666666666</ele><time>2026-04-25T17:09:33.054Z</time></trkpt><trkpt lat="42.2784387" lon="-7.5723557"><ele>975.3333333333333</ele><time>2026-04-25T17:09:34.063Z</time></trkpt><trkpt lat="42.278578" lon="-7.5724288"><ele>975.0</ele><time>2026-04-25T17:09:35.064Z</time></trkpt><trkpt lat="42.278704" lon="-7.5725207"><ele>975.0</ele><time>2026-04-25T17:09:36.062Z</time></trkpt><trkpt lat="42.2788218" lon="-7.5726456"><ele>975.0</ele><time>2026-04-25T17:09:37.061Z</time></trkpt><trkpt lat="42.2789447" lon="-7.5728007"><ele>975.0</ele><time>2026-04-25T17:09:38.058Z</time></trkpt><trkpt lat="42.2790653" lon="-7.5729541"><ele>974.0</ele><time>2026-04-25T17:09:39.057Z</time></trkpt><trkpt lat="42.2792095" lon="-7.573135"><ele>973.0</ele><time>2026-04-25T17:09:40.058Z</time></trkpt><trkpt lat="42.2793462" lon="-7.5733379"><ele>972.0</ele><time>2026-04-25T17:09:41.057Z</time></trkpt><trkpt lat="42.2794775" lon="-7.5735243"><ele>972.0</ele><time>2026-04-25T17:09:42.058Z</time></trkpt><trkpt lat="42.2796081" lon="-7.573693"><ele>972.0</ele><time>2026-04-25T17:09:43.053Z</time></trkpt><trkpt lat="42.2797499" lon="-7.5738721"><ele>972.0</ele><time>2026-04-25T17:09:44.056Z</time></trkpt><trkpt lat="42.279887" lon="-7.5740411"><ele>971.0</ele><time>2026-04-25T17:09:45.048Z</time></trkpt><trkpt lat="42.2800075" lon="-7.5741892"><ele>970.0</ele><time>2026-04-25T17:09:46.053Z</time></trkpt><trkpt lat="42.2801156" lon="-7.5743229"><ele>969.0</ele><time>2026-04-25T17:09:47.061Z</time></trkpt><trkpt lat="42.2802096" lon="-7.5744321"><ele>968.0</ele><time>2026-04-25T17:09:48.058Z</time></trkpt><trkpt lat="42.2803022" lon="-7.5745116"><ele>967.75</ele><time>2026-04-25T17:09:49.065Z</time></trkpt><trkpt lat="42.2804022" lon="-7.5745577"><ele>967.5</ele><time>2026-04-25T17:09:50.052Z</time></trkpt><trkpt lat="42.2805214" lon="-7.5745798"><ele>967.25</ele><time>2026-04-25T17:09:51.063Z</time></trkpt><trkpt lat="42.2806385" lon="-7.5745838"><ele>967.0</ele><time>2026-04-25T17:09:52.054Z</time></trkpt><trkpt lat="42.2807549" lon="-7.5745808"><ele>966.6</ele><time>2026-04-25T17:09:53.053Z</time></trkpt><trkpt lat="42.2808784" lon="-7.5745719"><ele>966.2</ele><time>2026-04-25T17:09:54.056Z</time></trkpt><trkpt lat="42.2809937" lon="-7.5745593"><ele>965.8</ele><time>2026-04-25T17:09:55.053Z</time></trkpt><trkpt lat="42.2810994" lon="-7.5745494"><ele>965.4</ele><time>2026-04-25T17:09:56.057Z</time></trkpt><trkpt lat="42.2811962" lon="-7.5745457"><ele>965.0</ele><time>2026-04-25T17:09:57.056Z</time></trkpt><trkpt lat="42.2812743" lon="-7.574544"><ele>965.0</ele><time>2026-04-25T17:09:58.053Z</time></trkpt><trkpt lat="42.2813622" lon="-7.5745391"><ele>965.0</ele><time>2026-04-25T17:10:00.061Z</time></trkpt><trkpt lat="42.2814628" lon="-7.5745226"><ele>965.0</ele><time>2026-04-25T17:10:28.067Z</time></trkpt><trkpt lat="42.2815391" lon="-7.5745247"><ele>965.0</ele><time>2026-04-25T17:10:29.049Z</time></trkpt><trkpt lat="42.2816336" lon="-7.5745458"><ele>965.0</ele><time>2026-04-25T17:10:30.06Z</time></trkpt><trkpt lat="42.2817501" lon="-7.5745885"><ele>964.6666666666667</ele><time>2026-04-25T17:10:31.053Z</time></trkpt><trkpt lat="42.2818863" lon="-7.5746469"><ele>964.3333333333333</ele><time>2026-04-25T17:10:32.065Z</time></trkpt><trkpt lat="42.2820331" lon="-7.5747142"><ele>964.0</ele><time>2026-04-25T17:10:33.067Z</time></trkpt><trkpt lat="42.2821756" lon="-7.5747844"><ele>963.25</ele><time>2026-04-25T17:10:34.057Z</time></trkpt><trkpt lat="42.2823091" lon="-7.5748443"><ele>962.5</ele><time>2026-04-25T17:10:35.049Z</time></trkpt><trkpt lat="42.2824443" lon="-7.5748894"><ele>961.75</ele><time>2026-04-25T17:10:36.052Z</time></trkpt><trkpt lat="42.2825899" lon="-7.5749226"><ele>961.0</ele><time>2026-04-25T17:10:37.057Z</time></trkpt><trkpt lat="42.2827288" lon="-7.5749613"><ele>961.0</ele><time>2026-04-25T17:10:38.054Z</time></trkpt><trkpt lat="42.2828653" lon="-7.5750065"><ele>961.0</ele><time>2026-04-25T17:10:39.053Z</time></trkpt><trkpt lat="42.2829789" lon="-7.5750487"><ele>961.0</ele><time>2026-04-25T17:10:40.055Z</time></trkpt><trkpt lat="42.2830858" lon="-7.5750729"><ele>961.0</ele><time>2026-04-25T17:10:41.052Z</time></trkpt><trkpt lat="42.2831891" lon="-7.575084"><ele>960.25</ele><time>2026-04-25T17:10:42.06Z</time></trkpt><trkpt lat="42.2833039" lon="-7.5750687"><ele>959.5</ele><time>2026-04-25T17:10:43.049Z</time></trkpt><trkpt lat="42.2834193" lon="-7.5750502"><ele>958.75</ele><time>2026-04-25T17:10:44.05Z</time></trkpt><trkpt lat="42.283533" lon="-7.5750319"><ele>958.0</ele><time>2026-04-25T17:10:45.058Z</time></trkpt><trkpt lat="42.28366" lon="-7.575016"><ele>958.0</ele><time>2026-04-25T17:10:46.051Z</time></trkpt><trkpt lat="42.2837942" lon="-7.574997"><ele>958.0</ele><time>2026-04-25T17:10:47.053Z</time></trkpt><trkpt lat="42.283931" lon="-7.5749655"><ele>958.0</ele><time>2026-04-25T17:10:48.06Z</time></trkpt><trkpt lat="42.2840653" lon="-7.5749355"><ele>958.0</ele><time>2026-04-25T17:10:49.06Z</time></trkpt><trkpt lat="42.2841935" lon="-7.5749032"><ele>958.0</ele><time>2026-04-25T17:10:50.06Z</time></trkpt><trkpt lat="42.2843139" lon="-7.5748783"><ele>958.0</ele><time>2026-04-25T17:10:51.065Z</time></trkpt><trkpt lat="42.284416" lon="-7.5748576"><ele>958.0</ele><time>2026-04-25T17:10:52.055Z</time></trkpt><trkpt lat="42.2844906" lon="-7.5748239"><ele>958.0</ele><time>2026-04-25T17:10:53.055Z</time></trkpt><trkpt lat="42.2845569" lon="-7.5747473"><ele>958.0</ele><time>2026-04-25T17:10:54.051Z</time></trkpt><trkpt lat="42.2846214" lon="-7.5746503"><ele>957.9999999999999</ele><time>2026-04-25T17:10:55.056Z</time></trkpt><trkpt lat="42.2846943" lon="-7.5745744"><ele>958.0</ele><time>2026-04-25T17:10:56.058Z</time></trkpt><trkpt lat="42.2847621" lon="-7.5745103"><ele>958.0</ele><time>2026-04-25T17:10:57.053Z</time></trkpt><trkpt lat="42.2848327" lon="-7.5744838"><ele>958.0</ele><time>2026-04-25T17:10:58.05Z</time></trkpt><trkpt lat="42.2849223" lon="-7.5744549"><ele>957.9999999999999</ele><time>2026-04-25T17:11:59.049Z</time></trkpt><trkpt lat="42.2849983" lon="-7.5744184"><ele>958.0</ele><time>2026-04-25T17:12:00.062Z</time></trkpt><trkpt lat="42.2851061" lon="-7.5743678"><ele>959.0</ele><time>2026-04-25T17:12:01.053Z</time></trkpt><trkpt lat="42.2852494" lon="-7.5743082"><ele>960.0</ele><time>2026-04-25T17:12:02.057Z</time></trkpt><trkpt lat="42.2854184" lon="-7.5742507"><ele>961.0</ele><time>2026-04-25T17:12:03.064Z</time></trkpt><trkpt lat="42.2855873" lon="-7.5742094"><ele>961.3333333333333</ele><time>2026-04-25T17:12:04.053Z</time></trkpt><trkpt lat="42.2857391" lon="-7.5741923"><ele>961.6666666666667</ele><time>2026-04-25T17:12:05.053Z</time></trkpt><trkpt lat="42.2858852" lon="-7.5742054"><ele>962.0</ele><time>2026-04-25T17:12:06.055Z</time></trkpt><trkpt lat="42.2860436" lon="-7.5742405"><ele>962.0</ele><time>2026-04-25T17:12:07.051Z</time></trkpt><trkpt lat="42.2862129" lon="-7.5743299"><ele>962.0</ele><time>2026-04-25T17:12:08.054Z</time></trkpt><trkpt lat="42.2863961" lon="-7.5744383"><ele>962.0</ele><time>2026-04-25T17:12:09.073Z</time></trkpt><trkpt lat="42.2865568" lon="-7.5745442"><ele>962.0</ele><time>2026-04-25T17:12:10.057Z</time></trkpt><trkpt lat="42.2867041" lon="-7.5746496"><ele>962.0</ele><time>2026-04-25T17:12:11.053Z</time></trkpt><trkpt lat="42.286846" lon="-7.5747471"><ele>962.0</ele><time>2026-04-25T17:12:12.057Z</time></trkpt><trkpt lat="42.2869849" lon="-7.574838"><ele>962.0</ele><time>2026-04-25T17:12:13.059Z</time></trkpt><trkpt lat="42.2871436" lon="-7.5749041"><ele>962.0</ele><time>2026-04-25T17:12:14.058Z</time></trkpt><trkpt lat="42.2873026" lon="-7.5749629"><ele>962.0</ele><time>2026-04-25T17:12:15.057Z</time></trkpt><trkpt lat="42.2874773" lon="-7.5750339"><ele>961.3333333333334</ele><time>2026-04-25T17:12:16.055Z</time></trkpt><trkpt lat="42.2876524" lon="-7.5751139"><ele>960.6666666666667</ele><time>2026-04-25T17:12:17.053Z</time></trkpt><trkpt lat="42.2878119" lon="-7.5751897"><ele>960.0</ele><time>2026-04-25T17:12:18.06Z</time></trkpt><trkpt lat="42.2879559" lon="-7.5752593"><ele>960.0</ele><time>2026-04-25T17:12:19.049Z</time></trkpt><trkpt lat="42.2880862" lon="-7.5753252"><ele>960.0</ele><time>2026-04-25T17:12:20.051Z</time></trkpt><trkpt lat="42.2882107" lon="-7.5754012"><ele>960.0</ele><time>2026-04-25T17:12:21.05Z</time></trkpt><trkpt lat="42.2883344" lon="-7.575488"><ele>960.0</ele><time>2026-04-25T17:12:22.05Z</time></trkpt><trkpt lat="42.288463" lon="-7.5755878"><ele>961.25</ele><time>2026-04-25T17:12:23.054Z</time></trkpt><trkpt lat="42.2886031" lon="-7.5756977"><ele>962.5</ele><time>2026-04-25T17:12:24.055Z</time></trkpt><trkpt lat="42.2887297" lon="-7.5757974"><ele>963.75</ele><time>2026-04-25T17:12:25.054Z</time></trkpt><trkpt lat="42.2888384" lon="-7.5758781"><ele>965.0</ele><time>2026-04-25T17:12:26.049Z</time></trkpt><trkpt lat="42.28894" lon="-7.5759471"><ele>965.4</ele><time>2026-04-25T17:12:27.049Z</time></trkpt><trkpt lat="42.2890288" lon="-7.5760186"><ele>965.8</ele><time>2026-04-25T17:12:28.077Z</time></trkpt><trkpt lat="42.2891123" lon="-7.5760863"><ele>966.2</ele><time>2026-04-25T17:12:29.061Z</time></trkpt><trkpt lat="42.2891933" lon="-7.5761359"><ele>966.6</ele><time>2026-04-25T17:12:30.062Z</time></trkpt><trkpt lat="42.2892908" lon="-7.5761921"><ele>967.0</ele><time>2026-04-25T17:12:31.061Z</time></trkpt><trkpt lat="42.2893893" lon="-7.5762453"><ele>967.2</ele><time>2026-04-25T17:12:32.064Z</time></trkpt><trkpt lat="42.2894838" lon="-7.576293"><ele>967.4000000000001</ele><time>2026-04-25T17:12:33.061Z</time></trkpt><trkpt lat="42.289573" lon="-7.5763295"><ele>967.5999999999999</ele><time>2026-04-25T17:12:34.064Z</time></trkpt><trkpt lat="42.2896421" lon="-7.5763494"><ele>967.8</ele><time>2026-04-25T17:12:35.057Z</time></trkpt><trkpt lat="42.2897829" lon="-7.5764166"><ele>968.0</ele><time>2026-04-25T17:13:00.058Z</time></trkpt><trkpt lat="42.2898542" lon="-7.5764374"><ele>968.0</ele><time>2026-04-25T17:13:01.057Z</time></trkpt><trkpt lat="42.2899607" lon="-7.5764501"><ele>968.0</ele><time>2026-04-25T17:13:02.066Z</time></trkpt><trkpt lat="42.2901033" lon="-7.576457"><ele>968.0</ele><time>2026-04-25T17:13:03.063Z</time></trkpt><trkpt lat="42.2902777" lon="-7.5764643"><ele>968.0</ele><time>2026-04-25T17:13:04.056Z</time></trkpt><trkpt lat="42.2904529" lon="-7.5764832"><ele>968.6666666666667</ele><time>2026-04-25T17:13:05.055Z</time></trkpt><trkpt lat="42.2906258" lon="-7.5765282"><ele>969.3333333333333</ele><time>2026-04-25T17:13:06.057Z</time></trkpt><trkpt lat="42.2908122" lon="-7.5766"><ele>970.0</ele><time>2026-04-25T17:13:07.06Z</time></trkpt><trkpt lat="42.2909969" lon="-7.5767014"><ele>970.0</ele><time>2026-04-25T17:13:08.059Z</time></trkpt><trkpt lat="42.2911648" lon="-7.5767762"><ele>970.0</ele><time>2026-04-25T17:13:09.053Z</time></trkpt><trkpt lat="42.2913117" lon="-7.5768422"><ele>970.0</ele><time>2026-04-25T17:13:10.054Z</time></trkpt><trkpt lat="42.291443" lon="-7.5769235"><ele>969.25</ele><time>2026-04-25T17:13:11.061Z</time></trkpt><trkpt lat="42.2915574" lon="-7.5770249"><ele>968.5</ele><time>2026-04-25T17:13:12.053Z</time></trkpt><trkpt lat="42.291673" lon="-7.5771274"><ele>967.75</ele><time>2026-04-25T17:13:13.061Z</time></trkpt><trkpt lat="42.2917835" lon="-7.5772032"><ele>967.0</ele><time>2026-04-25T17:13:14.054Z</time></trkpt><trkpt lat="42.2918879" lon="-7.5772639"><ele>967.0</ele><time>2026-04-25T17:13:15.054Z</time></trkpt><trkpt lat="42.2919948" lon="-7.5773225"><ele>967.0</ele><time>2026-04-25T17:13:16.049Z</time></trkpt><trkpt lat="42.2921153" lon="-7.5773815"><ele>967.0</ele><time>2026-04-25T17:13:17.057Z</time></trkpt><trkpt lat="42.2922316" lon="-7.5774366"><ele>967.0</ele><time>2026-04-25T17:13:18.057Z</time></trkpt><trkpt lat="42.2923514" lon="-7.5774907"><ele>966.5</ele><time>2026-04-25T17:13:19.059Z</time></trkpt><trkpt lat="42.2924738" lon="-7.5775383"><ele>966.0</ele><time>2026-04-25T17:13:20.063Z</time></trkpt><trkpt lat="42.2925888" lon="-7.5775782"><ele>965.5</ele><time>2026-04-25T17:13:21.054Z</time></trkpt><trkpt lat="42.2927136" lon="-7.5776111"><ele>965.0</ele><time>2026-04-25T17:13:22.055Z</time></trkpt><trkpt lat="42.2928432" lon="-7.5776242"><ele>965.0</ele><time>2026-04-25T17:13:23.057Z</time></trkpt><trkpt lat="42.2929802" lon="-7.5776202"><ele>965.0</ele><time>2026-04-25T17:13:24.049Z</time></trkpt><trkpt lat="42.2931339" lon="-7.5776226"><ele>965.0</ele><time>2026-04-25T17:13:25.057Z</time></trkpt><trkpt lat="42.2932774" lon="-7.5776347"><ele>965.0</ele><time>2026-04-25T17:13:26.056Z</time></trkpt><trkpt lat="42.2934078" lon="-7.5776481"><ele>964.5</ele><time>2026-04-25T17:13:27.056Z</time></trkpt><trkpt lat="42.2935258" lon="-7.5776742"><ele>964.0</ele><time>2026-04-25T17:13:28.051Z</time></trkpt><trkpt lat="42.293643" lon="-7.5777284"><ele>963.5</ele><time>2026-04-25T17:13:29.054Z</time></trkpt><trkpt lat="42.29376" lon="-7.5778082"><ele>963.0</ele><time>2026-04-25T17:13:30.06Z</time></trkpt><trkpt lat="42.293856" lon="-7.577896"><ele>962.25</ele><time>2026-04-25T17:13:31.053Z</time></trkpt><trkpt lat="42.2939344" lon="-7.5779846"><ele>961.5</ele><time>2026-04-25T17:13:32.061Z</time></trkpt><trkpt lat="42.2939894" lon="-7.5781023"><ele>960.75</ele><time>2026-04-25T17:13:33.049Z</time></trkpt><trkpt lat="42.2940361" lon="-7.578249"><ele>960.0</ele><time>2026-04-25T17:13:34.059Z</time></trkpt><trkpt lat="42.2940861" lon="-7.5784457"><ele>960.0</ele><time>2026-04-25T17:13:35.059Z</time></trkpt><trkpt lat="42.2941579" lon="-7.5786669"><ele>960.0</ele><time>2026-04-25T17:13:36.062Z</time></trkpt><trkpt lat="42.2942308" lon="-7.5789139"><ele>960.0</ele><time>2026-04-25T17:13:37.068Z</time></trkpt><trkpt lat="42.2943066" lon="-7.579165"><ele>960.6666666666667</ele><time>2026-04-25T17:13:38.069Z</time></trkpt><trkpt lat="42.2943875" lon="-7.5794121"><ele>961.3333333333334</ele><time>2026-04-25T17:13:39.059Z</time></trkpt><trkpt lat="42.2944691" lon="-7.5796239"><ele>962.0</ele><time>2026-04-25T17:13:40.057Z</time></trkpt><trkpt lat="42.2945578" lon="-7.5798073"><ele>962.0</ele><time>2026-04-25T17:13:41.053Z</time></trkpt><trkpt lat="42.2946522" lon="-7.5799722"><ele>962.0</ele><time>2026-04-25T17:13:42.049Z</time></trkpt><trkpt lat="42.294749" lon="-7.5801145"><ele>962.0</ele><time>2026-04-25T17:13:43.047Z</time></trkpt><trkpt lat="42.294846" lon="-7.5802229"><ele>962.0</ele><time>2026-04-25T17:13:44.058Z</time></trkpt><trkpt lat="42.2949499" lon="-7.5803084"><ele>963.0</ele><time>2026-04-25T17:13:45.059Z</time></trkpt><trkpt lat="42.2950746" lon="-7.5803997"><ele>964.0</ele><time>2026-04-25T17:13:46.058Z</time></trkpt><trkpt lat="42.2952075" lon="-7.5804898"><ele>965.0</ele><time>2026-04-25T17:13:47.053Z</time></trkpt><trkpt lat="42.295337" lon="-7.580574"><ele>966.0</ele><time>2026-04-25T17:13:48.049Z</time></trkpt><trkpt lat="42.2954695" lon="-7.5806652"><ele>965.6666666666667</ele><time>2026-04-25T17:13:49.057Z</time></trkpt><trkpt lat="42.2956115" lon="-7.5807696"><ele>965.3333333333334</ele><time>2026-04-25T17:13:50.054Z</time></trkpt><trkpt lat="42.2957603" lon="-7.5809099"><ele>965.0</ele><time>2026-04-25T17:13:51.057Z</time></trkpt><trkpt lat="42.2958851" lon="-7.5810287"><ele>965.0</ele><time>2026-04-25T17:13:52.052Z</time></trkpt><trkpt lat="42.295993" lon="-7.5811359"><ele>965.0</ele><time>2026-04-25T17:13:53.053Z</time></trkpt><trkpt lat="42.2961051" lon="-7.5812417"><ele>965.0</ele><time>2026-04-25T17:13:54.057Z</time></trkpt><trkpt lat="42.2962106" lon="-7.5813204"><ele>965.0</ele><time>2026-04-25T17:13:55.05Z</time></trkpt><trkpt lat="42.2963176" lon="-7.5813846"><ele>965.2</ele><time>2026-04-25T17:13:56.048Z</time></trkpt><trkpt lat="42.2964094" lon="-7.5814434"><ele>965.4</ele><time>2026-04-25T17:13:57.059Z</time></trkpt><trkpt lat="42.2964917" lon="-7.5814975"><ele>965.5999999999999</ele><time>2026-04-25T17:13:58.059Z</time></trkpt><trkpt lat="42.2965613" lon="-7.5815499"><ele>965.8</ele><time>2026-04-25T17:13:59.059Z</time></trkpt><trkpt lat="42.2966224" lon="-7.5816037"><ele>966.0</ele><time>2026-04-25T17:14:00.053Z</time></trkpt><trkpt lat="42.2967182" lon="-7.5816935"><ele>966.1999999999999</ele><time>2026-04-25T17:14:02.055Z</time></trkpt><trkpt lat="42.2967848" lon="-7.5817508"><ele>966.3999999999999</ele><time>2026-04-25T17:14:04.059Z</time></trkpt><trkpt lat="42.2968854" lon="-7.5818213"><ele>966.6</ele><time>2026-04-25T17:14:09.059Z</time></trkpt><trkpt lat="42.2969431" lon="-7.581864"><ele>966.8</ele><time>2026-04-25T17:14:10.06Z</time></trkpt><trkpt lat="42.2970163" lon="-7.5819036"><ele>967.0</ele><time>2026-04-25T17:14:11.058Z</time></trkpt><trkpt lat="42.2969006" lon="-7.5818106"><ele>967.0</ele><time>2026-04-25T17:14:41.058Z</time></trkpt><trkpt lat="42.2967916" lon="-7.5817114"><ele>967.0</ele><time>2026-04-25T17:14:42.06Z</time></trkpt><trkpt lat="42.2966794" lon="-7.5816244"><ele>967.0</ele><time>2026-04-25T17:14:43.058Z</time></trkpt><trkpt lat="42.296574" lon="-7.581545"><ele>967.0</ele><time>2026-04-25T17:14:44.052Z</time></trkpt><trkpt lat="42.2964788" lon="-7.5814822"><ele>967.0</ele><time>2026-04-25T17:14:45.059Z</time></trkpt><trkpt lat="42.2964182" lon="-7.5814292"><ele>967.0</ele><time>2026-04-25T17:14:46.058Z</time></trkpt><trkpt lat="42.296458" lon="-7.5813343"><ele>967.0</ele><time>2026-04-25T17:14:50.074Z</time></trkpt><trkpt lat="42.2965324" lon="-7.5813453"><ele>967.0</ele><time>2026-04-25T17:14:51.071Z</time></trkpt><trkpt lat="42.2966422" lon="-7.5813379"><ele>967.0</ele><time>2026-04-25T17:14:52.054Z</time></trkpt><trkpt lat="42.2967832" lon="-7.5813142"><ele>967.0</ele><time>2026-04-25T17:14:53.061Z</time></trkpt><trkpt lat="42.2969579" lon="-7.5812802"><ele>967.0</ele><time>2026-04-25T17:14:54.055Z</time></trkpt><trkpt lat="42.2971377" lon="-7.5812408"><ele>967.0</ele><time>2026-04-25T17:14:55.062Z</time></trkpt><trkpt lat="42.2973039" lon="-7.5812056"><ele>967.3333333333333</ele><time>2026-04-25T17:14:56.068Z</time></trkpt><trkpt lat="42.2974675" lon="-7.5811921"><ele>967.6666666666667</ele><time>2026-04-25T17:14:57.052Z</time></trkpt><trkpt lat="42.2976429" lon="-7.5812084"><ele>968.0</ele><time>2026-04-25T17:14:58.063Z</time></trkpt><trkpt lat="42.2978139" lon="-7.5812356"><ele>968.0</ele><time>2026-04-25T17:14:59.06Z</time></trkpt><trkpt lat="42.2979745" lon="-7.5812489"><ele>968.0</ele><time>2026-04-25T17:15:00.053Z</time></trkpt><trkpt lat="42.2981417" lon="-7.581249"><ele>968.0</ele><time>2026-04-25T17:15:01.058Z</time></trkpt><trkpt lat="42.2983224" lon="-7.5812431"><ele>968.6666666666667</ele><time>2026-04-25T17:15:02.051Z</time></trkpt><trkpt lat="42.2984991" lon="-7.5812395"><ele>969.3333333333333</ele><time>2026-04-25T17:15:03.051Z</time></trkpt><trkpt lat="42.298671" lon="-7.5812415"><ele>970.0</ele><time>2026-04-25T17:15:04.059Z</time></trkpt><trkpt lat="42.2988493" lon="-7.5812352"><ele>969.6666666666666</ele><time>2026-04-25T17:15:05.061Z</time></trkpt><trkpt lat="42.2990187" lon="-7.5812214"><ele>969.3333333333333</ele><time>2026-04-25T17:15:06.051Z</time></trkpt><trkpt lat="42.2991945" lon="-7.5812104"><ele>969.0</ele><time>2026-04-25T17:15:07.048Z</time></trkpt><trkpt lat="42.2993598" lon="-7.5812187"><ele>969.0</ele><time>2026-04-25T17:15:08.046Z</time></trkpt><trkpt lat="42.2995076" lon="-7.5812433"><ele>969.0</ele><time>2026-04-25T17:15:09.049Z</time></trkpt><trkpt lat="42.2996424" lon="-7.5812657"><ele>969.0</ele><time>2026-04-25T17:15:10.046Z</time></trkpt><trkpt lat="42.2997802" lon="-7.5812648"><ele>969.0</ele><time>2026-04-25T17:15:11.047Z</time></trkpt><trkpt lat="42.2999296" lon="-7.5812349"><ele>968.3333333333333</ele><time>2026-04-25T17:15:12.053Z</time></trkpt><trkpt lat="42.3000855" lon="-7.5812097"><ele>967.6666666666666</ele><time>2026-04-25T17:15:13.045Z</time></trkpt><trkpt lat="42.3002343" lon="-7.5812043"><ele>967.0</ele><time>2026-04-25T17:15:14.048Z</time></trkpt><trkpt lat="42.3003921" lon="-7.5812223"><ele>967.0</ele><time>2026-04-25T17:15:15.051Z</time></trkpt><trkpt lat="42.3005498" lon="-7.5812513"><ele>967.0</ele><time>2026-04-25T17:15:16.046Z</time></trkpt><trkpt lat="42.3006927" lon="-7.5812853"><ele>967.0</ele><time>2026-04-25T17:15:17.05Z</time></trkpt><trkpt lat="42.300827" lon="-7.5813315"><ele>967.0</ele><time>2026-04-25T17:15:18.045Z</time></trkpt><trkpt lat="42.3009695" lon="-7.5813888"><ele>966.0</ele><time>2026-04-25T17:15:19.046Z</time></trkpt><trkpt lat="42.3011119" lon="-7.5814599"><ele>965.0</ele><time>2026-04-25T17:15:20.053Z</time></trkpt><trkpt lat="42.3012412" lon="-7.5815228"><ele>964.0</ele><time>2026-04-25T17:15:21.048Z</time></trkpt><trkpt lat="42.3013747" lon="-7.5815694"><ele>963.0</ele><time>2026-04-25T17:15:22.052Z</time></trkpt><trkpt lat="42.3015249" lon="-7.5815955"><ele>961.0</ele><time>2026-04-25T17:15:23.05Z</time></trkpt><trkpt lat="42.3016731" lon="-7.5815964"><ele>959.0</ele><time>2026-04-25T17:15:24.046Z</time></trkpt><trkpt lat="42.301827" lon="-7.5815705"><ele>957.0</ele><time>2026-04-25T17:15:25.05Z</time></trkpt><trkpt lat="42.3019826" lon="-7.5815229"><ele>957.0</ele><time>2026-04-25T17:15:26.048Z</time></trkpt><trkpt lat="42.3021277" lon="-7.581469"><ele>957.0</ele><time>2026-04-25T17:15:27.05Z</time></trkpt><trkpt lat="42.3022719" lon="-7.5814313"><ele>957.0</ele><time>2026-04-25T17:15:28.049Z</time></trkpt><trkpt lat="42.3024334" lon="-7.5814153"><ele>957.0</ele><time>2026-04-25T17:15:29.045Z</time></trkpt><trkpt lat="42.3026065" lon="-7.5814116"><ele>957.0</ele><time>2026-04-25T17:15:30.048Z</time></trkpt><trkpt lat="42.3027623" lon="-7.5814113"><ele>957.0</ele><time>2026-04-25T17:15:31.058Z</time></trkpt><trkpt lat="42.3028978" lon="-7.5814094"><ele>957.0</ele><time>2026-04-25T17:15:32.049Z</time></trkpt><trkpt lat="42.3030302" lon="-7.581419"><ele>957.0</ele><time>2026-04-25T17:15:33.05Z</time></trkpt><trkpt lat="42.3031801" lon="-7.5814543"><ele>957.0</ele><time>2026-04-25T17:15:34.052Z</time></trkpt><trkpt lat="42.3033471" lon="-7.581515"><ele>956.0</ele><time>2026-04-25T17:15:35.053Z</time></trkpt><trkpt lat="42.3035058" lon="-7.5815787"><ele>955.0</ele><time>2026-04-25T17:15:36.054Z</time></trkpt><trkpt lat="42.3036554" lon="-7.5816386"><ele>954.0</ele><time>2026-04-25T17:15:37.055Z</time></trkpt><trkpt lat="42.3037965" lon="-7.5816878"><ele>952.6</ele><time>2026-04-25T17:15:38.06Z</time></trkpt><trkpt lat="42.3039199" lon="-7.5817179"><ele>951.2</ele><time>2026-04-25T17:15:39.053Z</time></trkpt><trkpt lat="42.3040308" lon="-7.5817334"><ele>949.8000000000001</ele><time>2026-04-25T17:15:40.06Z</time></trkpt><trkpt lat="42.3041307" lon="-7.5817376"><ele>948.4000000000001</ele><time>2026-04-25T17:15:41.065Z</time></trkpt><trkpt lat="42.3042223" lon="-7.5817425"><ele>947.0</ele><time>2026-04-25T17:15:42.058Z</time></trkpt><trkpt lat="42.3043065" lon="-7.5817654"><ele>947.0</ele><time>2026-04-25T17:15:43.06Z</time></trkpt><trkpt lat="42.3043767" lon="-7.5818374"><ele>947.0</ele><time>2026-04-25T17:15:44.051Z</time></trkpt><trkpt lat="42.304458" lon="-7.581923"><ele>947.0</ele><time>2026-04-25T17:15:45.063Z</time></trkpt><trkpt lat="42.3045358" lon="-7.5820073"><ele>947.0</ele><time>2026-04-25T17:15:46.055Z</time></trkpt><trkpt lat="42.3046208" lon="-7.5820887"><ele>947.0</ele><time>2026-04-25T17:15:47.069Z</time></trkpt><trkpt lat="42.3047062" lon="-7.5821617"><ele>945.2</ele><time>2026-04-25T17:15:48.061Z</time></trkpt><trkpt lat="42.3047911" lon="-7.5822163"><ele>943.4000000000001</ele><time>2026-04-25T17:15:49.055Z</time></trkpt><trkpt lat="42.3048762" lon="-7.5822423"><ele>941.5999999999999</ele><time>2026-04-25T17:15:50.049Z</time></trkpt><trkpt lat="42.3049638" lon="-7.582234"><ele>939.8</ele><time>2026-04-25T17:15:51.061Z</time></trkpt><trkpt lat="42.305072" lon="-7.5822026"><ele>938.0</ele><time>2026-04-25T17:15:52.055Z</time></trkpt><trkpt lat="42.3051954" lon="-7.5821751"><ele>938.0</ele><time>2026-04-25T17:15:53.062Z</time></trkpt><trkpt lat="42.3053146" lon="-7.5821674"><ele>938.0</ele><time>2026-04-25T17:15:54.057Z</time></trkpt><trkpt lat="42.3054227" lon="-7.5821785"><ele>938.0</ele><time>2026-04-25T17:15:55.051Z</time></trkpt><trkpt lat="42.3055203" lon="-7.5822099"><ele>938.0</ele><time>2026-04-25T17:15:56.055Z</time></trkpt><trkpt lat="42.3056052" lon="-7.582245"><ele>938.0</ele><time>2026-04-25T17:15:57.064Z</time></trkpt><trkpt lat="42.3056695" lon="-7.5823123"><ele>937.3333333333334</ele><time>2026-04-25T17:15:58.058Z</time></trkpt><trkpt lat="42.3057137" lon="-7.5824117"><ele>936.6666666666667</ele><time>2026-04-25T17:15:59.06Z</time></trkpt><trkpt lat="42.3057503" lon="-7.5825065"><ele>936.0</ele><time>2026-04-25T17:16:00.053Z</time></trkpt><trkpt lat="42.3058136" lon="-7.5826015"><ele>935.3333333333333</ele><time>2026-04-25T17:16:01.058Z</time></trkpt><trkpt lat="42.3058754" lon="-7.5826637"><ele>934.6666666666666</ele><time>2026-04-25T17:16:02.053Z</time></trkpt><trkpt lat="42.3059714" lon="-7.582705"><ele>934.0</ele><time>2026-04-25T17:16:03.054Z</time></trkpt><trkpt lat="42.3060498" lon="-7.582713"><ele>934.0</ele><time>2026-04-25T17:16:04.059Z</time></trkpt><trkpt lat="42.3061355" lon="-7.5827351"><ele>934.0000000000001</ele><time>2026-04-25T17:16:05.051Z</time></trkpt><trkpt lat="42.3062217" lon="-7.5827511"><ele>934.0000000000001</ele><time>2026-04-25T17:16:06.064Z</time></trkpt><trkpt lat="42.3063089" lon="-7.5827405"><ele>934.0</ele><time>2026-04-25T17:16:08.062Z</time></trkpt><trkpt lat="42.3063855" lon="-7.5827584"><ele>934.0</ele><time>2026-04-25T17:16:51.047Z</time></trkpt><trkpt lat="42.3064801" lon="-7.5828532"><ele>934.6</ele><time>2026-04-25T17:16:53.057Z</time></trkpt><trkpt lat="42.3066034" lon="-7.5828869"><ele>935.2</ele><time>2026-04-25T17:16:55.049Z</time></trkpt><trkpt lat="42.3066853" lon="-7.5828893"><ele>935.8000000000001</ele><time>2026-04-25T17:16:56.046Z</time></trkpt><trkpt lat="42.3067898" lon="-7.5828948"><ele>936.4000000000001</ele><time>2026-04-25T17:16:57.054Z</time></trkpt><trkpt lat="42.3069186" lon="-7.5829059"><ele>937.0</ele><time>2026-04-25T17:16:58.047Z</time></trkpt><trkpt lat="42.3070668" lon="-7.5829174"><ele>937.0</ele><time>2026-04-25T17:16:59.058Z</time></trkpt><trkpt lat="42.3072249" lon="-7.5829286"><ele>937.0</ele><time>2026-04-25T17:17:00.054Z</time></trkpt><trkpt lat="42.30737" lon="-7.582936"><ele>937.0</ele><time>2026-04-25T17:17:01.059Z</time></trkpt><trkpt lat="42.3075158" lon="-7.5829471"><ele>937.3333333333333</ele><time>2026-04-25T17:17:02.06Z</time></trkpt><trkpt lat="42.3076638" lon="-7.582963"><ele>937.6666666666667</ele><time>2026-04-25T17:17:03.054Z</time></trkpt><trkpt lat="42.3078141" lon="-7.5829786"><ele>938.0</ele><time>2026-04-25T17:17:04.054Z</time></trkpt><trkpt lat="42.3079674" lon="-7.5829938"><ele>939.0</ele><time>2026-04-25T17:17:05.052Z</time></trkpt><trkpt lat="42.3081245" lon="-7.5830102"><ele>940.0</ele><time>2026-04-25T17:17:06.055Z</time></trkpt><trkpt lat="42.3082853" lon="-7.5830277"><ele>941.0</ele><time>2026-04-25T17:17:07.051Z</time></trkpt><trkpt lat="42.3084355" lon="-7.5830457"><ele>941.0</ele><time>2026-04-25T17:17:08.051Z</time></trkpt><trkpt lat="42.3085675" lon="-7.5830682"><ele>941.0</ele><time>2026-04-25T17:17:09.058Z</time></trkpt><trkpt lat="42.3086822" lon="-7.583099"><ele>941.0</ele><time>2026-04-25T17:17:10.06Z</time></trkpt><trkpt lat="42.3087815" lon="-7.5831528"><ele>941.0</ele><time>2026-04-25T17:17:11.058Z</time></trkpt><trkpt lat="42.3088776" lon="-7.5832465"><ele>942.0</ele><time>2026-04-25T17:17:12.057Z</time></trkpt><trkpt lat="42.308968" lon="-7.5833853"><ele>943.0</ele><time>2026-04-25T17:17:13.064Z</time></trkpt><trkpt lat="42.3090645" lon="-7.5835314"><ele>944.0</ele><time>2026-04-25T17:17:14.058Z</time></trkpt><trkpt lat="42.3091375" lon="-7.5837432"><ele>944.6666666666667</ele><time>2026-04-25T17:17:15.06Z</time></trkpt><trkpt lat="42.3092266" lon="-7.5839583"><ele>945.3333333333333</ele><time>2026-04-25T17:17:16.054Z</time></trkpt><trkpt lat="42.3093079" lon="-7.584153"><ele>946.0</ele><time>2026-04-25T17:17:17.061Z</time></trkpt><trkpt lat="42.3093927" lon="-7.5843515"><ele>946.6666666666666</ele><time>2026-04-25T17:17:18.059Z</time></trkpt><trkpt lat="42.3094736" lon="-7.5845538"><ele>947.3333333333333</ele><time>2026-04-25T17:17:19.066Z</time></trkpt><trkpt lat="42.3095877" lon="-7.5847402"><ele>948.0</ele><time>2026-04-25T17:17:20.059Z</time></trkpt><trkpt lat="42.3097104" lon="-7.5849302"><ele>948.3333333333333</ele><time>2026-04-25T17:17:21.057Z</time></trkpt><trkpt lat="42.3098439" lon="-7.5851179"><ele>948.6666666666666</ele><time>2026-04-25T17:17:22.059Z</time></trkpt><trkpt lat="42.3099677" lon="-7.5852877"><ele>949.0</ele><time>2026-04-25T17:17:23.061Z</time></trkpt><trkpt lat="42.3100713" lon="-7.5854253"><ele>950.0</ele><time>2026-04-25T17:17:24.071Z</time></trkpt><trkpt lat="42.3101782" lon="-7.5855294"><ele>951.0</ele><time>2026-04-25T17:17:25.063Z</time></trkpt><trkpt lat="42.3102979" lon="-7.5856006"><ele>952.0</ele><time>2026-04-25T17:17:26.07Z</time></trkpt><trkpt lat="42.310445" lon="-7.5856608"><ele>953.0</ele><time>2026-04-25T17:17:27.062Z</time></trkpt><trkpt lat="42.3106077" lon="-7.5857144"><ele>953.3333333333334</ele><time>2026-04-25T17:17:28.055Z</time></trkpt><trkpt lat="42.310761" lon="-7.5857646"><ele>953.6666666666667</ele><time>2026-04-25T17:17:29.055Z</time></trkpt><trkpt lat="42.3109064" lon="-7.5858025"><ele>954.0</ele><time>2026-04-25T17:17:30.053Z</time></trkpt><trkpt lat="42.3110621" lon="-7.585818"><ele>954.0</ele><time>2026-04-25T17:17:31.056Z</time></trkpt><trkpt lat="42.3112266" lon="-7.5858178"><ele>954.0</ele><time>2026-04-25T17:17:32.062Z</time></trkpt><trkpt lat="42.3113968" lon="-7.5858075"><ele>954.0</ele><time>2026-04-25T17:17:33.063Z</time></trkpt><trkpt lat="42.3115542" lon="-7.5858007"><ele>954.75</ele><time>2026-04-25T17:17:34.053Z</time></trkpt><trkpt lat="42.3116915" lon="-7.5858052"><ele>955.5</ele><time>2026-04-25T17:17:35.054Z</time></trkpt><trkpt lat="42.3118195" lon="-7.5858235"><ele>956.25</ele><time>2026-04-25T17:17:36.056Z</time></trkpt><trkpt lat="42.3119395" lon="-7.5858477"><ele>957.0</ele><time>2026-04-25T17:17:37.05Z</time></trkpt><trkpt lat="42.3120625" lon="-7.5859037"><ele>957.0</ele><time>2026-04-25T17:17:38.049Z</time></trkpt><trkpt lat="42.3121888" lon="-7.585964"><ele>957.0</ele><time>2026-04-25T17:17:39.059Z</time></trkpt><trkpt lat="42.3123158" lon="-7.5860331"><ele>957.0</ele><time>2026-04-25T17:17:40.052Z</time></trkpt><trkpt lat="42.3124305" lon="-7.5861057"><ele>957.0</ele><time>2026-04-25T17:17:41.057Z</time></trkpt><trkpt lat="42.3125298" lon="-7.5861959"><ele>957.75</ele><time>2026-04-25T17:17:42.05Z</time></trkpt><trkpt lat="42.3126227" lon="-7.5863111"><ele>958.5</ele><time>2026-04-25T17:17:43.056Z</time></trkpt><trkpt lat="42.3127093" lon="-7.5864424"><ele>959.25</ele><time>2026-04-25T17:17:44.06Z</time></trkpt><trkpt lat="42.312794" lon="-7.5865804"><ele>960.0</ele><time>2026-04-25T17:17:45.055Z</time></trkpt><trkpt lat="42.3128828" lon="-7.5867336"><ele>960.0</ele><time>2026-04-25T17:17:46.054Z</time></trkpt><trkpt lat="42.3129681" lon="-7.5868928"><ele>960.0</ele><time>2026-04-25T17:17:47.061Z</time></trkpt><trkpt lat="42.3130454" lon="-7.5870478"><ele>960.0</ele><time>2026-04-25T17:17:48.059Z</time></trkpt><trkpt lat="42.3131215" lon="-7.587196"><ele>960.0</ele><time>2026-04-25T17:17:49.055Z</time></trkpt><trkpt lat="42.3132021" lon="-7.5873224"><ele>960.75</ele><time>2026-04-25T17:17:50.055Z</time></trkpt><trkpt lat="42.3132915" lon="-7.5874229"><ele>961.5</ele><time>2026-04-25T17:17:51.054Z</time></trkpt><trkpt lat="42.3133897" lon="-7.5874883"><ele>962.25</ele><time>2026-04-25T17:17:52.055Z</time></trkpt><trkpt lat="42.3134986" lon="-7.5875233"><ele>963.0</ele><time>2026-04-25T17:17:53.058Z</time></trkpt><trkpt lat="42.3136223" lon="-7.5875395"><ele>963.0</ele><time>2026-04-25T17:17:54.054Z</time></trkpt><trkpt lat="42.313745" lon="-7.5875419"><ele>963.0</ele><time>2026-04-25T17:17:55.057Z</time></trkpt><trkpt lat="42.3138548" lon="-7.5875462"><ele>963.0</ele><time>2026-04-25T17:17:56.061Z</time></trkpt><trkpt lat="42.3139543" lon="-7.5875455"><ele>963.0</ele><time>2026-04-25T17:17:57.056Z</time></trkpt><trkpt lat="42.3140416" lon="-7.587543"><ele>963.0</ele><time>2026-04-25T17:17:58.061Z</time></trkpt><trkpt lat="42.3141225" lon="-7.5875402"><ele>963.2</ele><time>2026-04-25T17:17:59.062Z</time></trkpt><trkpt lat="42.3142084" lon="-7.5875378"><ele>963.4</ele><time>2026-04-25T17:18:00.06Z</time></trkpt><trkpt lat="42.3142989" lon="-7.5875474"><ele>963.6000000000001</ele><time>2026-04-25T17:18:01.049Z</time></trkpt><trkpt lat="42.3143904" lon="-7.5875635"><ele>963.8000000000001</ele><time>2026-04-25T17:18:02.057Z</time></trkpt><trkpt lat="42.3144834" lon="-7.5875833"><ele>964.0</ele><time>2026-04-25T17:18:03.059Z</time></trkpt><trkpt lat="42.3145919" lon="-7.5876074"><ele>964.0</ele><time>2026-04-25T17:18:04.053Z</time></trkpt><trkpt lat="42.3147057" lon="-7.5876288"><ele>964.0</ele><time>2026-04-25T17:18:05.06Z</time></trkpt><trkpt lat="42.3148239" lon="-7.587666"><ele>964.0</ele><time>2026-04-25T17:18:06.059Z</time></trkpt><trkpt lat="42.3149509" lon="-7.587707"><ele>964.0</ele><time>2026-04-25T17:18:07.069Z</time></trkpt><trkpt lat="42.3150681" lon="-7.5877323"><ele>963.6</ele><time>2026-04-25T17:18:08.054Z</time></trkpt><trkpt lat="42.3151748" lon="-7.5877259"><ele>963.2</ele><time>2026-04-25T17:18:09.053Z</time></trkpt><trkpt lat="42.3152733" lon="-7.5876884"><ele>962.8000000000001</ele><time>2026-04-25T17:18:10.054Z</time></trkpt><trkpt lat="42.3153733" lon="-7.587638"><ele>962.4000000000001</ele><time>2026-04-25T17:18:11.061Z</time></trkpt><trkpt lat="42.315468" lon="-7.5875939"><ele>962.0</ele><time>2026-04-25T17:18:12.063Z</time></trkpt><trkpt lat="42.3155569" lon="-7.5875616"><ele>962.0</ele><time>2026-04-25T17:18:13.056Z</time></trkpt><trkpt lat="42.3156468" lon="-7.5875339"><ele>962.0</ele><time>2026-04-25T17:18:14.061Z</time></trkpt><trkpt lat="42.3157462" lon="-7.587509"><ele>962.0</ele><time>2026-04-25T17:18:15.063Z</time></trkpt><trkpt lat="42.3158445" lon="-7.5874756"><ele>962.0</ele><time>2026-04-25T17:18:16.054Z</time></trkpt><trkpt lat="42.315935" lon="-7.5874313"><ele>962.0</ele><time>2026-04-25T17:18:17.059Z</time></trkpt><trkpt lat="42.3160067" lon="-7.5873573"><ele>962.0000000000001</ele><time>2026-04-25T17:18:18.054Z</time></trkpt><trkpt lat="42.3160755" lon="-7.5872672"><ele>962.0</ele><time>2026-04-25T17:18:19.061Z</time></trkpt><trkpt lat="42.3161367" lon="-7.5871825"><ele>962.0</ele><time>2026-04-25T17:18:20.051Z</time></trkpt><trkpt lat="42.3161838" lon="-7.587105"><ele>962.0</ele><time>2026-04-25T17:18:21.054Z</time></trkpt><trkpt lat="42.3162293" lon="-7.5870309"><ele>962.0000000000001</ele><time>2026-04-25T17:18:22.063Z</time></trkpt><trkpt lat="42.3162888" lon="-7.5869874"><ele>962.0</ele><time>2026-04-25T17:18:23.064Z</time></trkpt><trkpt lat="42.316381" lon="-7.5869132"><ele>962.0000000000001</ele><time>2026-04-25T17:18:25.05Z</time></trkpt><trkpt lat="42.3164656" lon="-7.5869058"><ele>962.0</ele><time>2026-04-25T17:18:27.063Z</time></trkpt><trkpt lat="42.316527" lon="-7.5869694"><ele>962.0</ele><time>2026-04-25T17:18:29.055Z</time></trkpt><trkpt lat="42.3165655" lon="-7.5870929"><ele>962.0</ele><time>2026-04-25T17:18:31.064Z</time></trkpt><trkpt lat="42.3165884" lon="-7.5871744"><ele>962.0000000000001</ele><time>2026-04-25T17:18:32.057Z</time></trkpt><trkpt lat="42.3166201" lon="-7.5872674"><ele>962.0</ele><time>2026-04-25T17:18:33.052Z</time></trkpt><trkpt lat="42.3166534" lon="-7.5873716"><ele>962.0</ele><time>2026-04-25T17:18:34.05Z</time></trkpt><trkpt lat="42.3166824" lon="-7.5874959"><ele>962.0</ele><time>2026-04-25T17:18:35.057Z</time></trkpt><trkpt lat="42.3167036" lon="-7.5876367"><ele>962.0</ele><time>2026-04-25T17:18:36.054Z</time></trkpt><trkpt lat="42.3167129" lon="-7.5877934"><ele>962.0</ele><time>2026-04-25T17:18:37.054Z</time></trkpt><trkpt lat="42.3167117" lon="-7.5879557"><ele>962.0</ele><time>2026-04-25T17:18:38.061Z</time></trkpt><trkpt lat="42.3167088" lon="-7.588128"><ele>962.25</ele><time>2026-04-25T17:18:39.058Z</time></trkpt><trkpt lat="42.3167094" lon="-7.5883065"><ele>962.5</ele><time>2026-04-25T17:18:40.057Z</time></trkpt><trkpt lat="42.3167191" lon="-7.5884745"><ele>962.75</ele><time>2026-04-25T17:18:41.065Z</time></trkpt><trkpt lat="42.3167393" lon="-7.5886293"><ele>963.0</ele><time>2026-04-25T17:18:42.057Z</time></trkpt><trkpt lat="42.3167649" lon="-7.5887903"><ele>963.0</ele><time>2026-04-25T17:18:43.06Z</time></trkpt><trkpt lat="42.3167856" lon="-7.5889611"><ele>963.0</ele><time>2026-04-25T17:18:44.056Z</time></trkpt><trkpt lat="42.3167944" lon="-7.5891416"><ele>963.0</ele><time>2026-04-25T17:18:45.064Z</time></trkpt><trkpt lat="42.3167989" lon="-7.5893168"><ele>963.0</ele><time>2026-04-25T17:18:46.052Z</time></trkpt><trkpt lat="42.3167939" lon="-7.5894978"><ele>962.5</ele><time>2026-04-25T17:18:47.054Z</time></trkpt><trkpt lat="42.3167798" lon="-7.5896704"><ele>962.0</ele><time>2026-04-25T17:18:48.057Z</time></trkpt><trkpt lat="42.3167698" lon="-7.5898382"><ele>961.5</ele><time>2026-04-25T17:18:49.051Z</time></trkpt><trkpt lat="42.3167733" lon="-7.5900033"><ele>961.0</ele><time>2026-04-25T17:18:50.054Z</time></trkpt><trkpt lat="42.3168049" lon="-7.5901515"><ele>961.0</ele><time>2026-04-25T17:18:51.055Z</time></trkpt><trkpt lat="42.3168569" lon="-7.5902814"><ele>960.9999999999999</ele><time>2026-04-25T17:18:52.049Z</time></trkpt><trkpt lat="42.3169115" lon="-7.5903866"><ele>960.9999999999999</ele><time>2026-04-25T17:18:53.059Z</time></trkpt><trkpt lat="42.3169595" lon="-7.5904991"><ele>961.0</ele><time>2026-04-25T17:18:54.057Z</time></trkpt><trkpt lat="42.3169956" lon="-7.5906343"><ele>961.0</ele><time>2026-04-25T17:18:55.065Z</time></trkpt><trkpt lat="42.3170201" lon="-7.5908051"><ele>961.25</ele><time>2026-04-25T17:18:56.049Z</time></trkpt><trkpt lat="42.3170264" lon="-7.5910061"><ele>961.5</ele><time>2026-04-25T17:18:57.058Z</time></trkpt><trkpt lat="42.3170276" lon="-7.591203"><ele>961.75</ele><time>2026-04-25T17:18:58.06Z</time></trkpt><trkpt lat="42.3170209" lon="-7.5913884"><ele>962.0</ele><time>2026-04-25T17:18:59.056Z</time></trkpt><trkpt lat="42.3170299" lon="-7.5915625"><ele>963.0</ele><time>2026-04-25T17:19:00.068Z</time></trkpt><trkpt lat="42.3170491" lon="-7.5917492"><ele>964.0</ele><time>2026-04-25T17:19:01.055Z</time></trkpt><trkpt lat="42.317081" lon="-7.5919587"><ele>965.0</ele><time>2026-04-25T17:19:02.058Z</time></trkpt><trkpt lat="42.3171119" lon="-7.5921749"><ele>965.0</ele><time>2026-04-25T17:19:03.061Z</time></trkpt><trkpt lat="42.3171338" lon="-7.5923715"><ele>965.0</ele><time>2026-04-25T17:19:04.051Z</time></trkpt><trkpt lat="42.3171473" lon="-7.5925635"><ele>965.0</ele><time>2026-04-25T17:19:05.051Z</time></trkpt><trkpt lat="42.3171571" lon="-7.592759"><ele>965.0</ele><time>2026-04-25T17:19:06.061Z</time></trkpt><trkpt lat="42.317161" lon="-7.5929547"><ele>966.0</ele><time>2026-04-25T17:19:07.056Z</time></trkpt><trkpt lat="42.3171495" lon="-7.5931267"><ele>967.0</ele><time>2026-04-25T17:19:08.05Z</time></trkpt><trkpt lat="42.3171358" lon="-7.5932713"><ele>968.0</ele><time>2026-04-25T17:19:09.061Z</time></trkpt><trkpt lat="42.3171185" lon="-7.5933843"><ele>969.0</ele><time>2026-04-25T17:19:10.05Z</time></trkpt><trkpt lat="42.3170398" lon="-7.5934825"><ele>970.0</ele><time>2026-04-25T17:19:12.062Z</time></trkpt><trkpt lat="42.3169633" lon="-7.5934928"><ele>970.0</ele><time>2026-04-25T17:19:13.062Z</time></trkpt><trkpt lat="42.3168567" lon="-7.5934984"><ele>970.0</ele><time>2026-04-25T17:19:14.053Z</time></trkpt><trkpt lat="42.3167396" lon="-7.5935184"><ele>970.0</ele><time>2026-04-25T17:19:15.057Z</time></trkpt><trkpt lat="42.3166313" lon="-7.5935567"><ele>970.0</ele><time>2026-04-25T17:19:16.063Z</time></trkpt><trkpt lat="42.3165282" lon="-7.5936255"><ele>970.25</ele><time>2026-04-25T17:19:17.055Z</time></trkpt><trkpt lat="42.3164234" lon="-7.5937273"><ele>970.5</ele><time>2026-04-25T17:19:18.061Z</time></trkpt><trkpt lat="42.316313" lon="-7.593846"><ele>970.75</ele><time>2026-04-25T17:19:19.06Z</time></trkpt><trkpt lat="42.3161887" lon="-7.593961"><ele>971.0</ele><time>2026-04-25T17:19:20.062Z</time></trkpt><trkpt lat="42.3160489" lon="-7.5940581"><ele>971.3333333333334</ele><time>2026-04-25T17:19:21.052Z</time></trkpt><trkpt lat="42.3158982" lon="-7.5941296"><ele>971.6666666666667</ele><time>2026-04-25T17:19:22.057Z</time></trkpt><trkpt lat="42.3157511" lon="-7.5941814"><ele>972.0</ele><time>2026-04-25T17:19:23.057Z</time></trkpt><trkpt lat="42.3156137" lon="-7.5942284"><ele>973.25</ele><time>2026-04-25T17:19:24.051Z</time></trkpt><trkpt lat="42.3154915" lon="-7.5942697"><ele>974.5</ele><time>2026-04-25T17:19:25.056Z</time></trkpt><trkpt lat="42.3153747" lon="-7.5943461"><ele>975.75</ele><time>2026-04-25T17:19:26.056Z</time></trkpt><trkpt lat="42.3152614" lon="-7.5944466"><ele>977.0</ele><time>2026-04-25T17:19:27.056Z</time></trkpt><trkpt lat="42.3151528" lon="-7.5945722"><ele>978.0</ele><time>2026-04-25T17:19:28.06Z</time></trkpt><trkpt lat="42.3150448" lon="-7.5947148"><ele>979.0</ele><time>2026-04-25T17:19:29.065Z</time></trkpt><trkpt lat="42.3149352" lon="-7.5948611"><ele>980.0</ele><time>2026-04-25T17:19:30.064Z</time></trkpt><trkpt lat="42.3148171" lon="-7.5950098"><ele>980.0</ele><time>2026-04-25T17:19:31.055Z</time></trkpt><trkpt lat="42.3146949" lon="-7.5951619"><ele>980.0</ele><time>2026-04-25T17:19:32.06Z</time></trkpt><trkpt lat="42.3145768" lon="-7.5953066"><ele>980.0</ele><time>2026-04-25T17:19:33.059Z</time></trkpt><trkpt lat="42.3144608" lon="-7.5954553"><ele>980.0</ele><time>2026-04-25T17:19:34.08Z</time></trkpt><trkpt lat="42.3143452" lon="-7.5956083"><ele>980.0</ele><time>2026-04-25T17:19:35.061Z</time></trkpt><trkpt lat="42.3142367" lon="-7.5957578"><ele>980.0</ele><time>2026-04-25T17:19:36.055Z</time></trkpt><trkpt lat="42.3141308" lon="-7.5958829"><ele>980.0000000000001</ele><time>2026-04-25T17:19:37.059Z</time></trkpt><trkpt lat="42.3140438" lon="-7.5959993"><ele>980.0</ele><time>2026-04-25T17:19:38.06Z</time></trkpt><trkpt lat="42.3139887" lon="-7.5960906"><ele>980.0</ele><time>2026-04-25T17:19:39.061Z</time></trkpt><trkpt lat="42.3139432" lon="-7.5961567"><ele>980.0</ele><time>2026-04-25T17:19:40.071Z</time></trkpt><trkpt lat="42.3138971" lon="-7.5962165"><ele>980.0000000000001</ele><time>2026-04-25T17:19:42.061Z</time></trkpt><trkpt lat="42.3138226" lon="-7.5963126"><ele>980.0</ele><time>2026-04-25T17:19:44.069Z</time></trkpt><trkpt lat="42.3137498" lon="-7.5963823"><ele>980.25</ele><time>2026-04-25T17:19:45.059Z</time></trkpt><trkpt lat="42.3136641" lon="-7.5964546"><ele>980.5</ele><time>2026-04-25T17:19:46.066Z</time></trkpt><trkpt lat="42.3135673" lon="-7.596536"><ele>980.75</ele><time>2026-04-25T17:19:47.057Z</time></trkpt><trkpt lat="42.3134638" lon="-7.5966293"><ele>981.0</ele><time>2026-04-25T17:19:48.065Z</time></trkpt><trkpt lat="42.3133598" lon="-7.5967254"><ele>981.0</ele><time>2026-04-25T17:19:49.062Z</time></trkpt><trkpt lat="42.3132494" lon="-7.5968283"><ele>981.0</ele><time>2026-04-25T17:19:50.065Z</time></trkpt><trkpt lat="42.313136" lon="-7.5969398"><ele>981.0</ele><time>2026-04-25T17:19:51.053Z</time></trkpt><trkpt lat="42.3130244" lon="-7.5970584"><ele>981.0</ele><time>2026-04-25T17:19:52.066Z</time></trkpt><trkpt lat="42.3129146" lon="-7.5971791"><ele>981.25</ele><time>2026-04-25T17:19:53.059Z</time></trkpt><trkpt lat="42.3128061" lon="-7.5973012"><ele>981.5</ele><time>2026-04-25T17:19:54.06Z</time></trkpt><trkpt lat="42.3126911" lon="-7.5974215"><ele>981.75</ele><time>2026-04-25T17:19:55.054Z</time></trkpt><trkpt lat="42.3125743" lon="-7.5975427"><ele>982.0</ele><time>2026-04-25T17:19:56.057Z</time></trkpt><trkpt lat="42.3124569" lon="-7.5976606"><ele>982.0</ele><time>2026-04-25T17:19:57.066Z</time></trkpt><trkpt lat="42.3123279" lon="-7.5977839"><ele>982.0</ele><time>2026-04-25T17:19:58.079Z</time></trkpt><trkpt lat="42.3122101" lon="-7.5979038"><ele>982.0</ele><time>2026-04-25T17:19:59.056Z</time></trkpt><trkpt lat="42.3121005" lon="-7.5980131"><ele>982.0</ele><time>2026-04-25T17:20:00.049Z</time></trkpt><trkpt lat="42.3120012" lon="-7.5981073"><ele>982.4000000000001</ele><time>2026-04-25T17:20:01.052Z</time></trkpt><trkpt lat="42.3119052" lon="-7.598193"><ele>982.8000000000001</ele><time>2026-04-25T17:20:02.058Z</time></trkpt><trkpt lat="42.3118579" lon="-7.5982684"><ele>983.2</ele><time>2026-04-25T17:20:03.058Z</time></trkpt><trkpt lat="42.3118646" lon="-7.598445"><ele>983.6</ele><time>2026-04-25T17:20:05.059Z</time></trkpt><trkpt lat="42.3118974" lon="-7.5985577"><ele>984.0</ele><time>2026-04-25T17:20:06.053Z</time></trkpt><trkpt lat="42.311945" lon="-7.5986908"><ele>984.75</ele><time>2026-04-25T17:20:07.053Z</time></trkpt><trkpt lat="42.3119862" lon="-7.5988445"><ele>985.5</ele><time>2026-04-25T17:20:08.057Z</time></trkpt><trkpt lat="42.3120029" lon="-7.5990247"><ele>986.25</ele><time>2026-04-25T17:20:09.056Z</time></trkpt><trkpt lat="42.3120015" lon="-7.5992446"><ele>987.0</ele><time>2026-04-25T17:20:10.053Z</time></trkpt><trkpt lat="42.3119999" lon="-7.5994777"><ele>986.3333333333333</ele><time>2026-04-25T17:20:11.052Z</time></trkpt><trkpt lat="42.3119995" lon="-7.5996936"><ele>985.6666666666666</ele><time>2026-04-25T17:20:12.055Z</time></trkpt><trkpt lat="42.3120133" lon="-7.599898"><ele>985.0</ele><time>2026-04-25T17:20:13.053Z</time></trkpt><trkpt lat="42.3120395" lon="-7.6000912"><ele>985.0</ele><time>2026-04-25T17:20:14.05Z</time></trkpt><trkpt lat="42.3120539" lon="-7.6002844"><ele>985.0</ele><time>2026-04-25T17:20:15.053Z</time></trkpt><trkpt lat="42.3120598" lon="-7.6004846"><ele>985.0</ele><time>2026-04-25T17:20:16.05Z</time></trkpt><trkpt lat="42.3120192" lon="-7.60068"><ele>985.0</ele><time>2026-04-25T17:20:17.05Z</time></trkpt><trkpt lat="42.3119823" lon="-7.6008698"><ele>985.0</ele><time>2026-04-25T17:20:18.065Z</time></trkpt><trkpt lat="42.311949" lon="-7.6010475"><ele>985.0</ele><time>2026-04-25T17:20:19.051Z</time></trkpt><trkpt lat="42.3119217" lon="-7.6012248"><ele>985.0</ele><time>2026-04-25T17:20:20.045Z</time></trkpt><trkpt lat="42.3119095" lon="-7.6014103"><ele>985.0</ele><time>2026-04-25T17:20:21.065Z</time></trkpt><trkpt lat="42.3119129" lon="-7.6015974"><ele>985.75</ele><time>2026-04-25T17:20:22.059Z</time></trkpt><trkpt lat="42.311933" lon="-7.6017872"><ele>986.5</ele><time>2026-04-25T17:20:23.06Z</time></trkpt><trkpt lat="42.3119629" lon="-7.6019594"><ele>987.25</ele><time>2026-04-25T17:20:24.06Z</time></trkpt><trkpt lat="42.3119979" lon="-7.6021121"><ele>988.0</ele><time>2026-04-25T17:20:25.056Z</time></trkpt><trkpt lat="42.3120382" lon="-7.6022481"><ele>988.0</ele><time>2026-04-25T17:20:26.062Z</time></trkpt><trkpt lat="42.3120869" lon="-7.6023706"><ele>988.0</ele><time>2026-04-25T17:20:27.063Z</time></trkpt><trkpt lat="42.3121401" lon="-7.6024789"><ele>988.0</ele><time>2026-04-25T17:20:28.067Z</time></trkpt><trkpt lat="42.3122003" lon="-7.602582"><ele>988.0</ele><time>2026-04-25T17:20:29.073Z</time></trkpt><trkpt lat="42.3122695" lon="-7.6026834"><ele>988.0</ele><time>2026-04-25T17:20:30.064Z</time></trkpt><trkpt lat="42.3123392" lon="-7.6027773"><ele>989.8</ele><time>2026-04-25T17:20:31.067Z</time></trkpt><trkpt lat="42.3124063" lon="-7.6028631"><ele>991.5999999999999</ele><time>2026-04-25T17:20:32.065Z</time></trkpt><trkpt lat="42.3124786" lon="-7.602942"><ele>993.4000000000001</ele><time>2026-04-25T17:20:33.063Z</time></trkpt><trkpt lat="42.3125586" lon="-7.6030135"><ele>995.2</ele><time>2026-04-25T17:20:34.063Z</time></trkpt><trkpt lat="42.3126467" lon="-7.6030791"><ele>997.0</ele><time>2026-04-25T17:20:35.058Z</time></trkpt><trkpt lat="42.3127339" lon="-7.6031439"><ele>997.0</ele><time>2026-04-25T17:20:36.063Z</time></trkpt><trkpt lat="42.3128183" lon="-7.6032013"><ele>997.0</ele><time>2026-04-25T17:20:37.058Z</time></trkpt><trkpt lat="42.3129065" lon="-7.6032533"><ele>997.0</ele><time>2026-04-25T17:20:38.066Z</time></trkpt><trkpt lat="42.3129997" lon="-7.6032951"><ele>997.0</ele><time>2026-04-25T17:20:39.058Z</time></trkpt><trkpt lat="42.3130958" lon="-7.6033276"><ele>997.0</ele><time>2026-04-25T17:20:40.065Z</time></trkpt><trkpt lat="42.3132" lon="-7.6033541"><ele>999.75</ele><time>2026-04-25T17:20:41.066Z</time></trkpt><trkpt lat="42.313314" lon="-7.6033758"><ele>1002.5</ele><time>2026-04-25T17:20:42.058Z</time></trkpt><trkpt lat="42.3134357" lon="-7.6033978"><ele>1005.25</ele><time>2026-04-25T17:20:43.062Z</time></trkpt><trkpt lat="42.3135631" lon="-7.6034233"><ele>1008.0</ele><time>2026-04-25T17:20:44.073Z</time></trkpt><trkpt lat="42.3136951" lon="-7.6034496"><ele>1008.0</ele><time>2026-04-25T17:20:45.06Z</time></trkpt><trkpt lat="42.3138332" lon="-7.6034701"><ele>1008.0</ele><time>2026-04-25T17:20:46.059Z</time></trkpt><trkpt lat="42.313976" lon="-7.6034786"><ele>1008.0</ele><time>2026-04-25T17:20:47.057Z</time></trkpt><trkpt lat="42.3141239" lon="-7.6034721"><ele>1008.0</ele><time>2026-04-25T17:20:48.049Z</time></trkpt><trkpt lat="42.3142768" lon="-7.6034491"><ele>1009.6666666666667</ele><time>2026-04-25T17:20:49.052Z</time></trkpt><trkpt lat="42.3144356" lon="-7.603414"><ele>1011.3333333333334</ele><time>2026-04-25T17:20:50.055Z</time></trkpt><trkpt lat="42.3145982" lon="-7.6033754"><ele>1013.0</ele><time>2026-04-25T17:20:51.061Z</time></trkpt><trkpt lat="42.3147461" lon="-7.6033442"><ele>1014.6666666666667</ele><time>2026-04-25T17:20:52.055Z</time></trkpt><trkpt lat="42.3148942" lon="-7.6033375"><ele>1016.3333333333333</ele><time>2026-04-25T17:20:53.06Z</time></trkpt><trkpt lat="42.3150491" lon="-7.6033715"><ele>1018.0</ele><time>2026-04-25T17:20:54.055Z</time></trkpt><trkpt lat="42.3152054" lon="-7.6034501"><ele>1018.0</ele><time>2026-04-25T17:20:55.047Z</time></trkpt><trkpt lat="42.3153527" lon="-7.6035661"><ele>1018.0</ele><time>2026-04-25T17:20:56.052Z</time></trkpt><trkpt lat="42.3154893" lon="-7.6037163"><ele>1018.0</ele><time>2026-04-25T17:20:57.061Z</time></trkpt><trkpt lat="42.3156144" lon="-7.6038859"><ele>1019.0</ele><time>2026-04-25T17:20:58.051Z</time></trkpt><trkpt lat="42.3157409" lon="-7.6040643"><ele>1020.0</ele><time>2026-04-25T17:20:59.055Z</time></trkpt><trkpt lat="42.3158635" lon="-7.6042316"><ele>1021.0</ele><time>2026-04-25T17:21:00.054Z</time></trkpt><trkpt lat="42.3159904" lon="-7.6043967"><ele>1021.6666666666666</ele><time>2026-04-25T17:21:01.056Z</time></trkpt><trkpt lat="42.3161211" lon="-7.6045628"><ele>1022.3333333333333</ele><time>2026-04-25T17:21:02.05Z</time></trkpt><trkpt lat="42.3162524" lon="-7.6047307"><ele>1023.0</ele><time>2026-04-25T17:21:03.054Z</time></trkpt><trkpt lat="42.3163831" lon="-7.6049011"><ele>1024.3333333333333</ele><time>2026-04-25T17:21:04.061Z</time></trkpt><trkpt lat="42.3165121" lon="-7.605075"><ele>1025.6666666666665</ele><time>2026-04-25T17:21:05.056Z</time></trkpt><trkpt lat="42.3166286" lon="-7.6052426"><ele>1027.0</ele><time>2026-04-25T17:21:06.06Z</time></trkpt><trkpt lat="42.3167374" lon="-7.6054046"><ele>1027.0</ele><time>2026-04-25T17:21:07.062Z</time></trkpt><trkpt lat="42.3168476" lon="-7.6055688"><ele>1027.0</ele><time>2026-04-25T17:21:08.053Z</time></trkpt><trkpt lat="42.3169618" lon="-7.6057387"><ele>1027.0</ele><time>2026-04-25T17:21:09.056Z</time></trkpt><trkpt lat="42.3170818" lon="-7.6059164"><ele>1027.0</ele><time>2026-04-25T17:21:10.064Z</time></trkpt><trkpt lat="42.3172101" lon="-7.6060959"><ele>1027.0</ele><time>2026-04-25T17:21:11.056Z</time></trkpt><trkpt lat="42.3173522" lon="-7.6062666"><ele>1027.0</ele><time>2026-04-25T17:21:12.059Z</time></trkpt><trkpt lat="42.3174966" lon="-7.6064131"><ele>1028.25</ele><time>2026-04-25T17:21:13.056Z</time></trkpt><trkpt lat="42.3176324" lon="-7.6065435"><ele>1029.5</ele><time>2026-04-25T17:21:14.052Z</time></trkpt><trkpt lat="42.3177443" lon="-7.6066718"><ele>1030.75</ele><time>2026-04-25T17:21:15.057Z</time></trkpt><trkpt lat="42.3178272" lon="-7.6068013"><ele>1032.0</ele><time>2026-04-25T17:21:16.053Z</time></trkpt><trkpt lat="42.3178904" lon="-7.6069414"><ele>1032.0</ele><time>2026-04-25T17:21:17.052Z</time></trkpt><trkpt lat="42.3179448" lon="-7.6070963"><ele>1032.0</ele><time>2026-04-25T17:21:18.054Z</time></trkpt><trkpt lat="42.3180008" lon="-7.6072444"><ele>1032.0</ele><time>2026-04-25T17:21:19.05Z</time></trkpt><trkpt lat="42.3180769" lon="-7.6073804"><ele>1032.0</ele><time>2026-04-25T17:21:20.06Z</time></trkpt><trkpt lat="42.318172" lon="-7.6074891"><ele>1033.0</ele><time>2026-04-25T17:21:21.053Z</time></trkpt><trkpt lat="42.3182895" lon="-7.6075646"><ele>1034.0</ele><time>2026-04-25T17:21:22.057Z</time></trkpt><trkpt lat="42.3184183" lon="-7.6076163"><ele>1035.0</ele><time>2026-04-25T17:21:23.062Z</time></trkpt><trkpt lat="42.3185528" lon="-7.6076535"><ele>1036.0</ele><time>2026-04-25T17:21:24.054Z</time></trkpt><trkpt lat="42.3186925" lon="-7.6077009"><ele>1036.0</ele><time>2026-04-25T17:21:25.057Z</time></trkpt><trkpt lat="42.3188336" lon="-7.6077667"><ele>1036.0</ele><time>2026-04-25T17:21:26.048Z</time></trkpt><trkpt lat="42.3189555" lon="-7.6078375"><ele>1036.0</ele><time>2026-04-25T17:21:27.048Z</time></trkpt><trkpt lat="42.3190656" lon="-7.6079052"><ele>1036.0</ele><time>2026-04-25T17:21:28.049Z</time></trkpt><trkpt lat="42.319174" lon="-7.6079685"><ele>1037.8</ele><time>2026-04-25T17:21:29.054Z</time></trkpt><trkpt lat="42.3192859" lon="-7.608041"><ele>1039.6</ele><time>2026-04-25T17:21:30.054Z</time></trkpt><trkpt lat="42.3193842" lon="-7.6081121"><ele>1041.4</ele><time>2026-04-25T17:21:31.049Z</time></trkpt><trkpt lat="42.3194671" lon="-7.6081708"><ele>1043.2</ele><time>2026-04-25T17:21:32.054Z</time></trkpt><trkpt lat="42.319532" lon="-7.6082319"><ele>1045.0</ele><time>2026-04-25T17:21:33.057Z</time></trkpt><trkpt lat="42.3195774" lon="-7.6082988"><ele>1045.0</ele><time>2026-04-25T17:21:34.054Z</time></trkpt><trkpt lat="42.3196342" lon="-7.608404"><ele>1045.0</ele><time>2026-04-25T17:21:36.047Z</time></trkpt><trkpt lat="42.3196525" lon="-7.6085673"><ele>1045.0</ele><time>2026-04-25T17:24:50.051Z</time></trkpt><trkpt lat="42.3196283" lon="-7.608685"><ele>1045.0</ele><time>2026-04-25T17:24:52.062Z</time></trkpt><trkpt lat="42.3196686" lon="-7.6088727"><ele>1044.6</ele><time>2026-04-25T17:24:54.06Z</time></trkpt><trkpt lat="42.3197045" lon="-7.6089953"><ele>1044.2</ele><time>2026-04-25T17:24:55.054Z</time></trkpt><trkpt lat="42.3197667" lon="-7.6091414"><ele>1043.8</ele><time>2026-04-25T17:24:56.062Z</time></trkpt><trkpt lat="42.3198234" lon="-7.6092792"><ele>1043.4</ele><time>2026-04-25T17:24:57.058Z</time></trkpt><trkpt lat="42.3198763" lon="-7.6094079"><ele>1043.0</ele><time>2026-04-25T17:24:58.059Z</time></trkpt><trkpt lat="42.3199299" lon="-7.6095272"><ele>1042.8</ele><time>2026-04-25T17:24:59.06Z</time></trkpt><trkpt lat="42.3199867" lon="-7.6096402"><ele>1042.6</ele><time>2026-04-25T17:25:00.051Z</time></trkpt><trkpt lat="42.3200435" lon="-7.6097496"><ele>1042.4</ele><time>2026-04-25T17:25:01.054Z</time></trkpt><trkpt lat="42.3201014" lon="-7.6098613"><ele>1042.2</ele><time>2026-04-25T17:25:02.058Z</time></trkpt><trkpt lat="42.3201609" lon="-7.6099745"><ele>1042.0</ele><time>2026-04-25T17:25:03.054Z</time></trkpt><trkpt lat="42.3202173" lon="-7.6100827"><ele>1042.0</ele><time>2026-04-25T17:25:04.054Z</time></trkpt><trkpt lat="42.3202722" lon="-7.6101817"><ele>1042.0</ele><time>2026-04-25T17:25:05.062Z</time></trkpt><trkpt lat="42.3203314" lon="-7.6102754"><ele>1042.0</ele><time>2026-04-25T17:25:06.055Z</time></trkpt><trkpt lat="42.3203938" lon="-7.6103671"><ele>1042.0</ele><time>2026-04-25T17:25:07.097Z</time></trkpt><trkpt lat="42.3204587" lon="-7.6104554"><ele>1042.0</ele><time>2026-04-25T17:25:08.055Z</time></trkpt><trkpt lat="42.3205224" lon="-7.6105433"><ele>1042.0</ele><time>2026-04-25T17:25:09.048Z</time></trkpt><trkpt lat="42.3205805" lon="-7.6106352"><ele>1042.0</ele><time>2026-04-25T17:25:10.06Z</time></trkpt><trkpt lat="42.3206334" lon="-7.6107316"><ele>1042.0</ele><time>2026-04-25T17:25:11.053Z</time></trkpt><trkpt lat="42.3206783" lon="-7.6108335"><ele>1042.0</ele><time>2026-04-25T17:25:12.047Z</time></trkpt><trkpt lat="42.3207153" lon="-7.6109388"><ele>1042.0</ele><time>2026-04-25T17:25:13.064Z</time></trkpt><trkpt lat="42.3207442" lon="-7.6110476"><ele>1042.0</ele><time>2026-04-25T17:25:14.056Z</time></trkpt><trkpt lat="42.3207675" lon="-7.6111615"><ele>1042.0</ele><time>2026-04-25T17:25:15.055Z</time></trkpt><trkpt lat="42.3207902" lon="-7.6112777"><ele>1042.0</ele><time>2026-04-25T17:25:16.05Z</time></trkpt><trkpt lat="42.3208134" lon="-7.6113808"><ele>1042.0</ele><time>2026-04-25T17:25:17.054Z</time></trkpt><trkpt lat="42.3208337" lon="-7.6114728"><ele>1042.0</ele><time>2026-04-25T17:25:18.067Z</time></trkpt><trkpt lat="42.3208551" lon="-7.6115637"><ele>1042.0</ele><time>2026-04-25T17:25:19.056Z</time></trkpt><trkpt lat="42.3208861" lon="-7.6116576"><ele>1042.0</ele><time>2026-04-25T17:25:20.058Z</time></trkpt><trkpt lat="42.3209178" lon="-7.6117507"><ele>1042.0</ele><time>2026-04-25T17:25:21.053Z</time></trkpt><trkpt lat="42.3209606" lon="-7.611838"><ele>1042.0</ele><time>2026-04-25T17:25:22.064Z</time></trkpt><trkpt lat="42.3210037" lon="-7.6119155"><ele>1042.0</ele><time>2026-04-25T17:25:23.057Z</time></trkpt><trkpt lat="42.3210476" lon="-7.6119928"><ele>1042.0</ele><time>2026-04-25T17:25:24.053Z</time></trkpt><trkpt lat="42.321094" lon="-7.6120728"><ele>1042.0</ele><time>2026-04-25T17:25:25.051Z</time></trkpt><trkpt lat="42.3211447" lon="-7.6121544"><ele>1042.0</ele><time>2026-04-25T17:25:26.056Z</time></trkpt><trkpt lat="42.3211993" lon="-7.6122417"><ele>1043.4</ele><time>2026-04-25T17:25:27.051Z</time></trkpt><trkpt lat="42.3212603" lon="-7.6123359"><ele>1044.8000000000002</ele><time>2026-04-25T17:25:28.058Z</time></trkpt><trkpt lat="42.3213239" lon="-7.6124313"><ele>1046.2</ele><time>2026-04-25T17:25:29.065Z</time></trkpt><trkpt lat="42.3213931" lon="-7.6125313"><ele>1047.6000000000001</ele><time>2026-04-25T17:25:30.055Z</time></trkpt><trkpt lat="42.3214565" lon="-7.6126425"><ele>1049.0</ele><time>2026-04-25T17:25:31.058Z</time></trkpt><trkpt lat="42.3215028" lon="-7.6127589"><ele>1046.6666666666667</ele><time>2026-04-25T17:25:32.053Z</time></trkpt><trkpt lat="42.32153" lon="-7.6128761"><ele>1044.3333333333335</ele><time>2026-04-25T17:25:33.055Z</time></trkpt><trkpt lat="42.3215447" lon="-7.6129806"><ele>1042.0</ele><time>2026-04-25T17:25:34.052Z</time></trkpt><trkpt lat="42.3215533" lon="-7.613078"><ele>1039.6666666666667</ele><time>2026-04-25T17:25:35.052Z</time></trkpt><trkpt lat="42.3215581" lon="-7.6131769"><ele>1037.3333333333333</ele><time>2026-04-25T17:25:36.054Z</time></trkpt><trkpt lat="42.3215566" lon="-7.6132699"><ele>1035.0</ele><time>2026-04-25T17:25:37.055Z</time></trkpt><trkpt lat="42.321528" lon="-7.6134261"><ele>1035.0</ele><time>2026-04-25T17:25:39.057Z</time></trkpt><trkpt lat="42.3214564" lon="-7.61353"><ele>1035.0</ele><time>2026-04-25T17:25:41.052Z</time></trkpt><trkpt lat="42.3213596" lon="-7.6135872"><ele>1035.0</ele><time>2026-04-25T17:25:43.057Z</time></trkpt><trkpt lat="42.3212417" lon="-7.6136302"><ele>1035.0</ele><time>2026-04-25T17:25:45.051Z</time></trkpt><trkpt lat="42.321116" lon="-7.613666"><ele>1030.0</ele><time>2026-04-25T17:25:47.054Z</time></trkpt><trkpt lat="42.3210509" lon="-7.6136847"><ele>1025.0</ele><time>2026-04-25T17:25:48.054Z</time></trkpt><trkpt lat="42.3209881" lon="-7.6137018"><ele>1020.0</ele><time>2026-04-25T17:25:49.053Z</time></trkpt><trkpt lat="42.3208701" lon="-7.6137336"><ele>1015.0</ele><time>2026-04-25T17:25:51.062Z</time></trkpt><trkpt lat="42.3207628" lon="-7.6137637"><ele>1010.0</ele><time>2026-04-25T17:25:53.051Z</time></trkpt><trkpt lat="42.3206652" lon="-7.6137885"><ele>1010.0000000000001</ele><time>2026-04-25T17:25:55.051Z</time></trkpt><trkpt lat="42.3205934" lon="-7.6138356"><ele>1010.0</ele><time>2026-04-25T17:25:57.052Z</time></trkpt><trkpt lat="42.3205552" lon="-7.613907"><ele>1010.0</ele><time>2026-04-25T17:25:59.06Z</time></trkpt><trkpt lat="42.3205657" lon="-7.6140033"><ele>1010.0</ele><time>2026-04-25T17:26:01.057Z</time></trkpt><trkpt lat="42.3205932" lon="-7.6141093"><ele>1010.0000000000001</ele><time>2026-04-25T17:26:03.07Z</time></trkpt><trkpt lat="42.3206215" lon="-7.6142257"><ele>1010.0</ele><time>2026-04-25T17:26:05.056Z</time></trkpt><trkpt lat="42.3206366" lon="-7.6143573"><ele>1007.3333333333334</ele><time>2026-04-25T17:26:07.049Z</time></trkpt><trkpt lat="42.3206489" lon="-7.6145016"><ele>1004.6666666666667</ele><time>2026-04-25T17:26:09.058Z</time></trkpt><trkpt lat="42.3206635" lon="-7.6146357"><ele>1002.0</ele><time>2026-04-25T17:26:11.052Z</time></trkpt><trkpt lat="42.3206833" lon="-7.6147389"><ele>999.3333333333333</ele><time>2026-04-25T17:26:13.05Z</time></trkpt><trkpt lat="42.3207086" lon="-7.6148253"><ele>996.6666666666666</ele><time>2026-04-25T17:26:16.072Z</time></trkpt><trkpt lat="42.3206464" lon="-7.6148588"><ele>994.0</ele><time>2026-04-25T17:31:39.019Z</time></trkpt><trkpt lat="42.3205834" lon="-7.6148365"><ele>990.4000000000001</ele><time>2026-04-25T17:31:40.095Z</time></trkpt><trkpt lat="42.3204661" lon="-7.6148209"><ele>986.8000000000001</ele><time>2026-04-25T17:31:42.051Z</time></trkpt><trkpt lat="42.3203413" lon="-7.614812"><ele>983.1999999999999</ele><time>2026-04-25T17:31:44.052Z</time></trkpt><trkpt lat="42.3202781" lon="-7.6148048"><ele>979.5999999999999</ele><time>2026-04-25T17:31:45.054Z</time></trkpt><trkpt lat="42.3202142" lon="-7.6147961"><ele>976.0</ele><time>2026-04-25T17:31:46.051Z</time></trkpt><trkpt lat="42.3200882" lon="-7.6147801"><ele>975.9999999999999</ele><time>2026-04-25T17:31:48.058Z</time></trkpt><trkpt lat="42.3200216" lon="-7.6147705"><ele>976.0</ele><time>2026-04-25T17:31:49.057Z</time></trkpt><trkpt lat="42.3199539" lon="-7.6147646"><ele>975.9999999999999</ele><time>2026-04-25T17:31:50.05Z</time></trkpt><trkpt lat="42.3198845" lon="-7.6147646"><ele>975.9999999999999</ele><time>2026-04-25T17:31:51.057Z</time></trkpt><trkpt lat="42.3198135" lon="-7.6147717"><ele>976.0</ele><time>2026-04-25T17:31:52.054Z</time></trkpt><trkpt lat="42.3197419" lon="-7.6147866"><ele>975.9999999999999</ele><time>2026-04-25T17:31:53.059Z</time></trkpt><trkpt lat="42.3196698" lon="-7.6148075"><ele>975.9999999999999</ele><time>2026-04-25T17:31:54.054Z</time></trkpt><trkpt lat="42.3195976" lon="-7.6148348"><ele>974.2857142857142</ele><time>2026-04-25T17:31:55.05Z</time></trkpt><trkpt lat="42.3195256" lon="-7.6148655"><ele>972.5714285714286</ele><time>2026-04-25T17:31:56.054Z</time></trkpt><trkpt lat="42.3194535" lon="-7.6149018"><ele>970.8571428571429</ele><time>2026-04-25T17:31:57.054Z</time></trkpt><trkpt lat="42.3193825" lon="-7.6149418"><ele>969.1428571428571</ele><time>2026-04-25T17:31:58.05Z</time></trkpt><trkpt lat="42.3193129" lon="-7.6149824"><ele>967.4285714285716</ele><time>2026-04-25T17:31:59.053Z</time></trkpt><trkpt lat="42.3192484" lon="-7.6150194"><ele>965.7142857142858</ele><time>2026-04-25T17:32:00.048Z</time></trkpt><trkpt lat="42.3191862" lon="-7.6150556"><ele>964.0</ele><time>2026-04-25T17:32:01.049Z</time></trkpt><trkpt lat="42.3191253" lon="-7.615089"><ele>964.0</ele><time>2026-04-25T17:32:02.057Z</time></trkpt><trkpt lat="42.3190583" lon="-7.6151134"><ele>964.0000000000001</ele><time>2026-04-25T17:32:03.05Z</time></trkpt><trkpt lat="42.3189852" lon="-7.6151249"><ele>964.0</ele><time>2026-04-25T17:32:04.057Z</time></trkpt><trkpt lat="42.3189079" lon="-7.6151212"><ele>964.0</ele><time>2026-04-25T17:32:05.056Z</time></trkpt><trkpt lat="42.3188351" lon="-7.6151071"><ele>964.0000000000001</ele><time>2026-04-25T17:32:06.048Z</time></trkpt><trkpt lat="42.3187674" lon="-7.6150862"><ele>964.0</ele><time>2026-04-25T17:32:07.056Z</time></trkpt><trkpt lat="42.3187064" lon="-7.6150555"><ele>964.0</ele><time>2026-04-25T17:32:08.053Z</time></trkpt><trkpt lat="42.3186497" lon="-7.6150103"><ele>960.8333333333333</ele><time>2026-04-25T17:32:09.053Z</time></trkpt><trkpt lat="42.3185913" lon="-7.6149452"><ele>957.6666666666666</ele><time>2026-04-25T17:32:10.053Z</time></trkpt><trkpt lat="42.3185392" lon="-7.6148582"><ele>954.5</ele><time>2026-04-25T17:32:11.06Z</time></trkpt><trkpt lat="42.3184879" lon="-7.6147688"><ele>951.3333333333333</ele><time>2026-04-25T17:32:12.074Z</time></trkpt><trkpt lat="42.3184572" lon="-7.6146673"><ele>948.1666666666666</ele><time>2026-04-25T17:32:13.053Z</time></trkpt><trkpt lat="42.3184323" lon="-7.614565"><ele>945.0</ele><time>2026-04-25T17:32:14.053Z</time></trkpt><trkpt lat="42.318409" lon="-7.6144556"><ele>945.0</ele><time>2026-04-25T17:32:15.057Z</time></trkpt><trkpt lat="42.3183862" lon="-7.6143228"><ele>945.0</ele><time>2026-04-25T17:32:16.05Z</time></trkpt><trkpt lat="42.318366" lon="-7.6141767"><ele>945.0</ele><time>2026-04-25T17:32:17.049Z</time></trkpt><trkpt lat="42.3183536" lon="-7.6140474"><ele>945.0</ele><time>2026-04-25T17:32:18.053Z</time></trkpt><trkpt lat="42.3183447" lon="-7.6139348"><ele>945.0</ele><time>2026-04-25T17:32:19.055Z</time></trkpt><trkpt lat="42.3183374" lon="-7.6138322"><ele>945.0</ele><time>2026-04-25T17:32:20.05Z</time></trkpt><trkpt lat="42.3183324" lon="-7.6137297"><ele>945.0</ele><time>2026-04-25T17:32:21.06Z</time></trkpt><trkpt lat="42.3183343" lon="-7.6136215"><ele>945.0</ele><time>2026-04-25T17:32:22.05Z</time></trkpt><trkpt lat="42.31834" lon="-7.6135156"><ele>945.0</ele><time>2026-04-25T17:32:23.05Z</time></trkpt><trkpt lat="42.3183422" lon="-7.6134162"><ele>945.0</ele><time>2026-04-25T17:32:24.057Z</time></trkpt><trkpt lat="42.318344" lon="-7.6133195"><ele>945.0</ele><time>2026-04-25T17:32:25.06Z</time></trkpt><trkpt lat="42.3183041" lon="-7.6131745"><ele>945.6</ele><time>2026-04-25T17:32:27.057Z</time></trkpt><trkpt lat="42.3182138" lon="-7.6130967"><ele>946.2</ele><time>2026-04-25T17:32:29.054Z</time></trkpt><trkpt lat="42.3180908" lon="-7.6131085"><ele>946.8</ele><time>2026-04-25T17:32:31.05Z</time></trkpt><trkpt lat="42.3180267" lon="-7.6131599"><ele>947.4</ele><time>2026-04-25T17:32:32.054Z</time></trkpt><trkpt lat="42.3179636" lon="-7.6132141"><ele>948.0</ele><time>2026-04-25T17:32:33.057Z</time></trkpt><trkpt lat="42.3178983" lon="-7.6132775"><ele>945.6666666666666</ele><time>2026-04-25T17:32:34.055Z</time></trkpt><trkpt lat="42.3178395" lon="-7.6133344"><ele>943.3333333333333</ele><time>2026-04-25T17:32:35.054Z</time></trkpt><trkpt lat="42.3177891" lon="-7.6133861"><ele>941.0</ele><time>2026-04-25T17:32:36.057Z</time></trkpt><trkpt lat="42.3177073" lon="-7.6134938"><ele>938.6666666666666</ele><time>2026-04-25T17:32:38.059Z</time></trkpt><trkpt lat="42.3176474" lon="-7.6136279"><ele>936.3333333333333</ele><time>2026-04-25T17:32:40.053Z</time></trkpt><trkpt lat="42.3176247" lon="-7.6137075"><ele>934.0</ele><time>2026-04-25T17:32:41.058Z</time></trkpt><trkpt lat="42.3175647" lon="-7.6138551"><ele>931.8333333333333</ele><time>2026-04-25T17:32:43.053Z</time></trkpt><trkpt lat="42.3175102" lon="-7.6139047"><ele>929.6666666666666</ele><time>2026-04-25T17:32:44.058Z</time></trkpt><trkpt lat="42.3174411" lon="-7.6139407"><ele>927.5</ele><time>2026-04-25T17:32:45.051Z</time></trkpt><trkpt lat="42.3173766" lon="-7.613973"><ele>925.3333333333333</ele><time>2026-04-25T17:32:46.051Z</time></trkpt><trkpt lat="42.3173175" lon="-7.6140067"><ele>923.1666666666666</ele><time>2026-04-25T17:32:47.057Z</time></trkpt><trkpt lat="42.317215" lon="-7.6140872"><ele>921.0</ele><time>2026-04-25T17:32:49.061Z</time></trkpt><trkpt lat="42.3171238" lon="-7.6142134"><ele>921.0</ele><time>2026-04-25T17:32:51.048Z</time></trkpt><trkpt lat="42.3170715" lon="-7.6142803"><ele>921.0</ele><time>2026-04-25T17:32:52.055Z</time></trkpt><trkpt lat="42.317012" lon="-7.6143376"><ele>921.0</ele><time>2026-04-25T17:32:53.06Z</time></trkpt><trkpt lat="42.3169468" lon="-7.614382"><ele>921.0</ele><time>2026-04-25T17:32:54.05Z</time></trkpt><trkpt lat="42.3168763" lon="-7.6144246"><ele>921.0</ele><time>2026-04-25T17:32:55.068Z</time></trkpt><trkpt lat="42.3168029" lon="-7.614465"><ele>921.0</ele><time>2026-04-25T17:32:56.058Z</time></trkpt><trkpt lat="42.3167342" lon="-7.6145109"><ele>916.8333333333334</ele><time>2026-04-25T17:32:57.053Z</time></trkpt><trkpt lat="42.3166711" lon="-7.6145636"><ele>912.6666666666667</ele><time>2026-04-25T17:32:58.069Z</time></trkpt><trkpt lat="42.3166115" lon="-7.6146301"><ele>908.5</ele><time>2026-04-25T17:32:59.052Z</time></trkpt><trkpt lat="42.3165549" lon="-7.6147098"><ele>904.3333333333334</ele><time>2026-04-25T17:33:00.047Z</time></trkpt><trkpt lat="42.3165069" lon="-7.6147947"><ele>900.1666666666667</ele><time>2026-04-25T17:33:01.057Z</time></trkpt><trkpt lat="42.3164606" lon="-7.6148774"><ele>896.0</ele><time>2026-04-25T17:33:02.051Z</time></trkpt><trkpt lat="42.3164158" lon="-7.6149599"><ele>897.5000000000001</ele><time>2026-04-25T17:33:03.047Z</time></trkpt><trkpt lat="42.3163643" lon="-7.615056"><ele>899.0</ele><time>2026-04-25T17:33:04.056Z</time></trkpt><trkpt lat="42.3163178" lon="-7.6151519"><ele>900.5</ele><time>2026-04-25T17:33:05.051Z</time></trkpt><trkpt lat="42.3162731" lon="-7.6152402"><ele>902.0</ele><time>2026-04-25T17:33:06.054Z</time></trkpt><trkpt lat="42.3162317" lon="-7.6153199"><ele>903.5000000000001</ele><time>2026-04-25T17:33:07.058Z</time></trkpt><trkpt lat="42.3161862" lon="-7.6153986"><ele>905.0</ele><time>2026-04-25T17:33:08.063Z</time></trkpt><trkpt lat="42.3161433" lon="-7.6154675"><ele>901.2857142857142</ele><time>2026-04-25T17:33:09.06Z</time></trkpt><trkpt lat="42.3160955" lon="-7.6155308"><ele>897.5714285714284</ele><time>2026-04-25T17:33:10.051Z</time></trkpt><trkpt lat="42.316042" lon="-7.6155979"><ele>893.8571428571429</ele><time>2026-04-25T17:33:11.06Z</time></trkpt><trkpt lat="42.3159861" lon="-7.6156621"><ele>890.1428571428571</ele><time>2026-04-25T17:33:12.054Z</time></trkpt><trkpt lat="42.3159323" lon="-7.6157346"><ele>886.4285714285714</ele><time>2026-04-25T17:33:13.051Z</time></trkpt><trkpt lat="42.3158779" lon="-7.6158137"><ele>882.7142857142858</ele><time>2026-04-25T17:33:14.063Z</time></trkpt><trkpt lat="42.3158322" lon="-7.6158939"><ele>879.0</ele><time>2026-04-25T17:33:15.051Z</time></trkpt><trkpt lat="42.3157881" lon="-7.615972"><ele>879.0</ele><time>2026-04-25T17:33:16.046Z</time></trkpt><trkpt lat="42.3157441" lon="-7.6160535"><ele>879.0</ele><time>2026-04-25T17:33:17.057Z</time></trkpt><trkpt lat="42.3156939" lon="-7.6161336"><ele>879.0</ele><time>2026-04-25T17:33:18.05Z</time></trkpt><trkpt lat="42.3156398" lon="-7.6162117"><ele>879.0</ele><time>2026-04-25T17:33:19.054Z</time></trkpt><trkpt lat="42.3155831" lon="-7.6162863"><ele>879.0</ele><time>2026-04-25T17:33:20.06Z</time></trkpt><trkpt lat="42.3155308" lon="-7.6163472"><ele>879.0</ele><time>2026-04-25T17:33:21.063Z</time></trkpt><trkpt lat="42.3154801" lon="-7.6163981"><ele>879.0</ele><time>2026-04-25T17:33:22.059Z</time></trkpt><trkpt lat="42.3153754" lon="-7.6164707"><ele>873.25</ele><time>2026-04-25T17:33:24.06Z</time></trkpt><trkpt lat="42.3152709" lon="-7.6165342"><ele>867.5</ele><time>2026-04-25T17:33:26.054Z</time></trkpt><trkpt lat="42.3151555" lon="-7.6165991"><ele>861.75</ele><time>2026-04-25T17:33:28.051Z</time></trkpt><trkpt lat="42.3150476" lon="-7.6166533"><ele>856.0</ele><time>2026-04-25T17:33:30.06Z</time></trkpt><trkpt lat="42.3149478" lon="-7.6167016"><ele>856.0</ele><time>2026-04-25T17:33:32.051Z</time></trkpt><trkpt lat="42.3148657" lon="-7.6167741"><ele>855.9999999999999</ele><time>2026-04-25T17:33:34.061Z</time></trkpt><trkpt lat="42.3148308" lon="-7.616886"><ele>855.9999999999999</ele><time>2026-04-25T17:33:36.066Z</time></trkpt><trkpt lat="42.3148603" lon="-7.6170005"><ele>856.0</ele><time>2026-04-25T17:33:38.055Z</time></trkpt><trkpt lat="42.3149325" lon="-7.617127"><ele>856.0</ele><time>2026-04-25T17:33:40.053Z</time></trkpt><trkpt lat="42.315005" lon="-7.6172661"><ele>852.3333333333333</ele><time>2026-04-25T17:33:42.057Z</time></trkpt><trkpt lat="42.3150713" lon="-7.6173842"><ele>848.6666666666666</ele><time>2026-04-25T17:33:44.056Z</time></trkpt><trkpt lat="42.3151299" lon="-7.6174773"><ele>845.0</ele><time>2026-04-25T17:33:46.061Z</time></trkpt><trkpt lat="42.3151033" lon="-7.6175759"><ele>841.3333333333333</ele><time>2026-04-25T17:33:49.054Z</time></trkpt><trkpt lat="42.3150197" lon="-7.617575"><ele>837.6666666666666</ele><time>2026-04-25T17:33:51.055Z</time></trkpt><trkpt lat="42.3149542" lon="-7.6175638"><ele>834.0</ele><time>2026-04-25T17:33:52.056Z</time></trkpt><trkpt lat="42.3148782" lon="-7.6175449"><ele>834.0</ele><time>2026-04-25T17:33:53.054Z</time></trkpt><trkpt lat="42.3147923" lon="-7.6175148"><ele>834.0</ele><time>2026-04-25T17:33:54.056Z</time></trkpt><trkpt lat="42.3147127" lon="-7.6174848"><ele>834.0</ele><time>2026-04-25T17:33:55.054Z</time></trkpt><trkpt lat="42.3146417" lon="-7.6174538"><ele>834.0</ele><time>2026-04-25T17:33:56.054Z</time></trkpt><trkpt lat="42.3145747" lon="-7.6174252"><ele>834.0</ele><time>2026-04-25T17:33:57.057Z</time></trkpt><trkpt lat="42.3145131" lon="-7.6174064"><ele>834.0</ele><time>2026-04-25T17:33:58.058Z</time></trkpt><trkpt lat="42.3144022" lon="-7.6174152"><ele>833.0</ele><time>2026-04-25T17:34:00.053Z</time></trkpt><trkpt lat="42.3143273" lon="-7.6174605"><ele>832.0</ele><time>2026-04-25T17:34:02.053Z</time></trkpt><trkpt lat="42.3142746" lon="-7.6175176"><ele>831.0</ele><time>2026-04-25T17:34:04.049Z</time></trkpt><trkpt lat="42.3142182" lon="-7.6175922"><ele>830.0</ele><time>2026-04-25T17:34:06.051Z</time></trkpt><trkpt lat="42.3141528" lon="-7.6176617"><ele>829.0</ele><time>2026-04-25T17:34:08.057Z</time></trkpt><trkpt lat="42.3140949" lon="-7.6177211"><ele>828.0</ele><time>2026-04-25T17:34:10.058Z</time></trkpt><trkpt lat="42.314032" lon="-7.6177815"><ele>825.0</ele><time>2026-04-25T17:34:12.051Z</time></trkpt><trkpt lat="42.3139622" lon="-7.6178522"><ele>822.0</ele><time>2026-04-25T17:34:14.049Z</time></trkpt><trkpt lat="42.3138937" lon="-7.6179318"><ele>819.0</ele><time>2026-04-25T17:34:16.052Z</time></trkpt><trkpt lat="42.3138398" lon="-7.6179993"><ele>816.0</ele><time>2026-04-25T17:34:18.061Z</time></trkpt><trkpt lat="42.3137649" lon="-7.618072"><ele>813.0</ele><time>2026-04-25T17:34:21.06Z</time></trkpt><trkpt lat="42.3136851" lon="-7.6181287"><ele>810.0</ele><time>2026-04-25T17:34:23.051Z</time></trkpt><trkpt lat="42.3135936" lon="-7.6181884"><ele>810.0</ele><time>2026-04-25T17:34:25.049Z</time></trkpt><trkpt lat="42.3134966" lon="-7.6182502"><ele>810.0</ele><time>2026-04-25T17:34:27.043Z</time></trkpt><trkpt lat="42.3133988" lon="-7.6183226"><ele>810.0</ele><time>2026-04-25T17:34:29.056Z</time></trkpt><trkpt lat="42.3132742" lon="-7.6183977"><ele>810.0</ele><time>2026-04-25T17:34:31.051Z</time></trkpt><trkpt lat="42.3131562" lon="-7.6184453"><ele>809.1666666666666</ele><time>2026-04-25T17:34:33.055Z</time></trkpt><trkpt lat="42.3130542" lon="-7.618485"><ele>808.3333333333333</ele><time>2026-04-25T17:34:35.045Z</time></trkpt><trkpt lat="42.3129757" lon="-7.6185185"><ele>807.5</ele><time>2026-04-25T17:34:37.058Z</time></trkpt><trkpt lat="42.3129083" lon="-7.6185446"><ele>806.6666666666666</ele><time>2026-04-25T17:34:40.052Z</time></trkpt><trkpt lat="42.312833" lon="-7.6185843"><ele>805.8333333333333</ele><time>2026-04-25T17:34:42.05Z</time></trkpt><trkpt lat="42.3127629" lon="-7.6186407"><ele>805.0</ele><time>2026-04-25T17:34:45.063Z</time></trkpt><trkpt lat="42.3127445" lon="-7.6187406"><ele>803.4999999999999</ele><time>2026-04-25T17:34:49.052Z</time></trkpt><trkpt lat="42.3128167" lon="-7.6187869"><ele>802.0</ele><time>2026-04-25T17:34:55.056Z</time></trkpt><trkpt lat="42.3128965" lon="-7.6188038"><ele>800.5</ele><time>2026-04-25T17:34:58.051Z</time></trkpt><trkpt lat="42.3129759" lon="-7.6188184"><ele>799.0</ele><time>2026-04-25T17:35:01.052Z</time></trkpt><trkpt lat="42.3130607" lon="-7.6188353"><ele>797.4999999999999</ele><time>2026-04-25T17:35:04.062Z</time></trkpt><trkpt lat="42.3131447" lon="-7.6188514"><ele>796.0</ele><time>2026-04-25T17:35:06.054Z</time></trkpt><trkpt lat="42.3132495" lon="-7.6188561"><ele>795.1999999999999</ele><time>2026-04-25T17:35:08.051Z</time></trkpt><trkpt lat="42.3133545" lon="-7.6188597"><ele>794.4</ele><time>2026-04-25T17:35:10.059Z</time></trkpt><trkpt lat="42.3134732" lon="-7.6188803"><ele>793.6</ele><time>2026-04-25T17:35:12.046Z</time></trkpt><trkpt lat="42.3135796" lon="-7.6189143"><ele>792.8</ele><time>2026-04-25T17:35:14.057Z</time></trkpt><trkpt lat="42.313642" lon="-7.618927"><ele>792.0</ele><time>2026-04-25T17:35:15.067Z</time></trkpt><trkpt lat="42.3137125" lon="-7.6189366"><ele>792.0</ele><time>2026-04-25T17:35:16.052Z</time></trkpt><trkpt lat="42.3138167" lon="-7.6189643"><ele>792.0</ele><time>2026-04-25T17:35:18.047Z</time></trkpt><trkpt lat="42.3138926" lon="-7.6189843"><ele>792.0</ele><time>2026-04-25T17:35:20.056Z</time></trkpt><trkpt lat="42.3139638" lon="-7.6190066"><ele>792.0</ele><time>2026-04-25T17:35:22.063Z</time></trkpt><trkpt lat="42.3140292" lon="-7.6190288"><ele>792.0</ele><time>2026-04-25T17:35:24.05Z</time></trkpt><trkpt lat="42.3140969" lon="-7.6190444"><ele>792.0</ele><time>2026-04-25T17:35:26.051Z</time></trkpt><trkpt lat="42.314172" lon="-7.6191072"><ele>791.6666666666666</ele><time>2026-04-25T17:35:29.055Z</time></trkpt><trkpt lat="42.3142175" lon="-7.6192148"><ele>791.3333333333333</ele><time>2026-04-25T17:35:32.056Z</time></trkpt><trkpt lat="42.3142349" lon="-7.619327"><ele>791.0</ele><time>2026-04-25T17:35:34.056Z</time></trkpt><trkpt lat="42.3142403" lon="-7.619441"><ele>790.6666666666666</ele><time>2026-04-25T17:35:36.06Z</time></trkpt><trkpt lat="42.3142425" lon="-7.6195402"><ele>790.3333333333333</ele><time>2026-04-25T17:35:38.049Z</time></trkpt><trkpt lat="42.3142439" lon="-7.6196479"><ele>790.0</ele><time>2026-04-25T17:35:40.053Z</time></trkpt><trkpt lat="42.3142438" lon="-7.6197368"><ele>787.8333333333333</ele><time>2026-04-25T17:35:42.047Z</time></trkpt><trkpt lat="42.3142209" lon="-7.6198219"><ele>785.6666666666666</ele><time>2026-04-25T17:35:45.054Z</time></trkpt><trkpt lat="42.314165" lon="-7.6199411"><ele>783.5</ele><time>2026-04-25T17:35:48.049Z</time></trkpt><trkpt lat="42.3141281" lon="-7.6200439"><ele>781.3333333333333</ele><time>2026-04-25T17:35:50.046Z</time></trkpt><trkpt lat="42.3141014" lon="-7.6201622"><ele>779.1666666666666</ele><time>2026-04-25T17:35:52.045Z</time></trkpt><trkpt lat="42.3140786" lon="-7.6202737"><ele>777.0</ele><time>2026-04-25T17:35:54.049Z</time></trkpt><trkpt lat="42.3140533" lon="-7.6203807"><ele>775.3333333333334</ele><time>2026-04-25T17:35:56.059Z</time></trkpt><trkpt lat="42.3140208" lon="-7.620481"><ele>773.6666666666666</ele><time>2026-04-25T17:35:58.055Z</time></trkpt><trkpt lat="42.3139811" lon="-7.620572"><ele>772.0</ele><time>2026-04-25T17:36:00.054Z</time></trkpt><trkpt lat="42.3139373" lon="-7.620684"><ele>770.3333333333333</ele><time>2026-04-25T17:36:02.055Z</time></trkpt><trkpt lat="42.3139028" lon="-7.6208065"><ele>768.6666666666666</ele><time>2026-04-25T17:36:04.051Z</time></trkpt><trkpt lat="42.31386" lon="-7.6209245"><ele>767.0</ele><time>2026-04-25T17:36:06.055Z</time></trkpt><trkpt lat="42.3138034" lon="-7.6210212"><ele>765.8</ele><time>2026-04-25T17:36:08.052Z</time></trkpt><trkpt lat="42.3137384" lon="-7.6210988"><ele>764.6</ele><time>2026-04-25T17:36:10.059Z</time></trkpt><trkpt lat="42.3136516" lon="-7.6211951"><ele>763.4</ele><time>2026-04-25T17:36:12.046Z</time></trkpt><trkpt lat="42.3135687" lon="-7.6212895"><ele>762.1999999999999</ele><time>2026-04-25T17:36:14.052Z</time></trkpt><trkpt lat="42.3135042" lon="-7.6213682"><ele>761.0</ele><time>2026-04-25T17:36:16.049Z</time></trkpt><trkpt lat="42.3134508" lon="-7.6214552"><ele>759.8333333333333</ele><time>2026-04-25T17:36:18.054Z</time></trkpt><trkpt lat="42.3134256" lon="-7.6215584"><ele>758.6666666666666</ele><time>2026-04-25T17:36:20.057Z</time></trkpt><trkpt lat="42.3134134" lon="-7.6216826"><ele>757.5</ele><time>2026-04-25T17:36:22.053Z</time></trkpt><trkpt lat="42.3134255" lon="-7.6218021"><ele>756.3333333333334</ele><time>2026-04-25T17:36:24.056Z</time></trkpt><trkpt lat="42.3134333" lon="-7.6219366"><ele>755.1666666666667</ele><time>2026-04-25T17:36:26.054Z</time></trkpt><trkpt lat="42.3134412" lon="-7.6220271"><ele>754.0</ele><time>2026-04-25T17:36:28.046Z</time></trkpt><trkpt lat="42.3134617" lon="-7.6221189"><ele>752.3333333333334</ele><time>2026-04-25T17:36:32.052Z</time></trkpt><trkpt lat="42.3134811" lon="-7.622204"><ele>750.6666666666667</ele><time>2026-04-25T17:36:36.053Z</time></trkpt><trkpt lat="42.3135063" lon="-7.6222828"><ele>749.0</ele><time>2026-04-25T17:36:41.053Z</time></trkpt><trkpt lat="42.313522" lon="-7.62239"><ele>747.3333333333334</ele><time>2026-04-25T17:36:44.058Z</time></trkpt><trkpt lat="42.3135508" lon="-7.6225186"><ele>745.6666666666666</ele><time>2026-04-25T17:36:46.052Z</time></trkpt><trkpt lat="42.3135958" lon="-7.622652"><ele>744.0</ele><time>2026-04-25T17:36:48.048Z</time></trkpt><trkpt lat="42.313636" lon="-7.6227773"><ele>741.5</ele><time>2026-04-25T17:36:50.05Z</time></trkpt><trkpt lat="42.3136844" lon="-7.6228471"><ele>739.0</ele><time>2026-04-25T17:36:51.047Z</time></trkpt><trkpt lat="42.3137731" lon="-7.6229212"><ele>736.5</ele><time>2026-04-25T17:36:53.047Z</time></trkpt><trkpt lat="42.3138376" lon="-7.622954"><ele>734.0</ele><time>2026-04-25T17:36:55.055Z</time></trkpt><trkpt lat="42.313903" lon="-7.6229931"><ele>731.5</ele><time>2026-04-25T17:36:57.057Z</time></trkpt><trkpt lat="42.3139364" lon="-7.6230932"><ele>729.0</ele><time>2026-04-25T17:36:59.05Z</time></trkpt><trkpt lat="42.313912" lon="-7.6232261"><ele>728.6666666666666</ele><time>2026-04-25T17:37:01.046Z</time></trkpt><trkpt lat="42.3139212" lon="-7.6233698"><ele>728.3333333333334</ele><time>2026-04-25T17:37:03.056Z</time></trkpt><trkpt lat="42.3139511" lon="-7.6234596"><ele>728.0</ele><time>2026-04-25T17:37:05.046Z</time></trkpt><trkpt lat="42.3139888" lon="-7.6235335"><ele>727.6666666666667</ele><time>2026-04-25T17:37:08.052Z</time></trkpt><trkpt lat="42.3139524" lon="-7.6236559"><ele>727.3333333333334</ele><time>2026-04-25T17:37:11.053Z</time></trkpt><trkpt lat="42.3139214" lon="-7.6237904"><ele>727.0</ele><time>2026-04-25T17:37:13.059Z</time></trkpt><trkpt lat="42.3139073" lon="-7.6238804"><ele>725.0</ele><time>2026-04-25T17:37:14.056Z</time></trkpt><trkpt lat="42.3138902" lon="-7.6239785"><ele>723.0</ele><time>2026-04-25T17:37:15.053Z</time></trkpt><trkpt lat="42.3138684" lon="-7.6240861"><ele>721.0</ele><time>2026-04-25T17:37:16.051Z</time></trkpt><trkpt lat="42.313844" lon="-7.6241926"><ele>719.0</ele><time>2026-04-25T17:37:17.051Z</time></trkpt><trkpt lat="42.3138278" lon="-7.6242892"><ele>717.0</ele><time>2026-04-25T17:37:18.051Z</time></trkpt><trkpt lat="42.3138117" lon="-7.6244049"><ele>715.0</ele><time>2026-04-25T17:37:20.048Z</time></trkpt><trkpt lat="42.3138003" lon="-7.6244899"><ele>714.0</ele><time>2026-04-25T17:37:22.047Z</time></trkpt><trkpt lat="42.3137819" lon="-7.6245803"><ele>713.0</ele><time>2026-04-25T17:37:24.057Z</time></trkpt><trkpt lat="42.3137592" lon="-7.6246929"><ele>712.0</ele><time>2026-04-25T17:37:26.077Z</time></trkpt><trkpt lat="42.3137323" lon="-7.6248401"><ele>711.0</ele><time>2026-04-25T17:37:28.052Z</time></trkpt><trkpt lat="42.3137128" lon="-7.6249288"><ele>710.0</ele><time>2026-04-25T17:37:29.053Z</time></trkpt><trkpt lat="42.3136942" lon="-7.6250242"><ele>709.0</ele><time>2026-04-25T17:37:30.053Z</time></trkpt><trkpt lat="42.3136715" lon="-7.6251259"><ele>709.0</ele><time>2026-04-25T17:37:31.053Z</time></trkpt><trkpt lat="42.3136453" lon="-7.6252324"><ele>709.0</ele><time>2026-04-25T17:37:32.052Z</time></trkpt><trkpt lat="42.31362" lon="-7.625345"><ele>709.0</ele><time>2026-04-25T17:37:33.05Z</time></trkpt><trkpt lat="42.3135978" lon="-7.6254671"><ele>709.0</ele><time>2026-04-25T17:37:34.057Z</time></trkpt><trkpt lat="42.3135731" lon="-7.6255936"><ele>709.0</ele><time>2026-04-25T17:37:35.056Z</time></trkpt><trkpt lat="42.313548" lon="-7.6257253"><ele>707.6</ele><time>2026-04-25T17:37:36.05Z</time></trkpt><trkpt lat="42.3135238" lon="-7.6258608"><ele>706.2</ele><time>2026-04-25T17:37:37.054Z</time></trkpt><trkpt lat="42.3134971" lon="-7.6259996"><ele>704.8000000000001</ele><time>2026-04-25T17:37:38.055Z</time></trkpt><trkpt lat="42.3134683" lon="-7.6261415"><ele>703.4000000000001</ele><time>2026-04-25T17:37:39.048Z</time></trkpt><trkpt lat="42.3134397" lon="-7.6262885"><ele>702.0</ele><time>2026-04-25T17:37:40.057Z</time></trkpt><trkpt lat="42.3134082" lon="-7.6264409"><ele>700.5</ele><time>2026-04-25T17:37:41.052Z</time></trkpt><trkpt lat="42.3133755" lon="-7.6265965"><ele>699.0</ele><time>2026-04-25T17:37:42.058Z</time></trkpt><trkpt lat="42.3133437" lon="-7.6267556"><ele>697.5</ele><time>2026-04-25T17:37:43.051Z</time></trkpt><trkpt lat="42.3133113" lon="-7.6269184"><ele>696.0</ele><time>2026-04-25T17:37:44.057Z</time></trkpt><trkpt lat="42.3132779" lon="-7.6270816"><ele>694.25</ele><time>2026-04-25T17:37:45.09Z</time></trkpt><trkpt lat="42.3132458" lon="-7.6272488"><ele>692.5</ele><time>2026-04-25T17:37:46.053Z</time></trkpt><trkpt lat="42.3132135" lon="-7.6274171"><ele>690.75</ele><time>2026-04-25T17:37:47.055Z</time></trkpt><trkpt lat="42.3131864" lon="-7.6275618"><ele>689.0</ele><time>2026-04-25T17:37:48.053Z</time></trkpt><trkpt lat="42.3131662" lon="-7.627671"><ele>689.0</ele><time>2026-04-25T17:37:49.05Z</time></trkpt><trkpt lat="42.3131421" lon="-7.6278"><ele>689.0</ele><time>2026-04-25T17:37:51.048Z</time></trkpt><trkpt lat="42.3131204" lon="-7.6279138"><ele>689.0</ele><time>2026-04-25T17:37:53.06Z</time></trkpt><trkpt lat="42.3130939" lon="-7.6280543"><ele>689.0</ele><time>2026-04-25T17:37:55.055Z</time></trkpt><trkpt lat="42.3130582" lon="-7.6282213"><ele>689.0</ele><time>2026-04-25T17:37:57.048Z</time></trkpt><trkpt lat="42.3130398" lon="-7.6283146"><ele>688.1666666666666</ele><time>2026-04-25T17:37:58.055Z</time></trkpt><trkpt lat="42.313023" lon="-7.6283987"><ele>687.3333333333333</ele><time>2026-04-25T17:37:59.057Z</time></trkpt><trkpt lat="42.313006" lon="-7.6284896"><ele>686.5</ele><time>2026-04-25T17:38:01.054Z</time></trkpt><trkpt lat="42.3129796" lon="-7.6286091"><ele>685.6666666666666</ele><time>2026-04-25T17:38:13.061Z</time></trkpt><trkpt lat="42.3129602" lon="-7.6287096"><ele>684.8333333333334</ele><time>2026-04-25T17:38:15.048Z</time></trkpt><trkpt lat="42.3129349" lon="-7.6288356"><ele>684.0</ele><time>2026-04-25T17:38:17.052Z</time></trkpt><trkpt lat="42.3129053" lon="-7.6289895"><ele>682.3333333333334</ele><time>2026-04-25T17:38:19.05Z</time></trkpt><trkpt lat="42.3128875" lon="-7.6290755"><ele>680.6666666666666</ele><time>2026-04-25T17:38:20.053Z</time></trkpt><trkpt lat="42.312869" lon="-7.6291685"><ele>679.0</ele><time>2026-04-25T17:38:21.049Z</time></trkpt><trkpt lat="42.312849" lon="-7.6292681"><ele>677.3333333333333</ele><time>2026-04-25T17:38:22.054Z</time></trkpt><trkpt lat="42.3128277" lon="-7.6293753"><ele>675.6666666666666</ele><time>2026-04-25T17:38:23.054Z</time></trkpt><trkpt lat="42.3128055" lon="-7.6294889"><ele>674.0</ele><time>2026-04-25T17:38:24.055Z</time></trkpt><trkpt lat="42.3127808" lon="-7.629609"><ele>672.8000000000001</ele><time>2026-04-25T17:38:25.055Z</time></trkpt><trkpt lat="42.3127557" lon="-7.6297359"><ele>671.6</ele><time>2026-04-25T17:38:26.052Z</time></trkpt><trkpt lat="42.3127314" lon="-7.6298703"><ele>670.4</ele><time>2026-04-25T17:38:27.051Z</time></trkpt><trkpt lat="42.3127061" lon="-7.6300112"><ele>669.2</ele><time>2026-04-25T17:38:28.053Z</time></trkpt><trkpt lat="42.3126789" lon="-7.6301579"><ele>668.0</ele><time>2026-04-25T17:38:29.047Z</time></trkpt><trkpt lat="42.312649" lon="-7.6303092"><ele>667.0</ele><time>2026-04-25T17:38:30.054Z</time></trkpt><trkpt lat="42.3126166" lon="-7.6304647"><ele>666.0</ele><time>2026-04-25T17:38:31.051Z</time></trkpt><trkpt lat="42.3125826" lon="-7.6306245"><ele>665.0</ele><time>2026-04-25T17:38:32.057Z</time></trkpt><trkpt lat="42.3125475" lon="-7.6307884"><ele>664.0</ele><time>2026-04-25T17:38:33.054Z</time></trkpt><trkpt lat="42.3125134" lon="-7.6309552"><ele>664.0</ele><time>2026-04-25T17:38:34.061Z</time></trkpt><trkpt lat="42.3124811" lon="-7.6311255"><ele>664.0</ele><time>2026-04-25T17:38:35.054Z</time></trkpt><trkpt lat="42.3124491" lon="-7.6312973"><ele>664.0</ele><time>2026-04-25T17:38:36.058Z</time></trkpt><trkpt lat="42.3124155" lon="-7.6314692"><ele>664.0</ele><time>2026-04-25T17:38:37.048Z</time></trkpt><trkpt lat="42.312382" lon="-7.6316431"><ele>663.1666666666667</ele><time>2026-04-25T17:38:38.054Z</time></trkpt><trkpt lat="42.3123507" lon="-7.6318013"><ele>662.3333333333334</ele><time>2026-04-25T17:38:39.051Z</time></trkpt><trkpt lat="42.3123224" lon="-7.6319278"><ele>661.5</ele><time>2026-04-25T17:38:40.055Z</time></trkpt><trkpt lat="42.3122907" lon="-7.6320295"><ele>660.6666666666666</ele><time>2026-04-25T17:38:41.053Z</time></trkpt><trkpt lat="42.3122632" lon="-7.6321125"><ele>659.8333333333333</ele><time>2026-04-25T17:38:42.056Z</time></trkpt><trkpt lat="42.3122038" lon="-7.6321417"><ele>659.0</ele><time>2026-04-25T17:38:43.056Z</time></trkpt><trkpt lat="42.3121411" lon="-7.632133"><ele>658.4285714285714</ele><time>2026-04-25T17:38:44.056Z</time></trkpt><trkpt lat="42.3120807" lon="-7.6321052"><ele>657.8571428571428</ele><time>2026-04-25T17:38:45.059Z</time></trkpt><trkpt lat="42.3120231" lon="-7.6320672"><ele>657.2857142857142</ele><time>2026-04-25T17:38:46.051Z</time></trkpt><trkpt lat="42.3119648" lon="-7.632024"><ele>656.7142857142858</ele><time>2026-04-25T17:38:47.055Z</time></trkpt><trkpt lat="42.3119053" lon="-7.6319789"><ele>656.1428571428571</ele><time>2026-04-25T17:38:48.057Z</time></trkpt><trkpt lat="42.311843" lon="-7.6319296"><ele>655.5714285714286</ele><time>2026-04-25T17:38:49.048Z</time></trkpt><trkpt lat="42.3117719" lon="-7.6318883"><ele>655.0</ele><time>2026-04-25T17:38:50.053Z</time></trkpt><trkpt lat="42.3117017" lon="-7.6318481"><ele>655.0</ele><time>2026-04-25T17:38:51.057Z</time></trkpt><trkpt lat="42.3116315" lon="-7.6318131"><ele>655.0</ele><time>2026-04-25T17:38:52.051Z</time></trkpt><trkpt lat="42.3115201" lon="-7.6318484"><ele>655.0</ele><time>2026-04-25T17:38:54.055Z</time></trkpt><trkpt lat="42.3114617" lon="-7.6319935"><ele>655.0</ele><time>2026-04-25T17:38:56.056Z</time></trkpt><trkpt lat="42.3114308" lon="-7.6320714"><ele>655.0</ele><time>2026-04-25T17:38:57.054Z</time></trkpt><trkpt lat="42.3113989" lon="-7.6321475"><ele>655.0</ele><time>2026-04-25T17:38:58.058Z</time></trkpt><trkpt lat="42.3113625" lon="-7.6322231"><ele>652.8333333333334</ele><time>2026-04-25T17:38:59.056Z</time></trkpt><trkpt lat="42.3113309" lon="-7.6323011"><ele>650.6666666666667</ele><time>2026-04-25T17:39:00.054Z</time></trkpt><trkpt lat="42.3112979" lon="-7.632383"><ele>648.5</ele><time>2026-04-25T17:39:01.052Z</time></trkpt><trkpt lat="42.3112615" lon="-7.6324646"><ele>646.3333333333334</ele><time>2026-04-25T17:39:02.05Z</time></trkpt><trkpt lat="42.3112239" lon="-7.6325418"><ele>644.1666666666666</ele><time>2026-04-25T17:39:03.054Z</time></trkpt><trkpt lat="42.3111589" lon="-7.6326783"><ele>642.0</ele><time>2026-04-25T17:39:05.049Z</time></trkpt><trkpt lat="42.3111239" lon="-7.6327928"><ele>641.8333333333334</ele><time>2026-04-25T17:39:07.127Z</time></trkpt><trkpt lat="42.3110998" lon="-7.6328835"><ele>641.6666666666666</ele><time>2026-04-25T17:39:09.107Z</time></trkpt><trkpt lat="42.3110719" lon="-7.6329793"><ele>641.5</ele><time>2026-04-25T17:39:11.064Z</time></trkpt><trkpt lat="42.3110315" lon="-7.6331252"><ele>641.3333333333333</ele><time>2026-04-25T17:39:13.058Z</time></trkpt><trkpt lat="42.31101" lon="-7.6332278"><ele>641.1666666666666</ele><time>2026-04-25T17:39:14.054Z</time></trkpt><trkpt lat="42.3109807" lon="-7.6333238"><ele>641.0</ele><time>2026-04-25T17:39:15.055Z</time></trkpt><trkpt lat="42.3109568" lon="-7.6334063"><ele>641.0</ele><time>2026-04-25T17:39:16.051Z</time></trkpt><trkpt lat="42.3109553" lon="-7.6335486"><ele>641.0</ele><time>2026-04-25T17:39:18.057Z</time></trkpt><trkpt lat="42.3109375" lon="-7.6336333"><ele>641.0</ele><time>2026-04-25T17:39:20.055Z</time></trkpt><trkpt lat="42.3108938" lon="-7.6335705"><ele>641.0</ele><time>2026-04-25T17:44:57.06Z</time></trkpt><trkpt lat="42.3108828" lon="-7.6334773"><ele>641.0</ele><time>2026-04-25T18:06:11.046Z</time></trkpt><trkpt lat="42.3109501" lon="-7.6334247"><ele>641.0</ele><time>2026-04-25T18:06:19.086Z</time></trkpt><trkpt lat="42.3110071" lon="-7.6334672"><ele>641.0</ele><time>2026-04-25T18:06:22.075Z</time></trkpt><trkpt lat="42.3110392" lon="-7.633552"><ele>640.4</ele><time>2026-04-25T18:06:24.076Z</time></trkpt><trkpt lat="42.3110636" lon="-7.6336715"><ele>639.8</ele><time>2026-04-25T18:06:26.068Z</time></trkpt><trkpt lat="42.3110908" lon="-7.6338135"><ele>639.1999999999999</ele><time>2026-04-25T18:06:28.07Z</time></trkpt><trkpt lat="42.3111221" lon="-7.6339764"><ele>638.5999999999999</ele><time>2026-04-25T18:06:30.075Z</time></trkpt><trkpt lat="42.31114" lon="-7.6340688"><ele>638.0</ele><time>2026-04-25T18:06:31.079Z</time></trkpt><trkpt lat="42.3111591" lon="-7.634164"><ele>638.0</ele><time>2026-04-25T18:06:32.079Z</time></trkpt><trkpt lat="42.311179" lon="-7.634261"><ele>638.0</ele><time>2026-04-25T18:06:33.085Z</time></trkpt><trkpt lat="42.3111988" lon="-7.6343576"><ele>638.0</ele><time>2026-04-25T18:06:34.076Z</time></trkpt><trkpt lat="42.3112155" lon="-7.634454"><ele>638.0</ele><time>2026-04-25T18:06:35.068Z</time></trkpt><trkpt lat="42.3112289" lon="-7.6345544"><ele>638.0</ele><time>2026-04-25T18:06:36.073Z</time></trkpt><trkpt lat="42.311234" lon="-7.634658"><ele>638.0</ele><time>2026-04-25T18:06:37.075Z</time></trkpt><trkpt lat="42.3112332" lon="-7.6347672"><ele>636.4</ele><time>2026-04-25T18:06:38.085Z</time></trkpt><trkpt lat="42.3112251" lon="-7.6348812"><ele>634.8</ele><time>2026-04-25T18:06:39.07Z</time></trkpt><trkpt lat="42.3112098" lon="-7.6349985"><ele>633.2</ele><time>2026-04-25T18:06:40.074Z</time></trkpt><trkpt lat="42.3111874" lon="-7.6351218"><ele>631.6</ele><time>2026-04-25T18:06:41.082Z</time></trkpt><trkpt lat="42.3111626" lon="-7.6352532"><ele>630.0</ele><time>2026-04-25T18:06:42.071Z</time></trkpt><trkpt lat="42.3111349" lon="-7.6353931"><ele>628.0</ele><time>2026-04-25T18:06:43.083Z</time></trkpt><trkpt lat="42.3111036" lon="-7.6355379"><ele>626.0</ele><time>2026-04-25T18:06:44.088Z</time></trkpt><trkpt lat="42.3110691" lon="-7.6356862"><ele>624.0</ele><time>2026-04-25T18:06:45.074Z</time></trkpt><trkpt lat="42.311033" lon="-7.635838"><ele>622.0</ele><time>2026-04-25T18:06:46.082Z</time></trkpt><trkpt lat="42.3109957" lon="-7.6359922"><ele>623.75</ele><time>2026-04-25T18:06:47.077Z</time></trkpt><trkpt lat="42.3109573" lon="-7.6361485"><ele>625.5</ele><time>2026-04-25T18:06:48.082Z</time></trkpt><trkpt lat="42.3109183" lon="-7.6363072"><ele>627.25</ele><time>2026-04-25T18:06:49.087Z</time></trkpt><trkpt lat="42.3108781" lon="-7.6364675"><ele>629.0</ele><time>2026-04-25T18:06:50.078Z</time></trkpt><trkpt lat="42.3108378" lon="-7.6366304"><ele>629.0</ele><time>2026-04-25T18:06:51.076Z</time></trkpt><trkpt lat="42.3107972" lon="-7.6367952"><ele>629.0</ele><time>2026-04-25T18:06:52.067Z</time></trkpt><trkpt lat="42.3107564" lon="-7.6369612"><ele>629.0</ele><time>2026-04-25T18:06:53.069Z</time></trkpt><trkpt lat="42.3107155" lon="-7.6371258"><ele>629.0</ele><time>2026-04-25T18:06:54.074Z</time></trkpt><trkpt lat="42.3106739" lon="-7.6372938"><ele>628.75</ele><time>2026-04-25T18:06:55.076Z</time></trkpt><trkpt lat="42.3106325" lon="-7.6374594"><ele>628.5</ele><time>2026-04-25T18:06:56.074Z</time></trkpt><trkpt lat="42.3105897" lon="-7.6376302"><ele>628.25</ele><time>2026-04-25T18:06:57.072Z</time></trkpt><trkpt lat="42.3105476" lon="-7.6377996"><ele>628.0</ele><time>2026-04-25T18:06:58.082Z</time></trkpt><trkpt lat="42.3105068" lon="-7.6379698"><ele>627.75</ele><time>2026-04-25T18:06:59.071Z</time></trkpt><trkpt lat="42.3104678" lon="-7.638138"><ele>627.5</ele><time>2026-04-25T18:07:00.073Z</time></trkpt><trkpt lat="42.3104283" lon="-7.6383084"><ele>627.25</ele><time>2026-04-25T18:07:01.073Z</time></trkpt><trkpt lat="42.3103907" lon="-7.6384697"><ele>627.0</ele><time>2026-04-25T18:07:02.072Z</time></trkpt><trkpt lat="42.3103583" lon="-7.6386436"><ele>625.75</ele><time>2026-04-25T18:07:03.076Z</time></trkpt><trkpt lat="42.3103323" lon="-7.6388206"><ele>624.5</ele><time>2026-04-25T18:07:04.077Z</time></trkpt><trkpt lat="42.3103134" lon="-7.6389977"><ele>623.25</ele><time>2026-04-25T18:07:05.067Z</time></trkpt><trkpt lat="42.3102957" lon="-7.6391788"><ele>622.0</ele><time>2026-04-25T18:07:06.073Z</time></trkpt><trkpt lat="42.310279" lon="-7.6393505"><ele>621.25</ele><time>2026-04-25T18:07:07.077Z</time></trkpt><trkpt lat="42.3102748" lon="-7.6395302"><ele>620.5</ele><time>2026-04-25T18:07:08.086Z</time></trkpt><trkpt lat="42.3102741" lon="-7.6397112"><ele>619.75</ele><time>2026-04-25T18:07:09.071Z</time></trkpt><trkpt lat="42.3102751" lon="-7.6398942"><ele>619.0</ele><time>2026-04-25T18:07:10.074Z</time></trkpt><trkpt lat="42.3102778" lon="-7.640076"><ele>619.0</ele><time>2026-04-25T18:07:11.075Z</time></trkpt><trkpt lat="42.3102813" lon="-7.6402591"><ele>619.0</ele><time>2026-04-25T18:07:12.078Z</time></trkpt><trkpt lat="42.310282" lon="-7.6404434"><ele>619.0</ele><time>2026-04-25T18:07:13.07Z</time></trkpt><trkpt lat="42.310281" lon="-7.6406297"><ele>619.0</ele><time>2026-04-25T18:07:14.076Z</time></trkpt><trkpt lat="42.3102744" lon="-7.6408194"><ele>618.75</ele><time>2026-04-25T18:07:15.074Z</time></trkpt><trkpt lat="42.3102638" lon="-7.6410082"><ele>618.5</ele><time>2026-04-25T18:07:16.075Z</time></trkpt><trkpt lat="42.3102452" lon="-7.6411977"><ele>618.25</ele><time>2026-04-25T18:07:17.071Z</time></trkpt><trkpt lat="42.3102183" lon="-7.6413844"><ele>618.0</ele><time>2026-04-25T18:07:18.075Z</time></trkpt><trkpt lat="42.3101842" lon="-7.6415673"><ele>617.5</ele><time>2026-04-25T18:07:19.074Z</time></trkpt><trkpt lat="42.3101405" lon="-7.6417463"><ele>617.0</ele><time>2026-04-25T18:07:20.071Z</time></trkpt><trkpt lat="42.3100883" lon="-7.6419217"><ele>616.5</ele><time>2026-04-25T18:07:21.072Z</time></trkpt><trkpt lat="42.3100294" lon="-7.6420936"><ele>616.0</ele><time>2026-04-25T18:07:22.073Z</time></trkpt><trkpt lat="42.3099634" lon="-7.6422608"><ele>616.0</ele><time>2026-04-25T18:07:23.081Z</time></trkpt><trkpt lat="42.3098917" lon="-7.6424234"><ele>616.0</ele><time>2026-04-25T18:07:24.073Z</time></trkpt><trkpt lat="42.3098151" lon="-7.6425815"><ele>616.0</ele><time>2026-04-25T18:07:25.068Z</time></trkpt><trkpt lat="42.3097354" lon="-7.642738"><ele>616.0</ele><time>2026-04-25T18:07:26.077Z</time></trkpt><trkpt lat="42.3096543" lon="-7.6428942"><ele>615.25</ele><time>2026-04-25T18:07:27.07Z</time></trkpt><trkpt lat="42.3095716" lon="-7.6430504"><ele>614.5</ele><time>2026-04-25T18:07:28.076Z</time></trkpt><trkpt lat="42.3094886" lon="-7.6432081"><ele>613.75</ele><time>2026-04-25T18:07:29.08Z</time></trkpt><trkpt lat="42.3094059" lon="-7.6433674"><ele>613.0</ele><time>2026-04-25T18:07:30.075Z</time></trkpt><trkpt lat="42.3093242" lon="-7.6435285"><ele>614.25</ele><time>2026-04-25T18:07:31.085Z</time></trkpt><trkpt lat="42.3092433" lon="-7.6436935"><ele>615.5</ele><time>2026-04-25T18:07:32.072Z</time></trkpt><trkpt lat="42.3091666" lon="-7.6438638"><ele>616.75</ele><time>2026-04-25T18:07:33.071Z</time></trkpt><trkpt lat="42.3090965" lon="-7.6440416"><ele>618.0</ele><time>2026-04-25T18:07:34.08Z</time></trkpt><trkpt lat="42.309037" lon="-7.6442256"><ele>618.0</ele><time>2026-04-25T18:07:35.074Z</time></trkpt><trkpt lat="42.3089899" lon="-7.6444169"><ele>618.0</ele><time>2026-04-25T18:07:36.071Z</time></trkpt><trkpt lat="42.3089551" lon="-7.6446172"><ele>618.0</ele><time>2026-04-25T18:07:37.072Z</time></trkpt><trkpt lat="42.3089209" lon="-7.6448155"><ele>618.6666666666666</ele><time>2026-04-25T18:07:38.076Z</time></trkpt><trkpt lat="42.3089046" lon="-7.6450219"><ele>619.3333333333333</ele><time>2026-04-25T18:07:39.09Z</time></trkpt><trkpt lat="42.3089061" lon="-7.6452437"><ele>620.0</ele><time>2026-04-25T18:07:40.071Z</time></trkpt><trkpt lat="42.3089229" lon="-7.6454656"><ele>620.0</ele><time>2026-04-25T18:07:41.074Z</time></trkpt><trkpt lat="42.3089528" lon="-7.6456966"><ele>620.0</ele><time>2026-04-25T18:07:42.067Z</time></trkpt><trkpt lat="42.3089931" lon="-7.6459262"><ele>620.0</ele><time>2026-04-25T18:07:43.064Z</time></trkpt><trkpt lat="42.3090359" lon="-7.6461612"><ele>619.6666666666666</ele><time>2026-04-25T18:07:44.076Z</time></trkpt><trkpt lat="42.3090774" lon="-7.6464051"><ele>619.3333333333334</ele><time>2026-04-25T18:07:45.083Z</time></trkpt><trkpt lat="42.3091164" lon="-7.6466559"><ele>619.0</ele><time>2026-04-25T18:07:46.074Z</time></trkpt><trkpt lat="42.3091481" lon="-7.6469099"><ele>616.0</ele><time>2026-04-25T18:07:47.069Z</time></trkpt><trkpt lat="42.309171" lon="-7.647168"><ele>613.0</ele><time>2026-04-25T18:07:48.074Z</time></trkpt><trkpt lat="42.3091921" lon="-7.6474278"><ele>610.0</ele><time>2026-04-25T18:07:49.069Z</time></trkpt><trkpt lat="42.3091962" lon="-7.6476849"><ele>606.6666666666667</ele><time>2026-04-25T18:07:50.069Z</time></trkpt><trkpt lat="42.3092011" lon="-7.647959"><ele>603.3333333333334</ele><time>2026-04-25T18:07:51.078Z</time></trkpt><trkpt lat="42.3092075" lon="-7.6482355"><ele>600.0</ele><time>2026-04-25T18:07:52.078Z</time></trkpt><trkpt lat="42.309213" lon="-7.6485066"><ele>600.6666666666666</ele><time>2026-04-25T18:07:53.069Z</time></trkpt><trkpt lat="42.3092182" lon="-7.6487793"><ele>601.3333333333333</ele><time>2026-04-25T18:07:54.076Z</time></trkpt><trkpt lat="42.309221" lon="-7.6490579"><ele>602.0</ele><time>2026-04-25T18:07:55.073Z</time></trkpt><trkpt lat="42.3092201" lon="-7.6493328"><ele>604.6666666666666</ele><time>2026-04-25T18:07:56.078Z</time></trkpt><trkpt lat="42.3092221" lon="-7.6496084"><ele>607.3333333333334</ele><time>2026-04-25T18:07:57.071Z</time></trkpt><trkpt lat="42.3092262" lon="-7.6498843"><ele>610.0</ele><time>2026-04-25T18:07:58.071Z</time></trkpt><trkpt lat="42.3092304" lon="-7.6501569"><ele>612.0</ele><time>2026-04-25T18:07:59.069Z</time></trkpt><trkpt lat="42.3092328" lon="-7.650426"><ele>614.0</ele><time>2026-04-25T18:08:00.069Z</time></trkpt><trkpt lat="42.3092372" lon="-7.6506901"><ele>616.0</ele><time>2026-04-25T18:08:01.074Z</time></trkpt><trkpt lat="42.3092401" lon="-7.650948"><ele>617.3333333333334</ele><time>2026-04-25T18:08:02.07Z</time></trkpt><trkpt lat="42.3092406" lon="-7.651215"><ele>618.6666666666666</ele><time>2026-04-25T18:08:03.068Z</time></trkpt><trkpt lat="42.3092447" lon="-7.6514819"><ele>620.0</ele><time>2026-04-25T18:08:04.073Z</time></trkpt><trkpt lat="42.3092457" lon="-7.6517488"><ele>621.0</ele><time>2026-04-25T18:08:05.071Z</time></trkpt><trkpt lat="42.3092498" lon="-7.6520187"><ele>622.0</ele><time>2026-04-25T18:08:06.079Z</time></trkpt><trkpt lat="42.3092526" lon="-7.6522876"><ele>623.0</ele><time>2026-04-25T18:08:07.07Z</time></trkpt><trkpt lat="42.3092544" lon="-7.6525578"><ele>623.0</ele><time>2026-04-25T18:08:08.074Z</time></trkpt><trkpt lat="42.3092586" lon="-7.6528266"><ele>623.0</ele><time>2026-04-25T18:08:09.068Z</time></trkpt><trkpt lat="42.3092621" lon="-7.6531006"><ele>623.0</ele><time>2026-04-25T18:08:10.072Z</time></trkpt><trkpt lat="42.3092647" lon="-7.653374"><ele>623.3333333333333</ele><time>2026-04-25T18:08:11.071Z</time></trkpt><trkpt lat="42.3092661" lon="-7.6536438"><ele>623.6666666666666</ele><time>2026-04-25T18:08:12.072Z</time></trkpt><trkpt lat="42.3092674" lon="-7.6539164"><ele>624.0</ele><time>2026-04-25T18:08:13.068Z</time></trkpt><trkpt lat="42.3092698" lon="-7.6541886"><ele>624.3333333333334</ele><time>2026-04-25T18:08:14.071Z</time></trkpt><trkpt lat="42.3092723" lon="-7.6544603"><ele>624.6666666666667</ele><time>2026-04-25T18:08:15.068Z</time></trkpt><trkpt lat="42.3092843" lon="-7.6547247"><ele>625.0</ele><time>2026-04-25T18:08:16.079Z</time></trkpt><trkpt lat="42.3093104" lon="-7.6549816"><ele>625.0</ele><time>2026-04-25T18:08:17.067Z</time></trkpt><trkpt lat="42.3093543" lon="-7.6552342"><ele>625.0</ele><time>2026-04-25T18:08:18.066Z</time></trkpt><trkpt lat="42.3094137" lon="-7.6554778"><ele>625.0</ele><time>2026-04-25T18:08:19.071Z</time></trkpt><trkpt lat="42.3094912" lon="-7.6557163"><ele>625.0</ele><time>2026-04-25T18:08:20.079Z</time></trkpt><trkpt lat="42.3095765" lon="-7.655944"><ele>625.0</ele><time>2026-04-25T18:08:21.079Z</time></trkpt><trkpt lat="42.3096671" lon="-7.656167"><ele>625.0</ele><time>2026-04-25T18:08:22.081Z</time></trkpt><trkpt lat="42.3097598" lon="-7.6563861"><ele>629.0</ele><time>2026-04-25T18:08:23.079Z</time></trkpt><trkpt lat="42.3098537" lon="-7.6566025"><ele>633.0</ele><time>2026-04-25T18:08:24.08Z</time></trkpt><trkpt lat="42.3099455" lon="-7.656821"><ele>637.0</ele><time>2026-04-25T18:08:25.067Z</time></trkpt><trkpt lat="42.3100335" lon="-7.6570402"><ele>637.0</ele><time>2026-04-25T18:08:26.077Z</time></trkpt><trkpt lat="42.3101222" lon="-7.6572598"><ele>637.0</ele><time>2026-04-25T18:08:27.074Z</time></trkpt><trkpt lat="42.3102103" lon="-7.6574776"><ele>637.0</ele><time>2026-04-25T18:08:28.072Z</time></trkpt><trkpt lat="42.3102981" lon="-7.6576945"><ele>637.0</ele><time>2026-04-25T18:08:29.067Z</time></trkpt><trkpt lat="42.3103838" lon="-7.6579112"><ele>637.0</ele><time>2026-04-25T18:08:30.08Z</time></trkpt><trkpt lat="42.3104664" lon="-7.6581288"><ele>637.0</ele><time>2026-04-25T18:08:31.069Z</time></trkpt><trkpt lat="42.3105456" lon="-7.6583451"><ele>639.3333333333334</ele><time>2026-04-25T18:08:32.075Z</time></trkpt><trkpt lat="42.3106265" lon="-7.6585575"><ele>641.6666666666666</ele><time>2026-04-25T18:08:33.069Z</time></trkpt><trkpt lat="42.310695" lon="-7.6587876"><ele>644.0</ele><time>2026-04-25T18:08:34.08Z</time></trkpt><trkpt lat="42.3107526" lon="-7.6590062"><ele>644.0</ele><time>2026-04-25T18:08:35.067Z</time></trkpt><trkpt lat="42.3108036" lon="-7.659223"><ele>644.0</ele><time>2026-04-25T18:08:36.071Z</time></trkpt><trkpt lat="42.3108362" lon="-7.6594406"><ele>644.0</ele><time>2026-04-25T18:08:37.081Z</time></trkpt><trkpt lat="42.310855" lon="-7.6596578"><ele>645.5</ele><time>2026-04-25T18:08:38.076Z</time></trkpt><trkpt lat="42.3108671" lon="-7.6598607"><ele>647.0</ele><time>2026-04-25T18:08:39.072Z</time></trkpt><trkpt lat="42.3108707" lon="-7.6600584"><ele>648.5</ele><time>2026-04-25T18:08:40.068Z</time></trkpt><trkpt lat="42.3108665" lon="-7.6602644"><ele>650.0</ele><time>2026-04-25T18:08:41.068Z</time></trkpt><trkpt lat="42.3108508" lon="-7.6604725"><ele>654.0</ele><time>2026-04-25T18:08:42.079Z</time></trkpt><trkpt lat="42.3108251" lon="-7.6606851"><ele>658.0</ele><time>2026-04-25T18:08:43.077Z</time></trkpt><trkpt lat="42.3107919" lon="-7.660902"><ele>662.0</ele><time>2026-04-25T18:08:44.077Z</time></trkpt><trkpt lat="42.3107474" lon="-7.6611108"><ele>666.3333333333333</ele><time>2026-04-25T18:08:45.07Z</time></trkpt><trkpt lat="42.3106961" lon="-7.6613177"><ele>670.6666666666666</ele><time>2026-04-25T18:08:46.07Z</time></trkpt><trkpt lat="42.3106391" lon="-7.6615246"><ele>675.0</ele><time>2026-04-25T18:08:47.065Z</time></trkpt><trkpt lat="42.3105847" lon="-7.6617378"><ele>672.3333333333334</ele><time>2026-04-25T18:08:48.071Z</time></trkpt><trkpt lat="42.3105306" lon="-7.6619539"><ele>669.6666666666667</ele><time>2026-04-25T18:08:49.079Z</time></trkpt><trkpt lat="42.3104758" lon="-7.6621714"><ele>667.0</ele><time>2026-04-25T18:08:50.073Z</time></trkpt><trkpt lat="42.3104218" lon="-7.6623915"><ele>667.0</ele><time>2026-04-25T18:08:51.071Z</time></trkpt><trkpt lat="42.310367" lon="-7.6626132"><ele>667.0</ele><time>2026-04-25T18:08:52.075Z</time></trkpt><trkpt lat="42.3103114" lon="-7.6628391"><ele>667.0</ele><time>2026-04-25T18:08:53.099Z</time></trkpt><trkpt lat="42.3102557" lon="-7.6630664"><ele>668.0</ele><time>2026-04-25T18:08:54.073Z</time></trkpt><trkpt lat="42.3102024" lon="-7.6632957"><ele>669.0</ele><time>2026-04-25T18:08:55.07Z</time></trkpt><trkpt lat="42.3101501" lon="-7.6635265"><ele>670.0</ele><time>2026-04-25T18:08:56.067Z</time></trkpt><trkpt lat="42.3101013" lon="-7.6637513"><ele>673.0</ele><time>2026-04-25T18:08:57.068Z</time></trkpt><trkpt lat="42.3100469" lon="-7.6639785"><ele>676.0</ele><time>2026-04-25T18:08:58.069Z</time></trkpt><trkpt lat="42.3099913" lon="-7.6642254"><ele>679.0</ele><time>2026-04-25T18:08:59.069Z</time></trkpt><trkpt lat="42.3099347" lon="-7.6644599"><ele>681.6666666666667</ele><time>2026-04-25T18:09:00.067Z</time></trkpt><trkpt lat="42.3098751" lon="-7.6646863"><ele>684.3333333333334</ele><time>2026-04-25T18:09:01.071Z</time></trkpt><trkpt lat="42.3098125" lon="-7.66492"><ele>687.0</ele><time>2026-04-25T18:09:02.07Z</time></trkpt><trkpt lat="42.3097527" lon="-7.6651551"><ele>689.0</ele><time>2026-04-25T18:09:03.07Z</time></trkpt><trkpt lat="42.3096972" lon="-7.6653906"><ele>691.0</ele><time>2026-04-25T18:09:04.074Z</time></trkpt><trkpt lat="42.3096406" lon="-7.6656315"><ele>693.0</ele><time>2026-04-25T18:09:05.074Z</time></trkpt><trkpt lat="42.3095852" lon="-7.6658676"><ele>693.0</ele><time>2026-04-25T18:09:06.073Z</time></trkpt><trkpt lat="42.3095343" lon="-7.666107"><ele>693.0</ele><time>2026-04-25T18:09:07.079Z</time></trkpt><trkpt lat="42.309496" lon="-7.6663482"><ele>693.0</ele><time>2026-04-25T18:09:08.062Z</time></trkpt><trkpt lat="42.3094634" lon="-7.6665913"><ele>695.0</ele><time>2026-04-25T18:09:09.068Z</time></trkpt><trkpt lat="42.3094415" lon="-7.6668358"><ele>697.0</ele><time>2026-04-25T18:09:10.071Z</time></trkpt><trkpt lat="42.3094293" lon="-7.6670826"><ele>699.0</ele><time>2026-04-25T18:09:11.076Z</time></trkpt><trkpt lat="42.3094281" lon="-7.6673301"><ele>699.6666666666666</ele><time>2026-04-25T18:09:12.054Z</time></trkpt><trkpt lat="42.3094366" lon="-7.6675729"><ele>700.3333333333333</ele><time>2026-04-25T18:09:13.052Z</time></trkpt><trkpt lat="42.3094553" lon="-7.6678121"><ele>701.0</ele><time>2026-04-25T18:09:14.064Z</time></trkpt><trkpt lat="42.3094839" lon="-7.6680485"><ele>701.0</ele><time>2026-04-25T18:09:15.07Z</time></trkpt><trkpt lat="42.3095192" lon="-7.6682817"><ele>701.0</ele><time>2026-04-25T18:09:16.083Z</time></trkpt><trkpt lat="42.3095602" lon="-7.6685136"><ele>701.0</ele><time>2026-04-25T18:09:17.076Z</time></trkpt><trkpt lat="42.3096062" lon="-7.6687425"><ele>701.6666666666666</ele><time>2026-04-25T18:09:18.077Z</time></trkpt><trkpt lat="42.3096568" lon="-7.6689722"><ele>702.3333333333334</ele><time>2026-04-25T18:09:19.075Z</time></trkpt><trkpt lat="42.3097114" lon="-7.6692026"><ele>703.0</ele><time>2026-04-25T18:09:20.079Z</time></trkpt><trkpt lat="42.3097687" lon="-7.6694365"><ele>702.3333333333334</ele><time>2026-04-25T18:09:21.072Z</time></trkpt><trkpt lat="42.3098286" lon="-7.6696749"><ele>701.6666666666666</ele><time>2026-04-25T18:09:22.079Z</time></trkpt><trkpt lat="42.3098918" lon="-7.6699148"><ele>701.0</ele><time>2026-04-25T18:09:23.08Z</time></trkpt><trkpt lat="42.3099572" lon="-7.6701542"><ele>700.3333333333333</ele><time>2026-04-25T18:09:24.073Z</time></trkpt><trkpt lat="42.3100252" lon="-7.670397"><ele>699.6666666666666</ele><time>2026-04-25T18:09:25.074Z</time></trkpt><trkpt lat="42.3100961" lon="-7.6706436"><ele>699.0</ele><time>2026-04-25T18:09:26.077Z</time></trkpt><trkpt lat="42.3101692" lon="-7.6708939"><ele>698.6666666666666</ele><time>2026-04-25T18:09:27.074Z</time></trkpt><trkpt lat="42.3102419" lon="-7.6711458"><ele>698.3333333333333</ele><time>2026-04-25T18:09:28.081Z</time></trkpt><trkpt lat="42.3103126" lon="-7.6713965"><ele>698.0</ele><time>2026-04-25T18:09:29.083Z</time></trkpt><trkpt lat="42.3103814" lon="-7.6716435"><ele>698.0</ele><time>2026-04-25T18:09:30.079Z</time></trkpt><trkpt lat="42.3104486" lon="-7.6718851"><ele>698.0</ele><time>2026-04-25T18:09:31.074Z</time></trkpt><trkpt lat="42.3105199" lon="-7.6721183"><ele>698.0</ele><time>2026-04-25T18:09:32.072Z</time></trkpt><trkpt lat="42.3106061" lon="-7.6723354"><ele>697.6666666666666</ele><time>2026-04-25T18:09:33.072Z</time></trkpt><trkpt lat="42.3107105" lon="-7.6725327"><ele>697.3333333333334</ele><time>2026-04-25T18:09:34.082Z</time></trkpt><trkpt lat="42.3108258" lon="-7.6727049"><ele>697.0</ele><time>2026-04-25T18:09:35.069Z</time></trkpt><trkpt lat="42.3109508" lon="-7.6728765"><ele>697.0</ele><time>2026-04-25T18:09:36.057Z</time></trkpt><trkpt lat="42.3110709" lon="-7.673046"><ele>697.0</ele><time>2026-04-25T18:09:37.078Z</time></trkpt><trkpt lat="42.3111906" lon="-7.6732227"><ele>697.0</ele><time>2026-04-25T18:09:38.079Z</time></trkpt><trkpt lat="42.3113006" lon="-7.6733986"><ele>697.0</ele><time>2026-04-25T18:09:39.08Z</time></trkpt><trkpt lat="42.3114028" lon="-7.6735801"><ele>697.0</ele><time>2026-04-25T18:09:40.08Z</time></trkpt><trkpt lat="42.311485" lon="-7.6737729"><ele>697.0</ele><time>2026-04-25T18:09:41.072Z</time></trkpt><trkpt lat="42.311552" lon="-7.6739698"><ele>698.3333333333334</ele><time>2026-04-25T18:09:42.078Z</time></trkpt><trkpt lat="42.3115987" lon="-7.6741702"><ele>699.6666666666666</ele><time>2026-04-25T18:09:43.088Z</time></trkpt><trkpt lat="42.3116392" lon="-7.6743767"><ele>701.0</ele><time>2026-04-25T18:09:44.091Z</time></trkpt><trkpt lat="42.3116737" lon="-7.6745923"><ele>701.3333333333333</ele><time>2026-04-25T18:09:45.076Z</time></trkpt><trkpt lat="42.3117077" lon="-7.6748018"><ele>701.6666666666666</ele><time>2026-04-25T18:09:46.06Z</time></trkpt><trkpt lat="42.3117456" lon="-7.6750017"><ele>702.0</ele><time>2026-04-25T18:09:47.079Z</time></trkpt><trkpt lat="42.3117984" lon="-7.6751945"><ele>702.25</ele><time>2026-04-25T18:09:48.076Z</time></trkpt><trkpt lat="42.3118598" lon="-7.6753774"><ele>702.5</ele><time>2026-04-25T18:09:49.078Z</time></trkpt><trkpt lat="42.3119348" lon="-7.6755499"><ele>702.75</ele><time>2026-04-25T18:09:50.075Z</time></trkpt><trkpt lat="42.3120271" lon="-7.6757077"><ele>703.0</ele><time>2026-04-25T18:09:51.075Z</time></trkpt><trkpt lat="42.3121364" lon="-7.6758519"><ele>703.6666666666667</ele><time>2026-04-25T18:09:52.071Z</time></trkpt><trkpt lat="42.3122532" lon="-7.6759819"><ele>704.3333333333334</ele><time>2026-04-25T18:09:53.085Z</time></trkpt><trkpt lat="42.3123751" lon="-7.6760996"><ele>705.0</ele><time>2026-04-25T18:09:54.078Z</time></trkpt><trkpt lat="42.3124992" lon="-7.6762116"><ele>703.6666666666666</ele><time>2026-04-25T18:09:55.081Z</time></trkpt><trkpt lat="42.3126199" lon="-7.6763287"><ele>702.3333333333333</ele><time>2026-04-25T18:09:56.072Z</time></trkpt><trkpt lat="42.3127367" lon="-7.6764572"><ele>701.0</ele><time>2026-04-25T18:09:57.073Z</time></trkpt><trkpt lat="42.3128449" lon="-7.6765986"><ele>701.0</ele><time>2026-04-25T18:09:58.087Z</time></trkpt><trkpt lat="42.3129467" lon="-7.6767555"><ele>701.0</ele><time>2026-04-25T18:09:59.079Z</time></trkpt><trkpt lat="42.313042" lon="-7.676924"><ele>701.0</ele><time>2026-04-25T18:10:00.074Z</time></trkpt><trkpt lat="42.3131363" lon="-7.6770993"><ele>698.3333333333333</ele><time>2026-04-25T18:10:01.074Z</time></trkpt><trkpt lat="42.3132287" lon="-7.6772756"><ele>695.6666666666666</ele><time>2026-04-25T18:10:02.072Z</time></trkpt><trkpt lat="42.313322" lon="-7.6774516"><ele>693.0</ele><time>2026-04-25T18:10:03.075Z</time></trkpt><trkpt lat="42.3134191" lon="-7.6776216"><ele>689.6666666666666</ele><time>2026-04-25T18:10:04.084Z</time></trkpt><trkpt lat="42.3135229" lon="-7.6777838"><ele>686.3333333333333</ele><time>2026-04-25T18:10:05.073Z</time></trkpt><trkpt lat="42.3136367" lon="-7.6779329"><ele>683.0</ele><time>2026-04-25T18:10:06.071Z</time></trkpt><trkpt lat="42.3137638" lon="-7.6780593"><ele>683.0</ele><time>2026-04-25T18:10:07.068Z</time></trkpt><trkpt lat="42.3139033" lon="-7.6781648"><ele>683.0</ele><time>2026-04-25T18:10:08.07Z</time></trkpt><trkpt lat="42.3140502" lon="-7.6782458"><ele>683.0</ele><time>2026-04-25T18:10:09.069Z</time></trkpt><trkpt lat="42.3142043" lon="-7.6782976"><ele>684.6666666666666</ele><time>2026-04-25T18:10:10.063Z</time></trkpt><trkpt lat="42.3143613" lon="-7.6783195"><ele>686.3333333333334</ele><time>2026-04-25T18:10:11.077Z</time></trkpt><trkpt lat="42.3145192" lon="-7.6783107"><ele>688.0</ele><time>2026-04-25T18:10:12.063Z</time></trkpt><trkpt lat="42.3146743" lon="-7.6782747"><ele>686.3333333333334</ele><time>2026-04-25T18:10:13.084Z</time></trkpt><trkpt lat="42.314825" lon="-7.6782086"><ele>684.6666666666666</ele><time>2026-04-25T18:10:14.067Z</time></trkpt><trkpt lat="42.3149708" lon="-7.6781283"><ele>683.0</ele><time>2026-04-25T18:10:15.077Z</time></trkpt><trkpt lat="42.3151128" lon="-7.6780387"><ele>683.0</ele><time>2026-04-25T18:10:16.07Z</time></trkpt><trkpt lat="42.3152547" lon="-7.6779466"><ele>683.0</ele><time>2026-04-25T18:10:17.073Z</time></trkpt><trkpt lat="42.3153967" lon="-7.6778625"><ele>683.0</ele><time>2026-04-25T18:10:18.065Z</time></trkpt><trkpt lat="42.315551" lon="-7.6778065"><ele>682.0</ele><time>2026-04-25T18:10:19.071Z</time></trkpt><trkpt lat="42.3157023" lon="-7.6777642"><ele>681.0</ele><time>2026-04-25T18:10:20.053Z</time></trkpt><trkpt lat="42.3158574" lon="-7.6777524"><ele>680.0</ele><time>2026-04-25T18:10:21.046Z</time></trkpt><trkpt lat="42.3160135" lon="-7.677769"><ele>679.0</ele><time>2026-04-25T18:10:22.061Z</time></trkpt><trkpt lat="42.3161688" lon="-7.6778043"><ele>678.0</ele><time>2026-04-25T18:10:23.071Z</time></trkpt><trkpt lat="42.3163161" lon="-7.6778794"><ele>677.0</ele><time>2026-04-25T18:10:24.068Z</time></trkpt><trkpt lat="42.3164597" lon="-7.6779749"><ele>677.0</ele><time>2026-04-25T18:10:25.071Z</time></trkpt><trkpt lat="42.3165774" lon="-7.6780982"><ele>677.0</ele><time>2026-04-25T18:10:26.065Z</time></trkpt><trkpt lat="42.3166847" lon="-7.6782545"><ele>677.0</ele><time>2026-04-25T18:10:27.07Z</time></trkpt><trkpt lat="42.3167862" lon="-7.6784308"><ele>672.6666666666666</ele><time>2026-04-25T18:10:28.073Z</time></trkpt><trkpt lat="42.316876" lon="-7.6786267"><ele>668.3333333333334</ele><time>2026-04-25T18:10:29.065Z</time></trkpt><trkpt lat="42.3169536" lon="-7.6788362"><ele>664.0</ele><time>2026-04-25T18:10:30.067Z</time></trkpt><trkpt lat="42.317028" lon="-7.6790431"><ele>664.0</ele><time>2026-04-25T18:10:31.065Z</time></trkpt><trkpt lat="42.3171022" lon="-7.6792522"><ele>664.0</ele><time>2026-04-25T18:10:32.072Z</time></trkpt><trkpt lat="42.3171746" lon="-7.6794659"><ele>664.0</ele><time>2026-04-25T18:10:33.067Z</time></trkpt><trkpt lat="42.3172474" lon="-7.6796801"><ele>664.6666666666667</ele><time>2026-04-25T18:10:34.07Z</time></trkpt><trkpt lat="42.3173155" lon="-7.6798949"><ele>665.3333333333334</ele><time>2026-04-25T18:10:35.077Z</time></trkpt><trkpt lat="42.3173868" lon="-7.6801079"><ele>666.0</ele><time>2026-04-25T18:10:36.078Z</time></trkpt><trkpt lat="42.3174537" lon="-7.6803215"><ele>663.0</ele><time>2026-04-25T18:10:37.071Z</time></trkpt><trkpt lat="42.3175216" lon="-7.6805368"><ele>660.0</ele><time>2026-04-25T18:10:38.081Z</time></trkpt><trkpt lat="42.3175895" lon="-7.6807489"><ele>657.0</ele><time>2026-04-25T18:10:39.079Z</time></trkpt><trkpt lat="42.3176651" lon="-7.6809549"><ele>654.0</ele><time>2026-04-25T18:10:40.07Z</time></trkpt><trkpt lat="42.3177506" lon="-7.6811572"><ele>651.0</ele><time>2026-04-25T18:10:41.083Z</time></trkpt><trkpt lat="42.3178537" lon="-7.681356"><ele>648.0</ele><time>2026-04-25T18:10:42.068Z</time></trkpt><trkpt lat="42.3179629" lon="-7.6815407"><ele>646.6666666666666</ele><time>2026-04-25T18:10:43.079Z</time></trkpt><trkpt lat="42.3180754" lon="-7.6817147"><ele>645.3333333333333</ele><time>2026-04-25T18:10:44.071Z</time></trkpt><trkpt lat="42.3181943" lon="-7.6818835"><ele>644.0</ele><time>2026-04-25T18:10:45.074Z</time></trkpt><trkpt lat="42.3183142" lon="-7.6820521"><ele>644.0</ele><time>2026-04-25T18:10:46.061Z</time></trkpt><trkpt lat="42.3184366" lon="-7.6822199"><ele>644.0</ele><time>2026-04-25T18:10:47.073Z</time></trkpt><trkpt lat="42.3185615" lon="-7.682385"><ele>644.0</ele><time>2026-04-25T18:10:48.071Z</time></trkpt><trkpt lat="42.318685" lon="-7.6825528"><ele>644.0</ele><time>2026-04-25T18:10:49.07Z</time></trkpt><trkpt lat="42.3188048" lon="-7.6827273"><ele>644.0</ele><time>2026-04-25T18:10:50.075Z</time></trkpt><trkpt lat="42.3189181" lon="-7.6829099"><ele>644.0</ele><time>2026-04-25T18:10:51.066Z</time></trkpt><trkpt lat="42.3190212" lon="-7.6831065"><ele>642.6666666666666</ele><time>2026-04-25T18:10:52.064Z</time></trkpt><trkpt lat="42.3191101" lon="-7.6833114"><ele>641.3333333333334</ele><time>2026-04-25T18:10:53.066Z</time></trkpt><trkpt lat="42.3191874" lon="-7.6835231"><ele>640.0</ele><time>2026-04-25T18:10:54.036Z</time></trkpt><trkpt lat="42.3192594" lon="-7.6837369"><ele>640.0</ele><time>2026-04-25T18:10:55.061Z</time></trkpt><trkpt lat="42.3193338" lon="-7.6839455"><ele>640.0</ele><time>2026-04-25T18:10:56.067Z</time></trkpt><trkpt lat="42.3194028" lon="-7.6841384"><ele>640.0</ele><time>2026-04-25T18:10:57.062Z</time></trkpt><trkpt lat="42.3194919" lon="-7.684314"><ele>639.25</ele><time>2026-04-25T18:10:58.067Z</time></trkpt><trkpt lat="42.319589" lon="-7.6844695"><ele>638.5</ele><time>2026-04-25T18:10:59.064Z</time></trkpt><trkpt lat="42.3196962" lon="-7.6846071"><ele>637.75</ele><time>2026-04-25T18:11:00.07Z</time></trkpt><trkpt lat="42.319809" lon="-7.6847382"><ele>637.0</ele><time>2026-04-25T18:11:01.062Z</time></trkpt><trkpt lat="42.31995" lon="-7.684827"><ele>637.0</ele><time>2026-04-25T18:11:02.06Z</time></trkpt><trkpt lat="42.3200937" lon="-7.6848949"><ele>637.0</ele><time>2026-04-25T18:11:03.065Z</time></trkpt><trkpt lat="42.3202431" lon="-7.6849348"><ele>637.0</ele><time>2026-04-25T18:11:04.064Z</time></trkpt><trkpt lat="42.3203997" lon="-7.6849479"><ele>637.0</ele><time>2026-04-25T18:11:05.067Z</time></trkpt><trkpt lat="42.3205558" lon="-7.6849486"><ele>637.0</ele><time>2026-04-25T18:11:06.066Z</time></trkpt><trkpt lat="42.3207128" lon="-7.6849459"><ele>637.0</ele><time>2026-04-25T18:11:07.066Z</time></trkpt><trkpt lat="42.3208679" lon="-7.6849502"><ele>636.0</ele><time>2026-04-25T18:11:08.076Z</time></trkpt><trkpt lat="42.3210223" lon="-7.6849705"><ele>635.0</ele><time>2026-04-25T18:11:09.066Z</time></trkpt><trkpt lat="42.3211711" lon="-7.6850126"><ele>634.0</ele><time>2026-04-25T18:11:10.062Z</time></trkpt><trkpt lat="42.3213158" lon="-7.685078"><ele>632.3333333333334</ele><time>2026-04-25T18:11:11.076Z</time></trkpt><trkpt lat="42.3214582" lon="-7.6851664"><ele>630.6666666666666</ele><time>2026-04-25T18:11:12.069Z</time></trkpt><trkpt lat="42.3215865" lon="-7.6852829"><ele>629.0</ele><time>2026-04-25T18:11:13.067Z</time></trkpt><trkpt lat="42.3217041" lon="-7.6854037"><ele>625.6666666666666</ele><time>2026-04-25T18:11:14.065Z</time></trkpt><trkpt lat="42.3218057" lon="-7.685563"><ele>622.3333333333334</ele><time>2026-04-25T18:11:15.069Z</time></trkpt><trkpt lat="42.3218874" lon="-7.685741"><ele>619.0</ele><time>2026-04-25T18:11:16.103Z</time></trkpt><trkpt lat="42.3219494" lon="-7.6859337"><ele>617.0</ele><time>2026-04-25T18:11:17.072Z</time></trkpt><trkpt lat="42.3219912" lon="-7.686136"><ele>615.0</ele><time>2026-04-25T18:11:18.065Z</time></trkpt><trkpt lat="42.3220203" lon="-7.6863404"><ele>613.0</ele><time>2026-04-25T18:11:19.07Z</time></trkpt><trkpt lat="42.3220147" lon="-7.6865484"><ele>613.0</ele><time>2026-04-25T18:11:20.068Z</time></trkpt><trkpt lat="42.3219955" lon="-7.6867681"><ele>613.0</ele><time>2026-04-25T18:11:21.077Z</time></trkpt><trkpt lat="42.3219533" lon="-7.686981"><ele>613.0</ele><time>2026-04-25T18:11:22.072Z</time></trkpt><trkpt lat="42.3219177" lon="-7.6871927"><ele>612.6666666666667</ele><time>2026-04-25T18:11:23.071Z</time></trkpt><trkpt lat="42.3218813" lon="-7.6874005"><ele>612.3333333333334</ele><time>2026-04-25T18:11:24.068Z</time></trkpt><trkpt lat="42.321862" lon="-7.6876094"><ele>612.0</ele><time>2026-04-25T18:11:25.062Z</time></trkpt><trkpt lat="42.3218607" lon="-7.6878209"><ele>610.3333333333334</ele><time>2026-04-25T18:11:26.065Z</time></trkpt><trkpt lat="42.321877" lon="-7.688037"><ele>608.6666666666667</ele><time>2026-04-25T18:11:27.065Z</time></trkpt><trkpt lat="42.3219086" lon="-7.6882538"><ele>607.0</ele><time>2026-04-25T18:11:28.042Z</time></trkpt><trkpt lat="42.3219518" lon="-7.6884705"><ele>605.6666666666667</ele><time>2026-04-25T18:11:29.059Z</time></trkpt><trkpt lat="42.3219997" lon="-7.6886851"><ele>604.3333333333334</ele><time>2026-04-25T18:11:30.052Z</time></trkpt><trkpt lat="42.3220478" lon="-7.6888997"><ele>603.0</ele><time>2026-04-25T18:11:31.073Z</time></trkpt><trkpt lat="42.3221012" lon="-7.6891056"><ele>603.0</ele><time>2026-04-25T18:11:32.072Z</time></trkpt><trkpt lat="42.3221485" lon="-7.6893136"><ele>603.0</ele><time>2026-04-25T18:11:33.07Z</time></trkpt><trkpt lat="42.3221962" lon="-7.6895302"><ele>603.0</ele><time>2026-04-25T18:11:34.065Z</time></trkpt><trkpt lat="42.3222571" lon="-7.6897338"><ele>604.6666666666666</ele><time>2026-04-25T18:11:35.069Z</time></trkpt><trkpt lat="42.3223183" lon="-7.6899202"><ele>606.3333333333333</ele><time>2026-04-25T18:11:36.065Z</time></trkpt><trkpt lat="42.3224151" lon="-7.6900933"><ele>608.0</ele><time>2026-04-25T18:11:37.064Z</time></trkpt><trkpt lat="42.3225243" lon="-7.6902508"><ele>604.3333333333333</ele><time>2026-04-25T18:11:38.077Z</time></trkpt><trkpt lat="42.3226334" lon="-7.6904024"><ele>600.6666666666666</ele><time>2026-04-25T18:11:39.074Z</time></trkpt><trkpt lat="42.3227391" lon="-7.6905478"><ele>597.0</ele><time>2026-04-25T18:11:40.065Z</time></trkpt><trkpt lat="42.3228504" lon="-7.6906968"><ele>597.0</ele><time>2026-04-25T18:11:41.077Z</time></trkpt><trkpt lat="42.3229611" lon="-7.6908448"><ele>597.0</ele><time>2026-04-25T18:11:42.066Z</time></trkpt><trkpt lat="42.323076" lon="-7.6909989"><ele>597.0</ele><time>2026-04-25T18:11:43.071Z</time></trkpt><trkpt lat="42.3231912" lon="-7.6911462"><ele>596.3333333333334</ele><time>2026-04-25T18:11:44.072Z</time></trkpt><trkpt lat="42.3233055" lon="-7.6912671"><ele>595.6666666666667</ele><time>2026-04-25T18:11:45.062Z</time></trkpt><trkpt lat="42.3234405" lon="-7.691393"><ele>595.0</ele><time>2026-04-25T18:11:46.068Z</time></trkpt><trkpt lat="42.3235747" lon="-7.6915042"><ele>595.0</ele><time>2026-04-25T18:11:47.064Z</time></trkpt><trkpt lat="42.3237047" lon="-7.6916172"><ele>595.0</ele><time>2026-04-25T18:11:48.086Z</time></trkpt><trkpt lat="42.3238312" lon="-7.6917375"><ele>595.0</ele><time>2026-04-25T18:11:49.066Z</time></trkpt><trkpt lat="42.32395" lon="-7.6918693"><ele>594.0</ele><time>2026-04-25T18:11:50.069Z</time></trkpt><trkpt lat="42.3240576" lon="-7.6920091"><ele>593.0</ele><time>2026-04-25T18:11:51.061Z</time></trkpt><trkpt lat="42.324153" lon="-7.6921567"><ele>592.0</ele><time>2026-04-25T18:11:52.067Z</time></trkpt><trkpt lat="42.3242404" lon="-7.6923173"><ele>591.0</ele><time>2026-04-25T18:11:53.074Z</time></trkpt><trkpt lat="42.3243167" lon="-7.6924883"><ele>591.0</ele><time>2026-04-25T18:11:54.064Z</time></trkpt><trkpt lat="42.3243802" lon="-7.692665"><ele>591.0</ele><time>2026-04-25T18:11:55.069Z</time></trkpt><trkpt lat="42.3244353" lon="-7.6928452"><ele>591.0</ele><time>2026-04-25T18:11:56.087Z</time></trkpt><trkpt lat="42.3244902" lon="-7.6930291"><ele>591.0</ele><time>2026-04-25T18:11:57.063Z</time></trkpt><trkpt lat="42.3245399" lon="-7.6932135"><ele>589.75</ele><time>2026-04-25T18:11:58.066Z</time></trkpt><trkpt lat="42.3245814" lon="-7.6934032"><ele>588.5</ele><time>2026-04-25T18:11:59.067Z</time></trkpt><trkpt lat="42.3246166" lon="-7.6935965"><ele>587.25</ele><time>2026-04-25T18:12:00.069Z</time></trkpt><trkpt lat="42.3246452" lon="-7.6937924"><ele>586.0</ele><time>2026-04-25T18:12:01.067Z</time></trkpt><trkpt lat="42.3246668" lon="-7.6939907"><ele>584.0</ele><time>2026-04-25T18:12:02.044Z</time></trkpt><trkpt lat="42.3246785" lon="-7.6941898"><ele>582.0</ele><time>2026-04-25T18:12:03.069Z</time></trkpt><trkpt lat="42.3246795" lon="-7.6943888"><ele>580.0</ele><time>2026-04-25T18:12:04.065Z</time></trkpt><trkpt lat="42.3246698" lon="-7.6945853"><ele>578.0</ele><time>2026-04-25T18:12:05.07Z</time></trkpt><trkpt lat="42.324651" lon="-7.6947781"><ele>577.5</ele><time>2026-04-25T18:12:06.075Z</time></trkpt><trkpt lat="42.3246301" lon="-7.6949697"><ele>577.0</ele><time>2026-04-25T18:12:07.068Z</time></trkpt><trkpt lat="42.3246099" lon="-7.6951574"><ele>576.5</ele><time>2026-04-25T18:12:08.074Z</time></trkpt><trkpt lat="42.3245895" lon="-7.6953422"><ele>576.0</ele><time>2026-04-25T18:12:09.073Z</time></trkpt><trkpt lat="42.3245689" lon="-7.6955261"><ele>576.0</ele><time>2026-04-25T18:12:10.076Z</time></trkpt><trkpt lat="42.3245487" lon="-7.6957069"><ele>576.0</ele><time>2026-04-25T18:12:11.069Z</time></trkpt><trkpt lat="42.32453" lon="-7.6958874"><ele>576.0</ele><time>2026-04-25T18:12:12.07Z</time></trkpt><trkpt lat="42.3245144" lon="-7.6960668"><ele>576.0</ele><time>2026-04-25T18:12:13.072Z</time></trkpt><trkpt lat="42.3245077" lon="-7.6962467"><ele>575.75</ele><time>2026-04-25T18:12:14.086Z</time></trkpt><trkpt lat="42.3245088" lon="-7.6964275"><ele>575.5</ele><time>2026-04-25T18:12:15.07Z</time></trkpt><trkpt lat="42.3245237" lon="-7.6966073"><ele>575.25</ele><time>2026-04-25T18:12:16.084Z</time></trkpt><trkpt lat="42.3245512" lon="-7.6967856"><ele>575.0</ele><time>2026-04-25T18:12:17.07Z</time></trkpt><trkpt lat="42.3245824" lon="-7.6969639"><ele>573.25</ele><time>2026-04-25T18:12:18.07Z</time></trkpt><trkpt lat="42.3246106" lon="-7.6971434"><ele>571.5</ele><time>2026-04-25T18:12:19.078Z</time></trkpt><trkpt lat="42.3246318" lon="-7.6973165"><ele>569.75</ele><time>2026-04-25T18:12:20.063Z</time></trkpt><trkpt lat="42.3246396" lon="-7.6974834"><ele>568.0</ele><time>2026-04-25T18:12:21.072Z</time></trkpt><trkpt lat="42.3246294" lon="-7.6976505"><ele>567.5</ele><time>2026-04-25T18:12:22.074Z</time></trkpt><trkpt lat="42.3245995" lon="-7.6978133"><ele>567.0</ele><time>2026-04-25T18:12:23.081Z</time></trkpt><trkpt lat="42.3245547" lon="-7.6979739"><ele>566.5</ele><time>2026-04-25T18:12:24.075Z</time></trkpt><trkpt lat="42.3245024" lon="-7.6981354"><ele>566.0</ele><time>2026-04-25T18:12:25.069Z</time></trkpt><trkpt lat="42.3244473" lon="-7.698297"><ele>566.0</ele><time>2026-04-25T18:12:26.072Z</time></trkpt><trkpt lat="42.3243909" lon="-7.6984591"><ele>566.0</ele><time>2026-04-25T18:12:27.068Z</time></trkpt><trkpt lat="42.324332" lon="-7.6986285"><ele>566.0</ele><time>2026-04-25T18:12:28.067Z</time></trkpt><trkpt lat="42.3242701" lon="-7.6988086"><ele>566.0</ele><time>2026-04-25T18:12:29.064Z</time></trkpt><trkpt lat="42.3242078" lon="-7.6989918"><ele>566.0</ele><time>2026-04-25T18:12:30.07Z</time></trkpt><trkpt lat="42.3241476" lon="-7.6991757"><ele>566.0</ele><time>2026-04-25T18:12:31.07Z</time></trkpt><trkpt lat="42.324087" lon="-7.6993614"><ele>566.0</ele><time>2026-04-25T18:12:32.074Z</time></trkpt><trkpt lat="42.324024" lon="-7.699549"><ele>565.0</ele><time>2026-04-25T18:12:33.072Z</time></trkpt><trkpt lat="42.3239587" lon="-7.6997396"><ele>564.0</ele><time>2026-04-25T18:12:34.075Z</time></trkpt><trkpt lat="42.3238924" lon="-7.6999314"><ele>563.0</ele><time>2026-04-25T18:12:35.065Z</time></trkpt><trkpt lat="42.3238247" lon="-7.700124"><ele>561.3333333333333</ele><time>2026-04-25T18:12:36.071Z</time></trkpt><trkpt lat="42.3237557" lon="-7.7003184"><ele>559.6666666666666</ele><time>2026-04-25T18:12:37.077Z</time></trkpt><trkpt lat="42.32369" lon="-7.7005163"><ele>558.0</ele><time>2026-04-25T18:12:38.069Z</time></trkpt><trkpt lat="42.3236244" lon="-7.7007146"><ele>558.0</ele><time>2026-04-25T18:12:39.073Z</time></trkpt><trkpt lat="42.3235585" lon="-7.7009135"><ele>558.0</ele><time>2026-04-25T18:12:40.079Z</time></trkpt><trkpt lat="42.3234916" lon="-7.7011141"><ele>558.0</ele><time>2026-04-25T18:12:41.079Z</time></trkpt><trkpt lat="42.3234234" lon="-7.7013184"><ele>557.6666666666666</ele><time>2026-04-25T18:12:42.084Z</time></trkpt><trkpt lat="42.3233535" lon="-7.7015289"><ele>557.3333333333333</ele><time>2026-04-25T18:12:43.086Z</time></trkpt><trkpt lat="42.3232805" lon="-7.7017473"><ele>557.0</ele><time>2026-04-25T18:12:44.082Z</time></trkpt><trkpt lat="42.3232066" lon="-7.7019681"><ele>555.6666666666666</ele><time>2026-04-25T18:12:45.071Z</time></trkpt><trkpt lat="42.3231326" lon="-7.7021913"><ele>554.3333333333334</ele><time>2026-04-25T18:12:46.087Z</time></trkpt><trkpt lat="42.3230568" lon="-7.7024172"><ele>553.0</ele><time>2026-04-25T18:12:47.075Z</time></trkpt><trkpt lat="42.3229809" lon="-7.702644"><ele>550.6666666666667</ele><time>2026-04-25T18:12:48.076Z</time></trkpt><trkpt lat="42.3229051" lon="-7.7028713"><ele>548.3333333333334</ele><time>2026-04-25T18:12:49.073Z</time></trkpt><trkpt lat="42.3228293" lon="-7.7030992"><ele>546.0</ele><time>2026-04-25T18:12:50.082Z</time></trkpt><trkpt lat="42.3227538" lon="-7.7033296"><ele>546.0</ele><time>2026-04-25T18:12:51.088Z</time></trkpt><trkpt lat="42.3226765" lon="-7.7035644"><ele>546.0</ele><time>2026-04-25T18:12:52.095Z</time></trkpt><trkpt lat="42.3225961" lon="-7.703802"><ele>546.0</ele><time>2026-04-25T18:12:53.072Z</time></trkpt><trkpt lat="42.3225158" lon="-7.7040407"><ele>545.6666666666666</ele><time>2026-04-25T18:12:54.083Z</time></trkpt><trkpt lat="42.3224346" lon="-7.7042816"><ele>545.3333333333333</ele><time>2026-04-25T18:12:55.088Z</time></trkpt><trkpt lat="42.3223529" lon="-7.7045226"><ele>545.0</ele><time>2026-04-25T18:12:56.091Z</time></trkpt><trkpt lat="42.3222698" lon="-7.7047628"><ele>543.6666666666666</ele><time>2026-04-25T18:12:57.084Z</time></trkpt><trkpt lat="42.322187" lon="-7.7050022"><ele>542.3333333333334</ele><time>2026-04-25T18:12:58.074Z</time></trkpt><trkpt lat="42.3221057" lon="-7.7052311"><ele>541.0</ele><time>2026-04-25T18:12:59.074Z</time></trkpt><trkpt lat="42.3220308" lon="-7.7054587"><ele>541.0</ele><time>2026-04-25T18:13:00.071Z</time></trkpt><trkpt lat="42.3219468" lon="-7.7056944"><ele>541.0</ele><time>2026-04-25T18:13:01.072Z</time></trkpt><trkpt lat="42.3218725" lon="-7.7059184"><ele>541.0</ele><time>2026-04-25T18:13:02.078Z</time></trkpt><trkpt lat="42.3217953" lon="-7.7061382"><ele>541.0</ele><time>2026-04-25T18:13:03.075Z</time></trkpt><trkpt lat="42.3217153" lon="-7.7063548"><ele>541.0</ele><time>2026-04-25T18:13:04.07Z</time></trkpt><trkpt lat="42.3216416" lon="-7.7065724"><ele>541.0</ele><time>2026-04-25T18:13:05.073Z</time></trkpt><trkpt lat="42.3215747" lon="-7.7067879"><ele>541.3333333333334</ele><time>2026-04-25T18:13:06.07Z</time></trkpt><trkpt lat="42.3215166" lon="-7.7069932"><ele>541.6666666666666</ele><time>2026-04-25T18:13:07.083Z</time></trkpt><trkpt lat="42.3214843" lon="-7.7072174"><ele>542.0</ele><time>2026-04-25T18:13:08.073Z</time></trkpt><trkpt lat="42.3214779" lon="-7.7074307"><ele>542.0</ele><time>2026-04-25T18:13:09.074Z</time></trkpt><trkpt lat="42.3214973" lon="-7.7076456"><ele>542.0</ele><time>2026-04-25T18:13:10.08Z</time></trkpt><trkpt lat="42.3215402" lon="-7.7078615"><ele>542.0</ele><time>2026-04-25T18:13:11.073Z</time></trkpt><trkpt lat="42.3216006" lon="-7.7080765"><ele>541.6666666666666</ele><time>2026-04-25T18:13:12.071Z</time></trkpt><trkpt lat="42.3216668" lon="-7.7082855"><ele>541.3333333333334</ele><time>2026-04-25T18:13:13.072Z</time></trkpt><trkpt lat="42.3217344" lon="-7.708495"><ele>541.0</ele><time>2026-04-25T18:13:14.073Z</time></trkpt><trkpt lat="42.3218024" lon="-7.7087007"><ele>538.3333333333334</ele><time>2026-04-25T18:13:15.078Z</time></trkpt><trkpt lat="42.3218699" lon="-7.7089055"><ele>535.6666666666666</ele><time>2026-04-25T18:13:16.073Z</time></trkpt><trkpt lat="42.3219304" lon="-7.7091068"><ele>533.0</ele><time>2026-04-25T18:13:17.078Z</time></trkpt><trkpt lat="42.3219796" lon="-7.7092995"><ele>531.75</ele><time>2026-04-25T18:13:18.081Z</time></trkpt><trkpt lat="42.3220156" lon="-7.7094937"><ele>530.5</ele><time>2026-04-25T18:13:19.071Z</time></trkpt><trkpt lat="42.3220297" lon="-7.709691"><ele>529.25</ele><time>2026-04-25T18:13:20.078Z</time></trkpt><trkpt lat="42.3220175" lon="-7.7098877"><ele>528.0</ele><time>2026-04-25T18:13:21.078Z</time></trkpt><trkpt lat="42.3219806" lon="-7.7100848"><ele>528.0</ele><time>2026-04-25T18:13:22.062Z</time></trkpt><trkpt lat="42.3219282" lon="-7.7102746"><ele>528.0</ele><time>2026-04-25T18:13:23.067Z</time></trkpt><trkpt lat="42.3218694" lon="-7.7104592"><ele>528.0</ele><time>2026-04-25T18:13:24.068Z</time></trkpt><trkpt lat="42.3218112" lon="-7.7106446"><ele>528.0</ele><time>2026-04-25T18:13:25.082Z</time></trkpt><trkpt lat="42.3217528" lon="-7.7108325"><ele>528.0</ele><time>2026-04-25T18:13:26.087Z</time></trkpt><trkpt lat="42.3216927" lon="-7.7110267"><ele>528.0</ele><time>2026-04-25T18:13:27.071Z</time></trkpt><trkpt lat="42.3216309" lon="-7.7112276"><ele>528.0</ele><time>2026-04-25T18:13:28.072Z</time></trkpt><trkpt lat="42.321568" lon="-7.7114283"><ele>528.0</ele><time>2026-04-25T18:13:29.077Z</time></trkpt><trkpt lat="42.3215038" lon="-7.7116271"><ele>528.0</ele><time>2026-04-25T18:13:30.07Z</time></trkpt><trkpt lat="42.321439" lon="-7.7118246"><ele>528.0</ele><time>2026-04-25T18:13:31.067Z</time></trkpt><trkpt lat="42.3213763" lon="-7.7120219"><ele>528.0</ele><time>2026-04-25T18:13:32.066Z</time></trkpt><trkpt lat="42.3213126" lon="-7.7122196"><ele>528.0</ele><time>2026-04-25T18:13:33.07Z</time></trkpt><trkpt lat="42.3212437" lon="-7.7124184"><ele>528.0</ele><time>2026-04-25T18:13:34.069Z</time></trkpt><trkpt lat="42.3211746" lon="-7.7126165"><ele>528.3333333333334</ele><time>2026-04-25T18:13:35.071Z</time></trkpt><trkpt lat="42.321108" lon="-7.712817"><ele>528.6666666666667</ele><time>2026-04-25T18:13:36.083Z</time></trkpt><trkpt lat="42.3210452" lon="-7.7130224"><ele>529.0</ele><time>2026-04-25T18:13:37.068Z</time></trkpt><trkpt lat="42.3209811" lon="-7.7132333"><ele>529.0</ele><time>2026-04-25T18:13:38.067Z</time></trkpt><trkpt lat="42.3209169" lon="-7.713437"><ele>529.0</ele><time>2026-04-25T18:13:39.07Z</time></trkpt><trkpt lat="42.3208468" lon="-7.7136513"><ele>529.0</ele><time>2026-04-25T18:13:40.068Z</time></trkpt><trkpt lat="42.3207723" lon="-7.7138636"><ele>528.3333333333334</ele><time>2026-04-25T18:13:41.072Z</time></trkpt><trkpt lat="42.3206956" lon="-7.7140712"><ele>527.6666666666666</ele><time>2026-04-25T18:13:42.07Z</time></trkpt><trkpt lat="42.3206254" lon="-7.7142818"><ele>527.0</ele><time>2026-04-25T18:13:43.066Z</time></trkpt><trkpt lat="42.3205452" lon="-7.7144957"><ele>524.0</ele><time>2026-04-25T18:13:44.071Z</time></trkpt><trkpt lat="42.320461" lon="-7.7147023"><ele>521.0</ele><time>2026-04-25T18:13:45.07Z</time></trkpt><trkpt lat="42.320378" lon="-7.7149142"><ele>518.0</ele><time>2026-04-25T18:13:46.076Z</time></trkpt><trkpt lat="42.3202905" lon="-7.7151268"><ele>518.6666666666666</ele><time>2026-04-25T18:13:47.079Z</time></trkpt><trkpt lat="42.3202005" lon="-7.7153342"><ele>519.3333333333334</ele><time>2026-04-25T18:13:48.065Z</time></trkpt><trkpt lat="42.3201103" lon="-7.7155402"><ele>520.0</ele><time>2026-04-25T18:13:49.07Z</time></trkpt><trkpt lat="42.3200169" lon="-7.715744"><ele>520.0</ele><time>2026-04-25T18:13:50.066Z</time></trkpt><trkpt lat="42.319928" lon="-7.7159508"><ele>520.0</ele><time>2026-04-25T18:13:51.073Z</time></trkpt><trkpt lat="42.3198491" lon="-7.7161672"><ele>520.0</ele><time>2026-04-25T18:13:52.068Z</time></trkpt><trkpt lat="42.3197832" lon="-7.716394"><ele>519.3333333333334</ele><time>2026-04-25T18:13:53.086Z</time></trkpt><trkpt lat="42.3197331" lon="-7.7166302"><ele>518.6666666666666</ele><time>2026-04-25T18:13:54.07Z</time></trkpt><trkpt lat="42.3196874" lon="-7.7168702"><ele>518.0</ele><time>2026-04-25T18:13:55.088Z</time></trkpt><trkpt lat="42.3196475" lon="-7.717116"><ele>517.3333333333333</ele><time>2026-04-25T18:13:56.068Z</time></trkpt><trkpt lat="42.3196089" lon="-7.7173643"><ele>516.6666666666666</ele><time>2026-04-25T18:13:57.077Z</time></trkpt><trkpt lat="42.319569" lon="-7.7176152"><ele>516.0</ele><time>2026-04-25T18:13:58.072Z</time></trkpt><trkpt lat="42.3195292" lon="-7.7178669"><ele>515.0</ele><time>2026-04-25T18:13:59.075Z</time></trkpt><trkpt lat="42.3194882" lon="-7.7181154"><ele>514.0</ele><time>2026-04-25T18:14:00.071Z</time></trkpt><trkpt lat="42.3194477" lon="-7.7183626"><ele>513.0</ele><time>2026-04-25T18:14:01.086Z</time></trkpt><trkpt lat="42.3194084" lon="-7.7186091"><ele>513.0</ele><time>2026-04-25T18:14:02.075Z</time></trkpt><trkpt lat="42.3193725" lon="-7.7188547"><ele>513.0</ele><time>2026-04-25T18:14:03.074Z</time></trkpt><trkpt lat="42.3193359" lon="-7.7190928"><ele>513.0</ele><time>2026-04-25T18:14:04.077Z</time></trkpt><trkpt lat="42.3192962" lon="-7.7193235"><ele>514.0</ele><time>2026-04-25T18:14:05.069Z</time></trkpt><trkpt lat="42.3192488" lon="-7.7195531"><ele>515.0</ele><time>2026-04-25T18:14:06.068Z</time></trkpt><trkpt lat="42.3191911" lon="-7.7197824"><ele>516.0</ele><time>2026-04-25T18:14:07.075Z</time></trkpt><trkpt lat="42.3191329" lon="-7.7200006"><ele>516.0</ele><time>2026-04-25T18:14:08.065Z</time></trkpt><trkpt lat="42.3190396" lon="-7.7202116"><ele>516.0</ele><time>2026-04-25T18:14:09.079Z</time></trkpt><trkpt lat="42.3189335" lon="-7.7204156"><ele>516.0</ele><time>2026-04-25T18:14:10.068Z</time></trkpt><trkpt lat="42.3188313" lon="-7.7206038"><ele>516.0</ele><time>2026-04-25T18:14:11.068Z</time></trkpt><trkpt lat="42.3187276" lon="-7.7207939"><ele>516.0</ele><time>2026-04-25T18:14:12.07Z</time></trkpt><trkpt lat="42.3186304" lon="-7.7209787"><ele>516.0</ele><time>2026-04-25T18:14:13.064Z</time></trkpt><trkpt lat="42.3185423" lon="-7.7211865"><ele>515.6666666666666</ele><time>2026-04-25T18:14:14.063Z</time></trkpt><trkpt lat="42.3184549" lon="-7.721398"><ele>515.3333333333333</ele><time>2026-04-25T18:14:15.066Z</time></trkpt><trkpt lat="42.3183786" lon="-7.7216"><ele>515.0</ele><time>2026-04-25T18:14:16.072Z</time></trkpt><trkpt lat="42.3183149" lon="-7.7218084"><ele>515.6666666666666</ele><time>2026-04-25T18:14:17.075Z</time></trkpt><trkpt lat="42.3182523" lon="-7.7220158"><ele>516.3333333333334</ele><time>2026-04-25T18:14:18.081Z</time></trkpt><trkpt lat="42.3181875" lon="-7.7222259"><ele>517.0</ele><time>2026-04-25T18:14:19.07Z</time></trkpt><trkpt lat="42.3181299" lon="-7.7224466"><ele>515.6666666666667</ele><time>2026-04-25T18:14:20.067Z</time></trkpt><trkpt lat="42.3180645" lon="-7.7226624"><ele>514.3333333333334</ele><time>2026-04-25T18:14:21.075Z</time></trkpt><trkpt lat="42.317999" lon="-7.7228794"><ele>513.0</ele><time>2026-04-25T18:14:22.073Z</time></trkpt><trkpt lat="42.3179346" lon="-7.7231018"><ele>513.0</ele><time>2026-04-25T18:14:23.067Z</time></trkpt><trkpt lat="42.3178726" lon="-7.7233288"><ele>513.0</ele><time>2026-04-25T18:14:24.077Z</time></trkpt><trkpt lat="42.3178168" lon="-7.7235603"><ele>513.0</ele><time>2026-04-25T18:14:25.068Z</time></trkpt><trkpt lat="42.3177682" lon="-7.7237979"><ele>512.3333333333334</ele><time>2026-04-25T18:14:26.067Z</time></trkpt><trkpt lat="42.3177233" lon="-7.7240384"><ele>511.6666666666667</ele><time>2026-04-25T18:14:27.072Z</time></trkpt><trkpt lat="42.3176679" lon="-7.7242725"><ele>511.0</ele><time>2026-04-25T18:14:28.08Z</time></trkpt><trkpt lat="42.3176422" lon="-7.7245147"><ele>510.6666666666667</ele><time>2026-04-25T18:14:29.072Z</time></trkpt><trkpt lat="42.3176106" lon="-7.7247556"><ele>510.33333333333337</ele><time>2026-04-25T18:14:30.072Z</time></trkpt><trkpt lat="42.3175771" lon="-7.7249935"><ele>510.0</ele><time>2026-04-25T18:14:31.062Z</time></trkpt><trkpt lat="42.3175402" lon="-7.7252319"><ele>510.66666666666663</ele><time>2026-04-25T18:14:32.071Z</time></trkpt><trkpt lat="42.3175017" lon="-7.7254884"><ele>511.3333333333333</ele><time>2026-04-25T18:14:33.07Z</time></trkpt><trkpt lat="42.317467" lon="-7.7257412"><ele>512.0</ele><time>2026-04-25T18:14:34.074Z</time></trkpt><trkpt lat="42.3174276" lon="-7.7259969"><ele>512.3333333333333</ele><time>2026-04-25T18:14:35.073Z</time></trkpt><trkpt lat="42.3173861" lon="-7.726255"><ele>512.6666666666666</ele><time>2026-04-25T18:14:36.066Z</time></trkpt><trkpt lat="42.3173448" lon="-7.7265144"><ele>513.0</ele><time>2026-04-25T18:14:37.071Z</time></trkpt><trkpt lat="42.317304" lon="-7.7267692"><ele>512.3333333333334</ele><time>2026-04-25T18:14:38.073Z</time></trkpt><trkpt lat="42.3172657" lon="-7.7270241"><ele>511.6666666666667</ele><time>2026-04-25T18:14:39.07Z</time></trkpt><trkpt lat="42.3172267" lon="-7.7272822"><ele>511.0</ele><time>2026-04-25T18:14:40.073Z</time></trkpt><trkpt lat="42.3171903" lon="-7.7275456"><ele>510.0</ele><time>2026-04-25T18:14:41.069Z</time></trkpt><trkpt lat="42.3171508" lon="-7.7278116"><ele>509.0</ele><time>2026-04-25T18:14:42.064Z</time></trkpt><trkpt lat="42.3171118" lon="-7.7280751"><ele>508.0</ele><time>2026-04-25T18:14:43.076Z</time></trkpt><trkpt lat="42.3170707" lon="-7.7283372"><ele>508.6666666666667</ele><time>2026-04-25T18:14:44.065Z</time></trkpt><trkpt lat="42.317031" lon="-7.7285992"><ele>509.33333333333337</ele><time>2026-04-25T18:14:45.063Z</time></trkpt><trkpt lat="42.3169909" lon="-7.728865"><ele>510.0</ele><time>2026-04-25T18:14:46.061Z</time></trkpt><trkpt lat="42.316953" lon="-7.7291316"><ele>510.0</ele><time>2026-04-25T18:14:47.074Z</time></trkpt><trkpt lat="42.3169139" lon="-7.7293985"><ele>510.0</ele><time>2026-04-25T18:14:48.065Z</time></trkpt><trkpt lat="42.3168736" lon="-7.7296642"><ele>510.0</ele><time>2026-04-25T18:14:49.067Z</time></trkpt><trkpt lat="42.3168328" lon="-7.7299282"><ele>510.0</ele><time>2026-04-25T18:14:50.076Z</time></trkpt><trkpt lat="42.3167919" lon="-7.7301925"><ele>510.0</ele><time>2026-04-25T18:14:51.068Z</time></trkpt><trkpt lat="42.3167524" lon="-7.7304588"><ele>510.0</ele><time>2026-04-25T18:14:52.057Z</time></trkpt><trkpt lat="42.3167117" lon="-7.7307238"><ele>508.66666666666663</ele><time>2026-04-25T18:14:53.054Z</time></trkpt><trkpt lat="42.3166756" lon="-7.730983"><ele>507.3333333333333</ele><time>2026-04-25T18:14:54.061Z</time></trkpt><trkpt lat="42.3166289" lon="-7.7312443"><ele>506.0</ele><time>2026-04-25T18:14:55.07Z</time></trkpt><trkpt lat="42.3165864" lon="-7.7314939"><ele>505.3333333333333</ele><time>2026-04-25T18:14:56.062Z</time></trkpt><trkpt lat="42.316544" lon="-7.7317471"><ele>504.66666666666663</ele><time>2026-04-25T18:14:57.071Z</time></trkpt><trkpt lat="42.3165026" lon="-7.7319984"><ele>504.0</ele><time>2026-04-25T18:14:58.082Z</time></trkpt><trkpt lat="42.3164658" lon="-7.7322426"><ele>504.0</ele><time>2026-04-25T18:14:59.087Z</time></trkpt><trkpt lat="42.3164293" lon="-7.732473"><ele>504.0</ele><time>2026-04-25T18:15:00.075Z</time></trkpt><trkpt lat="42.3163966" lon="-7.7327223"><ele>504.0</ele><time>2026-04-25T18:15:01.076Z</time></trkpt><trkpt lat="42.3163626" lon="-7.7329744"><ele>504.0</ele><time>2026-04-25T18:15:02.07Z</time></trkpt><trkpt lat="42.316327" lon="-7.7332196"><ele>504.0</ele><time>2026-04-25T18:15:03.069Z</time></trkpt><trkpt lat="42.3162897" lon="-7.7334539"><ele>504.0</ele><time>2026-04-25T18:15:04.072Z</time></trkpt><trkpt lat="42.3162553" lon="-7.7336845"><ele>504.66666666666663</ele><time>2026-04-25T18:15:05.071Z</time></trkpt><trkpt lat="42.3162179" lon="-7.7339095"><ele>505.3333333333333</ele><time>2026-04-25T18:15:06.069Z</time></trkpt><trkpt lat="42.3161822" lon="-7.7341326"><ele>506.0</ele><time>2026-04-25T18:15:07.071Z</time></trkpt><trkpt lat="42.3161538" lon="-7.734351"><ele>505.0</ele><time>2026-04-25T18:15:08.072Z</time></trkpt><trkpt lat="42.3161363" lon="-7.7345605"><ele>504.0</ele><time>2026-04-25T18:15:09.076Z</time></trkpt><trkpt lat="42.3161283" lon="-7.7347631"><ele>503.0</ele><time>2026-04-25T18:15:10.078Z</time></trkpt><trkpt lat="42.3161292" lon="-7.7349657"><ele>503.0</ele><time>2026-04-25T18:15:11.07Z</time></trkpt><trkpt lat="42.3161344" lon="-7.7351755"><ele>503.0</ele><time>2026-04-25T18:15:12.075Z</time></trkpt><trkpt lat="42.3161397" lon="-7.7353877"><ele>503.0</ele><time>2026-04-25T18:15:13.065Z</time></trkpt><trkpt lat="42.3161446" lon="-7.7356003"><ele>502.0</ele><time>2026-04-25T18:15:14.07Z</time></trkpt><trkpt lat="42.3161506" lon="-7.7358141"><ele>501.0</ele><time>2026-04-25T18:15:15.074Z</time></trkpt><trkpt lat="42.3161579" lon="-7.7360273"><ele>500.0</ele><time>2026-04-25T18:15:16.067Z</time></trkpt><trkpt lat="42.3161642" lon="-7.736245"><ele>498.3333333333333</ele><time>2026-04-25T18:15:17.071Z</time></trkpt><trkpt lat="42.3161733" lon="-7.7364758"><ele>496.66666666666663</ele><time>2026-04-25T18:15:18.066Z</time></trkpt><trkpt lat="42.316177" lon="-7.7367125"><ele>495.0</ele><time>2026-04-25T18:15:19.075Z</time></trkpt><trkpt lat="42.3161805" lon="-7.7369588"><ele>494.33333333333337</ele><time>2026-04-25T18:15:20.065Z</time></trkpt><trkpt lat="42.3161833" lon="-7.7372037"><ele>493.6666666666667</ele><time>2026-04-25T18:15:21.06Z</time></trkpt><trkpt lat="42.3161867" lon="-7.7374542"><ele>493.0</ele><time>2026-04-25T18:15:22.074Z</time></trkpt><trkpt lat="42.3161906" lon="-7.7377125"><ele>492.6666666666667</ele><time>2026-04-25T18:15:23.079Z</time></trkpt><trkpt lat="42.3161945" lon="-7.7379682"><ele>492.33333333333337</ele><time>2026-04-25T18:15:24.084Z</time></trkpt><trkpt lat="42.3161992" lon="-7.738225"><ele>492.0</ele><time>2026-04-25T18:15:25.076Z</time></trkpt><trkpt lat="42.3162035" lon="-7.7384787"><ele>492.33333333333337</ele><time>2026-04-25T18:15:26.057Z</time></trkpt><trkpt lat="42.316207" lon="-7.7387341"><ele>492.6666666666667</ele><time>2026-04-25T18:15:27.072Z</time></trkpt><trkpt lat="42.3162112" lon="-7.7389867"><ele>493.0</ele><time>2026-04-25T18:15:28.069Z</time></trkpt><trkpt lat="42.3162163" lon="-7.7392368"><ele>493.6666666666667</ele><time>2026-04-25T18:15:29.069Z</time></trkpt><trkpt lat="42.3162224" lon="-7.7394867"><ele>494.33333333333337</ele><time>2026-04-25T18:15:30.075Z</time></trkpt><trkpt lat="42.3162276" lon="-7.7397307"><ele>495.0</ele><time>2026-04-25T18:15:31.071Z</time></trkpt><trkpt lat="42.3162292" lon="-7.7399658"><ele>495.0</ele><time>2026-04-25T18:15:32.068Z</time></trkpt><trkpt lat="42.316228" lon="-7.7401942"><ele>495.0</ele><time>2026-04-25T18:15:33.069Z</time></trkpt><trkpt lat="42.3162232" lon="-7.7404154"><ele>495.0</ele><time>2026-04-25T18:15:34.069Z</time></trkpt><trkpt lat="42.3162221" lon="-7.7406355"><ele>495.0</ele><time>2026-04-25T18:15:35.067Z</time></trkpt><trkpt lat="42.3162185" lon="-7.740859"><ele>495.0</ele><time>2026-04-25T18:15:36.075Z</time></trkpt><trkpt lat="42.3162155" lon="-7.7410877"><ele>495.0</ele><time>2026-04-25T18:15:37.075Z</time></trkpt><trkpt lat="42.3162115" lon="-7.7413203"><ele>494.66666666666663</ele><time>2026-04-25T18:15:38.07Z</time></trkpt><trkpt lat="42.3162067" lon="-7.7415557"><ele>494.3333333333333</ele><time>2026-04-25T18:15:39.07Z</time></trkpt><trkpt lat="42.3162015" lon="-7.7417964"><ele>494.0</ele><time>2026-04-25T18:15:40.072Z</time></trkpt><trkpt lat="42.3161977" lon="-7.7420423"><ele>495.3333333333333</ele><time>2026-04-25T18:15:41.072Z</time></trkpt><trkpt lat="42.3161942" lon="-7.7422912"><ele>496.66666666666663</ele><time>2026-04-25T18:15:42.066Z</time></trkpt><trkpt lat="42.3161904" lon="-7.7425414"><ele>498.0</ele><time>2026-04-25T18:15:43.074Z</time></trkpt><trkpt lat="42.3161863" lon="-7.7427906"><ele>498.66666666666663</ele><time>2026-04-25T18:15:44.061Z</time></trkpt><trkpt lat="42.316181" lon="-7.7430403"><ele>499.3333333333333</ele><time>2026-04-25T18:15:45.067Z</time></trkpt><trkpt lat="42.3161767" lon="-7.7432905"><ele>500.0</ele><time>2026-04-25T18:15:46.073Z</time></trkpt><trkpt lat="42.3161718" lon="-7.7435408"><ele>500.3333333333333</ele><time>2026-04-25T18:15:47.063Z</time></trkpt><trkpt lat="42.316168" lon="-7.7437894"><ele>500.66666666666663</ele><time>2026-04-25T18:15:48.074Z</time></trkpt><trkpt lat="42.3161656" lon="-7.7440326"><ele>501.0</ele><time>2026-04-25T18:15:49.072Z</time></trkpt><trkpt lat="42.3161637" lon="-7.7442712"><ele>501.0</ele><time>2026-04-25T18:15:50.068Z</time></trkpt><trkpt lat="42.3161618" lon="-7.7445074"><ele>501.0</ele><time>2026-04-25T18:15:51.069Z</time></trkpt><trkpt lat="42.3161576" lon="-7.7447446"><ele>501.0</ele><time>2026-04-25T18:15:52.072Z</time></trkpt><trkpt lat="42.3161528" lon="-7.7449846"><ele>500.66666666666663</ele><time>2026-04-25T18:15:53.068Z</time></trkpt><trkpt lat="42.3161484" lon="-7.745226"><ele>500.3333333333333</ele><time>2026-04-25T18:15:54.073Z</time></trkpt><trkpt lat="42.3161439" lon="-7.745465"><ele>500.0</ele><time>2026-04-25T18:15:55.075Z</time></trkpt><trkpt lat="42.3161391" lon="-7.7457026"><ele>500.0</ele><time>2026-04-25T18:15:56.074Z</time></trkpt><trkpt lat="42.3161338" lon="-7.7459397"><ele>500.0</ele><time>2026-04-25T18:15:57.082Z</time></trkpt><trkpt lat="42.3161297" lon="-7.74618"><ele>500.0</ele><time>2026-04-25T18:15:58.074Z</time></trkpt><trkpt lat="42.3161249" lon="-7.7464226"><ele>499.66666666666663</ele><time>2026-04-25T18:15:59.072Z</time></trkpt><trkpt lat="42.3161193" lon="-7.7466655"><ele>499.33333333333337</ele><time>2026-04-25T18:16:00.045Z</time></trkpt><trkpt lat="42.3161128" lon="-7.7469085"><ele>499.0</ele><time>2026-04-25T18:16:01.059Z</time></trkpt><trkpt lat="42.3161071" lon="-7.7471511"><ele>498.6666666666667</ele><time>2026-04-25T18:16:02.061Z</time></trkpt><trkpt lat="42.316102" lon="-7.7473937"><ele>498.33333333333337</ele><time>2026-04-25T18:16:03.073Z</time></trkpt><trkpt lat="42.3160981" lon="-7.7476355"><ele>498.0</ele><time>2026-04-25T18:16:04.074Z</time></trkpt><trkpt lat="42.316094" lon="-7.7478775"><ele>499.0</ele><time>2026-04-25T18:16:05.067Z</time></trkpt><trkpt lat="42.3160898" lon="-7.74812"><ele>500.0</ele><time>2026-04-25T18:16:06.069Z</time></trkpt><trkpt lat="42.3160848" lon="-7.748366"><ele>501.0</ele><time>2026-04-25T18:16:07.071Z</time></trkpt><trkpt lat="42.3160792" lon="-7.7486158"><ele>501.33333333333337</ele><time>2026-04-25T18:16:08.068Z</time></trkpt><trkpt lat="42.3160751" lon="-7.7488664"><ele>501.6666666666667</ele><time>2026-04-25T18:16:09.072Z</time></trkpt><trkpt lat="42.3160724" lon="-7.7491145"><ele>502.0</ele><time>2026-04-25T18:16:10.076Z</time></trkpt><trkpt lat="42.3160692" lon="-7.7493605"><ele>502.0</ele><time>2026-04-25T18:16:11.075Z</time></trkpt><trkpt lat="42.316066" lon="-7.7496022"><ele>502.0</ele><time>2026-04-25T18:16:12.078Z</time></trkpt><trkpt lat="42.3160609" lon="-7.7498357"><ele>502.0</ele><time>2026-04-25T18:16:13.089Z</time></trkpt><trkpt lat="42.3160551" lon="-7.7500613"><ele>502.33333333333337</ele><time>2026-04-25T18:16:14.075Z</time></trkpt><trkpt lat="42.3160492" lon="-7.7502831"><ele>502.66666666666663</ele><time>2026-04-25T18:16:15.069Z</time></trkpt><trkpt lat="42.3160437" lon="-7.7505049"><ele>503.0</ele><time>2026-04-25T18:16:16.072Z</time></trkpt><trkpt lat="42.316039" lon="-7.7507285"><ele>503.0</ele><time>2026-04-25T18:16:17.084Z</time></trkpt><trkpt lat="42.3160349" lon="-7.750953"><ele>503.0</ele><time>2026-04-25T18:16:18.071Z</time></trkpt><trkpt lat="42.3160305" lon="-7.7511812"><ele>503.0</ele><time>2026-04-25T18:16:19.084Z</time></trkpt><trkpt lat="42.3160262" lon="-7.7514127"><ele>502.66666666666663</ele><time>2026-04-25T18:16:20.077Z</time></trkpt><trkpt lat="42.3160203" lon="-7.7516459"><ele>502.33333333333337</ele><time>2026-04-25T18:16:21.07Z</time></trkpt><trkpt lat="42.3160129" lon="-7.7518785"><ele>502.0</ele><time>2026-04-25T18:16:22.071Z</time></trkpt><trkpt lat="42.3160058" lon="-7.7521118"><ele>502.6666666666667</ele><time>2026-04-25T18:16:23.1Z</time></trkpt><trkpt lat="42.3159981" lon="-7.752346"><ele>503.33333333333337</ele><time>2026-04-25T18:16:24.088Z</time></trkpt><trkpt lat="42.3159911" lon="-7.7525832"><ele>504.0</ele><time>2026-04-25T18:16:25.08Z</time></trkpt><trkpt lat="42.3159853" lon="-7.7528245"><ele>504.0</ele><time>2026-04-25T18:16:26.075Z</time></trkpt><trkpt lat="42.3159808" lon="-7.7530699"><ele>504.0</ele><time>2026-04-25T18:16:27.073Z</time></trkpt><trkpt lat="42.3159774" lon="-7.7533149"><ele>504.0</ele><time>2026-04-25T18:16:28.074Z</time></trkpt><trkpt lat="42.3159727" lon="-7.7535592"><ele>503.66666666666663</ele><time>2026-04-25T18:16:29.085Z</time></trkpt><trkpt lat="42.3159671" lon="-7.7538034"><ele>503.3333333333333</ele><time>2026-04-25T18:16:30.066Z</time></trkpt><trkpt lat="42.3159621" lon="-7.7540467"><ele>503.0</ele><time>2026-04-25T18:16:31.069Z</time></trkpt><trkpt lat="42.3159563" lon="-7.7542884"><ele>502.0</ele><time>2026-04-25T18:16:32.075Z</time></trkpt><trkpt lat="42.3159519" lon="-7.7545121"><ele>501.0</ele><time>2026-04-25T18:16:33.073Z</time></trkpt><trkpt lat="42.3159482" lon="-7.7547442"><ele>500.0</ele><time>2026-04-25T18:16:34.04Z</time></trkpt><trkpt lat="42.315933" lon="-7.7549808"><ele>497.66666666666663</ele><time>2026-04-25T18:16:35.071Z</time></trkpt><trkpt lat="42.315925" lon="-7.7552203"><ele>495.33333333333337</ele><time>2026-04-25T18:16:36.061Z</time></trkpt><trkpt lat="42.315916" lon="-7.7554625"><ele>493.0</ele><time>2026-04-25T18:16:37.074Z</time></trkpt><trkpt lat="42.3159096" lon="-7.7557033"><ele>493.0</ele><time>2026-04-25T18:16:38.078Z</time></trkpt><trkpt lat="42.3159018" lon="-7.7559473"><ele>493.0</ele><time>2026-04-25T18:16:39.076Z</time></trkpt><trkpt lat="42.3158951" lon="-7.7561923"><ele>493.0</ele><time>2026-04-25T18:16:40.063Z</time></trkpt><trkpt lat="42.3158868" lon="-7.7564274"><ele>491.6666666666667</ele><time>2026-04-25T18:16:41.071Z</time></trkpt><trkpt lat="42.3158875" lon="-7.7566503"><ele>490.33333333333337</ele><time>2026-04-25T18:16:42.069Z</time></trkpt><trkpt lat="42.3158867" lon="-7.7568563"><ele>489.0</ele><time>2026-04-25T18:16:43.064Z</time></trkpt><trkpt lat="42.315889" lon="-7.7570552"><ele>488.25</ele><time>2026-04-25T18:16:44.069Z</time></trkpt><trkpt lat="42.3158996" lon="-7.7572329"><ele>487.5</ele><time>2026-04-25T18:16:45.066Z</time></trkpt><trkpt lat="42.3159254" lon="-7.7574154"><ele>486.75</ele><time>2026-04-25T18:16:46.063Z</time></trkpt><trkpt lat="42.3159747" lon="-7.7575969"><ele>486.0</ele><time>2026-04-25T18:16:47.061Z</time></trkpt><trkpt lat="42.3160501" lon="-7.7577784"><ele>485.33333333333337</ele><time>2026-04-25T18:16:48.067Z</time></trkpt><trkpt lat="42.3161312" lon="-7.7579647"><ele>484.6666666666667</ele><time>2026-04-25T18:16:49.064Z</time></trkpt><trkpt lat="42.3162062" lon="-7.7581289"><ele>484.0</ele><time>2026-04-25T18:16:50.068Z</time></trkpt><trkpt lat="42.3162891" lon="-7.7583073"><ele>484.0</ele><time>2026-04-25T18:16:51.067Z</time></trkpt><trkpt lat="42.3163695" lon="-7.7584848"><ele>484.0</ele><time>2026-04-25T18:16:52.073Z</time></trkpt><trkpt lat="42.316445" lon="-7.7586635"><ele>484.0</ele><time>2026-04-25T18:16:53.075Z</time></trkpt><trkpt lat="42.3165056" lon="-7.7588416"><ele>482.25</ele><time>2026-04-25T18:16:54.066Z</time></trkpt><trkpt lat="42.3165472" lon="-7.7590161"><ele>480.5</ele><time>2026-04-25T18:16:55.065Z</time></trkpt><trkpt lat="42.3165652" lon="-7.7591917"><ele>478.75</ele><time>2026-04-25T18:16:56.065Z</time></trkpt><trkpt lat="42.3165553" lon="-7.7593638"><ele>477.0</ele><time>2026-04-25T18:16:57.065Z</time></trkpt><trkpt lat="42.3165151" lon="-7.75953"><ele>476.0</ele><time>2026-04-25T18:16:58.072Z</time></trkpt><trkpt lat="42.31645" lon="-7.759682"><ele>475.0</ele><time>2026-04-25T18:16:59.072Z</time></trkpt><trkpt lat="42.3163593" lon="-7.7598175"><ele>474.0</ele><time>2026-04-25T18:17:00.062Z</time></trkpt><trkpt lat="42.3162518" lon="-7.759936"><ele>473.0</ele><time>2026-04-25T18:17:01.072Z</time></trkpt><trkpt lat="42.3161293" lon="-7.7600381"><ele>473.0</ele><time>2026-04-25T18:17:02.069Z</time></trkpt><trkpt lat="42.3159954" lon="-7.7601321"><ele>473.0</ele><time>2026-04-25T18:17:03.073Z</time></trkpt><trkpt lat="42.315854" lon="-7.7602137"><ele>473.0</ele><time>2026-04-25T18:17:04.07Z</time></trkpt><trkpt lat="42.3157113" lon="-7.7603008"><ele>470.3333333333333</ele><time>2026-04-25T18:17:05.07Z</time></trkpt><trkpt lat="42.3155749" lon="-7.7603911"><ele>467.66666666666663</ele><time>2026-04-25T18:17:06.069Z</time></trkpt><trkpt lat="42.315431" lon="-7.7604852"><ele>465.0</ele><time>2026-04-25T18:17:07.068Z</time></trkpt><trkpt lat="42.3152901" lon="-7.7605788"><ele>464.33333333333337</ele><time>2026-04-25T18:17:08.039Z</time></trkpt><trkpt lat="42.3151528" lon="-7.7606904"><ele>463.6666666666667</ele><time>2026-04-25T18:17:09.051Z</time></trkpt><trkpt lat="42.3150254" lon="-7.7608204"><ele>463.0</ele><time>2026-04-25T18:17:10.048Z</time></trkpt><trkpt lat="42.3149154" lon="-7.7609792"><ele>462.0</ele><time>2026-04-25T18:17:11.072Z</time></trkpt><trkpt lat="42.3148256" lon="-7.7611634"><ele>461.0</ele><time>2026-04-25T18:17:12.072Z</time></trkpt><trkpt lat="42.3147597" lon="-7.7613629"><ele>460.0</ele><time>2026-04-25T18:17:13.074Z</time></trkpt><trkpt lat="42.3147018" lon="-7.7615686"><ele>459.0</ele><time>2026-04-25T18:17:14.065Z</time></trkpt><trkpt lat="42.3146816" lon="-7.7617923"><ele>458.0</ele><time>2026-04-25T18:17:15.07Z</time></trkpt><trkpt lat="42.3146611" lon="-7.7620122"><ele>457.0</ele><time>2026-04-25T18:17:16.071Z</time></trkpt><trkpt lat="42.3146403" lon="-7.7622375"><ele>456.0</ele><time>2026-04-25T18:17:17.071Z</time></trkpt><trkpt lat="42.3146202" lon="-7.7624628"><ele>455.0</ele><time>2026-04-25T18:17:18.07Z</time></trkpt><trkpt lat="42.3145999" lon="-7.7626878"><ele>454.0</ele><time>2026-04-25T18:17:19.068Z</time></trkpt><trkpt lat="42.3145762" lon="-7.7629142"><ele>453.0</ele><time>2026-04-25T18:17:20.075Z</time></trkpt><trkpt lat="42.3145517" lon="-7.7631398"><ele>452.0</ele><time>2026-04-25T18:17:21.072Z</time></trkpt><trkpt lat="42.3145254" lon="-7.7633635"><ele>451.0</ele><time>2026-04-25T18:17:22.065Z</time></trkpt><trkpt lat="42.3145001" lon="-7.7635843"><ele>450.33333333333337</ele><time>2026-04-25T18:17:23.074Z</time></trkpt><trkpt lat="42.3144793" lon="-7.7637957"><ele>449.66666666666663</ele><time>2026-04-25T18:17:24.071Z</time></trkpt><trkpt lat="42.3144629" lon="-7.7639944"><ele>449.0</ele><time>2026-04-25T18:17:25.07Z</time></trkpt><trkpt lat="42.3144605" lon="-7.7641927"><ele>447.75</ele><time>2026-04-25T18:17:26.068Z</time></trkpt><trkpt lat="42.3144785" lon="-7.7643904"><ele>446.5</ele><time>2026-04-25T18:17:27.076Z</time></trkpt><trkpt lat="42.3145152" lon="-7.7645867"><ele>445.25</ele><time>2026-04-25T18:17:28.063Z</time></trkpt><trkpt lat="42.3145677" lon="-7.7647798"><ele>444.0</ele><time>2026-04-25T18:17:29.07Z</time></trkpt><trkpt lat="42.3146266" lon="-7.7649747"><ele>444.0</ele><time>2026-04-25T18:17:30.07Z</time></trkpt><trkpt lat="42.3146865" lon="-7.7651713"><ele>444.0</ele><time>2026-04-25T18:17:31.071Z</time></trkpt><trkpt lat="42.3147474" lon="-7.7653729"><ele>444.0</ele><time>2026-04-25T18:17:32.071Z</time></trkpt><trkpt lat="42.3148084" lon="-7.7655778"><ele>443.33333333333337</ele><time>2026-04-25T18:17:33.068Z</time></trkpt><trkpt lat="42.3148694" lon="-7.7657883"><ele>442.6666666666667</ele><time>2026-04-25T18:17:34.069Z</time></trkpt><trkpt lat="42.3149306" lon="-7.7659973"><ele>442.0</ele><time>2026-04-25T18:17:35.076Z</time></trkpt><trkpt lat="42.3149924" lon="-7.7662095"><ele>440.6666666666667</ele><time>2026-04-25T18:17:36.075Z</time></trkpt><trkpt lat="42.3150554" lon="-7.766422"><ele>439.33333333333337</ele><time>2026-04-25T18:17:37.088Z</time></trkpt><trkpt lat="42.3151209" lon="-7.7666349"><ele>438.0</ele><time>2026-04-25T18:17:38.079Z</time></trkpt><trkpt lat="42.3151896" lon="-7.766845"><ele>437.66666666666663</ele><time>2026-04-25T18:17:39.069Z</time></trkpt><trkpt lat="42.3152636" lon="-7.7670542"><ele>437.3333333333333</ele><time>2026-04-25T18:17:40.073Z</time></trkpt><trkpt lat="42.3153415" lon="-7.7672602"><ele>437.0</ele><time>2026-04-25T18:17:41.064Z</time></trkpt><trkpt lat="42.3154178" lon="-7.7674553"><ele>437.0</ele><time>2026-04-25T18:17:42.038Z</time></trkpt><trkpt lat="42.315493" lon="-7.7676379"><ele>437.0</ele><time>2026-04-25T18:17:43.068Z</time></trkpt><trkpt lat="42.3155651" lon="-7.7678066"><ele>437.0</ele><time>2026-04-25T18:17:44.066Z</time></trkpt><trkpt lat="42.315633" lon="-7.767966"><ele>437.0</ele><time>2026-04-25T18:17:45.065Z</time></trkpt><trkpt lat="42.3156999" lon="-7.7681272"><ele>435.5</ele><time>2026-04-25T18:17:46.076Z</time></trkpt><trkpt lat="42.3157661" lon="-7.7682919"><ele>434.0</ele><time>2026-04-25T18:17:47.073Z</time></trkpt><trkpt lat="42.3158352" lon="-7.7684529"><ele>432.5</ele><time>2026-04-25T18:17:48.064Z</time></trkpt><trkpt lat="42.3158883" lon="-7.7686285"><ele>431.0</ele><time>2026-04-25T18:17:49.064Z</time></trkpt><trkpt lat="42.3159227" lon="-7.768819"><ele>429.25</ele><time>2026-04-25T18:17:50.063Z</time></trkpt><trkpt lat="42.3159287" lon="-7.7690123"><ele>427.5</ele><time>2026-04-25T18:17:51.065Z</time></trkpt><trkpt lat="42.31591" lon="-7.7692053"><ele>425.75</ele><time>2026-04-25T18:17:52.072Z</time></trkpt><trkpt lat="42.3158656" lon="-7.7693932"><ele>424.0</ele><time>2026-04-25T18:17:53.069Z</time></trkpt><trkpt lat="42.3158028" lon="-7.7695731"><ele>424.33333333333337</ele><time>2026-04-25T18:17:54.071Z</time></trkpt><trkpt lat="42.3157256" lon="-7.7697427"><ele>424.66666666666663</ele><time>2026-04-25T18:17:55.07Z</time></trkpt><trkpt lat="42.3156157" lon="-7.7698959"><ele>425.0</ele><time>2026-04-25T18:17:56.073Z</time></trkpt><trkpt lat="42.3155077" lon="-7.770043"><ele>425.0</ele><time>2026-04-25T18:17:57.065Z</time></trkpt><trkpt lat="42.3153941" lon="-7.7701899"><ele>425.0</ele><time>2026-04-25T18:17:58.067Z</time></trkpt><trkpt lat="42.3152719" lon="-7.7703363"><ele>425.0</ele><time>2026-04-25T18:17:59.067Z</time></trkpt><trkpt lat="42.3151514" lon="-7.7704883"><ele>421.66666666666663</ele><time>2026-04-25T18:18:00.068Z</time></trkpt><trkpt lat="42.3150285" lon="-7.770639"><ele>418.33333333333337</ele><time>2026-04-25T18:18:01.065Z</time></trkpt><trkpt lat="42.3149024" lon="-7.7707995"><ele>415.0</ele><time>2026-04-25T18:18:02.065Z</time></trkpt><trkpt lat="42.3147703" lon="-7.7709638"><ele>413.0</ele><time>2026-04-25T18:18:03.068Z</time></trkpt><trkpt lat="42.3146396" lon="-7.7711319"><ele>411.0</ele><time>2026-04-25T18:18:04.065Z</time></trkpt><trkpt lat="42.3145061" lon="-7.7713013"><ele>409.0</ele><time>2026-04-25T18:18:05.066Z</time></trkpt><trkpt lat="42.3143687" lon="-7.7714701"><ele>409.0</ele><time>2026-04-25T18:18:06.063Z</time></trkpt><trkpt lat="42.3142308" lon="-7.77164"><ele>409.0</ele><time>2026-04-25T18:18:07.068Z</time></trkpt><trkpt lat="42.3140902" lon="-7.7718099"><ele>409.0</ele><time>2026-04-25T18:18:08.06Z</time></trkpt><trkpt lat="42.3139476" lon="-7.7719779"><ele>407.33333333333337</ele><time>2026-04-25T18:18:09.076Z</time></trkpt><trkpt lat="42.3138051" lon="-7.772146"><ele>405.66666666666663</ele><time>2026-04-25T18:18:10.073Z</time></trkpt><trkpt lat="42.313667" lon="-7.7723151"><ele>404.0</ele><time>2026-04-25T18:18:11.059Z</time></trkpt><trkpt lat="42.3135364" lon="-7.7724796"><ele>404.0</ele><time>2026-04-25T18:18:12.064Z</time></trkpt><trkpt lat="42.3134132" lon="-7.7726374"><ele>404.0</ele><time>2026-04-25T18:18:13.061Z</time></trkpt><trkpt lat="42.3133058" lon="-7.7727956"><ele>404.0</ele><time>2026-04-25T18:18:14.062Z</time></trkpt><trkpt lat="42.3132231" lon="-7.7729611"><ele>402.5</ele><time>2026-04-25T18:18:15.062Z</time></trkpt><trkpt lat="42.3131681" lon="-7.7731279"><ele>401.0</ele><time>2026-04-25T18:18:16.048Z</time></trkpt><trkpt lat="42.3131399" lon="-7.7732958"><ele>399.5</ele><time>2026-04-25T18:18:17.052Z</time></trkpt><trkpt lat="42.3131381" lon="-7.7734642"><ele>398.0</ele><time>2026-04-25T18:18:18.055Z</time></trkpt><trkpt lat="42.3131632" lon="-7.7736315"><ele>397.25</ele><time>2026-04-25T18:18:19.065Z</time></trkpt><trkpt lat="42.3132136" lon="-7.7737835"><ele>396.5</ele><time>2026-04-25T18:18:20.064Z</time></trkpt><trkpt lat="42.3132873" lon="-7.7739201"><ele>395.75</ele><time>2026-04-25T18:18:21.065Z</time></trkpt><trkpt lat="42.3133799" lon="-7.7740366"><ele>395.0</ele><time>2026-04-25T18:18:22.067Z</time></trkpt><trkpt lat="42.3134896" lon="-7.7741249"><ele>395.0</ele><time>2026-04-25T18:18:23.076Z</time></trkpt><trkpt lat="42.3136113" lon="-7.7741833"><ele>395.0</ele><time>2026-04-25T18:18:24.067Z</time></trkpt><trkpt lat="42.3137396" lon="-7.7742136"><ele>395.0</ele><time>2026-04-25T18:18:25.065Z</time></trkpt><trkpt lat="42.3138711" lon="-7.7742103"><ele>395.0</ele><time>2026-04-25T18:18:26.074Z</time></trkpt><trkpt lat="42.3140047" lon="-7.7741814"><ele>394.75</ele><time>2026-04-25T18:18:27.071Z</time></trkpt><trkpt lat="42.3141408" lon="-7.7741333"><ele>394.5</ele><time>2026-04-25T18:18:28.068Z</time></trkpt><trkpt lat="42.3142824" lon="-7.7740774"><ele>394.25</ele><time>2026-04-25T18:18:29.069Z</time></trkpt><trkpt lat="42.3144271" lon="-7.7740214"><ele>394.0</ele><time>2026-04-25T18:18:30.079Z</time></trkpt><trkpt lat="42.3145719" lon="-7.7739675"><ele>394.0</ele><time>2026-04-25T18:18:31.071Z</time></trkpt><trkpt lat="42.3147174" lon="-7.773914"><ele>394.0</ele><time>2026-04-25T18:18:32.071Z</time></trkpt><trkpt lat="42.3148626" lon="-7.77386"><ele>394.0</ele><time>2026-04-25T18:18:33.074Z</time></trkpt><trkpt lat="42.3150075" lon="-7.7738114"><ele>392.0</ele><time>2026-04-25T18:18:34.078Z</time></trkpt><trkpt lat="42.3151476" lon="-7.7737755"><ele>390.0</ele><time>2026-04-25T18:18:35.073Z</time></trkpt><trkpt lat="42.3152866" lon="-7.7737559"><ele>388.0</ele><time>2026-04-25T18:18:36.069Z</time></trkpt><trkpt lat="42.3154262" lon="-7.7737602"><ele>386.0</ele><time>2026-04-25T18:18:37.065Z</time></trkpt><trkpt lat="42.3155647" lon="-7.7737938"><ele>384.0</ele><time>2026-04-25T18:18:38.066Z</time></trkpt><trkpt lat="42.3156983" lon="-7.7738548"><ele>382.0</ele><time>2026-04-25T18:18:39.082Z</time></trkpt><trkpt lat="42.3158275" lon="-7.7739321"><ele>380.0</ele><time>2026-04-25T18:18:40.076Z</time></trkpt><trkpt lat="42.315955" lon="-7.7740166"><ele>378.0</ele><time>2026-04-25T18:18:41.072Z</time></trkpt><trkpt lat="42.3160843" lon="-7.7740987"><ele>378.0</ele><time>2026-04-25T18:18:42.074Z</time></trkpt><trkpt lat="42.3162144" lon="-7.7741786"><ele>378.0</ele><time>2026-04-25T18:18:43.075Z</time></trkpt><trkpt lat="42.3163459" lon="-7.7742555"><ele>378.0</ele><time>2026-04-25T18:18:44.065Z</time></trkpt><trkpt lat="42.3164789" lon="-7.7743279"><ele>378.0</ele><time>2026-04-25T18:18:45.072Z</time></trkpt><trkpt lat="42.3166153" lon="-7.7743869"><ele>376.5</ele><time>2026-04-25T18:18:46.068Z</time></trkpt><trkpt lat="42.3167557" lon="-7.774425"><ele>375.0</ele><time>2026-04-25T18:18:47.069Z</time></trkpt><trkpt lat="42.3168987" lon="-7.7744405"><ele>373.5</ele><time>2026-04-25T18:18:48.078Z</time></trkpt><trkpt lat="42.3170431" lon="-7.7744332"><ele>372.0</ele><time>2026-04-25T18:18:49.072Z</time></trkpt><trkpt lat="42.3171858" lon="-7.7744044"><ele>372.75</ele><time>2026-04-25T18:18:50.075Z</time></trkpt><trkpt lat="42.3173271" lon="-7.7743603"><ele>373.5</ele><time>2026-04-25T18:18:51.079Z</time></trkpt><trkpt lat="42.3174665" lon="-7.7743051"><ele>374.25</ele><time>2026-04-25T18:18:52.075Z</time></trkpt><trkpt lat="42.3176059" lon="-7.7742462"><ele>375.0</ele><time>2026-04-25T18:18:53.079Z</time></trkpt><trkpt lat="42.3177451" lon="-7.7741864"><ele>375.0</ele><time>2026-04-25T18:18:54.074Z</time></trkpt><trkpt lat="42.3178849" lon="-7.7741256"><ele>375.0</ele><time>2026-04-25T18:18:55.072Z</time></trkpt><trkpt lat="42.3180254" lon="-7.7740649"><ele>375.0</ele><time>2026-04-25T18:18:56.071Z</time></trkpt><trkpt lat="42.318166" lon="-7.7740054"><ele>375.0</ele><time>2026-04-25T18:18:57.068Z</time></trkpt><trkpt lat="42.3183018" lon="-7.773948"><ele>373.75</ele><time>2026-04-25T18:18:58.072Z</time></trkpt><trkpt lat="42.3184298" lon="-7.7738929"><ele>372.5</ele><time>2026-04-25T18:18:59.069Z</time></trkpt><trkpt lat="42.3185533" lon="-7.7738415"><ele>371.25</ele><time>2026-04-25T18:19:00.072Z</time></trkpt><trkpt lat="42.3186791" lon="-7.7737979"><ele>370.0</ele><time>2026-04-25T18:19:01.072Z</time></trkpt><trkpt lat="42.3188081" lon="-7.773771"><ele>368.5</ele><time>2026-04-25T18:19:02.071Z</time></trkpt><trkpt lat="42.3189393" lon="-7.7737663"><ele>367.0</ele><time>2026-04-25T18:19:03.103Z</time></trkpt><trkpt lat="42.3190709" lon="-7.7737857"><ele>365.5</ele><time>2026-04-25T18:19:04.076Z</time></trkpt><trkpt lat="42.3192012" lon="-7.7738266"><ele>364.0</ele><time>2026-04-25T18:19:05.074Z</time></trkpt><trkpt lat="42.319328" lon="-7.773886"><ele>364.0</ele><time>2026-04-25T18:19:06.071Z</time></trkpt><trkpt lat="42.3194488" lon="-7.7739674"><ele>364.0</ele><time>2026-04-25T18:19:07.086Z</time></trkpt><trkpt lat="42.3195604" lon="-7.7740724"><ele>364.0</ele><time>2026-04-25T18:19:08.083Z</time></trkpt><trkpt lat="42.3196592" lon="-7.7741981"><ele>364.0</ele><time>2026-04-25T18:19:09.083Z</time></trkpt><trkpt lat="42.3197445" lon="-7.7743415"><ele>362.25</ele><time>2026-04-25T18:19:10.075Z</time></trkpt><trkpt lat="42.3198193" lon="-7.7744955"><ele>360.5</ele><time>2026-04-25T18:19:11.066Z</time></trkpt><trkpt lat="42.3198825" lon="-7.7746601"><ele>358.75</ele><time>2026-04-25T18:19:12.082Z</time></trkpt><trkpt lat="42.3199345" lon="-7.774833"><ele>357.0</ele><time>2026-04-25T18:19:13.068Z</time></trkpt><trkpt lat="42.3199785" lon="-7.7750104"><ele>356.25</ele><time>2026-04-25T18:19:14.071Z</time></trkpt><trkpt lat="42.320018" lon="-7.7751904"><ele>355.5</ele><time>2026-04-25T18:19:15.071Z</time></trkpt><trkpt lat="42.3200544" lon="-7.7753728"><ele>354.75</ele><time>2026-04-25T18:19:16.068Z</time></trkpt><trkpt lat="42.320091" lon="-7.7755589"><ele>354.0</ele><time>2026-04-25T18:19:17.073Z</time></trkpt><trkpt lat="42.3201296" lon="-7.7757476"><ele>354.0</ele><time>2026-04-25T18:19:18.074Z</time></trkpt><trkpt lat="42.3201691" lon="-7.7759369"><ele>354.0</ele><time>2026-04-25T18:19:19.08Z</time></trkpt><trkpt lat="42.3202076" lon="-7.776127"><ele>354.0</ele><time>2026-04-25T18:19:20.074Z</time></trkpt><trkpt lat="42.3202452" lon="-7.7763185"><ele>354.0</ele><time>2026-04-25T18:19:21.078Z</time></trkpt><trkpt lat="42.3202817" lon="-7.7765108"><ele>353.75</ele><time>2026-04-25T18:19:22.083Z</time></trkpt><trkpt lat="42.3203181" lon="-7.7767023"><ele>353.5</ele><time>2026-04-25T18:19:23.073Z</time></trkpt><trkpt lat="42.320354" lon="-7.7768922"><ele>353.25</ele><time>2026-04-25T18:19:24.059Z</time></trkpt><trkpt lat="42.3203891" lon="-7.7770745"><ele>353.0</ele><time>2026-04-25T18:19:25.08Z</time></trkpt><trkpt lat="42.320423" lon="-7.7772466"><ele>352.75</ele><time>2026-04-25T18:19:26.07Z</time></trkpt><trkpt lat="42.3204554" lon="-7.7774107"><ele>352.5</ele><time>2026-04-25T18:19:27.067Z</time></trkpt><trkpt lat="42.3204865" lon="-7.7775699"><ele>352.25</ele><time>2026-04-25T18:19:28.071Z</time></trkpt><trkpt lat="42.3205174" lon="-7.7777183"><ele>352.0</ele><time>2026-04-25T18:19:29.068Z</time></trkpt><trkpt lat="42.3205486" lon="-7.7778468"><ele>351.5</ele><time>2026-04-25T18:19:30.069Z</time></trkpt><trkpt lat="42.3205815" lon="-7.7779564"><ele>351.0</ele><time>2026-04-25T18:19:31.065Z</time></trkpt><trkpt lat="42.3206219" lon="-7.7780586"><ele>350.5</ele><time>2026-04-25T18:19:32.073Z</time></trkpt><trkpt lat="42.3206652" lon="-7.7781582"><ele>350.0</ele><time>2026-04-25T18:19:33.066Z</time></trkpt><trkpt lat="42.3206977" lon="-7.7782643"><ele>349.5</ele><time>2026-04-25T18:19:34.071Z</time></trkpt><trkpt lat="42.3207135" lon="-7.7783771"><ele>349.0</ele><time>2026-04-25T18:19:35.071Z</time></trkpt><trkpt lat="42.320715" lon="-7.7784942"><ele>348.6</ele><time>2026-04-25T18:19:36.086Z</time></trkpt><trkpt lat="42.3207189" lon="-7.7786185"><ele>348.2</ele><time>2026-04-25T18:19:37.071Z</time></trkpt><trkpt lat="42.320732" lon="-7.778747"><ele>347.8</ele><time>2026-04-25T18:19:38.066Z</time></trkpt><trkpt lat="42.3207531" lon="-7.7788819"><ele>347.40000000000003</ele><time>2026-04-25T18:19:39.07Z</time></trkpt><trkpt lat="42.3207795" lon="-7.779021"><ele>347.0</ele><time>2026-04-25T18:19:40.068Z</time></trkpt><trkpt lat="42.3208088" lon="-7.7791652"><ele>347.0</ele><time>2026-04-25T18:19:41.071Z</time></trkpt><trkpt lat="42.3208385" lon="-7.7793155"><ele>347.0</ele><time>2026-04-25T18:19:42.072Z</time></trkpt><trkpt lat="42.3208673" lon="-7.7794684"><ele>347.0</ele><time>2026-04-25T18:19:43.073Z</time></trkpt><trkpt lat="42.3208958" lon="-7.7796226"><ele>347.0</ele><time>2026-04-25T18:19:44.07Z</time></trkpt><trkpt lat="42.3209248" lon="-7.7797777"><ele>346.5</ele><time>2026-04-25T18:19:45.072Z</time></trkpt><trkpt lat="42.3209544" lon="-7.7799213"><ele>346.0</ele><time>2026-04-25T18:19:46.073Z</time></trkpt><trkpt lat="42.3209836" lon="-7.7800704"><ele>345.5</ele><time>2026-04-25T18:19:47.07Z</time></trkpt><trkpt lat="42.3210155" lon="-7.7802194"><ele>345.0</ele><time>2026-04-25T18:19:48.083Z</time></trkpt><trkpt lat="42.3210511" lon="-7.7803695"><ele>345.0</ele><time>2026-04-25T18:19:49.072Z</time></trkpt><trkpt lat="42.3210793" lon="-7.7805174"><ele>345.0</ele><time>2026-04-25T18:19:50.079Z</time></trkpt><trkpt lat="42.3211076" lon="-7.7806681"><ele>345.0</ele><time>2026-04-25T18:19:51.081Z</time></trkpt><trkpt lat="42.3211365" lon="-7.7808198"><ele>345.0</ele><time>2026-04-25T18:19:52.074Z</time></trkpt><trkpt lat="42.3211618" lon="-7.780967"><ele>344.75</ele><time>2026-04-25T18:19:53.079Z</time></trkpt><trkpt lat="42.3211933" lon="-7.7811221"><ele>344.5</ele><time>2026-04-25T18:19:54.068Z</time></trkpt><trkpt lat="42.3212248" lon="-7.781275"><ele>344.25</ele><time>2026-04-25T18:19:55.07Z</time></trkpt><trkpt lat="42.3212557" lon="-7.7814323"><ele>344.0</ele><time>2026-04-25T18:19:56.067Z</time></trkpt><trkpt lat="42.3212885" lon="-7.78159"><ele>344.0</ele><time>2026-04-25T18:19:57.064Z</time></trkpt><trkpt lat="42.3213213" lon="-7.7817442"><ele>344.0</ele><time>2026-04-25T18:19:58.055Z</time></trkpt><trkpt lat="42.321352" lon="-7.7818981"><ele>344.0</ele><time>2026-04-25T18:19:59.078Z</time></trkpt><trkpt lat="42.3213855" lon="-7.7820529"><ele>344.0</ele><time>2026-04-25T18:20:00.068Z</time></trkpt><trkpt lat="42.3214184" lon="-7.7822065"><ele>343.75</ele><time>2026-04-25T18:20:01.076Z</time></trkpt><trkpt lat="42.321449" lon="-7.782362"><ele>343.5</ele><time>2026-04-25T18:20:02.082Z</time></trkpt><trkpt lat="42.3214793" lon="-7.7825166"><ele>343.25</ele><time>2026-04-25T18:20:03.064Z</time></trkpt><trkpt lat="42.3215082" lon="-7.7826684"><ele>343.0</ele><time>2026-04-25T18:20:04.073Z</time></trkpt><trkpt lat="42.3215378" lon="-7.7828221"><ele>343.0</ele><time>2026-04-25T18:20:05.083Z</time></trkpt><trkpt lat="42.321568" lon="-7.7829759"><ele>343.0</ele><time>2026-04-25T18:20:06.071Z</time></trkpt><trkpt lat="42.3216026" lon="-7.7831265"><ele>343.0</ele><time>2026-04-25T18:20:07.073Z</time></trkpt><trkpt lat="42.3216356" lon="-7.7832774"><ele>343.0</ele><time>2026-04-25T18:20:08.07Z</time></trkpt><trkpt lat="42.3216663" lon="-7.783432"><ele>343.0</ele><time>2026-04-25T18:20:09.069Z</time></trkpt><trkpt lat="42.3216954" lon="-7.7835879"><ele>343.0</ele><time>2026-04-25T18:20:10.069Z</time></trkpt><trkpt lat="42.3217247" lon="-7.7837404"><ele>343.0</ele><time>2026-04-25T18:20:11.081Z</time></trkpt><trkpt lat="42.3217549" lon="-7.7838892"><ele>343.0</ele><time>2026-04-25T18:20:12.084Z</time></trkpt><trkpt lat="42.3217854" lon="-7.7840361"><ele>343.0</ele><time>2026-04-25T18:20:13.073Z</time></trkpt><trkpt lat="42.3218153" lon="-7.7841793"><ele>343.0</ele><time>2026-04-25T18:20:14.085Z</time></trkpt><trkpt lat="42.3218443" lon="-7.7843192"><ele>343.0</ele><time>2026-04-25T18:20:15.096Z</time></trkpt><trkpt lat="42.3218723" lon="-7.7844582"><ele>343.0</ele><time>2026-04-25T18:20:16.077Z</time></trkpt><trkpt lat="42.3219007" lon="-7.7845973"><ele>343.0</ele><time>2026-04-25T18:20:17.073Z</time></trkpt><trkpt lat="42.3219292" lon="-7.7847403"><ele>342.79999999999995</ele><time>2026-04-25T18:20:18.069Z</time></trkpt><trkpt lat="42.3219573" lon="-7.7848836"><ele>342.6</ele><time>2026-04-25T18:20:19.072Z</time></trkpt><trkpt lat="42.3219842" lon="-7.7850246"><ele>342.4</ele><time>2026-04-25T18:20:20.072Z</time></trkpt><trkpt lat="42.3220108" lon="-7.7851621"><ele>342.20000000000005</ele><time>2026-04-25T18:20:21.072Z</time></trkpt><trkpt lat="42.3220361" lon="-7.7852968"><ele>342.0</ele><time>2026-04-25T18:20:22.079Z</time></trkpt><trkpt lat="42.3220623" lon="-7.7854283"><ele>341.6</ele><time>2026-04-25T18:20:23.085Z</time></trkpt><trkpt lat="42.3220894" lon="-7.7855579"><ele>341.20000000000005</ele><time>2026-04-25T18:20:24.063Z</time></trkpt><trkpt lat="42.3221159" lon="-7.7856872"><ele>340.8</ele><time>2026-04-25T18:20:25.069Z</time></trkpt><trkpt lat="42.3221429" lon="-7.7858187"><ele>340.4</ele><time>2026-04-25T18:20:26.07Z</time></trkpt><trkpt lat="42.3221705" lon="-7.7859536"><ele>340.0</ele><time>2026-04-25T18:20:27.072Z</time></trkpt><trkpt lat="42.3221984" lon="-7.7860921"><ele>340.0</ele><time>2026-04-25T18:20:28.077Z</time></trkpt><trkpt lat="42.3222258" lon="-7.7862325"><ele>340.0</ele><time>2026-04-25T18:20:29.078Z</time></trkpt><trkpt lat="42.3222542" lon="-7.7863738"><ele>340.0</ele><time>2026-04-25T18:20:30.07Z</time></trkpt><trkpt lat="42.322283" lon="-7.7865172"><ele>340.0</ele><time>2026-04-25T18:20:31.081Z</time></trkpt><trkpt lat="42.3223122" lon="-7.786661"><ele>340.0</ele><time>2026-04-25T18:20:32.052Z</time></trkpt><trkpt lat="42.3223421" lon="-7.7868073"><ele>339.75</ele><time>2026-04-25T18:20:33.07Z</time></trkpt><trkpt lat="42.3223743" lon="-7.7869556"><ele>339.5</ele><time>2026-04-25T18:20:34.083Z</time></trkpt><trkpt lat="42.3224067" lon="-7.7871071"><ele>339.25</ele><time>2026-04-25T18:20:35.074Z</time></trkpt><trkpt lat="42.3224379" lon="-7.7872611"><ele>339.0</ele><time>2026-04-25T18:20:36.075Z</time></trkpt><trkpt lat="42.3224677" lon="-7.7874149"><ele>339.0</ele><time>2026-04-25T18:20:37.075Z</time></trkpt><trkpt lat="42.322497" lon="-7.7875668"><ele>339.0</ele><time>2026-04-25T18:20:38.075Z</time></trkpt><trkpt lat="42.3225256" lon="-7.7877188"><ele>339.0</ele><time>2026-04-25T18:20:39.075Z</time></trkpt><trkpt lat="42.3225552" lon="-7.7878713"><ele>339.0</ele><time>2026-04-25T18:20:40.075Z</time></trkpt><trkpt lat="42.3225853" lon="-7.7880252"><ele>338.75</ele><time>2026-04-25T18:20:41.081Z</time></trkpt><trkpt lat="42.3226156" lon="-7.7881794"><ele>338.5</ele><time>2026-04-25T18:20:42.083Z</time></trkpt><trkpt lat="42.3226466" lon="-7.7883354"><ele>338.25</ele><time>2026-04-25T18:20:43.077Z</time></trkpt><trkpt lat="42.3226783" lon="-7.7884934"><ele>338.0</ele><time>2026-04-25T18:20:44.075Z</time></trkpt><trkpt lat="42.3227102" lon="-7.7886525"><ele>337.75</ele><time>2026-04-25T18:20:45.083Z</time></trkpt><trkpt lat="42.3227424" lon="-7.7888147"><ele>337.5</ele><time>2026-04-25T18:20:46.074Z</time></trkpt><trkpt lat="42.3227747" lon="-7.7889787"><ele>337.25</ele><time>2026-04-25T18:20:47.078Z</time></trkpt><trkpt lat="42.3228072" lon="-7.7891443"><ele>337.0</ele><time>2026-04-25T18:20:48.075Z</time></trkpt><trkpt lat="42.3228399" lon="-7.7893105"><ele>337.0</ele><time>2026-04-25T18:20:49.075Z</time></trkpt><trkpt lat="42.3228736" lon="-7.7894777"><ele>337.0</ele><time>2026-04-25T18:20:50.07Z</time></trkpt><trkpt lat="42.3229085" lon="-7.7896467"><ele>337.0</ele><time>2026-04-25T18:20:51.073Z</time></trkpt><trkpt lat="42.3229426" lon="-7.7898179"><ele>337.0</ele><time>2026-04-25T18:20:52.083Z</time></trkpt><trkpt lat="42.3229764" lon="-7.789991"><ele>337.0</ele><time>2026-04-25T18:20:53.077Z</time></trkpt><trkpt lat="42.3230104" lon="-7.7901654"><ele>337.0</ele><time>2026-04-25T18:20:54.067Z</time></trkpt><trkpt lat="42.3230451" lon="-7.7903409"><ele>337.0</ele><time>2026-04-25T18:20:55.079Z</time></trkpt><trkpt lat="42.323081" lon="-7.7905174"><ele>337.0</ele><time>2026-04-25T18:20:56.074Z</time></trkpt><trkpt lat="42.3231173" lon="-7.7906932"><ele>337.5</ele><time>2026-04-25T18:20:57.065Z</time></trkpt><trkpt lat="42.3231541" lon="-7.7908674"><ele>338.0</ele><time>2026-04-25T18:20:58.07Z</time></trkpt><trkpt lat="42.3231909" lon="-7.7910394"><ele>338.5</ele><time>2026-04-25T18:20:59.08Z</time></trkpt><trkpt lat="42.3232263" lon="-7.7912088"><ele>339.0</ele><time>2026-04-25T18:21:00.074Z</time></trkpt><trkpt lat="42.3232611" lon="-7.7913758"><ele>339.75</ele><time>2026-04-25T18:21:01.073Z</time></trkpt><trkpt lat="42.3232955" lon="-7.7915421"><ele>340.5</ele><time>2026-04-25T18:21:02.069Z</time></trkpt><trkpt lat="42.3233293" lon="-7.7917083"><ele>341.25</ele><time>2026-04-25T18:21:03.074Z</time></trkpt><trkpt lat="42.3233624" lon="-7.7918754"><ele>342.0</ele><time>2026-04-25T18:21:04.069Z</time></trkpt><trkpt lat="42.3233956" lon="-7.7920436"><ele>342.25</ele><time>2026-04-25T18:21:05.082Z</time></trkpt><trkpt lat="42.3234299" lon="-7.7922125"><ele>342.5</ele><time>2026-04-25T18:21:06.056Z</time></trkpt><trkpt lat="42.3234649" lon="-7.7923838"><ele>342.75</ele><time>2026-04-25T18:21:07.066Z</time></trkpt><trkpt lat="42.3235002" lon="-7.7925552"><ele>343.0</ele><time>2026-04-25T18:21:08.078Z</time></trkpt><trkpt lat="42.3235335" lon="-7.7927222"><ele>342.5</ele><time>2026-04-25T18:21:09.069Z</time></trkpt><trkpt lat="42.3235651" lon="-7.7928856"><ele>342.0</ele><time>2026-04-25T18:21:10.072Z</time></trkpt><trkpt lat="42.3235957" lon="-7.7930456"><ele>341.5</ele><time>2026-04-25T18:21:11.088Z</time></trkpt><trkpt lat="42.3236268" lon="-7.7932036"><ele>341.0</ele><time>2026-04-25T18:21:12.078Z</time></trkpt><trkpt lat="42.3236583" lon="-7.7933608"><ele>340.5</ele><time>2026-04-25T18:21:13.07Z</time></trkpt><trkpt lat="42.3236887" lon="-7.7935174"><ele>340.0</ele><time>2026-04-25T18:21:14.076Z</time></trkpt><trkpt lat="42.3237185" lon="-7.7936732"><ele>339.5</ele><time>2026-04-25T18:21:15.067Z</time></trkpt><trkpt lat="42.3237474" lon="-7.7938286"><ele>339.0</ele><time>2026-04-25T18:21:16.07Z</time></trkpt><trkpt lat="42.3237763" lon="-7.793983"><ele>339.0</ele><time>2026-04-25T18:21:17.084Z</time></trkpt><trkpt lat="42.3238057" lon="-7.7941366"><ele>339.0</ele><time>2026-04-25T18:21:18.071Z</time></trkpt><trkpt lat="42.3238349" lon="-7.7942892"><ele>339.0</ele><time>2026-04-25T18:21:19.066Z</time></trkpt><trkpt lat="42.3238644" lon="-7.7944416"><ele>339.0</ele><time>2026-04-25T18:21:20.079Z</time></trkpt><trkpt lat="42.3238938" lon="-7.7945937"><ele>338.25</ele><time>2026-04-25T18:21:21.079Z</time></trkpt><trkpt lat="42.3239227" lon="-7.7947456"><ele>337.5</ele><time>2026-04-25T18:21:22.072Z</time></trkpt><trkpt lat="42.3239519" lon="-7.7948968"><ele>336.75</ele><time>2026-04-25T18:21:23.069Z</time></trkpt><trkpt lat="42.3239821" lon="-7.7950476"><ele>336.0</ele><time>2026-04-25T18:21:24.074Z</time></trkpt><trkpt lat="42.324012" lon="-7.7951983"><ele>336.0</ele><time>2026-04-25T18:21:25.07Z</time></trkpt><trkpt lat="42.3240416" lon="-7.7953488"><ele>336.0</ele><time>2026-04-25T18:21:26.083Z</time></trkpt><trkpt lat="42.3240711" lon="-7.7954973"><ele>336.0</ele><time>2026-04-25T18:21:27.074Z</time></trkpt><trkpt lat="42.3241002" lon="-7.7956371"><ele>336.0</ele><time>2026-04-25T18:21:28.068Z</time></trkpt><trkpt lat="42.3241291" lon="-7.7957739"><ele>336.0</ele><time>2026-04-25T18:21:29.072Z</time></trkpt><trkpt lat="42.3241578" lon="-7.7959093"><ele>335.20000000000005</ele><time>2026-04-25T18:21:30.073Z</time></trkpt><trkpt lat="42.3241845" lon="-7.7960464"><ele>334.40000000000003</ele><time>2026-04-25T18:21:31.078Z</time></trkpt><trkpt lat="42.3242093" lon="-7.7961832"><ele>333.6</ele><time>2026-04-25T18:21:32.069Z</time></trkpt><trkpt lat="42.3242341" lon="-7.7963199"><ele>332.8</ele><time>2026-04-25T18:21:33.079Z</time></trkpt><trkpt lat="42.3242584" lon="-7.7964526"><ele>332.0</ele><time>2026-04-25T18:21:34.069Z</time></trkpt><trkpt lat="42.3242813" lon="-7.7965767"><ele>332.0</ele><time>2026-04-25T18:21:35.07Z</time></trkpt><trkpt lat="42.3243104" lon="-7.7966943"><ele>332.0</ele><time>2026-04-25T18:21:36.07Z</time></trkpt><trkpt lat="42.3243517" lon="-7.7968053"><ele>332.0</ele><time>2026-04-25T18:21:37.069Z</time></trkpt><trkpt lat="42.3244069" lon="-7.7969111"><ele>332.0</ele><time>2026-04-25T18:21:38.075Z</time></trkpt><trkpt lat="42.324475" lon="-7.7970135"><ele>332.0</ele><time>2026-04-25T18:21:39.07Z</time></trkpt><trkpt lat="42.3245509" lon="-7.7971066"><ele>331.8</ele><time>2026-04-25T18:21:40.069Z</time></trkpt><trkpt lat="42.3246337" lon="-7.7971896"><ele>331.6</ele><time>2026-04-25T18:21:41.077Z</time></trkpt><trkpt lat="42.3247244" lon="-7.7972708"><ele>331.40000000000003</ele><time>2026-04-25T18:21:42.074Z</time></trkpt><trkpt lat="42.3248099" lon="-7.7973451"><ele>331.20000000000005</ele><time>2026-04-25T18:21:43.076Z</time></trkpt><trkpt lat="42.3248987" lon="-7.7974273"><ele>331.0</ele><time>2026-04-25T18:21:44.07Z</time></trkpt><trkpt lat="42.3250011" lon="-7.797513"><ele>331.5</ele><time>2026-04-25T18:21:45.076Z</time></trkpt><trkpt lat="42.325117" lon="-7.7975898"><ele>332.0</ele><time>2026-04-25T18:21:46.067Z</time></trkpt><trkpt lat="42.3252417" lon="-7.7976517"><ele>332.5</ele><time>2026-04-25T18:21:47.063Z</time></trkpt><trkpt lat="42.3253708" lon="-7.797698"><ele>333.0</ele><time>2026-04-25T18:21:48.068Z</time></trkpt><trkpt lat="42.3255062" lon="-7.7977433"><ele>333.5</ele><time>2026-04-25T18:21:49.069Z</time></trkpt><trkpt lat="42.325645" lon="-7.7977916"><ele>334.0</ele><time>2026-04-25T18:21:50.078Z</time></trkpt><trkpt lat="42.3257874" lon="-7.7978443"><ele>334.5</ele><time>2026-04-25T18:21:51.086Z</time></trkpt><trkpt lat="42.3259322" lon="-7.7978958"><ele>335.0</ele><time>2026-04-25T18:21:52.084Z</time></trkpt><trkpt lat="42.3260814" lon="-7.7979487"><ele>335.0</ele><time>2026-04-25T18:21:53.074Z</time></trkpt><trkpt lat="42.3262319" lon="-7.7980016"><ele>335.0</ele><time>2026-04-25T18:21:54.077Z</time></trkpt><trkpt lat="42.3263838" lon="-7.7980574"><ele>335.0</ele><time>2026-04-25T18:21:55.089Z</time></trkpt><trkpt lat="42.3265341" lon="-7.7981074"><ele>336.33333333333337</ele><time>2026-04-25T18:21:56.076Z</time></trkpt><trkpt lat="42.3266822" lon="-7.7981463"><ele>337.6666666666667</ele><time>2026-04-25T18:21:57.077Z</time></trkpt><trkpt lat="42.3268332" lon="-7.7981753"><ele>339.0</ele><time>2026-04-25T18:21:58.075Z</time></trkpt><trkpt lat="42.3269856" lon="-7.7981924"><ele>339.0</ele><time>2026-04-25T18:21:59.067Z</time></trkpt><trkpt lat="42.3271392" lon="-7.7981941"><ele>339.0</ele><time>2026-04-25T18:22:00.071Z</time></trkpt><trkpt lat="42.3272946" lon="-7.7981837"><ele>339.0</ele><time>2026-04-25T18:22:01.069Z</time></trkpt><trkpt lat="42.327454" lon="-7.7981673"><ele>339.3333333333333</ele><time>2026-04-25T18:22:02.063Z</time></trkpt><trkpt lat="42.3276145" lon="-7.7981466"><ele>339.66666666666663</ele><time>2026-04-25T18:22:03.082Z</time></trkpt><trkpt lat="42.3277771" lon="-7.798123"><ele>340.0</ele><time>2026-04-25T18:22:04.07Z</time></trkpt><trkpt lat="42.3279404" lon="-7.7980963"><ele>339.3333333333333</ele><time>2026-04-25T18:22:05.069Z</time></trkpt><trkpt lat="42.3281052" lon="-7.7980691"><ele>338.6666666666667</ele><time>2026-04-25T18:22:06.076Z</time></trkpt><trkpt lat="42.32827" lon="-7.7980423"><ele>338.0</ele><time>2026-04-25T18:22:07.063Z</time></trkpt><trkpt lat="42.3284361" lon="-7.7980148"><ele>338.0</ele><time>2026-04-25T18:22:08.07Z</time></trkpt><trkpt lat="42.3285991" lon="-7.7979849"><ele>338.0</ele><time>2026-04-25T18:22:09.078Z</time></trkpt><trkpt lat="42.3287564" lon="-7.7979452"><ele>338.0</ele><time>2026-04-25T18:22:10.068Z</time></trkpt><trkpt lat="42.3289086" lon="-7.797891"><ele>336.6666666666667</ele><time>2026-04-25T18:22:11.077Z</time></trkpt><trkpt lat="42.329056" lon="-7.7978201"><ele>335.3333333333333</ele><time>2026-04-25T18:22:12.08Z</time></trkpt><trkpt lat="42.3291986" lon="-7.7977352"><ele>334.0</ele><time>2026-04-25T18:22:13.077Z</time></trkpt><trkpt lat="42.3293384" lon="-7.7976371"><ele>335.0</ele><time>2026-04-25T18:22:14.061Z</time></trkpt><trkpt lat="42.329477" lon="-7.7975317"><ele>336.0</ele><time>2026-04-25T18:22:15.063Z</time></trkpt><trkpt lat="42.3296145" lon="-7.7974184"><ele>337.0</ele><time>2026-04-25T18:22:16.073Z</time></trkpt><trkpt lat="42.3297494" lon="-7.7972964"><ele>337.0</ele><time>2026-04-25T18:22:17.072Z</time></trkpt><trkpt lat="42.3298805" lon="-7.797167"><ele>337.0</ele><time>2026-04-25T18:22:18.07Z</time></trkpt><trkpt lat="42.330005" lon="-7.7970295"><ele>337.0</ele><time>2026-04-25T18:22:19.073Z</time></trkpt><trkpt lat="42.3301205" lon="-7.7968839"><ele>339.66666666666663</ele><time>2026-04-25T18:22:20.07Z</time></trkpt><trkpt lat="42.3302313" lon="-7.7967354"><ele>342.3333333333333</ele><time>2026-04-25T18:22:21.071Z</time></trkpt><trkpt lat="42.3303475" lon="-7.7965949"><ele>345.0</ele><time>2026-04-25T18:22:22.072Z</time></trkpt><trkpt lat="42.3304758" lon="-7.7964736"><ele>343.0</ele><time>2026-04-25T18:22:23.071Z</time></trkpt><trkpt lat="42.330616" lon="-7.7963749"><ele>341.0</ele><time>2026-04-25T18:22:24.068Z</time></trkpt><trkpt lat="42.3307629" lon="-7.7962964"><ele>339.0</ele><time>2026-04-25T18:22:25.07Z</time></trkpt><trkpt lat="42.3309125" lon="-7.7962288"><ele>339.0</ele><time>2026-04-25T18:22:26.066Z</time></trkpt><trkpt lat="42.3310624" lon="-7.7961637"><ele>339.0</ele><time>2026-04-25T18:22:27.067Z</time></trkpt><trkpt lat="42.331209" lon="-7.7960928"><ele>339.0</ele><time>2026-04-25T18:22:28.097Z</time></trkpt><trkpt lat="42.3313495" lon="-7.7960138"><ele>341.25</ele><time>2026-04-25T18:22:29.066Z</time></trkpt><trkpt lat="42.3314817" lon="-7.7959197"><ele>343.5</ele><time>2026-04-25T18:22:30.082Z</time></trkpt><trkpt lat="42.3316053" lon="-7.7958071"><ele>345.75</ele><time>2026-04-25T18:22:31.07Z</time></trkpt><trkpt lat="42.3317186" lon="-7.7956755"><ele>348.0</ele><time>2026-04-25T18:22:32.064Z</time></trkpt><trkpt lat="42.3318212" lon="-7.7955284"><ele>348.0</ele><time>2026-04-25T18:22:33.072Z</time></trkpt><trkpt lat="42.3319162" lon="-7.7953694"><ele>348.0</ele><time>2026-04-25T18:22:34.067Z</time></trkpt><trkpt lat="42.3320087" lon="-7.7952065"><ele>348.0</ele><time>2026-04-25T18:22:35.068Z</time></trkpt><trkpt lat="42.3321028" lon="-7.7950435"><ele>347.6666666666667</ele><time>2026-04-25T18:22:36.068Z</time></trkpt><trkpt lat="42.3321998" lon="-7.7948823"><ele>347.33333333333337</ele><time>2026-04-25T18:22:37.069Z</time></trkpt><trkpt lat="42.3323031" lon="-7.7947263"><ele>347.0</ele><time>2026-04-25T18:22:38.068Z</time></trkpt><trkpt lat="42.3324154" lon="-7.7945818"><ele>347.0</ele><time>2026-04-25T18:22:39.067Z</time></trkpt><trkpt lat="42.3325344" lon="-7.7944437"><ele>347.0</ele><time>2026-04-25T18:22:40.076Z</time></trkpt><trkpt lat="42.3326587" lon="-7.79431"><ele>347.0</ele><time>2026-04-25T18:22:41.059Z</time></trkpt><trkpt lat="42.3327883" lon="-7.7941816"><ele>348.6666666666667</ele><time>2026-04-25T18:22:42.07Z</time></trkpt><trkpt lat="42.3329204" lon="-7.7940526"><ele>350.3333333333333</ele><time>2026-04-25T18:22:43.069Z</time></trkpt><trkpt lat="42.3330546" lon="-7.7939244"><ele>352.0</ele><time>2026-04-25T18:22:44.066Z</time></trkpt><trkpt lat="42.3331903" lon="-7.7937978"><ele>352.0</ele><time>2026-04-25T18:22:45.071Z</time></trkpt><trkpt lat="42.3333278" lon="-7.7936735"><ele>352.0</ele><time>2026-04-25T18:22:46.066Z</time></trkpt><trkpt lat="42.3334663" lon="-7.7935508"><ele>352.0</ele><time>2026-04-25T18:22:47.076Z</time></trkpt><trkpt lat="42.3336053" lon="-7.7934294"><ele>353.66666666666663</ele><time>2026-04-25T18:22:48.061Z</time></trkpt><trkpt lat="42.3337497" lon="-7.793315"><ele>355.3333333333333</ele><time>2026-04-25T18:22:49.052Z</time></trkpt><trkpt lat="42.3339015" lon="-7.7932121"><ele>357.0</ele><time>2026-04-25T18:22:50.06Z</time></trkpt><trkpt lat="42.3340599" lon="-7.7931204"><ele>357.0</ele><time>2026-04-25T18:22:51.045Z</time></trkpt><trkpt lat="42.3342211" lon="-7.7930297"><ele>357.0</ele><time>2026-04-25T18:22:52.056Z</time></trkpt><trkpt lat="42.3343835" lon="-7.7929323"><ele>357.0</ele><time>2026-04-25T18:22:53.058Z</time></trkpt><trkpt lat="42.3345453" lon="-7.7928249"><ele>357.0</ele><time>2026-04-25T18:22:54.068Z</time></trkpt><trkpt lat="42.3347049" lon="-7.7927043"><ele>357.0</ele><time>2026-04-25T18:22:55.064Z</time></trkpt><trkpt lat="42.3348627" lon="-7.792572"><ele>357.0</ele><time>2026-04-25T18:22:56.07Z</time></trkpt><trkpt lat="42.3350218" lon="-7.7924342"><ele>359.0</ele><time>2026-04-25T18:22:57.073Z</time></trkpt><trkpt lat="42.3351824" lon="-7.7922921"><ele>361.0</ele><time>2026-04-25T18:22:58.07Z</time></trkpt><trkpt lat="42.3353457" lon="-7.7921473"><ele>363.0</ele><time>2026-04-25T18:22:59.077Z</time></trkpt><trkpt lat="42.3355125" lon="-7.7920032"><ele>363.0</ele><time>2026-04-25T18:23:00.067Z</time></trkpt><trkpt lat="42.3356829" lon="-7.7918602"><ele>363.0</ele><time>2026-04-25T18:23:01.082Z</time></trkpt><trkpt lat="42.3358553" lon="-7.7917177"><ele>363.0</ele><time>2026-04-25T18:23:02.07Z</time></trkpt><trkpt lat="42.3360262" lon="-7.7915729"><ele>363.0</ele><time>2026-04-25T18:23:03.074Z</time></trkpt><trkpt lat="42.3361938" lon="-7.7914261"><ele>363.0</ele><time>2026-04-25T18:23:04.079Z</time></trkpt><trkpt lat="42.3363567" lon="-7.7912767"><ele>363.0</ele><time>2026-04-25T18:23:05.08Z</time></trkpt><trkpt lat="42.3365136" lon="-7.7911276"><ele>365.0</ele><time>2026-04-25T18:23:06.076Z</time></trkpt><trkpt lat="42.3366644" lon="-7.7909856"><ele>367.0</ele><time>2026-04-25T18:23:07.074Z</time></trkpt><trkpt lat="42.3368086" lon="-7.7908453"><ele>369.0</ele><time>2026-04-25T18:23:08.067Z</time></trkpt><trkpt lat="42.3369427" lon="-7.7906979"><ele>369.0</ele><time>2026-04-25T18:23:09.074Z</time></trkpt><trkpt lat="42.3370645" lon="-7.790542"><ele>369.0</ele><time>2026-04-25T18:23:10.075Z</time></trkpt><trkpt lat="42.3371838" lon="-7.7903823"><ele>369.0</ele><time>2026-04-25T18:23:11.069Z</time></trkpt><trkpt lat="42.3373117" lon="-7.7902334"><ele>371.0</ele><time>2026-04-25T18:23:12.066Z</time></trkpt><trkpt lat="42.3374491" lon="-7.7901025"><ele>373.0</ele><time>2026-04-25T18:23:13.07Z</time></trkpt><trkpt lat="42.337589" lon="-7.7899736"><ele>375.0</ele><time>2026-04-25T18:23:14.066Z</time></trkpt><trkpt lat="42.3377281" lon="-7.7898402"><ele>375.0</ele><time>2026-04-25T18:23:15.068Z</time></trkpt><trkpt lat="42.3378651" lon="-7.7897"><ele>375.0</ele><time>2026-04-25T18:23:16.069Z</time></trkpt><trkpt lat="42.3379998" lon="-7.7895624"><ele>375.0</ele><time>2026-04-25T18:23:17.064Z</time></trkpt><trkpt lat="42.3381289" lon="-7.7894237"><ele>376.6666666666667</ele><time>2026-04-25T18:23:18.075Z</time></trkpt><trkpt lat="42.3382498" lon="-7.7892743"><ele>378.33333333333337</ele><time>2026-04-25T18:23:19.065Z</time></trkpt><trkpt lat="42.3383623" lon="-7.789112"><ele>380.0</ele><time>2026-04-25T18:23:20.07Z</time></trkpt><trkpt lat="42.3384688" lon="-7.7889398"><ele>380.0</ele><time>2026-04-25T18:23:21.068Z</time></trkpt><trkpt lat="42.3385712" lon="-7.7887594"><ele>380.0</ele><time>2026-04-25T18:23:22.052Z</time></trkpt><trkpt lat="42.3386707" lon="-7.7885734"><ele>380.0</ele><time>2026-04-25T18:23:23.073Z</time></trkpt><trkpt lat="42.3387672" lon="-7.7883826"><ele>380.0</ele><time>2026-04-25T18:23:24.077Z</time></trkpt><trkpt lat="42.3388639" lon="-7.78819"><ele>380.0</ele><time>2026-04-25T18:23:25.068Z</time></trkpt><trkpt lat="42.3389611" lon="-7.7880003"><ele>380.0</ele><time>2026-04-25T18:23:26.081Z</time></trkpt><trkpt lat="42.3390551" lon="-7.7878178"><ele>381.33333333333337</ele><time>2026-04-25T18:23:27.076Z</time></trkpt><trkpt lat="42.3391468" lon="-7.7876425"><ele>382.6666666666667</ele><time>2026-04-25T18:23:28.064Z</time></trkpt><trkpt lat="42.3392384" lon="-7.787475"><ele>384.0</ele><time>2026-04-25T18:23:29.064Z</time></trkpt><trkpt lat="42.3393343" lon="-7.7873158"><ele>384.0</ele><time>2026-04-25T18:23:30.075Z</time></trkpt><trkpt lat="42.339441" lon="-7.7871676"><ele>384.0</ele><time>2026-04-25T18:23:31.077Z</time></trkpt><trkpt lat="42.3395608" lon="-7.7870329"><ele>384.0</ele><time>2026-04-25T18:23:32.079Z</time></trkpt><trkpt lat="42.3396943" lon="-7.7869148"><ele>384.0</ele><time>2026-04-25T18:23:33.07Z</time></trkpt><trkpt lat="42.339836" lon="-7.7868055"><ele>384.0</ele><time>2026-04-25T18:23:34.083Z</time></trkpt><trkpt lat="42.3399818" lon="-7.7866964"><ele>384.0</ele><time>2026-04-25T18:23:35.077Z</time></trkpt><trkpt lat="42.3401297" lon="-7.7865859"><ele>384.0</ele><time>2026-04-25T18:23:36.073Z</time></trkpt><trkpt lat="42.3402779" lon="-7.7864742"><ele>384.0</ele><time>2026-04-25T18:23:37.067Z</time></trkpt><trkpt lat="42.3404264" lon="-7.786364"><ele>384.0</ele><time>2026-04-25T18:23:38.073Z</time></trkpt><trkpt lat="42.340573" lon="-7.7862554"><ele>384.0</ele><time>2026-04-25T18:23:39.071Z</time></trkpt><trkpt lat="42.3407177" lon="-7.7861475"><ele>384.0</ele><time>2026-04-25T18:23:40.081Z</time></trkpt><trkpt lat="42.3408603" lon="-7.7860402"><ele>384.0</ele><time>2026-04-25T18:23:41.069Z</time></trkpt><trkpt lat="42.3410039" lon="-7.7859336"><ele>384.33333333333337</ele><time>2026-04-25T18:23:42.072Z</time></trkpt><trkpt lat="42.3411495" lon="-7.7858288"><ele>384.6666666666667</ele><time>2026-04-25T18:23:43.076Z</time></trkpt><trkpt lat="42.3412961" lon="-7.7857245"><ele>385.0</ele><time>2026-04-25T18:23:44.082Z</time></trkpt><trkpt lat="42.3414409" lon="-7.7856178"><ele>385.0</ele><time>2026-04-25T18:23:45.071Z</time></trkpt><trkpt lat="42.3415841" lon="-7.7855068"><ele>385.0</ele><time>2026-04-25T18:23:46.079Z</time></trkpt><trkpt lat="42.341726" lon="-7.7853906"><ele>385.0</ele><time>2026-04-25T18:23:47.077Z</time></trkpt><trkpt lat="42.3418672" lon="-7.7852711"><ele>386.0</ele><time>2026-04-25T18:23:48.067Z</time></trkpt><trkpt lat="42.3420079" lon="-7.7851495"><ele>387.0</ele><time>2026-04-25T18:23:49.076Z</time></trkpt><trkpt lat="42.342148" lon="-7.7850255"><ele>388.0</ele><time>2026-04-25T18:23:50.062Z</time></trkpt><trkpt lat="42.3422878" lon="-7.7848993"><ele>388.0</ele><time>2026-04-25T18:23:51.063Z</time></trkpt><trkpt lat="42.3424296" lon="-7.7847714"><ele>388.0</ele><time>2026-04-25T18:23:52.071Z</time></trkpt><trkpt lat="42.3425729" lon="-7.7846437"><ele>388.0</ele><time>2026-04-25T18:23:53.075Z</time></trkpt><trkpt lat="42.3427167" lon="-7.7845145"><ele>388.0</ele><time>2026-04-25T18:23:54.064Z</time></trkpt><trkpt lat="42.3428616" lon="-7.7843846"><ele>388.0</ele><time>2026-04-25T18:23:55.078Z</time></trkpt><trkpt lat="42.343007" lon="-7.7842548"><ele>388.0</ele><time>2026-04-25T18:23:56.07Z</time></trkpt><trkpt lat="42.3431526" lon="-7.7841251"><ele>388.0</ele><time>2026-04-25T18:23:57.08Z</time></trkpt><trkpt lat="42.3432986" lon="-7.783995"><ele>388.0</ele><time>2026-04-25T18:23:58.088Z</time></trkpt><trkpt lat="42.3434454" lon="-7.7838623"><ele>388.0</ele><time>2026-04-25T18:23:59.077Z</time></trkpt><trkpt lat="42.3435937" lon="-7.7837284"><ele>388.0</ele><time>2026-04-25T18:24:00.07Z</time></trkpt><trkpt lat="42.3437418" lon="-7.7835939"><ele>388.0</ele><time>2026-04-25T18:24:01.071Z</time></trkpt><trkpt lat="42.3438914" lon="-7.7834599"><ele>388.0</ele><time>2026-04-25T18:24:02.072Z</time></trkpt><trkpt lat="42.3440409" lon="-7.7833246"><ele>388.0</ele><time>2026-04-25T18:24:03.08Z</time></trkpt><trkpt lat="42.3441893" lon="-7.7831888"><ele>388.0</ele><time>2026-04-25T18:24:04.082Z</time></trkpt><trkpt lat="42.3443377" lon="-7.7830532"><ele>388.0</ele><time>2026-04-25T18:24:05.078Z</time></trkpt><trkpt lat="42.3444866" lon="-7.7829182"><ele>388.0</ele><time>2026-04-25T18:24:06.07Z</time></trkpt><trkpt lat="42.344636" lon="-7.7827854"><ele>388.0</ele><time>2026-04-25T18:24:07.096Z</time></trkpt><trkpt lat="42.3447859" lon="-7.7826543"><ele>388.0</ele><time>2026-04-25T18:24:08.069Z</time></trkpt><trkpt lat="42.3449353" lon="-7.7825234"><ele>389.0</ele><time>2026-04-25T18:24:09.08Z</time></trkpt><trkpt lat="42.3450834" lon="-7.7823934"><ele>390.0</ele><time>2026-04-25T18:24:10.07Z</time></trkpt><trkpt lat="42.3452295" lon="-7.7822626"><ele>391.0</ele><time>2026-04-25T18:24:11.083Z</time></trkpt><trkpt lat="42.3453737" lon="-7.7821316"><ele>391.0</ele><time>2026-04-25T18:24:12.083Z</time></trkpt><trkpt lat="42.3455175" lon="-7.7820039"><ele>391.0</ele><time>2026-04-25T18:24:13.068Z</time></trkpt><trkpt lat="42.3456595" lon="-7.7818775"><ele>391.0</ele><time>2026-04-25T18:24:14.071Z</time></trkpt><trkpt lat="42.345801" lon="-7.781753"><ele>391.33333333333337</ele><time>2026-04-25T18:24:15.081Z</time></trkpt><trkpt lat="42.3459431" lon="-7.7816311"><ele>391.66666666666663</ele><time>2026-04-25T18:24:16.091Z</time></trkpt><trkpt lat="42.3460862" lon="-7.7815157"><ele>392.0</ele><time>2026-04-25T18:24:17.076Z</time></trkpt><trkpt lat="42.3462299" lon="-7.7814059"><ele>392.0</ele><time>2026-04-25T18:24:18.08Z</time></trkpt><trkpt lat="42.3463744" lon="-7.7812982"><ele>392.0</ele><time>2026-04-25T18:24:19.066Z</time></trkpt><trkpt lat="42.3465204" lon="-7.7811921"><ele>392.0</ele><time>2026-04-25T18:24:20.071Z</time></trkpt><trkpt lat="42.3466646" lon="-7.781089"><ele>392.66666666666663</ele><time>2026-04-25T18:24:21.075Z</time></trkpt><trkpt lat="42.3468053" lon="-7.7809888"><ele>393.33333333333337</ele><time>2026-04-25T18:24:22.077Z</time></trkpt><trkpt lat="42.3469428" lon="-7.7808897"><ele>394.0</ele><time>2026-04-25T18:24:23.075Z</time></trkpt><trkpt lat="42.3470772" lon="-7.7807934"><ele>394.0</ele><time>2026-04-25T18:24:24.071Z</time></trkpt><trkpt lat="42.3472082" lon="-7.7807012"><ele>394.0</ele><time>2026-04-25T18:24:25.067Z</time></trkpt><trkpt lat="42.3473351" lon="-7.7806114"><ele>394.0</ele><time>2026-04-25T18:24:26.069Z</time></trkpt><trkpt lat="42.3474582" lon="-7.7805243"><ele>394.0</ele><time>2026-04-25T18:24:27.07Z</time></trkpt><trkpt lat="42.3475761" lon="-7.7804407"><ele>394.0</ele><time>2026-04-25T18:24:28.071Z</time></trkpt><trkpt lat="42.3476837" lon="-7.7803635"><ele>394.0</ele><time>2026-04-25T18:24:29.071Z</time></trkpt><trkpt lat="42.3477802" lon="-7.7802941"><ele>394.0</ele><time>2026-04-25T18:24:30.055Z</time></trkpt><trkpt lat="42.3478689" lon="-7.7802305"><ele>394.0</ele><time>2026-04-25T18:24:31.071Z</time></trkpt><trkpt lat="42.3479549" lon="-7.7801703"><ele>394.0</ele><time>2026-04-25T18:24:32.08Z</time></trkpt><trkpt lat="42.3480364" lon="-7.7801139"><ele>394.00000000000006</ele><time>2026-04-25T18:24:33.081Z</time></trkpt><trkpt lat="42.3481111" lon="-7.7800625"><ele>394.0</ele><time>2026-04-25T18:24:34.079Z</time></trkpt><trkpt lat="42.3481751" lon="-7.7800182"><ele>394.0</ele><time>2026-04-25T18:24:35.077Z</time></trkpt><trkpt lat="42.3482792" lon="-7.7799605"><ele>394.0</ele><time>2026-04-25T18:24:37.075Z</time></trkpt><trkpt lat="42.3483634" lon="-7.7799787"><ele>394.00000000000006</ele><time>2026-04-25T18:24:39.066Z</time></trkpt><trkpt lat="42.3484116" lon="-7.7800832"><ele>394.0</ele><time>2026-04-25T18:24:41.066Z</time></trkpt><trkpt lat="42.3484014" lon="-7.7802395"><ele>394.1666666666667</ele><time>2026-04-25T18:24:43.075Z</time></trkpt><trkpt lat="42.348385" lon="-7.7803361"><ele>394.33333333333337</ele><time>2026-04-25T18:24:44.072Z</time></trkpt><trkpt lat="42.348364" lon="-7.7804414"><ele>394.5</ele><time>2026-04-25T18:24:45.077Z</time></trkpt><trkpt lat="42.3483422" lon="-7.7805475"><ele>394.66666666666663</ele><time>2026-04-25T18:24:46.073Z</time></trkpt><trkpt lat="42.3483207" lon="-7.7806631"><ele>394.8333333333333</ele><time>2026-04-25T18:24:47.064Z</time></trkpt><trkpt lat="42.3483016" lon="-7.7807906"><ele>395.0</ele><time>2026-04-25T18:24:48.072Z</time></trkpt><trkpt lat="42.3482885" lon="-7.7809267"><ele>394.8</ele><time>2026-04-25T18:24:49.076Z</time></trkpt><trkpt lat="42.3482846" lon="-7.7810683"><ele>394.6</ele><time>2026-04-25T18:24:50.067Z</time></trkpt><trkpt lat="42.3482915" lon="-7.7812135"><ele>394.4</ele><time>2026-04-25T18:24:51.07Z</time></trkpt><trkpt lat="42.3483051" lon="-7.781366"><ele>394.2</ele><time>2026-04-25T18:24:52.076Z</time></trkpt><trkpt lat="42.3483279" lon="-7.7815272"><ele>394.0</ele><time>2026-04-25T18:24:53.075Z</time></trkpt><trkpt lat="42.3483556" lon="-7.7816938"><ele>394.0</ele><time>2026-04-25T18:24:54.087Z</time></trkpt><trkpt lat="42.3483851" lon="-7.7818643"><ele>394.0</ele><time>2026-04-25T18:24:55.078Z</time></trkpt><trkpt lat="42.348414" lon="-7.7820436"><ele>394.0</ele><time>2026-04-25T18:24:56.073Z</time></trkpt><trkpt lat="42.3484436" lon="-7.7822315"><ele>394.0</ele><time>2026-04-25T18:24:57.081Z</time></trkpt><trkpt lat="42.3484757" lon="-7.7824267"><ele>394.0</ele><time>2026-04-25T18:24:58.076Z</time></trkpt><trkpt lat="42.3485095" lon="-7.7826272"><ele>394.0</ele><time>2026-04-25T18:24:59.082Z</time></trkpt><trkpt lat="42.3485455" lon="-7.7828308"><ele>394.0</ele><time>2026-04-25T18:25:00.078Z</time></trkpt><trkpt lat="42.3485848" lon="-7.7830361"><ele>393.33333333333337</ele><time>2026-04-25T18:25:01.073Z</time></trkpt><trkpt lat="42.3486273" lon="-7.7832426"><ele>392.66666666666663</ele><time>2026-04-25T18:25:02.069Z</time></trkpt><trkpt lat="42.3486763" lon="-7.7834467"><ele>392.0</ele><time>2026-04-25T18:25:03.076Z</time></trkpt><trkpt lat="42.3487285" lon="-7.7836474"><ele>392.0</ele><time>2026-04-25T18:25:04.091Z</time></trkpt><trkpt lat="42.348771" lon="-7.7838516"><ele>392.0</ele><time>2026-04-25T18:25:05.071Z</time></trkpt><trkpt lat="42.3488036" lon="-7.7840621"><ele>392.0</ele><time>2026-04-25T18:25:06.07Z</time></trkpt><trkpt lat="42.3488309" lon="-7.784277"><ele>392.66666666666663</ele><time>2026-04-25T18:25:07.069Z</time></trkpt><trkpt lat="42.3488537" lon="-7.7844928"><ele>393.33333333333337</ele><time>2026-04-25T18:25:08.071Z</time></trkpt><trkpt lat="42.3488721" lon="-7.7847032"><ele>394.0</ele><time>2026-04-25T18:25:09.073Z</time></trkpt><trkpt lat="42.3488878" lon="-7.7849101"><ele>394.75</ele><time>2026-04-25T18:25:10.075Z</time></trkpt><trkpt lat="42.3488964" lon="-7.7851129"><ele>395.5</ele><time>2026-04-25T18:25:11.072Z</time></trkpt><trkpt lat="42.348901" lon="-7.785313"><ele>396.25</ele><time>2026-04-25T18:25:12.077Z</time></trkpt><trkpt lat="42.3489009" lon="-7.7855083"><ele>397.0</ele><time>2026-04-25T18:25:13.085Z</time></trkpt><trkpt lat="42.348899" lon="-7.7857007"><ele>397.5</ele><time>2026-04-25T18:25:14.104Z</time></trkpt><trkpt lat="42.3488963" lon="-7.7858879"><ele>398.0</ele><time>2026-04-25T18:25:15.076Z</time></trkpt><trkpt lat="42.3488932" lon="-7.7860687"><ele>398.5</ele><time>2026-04-25T18:25:16.075Z</time></trkpt><trkpt lat="42.3488898" lon="-7.786243"><ele>399.0</ele><time>2026-04-25T18:25:17.087Z</time></trkpt><trkpt lat="42.348887" lon="-7.7864102"><ele>399.2</ele><time>2026-04-25T18:25:18.067Z</time></trkpt><trkpt lat="42.3488868" lon="-7.7865711"><ele>399.4</ele><time>2026-04-25T18:25:19.072Z</time></trkpt><trkpt lat="42.3488861" lon="-7.7867246"><ele>399.6</ele><time>2026-04-25T18:25:20.074Z</time></trkpt><trkpt lat="42.3488848" lon="-7.7868653"><ele>399.8</ele><time>2026-04-25T18:25:21.074Z</time></trkpt><trkpt lat="42.3488831" lon="-7.7869907"><ele>400.0</ele><time>2026-04-25T18:25:22.084Z</time></trkpt><trkpt lat="42.348882" lon="-7.7870944"><ele>400.1666666666667</ele><time>2026-04-25T18:25:23.08Z</time></trkpt><trkpt lat="42.3488889" lon="-7.7872341"><ele>400.33333333333337</ele><time>2026-04-25T18:25:25.073Z</time></trkpt><trkpt lat="42.3488946" lon="-7.7873324"><ele>400.5</ele><time>2026-04-25T18:25:28.066Z</time></trkpt><trkpt lat="42.3488566" lon="-7.7874206"><ele>400.66666666666663</ele><time>2026-04-25T18:25:30.067Z</time></trkpt><trkpt lat="42.3487697" lon="-7.7875192"><ele>400.8333333333333</ele><time>2026-04-25T18:25:32.066Z</time></trkpt><trkpt lat="42.3487111" lon="-7.7875693"><ele>401.0</ele><time>2026-04-25T18:25:33.072Z</time></trkpt><trkpt lat="42.3486468" lon="-7.7876253"><ele>401.6</ele><time>2026-04-25T18:25:34.077Z</time></trkpt><trkpt lat="42.3485756" lon="-7.7876891"><ele>402.20000000000005</ele><time>2026-04-25T18:25:35.077Z</time></trkpt><trkpt lat="42.3484969" lon="-7.7877605"><ele>402.79999999999995</ele><time>2026-04-25T18:25:36.074Z</time></trkpt><trkpt lat="42.3484119" lon="-7.7878379"><ele>403.4</ele><time>2026-04-25T18:25:37.082Z</time></trkpt><trkpt lat="42.3483254" lon="-7.7879199"><ele>404.0</ele><time>2026-04-25T18:25:38.088Z</time></trkpt><trkpt lat="42.348238" lon="-7.7880044"><ele>404.0</ele><time>2026-04-25T18:25:39.075Z</time></trkpt><trkpt lat="42.3481486" lon="-7.7880905"><ele>404.0</ele><time>2026-04-25T18:25:40.07Z</time></trkpt><trkpt lat="42.3480583" lon="-7.7881773"><ele>404.0</ele><time>2026-04-25T18:25:41.079Z</time></trkpt><trkpt lat="42.3479663" lon="-7.7882652"><ele>404.0</ele><time>2026-04-25T18:25:42.072Z</time></trkpt><trkpt lat="42.3478776" lon="-7.7883507"><ele>404.0</ele><time>2026-04-25T18:25:43.075Z</time></trkpt><trkpt lat="42.3477913" lon="-7.7884327"><ele>403.0</ele><time>2026-04-25T18:25:44.072Z</time></trkpt><trkpt lat="42.3477063" lon="-7.7885125"><ele>402.0</ele><time>2026-04-25T18:25:45.078Z</time></trkpt><trkpt lat="42.3476231" lon="-7.7885936"><ele>401.0</ele><time>2026-04-25T18:25:46.077Z</time></trkpt><trkpt lat="42.3475402" lon="-7.7886736"><ele>400.0</ele><time>2026-04-25T18:25:47.087Z</time></trkpt><trkpt lat="42.3474597" lon="-7.7887532"><ele>399.0</ele><time>2026-04-25T18:25:48.074Z</time></trkpt><trkpt lat="42.347381" lon="-7.788828"><ele>399.0</ele><time>2026-04-25T18:25:49.081Z</time></trkpt><trkpt lat="42.3473061" lon="-7.7889007"><ele>399.0</ele><time>2026-04-25T18:25:50.073Z</time></trkpt><trkpt lat="42.3472343" lon="-7.7889686"><ele>399.0</ele><time>2026-04-25T18:25:51.074Z</time></trkpt><trkpt lat="42.3471671" lon="-7.7890351"><ele>399.0</ele><time>2026-04-25T18:25:52.081Z</time></trkpt><trkpt lat="42.347111" lon="-7.7891013"><ele>399.0</ele><time>2026-04-25T18:25:53.073Z</time></trkpt><trkpt lat="42.3470718" lon="-7.789171"><ele>399.0</ele><time>2026-04-25T18:25:54.074Z</time></trkpt><trkpt lat="42.3470473" lon="-7.7893233"><ele>399.2</ele><time>2026-04-25T18:25:56.078Z</time></trkpt><trkpt lat="42.3470903" lon="-7.7894868"><ele>399.4</ele><time>2026-04-25T18:25:58.07Z</time></trkpt><trkpt lat="42.3471282" lon="-7.7895881"><ele>399.6</ele><time>2026-04-25T18:25:59.072Z</time></trkpt><trkpt lat="42.3471683" lon="-7.789699"><ele>399.8</ele><time>2026-04-25T18:26:00.076Z</time></trkpt><trkpt lat="42.3472043" lon="-7.7898106"><ele>400.0</ele><time>2026-04-25T18:26:01.072Z</time></trkpt><trkpt lat="42.3472397" lon="-7.7899237"><ele>399.6666666666667</ele><time>2026-04-25T18:26:02.076Z</time></trkpt><trkpt lat="42.347279" lon="-7.7900309"><ele>399.33333333333337</ele><time>2026-04-25T18:26:03.081Z</time></trkpt><trkpt lat="42.3473194" lon="-7.7901339"><ele>399.0</ele><time>2026-04-25T18:26:04.067Z</time></trkpt><trkpt lat="42.3473628" lon="-7.7902257"><ele>398.66666666666663</ele><time>2026-04-25T18:26:05.074Z</time></trkpt><trkpt lat="42.3474042" lon="-7.7903073"><ele>398.3333333333333</ele><time>2026-04-25T18:26:06.07Z</time></trkpt><trkpt lat="42.3474408" lon="-7.7903808"><ele>398.0</ele><time>2026-04-25T18:26:07.076Z</time></trkpt><trkpt lat="42.3475082" lon="-7.7905091"><ele>393.0</ele><time>2026-04-25T18:26:09.067Z</time></trkpt><trkpt lat="42.3475602" lon="-7.7906017"><ele>393.0</ele><time>2026-04-25T18:26:11.073Z</time></trkpt></trkseg></trk></gpx>